<?xml version="1.0" encoding="UTF-8" standalone="no" ?>
<gpx xmlns="http://www.topografix.com/GPX/1/1" xmlns:xsi="http://www.w3.org/2001/XMLSchema-instance" xsi:schemaLocation="http://www.topografix.com/GPX/1/1 http://www.topografix.com/GPX/1/1/gpx.xsd" version="1.1" creator="VisuGPX - https://www.visugpx.com">
  <metadata>
    <name>Ailly sur Somme Argoeuvres Dreuil-les-Amiens </name>
  </metadata>
  <trk>
    <name><![CDATA[Ailly sur Somme Argoeuvres Dreuil-les-Amiens _1]]></name>
    <trkseg>
      <trkpt lat="49.92782" lon="2.20049">
        <ele>20.6</ele>
        <time>2022-02-02T13:00:29Z</time>
      </trkpt>
      <trkpt lat="49.92782" lon="2.20049">
        <ele>20.6</ele>
        <time>2022-02-02T13:00:30Z</time>
      </trkpt>
      <trkpt lat="49.92782" lon="2.20049">
        <ele>20.6</ele>
        <time>2022-02-02T13:00:31Z</time>
      </trkpt>
      <trkpt lat="49.92782" lon="2.20049">
        <ele>20.6</ele>
        <time>2022-02-02T13:00:32Z</time>
      </trkpt>
      <trkpt lat="49.92782" lon="2.20049">
        <ele>20.6</ele>
        <time>2022-02-02T13:00:33Z</time>
      </trkpt>
      <trkpt lat="49.92782" lon="2.20049">
        <ele>20.6</ele>
        <time>2022-02-02T13:00:34Z</time>
      </trkpt>
      <trkpt lat="49.92782" lon="2.20049">
        <ele>20.6</ele>
        <time>2022-02-02T13:00:35Z</time>
      </trkpt>
      <trkpt lat="49.92782" lon="2.20049">
        <ele>20.6</ele>
        <time>2022-02-02T13:00:36Z</time>
      </trkpt>
      <trkpt lat="49.92782" lon="2.20049">
        <ele>20.6</ele>
        <time>2022-02-02T13:00:37Z</time>
      </trkpt>
      <trkpt lat="49.92782" lon="2.20049">
        <ele>20.6</ele>
        <time>2022-02-02T13:00:38Z</time>
      </trkpt>
      <trkpt lat="49.92782" lon="2.20049">
        <ele>20.6</ele>
        <time>2022-02-02T13:00:39Z</time>
      </trkpt>
      <trkpt lat="49.92782" lon="2.20049">
        <ele>20.6</ele>
        <time>2022-02-02T13:00:40Z</time>
      </trkpt>
      <trkpt lat="49.92782" lon="2.20049">
        <ele>20.6</ele>
        <time>2022-02-02T13:00:41Z</time>
      </trkpt>
      <trkpt lat="49.92782" lon="2.20049">
        <ele>20.6</ele>
        <time>2022-02-02T13:00:42Z</time>
      </trkpt>
      <trkpt lat="49.92782" lon="2.20049">
        <ele>20.6</ele>
        <time>2022-02-02T13:00:43Z</time>
      </trkpt>
      <trkpt lat="49.92782" lon="2.20049">
        <ele>20.6</ele>
        <time>2022-02-02T13:00:44Z</time>
      </trkpt>
      <trkpt lat="49.92783" lon="2.20048">
        <ele>20.5</ele>
        <time>2022-02-02T13:00:45Z</time>
      </trkpt>
      <trkpt lat="49.92783" lon="2.20048">
        <ele>20.5</ele>
        <time>2022-02-02T13:00:46Z</time>
      </trkpt>
      <trkpt lat="49.92783" lon="2.20047">
        <ele>20.5</ele>
        <time>2022-02-02T13:00:47Z</time>
      </trkpt>
      <trkpt lat="49.92784" lon="2.20045">
        <ele>20.5</ele>
        <time>2022-02-02T13:00:48Z</time>
      </trkpt>
      <trkpt lat="49.92784" lon="2.20045">
        <ele>20.5</ele>
        <time>2022-02-02T13:00:49Z</time>
      </trkpt>
      <trkpt lat="49.92783" lon="2.20044">
        <ele>20.5</ele>
        <time>2022-02-02T13:00:50Z</time>
      </trkpt>
      <trkpt lat="49.92783" lon="2.20043">
        <ele>20.4</ele>
        <time>2022-02-02T13:00:51Z</time>
      </trkpt>
      <trkpt lat="49.92782" lon="2.20043">
        <ele>20.4</ele>
        <time>2022-02-02T13:00:52Z</time>
      </trkpt>
      <trkpt lat="49.92782" lon="2.20041">
        <ele>20.4</ele>
        <time>2022-02-02T13:00:53Z</time>
      </trkpt>
      <trkpt lat="49.92783" lon="2.20039">
        <ele>20.4</ele>
        <time>2022-02-02T13:00:55Z</time>
      </trkpt>
      <trkpt lat="49.92784" lon="2.20038">
        <ele>20.3</ele>
        <time>2022-02-02T13:00:56Z</time>
      </trkpt>
      <trkpt lat="49.92785" lon="2.20037">
        <ele>20.3</ele>
        <time>2022-02-02T13:00:57Z</time>
      </trkpt>
      <trkpt lat="49.92785" lon="2.20037">
        <ele>20.3</ele>
        <time>2022-02-02T13:00:58Z</time>
      </trkpt>
      <trkpt lat="49.92786" lon="2.20036">
        <ele>20.3</ele>
        <time>2022-02-02T13:00:59Z</time>
      </trkpt>
      <trkpt lat="49.92787" lon="2.20036">
        <ele>20.3</ele>
        <time>2022-02-02T13:01:00Z</time>
      </trkpt>
      <trkpt lat="49.92788" lon="2.20035">
        <ele>20.2</ele>
        <time>2022-02-02T13:01:01Z</time>
      </trkpt>
      <trkpt lat="49.92789" lon="2.20034">
        <ele>20.2</ele>
        <time>2022-02-02T13:01:02Z</time>
      </trkpt>
      <trkpt lat="49.9279" lon="2.20033">
        <ele>20.2</ele>
        <time>2022-02-02T13:01:03Z</time>
      </trkpt>
      <trkpt lat="49.9279" lon="2.20032">
        <ele>20.2</ele>
        <time>2022-02-02T13:01:05Z</time>
      </trkpt>
      <trkpt lat="49.92791" lon="2.20032">
        <ele>20.1</ele>
        <time>2022-02-02T13:01:06Z</time>
      </trkpt>
      <trkpt lat="49.92791" lon="2.20031">
        <ele>20.1</ele>
        <time>2022-02-02T13:01:09Z</time>
      </trkpt>
      <trkpt lat="49.92792" lon="2.2003">
        <ele>20.1</ele>
        <time>2022-02-02T13:01:10Z</time>
      </trkpt>
      <trkpt lat="49.92792" lon="2.20029">
        <ele>20.1</ele>
        <time>2022-02-02T13:01:11Z</time>
      </trkpt>
      <trkpt lat="49.92793" lon="2.20027">
        <ele>20.1</ele>
        <time>2022-02-02T13:01:12Z</time>
      </trkpt>
      <trkpt lat="49.92793" lon="2.20026">
        <ele>20</ele>
        <time>2022-02-02T13:01:13Z</time>
      </trkpt>
      <trkpt lat="49.92794" lon="2.20024">
        <ele>20</ele>
        <time>2022-02-02T13:01:15Z</time>
      </trkpt>
      <trkpt lat="49.92795" lon="2.20022">
        <ele>20</ele>
        <time>2022-02-02T13:01:16Z</time>
      </trkpt>
      <trkpt lat="49.92796" lon="2.2002">
        <ele>19.9</ele>
        <time>2022-02-02T13:01:19Z</time>
      </trkpt>
      <trkpt lat="49.92797" lon="2.20019">
        <ele>19.9</ele>
        <time>2022-02-02T13:01:20Z</time>
      </trkpt>
      <trkpt lat="49.92797" lon="2.20019">
        <ele>19.9</ele>
        <time>2022-02-02T13:01:21Z</time>
      </trkpt>
      <trkpt lat="49.92797" lon="2.20019">
        <ele>19.9</ele>
        <time>2022-02-02T13:01:22Z</time>
      </trkpt>
      <trkpt lat="49.92797" lon="2.20018">
        <ele>19.9</ele>
        <time>2022-02-02T13:01:23Z</time>
      </trkpt>
      <trkpt lat="49.92798" lon="2.20017">
        <ele>19.8</ele>
        <time>2022-02-02T13:01:24Z</time>
      </trkpt>
      <trkpt lat="49.92798" lon="2.20017">
        <ele>19.8</ele>
        <time>2022-02-02T13:01:25Z</time>
      </trkpt>
      <trkpt lat="49.92799" lon="2.20017">
        <ele>19.8</ele>
        <time>2022-02-02T13:01:26Z</time>
      </trkpt>
      <trkpt lat="49.92799" lon="2.20017">
        <ele>19.8</ele>
        <time>2022-02-02T13:01:27Z</time>
      </trkpt>
      <trkpt lat="49.928" lon="2.20017">
        <ele>19.8</ele>
        <time>2022-02-02T13:01:29Z</time>
      </trkpt>
      <trkpt lat="49.92801" lon="2.20017">
        <ele>19.8</ele>
        <time>2022-02-02T13:01:30Z</time>
      </trkpt>
      <trkpt lat="49.92802" lon="2.20018">
        <ele>19.7</ele>
        <time>2022-02-02T13:01:32Z</time>
      </trkpt>
      <trkpt lat="49.92802" lon="2.20019">
        <ele>19.7</ele>
        <time>2022-02-02T13:01:33Z</time>
      </trkpt>
      <trkpt lat="49.92803" lon="2.20019">
        <ele>19.7</ele>
        <time>2022-02-02T13:01:34Z</time>
      </trkpt>
      <trkpt lat="49.92803" lon="2.20019">
        <ele>19.7</ele>
        <time>2022-02-02T13:01:35Z</time>
      </trkpt>
      <trkpt lat="49.92804" lon="2.20019">
        <ele>19.7</ele>
        <time>2022-02-02T13:01:37Z</time>
      </trkpt>
      <trkpt lat="49.92804" lon="2.2002">
        <ele>19.7</ele>
        <time>2022-02-02T13:01:38Z</time>
      </trkpt>
      <trkpt lat="49.92805" lon="2.20021">
        <ele>19.7</ele>
        <time>2022-02-02T13:01:39Z</time>
      </trkpt>
      <trkpt lat="49.92807" lon="2.20021">
        <ele>19.6</ele>
        <time>2022-02-02T13:01:40Z</time>
      </trkpt>
      <trkpt lat="49.92808" lon="2.20022">
        <ele>19.6</ele>
        <time>2022-02-02T13:01:41Z</time>
      </trkpt>
      <trkpt lat="49.92808" lon="2.20023">
        <ele>19.6</ele>
        <time>2022-02-02T13:01:42Z</time>
      </trkpt>
      <trkpt lat="49.92809" lon="2.20023">
        <ele>19.6</ele>
        <time>2022-02-02T13:01:43Z</time>
      </trkpt>
      <trkpt lat="49.92811" lon="2.20024">
        <ele>19.5</ele>
        <time>2022-02-02T13:01:44Z</time>
      </trkpt>
      <trkpt lat="49.92812" lon="2.20025">
        <ele>19.5</ele>
        <time>2022-02-02T13:01:46Z</time>
      </trkpt>
      <trkpt lat="49.92812" lon="2.20025">
        <ele>19.5</ele>
        <time>2022-02-02T13:01:47Z</time>
      </trkpt>
      <trkpt lat="49.92812" lon="2.20025">
        <ele>19.5</ele>
        <time>2022-02-02T13:01:48Z</time>
      </trkpt>
      <trkpt lat="49.92812" lon="2.20025">
        <ele>19.5</ele>
        <time>2022-02-02T13:01:50Z</time>
      </trkpt>
      <trkpt lat="49.92813" lon="2.20026">
        <ele>19.4</ele>
        <time>2022-02-02T13:01:51Z</time>
      </trkpt>
      <trkpt lat="49.92814" lon="2.20026">
        <ele>19.4</ele>
        <time>2022-02-02T13:01:52Z</time>
      </trkpt>
      <trkpt lat="49.92815" lon="2.20027">
        <ele>19.4</ele>
        <time>2022-02-02T13:01:53Z</time>
      </trkpt>
      <trkpt lat="49.92816" lon="2.20027">
        <ele>19.4</ele>
        <time>2022-02-02T13:01:55Z</time>
      </trkpt>
      <trkpt lat="49.92816" lon="2.20027">
        <ele>19.4</ele>
        <time>2022-02-02T13:01:56Z</time>
      </trkpt>
      <trkpt lat="49.92817" lon="2.20027">
        <ele>19.3</ele>
        <time>2022-02-02T13:01:57Z</time>
      </trkpt>
      <trkpt lat="49.92819" lon="2.20027">
        <ele>19.3</ele>
        <time>2022-02-02T13:01:58Z</time>
      </trkpt>
      <trkpt lat="49.92821" lon="2.20027">
        <ele>19.3</ele>
        <time>2022-02-02T13:02:00Z</time>
      </trkpt>
      <trkpt lat="49.92822" lon="2.20028">
        <ele>19.2</ele>
        <time>2022-02-02T13:02:01Z</time>
      </trkpt>
      <trkpt lat="49.92825" lon="2.2003">
        <ele>19.2</ele>
        <time>2022-02-02T13:02:02Z</time>
      </trkpt>
      <trkpt lat="49.92826" lon="2.2003">
        <ele>19.1</ele>
        <time>2022-02-02T13:02:03Z</time>
      </trkpt>
      <trkpt lat="49.92828" lon="2.20031">
        <ele>19</ele>
        <time>2022-02-02T13:02:04Z</time>
      </trkpt>
      <trkpt lat="49.92829" lon="2.20032">
        <ele>19</ele>
        <time>2022-02-02T13:02:05Z</time>
      </trkpt>
      <trkpt lat="49.92831" lon="2.20033">
        <ele>19</ele>
        <time>2022-02-02T13:02:07Z</time>
      </trkpt>
      <trkpt lat="49.92832" lon="2.20034">
        <ele>19</ele>
        <time>2022-02-02T13:02:08Z</time>
      </trkpt>
      <trkpt lat="49.92834" lon="2.20036">
        <ele>19</ele>
        <time>2022-02-02T13:02:09Z</time>
      </trkpt>
      <trkpt lat="49.92835" lon="2.20036">
        <ele>19</ele>
        <time>2022-02-02T13:02:10Z</time>
      </trkpt>
      <trkpt lat="49.92835" lon="2.20037">
        <ele>18.9</ele>
        <time>2022-02-02T13:02:11Z</time>
      </trkpt>
      <trkpt lat="49.92836" lon="2.20038">
        <ele>18.9</ele>
        <time>2022-02-02T13:02:12Z</time>
      </trkpt>
      <trkpt lat="49.92837" lon="2.20039">
        <ele>18.9</ele>
        <time>2022-02-02T13:02:13Z</time>
      </trkpt>
      <trkpt lat="49.92837" lon="2.2004">
        <ele>18.9</ele>
        <time>2022-02-02T13:02:14Z</time>
      </trkpt>
      <trkpt lat="49.92838" lon="2.20041">
        <ele>18.9</ele>
        <time>2022-02-02T13:02:16Z</time>
      </trkpt>
      <trkpt lat="49.92839" lon="2.20042">
        <ele>18.9</ele>
        <time>2022-02-02T13:02:17Z</time>
      </trkpt>
      <trkpt lat="49.9284" lon="2.20043">
        <ele>18.9</ele>
        <time>2022-02-02T13:02:18Z</time>
      </trkpt>
      <trkpt lat="49.92841" lon="2.20043">
        <ele>18.9</ele>
        <time>2022-02-02T13:02:19Z</time>
      </trkpt>
      <trkpt lat="49.92841" lon="2.20044">
        <ele>18.9</ele>
        <time>2022-02-02T13:02:20Z</time>
      </trkpt>
      <trkpt lat="49.92843" lon="2.20044">
        <ele>18.9</ele>
        <time>2022-02-02T13:02:21Z</time>
      </trkpt>
      <trkpt lat="49.92844" lon="2.20043">
        <ele>18.8</ele>
        <time>2022-02-02T13:02:22Z</time>
      </trkpt>
      <trkpt lat="49.92843" lon="2.20042">
        <ele>18.8</ele>
        <time>2022-02-02T13:02:23Z</time>
      </trkpt>
      <trkpt lat="49.92844" lon="2.20042">
        <ele>18.8</ele>
        <time>2022-02-02T13:02:25Z</time>
      </trkpt>
      <trkpt lat="49.92846" lon="2.20042">
        <ele>18.8</ele>
        <time>2022-02-02T13:02:26Z</time>
      </trkpt>
      <trkpt lat="49.92846" lon="2.20041">
        <ele>18.8</ele>
        <time>2022-02-02T13:02:27Z</time>
      </trkpt>
      <trkpt lat="49.92847" lon="2.20042">
        <ele>18.8</ele>
        <time>2022-02-02T13:02:28Z</time>
      </trkpt>
      <trkpt lat="49.92848" lon="2.20042">
        <ele>18.8</ele>
        <time>2022-02-02T13:02:29Z</time>
      </trkpt>
      <trkpt lat="49.92849" lon="2.20041">
        <ele>18.8</ele>
        <time>2022-02-02T13:02:31Z</time>
      </trkpt>
      <trkpt lat="49.9285" lon="2.20042">
        <ele>18.7</ele>
        <time>2022-02-02T13:02:32Z</time>
      </trkpt>
      <trkpt lat="49.92851" lon="2.20042">
        <ele>18.7</ele>
        <time>2022-02-02T13:02:33Z</time>
      </trkpt>
      <trkpt lat="49.92853" lon="2.20042">
        <ele>18.7</ele>
        <time>2022-02-02T13:02:34Z</time>
      </trkpt>
      <trkpt lat="49.92854" lon="2.20042">
        <ele>18.7</ele>
        <time>2022-02-02T13:02:35Z</time>
      </trkpt>
      <trkpt lat="49.92855" lon="2.20042">
        <ele>18.7</ele>
        <time>2022-02-02T13:02:36Z</time>
      </trkpt>
      <trkpt lat="49.92856" lon="2.20042">
        <ele>18.7</ele>
        <time>2022-02-02T13:02:37Z</time>
      </trkpt>
      <trkpt lat="49.92857" lon="2.20042">
        <ele>18.7</ele>
        <time>2022-02-02T13:02:38Z</time>
      </trkpt>
      <trkpt lat="49.92858" lon="2.20042">
        <ele>18.7</ele>
        <time>2022-02-02T13:02:40Z</time>
      </trkpt>
      <trkpt lat="49.92859" lon="2.20043">
        <ele>18.6</ele>
        <time>2022-02-02T13:02:41Z</time>
      </trkpt>
      <trkpt lat="49.9286" lon="2.20043">
        <ele>18.6</ele>
        <time>2022-02-02T13:02:42Z</time>
      </trkpt>
      <trkpt lat="49.92861" lon="2.20043">
        <ele>18.6</ele>
        <time>2022-02-02T13:02:43Z</time>
      </trkpt>
      <trkpt lat="49.92863" lon="2.20044">
        <ele>18.6</ele>
        <time>2022-02-02T13:02:44Z</time>
      </trkpt>
      <trkpt lat="49.92864" lon="2.20044">
        <ele>18.6</ele>
        <time>2022-02-02T13:02:46Z</time>
      </trkpt>
      <trkpt lat="49.92866" lon="2.20044">
        <ele>18.6</ele>
        <time>2022-02-02T13:02:47Z</time>
      </trkpt>
      <trkpt lat="49.92867" lon="2.20045">
        <ele>18.5</ele>
        <time>2022-02-02T13:02:48Z</time>
      </trkpt>
      <trkpt lat="49.92868" lon="2.20045">
        <ele>18.5</ele>
        <time>2022-02-02T13:02:49Z</time>
      </trkpt>
      <trkpt lat="49.92869" lon="2.20045">
        <ele>18.5</ele>
        <time>2022-02-02T13:02:50Z</time>
      </trkpt>
      <trkpt lat="49.9287" lon="2.20045">
        <ele>18.5</ele>
        <time>2022-02-02T13:02:52Z</time>
      </trkpt>
      <trkpt lat="49.92871" lon="2.20045">
        <ele>18.5</ele>
        <time>2022-02-02T13:02:53Z</time>
      </trkpt>
      <trkpt lat="49.92872" lon="2.20045">
        <ele>18.5</ele>
        <time>2022-02-02T13:02:54Z</time>
      </trkpt>
      <trkpt lat="49.92874" lon="2.20045">
        <ele>18.4</ele>
        <time>2022-02-02T13:02:55Z</time>
      </trkpt>
      <trkpt lat="49.92876" lon="2.20045">
        <ele>18.4</ele>
        <time>2022-02-02T13:02:57Z</time>
      </trkpt>
      <trkpt lat="49.92877" lon="2.20045">
        <ele>18.4</ele>
        <time>2022-02-02T13:02:58Z</time>
      </trkpt>
      <trkpt lat="49.92879" lon="2.20045">
        <ele>18.4</ele>
        <time>2022-02-02T13:02:59Z</time>
      </trkpt>
      <trkpt lat="49.92881" lon="2.20045">
        <ele>18.3</ele>
        <time>2022-02-02T13:03:00Z</time>
      </trkpt>
      <trkpt lat="49.92882" lon="2.20045">
        <ele>18.3</ele>
        <time>2022-02-02T13:03:01Z</time>
      </trkpt>
      <trkpt lat="49.92883" lon="2.20045">
        <ele>18.3</ele>
        <time>2022-02-02T13:03:02Z</time>
      </trkpt>
      <trkpt lat="49.92884" lon="2.20045">
        <ele>18.3</ele>
        <time>2022-02-02T13:03:04Z</time>
      </trkpt>
      <trkpt lat="49.92886" lon="2.20045">
        <ele>18.3</ele>
        <time>2022-02-02T13:03:05Z</time>
      </trkpt>
      <trkpt lat="49.92887" lon="2.20045">
        <ele>18.2</ele>
        <time>2022-02-02T13:03:06Z</time>
      </trkpt>
      <trkpt lat="49.92889" lon="2.20045">
        <ele>18.2</ele>
        <time>2022-02-02T13:03:07Z</time>
      </trkpt>
      <trkpt lat="49.92891" lon="2.20045">
        <ele>18.2</ele>
        <time>2022-02-02T13:03:08Z</time>
      </trkpt>
      <trkpt lat="49.92892" lon="2.20045">
        <ele>18.2</ele>
        <time>2022-02-02T13:03:09Z</time>
      </trkpt>
      <trkpt lat="49.92892" lon="2.20045">
        <ele>18.2</ele>
        <time>2022-02-02T13:03:10Z</time>
      </trkpt>
      <trkpt lat="49.92894" lon="2.20045">
        <ele>18.2</ele>
        <time>2022-02-02T13:03:11Z</time>
      </trkpt>
      <trkpt lat="49.92895" lon="2.20045">
        <ele>18.1</ele>
        <time>2022-02-02T13:03:12Z</time>
      </trkpt>
      <trkpt lat="49.92896" lon="2.20045">
        <ele>18.1</ele>
        <time>2022-02-02T13:03:14Z</time>
      </trkpt>
      <trkpt lat="49.92897" lon="2.20045">
        <ele>18.1</ele>
        <time>2022-02-02T13:03:15Z</time>
      </trkpt>
      <trkpt lat="49.92899" lon="2.20045">
        <ele>18.1</ele>
        <time>2022-02-02T13:03:16Z</time>
      </trkpt>
      <trkpt lat="49.929" lon="2.20045">
        <ele>18.1</ele>
        <time>2022-02-02T13:03:17Z</time>
      </trkpt>
      <trkpt lat="49.92901" lon="2.20045">
        <ele>18.1</ele>
        <time>2022-02-02T13:03:18Z</time>
      </trkpt>
      <trkpt lat="49.92902" lon="2.20045">
        <ele>18.1</ele>
        <time>2022-02-02T13:03:19Z</time>
      </trkpt>
      <trkpt lat="49.92903" lon="2.20045">
        <ele>18.1</ele>
        <time>2022-02-02T13:03:20Z</time>
      </trkpt>
      <trkpt lat="49.92905" lon="2.20045">
        <ele>18.1</ele>
        <time>2022-02-02T13:03:21Z</time>
      </trkpt>
      <trkpt lat="49.92906" lon="2.20045">
        <ele>18</ele>
        <time>2022-02-02T13:03:22Z</time>
      </trkpt>
      <trkpt lat="49.92907" lon="2.20045">
        <ele>18</ele>
        <time>2022-02-02T13:03:23Z</time>
      </trkpt>
      <trkpt lat="49.92908" lon="2.20045">
        <ele>18</ele>
        <time>2022-02-02T13:03:24Z</time>
      </trkpt>
      <trkpt lat="49.92909" lon="2.20046">
        <ele>18</ele>
        <time>2022-02-02T13:03:25Z</time>
      </trkpt>
      <trkpt lat="49.92911" lon="2.20047">
        <ele>18</ele>
        <time>2022-02-02T13:03:26Z</time>
      </trkpt>
      <trkpt lat="49.92912" lon="2.20048">
        <ele>18</ele>
        <time>2022-02-02T13:03:27Z</time>
      </trkpt>
      <trkpt lat="49.92913" lon="2.20049">
        <ele>18</ele>
        <time>2022-02-02T13:03:29Z</time>
      </trkpt>
      <trkpt lat="49.92915" lon="2.20051">
        <ele>18</ele>
        <time>2022-02-02T13:03:30Z</time>
      </trkpt>
      <trkpt lat="49.92916" lon="2.20051">
        <ele>18</ele>
        <time>2022-02-02T13:03:31Z</time>
      </trkpt>
      <trkpt lat="49.92916" lon="2.20052">
        <ele>18</ele>
        <time>2022-02-02T13:03:32Z</time>
      </trkpt>
      <trkpt lat="49.92917" lon="2.20053">
        <ele>18</ele>
        <time>2022-02-02T13:03:33Z</time>
      </trkpt>
      <trkpt lat="49.92918" lon="2.20054">
        <ele>17.9</ele>
        <time>2022-02-02T13:03:34Z</time>
      </trkpt>
      <trkpt lat="49.92919" lon="2.20055">
        <ele>17.9</ele>
        <time>2022-02-02T13:03:35Z</time>
      </trkpt>
      <trkpt lat="49.9292" lon="2.20056">
        <ele>17.9</ele>
        <time>2022-02-02T13:03:36Z</time>
      </trkpt>
      <trkpt lat="49.92922" lon="2.20057">
        <ele>17.9</ele>
        <time>2022-02-02T13:03:37Z</time>
      </trkpt>
      <trkpt lat="49.92923" lon="2.20058">
        <ele>17.9</ele>
        <time>2022-02-02T13:03:38Z</time>
      </trkpt>
      <trkpt lat="49.92924" lon="2.20058">
        <ele>17.9</ele>
        <time>2022-02-02T13:03:40Z</time>
      </trkpt>
      <trkpt lat="49.92925" lon="2.20059">
        <ele>17.9</ele>
        <time>2022-02-02T13:03:41Z</time>
      </trkpt>
      <trkpt lat="49.92925" lon="2.2006">
        <ele>17.9</ele>
        <time>2022-02-02T13:03:42Z</time>
      </trkpt>
      <trkpt lat="49.92926" lon="2.20061">
        <ele>17.9</ele>
        <time>2022-02-02T13:03:43Z</time>
      </trkpt>
      <trkpt lat="49.92926" lon="2.20063">
        <ele>17.9</ele>
        <time>2022-02-02T13:03:44Z</time>
      </trkpt>
      <trkpt lat="49.92927" lon="2.20064">
        <ele>17.9</ele>
        <time>2022-02-02T13:03:45Z</time>
      </trkpt>
      <trkpt lat="49.92927" lon="2.20065">
        <ele>17.9</ele>
        <time>2022-02-02T13:03:47Z</time>
      </trkpt>
      <trkpt lat="49.92928" lon="2.20066">
        <ele>17.9</ele>
        <time>2022-02-02T13:03:48Z</time>
      </trkpt>
      <trkpt lat="49.92929" lon="2.20068">
        <ele>17.9</ele>
        <time>2022-02-02T13:03:49Z</time>
      </trkpt>
      <trkpt lat="49.9293" lon="2.20069">
        <ele>17.9</ele>
        <time>2022-02-02T13:03:50Z</time>
      </trkpt>
      <trkpt lat="49.9293" lon="2.20069">
        <ele>17.9</ele>
        <time>2022-02-02T13:03:51Z</time>
      </trkpt>
      <trkpt lat="49.92931" lon="2.2007">
        <ele>17.8</ele>
        <time>2022-02-02T13:03:52Z</time>
      </trkpt>
      <trkpt lat="49.92931" lon="2.20071">
        <ele>17.8</ele>
        <time>2022-02-02T13:03:53Z</time>
      </trkpt>
      <trkpt lat="49.92932" lon="2.20072">
        <ele>17.8</ele>
        <time>2022-02-02T13:03:54Z</time>
      </trkpt>
      <trkpt lat="49.92933" lon="2.20073">
        <ele>17.8</ele>
        <time>2022-02-02T13:03:56Z</time>
      </trkpt>
      <trkpt lat="49.92935" lon="2.20074">
        <ele>17.8</ele>
        <time>2022-02-02T13:03:57Z</time>
      </trkpt>
      <trkpt lat="49.92936" lon="2.20074">
        <ele>17.8</ele>
        <time>2022-02-02T13:03:58Z</time>
      </trkpt>
      <trkpt lat="49.92937" lon="2.20075">
        <ele>17.8</ele>
        <time>2022-02-02T13:03:59Z</time>
      </trkpt>
      <trkpt lat="49.92939" lon="2.20076">
        <ele>17.8</ele>
        <time>2022-02-02T13:04:00Z</time>
      </trkpt>
      <trkpt lat="49.9294" lon="2.20077">
        <ele>17.8</ele>
        <time>2022-02-02T13:04:01Z</time>
      </trkpt>
      <trkpt lat="49.92941" lon="2.20078">
        <ele>17.8</ele>
        <time>2022-02-02T13:04:02Z</time>
      </trkpt>
      <trkpt lat="49.92942" lon="2.20079">
        <ele>17.8</ele>
        <time>2022-02-02T13:04:03Z</time>
      </trkpt>
      <trkpt lat="49.92943" lon="2.20081">
        <ele>17.7</ele>
        <time>2022-02-02T13:04:04Z</time>
      </trkpt>
      <trkpt lat="49.92944" lon="2.20082">
        <ele>17.7</ele>
        <time>2022-02-02T13:04:06Z</time>
      </trkpt>
      <trkpt lat="49.92945" lon="2.20082">
        <ele>17.7</ele>
        <time>2022-02-02T13:04:07Z</time>
      </trkpt>
      <trkpt lat="49.92946" lon="2.20083">
        <ele>17.7</ele>
        <time>2022-02-02T13:04:08Z</time>
      </trkpt>
      <trkpt lat="49.92947" lon="2.20084">
        <ele>17.7</ele>
        <time>2022-02-02T13:04:09Z</time>
      </trkpt>
      <trkpt lat="49.92949" lon="2.20086">
        <ele>17.7</ele>
        <time>2022-02-02T13:04:10Z</time>
      </trkpt>
      <trkpt lat="49.9295" lon="2.20087">
        <ele>17.7</ele>
        <time>2022-02-02T13:04:11Z</time>
      </trkpt>
      <trkpt lat="49.9295" lon="2.20088">
        <ele>17.7</ele>
        <time>2022-02-02T13:04:12Z</time>
      </trkpt>
      <trkpt lat="49.92951" lon="2.20089">
        <ele>17.7</ele>
        <time>2022-02-02T13:04:13Z</time>
      </trkpt>
      <trkpt lat="49.92952" lon="2.2009">
        <ele>17.7</ele>
        <time>2022-02-02T13:04:14Z</time>
      </trkpt>
      <trkpt lat="49.92953" lon="2.20091">
        <ele>17.7</ele>
        <time>2022-02-02T13:04:16Z</time>
      </trkpt>
      <trkpt lat="49.92954" lon="2.20092">
        <ele>17.6</ele>
        <time>2022-02-02T13:04:17Z</time>
      </trkpt>
      <trkpt lat="49.92955" lon="2.20094">
        <ele>17.6</ele>
        <time>2022-02-02T13:04:18Z</time>
      </trkpt>
      <trkpt lat="49.92956" lon="2.20094">
        <ele>17.6</ele>
        <time>2022-02-02T13:04:19Z</time>
      </trkpt>
      <trkpt lat="49.92957" lon="2.20096">
        <ele>17.6</ele>
        <time>2022-02-02T13:04:20Z</time>
      </trkpt>
      <trkpt lat="49.92958" lon="2.20098">
        <ele>17.6</ele>
        <time>2022-02-02T13:04:21Z</time>
      </trkpt>
      <trkpt lat="49.92959" lon="2.20098">
        <ele>17.6</ele>
        <time>2022-02-02T13:04:22Z</time>
      </trkpt>
      <trkpt lat="49.9296" lon="2.20099">
        <ele>17.6</ele>
        <time>2022-02-02T13:04:24Z</time>
      </trkpt>
      <trkpt lat="49.92961" lon="2.20101">
        <ele>17.6</ele>
        <time>2022-02-02T13:04:25Z</time>
      </trkpt>
      <trkpt lat="49.92961" lon="2.20101">
        <ele>17.6</ele>
        <time>2022-02-02T13:04:26Z</time>
      </trkpt>
      <trkpt lat="49.92962" lon="2.20103">
        <ele>17.6</ele>
        <time>2022-02-02T13:04:27Z</time>
      </trkpt>
      <trkpt lat="49.92963" lon="2.20104">
        <ele>17.6</ele>
        <time>2022-02-02T13:04:28Z</time>
      </trkpt>
      <trkpt lat="49.92964" lon="2.20105">
        <ele>17.6</ele>
        <time>2022-02-02T13:04:29Z</time>
      </trkpt>
      <trkpt lat="49.92965" lon="2.20106">
        <ele>17.6</ele>
        <time>2022-02-02T13:04:31Z</time>
      </trkpt>
      <trkpt lat="49.92966" lon="2.20107">
        <ele>17.6</ele>
        <time>2022-02-02T13:04:32Z</time>
      </trkpt>
      <trkpt lat="49.92967" lon="2.20108">
        <ele>17.5</ele>
        <time>2022-02-02T13:04:33Z</time>
      </trkpt>
      <trkpt lat="49.92968" lon="2.20109">
        <ele>17.5</ele>
        <time>2022-02-02T13:04:34Z</time>
      </trkpt>
      <trkpt lat="49.92969" lon="2.2011">
        <ele>17.5</ele>
        <time>2022-02-02T13:04:35Z</time>
      </trkpt>
      <trkpt lat="49.92971" lon="2.20112">
        <ele>17.5</ele>
        <time>2022-02-02T13:04:36Z</time>
      </trkpt>
      <trkpt lat="49.92972" lon="2.20113">
        <ele>17.5</ele>
        <time>2022-02-02T13:04:37Z</time>
      </trkpt>
      <trkpt lat="49.92972" lon="2.20113">
        <ele>17.5</ele>
        <time>2022-02-02T13:04:39Z</time>
      </trkpt>
      <trkpt lat="49.92973" lon="2.20114">
        <ele>17.5</ele>
        <time>2022-02-02T13:04:40Z</time>
      </trkpt>
      <trkpt lat="49.92974" lon="2.20115">
        <ele>17.5</ele>
        <time>2022-02-02T13:04:41Z</time>
      </trkpt>
      <trkpt lat="49.92975" lon="2.20116">
        <ele>17.5</ele>
        <time>2022-02-02T13:04:42Z</time>
      </trkpt>
      <trkpt lat="49.92976" lon="2.20117">
        <ele>17.5</ele>
        <time>2022-02-02T13:04:44Z</time>
      </trkpt>
      <trkpt lat="49.92977" lon="2.20118">
        <ele>17.5</ele>
        <time>2022-02-02T13:04:45Z</time>
      </trkpt>
      <trkpt lat="49.92978" lon="2.20119">
        <ele>17.5</ele>
        <time>2022-02-02T13:04:46Z</time>
      </trkpt>
      <trkpt lat="49.92979" lon="2.2012">
        <ele>17.5</ele>
        <time>2022-02-02T13:04:47Z</time>
      </trkpt>
      <trkpt lat="49.92979" lon="2.20121">
        <ele>17.5</ele>
        <time>2022-02-02T13:04:48Z</time>
      </trkpt>
      <trkpt lat="49.9298" lon="2.20122">
        <ele>17.5</ele>
        <time>2022-02-02T13:04:49Z</time>
      </trkpt>
      <trkpt lat="49.92981" lon="2.20123">
        <ele>17.5</ele>
        <time>2022-02-02T13:04:50Z</time>
      </trkpt>
      <trkpt lat="49.92982" lon="2.20124">
        <ele>17.5</ele>
        <time>2022-02-02T13:04:51Z</time>
      </trkpt>
      <trkpt lat="49.92983" lon="2.20125">
        <ele>17.5</ele>
        <time>2022-02-02T13:04:53Z</time>
      </trkpt>
      <trkpt lat="49.92984" lon="2.20126">
        <ele>17.5</ele>
        <time>2022-02-02T13:04:54Z</time>
      </trkpt>
      <trkpt lat="49.92984" lon="2.20127">
        <ele>17.5</ele>
        <time>2022-02-02T13:04:55Z</time>
      </trkpt>
      <trkpt lat="49.92985" lon="2.20128">
        <ele>17.5</ele>
        <time>2022-02-02T13:04:56Z</time>
      </trkpt>
      <trkpt lat="49.92986" lon="2.20129">
        <ele>17.5</ele>
        <time>2022-02-02T13:04:57Z</time>
      </trkpt>
      <trkpt lat="49.92987" lon="2.2013">
        <ele>17.5</ele>
        <time>2022-02-02T13:04:58Z</time>
      </trkpt>
      <trkpt lat="49.92988" lon="2.20131">
        <ele>17.5</ele>
        <time>2022-02-02T13:05:00Z</time>
      </trkpt>
      <trkpt lat="49.92989" lon="2.20132">
        <ele>17.5</ele>
        <time>2022-02-02T13:05:01Z</time>
      </trkpt>
      <trkpt lat="49.9299" lon="2.20133">
        <ele>17.6</ele>
        <time>2022-02-02T13:05:02Z</time>
      </trkpt>
      <trkpt lat="49.92991" lon="2.20135">
        <ele>17.6</ele>
        <time>2022-02-02T13:05:03Z</time>
      </trkpt>
      <trkpt lat="49.92992" lon="2.20136">
        <ele>17.6</ele>
        <time>2022-02-02T13:05:04Z</time>
      </trkpt>
      <trkpt lat="49.92993" lon="2.20137">
        <ele>17.5</ele>
        <time>2022-02-02T13:05:05Z</time>
      </trkpt>
      <trkpt lat="49.92993" lon="2.20139">
        <ele>17.5</ele>
        <time>2022-02-02T13:05:06Z</time>
      </trkpt>
      <trkpt lat="49.92994" lon="2.2014">
        <ele>17.4</ele>
        <time>2022-02-02T13:05:07Z</time>
      </trkpt>
      <trkpt lat="49.92995" lon="2.20141">
        <ele>17.4</ele>
        <time>2022-02-02T13:05:08Z</time>
      </trkpt>
      <trkpt lat="49.92995" lon="2.20142">
        <ele>17.3</ele>
        <time>2022-02-02T13:05:10Z</time>
      </trkpt>
      <trkpt lat="49.92996" lon="2.20144">
        <ele>17.3</ele>
        <time>2022-02-02T13:05:11Z</time>
      </trkpt>
      <trkpt lat="49.92997" lon="2.20145">
        <ele>17.2</ele>
        <time>2022-02-02T13:05:12Z</time>
      </trkpt>
      <trkpt lat="49.92997" lon="2.20146">
        <ele>17.2</ele>
        <time>2022-02-02T13:05:13Z</time>
      </trkpt>
      <trkpt lat="49.92998" lon="2.20148">
        <ele>17.2</ele>
        <time>2022-02-02T13:05:14Z</time>
      </trkpt>
      <trkpt lat="49.92998" lon="2.20149">
        <ele>17.1</ele>
        <time>2022-02-02T13:05:15Z</time>
      </trkpt>
      <trkpt lat="49.92999" lon="2.2015">
        <ele>17.1</ele>
        <time>2022-02-02T13:05:16Z</time>
      </trkpt>
      <trkpt lat="49.93" lon="2.20151">
        <ele>17</ele>
        <time>2022-02-02T13:05:18Z</time>
      </trkpt>
      <trkpt lat="49.93" lon="2.20153">
        <ele>17</ele>
        <time>2022-02-02T13:05:19Z</time>
      </trkpt>
      <trkpt lat="49.93002" lon="2.20155">
        <ele>16.9</ele>
        <time>2022-02-02T13:05:20Z</time>
      </trkpt>
      <trkpt lat="49.93002" lon="2.20156">
        <ele>16.9</ele>
        <time>2022-02-02T13:05:21Z</time>
      </trkpt>
      <trkpt lat="49.93003" lon="2.20157">
        <ele>16.9</ele>
        <time>2022-02-02T13:05:22Z</time>
      </trkpt>
      <trkpt lat="49.93004" lon="2.20158">
        <ele>16.9</ele>
        <time>2022-02-02T13:05:23Z</time>
      </trkpt>
      <trkpt lat="49.93004" lon="2.20159">
        <ele>16.8</ele>
        <time>2022-02-02T13:05:24Z</time>
      </trkpt>
      <trkpt lat="49.93005" lon="2.2016">
        <ele>16.8</ele>
        <time>2022-02-02T13:05:25Z</time>
      </trkpt>
      <trkpt lat="49.93006" lon="2.20162">
        <ele>16.7</ele>
        <time>2022-02-02T13:05:26Z</time>
      </trkpt>
      <trkpt lat="49.93007" lon="2.20163">
        <ele>16.7</ele>
        <time>2022-02-02T13:05:27Z</time>
      </trkpt>
      <trkpt lat="49.93007" lon="2.20164">
        <ele>16.7</ele>
        <time>2022-02-02T13:05:28Z</time>
      </trkpt>
      <trkpt lat="49.93008" lon="2.20165">
        <ele>16.6</ele>
        <time>2022-02-02T13:05:29Z</time>
      </trkpt>
      <trkpt lat="49.93008" lon="2.20167">
        <ele>16.6</ele>
        <time>2022-02-02T13:05:31Z</time>
      </trkpt>
      <trkpt lat="49.93009" lon="2.20168">
        <ele>16.5</ele>
        <time>2022-02-02T13:05:32Z</time>
      </trkpt>
      <trkpt lat="49.93011" lon="2.2017">
        <ele>16.5</ele>
        <time>2022-02-02T13:05:33Z</time>
      </trkpt>
      <trkpt lat="49.93011" lon="2.20171">
        <ele>16.4</ele>
        <time>2022-02-02T13:05:34Z</time>
      </trkpt>
      <trkpt lat="49.93012" lon="2.20172">
        <ele>16.4</ele>
        <time>2022-02-02T13:05:35Z</time>
      </trkpt>
      <trkpt lat="49.93013" lon="2.20174">
        <ele>16.3</ele>
        <time>2022-02-02T13:05:36Z</time>
      </trkpt>
      <trkpt lat="49.93014" lon="2.20175">
        <ele>16.3</ele>
        <time>2022-02-02T13:05:37Z</time>
      </trkpt>
      <trkpt lat="49.93014" lon="2.20176">
        <ele>16.3</ele>
        <time>2022-02-02T13:05:38Z</time>
      </trkpt>
      <trkpt lat="49.93015" lon="2.20179">
        <ele>16.2</ele>
        <time>2022-02-02T13:05:39Z</time>
      </trkpt>
      <trkpt lat="49.93016" lon="2.2018">
        <ele>16.2</ele>
        <time>2022-02-02T13:05:40Z</time>
      </trkpt>
      <trkpt lat="49.93016" lon="2.20181">
        <ele>16.2</ele>
        <time>2022-02-02T13:05:41Z</time>
      </trkpt>
      <trkpt lat="49.93017" lon="2.20182">
        <ele>16.1</ele>
        <time>2022-02-02T13:05:42Z</time>
      </trkpt>
      <trkpt lat="49.93018" lon="2.20184">
        <ele>16.1</ele>
        <time>2022-02-02T13:05:43Z</time>
      </trkpt>
      <trkpt lat="49.93018" lon="2.20186">
        <ele>16.1</ele>
        <time>2022-02-02T13:05:44Z</time>
      </trkpt>
      <trkpt lat="49.93019" lon="2.20188">
        <ele>16</ele>
        <time>2022-02-02T13:05:45Z</time>
      </trkpt>
      <trkpt lat="49.93019" lon="2.20189">
        <ele>16</ele>
        <time>2022-02-02T13:05:46Z</time>
      </trkpt>
      <trkpt lat="49.9302" lon="2.2019">
        <ele>16</ele>
        <time>2022-02-02T13:05:47Z</time>
      </trkpt>
      <trkpt lat="49.93021" lon="2.20191">
        <ele>15.9</ele>
        <time>2022-02-02T13:05:48Z</time>
      </trkpt>
      <trkpt lat="49.93022" lon="2.20192">
        <ele>15.9</ele>
        <time>2022-02-02T13:05:49Z</time>
      </trkpt>
      <trkpt lat="49.93023" lon="2.20193">
        <ele>15.9</ele>
        <time>2022-02-02T13:05:50Z</time>
      </trkpt>
      <trkpt lat="49.93024" lon="2.20194">
        <ele>15.9</ele>
        <time>2022-02-02T13:05:51Z</time>
      </trkpt>
      <trkpt lat="49.93025" lon="2.20196">
        <ele>15.8</ele>
        <time>2022-02-02T13:05:53Z</time>
      </trkpt>
      <trkpt lat="49.93025" lon="2.20197">
        <ele>15.8</ele>
        <time>2022-02-02T13:05:54Z</time>
      </trkpt>
      <trkpt lat="49.93026" lon="2.20198">
        <ele>15.8</ele>
        <time>2022-02-02T13:05:55Z</time>
      </trkpt>
      <trkpt lat="49.93027" lon="2.202">
        <ele>15.7</ele>
        <time>2022-02-02T13:05:56Z</time>
      </trkpt>
      <trkpt lat="49.93028" lon="2.20202">
        <ele>15.7</ele>
        <time>2022-02-02T13:05:57Z</time>
      </trkpt>
      <trkpt lat="49.93029" lon="2.20203">
        <ele>15.7</ele>
        <time>2022-02-02T13:05:58Z</time>
      </trkpt>
      <trkpt lat="49.9303" lon="2.20205">
        <ele>15.7</ele>
        <time>2022-02-02T13:05:59Z</time>
      </trkpt>
      <trkpt lat="49.93032" lon="2.20207">
        <ele>15.6</ele>
        <time>2022-02-02T13:06:00Z</time>
      </trkpt>
      <trkpt lat="49.93033" lon="2.20208">
        <ele>15.6</ele>
        <time>2022-02-02T13:06:01Z</time>
      </trkpt>
      <trkpt lat="49.93034" lon="2.2021">
        <ele>15.6</ele>
        <time>2022-02-02T13:06:02Z</time>
      </trkpt>
      <trkpt lat="49.93035" lon="2.20211">
        <ele>15.6</ele>
        <time>2022-02-02T13:06:03Z</time>
      </trkpt>
      <trkpt lat="49.93035" lon="2.20212">
        <ele>15.5</ele>
        <time>2022-02-02T13:06:04Z</time>
      </trkpt>
      <trkpt lat="49.93036" lon="2.20213">
        <ele>15.5</ele>
        <time>2022-02-02T13:06:05Z</time>
      </trkpt>
      <trkpt lat="49.93037" lon="2.20215">
        <ele>15.5</ele>
        <time>2022-02-02T13:06:07Z</time>
      </trkpt>
      <trkpt lat="49.93038" lon="2.20217">
        <ele>15.5</ele>
        <time>2022-02-02T13:06:08Z</time>
      </trkpt>
      <trkpt lat="49.93039" lon="2.20219">
        <ele>15.4</ele>
        <time>2022-02-02T13:06:09Z</time>
      </trkpt>
      <trkpt lat="49.9304" lon="2.20221">
        <ele>15.4</ele>
        <time>2022-02-02T13:06:10Z</time>
      </trkpt>
      <trkpt lat="49.9304" lon="2.20222">
        <ele>15.4</ele>
        <time>2022-02-02T13:06:11Z</time>
      </trkpt>
      <trkpt lat="49.93041" lon="2.20223">
        <ele>15.4</ele>
        <time>2022-02-02T13:06:12Z</time>
      </trkpt>
      <trkpt lat="49.93042" lon="2.20225">
        <ele>15.4</ele>
        <time>2022-02-02T13:06:13Z</time>
      </trkpt>
      <trkpt lat="49.93043" lon="2.20226">
        <ele>15.4</ele>
        <time>2022-02-02T13:06:14Z</time>
      </trkpt>
      <trkpt lat="49.93044" lon="2.20227">
        <ele>15.4</ele>
        <time>2022-02-02T13:06:15Z</time>
      </trkpt>
      <trkpt lat="49.93045" lon="2.20229">
        <ele>15.3</ele>
        <time>2022-02-02T13:06:17Z</time>
      </trkpt>
      <trkpt lat="49.93046" lon="2.2023">
        <ele>15.3</ele>
        <time>2022-02-02T13:06:18Z</time>
      </trkpt>
      <trkpt lat="49.93047" lon="2.2023">
        <ele>15.3</ele>
        <time>2022-02-02T13:06:19Z</time>
      </trkpt>
      <trkpt lat="49.93048" lon="2.20231">
        <ele>15.3</ele>
        <time>2022-02-02T13:06:20Z</time>
      </trkpt>
      <trkpt lat="49.93048" lon="2.20231">
        <ele>15.3</ele>
        <time>2022-02-02T13:06:21Z</time>
      </trkpt>
      <trkpt lat="49.93049" lon="2.20232">
        <ele>15.3</ele>
        <time>2022-02-02T13:06:22Z</time>
      </trkpt>
      <trkpt lat="49.9305" lon="2.20233">
        <ele>15.3</ele>
        <time>2022-02-02T13:06:23Z</time>
      </trkpt>
      <trkpt lat="49.9305" lon="2.20235">
        <ele>15.3</ele>
        <time>2022-02-02T13:06:24Z</time>
      </trkpt>
      <trkpt lat="49.93051" lon="2.20236">
        <ele>15.3</ele>
        <time>2022-02-02T13:06:25Z</time>
      </trkpt>
      <trkpt lat="49.93052" lon="2.20237">
        <ele>15.3</ele>
        <time>2022-02-02T13:06:26Z</time>
      </trkpt>
      <trkpt lat="49.93052" lon="2.20238">
        <ele>15.3</ele>
        <time>2022-02-02T13:06:27Z</time>
      </trkpt>
      <trkpt lat="49.93053" lon="2.20239">
        <ele>15.3</ele>
        <time>2022-02-02T13:06:28Z</time>
      </trkpt>
      <trkpt lat="49.93054" lon="2.20241">
        <ele>15.3</ele>
        <time>2022-02-02T13:06:29Z</time>
      </trkpt>
      <trkpt lat="49.93055" lon="2.20242">
        <ele>15.2</ele>
        <time>2022-02-02T13:06:30Z</time>
      </trkpt>
      <trkpt lat="49.93056" lon="2.20244">
        <ele>15.2</ele>
        <time>2022-02-02T13:06:31Z</time>
      </trkpt>
      <trkpt lat="49.93057" lon="2.20246">
        <ele>15.2</ele>
        <time>2022-02-02T13:06:33Z</time>
      </trkpt>
      <trkpt lat="49.93058" lon="2.20247">
        <ele>15.2</ele>
        <time>2022-02-02T13:06:34Z</time>
      </trkpt>
      <trkpt lat="49.93059" lon="2.20249">
        <ele>15.2</ele>
        <time>2022-02-02T13:06:35Z</time>
      </trkpt>
      <trkpt lat="49.9306" lon="2.20251">
        <ele>15.2</ele>
        <time>2022-02-02T13:06:36Z</time>
      </trkpt>
      <trkpt lat="49.93061" lon="2.20252">
        <ele>15.2</ele>
        <time>2022-02-02T13:06:37Z</time>
      </trkpt>
      <trkpt lat="49.93062" lon="2.20254">
        <ele>15.2</ele>
        <time>2022-02-02T13:06:38Z</time>
      </trkpt>
      <trkpt lat="49.93064" lon="2.20256">
        <ele>15.2</ele>
        <time>2022-02-02T13:06:39Z</time>
      </trkpt>
      <trkpt lat="49.93065" lon="2.20256">
        <ele>15.1</ele>
        <time>2022-02-02T13:06:40Z</time>
      </trkpt>
      <trkpt lat="49.93065" lon="2.20257">
        <ele>15.1</ele>
        <time>2022-02-02T13:06:41Z</time>
      </trkpt>
      <trkpt lat="49.93068" lon="2.2026">
        <ele>15.1</ele>
        <time>2022-02-02T13:06:42Z</time>
      </trkpt>
      <trkpt lat="49.93069" lon="2.20262">
        <ele>15.1</ele>
        <time>2022-02-02T13:06:44Z</time>
      </trkpt>
      <trkpt lat="49.9307" lon="2.20263">
        <ele>15.1</ele>
        <time>2022-02-02T13:06:46Z</time>
      </trkpt>
      <trkpt lat="49.93071" lon="2.20264">
        <ele>15.1</ele>
        <time>2022-02-02T13:06:47Z</time>
      </trkpt>
      <trkpt lat="49.93072" lon="2.20266">
        <ele>15.1</ele>
        <time>2022-02-02T13:06:48Z</time>
      </trkpt>
      <trkpt lat="49.93073" lon="2.20268">
        <ele>15.1</ele>
        <time>2022-02-02T13:06:49Z</time>
      </trkpt>
      <trkpt lat="49.93074" lon="2.2027">
        <ele>15.1</ele>
        <time>2022-02-02T13:06:50Z</time>
      </trkpt>
      <trkpt lat="49.93075" lon="2.20271">
        <ele>15.1</ele>
        <time>2022-02-02T13:06:51Z</time>
      </trkpt>
      <trkpt lat="49.93075" lon="2.20272">
        <ele>15.1</ele>
        <time>2022-02-02T13:06:52Z</time>
      </trkpt>
      <trkpt lat="49.93076" lon="2.20274">
        <ele>15</ele>
        <time>2022-02-02T13:06:53Z</time>
      </trkpt>
      <trkpt lat="49.93077" lon="2.20276">
        <ele>15</ele>
        <time>2022-02-02T13:06:54Z</time>
      </trkpt>
      <trkpt lat="49.93078" lon="2.20277">
        <ele>15</ele>
        <time>2022-02-02T13:06:55Z</time>
      </trkpt>
      <trkpt lat="49.93079" lon="2.20279">
        <ele>15</ele>
        <time>2022-02-02T13:06:56Z</time>
      </trkpt>
      <trkpt lat="49.93081" lon="2.2028">
        <ele>15</ele>
        <time>2022-02-02T13:06:57Z</time>
      </trkpt>
      <trkpt lat="49.93082" lon="2.20282">
        <ele>15</ele>
        <time>2022-02-02T13:06:59Z</time>
      </trkpt>
      <trkpt lat="49.93082" lon="2.20283">
        <ele>15</ele>
        <time>2022-02-02T13:07:00Z</time>
      </trkpt>
      <trkpt lat="49.93083" lon="2.20284">
        <ele>15</ele>
        <time>2022-02-02T13:07:01Z</time>
      </trkpt>
      <trkpt lat="49.93084" lon="2.20286">
        <ele>15</ele>
        <time>2022-02-02T13:07:02Z</time>
      </trkpt>
      <trkpt lat="49.93085" lon="2.20288">
        <ele>15</ele>
        <time>2022-02-02T13:07:03Z</time>
      </trkpt>
      <trkpt lat="49.93086" lon="2.2029">
        <ele>15</ele>
        <time>2022-02-02T13:07:04Z</time>
      </trkpt>
      <trkpt lat="49.93087" lon="2.20291">
        <ele>15</ele>
        <time>2022-02-02T13:07:05Z</time>
      </trkpt>
      <trkpt lat="49.93087" lon="2.20292">
        <ele>15</ele>
        <time>2022-02-02T13:07:06Z</time>
      </trkpt>
      <trkpt lat="49.93088" lon="2.20294">
        <ele>15</ele>
        <time>2022-02-02T13:07:07Z</time>
      </trkpt>
      <trkpt lat="49.9309" lon="2.20296">
        <ele>15</ele>
        <time>2022-02-02T13:07:08Z</time>
      </trkpt>
      <trkpt lat="49.93091" lon="2.20297">
        <ele>15</ele>
        <time>2022-02-02T13:07:09Z</time>
      </trkpt>
      <trkpt lat="49.93091" lon="2.20298">
        <ele>15</ele>
        <time>2022-02-02T13:07:10Z</time>
      </trkpt>
      <trkpt lat="49.93092" lon="2.20299">
        <ele>15</ele>
        <time>2022-02-02T13:07:12Z</time>
      </trkpt>
      <trkpt lat="49.93093" lon="2.203">
        <ele>15</ele>
        <time>2022-02-02T13:07:13Z</time>
      </trkpt>
      <trkpt lat="49.93094" lon="2.20301">
        <ele>15</ele>
        <time>2022-02-02T13:07:14Z</time>
      </trkpt>
      <trkpt lat="49.93094" lon="2.20303">
        <ele>15</ele>
        <time>2022-02-02T13:07:15Z</time>
      </trkpt>
      <trkpt lat="49.93095" lon="2.20304">
        <ele>15</ele>
        <time>2022-02-02T13:07:16Z</time>
      </trkpt>
      <trkpt lat="49.93095" lon="2.20306">
        <ele>15</ele>
        <time>2022-02-02T13:07:17Z</time>
      </trkpt>
      <trkpt lat="49.93096" lon="2.20307">
        <ele>14.9</ele>
        <time>2022-02-02T13:07:18Z</time>
      </trkpt>
      <trkpt lat="49.93096" lon="2.20308">
        <ele>14.9</ele>
        <time>2022-02-02T13:07:19Z</time>
      </trkpt>
      <trkpt lat="49.93097" lon="2.2031">
        <ele>14.9</ele>
        <time>2022-02-02T13:07:20Z</time>
      </trkpt>
      <trkpt lat="49.93098" lon="2.20312">
        <ele>14.9</ele>
        <time>2022-02-02T13:07:22Z</time>
      </trkpt>
      <trkpt lat="49.93099" lon="2.20313">
        <ele>14.9</ele>
        <time>2022-02-02T13:07:23Z</time>
      </trkpt>
      <trkpt lat="49.931" lon="2.20314">
        <ele>14.9</ele>
        <time>2022-02-02T13:07:24Z</time>
      </trkpt>
      <trkpt lat="49.931" lon="2.20315">
        <ele>14.9</ele>
        <time>2022-02-02T13:07:25Z</time>
      </trkpt>
      <trkpt lat="49.93101" lon="2.20317">
        <ele>14.9</ele>
        <time>2022-02-02T13:07:26Z</time>
      </trkpt>
      <trkpt lat="49.93102" lon="2.20318">
        <ele>14.9</ele>
        <time>2022-02-02T13:07:27Z</time>
      </trkpt>
      <trkpt lat="49.93104" lon="2.20321">
        <ele>14.9</ele>
        <time>2022-02-02T13:07:28Z</time>
      </trkpt>
      <trkpt lat="49.93104" lon="2.20322">
        <ele>14.9</ele>
        <time>2022-02-02T13:07:29Z</time>
      </trkpt>
      <trkpt lat="49.93105" lon="2.20323">
        <ele>14.9</ele>
        <time>2022-02-02T13:07:30Z</time>
      </trkpt>
      <trkpt lat="49.93105" lon="2.20324">
        <ele>14.9</ele>
        <time>2022-02-02T13:07:31Z</time>
      </trkpt>
      <trkpt lat="49.93106" lon="2.20326">
        <ele>14.9</ele>
        <time>2022-02-02T13:07:32Z</time>
      </trkpt>
      <trkpt lat="49.93107" lon="2.20327">
        <ele>14.9</ele>
        <time>2022-02-02T13:07:33Z</time>
      </trkpt>
      <trkpt lat="49.93108" lon="2.20329">
        <ele>14.9</ele>
        <time>2022-02-02T13:07:34Z</time>
      </trkpt>
      <trkpt lat="49.93108" lon="2.2033">
        <ele>14.9</ele>
        <time>2022-02-02T13:07:36Z</time>
      </trkpt>
      <trkpt lat="49.93109" lon="2.20332">
        <ele>14.9</ele>
        <time>2022-02-02T13:07:37Z</time>
      </trkpt>
      <trkpt lat="49.9311" lon="2.20334">
        <ele>14.9</ele>
        <time>2022-02-02T13:07:38Z</time>
      </trkpt>
      <trkpt lat="49.93111" lon="2.20335">
        <ele>14.9</ele>
        <time>2022-02-02T13:07:39Z</time>
      </trkpt>
      <trkpt lat="49.93112" lon="2.20336">
        <ele>14.9</ele>
        <time>2022-02-02T13:07:40Z</time>
      </trkpt>
      <trkpt lat="49.93113" lon="2.20337">
        <ele>14.9</ele>
        <time>2022-02-02T13:07:41Z</time>
      </trkpt>
      <trkpt lat="49.93114" lon="2.20339">
        <ele>14.9</ele>
        <time>2022-02-02T13:07:42Z</time>
      </trkpt>
      <trkpt lat="49.93115" lon="2.2034">
        <ele>14.9</ele>
        <time>2022-02-02T13:07:43Z</time>
      </trkpt>
      <trkpt lat="49.93116" lon="2.20342">
        <ele>14.9</ele>
        <time>2022-02-02T13:07:44Z</time>
      </trkpt>
      <trkpt lat="49.93117" lon="2.20343">
        <ele>14.9</ele>
        <time>2022-02-02T13:07:45Z</time>
      </trkpt>
      <trkpt lat="49.93118" lon="2.20345">
        <ele>14.9</ele>
        <time>2022-02-02T13:07:46Z</time>
      </trkpt>
      <trkpt lat="49.93119" lon="2.20346">
        <ele>14.9</ele>
        <time>2022-02-02T13:07:48Z</time>
      </trkpt>
      <trkpt lat="49.9312" lon="2.20348">
        <ele>14.9</ele>
        <time>2022-02-02T13:07:49Z</time>
      </trkpt>
      <trkpt lat="49.93121" lon="2.20349">
        <ele>14.9</ele>
        <time>2022-02-02T13:07:50Z</time>
      </trkpt>
      <trkpt lat="49.93122" lon="2.2035">
        <ele>14.9</ele>
        <time>2022-02-02T13:07:51Z</time>
      </trkpt>
      <trkpt lat="49.93122" lon="2.20351">
        <ele>14.9</ele>
        <time>2022-02-02T13:07:52Z</time>
      </trkpt>
      <trkpt lat="49.93123" lon="2.20352">
        <ele>14.9</ele>
        <time>2022-02-02T13:07:53Z</time>
      </trkpt>
      <trkpt lat="49.93124" lon="2.20354">
        <ele>14.9</ele>
        <time>2022-02-02T13:07:54Z</time>
      </trkpt>
      <trkpt lat="49.93125" lon="2.20355">
        <ele>14.9</ele>
        <time>2022-02-02T13:07:55Z</time>
      </trkpt>
      <trkpt lat="49.93127" lon="2.20357">
        <ele>14.9</ele>
        <time>2022-02-02T13:07:57Z</time>
      </trkpt>
      <trkpt lat="49.93127" lon="2.20359">
        <ele>14.9</ele>
        <time>2022-02-02T13:07:58Z</time>
      </trkpt>
      <trkpt lat="49.93128" lon="2.2036">
        <ele>14.9</ele>
        <time>2022-02-02T13:07:59Z</time>
      </trkpt>
      <trkpt lat="49.93129" lon="2.20362">
        <ele>14.9</ele>
        <time>2022-02-02T13:08:00Z</time>
      </trkpt>
      <trkpt lat="49.9313" lon="2.20363">
        <ele>14.9</ele>
        <time>2022-02-02T13:08:01Z</time>
      </trkpt>
      <trkpt lat="49.93132" lon="2.20365">
        <ele>14.9</ele>
        <time>2022-02-02T13:08:02Z</time>
      </trkpt>
      <trkpt lat="49.93133" lon="2.20366">
        <ele>14.9</ele>
        <time>2022-02-02T13:08:03Z</time>
      </trkpt>
      <trkpt lat="49.93134" lon="2.20367">
        <ele>14.9</ele>
        <time>2022-02-02T13:08:04Z</time>
      </trkpt>
      <trkpt lat="49.93135" lon="2.20369">
        <ele>14.9</ele>
        <time>2022-02-02T13:08:05Z</time>
      </trkpt>
      <trkpt lat="49.93137" lon="2.2037">
        <ele>14.9</ele>
        <time>2022-02-02T13:08:06Z</time>
      </trkpt>
      <trkpt lat="49.93138" lon="2.20371">
        <ele>14.9</ele>
        <time>2022-02-02T13:08:08Z</time>
      </trkpt>
      <trkpt lat="49.93138" lon="2.20372">
        <ele>14.9</ele>
        <time>2022-02-02T13:08:09Z</time>
      </trkpt>
      <trkpt lat="49.9314" lon="2.20374">
        <ele>14.9</ele>
        <time>2022-02-02T13:08:10Z</time>
      </trkpt>
      <trkpt lat="49.93141" lon="2.20375">
        <ele>14.9</ele>
        <time>2022-02-02T13:08:11Z</time>
      </trkpt>
      <trkpt lat="49.93141" lon="2.20376">
        <ele>14.9</ele>
        <time>2022-02-02T13:08:12Z</time>
      </trkpt>
      <trkpt lat="49.93143" lon="2.20378">
        <ele>14.9</ele>
        <time>2022-02-02T13:08:13Z</time>
      </trkpt>
      <trkpt lat="49.93144" lon="2.20379">
        <ele>14.9</ele>
        <time>2022-02-02T13:08:14Z</time>
      </trkpt>
      <trkpt lat="49.93144" lon="2.20379">
        <ele>14.9</ele>
        <time>2022-02-02T13:08:15Z</time>
      </trkpt>
      <trkpt lat="49.93146" lon="2.20381">
        <ele>14.9</ele>
        <time>2022-02-02T13:08:17Z</time>
      </trkpt>
      <trkpt lat="49.93147" lon="2.20382">
        <ele>14.9</ele>
        <time>2022-02-02T13:08:18Z</time>
      </trkpt>
      <trkpt lat="49.93147" lon="2.20383">
        <ele>14.9</ele>
        <time>2022-02-02T13:08:19Z</time>
      </trkpt>
      <trkpt lat="49.93149" lon="2.20385">
        <ele>14.9</ele>
        <time>2022-02-02T13:08:20Z</time>
      </trkpt>
      <trkpt lat="49.9315" lon="2.20386">
        <ele>14.9</ele>
        <time>2022-02-02T13:08:21Z</time>
      </trkpt>
      <trkpt lat="49.9315" lon="2.20386">
        <ele>14.9</ele>
        <time>2022-02-02T13:08:22Z</time>
      </trkpt>
      <trkpt lat="49.93152" lon="2.20389">
        <ele>14.9</ele>
        <time>2022-02-02T13:08:23Z</time>
      </trkpt>
      <trkpt lat="49.93152" lon="2.20389">
        <ele>14.9</ele>
        <time>2022-02-02T13:08:24Z</time>
      </trkpt>
      <trkpt lat="49.93153" lon="2.2039">
        <ele>14.9</ele>
        <time>2022-02-02T13:08:25Z</time>
      </trkpt>
      <trkpt lat="49.93155" lon="2.20392">
        <ele>14.9</ele>
        <time>2022-02-02T13:08:26Z</time>
      </trkpt>
      <trkpt lat="49.93155" lon="2.20393">
        <ele>14.9</ele>
        <time>2022-02-02T13:08:27Z</time>
      </trkpt>
      <trkpt lat="49.93156" lon="2.20394">
        <ele>14.9</ele>
        <time>2022-02-02T13:08:28Z</time>
      </trkpt>
      <trkpt lat="49.93156" lon="2.20396">
        <ele>14.9</ele>
        <time>2022-02-02T13:08:30Z</time>
      </trkpt>
      <trkpt lat="49.93157" lon="2.20397">
        <ele>14.9</ele>
        <time>2022-02-02T13:08:31Z</time>
      </trkpt>
      <trkpt lat="49.93158" lon="2.20398">
        <ele>14.9</ele>
        <time>2022-02-02T13:08:32Z</time>
      </trkpt>
      <trkpt lat="49.93158" lon="2.20399">
        <ele>14.9</ele>
        <time>2022-02-02T13:08:33Z</time>
      </trkpt>
      <trkpt lat="49.93159" lon="2.20401">
        <ele>14.9</ele>
        <time>2022-02-02T13:08:34Z</time>
      </trkpt>
      <trkpt lat="49.9316" lon="2.20402">
        <ele>14.9</ele>
        <time>2022-02-02T13:08:35Z</time>
      </trkpt>
      <trkpt lat="49.93161" lon="2.20405">
        <ele>14.9</ele>
        <time>2022-02-02T13:08:36Z</time>
      </trkpt>
      <trkpt lat="49.93162" lon="2.20406">
        <ele>14.9</ele>
        <time>2022-02-02T13:08:37Z</time>
      </trkpt>
      <trkpt lat="49.93162" lon="2.20407">
        <ele>14.9</ele>
        <time>2022-02-02T13:08:38Z</time>
      </trkpt>
      <trkpt lat="49.93164" lon="2.20409">
        <ele>14.9</ele>
        <time>2022-02-02T13:08:39Z</time>
      </trkpt>
      <trkpt lat="49.93164" lon="2.2041">
        <ele>14.9</ele>
        <time>2022-02-02T13:08:41Z</time>
      </trkpt>
      <trkpt lat="49.93165" lon="2.20412">
        <ele>14.9</ele>
        <time>2022-02-02T13:08:42Z</time>
      </trkpt>
      <trkpt lat="49.93166" lon="2.20414">
        <ele>14.9</ele>
        <time>2022-02-02T13:08:43Z</time>
      </trkpt>
      <trkpt lat="49.93167" lon="2.20415">
        <ele>14.9</ele>
        <time>2022-02-02T13:08:44Z</time>
      </trkpt>
      <trkpt lat="49.93167" lon="2.20416">
        <ele>14.9</ele>
        <time>2022-02-02T13:08:45Z</time>
      </trkpt>
      <trkpt lat="49.93168" lon="2.20418">
        <ele>14.9</ele>
        <time>2022-02-02T13:08:47Z</time>
      </trkpt>
      <trkpt lat="49.93169" lon="2.20419">
        <ele>14.9</ele>
        <time>2022-02-02T13:08:48Z</time>
      </trkpt>
      <trkpt lat="49.9317" lon="2.2042">
        <ele>14.9</ele>
        <time>2022-02-02T13:08:49Z</time>
      </trkpt>
      <trkpt lat="49.93171" lon="2.20421">
        <ele>14.9</ele>
        <time>2022-02-02T13:08:50Z</time>
      </trkpt>
      <trkpt lat="49.93171" lon="2.20422">
        <ele>14.9</ele>
        <time>2022-02-02T13:08:51Z</time>
      </trkpt>
      <trkpt lat="49.93172" lon="2.20424">
        <ele>14.9</ele>
        <time>2022-02-02T13:08:52Z</time>
      </trkpt>
      <trkpt lat="49.93174" lon="2.20426">
        <ele>14.9</ele>
        <time>2022-02-02T13:08:53Z</time>
      </trkpt>
      <trkpt lat="49.93174" lon="2.20427">
        <ele>14.9</ele>
        <time>2022-02-02T13:08:54Z</time>
      </trkpt>
      <trkpt lat="49.93175" lon="2.20429">
        <ele>14.9</ele>
        <time>2022-02-02T13:08:56Z</time>
      </trkpt>
      <trkpt lat="49.93176" lon="2.2043">
        <ele>14.9</ele>
        <time>2022-02-02T13:08:57Z</time>
      </trkpt>
      <trkpt lat="49.93176" lon="2.20431">
        <ele>14.9</ele>
        <time>2022-02-02T13:08:58Z</time>
      </trkpt>
      <trkpt lat="49.93177" lon="2.20432">
        <ele>14.9</ele>
        <time>2022-02-02T13:08:59Z</time>
      </trkpt>
      <trkpt lat="49.93178" lon="2.20434">
        <ele>14.9</ele>
        <time>2022-02-02T13:09:00Z</time>
      </trkpt>
      <trkpt lat="49.93179" lon="2.20435">
        <ele>14.9</ele>
        <time>2022-02-02T13:09:01Z</time>
      </trkpt>
      <trkpt lat="49.9318" lon="2.20437">
        <ele>14.9</ele>
        <time>2022-02-02T13:09:02Z</time>
      </trkpt>
      <trkpt lat="49.93181" lon="2.20438">
        <ele>14.9</ele>
        <time>2022-02-02T13:09:03Z</time>
      </trkpt>
      <trkpt lat="49.93182" lon="2.2044">
        <ele>14.9</ele>
        <time>2022-02-02T13:09:04Z</time>
      </trkpt>
      <trkpt lat="49.93183" lon="2.20441">
        <ele>14.9</ele>
        <time>2022-02-02T13:09:05Z</time>
      </trkpt>
      <trkpt lat="49.93183" lon="2.20442">
        <ele>14.9</ele>
        <time>2022-02-02T13:09:06Z</time>
      </trkpt>
      <trkpt lat="49.93184" lon="2.20443">
        <ele>14.9</ele>
        <time>2022-02-02T13:09:08Z</time>
      </trkpt>
      <trkpt lat="49.93185" lon="2.20445">
        <ele>14.9</ele>
        <time>2022-02-02T13:09:09Z</time>
      </trkpt>
      <trkpt lat="49.93186" lon="2.20446">
        <ele>14.9</ele>
        <time>2022-02-02T13:09:10Z</time>
      </trkpt>
      <trkpt lat="49.93186" lon="2.20447">
        <ele>14.9</ele>
        <time>2022-02-02T13:09:11Z</time>
      </trkpt>
      <trkpt lat="49.93187" lon="2.20448">
        <ele>14.9</ele>
        <time>2022-02-02T13:09:12Z</time>
      </trkpt>
      <trkpt lat="49.93188" lon="2.2045">
        <ele>15</ele>
        <time>2022-02-02T13:09:13Z</time>
      </trkpt>
      <trkpt lat="49.9319" lon="2.20452">
        <ele>15</ele>
        <time>2022-02-02T13:09:14Z</time>
      </trkpt>
      <trkpt lat="49.9319" lon="2.20453">
        <ele>15</ele>
        <time>2022-02-02T13:09:15Z</time>
      </trkpt>
      <trkpt lat="49.93191" lon="2.20454">
        <ele>15</ele>
        <time>2022-02-02T13:09:16Z</time>
      </trkpt>
      <trkpt lat="49.93192" lon="2.20455">
        <ele>15</ele>
        <time>2022-02-02T13:09:17Z</time>
      </trkpt>
      <trkpt lat="49.93192" lon="2.20457">
        <ele>15</ele>
        <time>2022-02-02T13:09:18Z</time>
      </trkpt>
      <trkpt lat="49.93193" lon="2.20458">
        <ele>15</ele>
        <time>2022-02-02T13:09:19Z</time>
      </trkpt>
      <trkpt lat="49.93195" lon="2.2046">
        <ele>15</ele>
        <time>2022-02-02T13:09:20Z</time>
      </trkpt>
      <trkpt lat="49.93196" lon="2.20461">
        <ele>15</ele>
        <time>2022-02-02T13:09:22Z</time>
      </trkpt>
      <trkpt lat="49.93196" lon="2.20462">
        <ele>15.1</ele>
        <time>2022-02-02T13:09:23Z</time>
      </trkpt>
      <trkpt lat="49.93198" lon="2.20464">
        <ele>15.1</ele>
        <time>2022-02-02T13:09:24Z</time>
      </trkpt>
      <trkpt lat="49.93199" lon="2.20465">
        <ele>15.1</ele>
        <time>2022-02-02T13:09:25Z</time>
      </trkpt>
      <trkpt lat="49.93199" lon="2.20466">
        <ele>15.1</ele>
        <time>2022-02-02T13:09:26Z</time>
      </trkpt>
      <trkpt lat="49.932" lon="2.20467">
        <ele>15.1</ele>
        <time>2022-02-02T13:09:27Z</time>
      </trkpt>
      <trkpt lat="49.93201" lon="2.20469">
        <ele>15.1</ele>
        <time>2022-02-02T13:09:28Z</time>
      </trkpt>
      <trkpt lat="49.93203" lon="2.20471">
        <ele>15.1</ele>
        <time>2022-02-02T13:09:29Z</time>
      </trkpt>
      <trkpt lat="49.93203" lon="2.20472">
        <ele>15.1</ele>
        <time>2022-02-02T13:09:30Z</time>
      </trkpt>
      <trkpt lat="49.93204" lon="2.20473">
        <ele>15.1</ele>
        <time>2022-02-02T13:09:31Z</time>
      </trkpt>
      <trkpt lat="49.93205" lon="2.20475">
        <ele>15.2</ele>
        <time>2022-02-02T13:09:32Z</time>
      </trkpt>
      <trkpt lat="49.93206" lon="2.20476">
        <ele>15.2</ele>
        <time>2022-02-02T13:09:34Z</time>
      </trkpt>
      <trkpt lat="49.93206" lon="2.20477">
        <ele>15.2</ele>
        <time>2022-02-02T13:09:35Z</time>
      </trkpt>
      <trkpt lat="49.93207" lon="2.2048">
        <ele>15.2</ele>
        <time>2022-02-02T13:09:36Z</time>
      </trkpt>
      <trkpt lat="49.93208" lon="2.20481">
        <ele>15.2</ele>
        <time>2022-02-02T13:09:37Z</time>
      </trkpt>
      <trkpt lat="49.93209" lon="2.20482">
        <ele>15.2</ele>
        <time>2022-02-02T13:09:38Z</time>
      </trkpt>
      <trkpt lat="49.93209" lon="2.20483">
        <ele>15.2</ele>
        <time>2022-02-02T13:09:39Z</time>
      </trkpt>
      <trkpt lat="49.9321" lon="2.20484">
        <ele>15.2</ele>
        <time>2022-02-02T13:09:40Z</time>
      </trkpt>
      <trkpt lat="49.93211" lon="2.20485">
        <ele>15.2</ele>
        <time>2022-02-02T13:09:42Z</time>
      </trkpt>
      <trkpt lat="49.93212" lon="2.20487">
        <ele>15.3</ele>
        <time>2022-02-02T13:09:43Z</time>
      </trkpt>
      <trkpt lat="49.93213" lon="2.20488">
        <ele>15.3</ele>
        <time>2022-02-02T13:09:44Z</time>
      </trkpt>
      <trkpt lat="49.93215" lon="2.2049">
        <ele>15.3</ele>
        <time>2022-02-02T13:09:45Z</time>
      </trkpt>
      <trkpt lat="49.93216" lon="2.20491">
        <ele>15.3</ele>
        <time>2022-02-02T13:09:46Z</time>
      </trkpt>
      <trkpt lat="49.93216" lon="2.20492">
        <ele>15.3</ele>
        <time>2022-02-02T13:09:47Z</time>
      </trkpt>
      <trkpt lat="49.93217" lon="2.20494">
        <ele>15.3</ele>
        <time>2022-02-02T13:09:48Z</time>
      </trkpt>
      <trkpt lat="49.93218" lon="2.20495">
        <ele>15.3</ele>
        <time>2022-02-02T13:09:50Z</time>
      </trkpt>
      <trkpt lat="49.93218" lon="2.20497">
        <ele>15.3</ele>
        <time>2022-02-02T13:09:51Z</time>
      </trkpt>
      <trkpt lat="49.93219" lon="2.20498">
        <ele>15.3</ele>
        <time>2022-02-02T13:09:52Z</time>
      </trkpt>
      <trkpt lat="49.93219" lon="2.205">
        <ele>15.3</ele>
        <time>2022-02-02T13:09:53Z</time>
      </trkpt>
      <trkpt lat="49.9322" lon="2.20501">
        <ele>15.3</ele>
        <time>2022-02-02T13:09:54Z</time>
      </trkpt>
      <trkpt lat="49.93221" lon="2.20503">
        <ele>15.3</ele>
        <time>2022-02-02T13:09:55Z</time>
      </trkpt>
      <trkpt lat="49.93221" lon="2.20505">
        <ele>15.3</ele>
        <time>2022-02-02T13:09:56Z</time>
      </trkpt>
      <trkpt lat="49.93223" lon="2.20508">
        <ele>15.3</ele>
        <time>2022-02-02T13:09:57Z</time>
      </trkpt>
      <trkpt lat="49.93223" lon="2.20509">
        <ele>15.3</ele>
        <time>2022-02-02T13:09:59Z</time>
      </trkpt>
      <trkpt lat="49.93223" lon="2.2051">
        <ele>15.3</ele>
        <time>2022-02-02T13:10:00Z</time>
      </trkpt>
      <trkpt lat="49.93223" lon="2.20513">
        <ele>15.3</ele>
        <time>2022-02-02T13:10:01Z</time>
      </trkpt>
      <trkpt lat="49.93223" lon="2.20514">
        <ele>15.3</ele>
        <time>2022-02-02T13:10:02Z</time>
      </trkpt>
      <trkpt lat="49.93223" lon="2.20516">
        <ele>15.2</ele>
        <time>2022-02-02T13:10:03Z</time>
      </trkpt>
      <trkpt lat="49.93223" lon="2.20518">
        <ele>15.2</ele>
        <time>2022-02-02T13:10:04Z</time>
      </trkpt>
      <trkpt lat="49.93222" lon="2.2052">
        <ele>15.2</ele>
        <time>2022-02-02T13:10:06Z</time>
      </trkpt>
      <trkpt lat="49.93221" lon="2.20521">
        <ele>15.2</ele>
        <time>2022-02-02T13:10:07Z</time>
      </trkpt>
      <trkpt lat="49.9322" lon="2.20523">
        <ele>15.2</ele>
        <time>2022-02-02T13:10:08Z</time>
      </trkpt>
      <trkpt lat="49.93219" lon="2.20525">
        <ele>15.2</ele>
        <time>2022-02-02T13:10:09Z</time>
      </trkpt>
      <trkpt lat="49.93218" lon="2.20527">
        <ele>15.2</ele>
        <time>2022-02-02T13:10:10Z</time>
      </trkpt>
      <trkpt lat="49.93216" lon="2.20529">
        <ele>15.2</ele>
        <time>2022-02-02T13:10:11Z</time>
      </trkpt>
      <trkpt lat="49.93216" lon="2.2053">
        <ele>15.1</ele>
        <time>2022-02-02T13:10:12Z</time>
      </trkpt>
      <trkpt lat="49.93215" lon="2.20531">
        <ele>15.1</ele>
        <time>2022-02-02T13:10:13Z</time>
      </trkpt>
      <trkpt lat="49.93214" lon="2.20533">
        <ele>15.1</ele>
        <time>2022-02-02T13:10:14Z</time>
      </trkpt>
      <trkpt lat="49.93213" lon="2.20535">
        <ele>15.1</ele>
        <time>2022-02-02T13:10:15Z</time>
      </trkpt>
      <trkpt lat="49.93212" lon="2.20536">
        <ele>15.1</ele>
        <time>2022-02-02T13:10:16Z</time>
      </trkpt>
      <trkpt lat="49.93211" lon="2.20538">
        <ele>15.1</ele>
        <time>2022-02-02T13:10:17Z</time>
      </trkpt>
      <trkpt lat="49.9321" lon="2.2054">
        <ele>15.1</ele>
        <time>2022-02-02T13:10:19Z</time>
      </trkpt>
      <trkpt lat="49.93209" lon="2.20542">
        <ele>15.1</ele>
        <time>2022-02-02T13:10:20Z</time>
      </trkpt>
      <trkpt lat="49.93208" lon="2.20544">
        <ele>15.1</ele>
        <time>2022-02-02T13:10:21Z</time>
      </trkpt>
      <trkpt lat="49.93207" lon="2.20545">
        <ele>15</ele>
        <time>2022-02-02T13:10:22Z</time>
      </trkpt>
      <trkpt lat="49.93206" lon="2.20548">
        <ele>15</ele>
        <time>2022-02-02T13:10:23Z</time>
      </trkpt>
      <trkpt lat="49.93205" lon="2.20549">
        <ele>15</ele>
        <time>2022-02-02T13:10:24Z</time>
      </trkpt>
      <trkpt lat="49.93205" lon="2.2055">
        <ele>15</ele>
        <time>2022-02-02T13:10:25Z</time>
      </trkpt>
      <trkpt lat="49.93204" lon="2.20551">
        <ele>15</ele>
        <time>2022-02-02T13:10:26Z</time>
      </trkpt>
      <trkpt lat="49.93203" lon="2.20553">
        <ele>15</ele>
        <time>2022-02-02T13:10:27Z</time>
      </trkpt>
      <trkpt lat="49.93202" lon="2.20555">
        <ele>15</ele>
        <time>2022-02-02T13:10:28Z</time>
      </trkpt>
      <trkpt lat="49.93201" lon="2.20557">
        <ele>15</ele>
        <time>2022-02-02T13:10:30Z</time>
      </trkpt>
      <trkpt lat="49.932" lon="2.20559">
        <ele>15</ele>
        <time>2022-02-02T13:10:31Z</time>
      </trkpt>
      <trkpt lat="49.93199" lon="2.20561">
        <ele>15</ele>
        <time>2022-02-02T13:10:32Z</time>
      </trkpt>
      <trkpt lat="49.93198" lon="2.20562">
        <ele>15</ele>
        <time>2022-02-02T13:10:33Z</time>
      </trkpt>
      <trkpt lat="49.93197" lon="2.20564">
        <ele>15</ele>
        <time>2022-02-02T13:10:34Z</time>
      </trkpt>
      <trkpt lat="49.93196" lon="2.20566">
        <ele>15</ele>
        <time>2022-02-02T13:10:35Z</time>
      </trkpt>
      <trkpt lat="49.93196" lon="2.20568">
        <ele>15</ele>
        <time>2022-02-02T13:10:36Z</time>
      </trkpt>
      <trkpt lat="49.93195" lon="2.20569">
        <ele>15</ele>
        <time>2022-02-02T13:10:37Z</time>
      </trkpt>
      <trkpt lat="49.93194" lon="2.20571">
        <ele>15</ele>
        <time>2022-02-02T13:10:38Z</time>
      </trkpt>
      <trkpt lat="49.93194" lon="2.20572">
        <ele>15</ele>
        <time>2022-02-02T13:10:39Z</time>
      </trkpt>
      <trkpt lat="49.93193" lon="2.20574">
        <ele>15</ele>
        <time>2022-02-02T13:10:40Z</time>
      </trkpt>
      <trkpt lat="49.93193" lon="2.20577">
        <ele>15.1</ele>
        <time>2022-02-02T13:10:41Z</time>
      </trkpt>
      <trkpt lat="49.93192" lon="2.2058">
        <ele>15.1</ele>
        <time>2022-02-02T13:10:42Z</time>
      </trkpt>
      <trkpt lat="49.93191" lon="2.20582">
        <ele>15.1</ele>
        <time>2022-02-02T13:10:44Z</time>
      </trkpt>
      <trkpt lat="49.93191" lon="2.20584">
        <ele>15.1</ele>
        <time>2022-02-02T13:10:45Z</time>
      </trkpt>
      <trkpt lat="49.93191" lon="2.20587">
        <ele>15.1</ele>
        <time>2022-02-02T13:10:46Z</time>
      </trkpt>
      <trkpt lat="49.9319" lon="2.20589">
        <ele>15.1</ele>
        <time>2022-02-02T13:10:47Z</time>
      </trkpt>
      <trkpt lat="49.93189" lon="2.20592">
        <ele>15.1</ele>
        <time>2022-02-02T13:10:48Z</time>
      </trkpt>
      <trkpt lat="49.93189" lon="2.20594">
        <ele>15.1</ele>
        <time>2022-02-02T13:10:49Z</time>
      </trkpt>
      <trkpt lat="49.93188" lon="2.20597">
        <ele>15.1</ele>
        <time>2022-02-02T13:10:51Z</time>
      </trkpt>
      <trkpt lat="49.93187" lon="2.20599">
        <ele>15.1</ele>
        <time>2022-02-02T13:10:52Z</time>
      </trkpt>
      <trkpt lat="49.93187" lon="2.20601">
        <ele>15.1</ele>
        <time>2022-02-02T13:10:53Z</time>
      </trkpt>
      <trkpt lat="49.93186" lon="2.20603">
        <ele>15.1</ele>
        <time>2022-02-02T13:10:54Z</time>
      </trkpt>
      <trkpt lat="49.93186" lon="2.20606">
        <ele>15.2</ele>
        <time>2022-02-02T13:10:55Z</time>
      </trkpt>
      <trkpt lat="49.93185" lon="2.20609">
        <ele>15.2</ele>
        <time>2022-02-02T13:10:56Z</time>
      </trkpt>
      <trkpt lat="49.93185" lon="2.2061">
        <ele>15.2</ele>
        <time>2022-02-02T13:10:57Z</time>
      </trkpt>
      <trkpt lat="49.93185" lon="2.20611">
        <ele>15.2</ele>
        <time>2022-02-02T13:10:58Z</time>
      </trkpt>
      <trkpt lat="49.93184" lon="2.20613">
        <ele>15.2</ele>
        <time>2022-02-02T13:10:59Z</time>
      </trkpt>
      <trkpt lat="49.93183" lon="2.20615">
        <ele>15.2</ele>
        <time>2022-02-02T13:11:00Z</time>
      </trkpt>
      <trkpt lat="49.93183" lon="2.20619">
        <ele>15.2</ele>
        <time>2022-02-02T13:11:01Z</time>
      </trkpt>
      <trkpt lat="49.93182" lon="2.2062">
        <ele>15.2</ele>
        <time>2022-02-02T13:11:03Z</time>
      </trkpt>
      <trkpt lat="49.93182" lon="2.20621">
        <ele>15.2</ele>
        <time>2022-02-02T13:11:04Z</time>
      </trkpt>
      <trkpt lat="49.93181" lon="2.20624">
        <ele>15.2</ele>
        <time>2022-02-02T13:11:05Z</time>
      </trkpt>
      <trkpt lat="49.93181" lon="2.20625">
        <ele>15.2</ele>
        <time>2022-02-02T13:11:06Z</time>
      </trkpt>
      <trkpt lat="49.9318" lon="2.20626">
        <ele>15.2</ele>
        <time>2022-02-02T13:11:07Z</time>
      </trkpt>
      <trkpt lat="49.9318" lon="2.20628">
        <ele>15.3</ele>
        <time>2022-02-02T13:11:09Z</time>
      </trkpt>
      <trkpt lat="49.93179" lon="2.20629">
        <ele>15.3</ele>
        <time>2022-02-02T13:11:10Z</time>
      </trkpt>
      <trkpt lat="49.93179" lon="2.20631">
        <ele>15.3</ele>
        <time>2022-02-02T13:11:11Z</time>
      </trkpt>
      <trkpt lat="49.93179" lon="2.20633">
        <ele>15.3</ele>
        <time>2022-02-02T13:11:12Z</time>
      </trkpt>
      <trkpt lat="49.93178" lon="2.20635">
        <ele>15.3</ele>
        <time>2022-02-02T13:11:13Z</time>
      </trkpt>
      <trkpt lat="49.93177" lon="2.20639">
        <ele>15.3</ele>
        <time>2022-02-02T13:11:14Z</time>
      </trkpt>
      <trkpt lat="49.93176" lon="2.2064">
        <ele>15.3</ele>
        <time>2022-02-02T13:11:15Z</time>
      </trkpt>
      <trkpt lat="49.93176" lon="2.20641">
        <ele>15.3</ele>
        <time>2022-02-02T13:11:16Z</time>
      </trkpt>
      <trkpt lat="49.93175" lon="2.20643">
        <ele>15.3</ele>
        <time>2022-02-02T13:11:17Z</time>
      </trkpt>
      <trkpt lat="49.93175" lon="2.20645">
        <ele>15.3</ele>
        <time>2022-02-02T13:11:18Z</time>
      </trkpt>
      <trkpt lat="49.93174" lon="2.20646">
        <ele>15.3</ele>
        <time>2022-02-02T13:11:19Z</time>
      </trkpt>
      <trkpt lat="49.93173" lon="2.20648">
        <ele>15.4</ele>
        <time>2022-02-02T13:11:20Z</time>
      </trkpt>
      <trkpt lat="49.93173" lon="2.2065">
        <ele>15.4</ele>
        <time>2022-02-02T13:11:22Z</time>
      </trkpt>
      <trkpt lat="49.93172" lon="2.20652">
        <ele>15.4</ele>
        <time>2022-02-02T13:11:23Z</time>
      </trkpt>
      <trkpt lat="49.93172" lon="2.20654">
        <ele>15.4</ele>
        <time>2022-02-02T13:11:24Z</time>
      </trkpt>
      <trkpt lat="49.93171" lon="2.20656">
        <ele>15.4</ele>
        <time>2022-02-02T13:11:25Z</time>
      </trkpt>
      <trkpt lat="49.9317" lon="2.20659">
        <ele>15.4</ele>
        <time>2022-02-02T13:11:26Z</time>
      </trkpt>
      <trkpt lat="49.9317" lon="2.20661">
        <ele>15.4</ele>
        <time>2022-02-02T13:11:27Z</time>
      </trkpt>
      <trkpt lat="49.93169" lon="2.20663">
        <ele>15.4</ele>
        <time>2022-02-02T13:11:28Z</time>
      </trkpt>
      <trkpt lat="49.93169" lon="2.20665">
        <ele>15.4</ele>
        <time>2022-02-02T13:11:29Z</time>
      </trkpt>
      <trkpt lat="49.93168" lon="2.20667">
        <ele>15.4</ele>
        <time>2022-02-02T13:11:30Z</time>
      </trkpt>
      <trkpt lat="49.93168" lon="2.20669">
        <ele>15.4</ele>
        <time>2022-02-02T13:11:32Z</time>
      </trkpt>
      <trkpt lat="49.93167" lon="2.20671">
        <ele>15.5</ele>
        <time>2022-02-02T13:11:33Z</time>
      </trkpt>
      <trkpt lat="49.93167" lon="2.20672">
        <ele>15.5</ele>
        <time>2022-02-02T13:11:34Z</time>
      </trkpt>
      <trkpt lat="49.93167" lon="2.20673">
        <ele>15.5</ele>
        <time>2022-02-02T13:11:35Z</time>
      </trkpt>
      <trkpt lat="49.93167" lon="2.20675">
        <ele>15.5</ele>
        <time>2022-02-02T13:11:36Z</time>
      </trkpt>
      <trkpt lat="49.93166" lon="2.20678">
        <ele>15.5</ele>
        <time>2022-02-02T13:11:38Z</time>
      </trkpt>
      <trkpt lat="49.93165" lon="2.20681">
        <ele>15.5</ele>
        <time>2022-02-02T13:11:39Z</time>
      </trkpt>
      <trkpt lat="49.93165" lon="2.20682">
        <ele>15.5</ele>
        <time>2022-02-02T13:11:40Z</time>
      </trkpt>
      <trkpt lat="49.93165" lon="2.20684">
        <ele>15.5</ele>
        <time>2022-02-02T13:11:41Z</time>
      </trkpt>
      <trkpt lat="49.93164" lon="2.20685">
        <ele>15.5</ele>
        <time>2022-02-02T13:11:42Z</time>
      </trkpt>
      <trkpt lat="49.93164" lon="2.20686">
        <ele>15.5</ele>
        <time>2022-02-02T13:11:43Z</time>
      </trkpt>
      <trkpt lat="49.93163" lon="2.20688">
        <ele>15.5</ele>
        <time>2022-02-02T13:11:44Z</time>
      </trkpt>
      <trkpt lat="49.93162" lon="2.2069">
        <ele>15.5</ele>
        <time>2022-02-02T13:11:45Z</time>
      </trkpt>
      <trkpt lat="49.93162" lon="2.20691">
        <ele>15.5</ele>
        <time>2022-02-02T13:11:46Z</time>
      </trkpt>
      <trkpt lat="49.93161" lon="2.20693">
        <ele>15.5</ele>
        <time>2022-02-02T13:11:47Z</time>
      </trkpt>
      <trkpt lat="49.9316" lon="2.20694">
        <ele>15.5</ele>
        <time>2022-02-02T13:11:48Z</time>
      </trkpt>
      <trkpt lat="49.9316" lon="2.20696">
        <ele>15.5</ele>
        <time>2022-02-02T13:11:49Z</time>
      </trkpt>
      <trkpt lat="49.93159" lon="2.20697">
        <ele>15.5</ele>
        <time>2022-02-02T13:11:50Z</time>
      </trkpt>
      <trkpt lat="49.93159" lon="2.20699">
        <ele>15.5</ele>
        <time>2022-02-02T13:11:51Z</time>
      </trkpt>
      <trkpt lat="49.93158" lon="2.207">
        <ele>15.5</ele>
        <time>2022-02-02T13:11:53Z</time>
      </trkpt>
      <trkpt lat="49.93158" lon="2.20702">
        <ele>15.5</ele>
        <time>2022-02-02T13:11:54Z</time>
      </trkpt>
      <trkpt lat="49.93158" lon="2.20703">
        <ele>15.5</ele>
        <time>2022-02-02T13:11:55Z</time>
      </trkpt>
      <trkpt lat="49.93157" lon="2.20705">
        <ele>15.5</ele>
        <time>2022-02-02T13:11:56Z</time>
      </trkpt>
      <trkpt lat="49.93157" lon="2.20707">
        <ele>15.5</ele>
        <time>2022-02-02T13:11:57Z</time>
      </trkpt>
      <trkpt lat="49.93157" lon="2.20708">
        <ele>15.5</ele>
        <time>2022-02-02T13:11:58Z</time>
      </trkpt>
      <trkpt lat="49.93156" lon="2.2071">
        <ele>15.5</ele>
        <time>2022-02-02T13:11:59Z</time>
      </trkpt>
      <trkpt lat="49.93155" lon="2.20711">
        <ele>15.5</ele>
        <time>2022-02-02T13:12:00Z</time>
      </trkpt>
      <trkpt lat="49.93155" lon="2.20713">
        <ele>15.5</ele>
        <time>2022-02-02T13:12:01Z</time>
      </trkpt>
      <trkpt lat="49.93154" lon="2.20715">
        <ele>15.5</ele>
        <time>2022-02-02T13:12:02Z</time>
      </trkpt>
      <trkpt lat="49.93153" lon="2.20717">
        <ele>15.6</ele>
        <time>2022-02-02T13:12:04Z</time>
      </trkpt>
      <trkpt lat="49.93153" lon="2.20718">
        <ele>15.6</ele>
        <time>2022-02-02T13:12:05Z</time>
      </trkpt>
      <trkpt lat="49.93152" lon="2.20719">
        <ele>15.6</ele>
        <time>2022-02-02T13:12:06Z</time>
      </trkpt>
      <trkpt lat="49.93151" lon="2.2072">
        <ele>15.6</ele>
        <time>2022-02-02T13:12:07Z</time>
      </trkpt>
      <trkpt lat="49.9315" lon="2.20721">
        <ele>15.6</ele>
        <time>2022-02-02T13:12:08Z</time>
      </trkpt>
      <trkpt lat="49.9315" lon="2.20723">
        <ele>15.6</ele>
        <time>2022-02-02T13:12:09Z</time>
      </trkpt>
      <trkpt lat="49.93149" lon="2.20725">
        <ele>15.6</ele>
        <time>2022-02-02T13:12:11Z</time>
      </trkpt>
      <trkpt lat="49.93148" lon="2.20728">
        <ele>15.6</ele>
        <time>2022-02-02T13:12:12Z</time>
      </trkpt>
      <trkpt lat="49.93147" lon="2.20729">
        <ele>15.6</ele>
        <time>2022-02-02T13:12:13Z</time>
      </trkpt>
      <trkpt lat="49.93147" lon="2.2073">
        <ele>15.6</ele>
        <time>2022-02-02T13:12:14Z</time>
      </trkpt>
      <trkpt lat="49.93146" lon="2.20733">
        <ele>15.6</ele>
        <time>2022-02-02T13:12:15Z</time>
      </trkpt>
      <trkpt lat="49.93145" lon="2.20734">
        <ele>15.6</ele>
        <time>2022-02-02T13:12:16Z</time>
      </trkpt>
      <trkpt lat="49.93145" lon="2.20735">
        <ele>15.6</ele>
        <time>2022-02-02T13:12:17Z</time>
      </trkpt>
      <trkpt lat="49.93144" lon="2.20738">
        <ele>15.6</ele>
        <time>2022-02-02T13:12:18Z</time>
      </trkpt>
      <trkpt lat="49.93144" lon="2.20739">
        <ele>15.6</ele>
        <time>2022-02-02T13:12:19Z</time>
      </trkpt>
      <trkpt lat="49.93143" lon="2.2074">
        <ele>15.6</ele>
        <time>2022-02-02T13:12:20Z</time>
      </trkpt>
      <trkpt lat="49.93143" lon="2.20742">
        <ele>15.6</ele>
        <time>2022-02-02T13:12:21Z</time>
      </trkpt>
      <trkpt lat="49.93142" lon="2.20744">
        <ele>15.6</ele>
        <time>2022-02-02T13:12:22Z</time>
      </trkpt>
      <trkpt lat="49.93141" lon="2.20747">
        <ele>15.6</ele>
        <time>2022-02-02T13:12:24Z</time>
      </trkpt>
      <trkpt lat="49.9314" lon="2.2075">
        <ele>15.6</ele>
        <time>2022-02-02T13:12:26Z</time>
      </trkpt>
      <trkpt lat="49.9314" lon="2.20751">
        <ele>15.6</ele>
        <time>2022-02-02T13:12:27Z</time>
      </trkpt>
      <trkpt lat="49.9314" lon="2.20753">
        <ele>15.6</ele>
        <time>2022-02-02T13:12:28Z</time>
      </trkpt>
      <trkpt lat="49.93139" lon="2.20755">
        <ele>15.5</ele>
        <time>2022-02-02T13:12:29Z</time>
      </trkpt>
      <trkpt lat="49.93138" lon="2.20758">
        <ele>15.5</ele>
        <time>2022-02-02T13:12:30Z</time>
      </trkpt>
      <trkpt lat="49.93138" lon="2.20759">
        <ele>15.5</ele>
        <time>2022-02-02T13:12:31Z</time>
      </trkpt>
      <trkpt lat="49.93137" lon="2.2076">
        <ele>15.5</ele>
        <time>2022-02-02T13:12:32Z</time>
      </trkpt>
      <trkpt lat="49.93136" lon="2.20763">
        <ele>15.5</ele>
        <time>2022-02-02T13:12:34Z</time>
      </trkpt>
      <trkpt lat="49.93136" lon="2.20765">
        <ele>15.5</ele>
        <time>2022-02-02T13:12:35Z</time>
      </trkpt>
      <trkpt lat="49.93135" lon="2.20768">
        <ele>15.5</ele>
        <time>2022-02-02T13:12:36Z</time>
      </trkpt>
      <trkpt lat="49.93135" lon="2.20769">
        <ele>15.5</ele>
        <time>2022-02-02T13:12:37Z</time>
      </trkpt>
      <trkpt lat="49.93135" lon="2.2077">
        <ele>15.5</ele>
        <time>2022-02-02T13:12:38Z</time>
      </trkpt>
      <trkpt lat="49.93134" lon="2.20773">
        <ele>15.5</ele>
        <time>2022-02-02T13:12:39Z</time>
      </trkpt>
      <trkpt lat="49.93134" lon="2.20775">
        <ele>15.5</ele>
        <time>2022-02-02T13:12:40Z</time>
      </trkpt>
      <trkpt lat="49.93133" lon="2.20776">
        <ele>15.5</ele>
        <time>2022-02-02T13:12:41Z</time>
      </trkpt>
      <trkpt lat="49.93133" lon="2.20779">
        <ele>15.5</ele>
        <time>2022-02-02T13:12:42Z</time>
      </trkpt>
      <trkpt lat="49.93132" lon="2.2078">
        <ele>15.5</ele>
        <time>2022-02-02T13:12:43Z</time>
      </trkpt>
      <trkpt lat="49.93132" lon="2.20782">
        <ele>15.5</ele>
        <time>2022-02-02T13:12:44Z</time>
      </trkpt>
      <trkpt lat="49.93132" lon="2.20785">
        <ele>15.5</ele>
        <time>2022-02-02T13:12:45Z</time>
      </trkpt>
      <trkpt lat="49.93131" lon="2.20786">
        <ele>15.5</ele>
        <time>2022-02-02T13:12:47Z</time>
      </trkpt>
      <trkpt lat="49.93131" lon="2.20787">
        <ele>15.5</ele>
        <time>2022-02-02T13:12:48Z</time>
      </trkpt>
      <trkpt lat="49.9313" lon="2.20788">
        <ele>15.5</ele>
        <time>2022-02-02T13:12:49Z</time>
      </trkpt>
      <trkpt lat="49.9313" lon="2.20791">
        <ele>15.5</ele>
        <time>2022-02-02T13:12:50Z</time>
      </trkpt>
      <trkpt lat="49.93129" lon="2.20793">
        <ele>15.4</ele>
        <time>2022-02-02T13:12:51Z</time>
      </trkpt>
      <trkpt lat="49.93129" lon="2.20795">
        <ele>15.4</ele>
        <time>2022-02-02T13:12:53Z</time>
      </trkpt>
      <trkpt lat="49.93129" lon="2.20798">
        <ele>15.4</ele>
        <time>2022-02-02T13:12:54Z</time>
      </trkpt>
      <trkpt lat="49.93129" lon="2.208">
        <ele>15.4</ele>
        <time>2022-02-02T13:12:55Z</time>
      </trkpt>
      <trkpt lat="49.93128" lon="2.20804">
        <ele>15.4</ele>
        <time>2022-02-02T13:12:56Z</time>
      </trkpt>
      <trkpt lat="49.93128" lon="2.20805">
        <ele>15.4</ele>
        <time>2022-02-02T13:12:57Z</time>
      </trkpt>
      <trkpt lat="49.93128" lon="2.20806">
        <ele>15.4</ele>
        <time>2022-02-02T13:12:58Z</time>
      </trkpt>
      <trkpt lat="49.93127" lon="2.20808">
        <ele>15.4</ele>
        <time>2022-02-02T13:12:59Z</time>
      </trkpt>
      <trkpt lat="49.93127" lon="2.2081">
        <ele>15.4</ele>
        <time>2022-02-02T13:13:00Z</time>
      </trkpt>
      <trkpt lat="49.93126" lon="2.20813">
        <ele>15.4</ele>
        <time>2022-02-02T13:13:01Z</time>
      </trkpt>
      <trkpt lat="49.93126" lon="2.20815">
        <ele>15.4</ele>
        <time>2022-02-02T13:13:02Z</time>
      </trkpt>
      <trkpt lat="49.93126" lon="2.20817">
        <ele>15.4</ele>
        <time>2022-02-02T13:13:03Z</time>
      </trkpt>
      <trkpt lat="49.93125" lon="2.20819">
        <ele>15.4</ele>
        <time>2022-02-02T13:13:04Z</time>
      </trkpt>
      <trkpt lat="49.93125" lon="2.20823">
        <ele>15.3</ele>
        <time>2022-02-02T13:13:05Z</time>
      </trkpt>
      <trkpt lat="49.93125" lon="2.20825">
        <ele>15.3</ele>
        <time>2022-02-02T13:13:07Z</time>
      </trkpt>
      <trkpt lat="49.93125" lon="2.20827">
        <ele>15.3</ele>
        <time>2022-02-02T13:13:08Z</time>
      </trkpt>
      <trkpt lat="49.93125" lon="2.20828">
        <ele>15.3</ele>
        <time>2022-02-02T13:13:09Z</time>
      </trkpt>
      <trkpt lat="49.93125" lon="2.2083">
        <ele>15.3</ele>
        <time>2022-02-02T13:13:10Z</time>
      </trkpt>
      <trkpt lat="49.93125" lon="2.20833">
        <ele>15.3</ele>
        <time>2022-02-02T13:13:11Z</time>
      </trkpt>
      <trkpt lat="49.93125" lon="2.20835">
        <ele>15.3</ele>
        <time>2022-02-02T13:13:12Z</time>
      </trkpt>
      <trkpt lat="49.93124" lon="2.20837">
        <ele>15.3</ele>
        <time>2022-02-02T13:13:13Z</time>
      </trkpt>
      <trkpt lat="49.93124" lon="2.2084">
        <ele>15.3</ele>
        <time>2022-02-02T13:13:14Z</time>
      </trkpt>
      <trkpt lat="49.93124" lon="2.20844">
        <ele>15.3</ele>
        <time>2022-02-02T13:13:15Z</time>
      </trkpt>
      <trkpt lat="49.93124" lon="2.20846">
        <ele>15.3</ele>
        <time>2022-02-02T13:13:17Z</time>
      </trkpt>
      <trkpt lat="49.93124" lon="2.20847">
        <ele>15.3</ele>
        <time>2022-02-02T13:13:18Z</time>
      </trkpt>
      <trkpt lat="49.93124" lon="2.20849">
        <ele>15.3</ele>
        <time>2022-02-02T13:13:19Z</time>
      </trkpt>
      <trkpt lat="49.93123" lon="2.20851">
        <ele>15.3</ele>
        <time>2022-02-02T13:13:20Z</time>
      </trkpt>
      <trkpt lat="49.93123" lon="2.20854">
        <ele>15.3</ele>
        <time>2022-02-02T13:13:21Z</time>
      </trkpt>
      <trkpt lat="49.93123" lon="2.20856">
        <ele>15.3</ele>
        <time>2022-02-02T13:13:22Z</time>
      </trkpt>
      <trkpt lat="49.93123" lon="2.20857">
        <ele>15.3</ele>
        <time>2022-02-02T13:13:23Z</time>
      </trkpt>
      <trkpt lat="49.93123" lon="2.20861">
        <ele>15.4</ele>
        <time>2022-02-02T13:13:24Z</time>
      </trkpt>
      <trkpt lat="49.93122" lon="2.20862">
        <ele>15.4</ele>
        <time>2022-02-02T13:13:25Z</time>
      </trkpt>
      <trkpt lat="49.93122" lon="2.20863">
        <ele>15.4</ele>
        <time>2022-02-02T13:13:26Z</time>
      </trkpt>
      <trkpt lat="49.93122" lon="2.20866">
        <ele>15.4</ele>
        <time>2022-02-02T13:13:27Z</time>
      </trkpt>
      <trkpt lat="49.93122" lon="2.20868">
        <ele>15.4</ele>
        <time>2022-02-02T13:13:29Z</time>
      </trkpt>
      <trkpt lat="49.93122" lon="2.20869">
        <ele>15.4</ele>
        <time>2022-02-02T13:13:30Z</time>
      </trkpt>
      <trkpt lat="49.93121" lon="2.20871">
        <ele>15.4</ele>
        <time>2022-02-02T13:13:31Z</time>
      </trkpt>
      <trkpt lat="49.93121" lon="2.20872">
        <ele>15.4</ele>
        <time>2022-02-02T13:13:32Z</time>
      </trkpt>
      <trkpt lat="49.93121" lon="2.20874">
        <ele>15.4</ele>
        <time>2022-02-02T13:13:33Z</time>
      </trkpt>
      <trkpt lat="49.93121" lon="2.20875">
        <ele>15.4</ele>
        <time>2022-02-02T13:13:34Z</time>
      </trkpt>
      <trkpt lat="49.9312" lon="2.20877">
        <ele>15.4</ele>
        <time>2022-02-02T13:13:35Z</time>
      </trkpt>
      <trkpt lat="49.9312" lon="2.20879">
        <ele>15.3</ele>
        <time>2022-02-02T13:13:36Z</time>
      </trkpt>
      <trkpt lat="49.9312" lon="2.20882">
        <ele>15.3</ele>
        <time>2022-02-02T13:13:38Z</time>
      </trkpt>
      <trkpt lat="49.93119" lon="2.20884">
        <ele>15.3</ele>
        <time>2022-02-02T13:13:39Z</time>
      </trkpt>
      <trkpt lat="49.93119" lon="2.20885">
        <ele>15.3</ele>
        <time>2022-02-02T13:13:40Z</time>
      </trkpt>
      <trkpt lat="49.93119" lon="2.20888">
        <ele>15.3</ele>
        <time>2022-02-02T13:13:41Z</time>
      </trkpt>
      <trkpt lat="49.93119" lon="2.2089">
        <ele>15.3</ele>
        <time>2022-02-02T13:13:42Z</time>
      </trkpt>
      <trkpt lat="49.93119" lon="2.20891">
        <ele>15.3</ele>
        <time>2022-02-02T13:13:43Z</time>
      </trkpt>
      <trkpt lat="49.93118" lon="2.20893">
        <ele>15.3</ele>
        <time>2022-02-02T13:13:44Z</time>
      </trkpt>
      <trkpt lat="49.93118" lon="2.20895">
        <ele>15.3</ele>
        <time>2022-02-02T13:13:45Z</time>
      </trkpt>
      <trkpt lat="49.93118" lon="2.20897">
        <ele>15.3</ele>
        <time>2022-02-02T13:13:46Z</time>
      </trkpt>
      <trkpt lat="49.93118" lon="2.20899">
        <ele>15.2</ele>
        <time>2022-02-02T13:13:47Z</time>
      </trkpt>
      <trkpt lat="49.93118" lon="2.20901">
        <ele>15.2</ele>
        <time>2022-02-02T13:13:48Z</time>
      </trkpt>
      <trkpt lat="49.93118" lon="2.20902">
        <ele>15.2</ele>
        <time>2022-02-02T13:13:49Z</time>
      </trkpt>
      <trkpt lat="49.93117" lon="2.20904">
        <ele>15.2</ele>
        <time>2022-02-02T13:13:50Z</time>
      </trkpt>
      <trkpt lat="49.93117" lon="2.20906">
        <ele>15.2</ele>
        <time>2022-02-02T13:13:51Z</time>
      </trkpt>
      <trkpt lat="49.93117" lon="2.20909">
        <ele>15.2</ele>
        <time>2022-02-02T13:13:52Z</time>
      </trkpt>
      <trkpt lat="49.93116" lon="2.2091">
        <ele>15.2</ele>
        <time>2022-02-02T13:13:54Z</time>
      </trkpt>
      <trkpt lat="49.93116" lon="2.20911">
        <ele>15.2</ele>
        <time>2022-02-02T13:13:55Z</time>
      </trkpt>
      <trkpt lat="49.93116" lon="2.20914">
        <ele>15.1</ele>
        <time>2022-02-02T13:13:56Z</time>
      </trkpt>
      <trkpt lat="49.93116" lon="2.20915">
        <ele>15.1</ele>
        <time>2022-02-02T13:13:57Z</time>
      </trkpt>
      <trkpt lat="49.93115" lon="2.20917">
        <ele>15.1</ele>
        <time>2022-02-02T13:13:58Z</time>
      </trkpt>
      <trkpt lat="49.93115" lon="2.20919">
        <ele>15.1</ele>
        <time>2022-02-02T13:13:59Z</time>
      </trkpt>
      <trkpt lat="49.93115" lon="2.20921">
        <ele>15.1</ele>
        <time>2022-02-02T13:14:00Z</time>
      </trkpt>
      <trkpt lat="49.93115" lon="2.20923">
        <ele>15.1</ele>
        <time>2022-02-02T13:14:01Z</time>
      </trkpt>
      <trkpt lat="49.93115" lon="2.20925">
        <ele>15</ele>
        <time>2022-02-02T13:14:02Z</time>
      </trkpt>
      <trkpt lat="49.93115" lon="2.20927">
        <ele>15</ele>
        <time>2022-02-02T13:14:03Z</time>
      </trkpt>
      <trkpt lat="49.93115" lon="2.20929">
        <ele>15</ele>
        <time>2022-02-02T13:14:04Z</time>
      </trkpt>
      <trkpt lat="49.93116" lon="2.20931">
        <ele>15</ele>
        <time>2022-02-02T13:14:05Z</time>
      </trkpt>
      <trkpt lat="49.93116" lon="2.20934">
        <ele>15</ele>
        <time>2022-02-02T13:14:07Z</time>
      </trkpt>
      <trkpt lat="49.93116" lon="2.20936">
        <ele>15</ele>
        <time>2022-02-02T13:14:08Z</time>
      </trkpt>
      <trkpt lat="49.93116" lon="2.20937">
        <ele>15</ele>
        <time>2022-02-02T13:14:09Z</time>
      </trkpt>
      <trkpt lat="49.93116" lon="2.2094">
        <ele>15</ele>
        <time>2022-02-02T13:14:10Z</time>
      </trkpt>
      <trkpt lat="49.93116" lon="2.20942">
        <ele>15</ele>
        <time>2022-02-02T13:14:11Z</time>
      </trkpt>
      <trkpt lat="49.93116" lon="2.20943">
        <ele>15</ele>
        <time>2022-02-02T13:14:12Z</time>
      </trkpt>
      <trkpt lat="49.93116" lon="2.20946">
        <ele>14.9</ele>
        <time>2022-02-02T13:14:13Z</time>
      </trkpt>
      <trkpt lat="49.93116" lon="2.20947">
        <ele>14.9</ele>
        <time>2022-02-02T13:14:14Z</time>
      </trkpt>
      <trkpt lat="49.93116" lon="2.20948">
        <ele>14.9</ele>
        <time>2022-02-02T13:14:15Z</time>
      </trkpt>
      <trkpt lat="49.93115" lon="2.2095">
        <ele>14.9</ele>
        <time>2022-02-02T13:14:16Z</time>
      </trkpt>
      <trkpt lat="49.93115" lon="2.20952">
        <ele>14.9</ele>
        <time>2022-02-02T13:14:18Z</time>
      </trkpt>
      <trkpt lat="49.93115" lon="2.20954">
        <ele>14.9</ele>
        <time>2022-02-02T13:14:19Z</time>
      </trkpt>
      <trkpt lat="49.93115" lon="2.20955">
        <ele>14.9</ele>
        <time>2022-02-02T13:14:20Z</time>
      </trkpt>
      <trkpt lat="49.93115" lon="2.20957">
        <ele>14.9</ele>
        <time>2022-02-02T13:14:21Z</time>
      </trkpt>
      <trkpt lat="49.93115" lon="2.20959">
        <ele>14.9</ele>
        <time>2022-02-02T13:14:22Z</time>
      </trkpt>
      <trkpt lat="49.93114" lon="2.20961">
        <ele>14.9</ele>
        <time>2022-02-02T13:14:23Z</time>
      </trkpt>
      <trkpt lat="49.93114" lon="2.20963">
        <ele>14.9</ele>
        <time>2022-02-02T13:14:24Z</time>
      </trkpt>
      <trkpt lat="49.93114" lon="2.20966">
        <ele>14.9</ele>
        <time>2022-02-02T13:14:25Z</time>
      </trkpt>
      <trkpt lat="49.93113" lon="2.20968">
        <ele>14.9</ele>
        <time>2022-02-02T13:14:26Z</time>
      </trkpt>
      <trkpt lat="49.93113" lon="2.20971">
        <ele>14.9</ele>
        <time>2022-02-02T13:14:27Z</time>
      </trkpt>
      <trkpt lat="49.93112" lon="2.20972">
        <ele>14.9</ele>
        <time>2022-02-02T13:14:28Z</time>
      </trkpt>
      <trkpt lat="49.93112" lon="2.20973">
        <ele>14.9</ele>
        <time>2022-02-02T13:14:29Z</time>
      </trkpt>
      <trkpt lat="49.93111" lon="2.20976">
        <ele>14.9</ele>
        <time>2022-02-02T13:14:31Z</time>
      </trkpt>
      <trkpt lat="49.93111" lon="2.20977">
        <ele>14.9</ele>
        <time>2022-02-02T13:14:32Z</time>
      </trkpt>
      <trkpt lat="49.93111" lon="2.20979">
        <ele>14.9</ele>
        <time>2022-02-02T13:14:33Z</time>
      </trkpt>
      <trkpt lat="49.9311" lon="2.20981">
        <ele>14.9</ele>
        <time>2022-02-02T13:14:34Z</time>
      </trkpt>
      <trkpt lat="49.9311" lon="2.20983">
        <ele>14.9</ele>
        <time>2022-02-02T13:14:35Z</time>
      </trkpt>
      <trkpt lat="49.93109" lon="2.20985">
        <ele>14.9</ele>
        <time>2022-02-02T13:14:36Z</time>
      </trkpt>
      <trkpt lat="49.93108" lon="2.20987">
        <ele>14.9</ele>
        <time>2022-02-02T13:14:37Z</time>
      </trkpt>
      <trkpt lat="49.93108" lon="2.20989">
        <ele>14.9</ele>
        <time>2022-02-02T13:14:38Z</time>
      </trkpt>
      <trkpt lat="49.93107" lon="2.20991">
        <ele>14.9</ele>
        <time>2022-02-02T13:14:39Z</time>
      </trkpt>
      <trkpt lat="49.93106" lon="2.20994">
        <ele>15</ele>
        <time>2022-02-02T13:14:40Z</time>
      </trkpt>
      <trkpt lat="49.93106" lon="2.20995">
        <ele>15</ele>
        <time>2022-02-02T13:14:41Z</time>
      </trkpt>
      <trkpt lat="49.93105" lon="2.20996">
        <ele>15</ele>
        <time>2022-02-02T13:14:42Z</time>
      </trkpt>
      <trkpt lat="49.93104" lon="2.20999">
        <ele>15</ele>
        <time>2022-02-02T13:14:44Z</time>
      </trkpt>
      <trkpt lat="49.93104" lon="2.21">
        <ele>15</ele>
        <time>2022-02-02T13:14:45Z</time>
      </trkpt>
      <trkpt lat="49.93104" lon="2.21001">
        <ele>15</ele>
        <time>2022-02-02T13:14:46Z</time>
      </trkpt>
      <trkpt lat="49.93103" lon="2.21003">
        <ele>15</ele>
        <time>2022-02-02T13:14:47Z</time>
      </trkpt>
      <trkpt lat="49.93103" lon="2.21004">
        <ele>15</ele>
        <time>2022-02-02T13:14:48Z</time>
      </trkpt>
      <trkpt lat="49.93103" lon="2.21006">
        <ele>15</ele>
        <time>2022-02-02T13:14:49Z</time>
      </trkpt>
      <trkpt lat="49.93102" lon="2.21007">
        <ele>15</ele>
        <time>2022-02-02T13:14:50Z</time>
      </trkpt>
      <trkpt lat="49.93102" lon="2.21008">
        <ele>15</ele>
        <time>2022-02-02T13:14:51Z</time>
      </trkpt>
      <trkpt lat="49.93101" lon="2.2101">
        <ele>15</ele>
        <time>2022-02-02T13:14:52Z</time>
      </trkpt>
      <trkpt lat="49.931" lon="2.21013">
        <ele>15</ele>
        <time>2022-02-02T13:14:53Z</time>
      </trkpt>
      <trkpt lat="49.931" lon="2.21014">
        <ele>15</ele>
        <time>2022-02-02T13:14:54Z</time>
      </trkpt>
      <trkpt lat="49.93099" lon="2.21015">
        <ele>15</ele>
        <time>2022-02-02T13:14:55Z</time>
      </trkpt>
      <trkpt lat="49.93099" lon="2.21017">
        <ele>15</ele>
        <time>2022-02-02T13:14:56Z</time>
      </trkpt>
      <trkpt lat="49.93098" lon="2.21018">
        <ele>15</ele>
        <time>2022-02-02T13:14:57Z</time>
      </trkpt>
      <trkpt lat="49.93098" lon="2.2102">
        <ele>15</ele>
        <time>2022-02-02T13:14:59Z</time>
      </trkpt>
      <trkpt lat="49.93098" lon="2.21022">
        <ele>15</ele>
        <time>2022-02-02T13:15:00Z</time>
      </trkpt>
      <trkpt lat="49.93097" lon="2.21024">
        <ele>15</ele>
        <time>2022-02-02T13:15:01Z</time>
      </trkpt>
      <trkpt lat="49.93097" lon="2.21027">
        <ele>15</ele>
        <time>2022-02-02T13:15:02Z</time>
      </trkpt>
      <trkpt lat="49.93096" lon="2.21028">
        <ele>15</ele>
        <time>2022-02-02T13:15:03Z</time>
      </trkpt>
      <trkpt lat="49.93096" lon="2.2103">
        <ele>15</ele>
        <time>2022-02-02T13:15:04Z</time>
      </trkpt>
      <trkpt lat="49.93096" lon="2.21032">
        <ele>15.1</ele>
        <time>2022-02-02T13:15:05Z</time>
      </trkpt>
      <trkpt lat="49.93095" lon="2.21034">
        <ele>15.1</ele>
        <time>2022-02-02T13:15:06Z</time>
      </trkpt>
      <trkpt lat="49.93095" lon="2.21036">
        <ele>15.1</ele>
        <time>2022-02-02T13:15:07Z</time>
      </trkpt>
      <trkpt lat="49.93094" lon="2.21038">
        <ele>15.1</ele>
        <time>2022-02-02T13:15:08Z</time>
      </trkpt>
      <trkpt lat="49.93094" lon="2.2104">
        <ele>15.1</ele>
        <time>2022-02-02T13:15:09Z</time>
      </trkpt>
      <trkpt lat="49.93094" lon="2.21041">
        <ele>15.1</ele>
        <time>2022-02-02T13:15:10Z</time>
      </trkpt>
      <trkpt lat="49.93093" lon="2.21044">
        <ele>15.1</ele>
        <time>2022-02-02T13:15:12Z</time>
      </trkpt>
      <trkpt lat="49.93093" lon="2.21046">
        <ele>15.1</ele>
        <time>2022-02-02T13:15:13Z</time>
      </trkpt>
      <trkpt lat="49.93092" lon="2.21048">
        <ele>15.1</ele>
        <time>2022-02-02T13:15:14Z</time>
      </trkpt>
      <trkpt lat="49.93092" lon="2.21049">
        <ele>15.1</ele>
        <time>2022-02-02T13:15:15Z</time>
      </trkpt>
      <trkpt lat="49.93091" lon="2.21052">
        <ele>15.1</ele>
        <time>2022-02-02T13:15:16Z</time>
      </trkpt>
      <trkpt lat="49.93091" lon="2.21054">
        <ele>15.1</ele>
        <time>2022-02-02T13:15:17Z</time>
      </trkpt>
      <trkpt lat="49.9309" lon="2.21056">
        <ele>15.1</ele>
        <time>2022-02-02T13:15:18Z</time>
      </trkpt>
      <trkpt lat="49.9309" lon="2.21058">
        <ele>15.1</ele>
        <time>2022-02-02T13:15:19Z</time>
      </trkpt>
      <trkpt lat="49.93089" lon="2.21062">
        <ele>15.1</ele>
        <time>2022-02-02T13:15:20Z</time>
      </trkpt>
      <trkpt lat="49.93089" lon="2.21064">
        <ele>15.1</ele>
        <time>2022-02-02T13:15:22Z</time>
      </trkpt>
      <trkpt lat="49.93089" lon="2.21066">
        <ele>15.1</ele>
        <time>2022-02-02T13:15:23Z</time>
      </trkpt>
      <trkpt lat="49.93089" lon="2.21067">
        <ele>15.1</ele>
        <time>2022-02-02T13:15:24Z</time>
      </trkpt>
      <trkpt lat="49.93089" lon="2.21069">
        <ele>15.1</ele>
        <time>2022-02-02T13:15:25Z</time>
      </trkpt>
      <trkpt lat="49.93088" lon="2.21072">
        <ele>15.1</ele>
        <time>2022-02-02T13:15:26Z</time>
      </trkpt>
      <trkpt lat="49.93088" lon="2.21074">
        <ele>15.1</ele>
        <time>2022-02-02T13:15:27Z</time>
      </trkpt>
      <trkpt lat="49.93088" lon="2.21076">
        <ele>15.1</ele>
        <time>2022-02-02T13:15:28Z</time>
      </trkpt>
      <trkpt lat="49.93087" lon="2.21079">
        <ele>15.1</ele>
        <time>2022-02-02T13:15:29Z</time>
      </trkpt>
      <trkpt lat="49.93087" lon="2.21081">
        <ele>15.1</ele>
        <time>2022-02-02T13:15:30Z</time>
      </trkpt>
      <trkpt lat="49.93086" lon="2.21083">
        <ele>15.1</ele>
        <time>2022-02-02T13:15:32Z</time>
      </trkpt>
      <trkpt lat="49.93086" lon="2.21085">
        <ele>15.1</ele>
        <time>2022-02-02T13:15:33Z</time>
      </trkpt>
      <trkpt lat="49.93085" lon="2.21086">
        <ele>15.1</ele>
        <time>2022-02-02T13:15:34Z</time>
      </trkpt>
      <trkpt lat="49.93085" lon="2.21088">
        <ele>15.1</ele>
        <time>2022-02-02T13:15:35Z</time>
      </trkpt>
      <trkpt lat="49.93084" lon="2.21089">
        <ele>15.1</ele>
        <time>2022-02-02T13:15:36Z</time>
      </trkpt>
      <trkpt lat="49.93083" lon="2.21092">
        <ele>15.1</ele>
        <time>2022-02-02T13:15:38Z</time>
      </trkpt>
      <trkpt lat="49.93082" lon="2.21094">
        <ele>15.1</ele>
        <time>2022-02-02T13:15:39Z</time>
      </trkpt>
      <trkpt lat="49.93082" lon="2.21096">
        <ele>15</ele>
        <time>2022-02-02T13:15:40Z</time>
      </trkpt>
      <trkpt lat="49.9308" lon="2.21099">
        <ele>15</ele>
        <time>2022-02-02T13:15:41Z</time>
      </trkpt>
      <trkpt lat="49.9308" lon="2.211">
        <ele>15</ele>
        <time>2022-02-02T13:15:42Z</time>
      </trkpt>
      <trkpt lat="49.93079" lon="2.21101">
        <ele>15</ele>
        <time>2022-02-02T13:15:43Z</time>
      </trkpt>
      <trkpt lat="49.93078" lon="2.21103">
        <ele>15</ele>
        <time>2022-02-02T13:15:44Z</time>
      </trkpt>
      <trkpt lat="49.93077" lon="2.21105">
        <ele>15</ele>
        <time>2022-02-02T13:15:45Z</time>
      </trkpt>
      <trkpt lat="49.93076" lon="2.21107">
        <ele>15</ele>
        <time>2022-02-02T13:15:46Z</time>
      </trkpt>
      <trkpt lat="49.93076" lon="2.21109">
        <ele>15</ele>
        <time>2022-02-02T13:15:47Z</time>
      </trkpt>
      <trkpt lat="49.93074" lon="2.21111">
        <ele>15</ele>
        <time>2022-02-02T13:15:48Z</time>
      </trkpt>
      <trkpt lat="49.93074" lon="2.21113">
        <ele>15</ele>
        <time>2022-02-02T13:15:50Z</time>
      </trkpt>
      <trkpt lat="49.93074" lon="2.21114">
        <ele>14.9</ele>
        <time>2022-02-02T13:15:51Z</time>
      </trkpt>
      <trkpt lat="49.93073" lon="2.21117">
        <ele>14.9</ele>
        <time>2022-02-02T13:15:52Z</time>
      </trkpt>
      <trkpt lat="49.93072" lon="2.21118">
        <ele>14.9</ele>
        <time>2022-02-02T13:15:53Z</time>
      </trkpt>
      <trkpt lat="49.93072" lon="2.21119">
        <ele>14.9</ele>
        <time>2022-02-02T13:15:54Z</time>
      </trkpt>
      <trkpt lat="49.93072" lon="2.21121">
        <ele>14.9</ele>
        <time>2022-02-02T13:15:55Z</time>
      </trkpt>
      <trkpt lat="49.93071" lon="2.21123">
        <ele>14.9</ele>
        <time>2022-02-02T13:15:57Z</time>
      </trkpt>
      <trkpt lat="49.93071" lon="2.21124">
        <ele>14.9</ele>
        <time>2022-02-02T13:15:58Z</time>
      </trkpt>
      <trkpt lat="49.9307" lon="2.21126">
        <ele>14.9</ele>
        <time>2022-02-02T13:15:59Z</time>
      </trkpt>
      <trkpt lat="49.9307" lon="2.21127">
        <ele>14.9</ele>
        <time>2022-02-02T13:16:00Z</time>
      </trkpt>
      <trkpt lat="49.9307" lon="2.21129">
        <ele>14.8</ele>
        <time>2022-02-02T13:16:01Z</time>
      </trkpt>
      <trkpt lat="49.9307" lon="2.2113">
        <ele>14.8</ele>
        <time>2022-02-02T13:16:02Z</time>
      </trkpt>
      <trkpt lat="49.9307" lon="2.21132">
        <ele>14.8</ele>
        <time>2022-02-02T13:16:04Z</time>
      </trkpt>
      <trkpt lat="49.93069" lon="2.21133">
        <ele>14.8</ele>
        <time>2022-02-02T13:16:05Z</time>
      </trkpt>
      <trkpt lat="49.93069" lon="2.21135">
        <ele>14.8</ele>
        <time>2022-02-02T13:16:07Z</time>
      </trkpt>
      <trkpt lat="49.93069" lon="2.21136">
        <ele>14.8</ele>
        <time>2022-02-02T13:16:08Z</time>
      </trkpt>
      <trkpt lat="49.93069" lon="2.21136">
        <ele>14.8</ele>
        <time>2022-02-02T13:16:09Z</time>
      </trkpt>
      <trkpt lat="49.93068" lon="2.21137">
        <ele>14.8</ele>
        <time>2022-02-02T13:16:10Z</time>
      </trkpt>
      <trkpt lat="49.93068" lon="2.21137">
        <ele>14.8</ele>
        <time>2022-02-02T13:16:11Z</time>
      </trkpt>
      <trkpt lat="49.93068" lon="2.21138">
        <ele>14.8</ele>
        <time>2022-02-02T13:16:12Z</time>
      </trkpt>
      <trkpt lat="49.93067" lon="2.21139">
        <ele>14.8</ele>
        <time>2022-02-02T13:16:13Z</time>
      </trkpt>
      <trkpt lat="49.93067" lon="2.21139">
        <ele>14.8</ele>
        <time>2022-02-02T13:16:14Z</time>
      </trkpt>
      <trkpt lat="49.93066" lon="2.2114">
        <ele>14.8</ele>
        <time>2022-02-02T13:16:15Z</time>
      </trkpt>
      <trkpt lat="49.93066" lon="2.2114">
        <ele>14.8</ele>
        <time>2022-02-02T13:16:16Z</time>
      </trkpt>
      <trkpt lat="49.93066" lon="2.2114">
        <ele>14.8</ele>
        <time>2022-02-02T13:16:17Z</time>
      </trkpt>
      <trkpt lat="49.93066" lon="2.2114">
        <ele>14.8</ele>
        <time>2022-02-02T13:16:18Z</time>
      </trkpt>
      <trkpt lat="49.93066" lon="2.21139">
        <ele>14.8</ele>
        <time>2022-02-02T13:16:19Z</time>
      </trkpt>
      <trkpt lat="49.93066" lon="2.21139">
        <ele>14.8</ele>
        <time>2022-02-02T13:16:20Z</time>
      </trkpt>
      <trkpt lat="49.93066" lon="2.21139">
        <ele>14.8</ele>
        <time>2022-02-02T13:16:21Z</time>
      </trkpt>
      <trkpt lat="49.93066" lon="2.21139">
        <ele>14.8</ele>
        <time>2022-02-02T13:16:22Z</time>
      </trkpt>
      <trkpt lat="49.93067" lon="2.21138">
        <ele>14.8</ele>
        <time>2022-02-02T13:16:23Z</time>
      </trkpt>
      <trkpt lat="49.93067" lon="2.21138">
        <ele>14.7</ele>
        <time>2022-02-02T13:16:24Z</time>
      </trkpt>
      <trkpt lat="49.93067" lon="2.21138">
        <ele>14.7</ele>
        <time>2022-02-02T13:16:25Z</time>
      </trkpt>
      <trkpt lat="49.93067" lon="2.21138">
        <ele>14.7</ele>
        <time>2022-02-02T13:16:26Z</time>
      </trkpt>
      <trkpt lat="49.93067" lon="2.21137">
        <ele>14.7</ele>
        <time>2022-02-02T13:16:27Z</time>
      </trkpt>
      <trkpt lat="49.93067" lon="2.21137">
        <ele>14.7</ele>
        <time>2022-02-02T13:16:28Z</time>
      </trkpt>
      <trkpt lat="49.93067" lon="2.21137">
        <ele>14.7</ele>
        <time>2022-02-02T13:16:29Z</time>
      </trkpt>
      <trkpt lat="49.93068" lon="2.21137">
        <ele>14.7</ele>
        <time>2022-02-02T13:16:30Z</time>
      </trkpt>
      <trkpt lat="49.93068" lon="2.21136">
        <ele>14.7</ele>
        <time>2022-02-02T13:16:31Z</time>
      </trkpt>
      <trkpt lat="49.93068" lon="2.21136">
        <ele>14.7</ele>
        <time>2022-02-02T13:16:32Z</time>
      </trkpt>
      <trkpt lat="49.93068" lon="2.21136">
        <ele>14.7</ele>
        <time>2022-02-02T13:16:33Z</time>
      </trkpt>
      <trkpt lat="49.93068" lon="2.21136">
        <ele>14.7</ele>
        <time>2022-02-02T13:16:34Z</time>
      </trkpt>
      <trkpt lat="49.93068" lon="2.21136">
        <ele>14.7</ele>
        <time>2022-02-02T13:16:35Z</time>
      </trkpt>
      <trkpt lat="49.93068" lon="2.21135">
        <ele>14.7</ele>
        <time>2022-02-02T13:16:36Z</time>
      </trkpt>
      <trkpt lat="49.93068" lon="2.21135">
        <ele>14.7</ele>
        <time>2022-02-02T13:16:37Z</time>
      </trkpt>
      <trkpt lat="49.9307" lon="2.21133">
        <ele>14.7</ele>
        <time>2022-02-02T13:16:38Z</time>
      </trkpt>
      <trkpt lat="49.93068" lon="2.21136">
        <ele>14.7</ele>
        <time>2022-02-02T13:16:39Z</time>
      </trkpt>
      <trkpt lat="49.93068" lon="2.21136">
        <ele>14.7</ele>
        <time>2022-02-02T13:16:40Z</time>
      </trkpt>
      <trkpt lat="49.93068" lon="2.21134">
        <ele>14.7</ele>
        <time>2022-02-02T13:16:41Z</time>
      </trkpt>
      <trkpt lat="49.93068" lon="2.21133">
        <ele>14.7</ele>
        <time>2022-02-02T13:16:42Z</time>
      </trkpt>
      <trkpt lat="49.93069" lon="2.21132">
        <ele>14.7</ele>
        <time>2022-02-02T13:16:43Z</time>
      </trkpt>
      <trkpt lat="49.93069" lon="2.21132">
        <ele>14.6</ele>
        <time>2022-02-02T13:16:44Z</time>
      </trkpt>
      <trkpt lat="49.9307" lon="2.21132">
        <ele>14.6</ele>
        <time>2022-02-02T13:16:45Z</time>
      </trkpt>
      <trkpt lat="49.9307" lon="2.21131">
        <ele>14.6</ele>
        <time>2022-02-02T13:16:46Z</time>
      </trkpt>
      <trkpt lat="49.9307" lon="2.21131">
        <ele>14.6</ele>
        <time>2022-02-02T13:16:47Z</time>
      </trkpt>
      <trkpt lat="49.9307" lon="2.21131">
        <ele>14.6</ele>
        <time>2022-02-02T13:16:48Z</time>
      </trkpt>
      <trkpt lat="49.9307" lon="2.2113">
        <ele>14.6</ele>
        <time>2022-02-02T13:16:49Z</time>
      </trkpt>
      <trkpt lat="49.9307" lon="2.2113">
        <ele>14.6</ele>
        <time>2022-02-02T13:16:50Z</time>
      </trkpt>
      <trkpt lat="49.9307" lon="2.2113">
        <ele>14.6</ele>
        <time>2022-02-02T13:16:51Z</time>
      </trkpt>
      <trkpt lat="49.9307" lon="2.2113">
        <ele>14.6</ele>
        <time>2022-02-02T13:16:52Z</time>
      </trkpt>
      <trkpt lat="49.9307" lon="2.2113">
        <ele>14.6</ele>
        <time>2022-02-02T13:16:53Z</time>
      </trkpt>
      <trkpt lat="49.9307" lon="2.2113">
        <ele>14.6</ele>
        <time>2022-02-02T13:16:54Z</time>
      </trkpt>
      <trkpt lat="49.9307" lon="2.21131">
        <ele>14.6</ele>
        <time>2022-02-02T13:16:55Z</time>
      </trkpt>
      <trkpt lat="49.9307" lon="2.21131">
        <ele>14.6</ele>
        <time>2022-02-02T13:16:56Z</time>
      </trkpt>
      <trkpt lat="49.9307" lon="2.21131">
        <ele>14.6</ele>
        <time>2022-02-02T13:16:57Z</time>
      </trkpt>
      <trkpt lat="49.93069" lon="2.21132">
        <ele>14.6</ele>
        <time>2022-02-02T13:16:58Z</time>
      </trkpt>
      <trkpt lat="49.93069" lon="2.21133">
        <ele>14.6</ele>
        <time>2022-02-02T13:16:59Z</time>
      </trkpt>
      <trkpt lat="49.93069" lon="2.21135">
        <ele>14.6</ele>
        <time>2022-02-02T13:17:00Z</time>
      </trkpt>
      <trkpt lat="49.93069" lon="2.21137">
        <ele>14.6</ele>
        <time>2022-02-02T13:17:02Z</time>
      </trkpt>
      <trkpt lat="49.93069" lon="2.21139">
        <ele>14.6</ele>
        <time>2022-02-02T13:17:03Z</time>
      </trkpt>
      <trkpt lat="49.93069" lon="2.2114">
        <ele>14.6</ele>
        <time>2022-02-02T13:17:04Z</time>
      </trkpt>
      <trkpt lat="49.93069" lon="2.21142">
        <ele>14.6</ele>
        <time>2022-02-02T13:17:05Z</time>
      </trkpt>
      <trkpt lat="49.93069" lon="2.21145">
        <ele>14.5</ele>
        <time>2022-02-02T13:17:06Z</time>
      </trkpt>
      <trkpt lat="49.93069" lon="2.21146">
        <ele>14.5</ele>
        <time>2022-02-02T13:17:08Z</time>
      </trkpt>
      <trkpt lat="49.93069" lon="2.21148">
        <ele>14.5</ele>
        <time>2022-02-02T13:17:09Z</time>
      </trkpt>
      <trkpt lat="49.93069" lon="2.21149">
        <ele>14.5</ele>
        <time>2022-02-02T13:17:10Z</time>
      </trkpt>
      <trkpt lat="49.93068" lon="2.21149">
        <ele>14.5</ele>
        <time>2022-02-02T13:17:11Z</time>
      </trkpt>
      <trkpt lat="49.93068" lon="2.2115">
        <ele>14.5</ele>
        <time>2022-02-02T13:17:12Z</time>
      </trkpt>
      <trkpt lat="49.93067" lon="2.2115">
        <ele>14.5</ele>
        <time>2022-02-02T13:17:13Z</time>
      </trkpt>
      <trkpt lat="49.93066" lon="2.21151">
        <ele>14.5</ele>
        <time>2022-02-02T13:17:15Z</time>
      </trkpt>
      <trkpt lat="49.93066" lon="2.21152">
        <ele>14.5</ele>
        <time>2022-02-02T13:17:16Z</time>
      </trkpt>
      <trkpt lat="49.93066" lon="2.21153">
        <ele>14.5</ele>
        <time>2022-02-02T13:17:17Z</time>
      </trkpt>
      <trkpt lat="49.93066" lon="2.21154">
        <ele>14.5</ele>
        <time>2022-02-02T13:17:18Z</time>
      </trkpt>
      <trkpt lat="49.93067" lon="2.21155">
        <ele>14.5</ele>
        <time>2022-02-02T13:17:19Z</time>
      </trkpt>
      <trkpt lat="49.93068" lon="2.21156">
        <ele>14.5</ele>
        <time>2022-02-02T13:17:20Z</time>
      </trkpt>
      <trkpt lat="49.93069" lon="2.21158">
        <ele>14.5</ele>
        <time>2022-02-02T13:17:21Z</time>
      </trkpt>
      <trkpt lat="49.93069" lon="2.2116">
        <ele>14.5</ele>
        <time>2022-02-02T13:17:23Z</time>
      </trkpt>
      <trkpt lat="49.93069" lon="2.21162">
        <ele>14.4</ele>
        <time>2022-02-02T13:17:24Z</time>
      </trkpt>
      <trkpt lat="49.93069" lon="2.21164">
        <ele>14.4</ele>
        <time>2022-02-02T13:17:25Z</time>
      </trkpt>
      <trkpt lat="49.93069" lon="2.21166">
        <ele>14.4</ele>
        <time>2022-02-02T13:17:26Z</time>
      </trkpt>
      <trkpt lat="49.93069" lon="2.21168">
        <ele>14.4</ele>
        <time>2022-02-02T13:17:27Z</time>
      </trkpt>
      <trkpt lat="49.93069" lon="2.2117">
        <ele>14.4</ele>
        <time>2022-02-02T13:17:28Z</time>
      </trkpt>
      <trkpt lat="49.9307" lon="2.21172">
        <ele>14.4</ele>
        <time>2022-02-02T13:17:29Z</time>
      </trkpt>
      <trkpt lat="49.9307" lon="2.21174">
        <ele>14.4</ele>
        <time>2022-02-02T13:17:31Z</time>
      </trkpt>
      <trkpt lat="49.93069" lon="2.21175">
        <ele>14.4</ele>
        <time>2022-02-02T13:17:32Z</time>
      </trkpt>
      <trkpt lat="49.93069" lon="2.21177">
        <ele>14.4</ele>
        <time>2022-02-02T13:17:33Z</time>
      </trkpt>
      <trkpt lat="49.93069" lon="2.21178">
        <ele>14.4</ele>
        <time>2022-02-02T13:17:34Z</time>
      </trkpt>
      <trkpt lat="49.93069" lon="2.21179">
        <ele>14.4</ele>
        <time>2022-02-02T13:17:35Z</time>
      </trkpt>
      <trkpt lat="49.93068" lon="2.2118">
        <ele>14.4</ele>
        <time>2022-02-02T13:17:36Z</time>
      </trkpt>
      <trkpt lat="49.93068" lon="2.21182">
        <ele>14.4</ele>
        <time>2022-02-02T13:17:37Z</time>
      </trkpt>
      <trkpt lat="49.93068" lon="2.21183">
        <ele>14.4</ele>
        <time>2022-02-02T13:17:39Z</time>
      </trkpt>
      <trkpt lat="49.93068" lon="2.21184">
        <ele>14.4</ele>
        <time>2022-02-02T13:17:40Z</time>
      </trkpt>
      <trkpt lat="49.93068" lon="2.21185">
        <ele>14.4</ele>
        <time>2022-02-02T13:17:41Z</time>
      </trkpt>
      <trkpt lat="49.93068" lon="2.21186">
        <ele>14.3</ele>
        <time>2022-02-02T13:17:42Z</time>
      </trkpt>
      <trkpt lat="49.93068" lon="2.21188">
        <ele>14.3</ele>
        <time>2022-02-02T13:17:43Z</time>
      </trkpt>
      <trkpt lat="49.93068" lon="2.2119">
        <ele>14.3</ele>
        <time>2022-02-02T13:17:45Z</time>
      </trkpt>
      <trkpt lat="49.93069" lon="2.21193">
        <ele>14.3</ele>
        <time>2022-02-02T13:17:46Z</time>
      </trkpt>
      <trkpt lat="49.93069" lon="2.21195">
        <ele>14.3</ele>
        <time>2022-02-02T13:17:47Z</time>
      </trkpt>
      <trkpt lat="49.93069" lon="2.21196">
        <ele>14.3</ele>
        <time>2022-02-02T13:17:48Z</time>
      </trkpt>
      <trkpt lat="49.93069" lon="2.21198">
        <ele>14.3</ele>
        <time>2022-02-02T13:17:49Z</time>
      </trkpt>
      <trkpt lat="49.93069" lon="2.212">
        <ele>14.3</ele>
        <time>2022-02-02T13:17:50Z</time>
      </trkpt>
      <trkpt lat="49.9307" lon="2.21202">
        <ele>14.3</ele>
        <time>2022-02-02T13:17:51Z</time>
      </trkpt>
      <trkpt lat="49.9307" lon="2.21205">
        <ele>14.3</ele>
        <time>2022-02-02T13:17:52Z</time>
      </trkpt>
      <trkpt lat="49.9307" lon="2.21207">
        <ele>14.3</ele>
        <time>2022-02-02T13:17:54Z</time>
      </trkpt>
      <trkpt lat="49.9307" lon="2.21209">
        <ele>14.3</ele>
        <time>2022-02-02T13:17:55Z</time>
      </trkpt>
      <trkpt lat="49.9307" lon="2.21212">
        <ele>14.2</ele>
        <time>2022-02-02T13:17:56Z</time>
      </trkpt>
      <trkpt lat="49.93071" lon="2.21214">
        <ele>14.2</ele>
        <time>2022-02-02T13:17:57Z</time>
      </trkpt>
      <trkpt lat="49.93071" lon="2.21217">
        <ele>14.2</ele>
        <time>2022-02-02T13:17:58Z</time>
      </trkpt>
      <trkpt lat="49.93072" lon="2.21219">
        <ele>14.2</ele>
        <time>2022-02-02T13:17:59Z</time>
      </trkpt>
      <trkpt lat="49.93072" lon="2.21221">
        <ele>14.2</ele>
        <time>2022-02-02T13:18:00Z</time>
      </trkpt>
      <trkpt lat="49.93072" lon="2.21224">
        <ele>14.2</ele>
        <time>2022-02-02T13:18:01Z</time>
      </trkpt>
      <trkpt lat="49.93072" lon="2.21226">
        <ele>14.2</ele>
        <time>2022-02-02T13:18:02Z</time>
      </trkpt>
      <trkpt lat="49.93073" lon="2.21229">
        <ele>14.2</ele>
        <time>2022-02-02T13:18:03Z</time>
      </trkpt>
      <trkpt lat="49.93073" lon="2.21231">
        <ele>14.1</ele>
        <time>2022-02-02T13:18:05Z</time>
      </trkpt>
      <trkpt lat="49.93073" lon="2.21232">
        <ele>14.1</ele>
        <time>2022-02-02T13:18:06Z</time>
      </trkpt>
      <trkpt lat="49.93073" lon="2.21234">
        <ele>14.1</ele>
        <time>2022-02-02T13:18:07Z</time>
      </trkpt>
      <trkpt lat="49.93074" lon="2.21236">
        <ele>14.1</ele>
        <time>2022-02-02T13:18:08Z</time>
      </trkpt>
      <trkpt lat="49.93074" lon="2.21239">
        <ele>14.1</ele>
        <time>2022-02-02T13:18:09Z</time>
      </trkpt>
      <trkpt lat="49.93074" lon="2.21241">
        <ele>14.1</ele>
        <time>2022-02-02T13:18:10Z</time>
      </trkpt>
      <trkpt lat="49.93074" lon="2.21243">
        <ele>14.1</ele>
        <time>2022-02-02T13:18:11Z</time>
      </trkpt>
      <trkpt lat="49.93074" lon="2.21245">
        <ele>14.1</ele>
        <time>2022-02-02T13:18:12Z</time>
      </trkpt>
      <trkpt lat="49.93073" lon="2.21247">
        <ele>14.1</ele>
        <time>2022-02-02T13:18:13Z</time>
      </trkpt>
      <trkpt lat="49.93073" lon="2.21249">
        <ele>14</ele>
        <time>2022-02-02T13:18:14Z</time>
      </trkpt>
      <trkpt lat="49.93073" lon="2.21252">
        <ele>14</ele>
        <time>2022-02-02T13:18:16Z</time>
      </trkpt>
      <trkpt lat="49.93073" lon="2.21255">
        <ele>14</ele>
        <time>2022-02-02T13:18:17Z</time>
      </trkpt>
      <trkpt lat="49.93073" lon="2.21257">
        <ele>14</ele>
        <time>2022-02-02T13:18:18Z</time>
      </trkpt>
      <trkpt lat="49.93073" lon="2.21258">
        <ele>14</ele>
        <time>2022-02-02T13:18:19Z</time>
      </trkpt>
      <trkpt lat="49.93073" lon="2.2126">
        <ele>14</ele>
        <time>2022-02-02T13:18:20Z</time>
      </trkpt>
      <trkpt lat="49.93072" lon="2.21262">
        <ele>14</ele>
        <time>2022-02-02T13:18:21Z</time>
      </trkpt>
      <trkpt lat="49.93072" lon="2.21265">
        <ele>14</ele>
        <time>2022-02-02T13:18:22Z</time>
      </trkpt>
      <trkpt lat="49.93071" lon="2.21267">
        <ele>14</ele>
        <time>2022-02-02T13:18:23Z</time>
      </trkpt>
      <trkpt lat="49.93071" lon="2.2127">
        <ele>14</ele>
        <time>2022-02-02T13:18:24Z</time>
      </trkpt>
      <trkpt lat="49.9307" lon="2.21272">
        <ele>14</ele>
        <time>2022-02-02T13:18:25Z</time>
      </trkpt>
      <trkpt lat="49.9307" lon="2.21274">
        <ele>13.9</ele>
        <time>2022-02-02T13:18:26Z</time>
      </trkpt>
      <trkpt lat="49.93069" lon="2.21276">
        <ele>13.9</ele>
        <time>2022-02-02T13:18:27Z</time>
      </trkpt>
      <trkpt lat="49.93069" lon="2.21279">
        <ele>13.9</ele>
        <time>2022-02-02T13:18:29Z</time>
      </trkpt>
      <trkpt lat="49.93069" lon="2.2128">
        <ele>13.9</ele>
        <time>2022-02-02T13:18:30Z</time>
      </trkpt>
      <trkpt lat="49.93068" lon="2.21282">
        <ele>13.9</ele>
        <time>2022-02-02T13:18:31Z</time>
      </trkpt>
      <trkpt lat="49.93068" lon="2.21284">
        <ele>13.9</ele>
        <time>2022-02-02T13:18:32Z</time>
      </trkpt>
      <trkpt lat="49.93068" lon="2.21286">
        <ele>13.9</ele>
        <time>2022-02-02T13:18:33Z</time>
      </trkpt>
      <trkpt lat="49.93067" lon="2.21289">
        <ele>13.9</ele>
        <time>2022-02-02T13:18:34Z</time>
      </trkpt>
      <trkpt lat="49.93067" lon="2.21291">
        <ele>13.9</ele>
        <time>2022-02-02T13:18:35Z</time>
      </trkpt>
      <trkpt lat="49.93066" lon="2.21294">
        <ele>13.9</ele>
        <time>2022-02-02T13:18:36Z</time>
      </trkpt>
      <trkpt lat="49.93066" lon="2.21296">
        <ele>13.9</ele>
        <time>2022-02-02T13:18:37Z</time>
      </trkpt>
      <trkpt lat="49.93065" lon="2.21298">
        <ele>13.9</ele>
        <time>2022-02-02T13:18:38Z</time>
      </trkpt>
      <trkpt lat="49.93065" lon="2.213">
        <ele>13.9</ele>
        <time>2022-02-02T13:18:40Z</time>
      </trkpt>
      <trkpt lat="49.93064" lon="2.21303">
        <ele>13.9</ele>
        <time>2022-02-02T13:18:41Z</time>
      </trkpt>
      <trkpt lat="49.93064" lon="2.21304">
        <ele>13.9</ele>
        <time>2022-02-02T13:18:42Z</time>
      </trkpt>
      <trkpt lat="49.93064" lon="2.21306">
        <ele>13.9</ele>
        <time>2022-02-02T13:18:43Z</time>
      </trkpt>
      <trkpt lat="49.93063" lon="2.21309">
        <ele>13.9</ele>
        <time>2022-02-02T13:18:44Z</time>
      </trkpt>
      <trkpt lat="49.93063" lon="2.21311">
        <ele>13.9</ele>
        <time>2022-02-02T13:18:45Z</time>
      </trkpt>
      <trkpt lat="49.93063" lon="2.21313">
        <ele>13.9</ele>
        <time>2022-02-02T13:18:46Z</time>
      </trkpt>
      <trkpt lat="49.93062" lon="2.21317">
        <ele>13.9</ele>
        <time>2022-02-02T13:18:47Z</time>
      </trkpt>
      <trkpt lat="49.93062" lon="2.21318">
        <ele>13.9</ele>
        <time>2022-02-02T13:18:48Z</time>
      </trkpt>
      <trkpt lat="49.93061" lon="2.21319">
        <ele>13.9</ele>
        <time>2022-02-02T13:18:49Z</time>
      </trkpt>
      <trkpt lat="49.93061" lon="2.2132">
        <ele>13.9</ele>
        <time>2022-02-02T13:18:50Z</time>
      </trkpt>
      <trkpt lat="49.93061" lon="2.21322">
        <ele>13.9</ele>
        <time>2022-02-02T13:18:52Z</time>
      </trkpt>
      <trkpt lat="49.9306" lon="2.21324">
        <ele>13.9</ele>
        <time>2022-02-02T13:18:53Z</time>
      </trkpt>
      <trkpt lat="49.9306" lon="2.21327">
        <ele>13.9</ele>
        <time>2022-02-02T13:18:54Z</time>
      </trkpt>
      <trkpt lat="49.93059" lon="2.21328">
        <ele>13.9</ele>
        <time>2022-02-02T13:18:55Z</time>
      </trkpt>
      <trkpt lat="49.93059" lon="2.21329">
        <ele>13.9</ele>
        <time>2022-02-02T13:18:56Z</time>
      </trkpt>
      <trkpt lat="49.93059" lon="2.21332">
        <ele>13.9</ele>
        <time>2022-02-02T13:18:57Z</time>
      </trkpt>
      <trkpt lat="49.93058" lon="2.21334">
        <ele>13.9</ele>
        <time>2022-02-02T13:18:58Z</time>
      </trkpt>
      <trkpt lat="49.93058" lon="2.21336">
        <ele>13.9</ele>
        <time>2022-02-02T13:18:59Z</time>
      </trkpt>
      <trkpt lat="49.93057" lon="2.21337">
        <ele>13.9</ele>
        <time>2022-02-02T13:19:00Z</time>
      </trkpt>
      <trkpt lat="49.93057" lon="2.21339">
        <ele>13.9</ele>
        <time>2022-02-02T13:19:02Z</time>
      </trkpt>
      <trkpt lat="49.93056" lon="2.21342">
        <ele>13.9</ele>
        <time>2022-02-02T13:19:03Z</time>
      </trkpt>
      <trkpt lat="49.93056" lon="2.21344">
        <ele>13.9</ele>
        <time>2022-02-02T13:19:04Z</time>
      </trkpt>
      <trkpt lat="49.93056" lon="2.21345">
        <ele>13.9</ele>
        <time>2022-02-02T13:19:05Z</time>
      </trkpt>
      <trkpt lat="49.93055" lon="2.21347">
        <ele>13.9</ele>
        <time>2022-02-02T13:19:06Z</time>
      </trkpt>
      <trkpt lat="49.93055" lon="2.21349">
        <ele>13.9</ele>
        <time>2022-02-02T13:19:07Z</time>
      </trkpt>
      <trkpt lat="49.93055" lon="2.2135">
        <ele>13.9</ele>
        <time>2022-02-02T13:19:08Z</time>
      </trkpt>
      <trkpt lat="49.93055" lon="2.21354">
        <ele>13.9</ele>
        <time>2022-02-02T13:19:10Z</time>
      </trkpt>
      <trkpt lat="49.93055" lon="2.21355">
        <ele>13.9</ele>
        <time>2022-02-02T13:19:11Z</time>
      </trkpt>
      <trkpt lat="49.93055" lon="2.21357">
        <ele>13.9</ele>
        <time>2022-02-02T13:19:12Z</time>
      </trkpt>
      <trkpt lat="49.93055" lon="2.2136">
        <ele>13.8</ele>
        <time>2022-02-02T13:19:13Z</time>
      </trkpt>
      <trkpt lat="49.93055" lon="2.21361">
        <ele>13.8</ele>
        <time>2022-02-02T13:19:14Z</time>
      </trkpt>
      <trkpt lat="49.93055" lon="2.21363">
        <ele>13.9</ele>
        <time>2022-02-02T13:19:15Z</time>
      </trkpt>
      <trkpt lat="49.93055" lon="2.21365">
        <ele>13.9</ele>
        <time>2022-02-02T13:19:16Z</time>
      </trkpt>
      <trkpt lat="49.93055" lon="2.21366">
        <ele>14</ele>
        <time>2022-02-02T13:19:18Z</time>
      </trkpt>
      <trkpt lat="49.93056" lon="2.21368">
        <ele>14</ele>
        <time>2022-02-02T13:19:19Z</time>
      </trkpt>
      <trkpt lat="49.93056" lon="2.21371">
        <ele>14.2</ele>
        <time>2022-02-02T13:19:20Z</time>
      </trkpt>
      <trkpt lat="49.93057" lon="2.21373">
        <ele>14.2</ele>
        <time>2022-02-02T13:19:21Z</time>
      </trkpt>
      <trkpt lat="49.93057" lon="2.21374">
        <ele>14.2</ele>
        <time>2022-02-02T13:19:22Z</time>
      </trkpt>
      <trkpt lat="49.93057" lon="2.21376">
        <ele>14.3</ele>
        <time>2022-02-02T13:19:23Z</time>
      </trkpt>
      <trkpt lat="49.93058" lon="2.21378">
        <ele>14.2</ele>
        <time>2022-02-02T13:19:24Z</time>
      </trkpt>
      <trkpt lat="49.93058" lon="2.21379">
        <ele>14.3</ele>
        <time>2022-02-02T13:19:26Z</time>
      </trkpt>
      <trkpt lat="49.93059" lon="2.21382">
        <ele>14.4</ele>
        <time>2022-02-02T13:19:27Z</time>
      </trkpt>
      <trkpt lat="49.93059" lon="2.21383">
        <ele>14.4</ele>
        <time>2022-02-02T13:19:28Z</time>
      </trkpt>
      <trkpt lat="49.9306" lon="2.21385">
        <ele>14.4</ele>
        <time>2022-02-02T13:19:29Z</time>
      </trkpt>
      <trkpt lat="49.93061" lon="2.21386">
        <ele>14.4</ele>
        <time>2022-02-02T13:19:30Z</time>
      </trkpt>
      <trkpt lat="49.93061" lon="2.21387">
        <ele>14.4</ele>
        <time>2022-02-02T13:19:31Z</time>
      </trkpt>
      <trkpt lat="49.93062" lon="2.21389">
        <ele>14.5</ele>
        <time>2022-02-02T13:19:32Z</time>
      </trkpt>
      <trkpt lat="49.93063" lon="2.2139">
        <ele>14.5</ele>
        <time>2022-02-02T13:19:34Z</time>
      </trkpt>
      <trkpt lat="49.93064" lon="2.21391">
        <ele>14.4</ele>
        <time>2022-02-02T13:19:35Z</time>
      </trkpt>
      <trkpt lat="49.93065" lon="2.21392">
        <ele>14.5</ele>
        <time>2022-02-02T13:19:36Z</time>
      </trkpt>
      <trkpt lat="49.93066" lon="2.21392">
        <ele>14.5</ele>
        <time>2022-02-02T13:19:37Z</time>
      </trkpt>
      <trkpt lat="49.93067" lon="2.21393">
        <ele>14.5</ele>
        <time>2022-02-02T13:19:38Z</time>
      </trkpt>
      <trkpt lat="49.93068" lon="2.21394">
        <ele>14.6</ele>
        <time>2022-02-02T13:19:39Z</time>
      </trkpt>
      <trkpt lat="49.93069" lon="2.21396">
        <ele>14.5</ele>
        <time>2022-02-02T13:19:40Z</time>
      </trkpt>
      <trkpt lat="49.93069" lon="2.21396">
        <ele>14.6</ele>
        <time>2022-02-02T13:19:41Z</time>
      </trkpt>
      <trkpt lat="49.9307" lon="2.21397">
        <ele>14.6</ele>
        <time>2022-02-02T13:19:42Z</time>
      </trkpt>
      <trkpt lat="49.93071" lon="2.21398">
        <ele>14.6</ele>
        <time>2022-02-02T13:19:43Z</time>
      </trkpt>
      <trkpt lat="49.93072" lon="2.21399">
        <ele>14.6</ele>
        <time>2022-02-02T13:19:45Z</time>
      </trkpt>
      <trkpt lat="49.93073" lon="2.21401">
        <ele>14.7</ele>
        <time>2022-02-02T13:19:46Z</time>
      </trkpt>
      <trkpt lat="49.93074" lon="2.21402">
        <ele>14.7</ele>
        <time>2022-02-02T13:19:47Z</time>
      </trkpt>
      <trkpt lat="49.93074" lon="2.21404">
        <ele>14.6</ele>
        <time>2022-02-02T13:19:48Z</time>
      </trkpt>
      <trkpt lat="49.93075" lon="2.21406">
        <ele>14.7</ele>
        <time>2022-02-02T13:19:49Z</time>
      </trkpt>
      <trkpt lat="49.93076" lon="2.21408">
        <ele>14.7</ele>
        <time>2022-02-02T13:19:50Z</time>
      </trkpt>
      <trkpt lat="49.93076" lon="2.21409">
        <ele>14.7</ele>
        <time>2022-02-02T13:19:51Z</time>
      </trkpt>
      <trkpt lat="49.93077" lon="2.21411">
        <ele>14.7</ele>
        <time>2022-02-02T13:19:52Z</time>
      </trkpt>
      <trkpt lat="49.93078" lon="2.21412">
        <ele>14.7</ele>
        <time>2022-02-02T13:19:53Z</time>
      </trkpt>
      <trkpt lat="49.93078" lon="2.21414">
        <ele>14.7</ele>
        <time>2022-02-02T13:19:54Z</time>
      </trkpt>
      <trkpt lat="49.93079" lon="2.21415">
        <ele>14.8</ele>
        <time>2022-02-02T13:19:55Z</time>
      </trkpt>
      <trkpt lat="49.9308" lon="2.21418">
        <ele>14.8</ele>
        <time>2022-02-02T13:19:56Z</time>
      </trkpt>
      <trkpt lat="49.9308" lon="2.21419">
        <ele>14.8</ele>
        <time>2022-02-02T13:19:58Z</time>
      </trkpt>
      <trkpt lat="49.93081" lon="2.2142">
        <ele>14.8</ele>
        <time>2022-02-02T13:19:59Z</time>
      </trkpt>
      <trkpt lat="49.93082" lon="2.21423">
        <ele>14.9</ele>
        <time>2022-02-02T13:20:00Z</time>
      </trkpt>
      <trkpt lat="49.93083" lon="2.21424">
        <ele>14.9</ele>
        <time>2022-02-02T13:20:01Z</time>
      </trkpt>
      <trkpt lat="49.93083" lon="2.21425">
        <ele>14.9</ele>
        <time>2022-02-02T13:20:02Z</time>
      </trkpt>
      <trkpt lat="49.93084" lon="2.21426">
        <ele>14.9</ele>
        <time>2022-02-02T13:20:03Z</time>
      </trkpt>
      <trkpt lat="49.93085" lon="2.21428">
        <ele>15</ele>
        <time>2022-02-02T13:20:04Z</time>
      </trkpt>
      <trkpt lat="49.93087" lon="2.21431">
        <ele>15.1</ele>
        <time>2022-02-02T13:20:05Z</time>
      </trkpt>
      <trkpt lat="49.93087" lon="2.21432">
        <ele>15</ele>
        <time>2022-02-02T13:20:06Z</time>
      </trkpt>
      <trkpt lat="49.93088" lon="2.21433">
        <ele>15</ele>
        <time>2022-02-02T13:20:07Z</time>
      </trkpt>
      <trkpt lat="49.93089" lon="2.21435">
        <ele>15</ele>
        <time>2022-02-02T13:20:08Z</time>
      </trkpt>
      <trkpt lat="49.9309" lon="2.21436">
        <ele>15.1</ele>
        <time>2022-02-02T13:20:10Z</time>
      </trkpt>
      <trkpt lat="49.9309" lon="2.21437">
        <ele>15.1</ele>
        <time>2022-02-02T13:20:11Z</time>
      </trkpt>
      <trkpt lat="49.93092" lon="2.21439">
        <ele>15.1</ele>
        <time>2022-02-02T13:20:12Z</time>
      </trkpt>
      <trkpt lat="49.93093" lon="2.2144">
        <ele>15.2</ele>
        <time>2022-02-02T13:20:13Z</time>
      </trkpt>
      <trkpt lat="49.93093" lon="2.2144">
        <ele>15.1</ele>
        <time>2022-02-02T13:20:14Z</time>
      </trkpt>
      <trkpt lat="49.93094" lon="2.21442">
        <ele>15.1</ele>
        <time>2022-02-02T13:20:15Z</time>
      </trkpt>
      <trkpt lat="49.93095" lon="2.21444">
        <ele>15.2</ele>
        <time>2022-02-02T13:20:16Z</time>
      </trkpt>
      <trkpt lat="49.93096" lon="2.21447">
        <ele>15.2</ele>
        <time>2022-02-02T13:20:17Z</time>
      </trkpt>
      <trkpt lat="49.93096" lon="2.21448">
        <ele>15.2</ele>
        <time>2022-02-02T13:20:18Z</time>
      </trkpt>
      <trkpt lat="49.93097" lon="2.2145">
        <ele>15.2</ele>
        <time>2022-02-02T13:20:20Z</time>
      </trkpt>
      <trkpt lat="49.93097" lon="2.21451">
        <ele>15.1</ele>
        <time>2022-02-02T13:20:21Z</time>
      </trkpt>
      <trkpt lat="49.93098" lon="2.21452">
        <ele>15.2</ele>
        <time>2022-02-02T13:20:22Z</time>
      </trkpt>
      <trkpt lat="49.93098" lon="2.21454">
        <ele>15.2</ele>
        <time>2022-02-02T13:20:23Z</time>
      </trkpt>
      <trkpt lat="49.93098" lon="2.21457">
        <ele>15.2</ele>
        <time>2022-02-02T13:20:24Z</time>
      </trkpt>
      <trkpt lat="49.93098" lon="2.21458">
        <ele>15.2</ele>
        <time>2022-02-02T13:20:25Z</time>
      </trkpt>
      <trkpt lat="49.93098" lon="2.2146">
        <ele>15.2</ele>
        <time>2022-02-02T13:20:26Z</time>
      </trkpt>
      <trkpt lat="49.93097" lon="2.21462">
        <ele>15.2</ele>
        <time>2022-02-02T13:20:27Z</time>
      </trkpt>
      <trkpt lat="49.93096" lon="2.21464">
        <ele>15.2</ele>
        <time>2022-02-02T13:20:28Z</time>
      </trkpt>
      <trkpt lat="49.93095" lon="2.21466">
        <ele>15.2</ele>
        <time>2022-02-02T13:20:29Z</time>
      </trkpt>
      <trkpt lat="49.93094" lon="2.21467">
        <ele>15.2</ele>
        <time>2022-02-02T13:20:30Z</time>
      </trkpt>
      <trkpt lat="49.93094" lon="2.21468">
        <ele>15.2</ele>
        <time>2022-02-02T13:20:31Z</time>
      </trkpt>
      <trkpt lat="49.93092" lon="2.2147">
        <ele>15.2</ele>
        <time>2022-02-02T13:20:33Z</time>
      </trkpt>
      <trkpt lat="49.93092" lon="2.21471">
        <ele>15.1</ele>
        <time>2022-02-02T13:20:34Z</time>
      </trkpt>
      <trkpt lat="49.93091" lon="2.21472">
        <ele>15.1</ele>
        <time>2022-02-02T13:20:35Z</time>
      </trkpt>
      <trkpt lat="49.9309" lon="2.21474">
        <ele>15.1</ele>
        <time>2022-02-02T13:20:36Z</time>
      </trkpt>
      <trkpt lat="49.93089" lon="2.21476">
        <ele>15.1</ele>
        <time>2022-02-02T13:20:37Z</time>
      </trkpt>
      <trkpt lat="49.93089" lon="2.21477">
        <ele>15.1</ele>
        <time>2022-02-02T13:20:38Z</time>
      </trkpt>
      <trkpt lat="49.93087" lon="2.21479">
        <ele>15.1</ele>
        <time>2022-02-02T13:20:39Z</time>
      </trkpt>
      <trkpt lat="49.93087" lon="2.21481">
        <ele>15.1</ele>
        <time>2022-02-02T13:20:40Z</time>
      </trkpt>
      <trkpt lat="49.93085" lon="2.21483">
        <ele>15</ele>
        <time>2022-02-02T13:20:41Z</time>
      </trkpt>
      <trkpt lat="49.93084" lon="2.21484">
        <ele>15</ele>
        <time>2022-02-02T13:20:42Z</time>
      </trkpt>
      <trkpt lat="49.93083" lon="2.21486">
        <ele>15</ele>
        <time>2022-02-02T13:20:43Z</time>
      </trkpt>
      <trkpt lat="49.93082" lon="2.21488">
        <ele>15</ele>
        <time>2022-02-02T13:20:45Z</time>
      </trkpt>
      <trkpt lat="49.9308" lon="2.2149">
        <ele>14.9</ele>
        <time>2022-02-02T13:20:46Z</time>
      </trkpt>
      <trkpt lat="49.93079" lon="2.21492">
        <ele>14.9</ele>
        <time>2022-02-02T13:20:47Z</time>
      </trkpt>
      <trkpt lat="49.93078" lon="2.21494">
        <ele>14.9</ele>
        <time>2022-02-02T13:20:48Z</time>
      </trkpt>
      <trkpt lat="49.93077" lon="2.21496">
        <ele>14.9</ele>
        <time>2022-02-02T13:20:49Z</time>
      </trkpt>
      <trkpt lat="49.93076" lon="2.21498">
        <ele>14.9</ele>
        <time>2022-02-02T13:20:50Z</time>
      </trkpt>
      <trkpt lat="49.93074" lon="2.215">
        <ele>14.9</ele>
        <time>2022-02-02T13:20:51Z</time>
      </trkpt>
      <trkpt lat="49.93072" lon="2.21502">
        <ele>14.8</ele>
        <time>2022-02-02T13:20:52Z</time>
      </trkpt>
      <trkpt lat="49.93071" lon="2.21504">
        <ele>14.8</ele>
        <time>2022-02-02T13:20:53Z</time>
      </trkpt>
      <trkpt lat="49.9307" lon="2.21506">
        <ele>14.8</ele>
        <time>2022-02-02T13:20:54Z</time>
      </trkpt>
      <trkpt lat="49.93069" lon="2.21508">
        <ele>14.8</ele>
        <time>2022-02-02T13:20:55Z</time>
      </trkpt>
      <trkpt lat="49.93068" lon="2.21509">
        <ele>14.8</ele>
        <time>2022-02-02T13:20:56Z</time>
      </trkpt>
      <trkpt lat="49.93068" lon="2.2151">
        <ele>14.8</ele>
        <time>2022-02-02T13:20:57Z</time>
      </trkpt>
      <trkpt lat="49.93067" lon="2.21511">
        <ele>14.8</ele>
        <time>2022-02-02T13:20:59Z</time>
      </trkpt>
      <trkpt lat="49.93066" lon="2.21513">
        <ele>14.8</ele>
        <time>2022-02-02T13:21:00Z</time>
      </trkpt>
      <trkpt lat="49.93065" lon="2.21514">
        <ele>14.8</ele>
        <time>2022-02-02T13:21:01Z</time>
      </trkpt>
      <trkpt lat="49.93064" lon="2.21515">
        <ele>14.8</ele>
        <time>2022-02-02T13:21:02Z</time>
      </trkpt>
      <trkpt lat="49.93064" lon="2.21515">
        <ele>14.8</ele>
        <time>2022-02-02T13:21:03Z</time>
      </trkpt>
      <trkpt lat="49.93063" lon="2.21516">
        <ele>14.8</ele>
        <time>2022-02-02T13:21:04Z</time>
      </trkpt>
      <trkpt lat="49.93062" lon="2.21517">
        <ele>14.8</ele>
        <time>2022-02-02T13:21:05Z</time>
      </trkpt>
      <trkpt lat="49.93062" lon="2.21518">
        <ele>14.9</ele>
        <time>2022-02-02T13:21:06Z</time>
      </trkpt>
      <trkpt lat="49.93061" lon="2.21518">
        <ele>14.9</ele>
        <time>2022-02-02T13:21:07Z</time>
      </trkpt>
      <trkpt lat="49.93061" lon="2.21519">
        <ele>14.9</ele>
        <time>2022-02-02T13:21:08Z</time>
      </trkpt>
      <trkpt lat="49.9306" lon="2.2152">
        <ele>14.9</ele>
        <time>2022-02-02T13:21:09Z</time>
      </trkpt>
      <trkpt lat="49.93059" lon="2.21521">
        <ele>14.9</ele>
        <time>2022-02-02T13:21:11Z</time>
      </trkpt>
      <trkpt lat="49.93058" lon="2.21522">
        <ele>14.9</ele>
        <time>2022-02-02T13:21:12Z</time>
      </trkpt>
      <trkpt lat="49.93057" lon="2.21523">
        <ele>14.9</ele>
        <time>2022-02-02T13:21:13Z</time>
      </trkpt>
      <trkpt lat="49.93056" lon="2.21524">
        <ele>14.9</ele>
        <time>2022-02-02T13:21:14Z</time>
      </trkpt>
      <trkpt lat="49.93056" lon="2.21525">
        <ele>14.9</ele>
        <time>2022-02-02T13:21:15Z</time>
      </trkpt>
      <trkpt lat="49.93055" lon="2.21526">
        <ele>14.9</ele>
        <time>2022-02-02T13:21:16Z</time>
      </trkpt>
      <trkpt lat="49.93054" lon="2.21529">
        <ele>14.9</ele>
        <time>2022-02-02T13:21:17Z</time>
      </trkpt>
      <trkpt lat="49.93053" lon="2.2153">
        <ele>14.9</ele>
        <time>2022-02-02T13:21:18Z</time>
      </trkpt>
      <trkpt lat="49.93053" lon="2.21531">
        <ele>14.9</ele>
        <time>2022-02-02T13:21:19Z</time>
      </trkpt>
      <trkpt lat="49.93052" lon="2.21533">
        <ele>14.9</ele>
        <time>2022-02-02T13:21:20Z</time>
      </trkpt>
      <trkpt lat="49.93051" lon="2.21534">
        <ele>14.9</ele>
        <time>2022-02-02T13:21:21Z</time>
      </trkpt>
      <trkpt lat="49.93051" lon="2.21536">
        <ele>14.9</ele>
        <time>2022-02-02T13:21:23Z</time>
      </trkpt>
      <trkpt lat="49.9305" lon="2.21537">
        <ele>14.9</ele>
        <time>2022-02-02T13:21:24Z</time>
      </trkpt>
      <trkpt lat="49.93049" lon="2.21538">
        <ele>14.9</ele>
        <time>2022-02-02T13:21:25Z</time>
      </trkpt>
      <trkpt lat="49.93049" lon="2.2154">
        <ele>14.9</ele>
        <time>2022-02-02T13:21:26Z</time>
      </trkpt>
      <trkpt lat="49.93048" lon="2.21541">
        <ele>14.9</ele>
        <time>2022-02-02T13:21:27Z</time>
      </trkpt>
      <trkpt lat="49.93048" lon="2.21543">
        <ele>14.9</ele>
        <time>2022-02-02T13:21:28Z</time>
      </trkpt>
      <trkpt lat="49.93047" lon="2.21544">
        <ele>14.9</ele>
        <time>2022-02-02T13:21:29Z</time>
      </trkpt>
      <trkpt lat="49.93047" lon="2.21546">
        <ele>14.9</ele>
        <time>2022-02-02T13:21:30Z</time>
      </trkpt>
      <trkpt lat="49.93046" lon="2.21548">
        <ele>14.9</ele>
        <time>2022-02-02T13:21:32Z</time>
      </trkpt>
      <trkpt lat="49.93045" lon="2.21549">
        <ele>14.9</ele>
        <time>2022-02-02T13:21:33Z</time>
      </trkpt>
      <trkpt lat="49.93044" lon="2.2155">
        <ele>14.9</ele>
        <time>2022-02-02T13:21:34Z</time>
      </trkpt>
      <trkpt lat="49.93043" lon="2.21552">
        <ele>14.9</ele>
        <time>2022-02-02T13:21:35Z</time>
      </trkpt>
      <trkpt lat="49.93042" lon="2.21553">
        <ele>14.9</ele>
        <time>2022-02-02T13:21:36Z</time>
      </trkpt>
      <trkpt lat="49.93041" lon="2.21554">
        <ele>14.9</ele>
        <time>2022-02-02T13:21:37Z</time>
      </trkpt>
      <trkpt lat="49.9304" lon="2.21556">
        <ele>14.9</ele>
        <time>2022-02-02T13:21:39Z</time>
      </trkpt>
      <trkpt lat="49.93039" lon="2.21558">
        <ele>14.9</ele>
        <time>2022-02-02T13:21:40Z</time>
      </trkpt>
      <trkpt lat="49.93039" lon="2.21559">
        <ele>14.9</ele>
        <time>2022-02-02T13:21:41Z</time>
      </trkpt>
      <trkpt lat="49.93038" lon="2.2156">
        <ele>14.9</ele>
        <time>2022-02-02T13:21:42Z</time>
      </trkpt>
      <trkpt lat="49.93038" lon="2.21562">
        <ele>14.9</ele>
        <time>2022-02-02T13:21:43Z</time>
      </trkpt>
      <trkpt lat="49.93037" lon="2.21564">
        <ele>14.9</ele>
        <time>2022-02-02T13:21:45Z</time>
      </trkpt>
      <trkpt lat="49.93036" lon="2.21565">
        <ele>14.9</ele>
        <time>2022-02-02T13:21:46Z</time>
      </trkpt>
      <trkpt lat="49.93035" lon="2.21567">
        <ele>14.9</ele>
        <time>2022-02-02T13:21:47Z</time>
      </trkpt>
      <trkpt lat="49.93034" lon="2.21568">
        <ele>14.9</ele>
        <time>2022-02-02T13:21:48Z</time>
      </trkpt>
      <trkpt lat="49.93033" lon="2.21571">
        <ele>15</ele>
        <time>2022-02-02T13:21:49Z</time>
      </trkpt>
      <trkpt lat="49.93032" lon="2.21572">
        <ele>15</ele>
        <time>2022-02-02T13:21:50Z</time>
      </trkpt>
      <trkpt lat="49.93031" lon="2.21572">
        <ele>15</ele>
        <time>2022-02-02T13:21:51Z</time>
      </trkpt>
      <trkpt lat="49.93031" lon="2.21574">
        <ele>15</ele>
        <time>2022-02-02T13:21:53Z</time>
      </trkpt>
      <trkpt lat="49.9303" lon="2.21576">
        <ele>15</ele>
        <time>2022-02-02T13:21:54Z</time>
      </trkpt>
      <trkpt lat="49.93029" lon="2.21578">
        <ele>14.9</ele>
        <time>2022-02-02T13:21:55Z</time>
      </trkpt>
      <trkpt lat="49.93028" lon="2.2158">
        <ele>14.9</ele>
        <time>2022-02-02T13:21:56Z</time>
      </trkpt>
      <trkpt lat="49.93027" lon="2.21582">
        <ele>14.9</ele>
        <time>2022-02-02T13:21:57Z</time>
      </trkpt>
      <trkpt lat="49.93026" lon="2.21584">
        <ele>14.9</ele>
        <time>2022-02-02T13:21:58Z</time>
      </trkpt>
      <trkpt lat="49.93024" lon="2.21588">
        <ele>14.9</ele>
        <time>2022-02-02T13:21:59Z</time>
      </trkpt>
      <trkpt lat="49.93024" lon="2.21589">
        <ele>14.9</ele>
        <time>2022-02-02T13:22:00Z</time>
      </trkpt>
      <trkpt lat="49.93022" lon="2.21593">
        <ele>14.9</ele>
        <time>2022-02-02T13:22:01Z</time>
      </trkpt>
      <trkpt lat="49.93022" lon="2.21594">
        <ele>14.9</ele>
        <time>2022-02-02T13:22:02Z</time>
      </trkpt>
      <trkpt lat="49.9302" lon="2.21597">
        <ele>14.9</ele>
        <time>2022-02-02T13:22:03Z</time>
      </trkpt>
      <trkpt lat="49.93019" lon="2.21598">
        <ele>14.9</ele>
        <time>2022-02-02T13:22:05Z</time>
      </trkpt>
      <trkpt lat="49.93018" lon="2.216">
        <ele>14.9</ele>
        <time>2022-02-02T13:22:06Z</time>
      </trkpt>
      <trkpt lat="49.93017" lon="2.21602">
        <ele>14.9</ele>
        <time>2022-02-02T13:22:07Z</time>
      </trkpt>
      <trkpt lat="49.93016" lon="2.21604">
        <ele>14.9</ele>
        <time>2022-02-02T13:22:08Z</time>
      </trkpt>
      <trkpt lat="49.93016" lon="2.21606">
        <ele>14.9</ele>
        <time>2022-02-02T13:22:09Z</time>
      </trkpt>
      <trkpt lat="49.93015" lon="2.21608">
        <ele>14.9</ele>
        <time>2022-02-02T13:22:10Z</time>
      </trkpt>
      <trkpt lat="49.93014" lon="2.2161">
        <ele>14.9</ele>
        <time>2022-02-02T13:22:11Z</time>
      </trkpt>
      <trkpt lat="49.93012" lon="2.21612">
        <ele>14.9</ele>
        <time>2022-02-02T13:22:12Z</time>
      </trkpt>
      <trkpt lat="49.93011" lon="2.21614">
        <ele>14.8</ele>
        <time>2022-02-02T13:22:13Z</time>
      </trkpt>
      <trkpt lat="49.93011" lon="2.21616">
        <ele>14.8</ele>
        <time>2022-02-02T13:22:14Z</time>
      </trkpt>
      <trkpt lat="49.9301" lon="2.21617">
        <ele>14.8</ele>
        <time>2022-02-02T13:22:15Z</time>
      </trkpt>
      <trkpt lat="49.93009" lon="2.2162">
        <ele>14.8</ele>
        <time>2022-02-02T13:22:16Z</time>
      </trkpt>
      <trkpt lat="49.93008" lon="2.21621">
        <ele>14.8</ele>
        <time>2022-02-02T13:22:17Z</time>
      </trkpt>
      <trkpt lat="49.93007" lon="2.21623">
        <ele>14.8</ele>
        <time>2022-02-02T13:22:18Z</time>
      </trkpt>
      <trkpt lat="49.93007" lon="2.21624">
        <ele>14.8</ele>
        <time>2022-02-02T13:22:20Z</time>
      </trkpt>
      <trkpt lat="49.93005" lon="2.21626">
        <ele>14.7</ele>
        <time>2022-02-02T13:22:21Z</time>
      </trkpt>
      <trkpt lat="49.93004" lon="2.21629">
        <ele>14.7</ele>
        <time>2022-02-02T13:22:22Z</time>
      </trkpt>
      <trkpt lat="49.93004" lon="2.2163">
        <ele>14.7</ele>
        <time>2022-02-02T13:22:23Z</time>
      </trkpt>
      <trkpt lat="49.93003" lon="2.21631">
        <ele>14.7</ele>
        <time>2022-02-02T13:22:24Z</time>
      </trkpt>
      <trkpt lat="49.93002" lon="2.21632">
        <ele>14.7</ele>
        <time>2022-02-02T13:22:25Z</time>
      </trkpt>
      <trkpt lat="49.93001" lon="2.21635">
        <ele>14.7</ele>
        <time>2022-02-02T13:22:26Z</time>
      </trkpt>
      <trkpt lat="49.93001" lon="2.21636">
        <ele>14.7</ele>
        <time>2022-02-02T13:22:27Z</time>
      </trkpt>
      <trkpt lat="49.93" lon="2.21638">
        <ele>14.7</ele>
        <time>2022-02-02T13:22:28Z</time>
      </trkpt>
      <trkpt lat="49.92999" lon="2.21639">
        <ele>14.7</ele>
        <time>2022-02-02T13:22:29Z</time>
      </trkpt>
      <trkpt lat="49.92998" lon="2.21641">
        <ele>14.7</ele>
        <time>2022-02-02T13:22:31Z</time>
      </trkpt>
      <trkpt lat="49.92998" lon="2.21642">
        <ele>14.7</ele>
        <time>2022-02-02T13:22:32Z</time>
      </trkpt>
      <trkpt lat="49.92996" lon="2.21645">
        <ele>14.7</ele>
        <time>2022-02-02T13:22:33Z</time>
      </trkpt>
      <trkpt lat="49.92996" lon="2.21646">
        <ele>14.7</ele>
        <time>2022-02-02T13:22:34Z</time>
      </trkpt>
      <trkpt lat="49.92995" lon="2.21647">
        <ele>14.7</ele>
        <time>2022-02-02T13:22:35Z</time>
      </trkpt>
      <trkpt lat="49.92995" lon="2.21648">
        <ele>14.7</ele>
        <time>2022-02-02T13:22:36Z</time>
      </trkpt>
      <trkpt lat="49.92994" lon="2.2165">
        <ele>14.7</ele>
        <time>2022-02-02T13:22:37Z</time>
      </trkpt>
      <trkpt lat="49.92993" lon="2.21651">
        <ele>14.7</ele>
        <time>2022-02-02T13:22:38Z</time>
      </trkpt>
      <trkpt lat="49.92992" lon="2.21654">
        <ele>14.7</ele>
        <time>2022-02-02T13:22:39Z</time>
      </trkpt>
      <trkpt lat="49.92991" lon="2.21655">
        <ele>14.7</ele>
        <time>2022-02-02T13:22:40Z</time>
      </trkpt>
      <trkpt lat="49.92991" lon="2.21656">
        <ele>14.7</ele>
        <time>2022-02-02T13:22:41Z</time>
      </trkpt>
      <trkpt lat="49.9299" lon="2.21657">
        <ele>14.7</ele>
        <time>2022-02-02T13:22:42Z</time>
      </trkpt>
      <trkpt lat="49.92989" lon="2.21659">
        <ele>14.7</ele>
        <time>2022-02-02T13:22:43Z</time>
      </trkpt>
      <trkpt lat="49.92988" lon="2.2166">
        <ele>14.7</ele>
        <time>2022-02-02T13:22:45Z</time>
      </trkpt>
      <trkpt lat="49.92987" lon="2.21662">
        <ele>14.6</ele>
        <time>2022-02-02T13:22:46Z</time>
      </trkpt>
      <trkpt lat="49.92986" lon="2.21663">
        <ele>14.6</ele>
        <time>2022-02-02T13:22:47Z</time>
      </trkpt>
      <trkpt lat="49.92986" lon="2.21664">
        <ele>14.6</ele>
        <time>2022-02-02T13:22:48Z</time>
      </trkpt>
      <trkpt lat="49.92985" lon="2.21666">
        <ele>14.6</ele>
        <time>2022-02-02T13:22:49Z</time>
      </trkpt>
      <trkpt lat="49.92984" lon="2.21667">
        <ele>14.6</ele>
        <time>2022-02-02T13:22:50Z</time>
      </trkpt>
      <trkpt lat="49.92983" lon="2.21668">
        <ele>14.6</ele>
        <time>2022-02-02T13:22:51Z</time>
      </trkpt>
      <trkpt lat="49.92983" lon="2.2167">
        <ele>14.6</ele>
        <time>2022-02-02T13:22:52Z</time>
      </trkpt>
      <trkpt lat="49.92982" lon="2.21671">
        <ele>14.6</ele>
        <time>2022-02-02T13:22:53Z</time>
      </trkpt>
      <trkpt lat="49.92981" lon="2.21672">
        <ele>14.6</ele>
        <time>2022-02-02T13:22:54Z</time>
      </trkpt>
      <trkpt lat="49.9298" lon="2.21674">
        <ele>14.6</ele>
        <time>2022-02-02T13:22:55Z</time>
      </trkpt>
      <trkpt lat="49.92979" lon="2.21675">
        <ele>14.6</ele>
        <time>2022-02-02T13:22:56Z</time>
      </trkpt>
      <trkpt lat="49.92979" lon="2.21676">
        <ele>14.6</ele>
        <time>2022-02-02T13:22:58Z</time>
      </trkpt>
      <trkpt lat="49.92978" lon="2.21678">
        <ele>14.6</ele>
        <time>2022-02-02T13:22:59Z</time>
      </trkpt>
      <trkpt lat="49.92977" lon="2.21679">
        <ele>14.6</ele>
        <time>2022-02-02T13:23:00Z</time>
      </trkpt>
      <trkpt lat="49.92977" lon="2.2168">
        <ele>14.6</ele>
        <time>2022-02-02T13:23:01Z</time>
      </trkpt>
      <trkpt lat="49.92976" lon="2.21682">
        <ele>14.5</ele>
        <time>2022-02-02T13:23:02Z</time>
      </trkpt>
      <trkpt lat="49.92975" lon="2.21683">
        <ele>14.5</ele>
        <time>2022-02-02T13:23:03Z</time>
      </trkpt>
      <trkpt lat="49.92974" lon="2.21684">
        <ele>14.5</ele>
        <time>2022-02-02T13:23:04Z</time>
      </trkpt>
      <trkpt lat="49.92974" lon="2.21686">
        <ele>14.5</ele>
        <time>2022-02-02T13:23:05Z</time>
      </trkpt>
      <trkpt lat="49.92973" lon="2.21688">
        <ele>14.5</ele>
        <time>2022-02-02T13:23:06Z</time>
      </trkpt>
      <trkpt lat="49.92972" lon="2.2169">
        <ele>14.5</ele>
        <time>2022-02-02T13:23:07Z</time>
      </trkpt>
      <trkpt lat="49.92971" lon="2.21692">
        <ele>14.5</ele>
        <time>2022-02-02T13:23:08Z</time>
      </trkpt>
      <trkpt lat="49.92971" lon="2.21693">
        <ele>14.5</ele>
        <time>2022-02-02T13:23:10Z</time>
      </trkpt>
      <trkpt lat="49.9297" lon="2.21694">
        <ele>14.5</ele>
        <time>2022-02-02T13:23:11Z</time>
      </trkpt>
      <trkpt lat="49.92969" lon="2.21696">
        <ele>14.5</ele>
        <time>2022-02-02T13:23:12Z</time>
      </trkpt>
      <trkpt lat="49.92968" lon="2.21698">
        <ele>14.5</ele>
        <time>2022-02-02T13:23:13Z</time>
      </trkpt>
      <trkpt lat="49.92967" lon="2.21699">
        <ele>14.5</ele>
        <time>2022-02-02T13:23:14Z</time>
      </trkpt>
      <trkpt lat="49.92966" lon="2.21702">
        <ele>14.5</ele>
        <time>2022-02-02T13:23:15Z</time>
      </trkpt>
      <trkpt lat="49.92965" lon="2.21703">
        <ele>14.5</ele>
        <time>2022-02-02T13:23:16Z</time>
      </trkpt>
      <trkpt lat="49.92965" lon="2.21704">
        <ele>14.5</ele>
        <time>2022-02-02T13:23:17Z</time>
      </trkpt>
      <trkpt lat="49.92964" lon="2.21706">
        <ele>14.5</ele>
        <time>2022-02-02T13:23:18Z</time>
      </trkpt>
      <trkpt lat="49.92964" lon="2.21707">
        <ele>14.5</ele>
        <time>2022-02-02T13:23:19Z</time>
      </trkpt>
      <trkpt lat="49.92963" lon="2.21708">
        <ele>14.5</ele>
        <time>2022-02-02T13:23:20Z</time>
      </trkpt>
      <trkpt lat="49.92962" lon="2.21709">
        <ele>14.5</ele>
        <time>2022-02-02T13:23:21Z</time>
      </trkpt>
      <trkpt lat="49.92962" lon="2.2171">
        <ele>14.5</ele>
        <time>2022-02-02T13:23:22Z</time>
      </trkpt>
      <trkpt lat="49.92961" lon="2.21712">
        <ele>14.4</ele>
        <time>2022-02-02T13:23:23Z</time>
      </trkpt>
      <trkpt lat="49.9296" lon="2.21715">
        <ele>14.4</ele>
        <time>2022-02-02T13:23:25Z</time>
      </trkpt>
      <trkpt lat="49.9296" lon="2.21716">
        <ele>14.4</ele>
        <time>2022-02-02T13:23:26Z</time>
      </trkpt>
      <trkpt lat="49.92959" lon="2.21717">
        <ele>14.4</ele>
        <time>2022-02-02T13:23:27Z</time>
      </trkpt>
      <trkpt lat="49.92958" lon="2.2172">
        <ele>14.4</ele>
        <time>2022-02-02T13:23:28Z</time>
      </trkpt>
      <trkpt lat="49.92958" lon="2.21721">
        <ele>14.4</ele>
        <time>2022-02-02T13:23:29Z</time>
      </trkpt>
      <trkpt lat="49.92957" lon="2.21722">
        <ele>14.4</ele>
        <time>2022-02-02T13:23:30Z</time>
      </trkpt>
      <trkpt lat="49.92956" lon="2.21724">
        <ele>14.4</ele>
        <time>2022-02-02T13:23:31Z</time>
      </trkpt>
      <trkpt lat="49.92955" lon="2.21725">
        <ele>14.4</ele>
        <time>2022-02-02T13:23:32Z</time>
      </trkpt>
      <trkpt lat="49.92954" lon="2.21728">
        <ele>14.4</ele>
        <time>2022-02-02T13:23:33Z</time>
      </trkpt>
      <trkpt lat="49.92953" lon="2.2173">
        <ele>14.4</ele>
        <time>2022-02-02T13:23:35Z</time>
      </trkpt>
      <trkpt lat="49.92953" lon="2.21731">
        <ele>14.4</ele>
        <time>2022-02-02T13:23:36Z</time>
      </trkpt>
      <trkpt lat="49.92951" lon="2.21734">
        <ele>14.4</ele>
        <time>2022-02-02T13:23:38Z</time>
      </trkpt>
      <trkpt lat="49.92951" lon="2.21735">
        <ele>14.4</ele>
        <time>2022-02-02T13:23:39Z</time>
      </trkpt>
      <trkpt lat="49.9295" lon="2.21736">
        <ele>14.4</ele>
        <time>2022-02-02T13:23:40Z</time>
      </trkpt>
      <trkpt lat="49.9295" lon="2.21737">
        <ele>14.3</ele>
        <time>2022-02-02T13:23:41Z</time>
      </trkpt>
      <trkpt lat="49.92949" lon="2.21738">
        <ele>14.3</ele>
        <time>2022-02-02T13:23:42Z</time>
      </trkpt>
      <trkpt lat="49.92948" lon="2.21739">
        <ele>14.3</ele>
        <time>2022-02-02T13:23:43Z</time>
      </trkpt>
      <trkpt lat="49.92947" lon="2.21742">
        <ele>14.3</ele>
        <time>2022-02-02T13:23:44Z</time>
      </trkpt>
      <trkpt lat="49.92946" lon="2.21743">
        <ele>14.3</ele>
        <time>2022-02-02T13:23:45Z</time>
      </trkpt>
      <trkpt lat="49.92946" lon="2.21743">
        <ele>14.3</ele>
        <time>2022-02-02T13:23:46Z</time>
      </trkpt>
      <trkpt lat="49.92945" lon="2.21745">
        <ele>14.3</ele>
        <time>2022-02-02T13:23:47Z</time>
      </trkpt>
      <trkpt lat="49.92944" lon="2.21746">
        <ele>14.3</ele>
        <time>2022-02-02T13:23:48Z</time>
      </trkpt>
      <trkpt lat="49.92943" lon="2.21747">
        <ele>14.3</ele>
        <time>2022-02-02T13:23:50Z</time>
      </trkpt>
      <trkpt lat="49.92942" lon="2.21748">
        <ele>14.3</ele>
        <time>2022-02-02T13:23:51Z</time>
      </trkpt>
      <trkpt lat="49.92941" lon="2.21748">
        <ele>14.3</ele>
        <time>2022-02-02T13:23:52Z</time>
      </trkpt>
      <trkpt lat="49.9294" lon="2.2175">
        <ele>14.3</ele>
        <time>2022-02-02T13:23:53Z</time>
      </trkpt>
      <trkpt lat="49.92939" lon="2.21752">
        <ele>14.3</ele>
        <time>2022-02-02T13:23:54Z</time>
      </trkpt>
      <trkpt lat="49.92938" lon="2.21753">
        <ele>14.3</ele>
        <time>2022-02-02T13:23:55Z</time>
      </trkpt>
      <trkpt lat="49.92937" lon="2.21754">
        <ele>14.3</ele>
        <time>2022-02-02T13:23:56Z</time>
      </trkpt>
      <trkpt lat="49.92936" lon="2.21756">
        <ele>14.3</ele>
        <time>2022-02-02T13:23:57Z</time>
      </trkpt>
      <trkpt lat="49.92935" lon="2.21758">
        <ele>14.2</ele>
        <time>2022-02-02T13:23:58Z</time>
      </trkpt>
      <trkpt lat="49.92934" lon="2.21762">
        <ele>14.2</ele>
        <time>2022-02-02T13:23:59Z</time>
      </trkpt>
      <trkpt lat="49.92933" lon="2.21763">
        <ele>14.2</ele>
        <time>2022-02-02T13:24:00Z</time>
      </trkpt>
      <trkpt lat="49.92932" lon="2.21765">
        <ele>14.2</ele>
        <time>2022-02-02T13:24:01Z</time>
      </trkpt>
      <trkpt lat="49.92931" lon="2.21767">
        <ele>14.2</ele>
        <time>2022-02-02T13:24:03Z</time>
      </trkpt>
      <trkpt lat="49.9293" lon="2.21769">
        <ele>14.2</ele>
        <time>2022-02-02T13:24:04Z</time>
      </trkpt>
      <trkpt lat="49.92929" lon="2.21771">
        <ele>14.2</ele>
        <time>2022-02-02T13:24:05Z</time>
      </trkpt>
      <trkpt lat="49.92927" lon="2.21774">
        <ele>14.2</ele>
        <time>2022-02-02T13:24:06Z</time>
      </trkpt>
      <trkpt lat="49.92926" lon="2.21775">
        <ele>14.2</ele>
        <time>2022-02-02T13:24:07Z</time>
      </trkpt>
      <trkpt lat="49.92924" lon="2.21778">
        <ele>14.1</ele>
        <time>2022-02-02T13:24:08Z</time>
      </trkpt>
      <trkpt lat="49.92924" lon="2.21779">
        <ele>14.1</ele>
        <time>2022-02-02T13:24:09Z</time>
      </trkpt>
      <trkpt lat="49.92923" lon="2.21782">
        <ele>14.1</ele>
        <time>2022-02-02T13:24:11Z</time>
      </trkpt>
      <trkpt lat="49.92921" lon="2.21784">
        <ele>14.1</ele>
        <time>2022-02-02T13:24:12Z</time>
      </trkpt>
      <trkpt lat="49.92921" lon="2.21785">
        <ele>14.1</ele>
        <time>2022-02-02T13:24:13Z</time>
      </trkpt>
      <trkpt lat="49.9292" lon="2.21787">
        <ele>14.1</ele>
        <time>2022-02-02T13:24:14Z</time>
      </trkpt>
      <trkpt lat="49.92919" lon="2.21788">
        <ele>14.1</ele>
        <time>2022-02-02T13:24:15Z</time>
      </trkpt>
      <trkpt lat="49.92917" lon="2.2179">
        <ele>14.1</ele>
        <time>2022-02-02T13:24:17Z</time>
      </trkpt>
      <trkpt lat="49.92916" lon="2.21791">
        <ele>14.1</ele>
        <time>2022-02-02T13:24:18Z</time>
      </trkpt>
      <trkpt lat="49.92916" lon="2.21792">
        <ele>14.1</ele>
        <time>2022-02-02T13:24:19Z</time>
      </trkpt>
      <trkpt lat="49.92915" lon="2.21794">
        <ele>14.1</ele>
        <time>2022-02-02T13:24:20Z</time>
      </trkpt>
      <trkpt lat="49.92915" lon="2.21795">
        <ele>14.1</ele>
        <time>2022-02-02T13:24:21Z</time>
      </trkpt>
      <trkpt lat="49.92914" lon="2.21796">
        <ele>14.1</ele>
        <time>2022-02-02T13:24:22Z</time>
      </trkpt>
      <trkpt lat="49.92913" lon="2.21798">
        <ele>14</ele>
        <time>2022-02-02T13:24:23Z</time>
      </trkpt>
      <trkpt lat="49.92913" lon="2.21799">
        <ele>14</ele>
        <time>2022-02-02T13:24:24Z</time>
      </trkpt>
      <trkpt lat="49.92913" lon="2.218">
        <ele>14</ele>
        <time>2022-02-02T13:24:25Z</time>
      </trkpt>
      <trkpt lat="49.92912" lon="2.21801">
        <ele>14</ele>
        <time>2022-02-02T13:24:26Z</time>
      </trkpt>
      <trkpt lat="49.92911" lon="2.21802">
        <ele>14</ele>
        <time>2022-02-02T13:24:27Z</time>
      </trkpt>
      <trkpt lat="49.92911" lon="2.21803">
        <ele>14</ele>
        <time>2022-02-02T13:24:28Z</time>
      </trkpt>
      <trkpt lat="49.9291" lon="2.21805">
        <ele>14</ele>
        <time>2022-02-02T13:24:30Z</time>
      </trkpt>
      <trkpt lat="49.9291" lon="2.21806">
        <ele>14</ele>
        <time>2022-02-02T13:24:31Z</time>
      </trkpt>
      <trkpt lat="49.92909" lon="2.21807">
        <ele>14</ele>
        <time>2022-02-02T13:24:32Z</time>
      </trkpt>
      <trkpt lat="49.92908" lon="2.21809">
        <ele>14</ele>
        <time>2022-02-02T13:24:33Z</time>
      </trkpt>
      <trkpt lat="49.92907" lon="2.2181">
        <ele>14</ele>
        <time>2022-02-02T13:24:34Z</time>
      </trkpt>
      <trkpt lat="49.92907" lon="2.21811">
        <ele>14</ele>
        <time>2022-02-02T13:24:35Z</time>
      </trkpt>
      <trkpt lat="49.92906" lon="2.21812">
        <ele>13.9</ele>
        <time>2022-02-02T13:24:36Z</time>
      </trkpt>
      <trkpt lat="49.92905" lon="2.21813">
        <ele>13.9</ele>
        <time>2022-02-02T13:24:37Z</time>
      </trkpt>
      <trkpt lat="49.92904" lon="2.21814">
        <ele>13.9</ele>
        <time>2022-02-02T13:24:38Z</time>
      </trkpt>
      <trkpt lat="49.92903" lon="2.21814">
        <ele>13.9</ele>
        <time>2022-02-02T13:24:39Z</time>
      </trkpt>
      <trkpt lat="49.92902" lon="2.21816">
        <ele>13.9</ele>
        <time>2022-02-02T13:24:41Z</time>
      </trkpt>
      <trkpt lat="49.92901" lon="2.21817">
        <ele>13.9</ele>
        <time>2022-02-02T13:24:42Z</time>
      </trkpt>
      <trkpt lat="49.929" lon="2.21819">
        <ele>13.9</ele>
        <time>2022-02-02T13:24:43Z</time>
      </trkpt>
      <trkpt lat="49.92899" lon="2.21821">
        <ele>13.9</ele>
        <time>2022-02-02T13:24:44Z</time>
      </trkpt>
      <trkpt lat="49.92898" lon="2.21823">
        <ele>13.9</ele>
        <time>2022-02-02T13:24:45Z</time>
      </trkpt>
      <trkpt lat="49.92898" lon="2.21824">
        <ele>13.9</ele>
        <time>2022-02-02T13:24:46Z</time>
      </trkpt>
      <trkpt lat="49.92897" lon="2.21826">
        <ele>13.9</ele>
        <time>2022-02-02T13:24:47Z</time>
      </trkpt>
      <trkpt lat="49.92896" lon="2.21828">
        <ele>13.9</ele>
        <time>2022-02-02T13:24:48Z</time>
      </trkpt>
      <trkpt lat="49.92894" lon="2.2183">
        <ele>13.9</ele>
        <time>2022-02-02T13:24:50Z</time>
      </trkpt>
      <trkpt lat="49.92893" lon="2.21832">
        <ele>13.9</ele>
        <time>2022-02-02T13:24:51Z</time>
      </trkpt>
      <trkpt lat="49.92893" lon="2.21834">
        <ele>13.9</ele>
        <time>2022-02-02T13:24:52Z</time>
      </trkpt>
      <trkpt lat="49.92892" lon="2.21835">
        <ele>14</ele>
        <time>2022-02-02T13:24:53Z</time>
      </trkpt>
      <trkpt lat="49.92891" lon="2.21837">
        <ele>14</ele>
        <time>2022-02-02T13:24:54Z</time>
      </trkpt>
      <trkpt lat="49.9289" lon="2.21839">
        <ele>14</ele>
        <time>2022-02-02T13:24:55Z</time>
      </trkpt>
      <trkpt lat="49.92888" lon="2.21842">
        <ele>14</ele>
        <time>2022-02-02T13:24:57Z</time>
      </trkpt>
      <trkpt lat="49.92888" lon="2.21844">
        <ele>14</ele>
        <time>2022-02-02T13:24:58Z</time>
      </trkpt>
      <trkpt lat="49.92887" lon="2.21846">
        <ele>14</ele>
        <time>2022-02-02T13:24:59Z</time>
      </trkpt>
      <trkpt lat="49.92886" lon="2.21848">
        <ele>14</ele>
        <time>2022-02-02T13:25:00Z</time>
      </trkpt>
      <trkpt lat="49.92885" lon="2.2185">
        <ele>14</ele>
        <time>2022-02-02T13:25:01Z</time>
      </trkpt>
      <trkpt lat="49.92884" lon="2.21852">
        <ele>14</ele>
        <time>2022-02-02T13:25:02Z</time>
      </trkpt>
      <trkpt lat="49.92883" lon="2.21853">
        <ele>14</ele>
        <time>2022-02-02T13:25:03Z</time>
      </trkpt>
      <trkpt lat="49.92882" lon="2.21855">
        <ele>14</ele>
        <time>2022-02-02T13:25:04Z</time>
      </trkpt>
      <trkpt lat="49.92881" lon="2.21856">
        <ele>14</ele>
        <time>2022-02-02T13:25:06Z</time>
      </trkpt>
      <trkpt lat="49.9288" lon="2.21858">
        <ele>14</ele>
        <time>2022-02-02T13:25:07Z</time>
      </trkpt>
      <trkpt lat="49.92878" lon="2.2186">
        <ele>14</ele>
        <time>2022-02-02T13:25:08Z</time>
      </trkpt>
      <trkpt lat="49.92878" lon="2.21861">
        <ele>14</ele>
        <time>2022-02-02T13:25:09Z</time>
      </trkpt>
      <trkpt lat="49.92877" lon="2.21862">
        <ele>14</ele>
        <time>2022-02-02T13:25:10Z</time>
      </trkpt>
      <trkpt lat="49.92876" lon="2.21864">
        <ele>14</ele>
        <time>2022-02-02T13:25:11Z</time>
      </trkpt>
      <trkpt lat="49.92875" lon="2.21865">
        <ele>14</ele>
        <time>2022-02-02T13:25:12Z</time>
      </trkpt>
      <trkpt lat="49.92874" lon="2.21865">
        <ele>14</ele>
        <time>2022-02-02T13:25:13Z</time>
      </trkpt>
      <trkpt lat="49.92873" lon="2.21868">
        <ele>14</ele>
        <time>2022-02-02T13:25:14Z</time>
      </trkpt>
      <trkpt lat="49.92872" lon="2.21869">
        <ele>14</ele>
        <time>2022-02-02T13:25:15Z</time>
      </trkpt>
      <trkpt lat="49.92872" lon="2.2187">
        <ele>14</ele>
        <time>2022-02-02T13:25:16Z</time>
      </trkpt>
      <trkpt lat="49.92871" lon="2.21871">
        <ele>14</ele>
        <time>2022-02-02T13:25:17Z</time>
      </trkpt>
      <trkpt lat="49.9287" lon="2.21872">
        <ele>14</ele>
        <time>2022-02-02T13:25:18Z</time>
      </trkpt>
      <trkpt lat="49.92869" lon="2.21873">
        <ele>14.1</ele>
        <time>2022-02-02T13:25:20Z</time>
      </trkpt>
      <trkpt lat="49.92869" lon="2.21874">
        <ele>14.1</ele>
        <time>2022-02-02T13:25:21Z</time>
      </trkpt>
      <trkpt lat="49.92868" lon="2.21875">
        <ele>14.1</ele>
        <time>2022-02-02T13:25:22Z</time>
      </trkpt>
      <trkpt lat="49.92867" lon="2.21876">
        <ele>14.1</ele>
        <time>2022-02-02T13:25:23Z</time>
      </trkpt>
      <trkpt lat="49.92866" lon="2.21878">
        <ele>14.1</ele>
        <time>2022-02-02T13:25:24Z</time>
      </trkpt>
      <trkpt lat="49.92865" lon="2.21879">
        <ele>14.1</ele>
        <time>2022-02-02T13:25:25Z</time>
      </trkpt>
      <trkpt lat="49.92865" lon="2.2188">
        <ele>14.1</ele>
        <time>2022-02-02T13:25:26Z</time>
      </trkpt>
      <trkpt lat="49.92863" lon="2.21883">
        <ele>14.1</ele>
        <time>2022-02-02T13:25:27Z</time>
      </trkpt>
      <trkpt lat="49.92862" lon="2.21884">
        <ele>14.1</ele>
        <time>2022-02-02T13:25:28Z</time>
      </trkpt>
      <trkpt lat="49.92862" lon="2.21885">
        <ele>14.1</ele>
        <time>2022-02-02T13:25:29Z</time>
      </trkpt>
      <trkpt lat="49.92861" lon="2.21887">
        <ele>14.1</ele>
        <time>2022-02-02T13:25:30Z</time>
      </trkpt>
      <trkpt lat="49.9286" lon="2.21888">
        <ele>14.1</ele>
        <time>2022-02-02T13:25:31Z</time>
      </trkpt>
      <trkpt lat="49.9286" lon="2.2189">
        <ele>14.1</ele>
        <time>2022-02-02T13:25:33Z</time>
      </trkpt>
      <trkpt lat="49.92858" lon="2.21892">
        <ele>14.1</ele>
        <time>2022-02-02T13:25:34Z</time>
      </trkpt>
      <trkpt lat="49.92858" lon="2.21893">
        <ele>14.1</ele>
        <time>2022-02-02T13:25:35Z</time>
      </trkpt>
      <trkpt lat="49.92857" lon="2.21894">
        <ele>14.1</ele>
        <time>2022-02-02T13:25:36Z</time>
      </trkpt>
      <trkpt lat="49.92856" lon="2.21897">
        <ele>14.1</ele>
        <time>2022-02-02T13:25:37Z</time>
      </trkpt>
      <trkpt lat="49.92856" lon="2.21898">
        <ele>14.2</ele>
        <time>2022-02-02T13:25:38Z</time>
      </trkpt>
      <trkpt lat="49.92855" lon="2.21899">
        <ele>14.2</ele>
        <time>2022-02-02T13:25:39Z</time>
      </trkpt>
      <trkpt lat="49.92854" lon="2.21901">
        <ele>14.2</ele>
        <time>2022-02-02T13:25:40Z</time>
      </trkpt>
      <trkpt lat="49.92854" lon="2.21903">
        <ele>14.2</ele>
        <time>2022-02-02T13:25:41Z</time>
      </trkpt>
      <trkpt lat="49.92853" lon="2.21904">
        <ele>14.2</ele>
        <time>2022-02-02T13:25:42Z</time>
      </trkpt>
      <trkpt lat="49.92852" lon="2.21906">
        <ele>14.2</ele>
        <time>2022-02-02T13:25:43Z</time>
      </trkpt>
      <trkpt lat="49.92851" lon="2.21907">
        <ele>14.2</ele>
        <time>2022-02-02T13:25:44Z</time>
      </trkpt>
      <trkpt lat="49.9285" lon="2.21909">
        <ele>14.2</ele>
        <time>2022-02-02T13:25:46Z</time>
      </trkpt>
      <trkpt lat="49.92849" lon="2.2191">
        <ele>14.2</ele>
        <time>2022-02-02T13:25:47Z</time>
      </trkpt>
      <trkpt lat="49.92848" lon="2.21912">
        <ele>14.2</ele>
        <time>2022-02-02T13:25:48Z</time>
      </trkpt>
      <trkpt lat="49.92847" lon="2.21914">
        <ele>14.2</ele>
        <time>2022-02-02T13:25:49Z</time>
      </trkpt>
      <trkpt lat="49.92846" lon="2.21916">
        <ele>14.2</ele>
        <time>2022-02-02T13:25:50Z</time>
      </trkpt>
      <trkpt lat="49.92844" lon="2.21918">
        <ele>14.2</ele>
        <time>2022-02-02T13:25:51Z</time>
      </trkpt>
      <trkpt lat="49.92844" lon="2.21919">
        <ele>14.2</ele>
        <time>2022-02-02T13:25:52Z</time>
      </trkpt>
      <trkpt lat="49.92843" lon="2.2192">
        <ele>14.2</ele>
        <time>2022-02-02T13:25:53Z</time>
      </trkpt>
      <trkpt lat="49.92842" lon="2.21923">
        <ele>14.2</ele>
        <time>2022-02-02T13:25:55Z</time>
      </trkpt>
      <trkpt lat="49.92841" lon="2.21924">
        <ele>14.2</ele>
        <time>2022-02-02T13:25:56Z</time>
      </trkpt>
      <trkpt lat="49.92841" lon="2.21925">
        <ele>14.2</ele>
        <time>2022-02-02T13:25:57Z</time>
      </trkpt>
      <trkpt lat="49.9284" lon="2.21928">
        <ele>14.2</ele>
        <time>2022-02-02T13:25:58Z</time>
      </trkpt>
      <trkpt lat="49.92839" lon="2.21929">
        <ele>14.2</ele>
        <time>2022-02-02T13:26:00Z</time>
      </trkpt>
      <trkpt lat="49.92839" lon="2.2193">
        <ele>14.2</ele>
        <time>2022-02-02T13:26:01Z</time>
      </trkpt>
      <trkpt lat="49.92837" lon="2.21932">
        <ele>14.2</ele>
        <time>2022-02-02T13:26:02Z</time>
      </trkpt>
      <trkpt lat="49.92837" lon="2.21933">
        <ele>14.2</ele>
        <time>2022-02-02T13:26:03Z</time>
      </trkpt>
      <trkpt lat="49.92836" lon="2.21935">
        <ele>14.2</ele>
        <time>2022-02-02T13:26:04Z</time>
      </trkpt>
      <trkpt lat="49.92836" lon="2.21936">
        <ele>14.2</ele>
        <time>2022-02-02T13:26:05Z</time>
      </trkpt>
      <trkpt lat="49.92835" lon="2.21938">
        <ele>14.2</ele>
        <time>2022-02-02T13:26:06Z</time>
      </trkpt>
      <trkpt lat="49.92834" lon="2.2194">
        <ele>14.2</ele>
        <time>2022-02-02T13:26:07Z</time>
      </trkpt>
      <trkpt lat="49.92833" lon="2.21942">
        <ele>14.2</ele>
        <time>2022-02-02T13:26:08Z</time>
      </trkpt>
      <trkpt lat="49.92832" lon="2.21944">
        <ele>14.2</ele>
        <time>2022-02-02T13:26:10Z</time>
      </trkpt>
      <trkpt lat="49.92832" lon="2.21946">
        <ele>14.2</ele>
        <time>2022-02-02T13:26:11Z</time>
      </trkpt>
      <trkpt lat="49.92831" lon="2.21948">
        <ele>14.2</ele>
        <time>2022-02-02T13:26:12Z</time>
      </trkpt>
      <trkpt lat="49.9283" lon="2.21951">
        <ele>14.2</ele>
        <time>2022-02-02T13:26:13Z</time>
      </trkpt>
      <trkpt lat="49.92829" lon="2.21952">
        <ele>14.2</ele>
        <time>2022-02-02T13:26:14Z</time>
      </trkpt>
      <trkpt lat="49.92828" lon="2.21954">
        <ele>14.2</ele>
        <time>2022-02-02T13:26:15Z</time>
      </trkpt>
      <trkpt lat="49.92828" lon="2.21956">
        <ele>14.2</ele>
        <time>2022-02-02T13:26:16Z</time>
      </trkpt>
      <trkpt lat="49.92827" lon="2.21958">
        <ele>14.2</ele>
        <time>2022-02-02T13:26:17Z</time>
      </trkpt>
      <trkpt lat="49.92826" lon="2.2196">
        <ele>14.2</ele>
        <time>2022-02-02T13:26:18Z</time>
      </trkpt>
      <trkpt lat="49.92825" lon="2.21962">
        <ele>14.2</ele>
        <time>2022-02-02T13:26:19Z</time>
      </trkpt>
      <trkpt lat="49.92824" lon="2.21963">
        <ele>14.2</ele>
        <time>2022-02-02T13:26:20Z</time>
      </trkpt>
      <trkpt lat="49.92823" lon="2.21965">
        <ele>14.2</ele>
        <time>2022-02-02T13:26:21Z</time>
      </trkpt>
      <trkpt lat="49.92822" lon="2.21967">
        <ele>14.2</ele>
        <time>2022-02-02T13:26:23Z</time>
      </trkpt>
      <trkpt lat="49.92822" lon="2.21969">
        <ele>14.2</ele>
        <time>2022-02-02T13:26:24Z</time>
      </trkpt>
      <trkpt lat="49.92821" lon="2.2197">
        <ele>14.2</ele>
        <time>2022-02-02T13:26:25Z</time>
      </trkpt>
      <trkpt lat="49.9282" lon="2.21972">
        <ele>14.2</ele>
        <time>2022-02-02T13:26:26Z</time>
      </trkpt>
      <trkpt lat="49.92819" lon="2.21974">
        <ele>14.2</ele>
        <time>2022-02-02T13:26:27Z</time>
      </trkpt>
      <trkpt lat="49.92818" lon="2.21976">
        <ele>14.2</ele>
        <time>2022-02-02T13:26:28Z</time>
      </trkpt>
      <trkpt lat="49.92818" lon="2.21978">
        <ele>14.2</ele>
        <time>2022-02-02T13:26:29Z</time>
      </trkpt>
      <trkpt lat="49.92816" lon="2.21981">
        <ele>14.2</ele>
        <time>2022-02-02T13:26:30Z</time>
      </trkpt>
      <trkpt lat="49.92816" lon="2.21982">
        <ele>14.2</ele>
        <time>2022-02-02T13:26:32Z</time>
      </trkpt>
      <trkpt lat="49.92815" lon="2.21983">
        <ele>14.2</ele>
        <time>2022-02-02T13:26:33Z</time>
      </trkpt>
      <trkpt lat="49.92814" lon="2.21985">
        <ele>14.2</ele>
        <time>2022-02-02T13:26:34Z</time>
      </trkpt>
      <trkpt lat="49.92813" lon="2.21986">
        <ele>14.2</ele>
        <time>2022-02-02T13:26:35Z</time>
      </trkpt>
      <trkpt lat="49.92812" lon="2.21988">
        <ele>14.2</ele>
        <time>2022-02-02T13:26:36Z</time>
      </trkpt>
      <trkpt lat="49.92812" lon="2.2199">
        <ele>14.2</ele>
        <time>2022-02-02T13:26:37Z</time>
      </trkpt>
      <trkpt lat="49.92811" lon="2.21991">
        <ele>14.2</ele>
        <time>2022-02-02T13:26:38Z</time>
      </trkpt>
      <trkpt lat="49.92811" lon="2.21993">
        <ele>14.2</ele>
        <time>2022-02-02T13:26:40Z</time>
      </trkpt>
      <trkpt lat="49.9281" lon="2.21995">
        <ele>14.2</ele>
        <time>2022-02-02T13:26:41Z</time>
      </trkpt>
      <trkpt lat="49.9281" lon="2.21996">
        <ele>14.2</ele>
        <time>2022-02-02T13:26:42Z</time>
      </trkpt>
      <trkpt lat="49.9281" lon="2.21998">
        <ele>14.2</ele>
        <time>2022-02-02T13:26:43Z</time>
      </trkpt>
      <trkpt lat="49.9281" lon="2.21999">
        <ele>14.2</ele>
        <time>2022-02-02T13:26:44Z</time>
      </trkpt>
      <trkpt lat="49.9281" lon="2.22">
        <ele>14.2</ele>
        <time>2022-02-02T13:26:46Z</time>
      </trkpt>
      <trkpt lat="49.92811" lon="2.22001">
        <ele>14.3</ele>
        <time>2022-02-02T13:26:47Z</time>
      </trkpt>
      <trkpt lat="49.92812" lon="2.22002">
        <ele>14.3</ele>
        <time>2022-02-02T13:26:48Z</time>
      </trkpt>
      <trkpt lat="49.92813" lon="2.22002">
        <ele>14.2</ele>
        <time>2022-02-02T13:26:49Z</time>
      </trkpt>
      <trkpt lat="49.92814" lon="2.22003">
        <ele>14.2</ele>
        <time>2022-02-02T13:26:50Z</time>
      </trkpt>
      <trkpt lat="49.92815" lon="2.22003">
        <ele>14.2</ele>
        <time>2022-02-02T13:26:51Z</time>
      </trkpt>
      <trkpt lat="49.92816" lon="2.22003">
        <ele>14.2</ele>
        <time>2022-02-02T13:26:52Z</time>
      </trkpt>
      <trkpt lat="49.92817" lon="2.22003">
        <ele>14.2</ele>
        <time>2022-02-02T13:26:53Z</time>
      </trkpt>
      <trkpt lat="49.92818" lon="2.22003">
        <ele>14.2</ele>
        <time>2022-02-02T13:26:54Z</time>
      </trkpt>
      <trkpt lat="49.9282" lon="2.22003">
        <ele>14.2</ele>
        <time>2022-02-02T13:26:55Z</time>
      </trkpt>
      <trkpt lat="49.92821" lon="2.22003">
        <ele>14.2</ele>
        <time>2022-02-02T13:26:56Z</time>
      </trkpt>
      <trkpt lat="49.92822" lon="2.22003">
        <ele>14.2</ele>
        <time>2022-02-02T13:26:57Z</time>
      </trkpt>
      <trkpt lat="49.92823" lon="2.22003">
        <ele>14.1</ele>
        <time>2022-02-02T13:26:58Z</time>
      </trkpt>
      <trkpt lat="49.92824" lon="2.22003">
        <ele>14.1</ele>
        <time>2022-02-02T13:26:59Z</time>
      </trkpt>
      <trkpt lat="49.92825" lon="2.22004">
        <ele>14.1</ele>
        <time>2022-02-02T13:27:01Z</time>
      </trkpt>
      <trkpt lat="49.92826" lon="2.22005">
        <ele>14.1</ele>
        <time>2022-02-02T13:27:02Z</time>
      </trkpt>
      <trkpt lat="49.92826" lon="2.22005">
        <ele>14.2</ele>
        <time>2022-02-02T13:27:03Z</time>
      </trkpt>
      <trkpt lat="49.92827" lon="2.22006">
        <ele>14.2</ele>
        <time>2022-02-02T13:27:04Z</time>
      </trkpt>
      <trkpt lat="49.92828" lon="2.22007">
        <ele>14.2</ele>
        <time>2022-02-02T13:27:05Z</time>
      </trkpt>
      <trkpt lat="49.92829" lon="2.22008">
        <ele>14.2</ele>
        <time>2022-02-02T13:27:06Z</time>
      </trkpt>
      <trkpt lat="49.9283" lon="2.22009">
        <ele>14.1</ele>
        <time>2022-02-02T13:27:08Z</time>
      </trkpt>
      <trkpt lat="49.9283" lon="2.22009">
        <ele>14.1</ele>
        <time>2022-02-02T13:27:09Z</time>
      </trkpt>
      <trkpt lat="49.92831" lon="2.22011">
        <ele>14.2</ele>
        <time>2022-02-02T13:27:10Z</time>
      </trkpt>
      <trkpt lat="49.92831" lon="2.22012">
        <ele>14.2</ele>
        <time>2022-02-02T13:27:11Z</time>
      </trkpt>
      <trkpt lat="49.92833" lon="2.22014">
        <ele>14.2</ele>
        <time>2022-02-02T13:27:12Z</time>
      </trkpt>
      <trkpt lat="49.92834" lon="2.22014">
        <ele>14.3</ele>
        <time>2022-02-02T13:27:13Z</time>
      </trkpt>
      <trkpt lat="49.92835" lon="2.22015">
        <ele>14.3</ele>
        <time>2022-02-02T13:27:14Z</time>
      </trkpt>
      <trkpt lat="49.92835" lon="2.22015">
        <ele>14.3</ele>
        <time>2022-02-02T13:27:16Z</time>
      </trkpt>
      <trkpt lat="49.92836" lon="2.22016">
        <ele>14.2</ele>
        <time>2022-02-02T13:27:17Z</time>
      </trkpt>
      <trkpt lat="49.92836" lon="2.22017">
        <ele>14.2</ele>
        <time>2022-02-02T13:27:18Z</time>
      </trkpt>
      <trkpt lat="49.92837" lon="2.22018">
        <ele>14.2</ele>
        <time>2022-02-02T13:27:19Z</time>
      </trkpt>
      <trkpt lat="49.92838" lon="2.2202">
        <ele>14.4</ele>
        <time>2022-02-02T13:27:20Z</time>
      </trkpt>
      <trkpt lat="49.92838" lon="2.22021">
        <ele>14.3</ele>
        <time>2022-02-02T13:27:22Z</time>
      </trkpt>
      <trkpt lat="49.92838" lon="2.22022">
        <ele>14.3</ele>
        <time>2022-02-02T13:27:23Z</time>
      </trkpt>
      <trkpt lat="49.92839" lon="2.22024">
        <ele>14.4</ele>
        <time>2022-02-02T13:27:24Z</time>
      </trkpt>
      <trkpt lat="49.92839" lon="2.22025">
        <ele>14.4</ele>
        <time>2022-02-02T13:27:26Z</time>
      </trkpt>
      <trkpt lat="49.9284" lon="2.22025">
        <ele>14.4</ele>
        <time>2022-02-02T13:27:27Z</time>
      </trkpt>
      <trkpt lat="49.9284" lon="2.22026">
        <ele>14.4</ele>
        <time>2022-02-02T13:27:28Z</time>
      </trkpt>
      <trkpt lat="49.92841" lon="2.22027">
        <ele>14.5</ele>
        <time>2022-02-02T13:27:29Z</time>
      </trkpt>
      <trkpt lat="49.92841" lon="2.22028">
        <ele>14.5</ele>
        <time>2022-02-02T13:27:30Z</time>
      </trkpt>
      <trkpt lat="49.92841" lon="2.2203">
        <ele>14.5</ele>
        <time>2022-02-02T13:27:32Z</time>
      </trkpt>
      <trkpt lat="49.92841" lon="2.22031">
        <ele>14.4</ele>
        <time>2022-02-02T13:27:33Z</time>
      </trkpt>
      <trkpt lat="49.92841" lon="2.22031">
        <ele>14.7</ele>
        <time>2022-02-02T13:27:34Z</time>
      </trkpt>
      <trkpt lat="49.92841" lon="2.22032">
        <ele>14.7</ele>
        <time>2022-02-02T13:27:35Z</time>
      </trkpt>
      <trkpt lat="49.92842" lon="2.22031">
        <ele>14.7</ele>
        <time>2022-02-02T13:27:36Z</time>
      </trkpt>
      <trkpt lat="49.92842" lon="2.22031">
        <ele>14.4</ele>
        <time>2022-02-02T13:27:37Z</time>
      </trkpt>
      <trkpt lat="49.92843" lon="2.2203">
        <ele>14.4</ele>
        <time>2022-02-02T13:27:38Z</time>
      </trkpt>
      <trkpt lat="49.92843" lon="2.22029">
        <ele>14.3</ele>
        <time>2022-02-02T13:27:39Z</time>
      </trkpt>
      <trkpt lat="49.92844" lon="2.22029">
        <ele>14.3</ele>
        <time>2022-02-02T13:27:41Z</time>
      </trkpt>
      <trkpt lat="49.92845" lon="2.2203">
        <ele>14.3</ele>
        <time>2022-02-02T13:27:42Z</time>
      </trkpt>
      <trkpt lat="49.92845" lon="2.2203">
        <ele>14.2</ele>
        <time>2022-02-02T13:27:43Z</time>
      </trkpt>
      <trkpt lat="49.92846" lon="2.22031">
        <ele>14.2</ele>
        <time>2022-02-02T13:27:44Z</time>
      </trkpt>
      <trkpt lat="49.92847" lon="2.22031">
        <ele>14.3</ele>
        <time>2022-02-02T13:27:45Z</time>
      </trkpt>
      <trkpt lat="49.92848" lon="2.22032">
        <ele>14.3</ele>
        <time>2022-02-02T13:27:46Z</time>
      </trkpt>
      <trkpt lat="49.92849" lon="2.22032">
        <ele>14.2</ele>
        <time>2022-02-02T13:27:47Z</time>
      </trkpt>
      <trkpt lat="49.9285" lon="2.22032">
        <ele>14.2</ele>
        <time>2022-02-02T13:27:48Z</time>
      </trkpt>
      <trkpt lat="49.92851" lon="2.22033">
        <ele>14.2</ele>
        <time>2022-02-02T13:27:49Z</time>
      </trkpt>
      <trkpt lat="49.92852" lon="2.22034">
        <ele>14.2</ele>
        <time>2022-02-02T13:27:51Z</time>
      </trkpt>
      <trkpt lat="49.92853" lon="2.22034">
        <ele>14.1</ele>
        <time>2022-02-02T13:27:52Z</time>
      </trkpt>
      <trkpt lat="49.92853" lon="2.22035">
        <ele>14</ele>
        <time>2022-02-02T13:27:53Z</time>
      </trkpt>
      <trkpt lat="49.92854" lon="2.22035">
        <ele>14</ele>
        <time>2022-02-02T13:27:54Z</time>
      </trkpt>
      <trkpt lat="49.92855" lon="2.22036">
        <ele>14.2</ele>
        <time>2022-02-02T13:27:55Z</time>
      </trkpt>
      <trkpt lat="49.92856" lon="2.22037">
        <ele>14.1</ele>
        <time>2022-02-02T13:27:56Z</time>
      </trkpt>
      <trkpt lat="49.92857" lon="2.22037">
        <ele>14.1</ele>
        <time>2022-02-02T13:27:57Z</time>
      </trkpt>
      <trkpt lat="49.92858" lon="2.22037">
        <ele>14</ele>
        <time>2022-02-02T13:27:58Z</time>
      </trkpt>
      <trkpt lat="49.92858" lon="2.22038">
        <ele>14</ele>
        <time>2022-02-02T13:27:59Z</time>
      </trkpt>
      <trkpt lat="49.92859" lon="2.22039">
        <ele>14</ele>
        <time>2022-02-02T13:28:00Z</time>
      </trkpt>
      <trkpt lat="49.92859" lon="2.22041">
        <ele>14.2</ele>
        <time>2022-02-02T13:28:01Z</time>
      </trkpt>
      <trkpt lat="49.92859" lon="2.22042">
        <ele>14.2</ele>
        <time>2022-02-02T13:28:02Z</time>
      </trkpt>
      <trkpt lat="49.9286" lon="2.22044">
        <ele>14.4</ele>
        <time>2022-02-02T13:28:03Z</time>
      </trkpt>
      <trkpt lat="49.92861" lon="2.22046">
        <ele>14.4</ele>
        <time>2022-02-02T13:28:04Z</time>
      </trkpt>
      <trkpt lat="49.92861" lon="2.22047">
        <ele>14.4</ele>
        <time>2022-02-02T13:28:06Z</time>
      </trkpt>
      <trkpt lat="49.92863" lon="2.2205">
        <ele>14.7</ele>
        <time>2022-02-02T13:28:07Z</time>
      </trkpt>
      <trkpt lat="49.92863" lon="2.22051">
        <ele>14.5</ele>
        <time>2022-02-02T13:28:08Z</time>
      </trkpt>
      <trkpt lat="49.92864" lon="2.22052">
        <ele>14.5</ele>
        <time>2022-02-02T13:28:09Z</time>
      </trkpt>
      <trkpt lat="49.92864" lon="2.22054">
        <ele>14.8</ele>
        <time>2022-02-02T13:28:10Z</time>
      </trkpt>
      <trkpt lat="49.92865" lon="2.22055">
        <ele>14.8</ele>
        <time>2022-02-02T13:28:11Z</time>
      </trkpt>
      <trkpt lat="49.92867" lon="2.22058">
        <ele>15</ele>
        <time>2022-02-02T13:28:12Z</time>
      </trkpt>
      <trkpt lat="49.92867" lon="2.22059">
        <ele>15</ele>
        <time>2022-02-02T13:28:14Z</time>
      </trkpt>
      <trkpt lat="49.92868" lon="2.2206">
        <ele>15</ele>
        <time>2022-02-02T13:28:15Z</time>
      </trkpt>
      <trkpt lat="49.92869" lon="2.22061">
        <ele>14.8</ele>
        <time>2022-02-02T13:28:16Z</time>
      </trkpt>
      <trkpt lat="49.92869" lon="2.22062">
        <ele>15.2</ele>
        <time>2022-02-02T13:28:17Z</time>
      </trkpt>
      <trkpt lat="49.9287" lon="2.22063">
        <ele>15.2</ele>
        <time>2022-02-02T13:28:18Z</time>
      </trkpt>
      <trkpt lat="49.92871" lon="2.22065">
        <ele>15</ele>
        <time>2022-02-02T13:28:19Z</time>
      </trkpt>
      <trkpt lat="49.92872" lon="2.22067">
        <ele>15.5</ele>
        <time>2022-02-02T13:28:20Z</time>
      </trkpt>
      <trkpt lat="49.92873" lon="2.22068">
        <ele>15.5</ele>
        <time>2022-02-02T13:28:22Z</time>
      </trkpt>
      <trkpt lat="49.92874" lon="2.2207">
        <ele>16</ele>
        <time>2022-02-02T13:28:23Z</time>
      </trkpt>
      <trkpt lat="49.92875" lon="2.22071">
        <ele>16</ele>
        <time>2022-02-02T13:28:24Z</time>
      </trkpt>
      <trkpt lat="49.92876" lon="2.22073">
        <ele>16</ele>
        <time>2022-02-02T13:28:25Z</time>
      </trkpt>
      <trkpt lat="49.92877" lon="2.22074">
        <ele>15.9</ele>
        <time>2022-02-02T13:28:26Z</time>
      </trkpt>
      <trkpt lat="49.92879" lon="2.22075">
        <ele>16.7</ele>
        <time>2022-02-02T13:28:27Z</time>
      </trkpt>
      <trkpt lat="49.92881" lon="2.22078">
        <ele>16.6</ele>
        <time>2022-02-02T13:28:29Z</time>
      </trkpt>
      <trkpt lat="49.92882" lon="2.22079">
        <ele>17.6</ele>
        <time>2022-02-02T13:28:30Z</time>
      </trkpt>
      <trkpt lat="49.92883" lon="2.22081">
        <ele>17.6</ele>
        <time>2022-02-02T13:28:31Z</time>
      </trkpt>
      <trkpt lat="49.92883" lon="2.22083">
        <ele>17.6</ele>
        <time>2022-02-02T13:28:32Z</time>
      </trkpt>
      <trkpt lat="49.92885" lon="2.22085">
        <ele>18.6</ele>
        <time>2022-02-02T13:28:33Z</time>
      </trkpt>
      <trkpt lat="49.92885" lon="2.22087">
        <ele>18.7</ele>
        <time>2022-02-02T13:28:34Z</time>
      </trkpt>
      <trkpt lat="49.92886" lon="2.22088">
        <ele>19.7</ele>
        <time>2022-02-02T13:28:35Z</time>
      </trkpt>
      <trkpt lat="49.92887" lon="2.2209">
        <ele>19.6</ele>
        <time>2022-02-02T13:28:36Z</time>
      </trkpt>
      <trkpt lat="49.92888" lon="2.22092">
        <ele>20.7</ele>
        <time>2022-02-02T13:28:37Z</time>
      </trkpt>
      <trkpt lat="49.92889" lon="2.22094">
        <ele>20.7</ele>
        <time>2022-02-02T13:28:38Z</time>
      </trkpt>
      <trkpt lat="49.92889" lon="2.22095">
        <ele>20.7</ele>
        <time>2022-02-02T13:28:39Z</time>
      </trkpt>
      <trkpt lat="49.9289" lon="2.22098">
        <ele>21.7</ele>
        <time>2022-02-02T13:28:41Z</time>
      </trkpt>
      <trkpt lat="49.92891" lon="2.221">
        <ele>21.7</ele>
        <time>2022-02-02T13:28:42Z</time>
      </trkpt>
      <trkpt lat="49.92892" lon="2.22101">
        <ele>22.3</ele>
        <time>2022-02-02T13:28:43Z</time>
      </trkpt>
      <trkpt lat="49.92893" lon="2.22102">
        <ele>22.3</ele>
        <time>2022-02-02T13:28:44Z</time>
      </trkpt>
      <trkpt lat="49.92893" lon="2.22104">
        <ele>22.5</ele>
        <time>2022-02-02T13:28:45Z</time>
      </trkpt>
      <trkpt lat="49.92894" lon="2.22105">
        <ele>23</ele>
        <time>2022-02-02T13:28:46Z</time>
      </trkpt>
      <trkpt lat="49.92895" lon="2.22106">
        <ele>23</ele>
        <time>2022-02-02T13:28:47Z</time>
      </trkpt>
      <trkpt lat="49.92896" lon="2.22107">
        <ele>23.2</ele>
        <time>2022-02-02T13:28:48Z</time>
      </trkpt>
      <trkpt lat="49.92898" lon="2.2211">
        <ele>23.6</ele>
        <time>2022-02-02T13:28:49Z</time>
      </trkpt>
      <trkpt lat="49.92898" lon="2.22111">
        <ele>23.6</ele>
        <time>2022-02-02T13:28:50Z</time>
      </trkpt>
      <trkpt lat="49.92899" lon="2.22112">
        <ele>23.8</ele>
        <time>2022-02-02T13:28:51Z</time>
      </trkpt>
      <trkpt lat="49.929" lon="2.22113">
        <ele>24</ele>
        <time>2022-02-02T13:28:52Z</time>
      </trkpt>
      <trkpt lat="49.929" lon="2.22114">
        <ele>24</ele>
        <time>2022-02-02T13:28:54Z</time>
      </trkpt>
      <trkpt lat="49.92901" lon="2.22116">
        <ele>24</ele>
        <time>2022-02-02T13:28:55Z</time>
      </trkpt>
      <trkpt lat="49.92902" lon="2.22117">
        <ele>24.2</ele>
        <time>2022-02-02T13:28:56Z</time>
      </trkpt>
      <trkpt lat="49.92902" lon="2.22118">
        <ele>24.4</ele>
        <time>2022-02-02T13:28:57Z</time>
      </trkpt>
      <trkpt lat="49.92903" lon="2.22119">
        <ele>24.4</ele>
        <time>2022-02-02T13:28:58Z</time>
      </trkpt>
      <trkpt lat="49.92904" lon="2.22119">
        <ele>24.6</ele>
        <time>2022-02-02T13:28:59Z</time>
      </trkpt>
      <trkpt lat="49.92905" lon="2.2212">
        <ele>24.6</ele>
        <time>2022-02-02T13:29:00Z</time>
      </trkpt>
      <trkpt lat="49.92906" lon="2.2212">
        <ele>24.6</ele>
        <time>2022-02-02T13:29:02Z</time>
      </trkpt>
      <trkpt lat="49.92907" lon="2.22121">
        <ele>24.8</ele>
        <time>2022-02-02T13:29:03Z</time>
      </trkpt>
      <trkpt lat="49.92908" lon="2.22122">
        <ele>24.9</ele>
        <time>2022-02-02T13:29:04Z</time>
      </trkpt>
      <trkpt lat="49.92908" lon="2.22122">
        <ele>24.9</ele>
        <time>2022-02-02T13:29:05Z</time>
      </trkpt>
      <trkpt lat="49.92908" lon="2.22124">
        <ele>24.9</ele>
        <time>2022-02-02T13:29:06Z</time>
      </trkpt>
      <trkpt lat="49.92909" lon="2.22125">
        <ele>24.9</ele>
        <time>2022-02-02T13:29:07Z</time>
      </trkpt>
      <trkpt lat="49.9291" lon="2.22127">
        <ele>25.1</ele>
        <time>2022-02-02T13:29:08Z</time>
      </trkpt>
      <trkpt lat="49.9291" lon="2.22129">
        <ele>25.3</ele>
        <time>2022-02-02T13:29:10Z</time>
      </trkpt>
      <trkpt lat="49.9291" lon="2.22132">
        <ele>25.2</ele>
        <time>2022-02-02T13:29:11Z</time>
      </trkpt>
      <trkpt lat="49.92909" lon="2.22133">
        <ele>25.2</ele>
        <time>2022-02-02T13:29:12Z</time>
      </trkpt>
      <trkpt lat="49.92908" lon="2.22134">
        <ele>25.2</ele>
        <time>2022-02-02T13:29:13Z</time>
      </trkpt>
      <trkpt lat="49.92908" lon="2.22136">
        <ele>25.3</ele>
        <time>2022-02-02T13:29:14Z</time>
      </trkpt>
      <trkpt lat="49.92908" lon="2.22137">
        <ele>25.3</ele>
        <time>2022-02-02T13:29:15Z</time>
      </trkpt>
      <trkpt lat="49.92907" lon="2.22139">
        <ele>25.4</ele>
        <time>2022-02-02T13:29:17Z</time>
      </trkpt>
      <trkpt lat="49.92906" lon="2.22141">
        <ele>25.2</ele>
        <time>2022-02-02T13:29:18Z</time>
      </trkpt>
      <trkpt lat="49.92906" lon="2.22142">
        <ele>25.1</ele>
        <time>2022-02-02T13:29:19Z</time>
      </trkpt>
      <trkpt lat="49.92905" lon="2.22143">
        <ele>25.3</ele>
        <time>2022-02-02T13:29:20Z</time>
      </trkpt>
      <trkpt lat="49.92903" lon="2.22144">
        <ele>25</ele>
        <time>2022-02-02T13:29:21Z</time>
      </trkpt>
      <trkpt lat="49.92902" lon="2.22146">
        <ele>25</ele>
        <time>2022-02-02T13:29:22Z</time>
      </trkpt>
      <trkpt lat="49.92901" lon="2.22148">
        <ele>24.9</ele>
        <time>2022-02-02T13:29:23Z</time>
      </trkpt>
      <trkpt lat="49.929" lon="2.22149">
        <ele>24.9</ele>
        <time>2022-02-02T13:29:25Z</time>
      </trkpt>
      <trkpt lat="49.929" lon="2.2215">
        <ele>24.9</ele>
        <time>2022-02-02T13:29:26Z</time>
      </trkpt>
      <trkpt lat="49.92899" lon="2.22153">
        <ele>24.9</ele>
        <time>2022-02-02T13:29:27Z</time>
      </trkpt>
      <trkpt lat="49.92898" lon="2.22154">
        <ele>24.7</ele>
        <time>2022-02-02T13:29:28Z</time>
      </trkpt>
      <trkpt lat="49.92898" lon="2.22156">
        <ele>24.8</ele>
        <time>2022-02-02T13:29:29Z</time>
      </trkpt>
      <trkpt lat="49.92897" lon="2.22158">
        <ele>24.8</ele>
        <time>2022-02-02T13:29:30Z</time>
      </trkpt>
      <trkpt lat="49.92897" lon="2.22159">
        <ele>24.8</ele>
        <time>2022-02-02T13:29:32Z</time>
      </trkpt>
      <trkpt lat="49.92897" lon="2.22162">
        <ele>24.8</ele>
        <time>2022-02-02T13:29:33Z</time>
      </trkpt>
      <trkpt lat="49.92897" lon="2.22164">
        <ele>24.8</ele>
        <time>2022-02-02T13:29:34Z</time>
      </trkpt>
      <trkpt lat="49.92897" lon="2.22166">
        <ele>24.9</ele>
        <time>2022-02-02T13:29:35Z</time>
      </trkpt>
      <trkpt lat="49.92897" lon="2.22169">
        <ele>24.9</ele>
        <time>2022-02-02T13:29:36Z</time>
      </trkpt>
      <trkpt lat="49.92897" lon="2.22171">
        <ele>24.9</ele>
        <time>2022-02-02T13:29:37Z</time>
      </trkpt>
      <trkpt lat="49.92897" lon="2.22172">
        <ele>24.9</ele>
        <time>2022-02-02T13:29:38Z</time>
      </trkpt>
      <trkpt lat="49.92896" lon="2.22174">
        <ele>25</ele>
        <time>2022-02-02T13:29:40Z</time>
      </trkpt>
      <trkpt lat="49.92896" lon="2.22176">
        <ele>24.9</ele>
        <time>2022-02-02T13:29:41Z</time>
      </trkpt>
      <trkpt lat="49.92896" lon="2.22177">
        <ele>24.7</ele>
        <time>2022-02-02T13:29:42Z</time>
      </trkpt>
      <trkpt lat="49.92895" lon="2.22179">
        <ele>24.7</ele>
        <time>2022-02-02T13:29:43Z</time>
      </trkpt>
      <trkpt lat="49.92895" lon="2.22181">
        <ele>24.7</ele>
        <time>2022-02-02T13:29:44Z</time>
      </trkpt>
      <trkpt lat="49.92895" lon="2.22182">
        <ele>24.7</ele>
        <time>2022-02-02T13:29:45Z</time>
      </trkpt>
      <trkpt lat="49.92895" lon="2.22184">
        <ele>24.7</ele>
        <time>2022-02-02T13:29:46Z</time>
      </trkpt>
      <trkpt lat="49.92894" lon="2.22185">
        <ele>24.7</ele>
        <time>2022-02-02T13:29:47Z</time>
      </trkpt>
      <trkpt lat="49.92894" lon="2.22186">
        <ele>24.7</ele>
        <time>2022-02-02T13:29:48Z</time>
      </trkpt>
      <trkpt lat="49.92894" lon="2.22188">
        <ele>24.7</ele>
        <time>2022-02-02T13:29:50Z</time>
      </trkpt>
      <trkpt lat="49.92894" lon="2.22189">
        <ele>24.7</ele>
        <time>2022-02-02T13:29:51Z</time>
      </trkpt>
      <trkpt lat="49.92895" lon="2.22191">
        <ele>24.7</ele>
        <time>2022-02-02T13:29:52Z</time>
      </trkpt>
      <trkpt lat="49.92895" lon="2.22192">
        <ele>24.7</ele>
        <time>2022-02-02T13:29:53Z</time>
      </trkpt>
      <trkpt lat="49.92895" lon="2.22193">
        <ele>24.6</ele>
        <time>2022-02-02T13:29:54Z</time>
      </trkpt>
      <trkpt lat="49.92895" lon="2.22194">
        <ele>24.6</ele>
        <time>2022-02-02T13:29:55Z</time>
      </trkpt>
      <trkpt lat="49.92894" lon="2.22196">
        <ele>24.6</ele>
        <time>2022-02-02T13:29:56Z</time>
      </trkpt>
      <trkpt lat="49.92894" lon="2.22197">
        <ele>24.6</ele>
        <time>2022-02-02T13:29:58Z</time>
      </trkpt>
      <trkpt lat="49.92893" lon="2.22198">
        <ele>24.6</ele>
        <time>2022-02-02T13:29:59Z</time>
      </trkpt>
      <trkpt lat="49.92893" lon="2.22199">
        <ele>24.3</ele>
        <time>2022-02-02T13:30:00Z</time>
      </trkpt>
      <trkpt lat="49.92893" lon="2.222">
        <ele>24.3</ele>
        <time>2022-02-02T13:30:01Z</time>
      </trkpt>
      <trkpt lat="49.92892" lon="2.22201">
        <ele>24.3</ele>
        <time>2022-02-02T13:30:02Z</time>
      </trkpt>
      <trkpt lat="49.92892" lon="2.22203">
        <ele>24.2</ele>
        <time>2022-02-02T13:30:03Z</time>
      </trkpt>
      <trkpt lat="49.92892" lon="2.22205">
        <ele>24.2</ele>
        <time>2022-02-02T13:30:04Z</time>
      </trkpt>
      <trkpt lat="49.92891" lon="2.22206">
        <ele>24.2</ele>
        <time>2022-02-02T13:30:06Z</time>
      </trkpt>
      <trkpt lat="49.92891" lon="2.22208">
        <ele>24.2</ele>
        <time>2022-02-02T13:30:07Z</time>
      </trkpt>
      <trkpt lat="49.9289" lon="2.2221">
        <ele>24.2</ele>
        <time>2022-02-02T13:30:08Z</time>
      </trkpt>
      <trkpt lat="49.9289" lon="2.22212">
        <ele>23.9</ele>
        <time>2022-02-02T13:30:09Z</time>
      </trkpt>
      <trkpt lat="49.92889" lon="2.22215">
        <ele>23.9</ele>
        <time>2022-02-02T13:30:10Z</time>
      </trkpt>
      <trkpt lat="49.92889" lon="2.22217">
        <ele>23.8</ele>
        <time>2022-02-02T13:30:11Z</time>
      </trkpt>
      <trkpt lat="49.92889" lon="2.2222">
        <ele>23.7</ele>
        <time>2022-02-02T13:30:12Z</time>
      </trkpt>
      <trkpt lat="49.92889" lon="2.22223">
        <ele>23.7</ele>
        <time>2022-02-02T13:30:14Z</time>
      </trkpt>
      <trkpt lat="49.92889" lon="2.22225">
        <ele>23.7</ele>
        <time>2022-02-02T13:30:15Z</time>
      </trkpt>
      <trkpt lat="49.92889" lon="2.22228">
        <ele>23.6</ele>
        <time>2022-02-02T13:30:16Z</time>
      </trkpt>
      <trkpt lat="49.92889" lon="2.2223">
        <ele>23.6</ele>
        <time>2022-02-02T13:30:17Z</time>
      </trkpt>
      <trkpt lat="49.92889" lon="2.22233">
        <ele>23.6</ele>
        <time>2022-02-02T13:30:18Z</time>
      </trkpt>
      <trkpt lat="49.92889" lon="2.22235">
        <ele>23.5</ele>
        <time>2022-02-02T13:30:19Z</time>
      </trkpt>
      <trkpt lat="49.92889" lon="2.22238">
        <ele>23.4</ele>
        <time>2022-02-02T13:30:21Z</time>
      </trkpt>
      <trkpt lat="49.92889" lon="2.2224">
        <ele>23.4</ele>
        <time>2022-02-02T13:30:22Z</time>
      </trkpt>
      <trkpt lat="49.92889" lon="2.22242">
        <ele>23.3</ele>
        <time>2022-02-02T13:30:23Z</time>
      </trkpt>
      <trkpt lat="49.92889" lon="2.22244">
        <ele>23.3</ele>
        <time>2022-02-02T13:30:24Z</time>
      </trkpt>
      <trkpt lat="49.92889" lon="2.22245">
        <ele>23.3</ele>
        <time>2022-02-02T13:30:25Z</time>
      </trkpt>
      <trkpt lat="49.92889" lon="2.22247">
        <ele>23.3</ele>
        <time>2022-02-02T13:30:26Z</time>
      </trkpt>
      <trkpt lat="49.92889" lon="2.22249">
        <ele>23.3</ele>
        <time>2022-02-02T13:30:27Z</time>
      </trkpt>
      <trkpt lat="49.92888" lon="2.22251">
        <ele>23.2</ele>
        <time>2022-02-02T13:30:28Z</time>
      </trkpt>
      <trkpt lat="49.92888" lon="2.22253">
        <ele>23.2</ele>
        <time>2022-02-02T13:30:29Z</time>
      </trkpt>
      <trkpt lat="49.92887" lon="2.22255">
        <ele>23</ele>
        <time>2022-02-02T13:30:31Z</time>
      </trkpt>
      <trkpt lat="49.92886" lon="2.22257">
        <ele>23</ele>
        <time>2022-02-02T13:30:32Z</time>
      </trkpt>
      <trkpt lat="49.92885" lon="2.22259">
        <ele>22.9</ele>
        <time>2022-02-02T13:30:33Z</time>
      </trkpt>
      <trkpt lat="49.92885" lon="2.22261">
        <ele>22.7</ele>
        <time>2022-02-02T13:30:34Z</time>
      </trkpt>
      <trkpt lat="49.92884" lon="2.22263">
        <ele>22.7</ele>
        <time>2022-02-02T13:30:35Z</time>
      </trkpt>
      <trkpt lat="49.92883" lon="2.22265">
        <ele>22.7</ele>
        <time>2022-02-02T13:30:36Z</time>
      </trkpt>
      <trkpt lat="49.92882" lon="2.22267">
        <ele>22.5</ele>
        <time>2022-02-02T13:30:37Z</time>
      </trkpt>
      <trkpt lat="49.92882" lon="2.22268">
        <ele>22.5</ele>
        <time>2022-02-02T13:30:38Z</time>
      </trkpt>
      <trkpt lat="49.9288" lon="2.22271">
        <ele>22.5</ele>
        <time>2022-02-02T13:30:39Z</time>
      </trkpt>
      <trkpt lat="49.9288" lon="2.22273">
        <ele>22.5</ele>
        <time>2022-02-02T13:30:41Z</time>
      </trkpt>
      <trkpt lat="49.92879" lon="2.22274">
        <ele>22.3</ele>
        <time>2022-02-02T13:30:42Z</time>
      </trkpt>
      <trkpt lat="49.92878" lon="2.22275">
        <ele>22.3</ele>
        <time>2022-02-02T13:30:43Z</time>
      </trkpt>
      <trkpt lat="49.92878" lon="2.22277">
        <ele>22.3</ele>
        <time>2022-02-02T13:30:44Z</time>
      </trkpt>
      <trkpt lat="49.92877" lon="2.22278">
        <ele>22.3</ele>
        <time>2022-02-02T13:30:46Z</time>
      </trkpt>
      <trkpt lat="49.92877" lon="2.22279">
        <ele>22.3</ele>
        <time>2022-02-02T13:30:47Z</time>
      </trkpt>
      <trkpt lat="49.92876" lon="2.22281">
        <ele>22.1</ele>
        <time>2022-02-02T13:30:48Z</time>
      </trkpt>
      <trkpt lat="49.92876" lon="2.22282">
        <ele>22.1</ele>
        <time>2022-02-02T13:30:49Z</time>
      </trkpt>
      <trkpt lat="49.92876" lon="2.22284">
        <ele>22.1</ele>
        <time>2022-02-02T13:30:50Z</time>
      </trkpt>
      <trkpt lat="49.92875" lon="2.22285">
        <ele>22.1</ele>
        <time>2022-02-02T13:30:51Z</time>
      </trkpt>
      <trkpt lat="49.92874" lon="2.22287">
        <ele>22.1</ele>
        <time>2022-02-02T13:30:52Z</time>
      </trkpt>
      <trkpt lat="49.92874" lon="2.22288">
        <ele>22.1</ele>
        <time>2022-02-02T13:30:53Z</time>
      </trkpt>
      <trkpt lat="49.92873" lon="2.22288">
        <ele>21.9</ele>
        <time>2022-02-02T13:30:54Z</time>
      </trkpt>
      <trkpt lat="49.92872" lon="2.22289">
        <ele>21.9</ele>
        <time>2022-02-02T13:30:55Z</time>
      </trkpt>
      <trkpt lat="49.92872" lon="2.22288">
        <ele>21.9</ele>
        <time>2022-02-02T13:30:56Z</time>
      </trkpt>
      <trkpt lat="49.92872" lon="2.22289">
        <ele>21.9</ele>
        <time>2022-02-02T13:30:57Z</time>
      </trkpt>
      <trkpt lat="49.92871" lon="2.2229">
        <ele>21.9</ele>
        <time>2022-02-02T13:30:58Z</time>
      </trkpt>
      <trkpt lat="49.92871" lon="2.22291">
        <ele>21.8</ele>
        <time>2022-02-02T13:31:00Z</time>
      </trkpt>
      <trkpt lat="49.92871" lon="2.22292">
        <ele>21.7</ele>
        <time>2022-02-02T13:31:01Z</time>
      </trkpt>
      <trkpt lat="49.9287" lon="2.22292">
        <ele>21.7</ele>
        <time>2022-02-02T13:31:02Z</time>
      </trkpt>
      <trkpt lat="49.9287" lon="2.22293">
        <ele>21.8</ele>
        <time>2022-02-02T13:31:04Z</time>
      </trkpt>
      <trkpt lat="49.9287" lon="2.22293">
        <ele>21.7</ele>
        <time>2022-02-02T13:31:05Z</time>
      </trkpt>
      <trkpt lat="49.9287" lon="2.22293">
        <ele>21.7</ele>
        <time>2022-02-02T13:31:06Z</time>
      </trkpt>
      <trkpt lat="49.92871" lon="2.22294">
        <ele>21.7</ele>
        <time>2022-02-02T13:31:07Z</time>
      </trkpt>
      <trkpt lat="49.92872" lon="2.22295">
        <ele>21.9</ele>
        <time>2022-02-02T13:31:09Z</time>
      </trkpt>
      <trkpt lat="49.92873" lon="2.22296">
        <ele>21.8</ele>
        <time>2022-02-02T13:31:10Z</time>
      </trkpt>
      <trkpt lat="49.92873" lon="2.22297">
        <ele>21.8</ele>
        <time>2022-02-02T13:31:11Z</time>
      </trkpt>
      <trkpt lat="49.92875" lon="2.22297">
        <ele>22</ele>
        <time>2022-02-02T13:31:12Z</time>
      </trkpt>
      <trkpt lat="49.92876" lon="2.22298">
        <ele>22</ele>
        <time>2022-02-02T13:31:13Z</time>
      </trkpt>
      <trkpt lat="49.92877" lon="2.22299">
        <ele>22.1</ele>
        <time>2022-02-02T13:31:15Z</time>
      </trkpt>
      <trkpt lat="49.92878" lon="2.223">
        <ele>22.1</ele>
        <time>2022-02-02T13:31:16Z</time>
      </trkpt>
      <trkpt lat="49.92878" lon="2.22302">
        <ele>22.1</ele>
        <time>2022-02-02T13:31:18Z</time>
      </trkpt>
      <trkpt lat="49.92879" lon="2.22302">
        <ele>22.1</ele>
        <time>2022-02-02T13:31:19Z</time>
      </trkpt>
      <trkpt lat="49.92879" lon="2.22303">
        <ele>22.1</ele>
        <time>2022-02-02T13:31:20Z</time>
      </trkpt>
      <trkpt lat="49.92879" lon="2.22304">
        <ele>22.1</ele>
        <time>2022-02-02T13:31:21Z</time>
      </trkpt>
      <trkpt lat="49.92879" lon="2.22304">
        <ele>22</ele>
        <time>2022-02-02T13:31:22Z</time>
      </trkpt>
      <trkpt lat="49.92878" lon="2.22304">
        <ele>22</ele>
        <time>2022-02-02T13:31:23Z</time>
      </trkpt>
      <trkpt lat="49.92878" lon="2.22304">
        <ele>22</ele>
        <time>2022-02-02T13:31:24Z</time>
      </trkpt>
      <trkpt lat="49.92878" lon="2.22304">
        <ele>22</ele>
        <time>2022-02-02T13:31:25Z</time>
      </trkpt>
      <trkpt lat="49.92877" lon="2.22303">
        <ele>22</ele>
        <time>2022-02-02T13:31:26Z</time>
      </trkpt>
      <trkpt lat="49.92877" lon="2.22303">
        <ele>22</ele>
        <time>2022-02-02T13:31:27Z</time>
      </trkpt>
      <trkpt lat="49.92877" lon="2.22302">
        <ele>22</ele>
        <time>2022-02-02T13:31:28Z</time>
      </trkpt>
      <trkpt lat="49.92877" lon="2.22302">
        <ele>22</ele>
        <time>2022-02-02T13:31:29Z</time>
      </trkpt>
      <trkpt lat="49.92876" lon="2.22301">
        <ele>22</ele>
        <time>2022-02-02T13:31:30Z</time>
      </trkpt>
      <trkpt lat="49.92876" lon="2.22301">
        <ele>22</ele>
        <time>2022-02-02T13:31:31Z</time>
      </trkpt>
      <trkpt lat="49.92876" lon="2.22301">
        <ele>22</ele>
        <time>2022-02-02T13:31:32Z</time>
      </trkpt>
      <trkpt lat="49.92876" lon="2.22301">
        <ele>22</ele>
        <time>2022-02-02T13:31:33Z</time>
      </trkpt>
      <trkpt lat="49.92876" lon="2.223">
        <ele>22</ele>
        <time>2022-02-02T13:31:34Z</time>
      </trkpt>
      <trkpt lat="49.92876" lon="2.223">
        <ele>21.9</ele>
        <time>2022-02-02T13:31:35Z</time>
      </trkpt>
      <trkpt lat="49.92876" lon="2.223">
        <ele>21.9</ele>
        <time>2022-02-02T13:31:36Z</time>
      </trkpt>
      <trkpt lat="49.92876" lon="2.22299">
        <ele>21.9</ele>
        <time>2022-02-02T13:31:37Z</time>
      </trkpt>
      <trkpt lat="49.92876" lon="2.22299">
        <ele>21.9</ele>
        <time>2022-02-02T13:31:38Z</time>
      </trkpt>
      <trkpt lat="49.92876" lon="2.22299">
        <ele>21.9</ele>
        <time>2022-02-02T13:31:39Z</time>
      </trkpt>
      <trkpt lat="49.92876" lon="2.22298">
        <ele>21.9</ele>
        <time>2022-02-02T13:31:40Z</time>
      </trkpt>
      <trkpt lat="49.92876" lon="2.22298">
        <ele>21.9</ele>
        <time>2022-02-02T13:31:41Z</time>
      </trkpt>
      <trkpt lat="49.92876" lon="2.22298">
        <ele>21.9</ele>
        <time>2022-02-02T13:31:42Z</time>
      </trkpt>
      <trkpt lat="49.92876" lon="2.22297">
        <ele>21.9</ele>
        <time>2022-02-02T13:31:43Z</time>
      </trkpt>
      <trkpt lat="49.92876" lon="2.22297">
        <ele>21.9</ele>
        <time>2022-02-02T13:31:44Z</time>
      </trkpt>
      <trkpt lat="49.92876" lon="2.22297">
        <ele>21.9</ele>
        <time>2022-02-02T13:31:45Z</time>
      </trkpt>
      <trkpt lat="49.92876" lon="2.22296">
        <ele>21.9</ele>
        <time>2022-02-02T13:31:46Z</time>
      </trkpt>
      <trkpt lat="49.92876" lon="2.22296">
        <ele>21.9</ele>
        <time>2022-02-02T13:31:47Z</time>
      </trkpt>
      <trkpt lat="49.92876" lon="2.22296">
        <ele>21.9</ele>
        <time>2022-02-02T13:31:48Z</time>
      </trkpt>
      <trkpt lat="49.92876" lon="2.22295">
        <ele>21.9</ele>
        <time>2022-02-02T13:31:49Z</time>
      </trkpt>
      <trkpt lat="49.92876" lon="2.22295">
        <ele>21.9</ele>
        <time>2022-02-02T13:31:50Z</time>
      </trkpt>
      <trkpt lat="49.92876" lon="2.22295">
        <ele>21.9</ele>
        <time>2022-02-02T13:31:51Z</time>
      </trkpt>
      <trkpt lat="49.92875" lon="2.22294">
        <ele>21.8</ele>
        <time>2022-02-02T13:31:52Z</time>
      </trkpt>
      <trkpt lat="49.92875" lon="2.22293">
        <ele>21.8</ele>
        <time>2022-02-02T13:31:53Z</time>
      </trkpt>
      <trkpt lat="49.92875" lon="2.22292">
        <ele>21.8</ele>
        <time>2022-02-02T13:31:54Z</time>
      </trkpt>
      <trkpt lat="49.92874" lon="2.22292">
        <ele>21.8</ele>
        <time>2022-02-02T13:31:55Z</time>
      </trkpt>
      <trkpt lat="49.92875" lon="2.22292">
        <ele>21.8</ele>
        <time>2022-02-02T13:31:56Z</time>
      </trkpt>
      <trkpt lat="49.92875" lon="2.22292">
        <ele>21.8</ele>
        <time>2022-02-02T13:31:57Z</time>
      </trkpt>
      <trkpt lat="49.92875" lon="2.22292">
        <ele>21.8</ele>
        <time>2022-02-02T13:31:58Z</time>
      </trkpt>
      <trkpt lat="49.92875" lon="2.22292">
        <ele>21.8</ele>
        <time>2022-02-02T13:31:59Z</time>
      </trkpt>
      <trkpt lat="49.92875" lon="2.22292">
        <ele>21.8</ele>
        <time>2022-02-02T13:32:00Z</time>
      </trkpt>
      <trkpt lat="49.92875" lon="2.22292">
        <ele>21.8</ele>
        <time>2022-02-02T13:32:01Z</time>
      </trkpt>
      <trkpt lat="49.92875" lon="2.22292">
        <ele>21.8</ele>
        <time>2022-02-02T13:32:02Z</time>
      </trkpt>
      <trkpt lat="49.92875" lon="2.22292">
        <ele>21.8</ele>
        <time>2022-02-02T13:32:03Z</time>
      </trkpt>
      <trkpt lat="49.92875" lon="2.22292">
        <ele>21.8</ele>
        <time>2022-02-02T13:32:04Z</time>
      </trkpt>
      <trkpt lat="49.92875" lon="2.22292">
        <ele>21.8</ele>
        <time>2022-02-02T13:32:05Z</time>
      </trkpt>
      <trkpt lat="49.92875" lon="2.22292">
        <ele>21.8</ele>
        <time>2022-02-02T13:32:06Z</time>
      </trkpt>
      <trkpt lat="49.92875" lon="2.22292">
        <ele>21.8</ele>
        <time>2022-02-02T13:32:07Z</time>
      </trkpt>
      <trkpt lat="49.92875" lon="2.22292">
        <ele>21.8</ele>
        <time>2022-02-02T13:32:08Z</time>
      </trkpt>
      <trkpt lat="49.92875" lon="2.22292">
        <ele>21.8</ele>
        <time>2022-02-02T13:32:09Z</time>
      </trkpt>
      <trkpt lat="49.92875" lon="2.22292">
        <ele>21.8</ele>
        <time>2022-02-02T13:32:10Z</time>
      </trkpt>
      <trkpt lat="49.92875" lon="2.22292">
        <ele>21.8</ele>
        <time>2022-02-02T13:32:11Z</time>
      </trkpt>
      <trkpt lat="49.92875" lon="2.22292">
        <ele>21.8</ele>
        <time>2022-02-02T13:32:12Z</time>
      </trkpt>
      <trkpt lat="49.92875" lon="2.22292">
        <ele>21.8</ele>
        <time>2022-02-02T13:32:13Z</time>
      </trkpt>
      <trkpt lat="49.92875" lon="2.22292">
        <ele>21.8</ele>
        <time>2022-02-02T13:32:14Z</time>
      </trkpt>
      <trkpt lat="49.92875" lon="2.22292">
        <ele>21.8</ele>
        <time>2022-02-02T13:32:15Z</time>
      </trkpt>
      <trkpt lat="49.92875" lon="2.22292">
        <ele>21.8</ele>
        <time>2022-02-02T13:32:16Z</time>
      </trkpt>
      <trkpt lat="49.92875" lon="2.22292">
        <ele>21.8</ele>
        <time>2022-02-02T13:32:17Z</time>
      </trkpt>
      <trkpt lat="49.92875" lon="2.22292">
        <ele>21.8</ele>
        <time>2022-02-02T13:32:18Z</time>
      </trkpt>
      <trkpt lat="49.92875" lon="2.22292">
        <ele>21.8</ele>
        <time>2022-02-02T13:32:19Z</time>
      </trkpt>
      <trkpt lat="49.92875" lon="2.22292">
        <ele>21.8</ele>
        <time>2022-02-02T13:32:20Z</time>
      </trkpt>
      <trkpt lat="49.92875" lon="2.22292">
        <ele>21.8</ele>
        <time>2022-02-02T13:32:21Z</time>
      </trkpt>
      <trkpt lat="49.92875" lon="2.22292">
        <ele>21.8</ele>
        <time>2022-02-02T13:32:22Z</time>
      </trkpt>
      <trkpt lat="49.92875" lon="2.22292">
        <ele>21.8</ele>
        <time>2022-02-02T13:32:23Z</time>
      </trkpt>
      <trkpt lat="49.92875" lon="2.22292">
        <ele>21.8</ele>
        <time>2022-02-02T13:32:24Z</time>
      </trkpt>
      <trkpt lat="49.92875" lon="2.22292">
        <ele>21.8</ele>
        <time>2022-02-02T13:32:25Z</time>
      </trkpt>
      <trkpt lat="49.92875" lon="2.22292">
        <ele>21.8</ele>
        <time>2022-02-02T13:32:26Z</time>
      </trkpt>
      <trkpt lat="49.92875" lon="2.22292">
        <ele>21.8</ele>
        <time>2022-02-02T13:32:27Z</time>
      </trkpt>
      <trkpt lat="49.92875" lon="2.22292">
        <ele>21.8</ele>
        <time>2022-02-02T13:32:28Z</time>
      </trkpt>
      <trkpt lat="49.92875" lon="2.22292">
        <ele>21.8</ele>
        <time>2022-02-02T13:32:29Z</time>
      </trkpt>
      <trkpt lat="49.92875" lon="2.22292">
        <ele>21.8</ele>
        <time>2022-02-02T13:32:30Z</time>
      </trkpt>
      <trkpt lat="49.92875" lon="2.22292">
        <ele>21.8</ele>
        <time>2022-02-02T13:32:31Z</time>
      </trkpt>
      <trkpt lat="49.92875" lon="2.22292">
        <ele>21.8</ele>
        <time>2022-02-02T13:32:32Z</time>
      </trkpt>
      <trkpt lat="49.92875" lon="2.22292">
        <ele>21.8</ele>
        <time>2022-02-02T13:32:33Z</time>
      </trkpt>
      <trkpt lat="49.92875" lon="2.22292">
        <ele>21.8</ele>
        <time>2022-02-02T13:32:34Z</time>
      </trkpt>
      <trkpt lat="49.92875" lon="2.22292">
        <ele>21.8</ele>
        <time>2022-02-02T13:32:35Z</time>
      </trkpt>
      <trkpt lat="49.92875" lon="2.22292">
        <ele>21.8</ele>
        <time>2022-02-02T13:32:36Z</time>
      </trkpt>
      <trkpt lat="49.92875" lon="2.22292">
        <ele>21.8</ele>
        <time>2022-02-02T13:32:37Z</time>
      </trkpt>
      <trkpt lat="49.92875" lon="2.22292">
        <ele>21.8</ele>
        <time>2022-02-02T13:32:38Z</time>
      </trkpt>
      <trkpt lat="49.92875" lon="2.22292">
        <ele>21.8</ele>
        <time>2022-02-02T13:32:39Z</time>
      </trkpt>
      <trkpt lat="49.92875" lon="2.22292">
        <ele>21.8</ele>
        <time>2022-02-02T13:32:40Z</time>
      </trkpt>
      <trkpt lat="49.92875" lon="2.22292">
        <ele>21.8</ele>
        <time>2022-02-02T13:32:41Z</time>
      </trkpt>
      <trkpt lat="49.92875" lon="2.22292">
        <ele>21.8</ele>
        <time>2022-02-02T13:32:42Z</time>
      </trkpt>
      <trkpt lat="49.92875" lon="2.22292">
        <ele>21.8</ele>
        <time>2022-02-02T13:32:43Z</time>
      </trkpt>
      <trkpt lat="49.92875" lon="2.22292">
        <ele>21.8</ele>
        <time>2022-02-02T13:32:44Z</time>
      </trkpt>
      <trkpt lat="49.92875" lon="2.22292">
        <ele>21.8</ele>
        <time>2022-02-02T13:32:45Z</time>
      </trkpt>
      <trkpt lat="49.92875" lon="2.22292">
        <ele>21.8</ele>
        <time>2022-02-02T13:32:46Z</time>
      </trkpt>
      <trkpt lat="49.92875" lon="2.22292">
        <ele>21.8</ele>
        <time>2022-02-02T13:32:47Z</time>
      </trkpt>
      <trkpt lat="49.92875" lon="2.22292">
        <ele>21.8</ele>
        <time>2022-02-02T13:32:48Z</time>
      </trkpt>
      <trkpt lat="49.92875" lon="2.22292">
        <ele>21.8</ele>
        <time>2022-02-02T13:32:49Z</time>
      </trkpt>
      <trkpt lat="49.92875" lon="2.22292">
        <ele>21.8</ele>
        <time>2022-02-02T13:32:50Z</time>
      </trkpt>
      <trkpt lat="49.92875" lon="2.22292">
        <ele>21.8</ele>
        <time>2022-02-02T13:32:51Z</time>
      </trkpt>
      <trkpt lat="49.92875" lon="2.22292">
        <ele>21.8</ele>
        <time>2022-02-02T13:32:52Z</time>
      </trkpt>
      <trkpt lat="49.92875" lon="2.22292">
        <ele>21.8</ele>
        <time>2022-02-02T13:32:53Z</time>
      </trkpt>
      <trkpt lat="49.92875" lon="2.22292">
        <ele>21.8</ele>
        <time>2022-02-02T13:32:54Z</time>
      </trkpt>
      <trkpt lat="49.92875" lon="2.22292">
        <ele>21.8</ele>
        <time>2022-02-02T13:32:55Z</time>
      </trkpt>
      <trkpt lat="49.92875" lon="2.22292">
        <ele>21.8</ele>
        <time>2022-02-02T13:32:56Z</time>
      </trkpt>
      <trkpt lat="49.92875" lon="2.22292">
        <ele>21.8</ele>
        <time>2022-02-02T13:32:57Z</time>
      </trkpt>
      <trkpt lat="49.92875" lon="2.22292">
        <ele>21.8</ele>
        <time>2022-02-02T13:32:58Z</time>
      </trkpt>
      <trkpt lat="49.92876" lon="2.22292">
        <ele>21.8</ele>
        <time>2022-02-02T13:32:59Z</time>
      </trkpt>
      <trkpt lat="49.92876" lon="2.22292">
        <ele>21.8</ele>
        <time>2022-02-02T13:33:00Z</time>
      </trkpt>
      <trkpt lat="49.92876" lon="2.22293">
        <ele>21.8</ele>
        <time>2022-02-02T13:33:01Z</time>
      </trkpt>
      <trkpt lat="49.92876" lon="2.22294">
        <ele>21.8</ele>
        <time>2022-02-02T13:33:02Z</time>
      </trkpt>
      <trkpt lat="49.92876" lon="2.22295">
        <ele>21.7</ele>
        <time>2022-02-02T13:33:03Z</time>
      </trkpt>
      <trkpt lat="49.92876" lon="2.22296">
        <ele>21.7</ele>
        <time>2022-02-02T13:33:04Z</time>
      </trkpt>
      <trkpt lat="49.92876" lon="2.22297">
        <ele>21.7</ele>
        <time>2022-02-02T13:33:05Z</time>
      </trkpt>
      <trkpt lat="49.92876" lon="2.22297">
        <ele>21.7</ele>
        <time>2022-02-02T13:33:06Z</time>
      </trkpt>
      <trkpt lat="49.92876" lon="2.22299">
        <ele>21.7</ele>
        <time>2022-02-02T13:33:07Z</time>
      </trkpt>
      <trkpt lat="49.92876" lon="2.223">
        <ele>21.7</ele>
        <time>2022-02-02T13:33:09Z</time>
      </trkpt>
      <trkpt lat="49.92876" lon="2.22302">
        <ele>21.6</ele>
        <time>2022-02-02T13:33:10Z</time>
      </trkpt>
      <trkpt lat="49.92875" lon="2.22305">
        <ele>21.6</ele>
        <time>2022-02-02T13:33:11Z</time>
      </trkpt>
      <trkpt lat="49.92874" lon="2.22307">
        <ele>21.6</ele>
        <time>2022-02-02T13:33:13Z</time>
      </trkpt>
      <trkpt lat="49.92874" lon="2.2231">
        <ele>21.5</ele>
        <time>2022-02-02T13:33:14Z</time>
      </trkpt>
      <trkpt lat="49.92873" lon="2.22312">
        <ele>21.5</ele>
        <time>2022-02-02T13:33:15Z</time>
      </trkpt>
      <trkpt lat="49.92873" lon="2.22314">
        <ele>21.5</ele>
        <time>2022-02-02T13:33:16Z</time>
      </trkpt>
      <trkpt lat="49.92872" lon="2.22317">
        <ele>21.4</ele>
        <time>2022-02-02T13:33:17Z</time>
      </trkpt>
      <trkpt lat="49.92871" lon="2.22318">
        <ele>21.4</ele>
        <time>2022-02-02T13:33:18Z</time>
      </trkpt>
      <trkpt lat="49.92871" lon="2.2232">
        <ele>21.4</ele>
        <time>2022-02-02T13:33:19Z</time>
      </trkpt>
      <trkpt lat="49.9287" lon="2.22321">
        <ele>21.3</ele>
        <time>2022-02-02T13:33:20Z</time>
      </trkpt>
      <trkpt lat="49.92869" lon="2.22323">
        <ele>21.3</ele>
        <time>2022-02-02T13:33:21Z</time>
      </trkpt>
      <trkpt lat="49.92869" lon="2.22325">
        <ele>21.3</ele>
        <time>2022-02-02T13:33:22Z</time>
      </trkpt>
      <trkpt lat="49.92868" lon="2.22327">
        <ele>21.3</ele>
        <time>2022-02-02T13:33:23Z</time>
      </trkpt>
      <trkpt lat="49.92867" lon="2.2233">
        <ele>21.2</ele>
        <time>2022-02-02T13:33:25Z</time>
      </trkpt>
      <trkpt lat="49.92867" lon="2.22331">
        <ele>21.2</ele>
        <time>2022-02-02T13:33:26Z</time>
      </trkpt>
      <trkpt lat="49.92866" lon="2.22333">
        <ele>21.2</ele>
        <time>2022-02-02T13:33:27Z</time>
      </trkpt>
      <trkpt lat="49.92866" lon="2.22334">
        <ele>21.2</ele>
        <time>2022-02-02T13:33:28Z</time>
      </trkpt>
      <trkpt lat="49.92865" lon="2.22336">
        <ele>21.1</ele>
        <time>2022-02-02T13:33:29Z</time>
      </trkpt>
      <trkpt lat="49.92864" lon="2.22338">
        <ele>21.1</ele>
        <time>2022-02-02T13:33:31Z</time>
      </trkpt>
      <trkpt lat="49.92864" lon="2.2234">
        <ele>21.1</ele>
        <time>2022-02-02T13:33:32Z</time>
      </trkpt>
      <trkpt lat="49.92863" lon="2.22341">
        <ele>21.1</ele>
        <time>2022-02-02T13:33:33Z</time>
      </trkpt>
      <trkpt lat="49.92863" lon="2.22343">
        <ele>21</ele>
        <time>2022-02-02T13:33:34Z</time>
      </trkpt>
      <trkpt lat="49.92862" lon="2.22346">
        <ele>21</ele>
        <time>2022-02-02T13:33:36Z</time>
      </trkpt>
      <trkpt lat="49.92862" lon="2.22347">
        <ele>21</ele>
        <time>2022-02-02T13:33:37Z</time>
      </trkpt>
      <trkpt lat="49.92862" lon="2.22348">
        <ele>21</ele>
        <time>2022-02-02T13:33:38Z</time>
      </trkpt>
      <trkpt lat="49.92861" lon="2.2235">
        <ele>20.9</ele>
        <time>2022-02-02T13:33:39Z</time>
      </trkpt>
      <trkpt lat="49.92861" lon="2.22351">
        <ele>20.9</ele>
        <time>2022-02-02T13:33:40Z</time>
      </trkpt>
      <trkpt lat="49.92861" lon="2.22353">
        <ele>20.9</ele>
        <time>2022-02-02T13:33:41Z</time>
      </trkpt>
      <trkpt lat="49.9286" lon="2.22356">
        <ele>20.8</ele>
        <time>2022-02-02T13:33:42Z</time>
      </trkpt>
      <trkpt lat="49.9286" lon="2.22358">
        <ele>20.8</ele>
        <time>2022-02-02T13:33:43Z</time>
      </trkpt>
      <trkpt lat="49.9286" lon="2.22359">
        <ele>20.8</ele>
        <time>2022-02-02T13:33:44Z</time>
      </trkpt>
      <trkpt lat="49.92859" lon="2.22362">
        <ele>20.7</ele>
        <time>2022-02-02T13:33:45Z</time>
      </trkpt>
      <trkpt lat="49.92859" lon="2.22363">
        <ele>20.7</ele>
        <time>2022-02-02T13:33:47Z</time>
      </trkpt>
      <trkpt lat="49.92858" lon="2.22364">
        <ele>20.7</ele>
        <time>2022-02-02T13:33:48Z</time>
      </trkpt>
      <trkpt lat="49.92858" lon="2.22366">
        <ele>20.6</ele>
        <time>2022-02-02T13:33:49Z</time>
      </trkpt>
      <trkpt lat="49.92857" lon="2.22367">
        <ele>20.6</ele>
        <time>2022-02-02T13:33:50Z</time>
      </trkpt>
      <trkpt lat="49.92857" lon="2.22369">
        <ele>20.6</ele>
        <time>2022-02-02T13:33:51Z</time>
      </trkpt>
      <trkpt lat="49.92856" lon="2.22371">
        <ele>20.6</ele>
        <time>2022-02-02T13:33:52Z</time>
      </trkpt>
      <trkpt lat="49.92855" lon="2.22372">
        <ele>20.5</ele>
        <time>2022-02-02T13:33:53Z</time>
      </trkpt>
      <trkpt lat="49.92854" lon="2.22374">
        <ele>20.5</ele>
        <time>2022-02-02T13:33:55Z</time>
      </trkpt>
      <trkpt lat="49.92854" lon="2.22374">
        <ele>20.5</ele>
        <time>2022-02-02T13:33:56Z</time>
      </trkpt>
      <trkpt lat="49.92853" lon="2.22376">
        <ele>20.4</ele>
        <time>2022-02-02T13:33:57Z</time>
      </trkpt>
      <trkpt lat="49.92852" lon="2.22377">
        <ele>20.4</ele>
        <time>2022-02-02T13:33:58Z</time>
      </trkpt>
      <trkpt lat="49.92851" lon="2.2238">
        <ele>20.3</ele>
        <time>2022-02-02T13:33:59Z</time>
      </trkpt>
      <trkpt lat="49.92851" lon="2.22381">
        <ele>20.3</ele>
        <time>2022-02-02T13:34:00Z</time>
      </trkpt>
      <trkpt lat="49.92851" lon="2.22383">
        <ele>20.3</ele>
        <time>2022-02-02T13:34:01Z</time>
      </trkpt>
      <trkpt lat="49.9285" lon="2.22384">
        <ele>20.3</ele>
        <time>2022-02-02T13:34:03Z</time>
      </trkpt>
      <trkpt lat="49.9285" lon="2.22386">
        <ele>20.2</ele>
        <time>2022-02-02T13:34:04Z</time>
      </trkpt>
      <trkpt lat="49.9285" lon="2.22387">
        <ele>20.2</ele>
        <time>2022-02-02T13:34:05Z</time>
      </trkpt>
      <trkpt lat="49.92849" lon="2.22389">
        <ele>20.2</ele>
        <time>2022-02-02T13:34:06Z</time>
      </trkpt>
      <trkpt lat="49.92849" lon="2.22391">
        <ele>20.1</ele>
        <time>2022-02-02T13:34:07Z</time>
      </trkpt>
      <trkpt lat="49.92848" lon="2.22392">
        <ele>20.1</ele>
        <time>2022-02-02T13:34:08Z</time>
      </trkpt>
      <trkpt lat="49.92848" lon="2.22396">
        <ele>20.1</ele>
        <time>2022-02-02T13:34:09Z</time>
      </trkpt>
      <trkpt lat="49.92848" lon="2.22397">
        <ele>20</ele>
        <time>2022-02-02T13:34:11Z</time>
      </trkpt>
      <trkpt lat="49.92848" lon="2.22398">
        <ele>20</ele>
        <time>2022-02-02T13:34:12Z</time>
      </trkpt>
      <trkpt lat="49.92847" lon="2.22401">
        <ele>20</ele>
        <time>2022-02-02T13:34:13Z</time>
      </trkpt>
      <trkpt lat="49.92847" lon="2.22403">
        <ele>19.9</ele>
        <time>2022-02-02T13:34:14Z</time>
      </trkpt>
      <trkpt lat="49.92847" lon="2.22404">
        <ele>19.9</ele>
        <time>2022-02-02T13:34:15Z</time>
      </trkpt>
      <trkpt lat="49.92847" lon="2.22406">
        <ele>19.9</ele>
        <time>2022-02-02T13:34:16Z</time>
      </trkpt>
      <trkpt lat="49.92846" lon="2.22408">
        <ele>19.8</ele>
        <time>2022-02-02T13:34:17Z</time>
      </trkpt>
      <trkpt lat="49.92845" lon="2.2241">
        <ele>19.8</ele>
        <time>2022-02-02T13:34:18Z</time>
      </trkpt>
      <trkpt lat="49.92845" lon="2.22412">
        <ele>19.7</ele>
        <time>2022-02-02T13:34:19Z</time>
      </trkpt>
      <trkpt lat="49.92844" lon="2.22415">
        <ele>19.7</ele>
        <time>2022-02-02T13:34:20Z</time>
      </trkpt>
      <trkpt lat="49.92844" lon="2.22417">
        <ele>19.6</ele>
        <time>2022-02-02T13:34:22Z</time>
      </trkpt>
      <trkpt lat="49.92843" lon="2.22418">
        <ele>19.6</ele>
        <time>2022-02-02T13:34:23Z</time>
      </trkpt>
      <trkpt lat="49.92843" lon="2.22422">
        <ele>19.5</ele>
        <time>2022-02-02T13:34:24Z</time>
      </trkpt>
      <trkpt lat="49.92843" lon="2.22423">
        <ele>19.5</ele>
        <time>2022-02-02T13:34:25Z</time>
      </trkpt>
      <trkpt lat="49.92843" lon="2.22424">
        <ele>19.5</ele>
        <time>2022-02-02T13:34:26Z</time>
      </trkpt>
      <trkpt lat="49.92842" lon="2.22427">
        <ele>19.4</ele>
        <time>2022-02-02T13:34:27Z</time>
      </trkpt>
      <trkpt lat="49.92842" lon="2.22429">
        <ele>19.4</ele>
        <time>2022-02-02T13:34:28Z</time>
      </trkpt>
      <trkpt lat="49.92842" lon="2.2243">
        <ele>19.4</ele>
        <time>2022-02-02T13:34:29Z</time>
      </trkpt>
      <trkpt lat="49.92842" lon="2.22432">
        <ele>19.3</ele>
        <time>2022-02-02T13:34:30Z</time>
      </trkpt>
      <trkpt lat="49.92842" lon="2.22434">
        <ele>19.3</ele>
        <time>2022-02-02T13:34:31Z</time>
      </trkpt>
      <trkpt lat="49.92842" lon="2.22436">
        <ele>19.2</ele>
        <time>2022-02-02T13:34:33Z</time>
      </trkpt>
      <trkpt lat="49.92841" lon="2.22438">
        <ele>19.2</ele>
        <time>2022-02-02T13:34:34Z</time>
      </trkpt>
      <trkpt lat="49.92841" lon="2.22441">
        <ele>19.2</ele>
        <time>2022-02-02T13:34:35Z</time>
      </trkpt>
      <trkpt lat="49.9284" lon="2.22443">
        <ele>19.1</ele>
        <time>2022-02-02T13:34:36Z</time>
      </trkpt>
      <trkpt lat="49.9284" lon="2.22445">
        <ele>19.1</ele>
        <time>2022-02-02T13:34:37Z</time>
      </trkpt>
      <trkpt lat="49.92839" lon="2.22447">
        <ele>19</ele>
        <time>2022-02-02T13:34:38Z</time>
      </trkpt>
      <trkpt lat="49.92838" lon="2.22449">
        <ele>19</ele>
        <time>2022-02-02T13:34:39Z</time>
      </trkpt>
      <trkpt lat="49.92838" lon="2.22452">
        <ele>18.9</ele>
        <time>2022-02-02T13:34:40Z</time>
      </trkpt>
      <trkpt lat="49.92837" lon="2.22453">
        <ele>18.9</ele>
        <time>2022-02-02T13:34:41Z</time>
      </trkpt>
      <trkpt lat="49.92837" lon="2.22454">
        <ele>18.9</ele>
        <time>2022-02-02T13:34:42Z</time>
      </trkpt>
      <trkpt lat="49.92836" lon="2.22457">
        <ele>18.8</ele>
        <time>2022-02-02T13:34:44Z</time>
      </trkpt>
      <trkpt lat="49.92836" lon="2.22459">
        <ele>18.8</ele>
        <time>2022-02-02T13:34:45Z</time>
      </trkpt>
      <trkpt lat="49.92836" lon="2.2246">
        <ele>18.8</ele>
        <time>2022-02-02T13:34:46Z</time>
      </trkpt>
      <trkpt lat="49.92835" lon="2.22463">
        <ele>18.7</ele>
        <time>2022-02-02T13:34:47Z</time>
      </trkpt>
      <trkpt lat="49.92835" lon="2.22464">
        <ele>18.7</ele>
        <time>2022-02-02T13:34:48Z</time>
      </trkpt>
      <trkpt lat="49.92835" lon="2.22466">
        <ele>18.6</ele>
        <time>2022-02-02T13:34:49Z</time>
      </trkpt>
      <trkpt lat="49.92834" lon="2.22467">
        <ele>18.6</ele>
        <time>2022-02-02T13:34:50Z</time>
      </trkpt>
      <trkpt lat="49.92834" lon="2.2247">
        <ele>18.6</ele>
        <time>2022-02-02T13:34:51Z</time>
      </trkpt>
      <trkpt lat="49.92834" lon="2.22472">
        <ele>18.5</ele>
        <time>2022-02-02T13:34:52Z</time>
      </trkpt>
      <trkpt lat="49.92833" lon="2.22473">
        <ele>18.5</ele>
        <time>2022-02-02T13:34:53Z</time>
      </trkpt>
      <trkpt lat="49.92833" lon="2.22475">
        <ele>18.5</ele>
        <time>2022-02-02T13:34:54Z</time>
      </trkpt>
      <trkpt lat="49.92833" lon="2.22477">
        <ele>18.4</ele>
        <time>2022-02-02T13:34:56Z</time>
      </trkpt>
      <trkpt lat="49.92833" lon="2.22478">
        <ele>18.4</ele>
        <time>2022-02-02T13:34:57Z</time>
      </trkpt>
      <trkpt lat="49.92832" lon="2.2248">
        <ele>18.4</ele>
        <time>2022-02-02T13:34:58Z</time>
      </trkpt>
      <trkpt lat="49.92832" lon="2.22482">
        <ele>18.4</ele>
        <time>2022-02-02T13:34:59Z</time>
      </trkpt>
      <trkpt lat="49.92832" lon="2.22483">
        <ele>18.3</ele>
        <time>2022-02-02T13:35:00Z</time>
      </trkpt>
      <trkpt lat="49.92832" lon="2.22485">
        <ele>18.3</ele>
        <time>2022-02-02T13:35:01Z</time>
      </trkpt>
      <trkpt lat="49.92832" lon="2.22487">
        <ele>18.3</ele>
        <time>2022-02-02T13:35:02Z</time>
      </trkpt>
      <trkpt lat="49.92831" lon="2.22488">
        <ele>18.2</ele>
        <time>2022-02-02T13:35:03Z</time>
      </trkpt>
      <trkpt lat="49.92831" lon="2.2249">
        <ele>18.2</ele>
        <time>2022-02-02T13:35:04Z</time>
      </trkpt>
      <trkpt lat="49.9283" lon="2.22492">
        <ele>18.2</ele>
        <time>2022-02-02T13:35:06Z</time>
      </trkpt>
      <trkpt lat="49.92829" lon="2.22493">
        <ele>18.1</ele>
        <time>2022-02-02T13:35:07Z</time>
      </trkpt>
      <trkpt lat="49.92828" lon="2.22494">
        <ele>18.1</ele>
        <time>2022-02-02T13:35:08Z</time>
      </trkpt>
      <trkpt lat="49.92827" lon="2.22494">
        <ele>18.1</ele>
        <time>2022-02-02T13:35:09Z</time>
      </trkpt>
      <trkpt lat="49.92825" lon="2.22494">
        <ele>18</ele>
        <time>2022-02-02T13:35:10Z</time>
      </trkpt>
      <trkpt lat="49.92823" lon="2.22493">
        <ele>18</ele>
        <time>2022-02-02T13:35:11Z</time>
      </trkpt>
      <trkpt lat="49.92822" lon="2.22493">
        <ele>18</ele>
        <time>2022-02-02T13:35:13Z</time>
      </trkpt>
      <trkpt lat="49.92821" lon="2.22492">
        <ele>17.9</ele>
        <time>2022-02-02T13:35:14Z</time>
      </trkpt>
      <trkpt lat="49.9282" lon="2.22492">
        <ele>17.9</ele>
        <time>2022-02-02T13:35:15Z</time>
      </trkpt>
      <trkpt lat="49.92819" lon="2.22491">
        <ele>17.9</ele>
        <time>2022-02-02T13:35:16Z</time>
      </trkpt>
      <trkpt lat="49.92818" lon="2.22489">
        <ele>17.8</ele>
        <time>2022-02-02T13:35:17Z</time>
      </trkpt>
      <trkpt lat="49.92816" lon="2.22488">
        <ele>17.8</ele>
        <time>2022-02-02T13:35:18Z</time>
      </trkpt>
      <trkpt lat="49.92814" lon="2.22487">
        <ele>17.7</ele>
        <time>2022-02-02T13:35:19Z</time>
      </trkpt>
      <trkpt lat="49.92814" lon="2.22486">
        <ele>17.7</ele>
        <time>2022-02-02T13:35:21Z</time>
      </trkpt>
      <trkpt lat="49.92813" lon="2.22485">
        <ele>17.7</ele>
        <time>2022-02-02T13:35:22Z</time>
      </trkpt>
      <trkpt lat="49.92812" lon="2.22485">
        <ele>17.7</ele>
        <time>2022-02-02T13:35:23Z</time>
      </trkpt>
      <trkpt lat="49.92811" lon="2.22484">
        <ele>17.7</ele>
        <time>2022-02-02T13:35:24Z</time>
      </trkpt>
      <trkpt lat="49.9281" lon="2.22484">
        <ele>17.6</ele>
        <time>2022-02-02T13:35:25Z</time>
      </trkpt>
      <trkpt lat="49.92809" lon="2.22483">
        <ele>17.6</ele>
        <time>2022-02-02T13:35:26Z</time>
      </trkpt>
      <trkpt lat="49.92808" lon="2.22482">
        <ele>17.6</ele>
        <time>2022-02-02T13:35:27Z</time>
      </trkpt>
      <trkpt lat="49.92807" lon="2.22481">
        <ele>17.6</ele>
        <time>2022-02-02T13:35:28Z</time>
      </trkpt>
      <trkpt lat="49.92806" lon="2.22481">
        <ele>17.6</ele>
        <time>2022-02-02T13:35:29Z</time>
      </trkpt>
      <trkpt lat="49.92806" lon="2.2248">
        <ele>17.5</ele>
        <time>2022-02-02T13:35:30Z</time>
      </trkpt>
      <trkpt lat="49.92805" lon="2.2248">
        <ele>17.5</ele>
        <time>2022-02-02T13:35:32Z</time>
      </trkpt>
      <trkpt lat="49.92804" lon="2.22479">
        <ele>17.5</ele>
        <time>2022-02-02T13:35:33Z</time>
      </trkpt>
      <trkpt lat="49.92803" lon="2.22479">
        <ele>17.5</ele>
        <time>2022-02-02T13:35:34Z</time>
      </trkpt>
      <trkpt lat="49.92802" lon="2.22478">
        <ele>17.5</ele>
        <time>2022-02-02T13:35:35Z</time>
      </trkpt>
      <trkpt lat="49.928" lon="2.22477">
        <ele>17.4</ele>
        <time>2022-02-02T13:35:36Z</time>
      </trkpt>
      <trkpt lat="49.92799" lon="2.22476">
        <ele>17.4</ele>
        <time>2022-02-02T13:35:37Z</time>
      </trkpt>
      <trkpt lat="49.92798" lon="2.22475">
        <ele>17.4</ele>
        <time>2022-02-02T13:35:38Z</time>
      </trkpt>
      <trkpt lat="49.92796" lon="2.22475">
        <ele>17.4</ele>
        <time>2022-02-02T13:35:39Z</time>
      </trkpt>
      <trkpt lat="49.92795" lon="2.22474">
        <ele>17.3</ele>
        <time>2022-02-02T13:35:40Z</time>
      </trkpt>
      <trkpt lat="49.92793" lon="2.22473">
        <ele>17.3</ele>
        <time>2022-02-02T13:35:41Z</time>
      </trkpt>
      <trkpt lat="49.92792" lon="2.22472">
        <ele>17.3</ele>
        <time>2022-02-02T13:35:43Z</time>
      </trkpt>
      <trkpt lat="49.92791" lon="2.22471">
        <ele>17.3</ele>
        <time>2022-02-02T13:35:44Z</time>
      </trkpt>
      <trkpt lat="49.92789" lon="2.2247">
        <ele>17.3</ele>
        <time>2022-02-02T13:35:45Z</time>
      </trkpt>
      <trkpt lat="49.92788" lon="2.22469">
        <ele>17.2</ele>
        <time>2022-02-02T13:35:46Z</time>
      </trkpt>
      <trkpt lat="49.92787" lon="2.22468">
        <ele>17.2</ele>
        <time>2022-02-02T13:35:47Z</time>
      </trkpt>
      <trkpt lat="49.92785" lon="2.22467">
        <ele>17.2</ele>
        <time>2022-02-02T13:35:48Z</time>
      </trkpt>
      <trkpt lat="49.92784" lon="2.22466">
        <ele>17.2</ele>
        <time>2022-02-02T13:35:49Z</time>
      </trkpt>
      <trkpt lat="49.92782" lon="2.22465">
        <ele>17.2</ele>
        <time>2022-02-02T13:35:50Z</time>
      </trkpt>
      <trkpt lat="49.92781" lon="2.22464">
        <ele>17.1</ele>
        <time>2022-02-02T13:35:51Z</time>
      </trkpt>
      <trkpt lat="49.92779" lon="2.22463">
        <ele>17.1</ele>
        <time>2022-02-02T13:35:52Z</time>
      </trkpt>
      <trkpt lat="49.92778" lon="2.22463">
        <ele>17.1</ele>
        <time>2022-02-02T13:35:54Z</time>
      </trkpt>
      <trkpt lat="49.92777" lon="2.22464">
        <ele>17.1</ele>
        <time>2022-02-02T13:35:55Z</time>
      </trkpt>
      <trkpt lat="49.92775" lon="2.22464">
        <ele>17.1</ele>
        <time>2022-02-02T13:35:56Z</time>
      </trkpt>
      <trkpt lat="49.92774" lon="2.22465">
        <ele>17.1</ele>
        <time>2022-02-02T13:35:57Z</time>
      </trkpt>
      <trkpt lat="49.92772" lon="2.22466">
        <ele>17.1</ele>
        <time>2022-02-02T13:35:58Z</time>
      </trkpt>
      <trkpt lat="49.92771" lon="2.22466">
        <ele>17.1</ele>
        <time>2022-02-02T13:35:59Z</time>
      </trkpt>
      <trkpt lat="49.9277" lon="2.22466">
        <ele>17.1</ele>
        <time>2022-02-02T13:36:00Z</time>
      </trkpt>
      <trkpt lat="49.92768" lon="2.22466">
        <ele>17</ele>
        <time>2022-02-02T13:36:01Z</time>
      </trkpt>
      <trkpt lat="49.92767" lon="2.22466">
        <ele>17</ele>
        <time>2022-02-02T13:36:03Z</time>
      </trkpt>
      <trkpt lat="49.92765" lon="2.22465">
        <ele>17</ele>
        <time>2022-02-02T13:36:04Z</time>
      </trkpt>
      <trkpt lat="49.92764" lon="2.22465">
        <ele>17</ele>
        <time>2022-02-02T13:36:05Z</time>
      </trkpt>
      <trkpt lat="49.92764" lon="2.22465">
        <ele>17</ele>
        <time>2022-02-02T13:36:06Z</time>
      </trkpt>
      <trkpt lat="49.92763" lon="2.22464">
        <ele>17</ele>
        <time>2022-02-02T13:36:07Z</time>
      </trkpt>
      <trkpt lat="49.92761" lon="2.22464">
        <ele>17</ele>
        <time>2022-02-02T13:36:08Z</time>
      </trkpt>
      <trkpt lat="49.92758" lon="2.22463">
        <ele>17</ele>
        <time>2022-02-02T13:36:09Z</time>
      </trkpt>
      <trkpt lat="49.92758" lon="2.22463">
        <ele>17</ele>
        <time>2022-02-02T13:36:11Z</time>
      </trkpt>
      <trkpt lat="49.92757" lon="2.22463">
        <ele>17</ele>
        <time>2022-02-02T13:36:12Z</time>
      </trkpt>
      <trkpt lat="49.92755" lon="2.22462">
        <ele>17</ele>
        <time>2022-02-02T13:36:13Z</time>
      </trkpt>
      <trkpt lat="49.92754" lon="2.22462">
        <ele>17</ele>
        <time>2022-02-02T13:36:14Z</time>
      </trkpt>
      <trkpt lat="49.92752" lon="2.22461">
        <ele>17</ele>
        <time>2022-02-02T13:36:15Z</time>
      </trkpt>
      <trkpt lat="49.92751" lon="2.22461">
        <ele>17</ele>
        <time>2022-02-02T13:36:16Z</time>
      </trkpt>
      <trkpt lat="49.9275" lon="2.22461">
        <ele>17</ele>
        <time>2022-02-02T13:36:17Z</time>
      </trkpt>
      <trkpt lat="49.92749" lon="2.2246">
        <ele>16.9</ele>
        <time>2022-02-02T13:36:18Z</time>
      </trkpt>
      <trkpt lat="49.92748" lon="2.2246">
        <ele>16.9</ele>
        <time>2022-02-02T13:36:19Z</time>
      </trkpt>
      <trkpt lat="49.92747" lon="2.2246">
        <ele>16.9</ele>
        <time>2022-02-02T13:36:20Z</time>
      </trkpt>
      <trkpt lat="49.92744" lon="2.2246">
        <ele>16.9</ele>
        <time>2022-02-02T13:36:21Z</time>
      </trkpt>
      <trkpt lat="49.92744" lon="2.2246">
        <ele>16.9</ele>
        <time>2022-02-02T13:36:22Z</time>
      </trkpt>
      <trkpt lat="49.92743" lon="2.2246">
        <ele>16.9</ele>
        <time>2022-02-02T13:36:24Z</time>
      </trkpt>
      <trkpt lat="49.92742" lon="2.2246">
        <ele>16.9</ele>
        <time>2022-02-02T13:36:25Z</time>
      </trkpt>
      <trkpt lat="49.92741" lon="2.2246">
        <ele>16.9</ele>
        <time>2022-02-02T13:36:26Z</time>
      </trkpt>
      <trkpt lat="49.9274" lon="2.2246">
        <ele>16.9</ele>
        <time>2022-02-02T13:36:27Z</time>
      </trkpt>
      <trkpt lat="49.92739" lon="2.2246">
        <ele>16.9</ele>
        <time>2022-02-02T13:36:28Z</time>
      </trkpt>
      <trkpt lat="49.92738" lon="2.22459">
        <ele>16.9</ele>
        <time>2022-02-02T13:36:29Z</time>
      </trkpt>
      <trkpt lat="49.92737" lon="2.22459">
        <ele>16.9</ele>
        <time>2022-02-02T13:36:30Z</time>
      </trkpt>
      <trkpt lat="49.92736" lon="2.22458">
        <ele>16.9</ele>
        <time>2022-02-02T13:36:31Z</time>
      </trkpt>
      <trkpt lat="49.92734" lon="2.22457">
        <ele>16.9</ele>
        <time>2022-02-02T13:36:32Z</time>
      </trkpt>
      <trkpt lat="49.92733" lon="2.22456">
        <ele>16.9</ele>
        <time>2022-02-02T13:36:34Z</time>
      </trkpt>
      <trkpt lat="49.92732" lon="2.22455">
        <ele>16.8</ele>
        <time>2022-02-02T13:36:35Z</time>
      </trkpt>
      <trkpt lat="49.9273" lon="2.22455">
        <ele>16.8</ele>
        <time>2022-02-02T13:36:36Z</time>
      </trkpt>
      <trkpt lat="49.92729" lon="2.22454">
        <ele>16.8</ele>
        <time>2022-02-02T13:36:37Z</time>
      </trkpt>
      <trkpt lat="49.92727" lon="2.22453">
        <ele>16.8</ele>
        <time>2022-02-02T13:36:38Z</time>
      </trkpt>
      <trkpt lat="49.92726" lon="2.22452">
        <ele>16.8</ele>
        <time>2022-02-02T13:36:39Z</time>
      </trkpt>
      <trkpt lat="49.92724" lon="2.2245">
        <ele>16.8</ele>
        <time>2022-02-02T13:36:40Z</time>
      </trkpt>
      <trkpt lat="49.92723" lon="2.22449">
        <ele>16.8</ele>
        <time>2022-02-02T13:36:42Z</time>
      </trkpt>
      <trkpt lat="49.92722" lon="2.22449">
        <ele>16.8</ele>
        <time>2022-02-02T13:36:43Z</time>
      </trkpt>
      <trkpt lat="49.9272" lon="2.22448">
        <ele>16.8</ele>
        <time>2022-02-02T13:36:44Z</time>
      </trkpt>
      <trkpt lat="49.92719" lon="2.22447">
        <ele>16.8</ele>
        <time>2022-02-02T13:36:45Z</time>
      </trkpt>
      <trkpt lat="49.92718" lon="2.22447">
        <ele>16.8</ele>
        <time>2022-02-02T13:36:46Z</time>
      </trkpt>
      <trkpt lat="49.92717" lon="2.22446">
        <ele>16.7</ele>
        <time>2022-02-02T13:36:47Z</time>
      </trkpt>
      <trkpt lat="49.92715" lon="2.22446">
        <ele>16.7</ele>
        <time>2022-02-02T13:36:48Z</time>
      </trkpt>
      <trkpt lat="49.92714" lon="2.22445">
        <ele>16.7</ele>
        <time>2022-02-02T13:36:49Z</time>
      </trkpt>
      <trkpt lat="49.92712" lon="2.22445">
        <ele>16.7</ele>
        <time>2022-02-02T13:36:50Z</time>
      </trkpt>
      <trkpt lat="49.9271" lon="2.22444">
        <ele>16.7</ele>
        <time>2022-02-02T13:36:52Z</time>
      </trkpt>
      <trkpt lat="49.92709" lon="2.22444">
        <ele>16.7</ele>
        <time>2022-02-02T13:36:53Z</time>
      </trkpt>
      <trkpt lat="49.92708" lon="2.22444">
        <ele>16.7</ele>
        <time>2022-02-02T13:36:54Z</time>
      </trkpt>
      <trkpt lat="49.92706" lon="2.22443">
        <ele>16.7</ele>
        <time>2022-02-02T13:36:55Z</time>
      </trkpt>
      <trkpt lat="49.92705" lon="2.22443">
        <ele>16.7</ele>
        <time>2022-02-02T13:36:56Z</time>
      </trkpt>
      <trkpt lat="49.92703" lon="2.22442">
        <ele>16.7</ele>
        <time>2022-02-02T13:36:58Z</time>
      </trkpt>
      <trkpt lat="49.92701" lon="2.22442">
        <ele>16.7</ele>
        <time>2022-02-02T13:36:59Z</time>
      </trkpt>
      <trkpt lat="49.92699" lon="2.22442">
        <ele>16.6</ele>
        <time>2022-02-02T13:37:00Z</time>
      </trkpt>
      <trkpt lat="49.92698" lon="2.22442">
        <ele>16.6</ele>
        <time>2022-02-02T13:37:01Z</time>
      </trkpt>
      <trkpt lat="49.92697" lon="2.22442">
        <ele>16.6</ele>
        <time>2022-02-02T13:37:02Z</time>
      </trkpt>
      <trkpt lat="49.92696" lon="2.22441">
        <ele>16.6</ele>
        <time>2022-02-02T13:37:03Z</time>
      </trkpt>
      <trkpt lat="49.92694" lon="2.22441">
        <ele>16.6</ele>
        <time>2022-02-02T13:37:04Z</time>
      </trkpt>
      <trkpt lat="49.92692" lon="2.22441">
        <ele>16.6</ele>
        <time>2022-02-02T13:37:05Z</time>
      </trkpt>
      <trkpt lat="49.92691" lon="2.2244">
        <ele>16.6</ele>
        <time>2022-02-02T13:37:07Z</time>
      </trkpt>
      <trkpt lat="49.9269" lon="2.2244">
        <ele>16.6</ele>
        <time>2022-02-02T13:37:08Z</time>
      </trkpt>
      <trkpt lat="49.92689" lon="2.2244">
        <ele>16.6</ele>
        <time>2022-02-02T13:37:09Z</time>
      </trkpt>
      <trkpt lat="49.92688" lon="2.2244">
        <ele>16.5</ele>
        <time>2022-02-02T13:37:10Z</time>
      </trkpt>
      <trkpt lat="49.92685" lon="2.2244">
        <ele>16.5</ele>
        <time>2022-02-02T13:37:11Z</time>
      </trkpt>
      <trkpt lat="49.92684" lon="2.2244">
        <ele>16.5</ele>
        <time>2022-02-02T13:37:13Z</time>
      </trkpt>
      <trkpt lat="49.92683" lon="2.2244">
        <ele>16.5</ele>
        <time>2022-02-02T13:37:14Z</time>
      </trkpt>
      <trkpt lat="49.92682" lon="2.2244">
        <ele>16.5</ele>
        <time>2022-02-02T13:37:15Z</time>
      </trkpt>
      <trkpt lat="49.92681" lon="2.2244">
        <ele>16.5</ele>
        <time>2022-02-02T13:37:16Z</time>
      </trkpt>
      <trkpt lat="49.92679" lon="2.2244">
        <ele>16.5</ele>
        <time>2022-02-02T13:37:17Z</time>
      </trkpt>
      <trkpt lat="49.92678" lon="2.2244">
        <ele>16.5</ele>
        <time>2022-02-02T13:37:18Z</time>
      </trkpt>
      <trkpt lat="49.92677" lon="2.2244">
        <ele>16.5</ele>
        <time>2022-02-02T13:37:19Z</time>
      </trkpt>
      <trkpt lat="49.92675" lon="2.22441">
        <ele>16.4</ele>
        <time>2022-02-02T13:37:20Z</time>
      </trkpt>
      <trkpt lat="49.92675" lon="2.22441">
        <ele>16.4</ele>
        <time>2022-02-02T13:37:21Z</time>
      </trkpt>
      <trkpt lat="49.92674" lon="2.22441">
        <ele>16.4</ele>
        <time>2022-02-02T13:37:22Z</time>
      </trkpt>
      <trkpt lat="49.92672" lon="2.22441">
        <ele>16.4</ele>
        <time>2022-02-02T13:37:23Z</time>
      </trkpt>
      <trkpt lat="49.92671" lon="2.22441">
        <ele>16.4</ele>
        <time>2022-02-02T13:37:25Z</time>
      </trkpt>
      <trkpt lat="49.9267" lon="2.22441">
        <ele>16.4</ele>
        <time>2022-02-02T13:37:26Z</time>
      </trkpt>
      <trkpt lat="49.92669" lon="2.22441">
        <ele>16.4</ele>
        <time>2022-02-02T13:37:27Z</time>
      </trkpt>
      <trkpt lat="49.92668" lon="2.22441">
        <ele>16.4</ele>
        <time>2022-02-02T13:37:28Z</time>
      </trkpt>
      <trkpt lat="49.92667" lon="2.22441">
        <ele>16.4</ele>
        <time>2022-02-02T13:37:29Z</time>
      </trkpt>
      <trkpt lat="49.92665" lon="2.2244">
        <ele>16.3</ele>
        <time>2022-02-02T13:37:30Z</time>
      </trkpt>
      <trkpt lat="49.92664" lon="2.2244">
        <ele>16.3</ele>
        <time>2022-02-02T13:37:31Z</time>
      </trkpt>
      <trkpt lat="49.92663" lon="2.2244">
        <ele>16.3</ele>
        <time>2022-02-02T13:37:32Z</time>
      </trkpt>
      <trkpt lat="49.92662" lon="2.22439">
        <ele>16.3</ele>
        <time>2022-02-02T13:37:34Z</time>
      </trkpt>
      <trkpt lat="49.9266" lon="2.22439">
        <ele>16.3</ele>
        <time>2022-02-02T13:37:35Z</time>
      </trkpt>
      <trkpt lat="49.92658" lon="2.22438">
        <ele>16.3</ele>
        <time>2022-02-02T13:37:36Z</time>
      </trkpt>
      <trkpt lat="49.92658" lon="2.22438">
        <ele>16.3</ele>
        <time>2022-02-02T13:37:37Z</time>
      </trkpt>
      <trkpt lat="49.92657" lon="2.22438">
        <ele>16.3</ele>
        <time>2022-02-02T13:37:38Z</time>
      </trkpt>
      <trkpt lat="49.92654" lon="2.22437">
        <ele>16.2</ele>
        <time>2022-02-02T13:37:39Z</time>
      </trkpt>
      <trkpt lat="49.92653" lon="2.22436">
        <ele>16.2</ele>
        <time>2022-02-02T13:37:41Z</time>
      </trkpt>
      <trkpt lat="49.92652" lon="2.22436">
        <ele>16.2</ele>
        <time>2022-02-02T13:37:42Z</time>
      </trkpt>
      <trkpt lat="49.92651" lon="2.22435">
        <ele>16.2</ele>
        <time>2022-02-02T13:37:43Z</time>
      </trkpt>
      <trkpt lat="49.9265" lon="2.22435">
        <ele>16.2</ele>
        <time>2022-02-02T13:37:44Z</time>
      </trkpt>
      <trkpt lat="49.92648" lon="2.22434">
        <ele>16.2</ele>
        <time>2022-02-02T13:37:45Z</time>
      </trkpt>
      <trkpt lat="49.92647" lon="2.22434">
        <ele>16.2</ele>
        <time>2022-02-02T13:37:46Z</time>
      </trkpt>
      <trkpt lat="49.92645" lon="2.22433">
        <ele>16.2</ele>
        <time>2022-02-02T13:37:47Z</time>
      </trkpt>
      <trkpt lat="49.92644" lon="2.22433">
        <ele>16.2</ele>
        <time>2022-02-02T13:37:48Z</time>
      </trkpt>
      <trkpt lat="49.92643" lon="2.22432">
        <ele>16.2</ele>
        <time>2022-02-02T13:37:49Z</time>
      </trkpt>
      <trkpt lat="49.92641" lon="2.22432">
        <ele>16.1</ele>
        <time>2022-02-02T13:37:51Z</time>
      </trkpt>
      <trkpt lat="49.9264" lon="2.22431">
        <ele>16.1</ele>
        <time>2022-02-02T13:37:52Z</time>
      </trkpt>
      <trkpt lat="49.92639" lon="2.22431">
        <ele>16.1</ele>
        <time>2022-02-02T13:37:53Z</time>
      </trkpt>
      <trkpt lat="49.92638" lon="2.2243">
        <ele>16.1</ele>
        <time>2022-02-02T13:37:54Z</time>
      </trkpt>
      <trkpt lat="49.92636" lon="2.2243">
        <ele>16.1</ele>
        <time>2022-02-02T13:37:55Z</time>
      </trkpt>
      <trkpt lat="49.92635" lon="2.22429">
        <ele>16.1</ele>
        <time>2022-02-02T13:37:56Z</time>
      </trkpt>
      <trkpt lat="49.92633" lon="2.22428">
        <ele>16.1</ele>
        <time>2022-02-02T13:37:57Z</time>
      </trkpt>
      <trkpt lat="49.92632" lon="2.22427">
        <ele>16.1</ele>
        <time>2022-02-02T13:37:58Z</time>
      </trkpt>
      <trkpt lat="49.92629" lon="2.22426">
        <ele>16</ele>
        <time>2022-02-02T13:37:59Z</time>
      </trkpt>
      <trkpt lat="49.92628" lon="2.22426">
        <ele>16</ele>
        <time>2022-02-02T13:38:01Z</time>
      </trkpt>
      <trkpt lat="49.92627" lon="2.22425">
        <ele>16</ele>
        <time>2022-02-02T13:38:02Z</time>
      </trkpt>
      <trkpt lat="49.92626" lon="2.22425">
        <ele>16</ele>
        <time>2022-02-02T13:38:03Z</time>
      </trkpt>
      <trkpt lat="49.92625" lon="2.22424">
        <ele>16</ele>
        <time>2022-02-02T13:38:04Z</time>
      </trkpt>
      <trkpt lat="49.92623" lon="2.22424">
        <ele>16</ele>
        <time>2022-02-02T13:38:05Z</time>
      </trkpt>
      <trkpt lat="49.92622" lon="2.22423">
        <ele>16</ele>
        <time>2022-02-02T13:38:06Z</time>
      </trkpt>
      <trkpt lat="49.92621" lon="2.22423">
        <ele>16</ele>
        <time>2022-02-02T13:38:07Z</time>
      </trkpt>
      <trkpt lat="49.9262" lon="2.22423">
        <ele>16</ele>
        <time>2022-02-02T13:38:08Z</time>
      </trkpt>
      <trkpt lat="49.92619" lon="2.22422">
        <ele>16</ele>
        <time>2022-02-02T13:38:09Z</time>
      </trkpt>
      <trkpt lat="49.92618" lon="2.22422">
        <ele>15.9</ele>
        <time>2022-02-02T13:38:10Z</time>
      </trkpt>
      <trkpt lat="49.92616" lon="2.22422">
        <ele>15.9</ele>
        <time>2022-02-02T13:38:11Z</time>
      </trkpt>
      <trkpt lat="49.92615" lon="2.22421">
        <ele>15.9</ele>
        <time>2022-02-02T13:38:13Z</time>
      </trkpt>
      <trkpt lat="49.92614" lon="2.22421">
        <ele>15.9</ele>
        <time>2022-02-02T13:38:14Z</time>
      </trkpt>
      <trkpt lat="49.92612" lon="2.2242">
        <ele>15.9</ele>
        <time>2022-02-02T13:38:15Z</time>
      </trkpt>
      <trkpt lat="49.92611" lon="2.2242">
        <ele>15.9</ele>
        <time>2022-02-02T13:38:16Z</time>
      </trkpt>
      <trkpt lat="49.9261" lon="2.2242">
        <ele>15.9</ele>
        <time>2022-02-02T13:38:17Z</time>
      </trkpt>
      <trkpt lat="49.92608" lon="2.22419">
        <ele>15.9</ele>
        <time>2022-02-02T13:38:18Z</time>
      </trkpt>
      <trkpt lat="49.92607" lon="2.22419">
        <ele>15.9</ele>
        <time>2022-02-02T13:38:19Z</time>
      </trkpt>
      <trkpt lat="49.92607" lon="2.22418">
        <ele>15.9</ele>
        <time>2022-02-02T13:38:20Z</time>
      </trkpt>
      <trkpt lat="49.92605" lon="2.22417">
        <ele>15.8</ele>
        <time>2022-02-02T13:38:21Z</time>
      </trkpt>
      <trkpt lat="49.92604" lon="2.22417">
        <ele>15.8</ele>
        <time>2022-02-02T13:38:22Z</time>
      </trkpt>
      <trkpt lat="49.92603" lon="2.22416">
        <ele>15.8</ele>
        <time>2022-02-02T13:38:23Z</time>
      </trkpt>
      <trkpt lat="49.92601" lon="2.22416">
        <ele>15.8</ele>
        <time>2022-02-02T13:38:25Z</time>
      </trkpt>
      <trkpt lat="49.926" lon="2.22416">
        <ele>15.8</ele>
        <time>2022-02-02T13:38:26Z</time>
      </trkpt>
      <trkpt lat="49.92599" lon="2.22415">
        <ele>15.8</ele>
        <time>2022-02-02T13:38:27Z</time>
      </trkpt>
      <trkpt lat="49.92597" lon="2.22415">
        <ele>15.8</ele>
        <time>2022-02-02T13:38:28Z</time>
      </trkpt>
      <trkpt lat="49.92595" lon="2.22414">
        <ele>15.8</ele>
        <time>2022-02-02T13:38:29Z</time>
      </trkpt>
      <trkpt lat="49.92594" lon="2.22414">
        <ele>15.8</ele>
        <time>2022-02-02T13:38:31Z</time>
      </trkpt>
      <trkpt lat="49.92593" lon="2.22414">
        <ele>15.8</ele>
        <time>2022-02-02T13:38:32Z</time>
      </trkpt>
      <trkpt lat="49.92592" lon="2.22413">
        <ele>15.8</ele>
        <time>2022-02-02T13:38:33Z</time>
      </trkpt>
      <trkpt lat="49.92591" lon="2.22413">
        <ele>15.8</ele>
        <time>2022-02-02T13:38:34Z</time>
      </trkpt>
      <trkpt lat="49.92588" lon="2.22412">
        <ele>15.8</ele>
        <time>2022-02-02T13:38:35Z</time>
      </trkpt>
      <trkpt lat="49.92588" lon="2.22412">
        <ele>15.8</ele>
        <time>2022-02-02T13:38:36Z</time>
      </trkpt>
      <trkpt lat="49.92587" lon="2.22412">
        <ele>15.8</ele>
        <time>2022-02-02T13:38:37Z</time>
      </trkpt>
      <trkpt lat="49.92585" lon="2.22411">
        <ele>15.8</ele>
        <time>2022-02-02T13:38:38Z</time>
      </trkpt>
      <trkpt lat="49.92584" lon="2.2241">
        <ele>15.7</ele>
        <time>2022-02-02T13:38:39Z</time>
      </trkpt>
      <trkpt lat="49.92583" lon="2.2241">
        <ele>15.7</ele>
        <time>2022-02-02T13:38:40Z</time>
      </trkpt>
      <trkpt lat="49.92581" lon="2.22409">
        <ele>15.7</ele>
        <time>2022-02-02T13:38:41Z</time>
      </trkpt>
      <trkpt lat="49.9258" lon="2.22409">
        <ele>15.7</ele>
        <time>2022-02-02T13:38:42Z</time>
      </trkpt>
      <trkpt lat="49.92579" lon="2.22409">
        <ele>15.7</ele>
        <time>2022-02-02T13:38:43Z</time>
      </trkpt>
      <trkpt lat="49.92578" lon="2.22408">
        <ele>15.7</ele>
        <time>2022-02-02T13:38:44Z</time>
      </trkpt>
      <trkpt lat="49.92577" lon="2.22408">
        <ele>15.7</ele>
        <time>2022-02-02T13:38:45Z</time>
      </trkpt>
      <trkpt lat="49.92575" lon="2.22408">
        <ele>15.7</ele>
        <time>2022-02-02T13:38:46Z</time>
      </trkpt>
      <trkpt lat="49.92574" lon="2.22408">
        <ele>15.7</ele>
        <time>2022-02-02T13:38:48Z</time>
      </trkpt>
      <trkpt lat="49.92573" lon="2.22408">
        <ele>15.7</ele>
        <time>2022-02-02T13:38:49Z</time>
      </trkpt>
      <trkpt lat="49.92572" lon="2.22407">
        <ele>15.7</ele>
        <time>2022-02-02T13:38:50Z</time>
      </trkpt>
      <trkpt lat="49.9257" lon="2.22407">
        <ele>15.7</ele>
        <time>2022-02-02T13:38:51Z</time>
      </trkpt>
      <trkpt lat="49.92569" lon="2.22407">
        <ele>15.7</ele>
        <time>2022-02-02T13:38:52Z</time>
      </trkpt>
      <trkpt lat="49.92567" lon="2.22406">
        <ele>15.7</ele>
        <time>2022-02-02T13:38:53Z</time>
      </trkpt>
      <trkpt lat="49.92566" lon="2.22406">
        <ele>15.7</ele>
        <time>2022-02-02T13:38:54Z</time>
      </trkpt>
      <trkpt lat="49.92564" lon="2.22406">
        <ele>15.7</ele>
        <time>2022-02-02T13:38:55Z</time>
      </trkpt>
      <trkpt lat="49.92563" lon="2.22405">
        <ele>15.7</ele>
        <time>2022-02-02T13:38:56Z</time>
      </trkpt>
      <trkpt lat="49.92562" lon="2.22405">
        <ele>15.7</ele>
        <time>2022-02-02T13:38:57Z</time>
      </trkpt>
      <trkpt lat="49.9256" lon="2.22405">
        <ele>15.7</ele>
        <time>2022-02-02T13:38:58Z</time>
      </trkpt>
      <trkpt lat="49.9256" lon="2.22404">
        <ele>15.7</ele>
        <time>2022-02-02T13:38:59Z</time>
      </trkpt>
      <trkpt lat="49.92559" lon="2.22404">
        <ele>15.7</ele>
        <time>2022-02-02T13:39:00Z</time>
      </trkpt>
      <trkpt lat="49.92557" lon="2.22404">
        <ele>15.7</ele>
        <time>2022-02-02T13:39:02Z</time>
      </trkpt>
      <trkpt lat="49.92556" lon="2.22404">
        <ele>15.7</ele>
        <time>2022-02-02T13:39:03Z</time>
      </trkpt>
      <trkpt lat="49.92555" lon="2.22403">
        <ele>15.7</ele>
        <time>2022-02-02T13:39:04Z</time>
      </trkpt>
      <trkpt lat="49.92554" lon="2.22403">
        <ele>15.7</ele>
        <time>2022-02-02T13:39:05Z</time>
      </trkpt>
      <trkpt lat="49.92553" lon="2.22403">
        <ele>15.7</ele>
        <time>2022-02-02T13:39:06Z</time>
      </trkpt>
      <trkpt lat="49.92553" lon="2.22403">
        <ele>15.7</ele>
        <time>2022-02-02T13:39:07Z</time>
      </trkpt>
      <trkpt lat="49.92551" lon="2.22403">
        <ele>15.7</ele>
        <time>2022-02-02T13:39:08Z</time>
      </trkpt>
      <trkpt lat="49.9255" lon="2.22402">
        <ele>15.7</ele>
        <time>2022-02-02T13:39:09Z</time>
      </trkpt>
      <trkpt lat="49.92548" lon="2.22402">
        <ele>15.7</ele>
        <time>2022-02-02T13:39:10Z</time>
      </trkpt>
      <trkpt lat="49.92548" lon="2.22402">
        <ele>15.7</ele>
        <time>2022-02-02T13:39:11Z</time>
      </trkpt>
      <trkpt lat="49.92547" lon="2.22401">
        <ele>15.7</ele>
        <time>2022-02-02T13:39:12Z</time>
      </trkpt>
      <trkpt lat="49.92546" lon="2.22401">
        <ele>15.8</ele>
        <time>2022-02-02T13:39:13Z</time>
      </trkpt>
      <trkpt lat="49.92544" lon="2.22401">
        <ele>15.8</ele>
        <time>2022-02-02T13:39:14Z</time>
      </trkpt>
      <trkpt lat="49.92543" lon="2.22401">
        <ele>15.8</ele>
        <time>2022-02-02T13:39:15Z</time>
      </trkpt>
      <trkpt lat="49.92542" lon="2.224">
        <ele>15.8</ele>
        <time>2022-02-02T13:39:17Z</time>
      </trkpt>
      <trkpt lat="49.92541" lon="2.224">
        <ele>15.8</ele>
        <time>2022-02-02T13:39:18Z</time>
      </trkpt>
      <trkpt lat="49.9254" lon="2.224">
        <ele>15.8</ele>
        <time>2022-02-02T13:39:19Z</time>
      </trkpt>
      <trkpt lat="49.92538" lon="2.22399">
        <ele>15.8</ele>
        <time>2022-02-02T13:39:20Z</time>
      </trkpt>
      <trkpt lat="49.92537" lon="2.22399">
        <ele>15.8</ele>
        <time>2022-02-02T13:39:21Z</time>
      </trkpt>
      <trkpt lat="49.92537" lon="2.22399">
        <ele>15.8</ele>
        <time>2022-02-02T13:39:22Z</time>
      </trkpt>
      <trkpt lat="49.92535" lon="2.22398">
        <ele>15.8</ele>
        <time>2022-02-02T13:39:23Z</time>
      </trkpt>
      <trkpt lat="49.92534" lon="2.22398">
        <ele>15.8</ele>
        <time>2022-02-02T13:39:24Z</time>
      </trkpt>
      <trkpt lat="49.92532" lon="2.22398">
        <ele>15.8</ele>
        <time>2022-02-02T13:39:25Z</time>
      </trkpt>
      <trkpt lat="49.92531" lon="2.22398">
        <ele>15.8</ele>
        <time>2022-02-02T13:39:26Z</time>
      </trkpt>
      <trkpt lat="49.92529" lon="2.22398">
        <ele>15.8</ele>
        <time>2022-02-02T13:39:27Z</time>
      </trkpt>
      <trkpt lat="49.92528" lon="2.22398">
        <ele>15.8</ele>
        <time>2022-02-02T13:39:29Z</time>
      </trkpt>
      <trkpt lat="49.92527" lon="2.22398">
        <ele>15.9</ele>
        <time>2022-02-02T13:39:30Z</time>
      </trkpt>
      <trkpt lat="49.92525" lon="2.22399">
        <ele>15.9</ele>
        <time>2022-02-02T13:39:31Z</time>
      </trkpt>
      <trkpt lat="49.92524" lon="2.22399">
        <ele>15.9</ele>
        <time>2022-02-02T13:39:32Z</time>
      </trkpt>
      <trkpt lat="49.92522" lon="2.22399">
        <ele>15.9</ele>
        <time>2022-02-02T13:39:33Z</time>
      </trkpt>
      <trkpt lat="49.9252" lon="2.224">
        <ele>15.9</ele>
        <time>2022-02-02T13:39:34Z</time>
      </trkpt>
      <trkpt lat="49.92518" lon="2.22401">
        <ele>15.9</ele>
        <time>2022-02-02T13:39:36Z</time>
      </trkpt>
      <trkpt lat="49.92517" lon="2.22401">
        <ele>15.9</ele>
        <time>2022-02-02T13:39:37Z</time>
      </trkpt>
      <trkpt lat="49.92515" lon="2.22402">
        <ele>15.9</ele>
        <time>2022-02-02T13:39:38Z</time>
      </trkpt>
      <trkpt lat="49.92514" lon="2.22403">
        <ele>16</ele>
        <time>2022-02-02T13:39:39Z</time>
      </trkpt>
      <trkpt lat="49.92512" lon="2.22403">
        <ele>16</ele>
        <time>2022-02-02T13:39:40Z</time>
      </trkpt>
      <trkpt lat="49.92511" lon="2.22404">
        <ele>16</ele>
        <time>2022-02-02T13:39:41Z</time>
      </trkpt>
      <trkpt lat="49.92509" lon="2.22405">
        <ele>16</ele>
        <time>2022-02-02T13:39:42Z</time>
      </trkpt>
      <trkpt lat="49.92508" lon="2.22407">
        <ele>16</ele>
        <time>2022-02-02T13:39:43Z</time>
      </trkpt>
      <trkpt lat="49.92507" lon="2.22407">
        <ele>16</ele>
        <time>2022-02-02T13:39:44Z</time>
      </trkpt>
      <trkpt lat="49.92506" lon="2.22408">
        <ele>16</ele>
        <time>2022-02-02T13:39:45Z</time>
      </trkpt>
      <trkpt lat="49.92504" lon="2.22409">
        <ele>16</ele>
        <time>2022-02-02T13:39:46Z</time>
      </trkpt>
      <trkpt lat="49.92503" lon="2.2241">
        <ele>16</ele>
        <time>2022-02-02T13:39:48Z</time>
      </trkpt>
      <trkpt lat="49.92502" lon="2.2241">
        <ele>16.1</ele>
        <time>2022-02-02T13:39:49Z</time>
      </trkpt>
      <trkpt lat="49.92501" lon="2.22411">
        <ele>16.1</ele>
        <time>2022-02-02T13:39:50Z</time>
      </trkpt>
      <trkpt lat="49.925" lon="2.22412">
        <ele>16.1</ele>
        <time>2022-02-02T13:39:51Z</time>
      </trkpt>
      <trkpt lat="49.92498" lon="2.22413">
        <ele>16.1</ele>
        <time>2022-02-02T13:39:52Z</time>
      </trkpt>
      <trkpt lat="49.92497" lon="2.22414">
        <ele>16.1</ele>
        <time>2022-02-02T13:39:53Z</time>
      </trkpt>
      <trkpt lat="49.92496" lon="2.22414">
        <ele>16.1</ele>
        <time>2022-02-02T13:39:54Z</time>
      </trkpt>
      <trkpt lat="49.92495" lon="2.22415">
        <ele>16.1</ele>
        <time>2022-02-02T13:39:55Z</time>
      </trkpt>
      <trkpt lat="49.92493" lon="2.22415">
        <ele>16.1</ele>
        <time>2022-02-02T13:39:56Z</time>
      </trkpt>
      <trkpt lat="49.92491" lon="2.22416">
        <ele>16.2</ele>
        <time>2022-02-02T13:39:57Z</time>
      </trkpt>
      <trkpt lat="49.9249" lon="2.22416">
        <ele>16.2</ele>
        <time>2022-02-02T13:39:58Z</time>
      </trkpt>
      <trkpt lat="49.92488" lon="2.22418">
        <ele>16.2</ele>
        <time>2022-02-02T13:40:00Z</time>
      </trkpt>
      <trkpt lat="49.92487" lon="2.22418">
        <ele>16.2</ele>
        <time>2022-02-02T13:40:01Z</time>
      </trkpt>
      <trkpt lat="49.92486" lon="2.22419">
        <ele>16.2</ele>
        <time>2022-02-02T13:40:02Z</time>
      </trkpt>
      <trkpt lat="49.92485" lon="2.22421">
        <ele>16.2</ele>
        <time>2022-02-02T13:40:03Z</time>
      </trkpt>
      <trkpt lat="49.92484" lon="2.22423">
        <ele>16.2</ele>
        <time>2022-02-02T13:40:04Z</time>
      </trkpt>
      <trkpt lat="49.92483" lon="2.22424">
        <ele>16.2</ele>
        <time>2022-02-02T13:40:05Z</time>
      </trkpt>
      <trkpt lat="49.92482" lon="2.22426">
        <ele>16.2</ele>
        <time>2022-02-02T13:40:06Z</time>
      </trkpt>
      <trkpt lat="49.92482" lon="2.22428">
        <ele>16.2</ele>
        <time>2022-02-02T13:40:07Z</time>
      </trkpt>
      <trkpt lat="49.92481" lon="2.22431">
        <ele>16.2</ele>
        <time>2022-02-02T13:40:08Z</time>
      </trkpt>
      <trkpt lat="49.92481" lon="2.22433">
        <ele>16.2</ele>
        <time>2022-02-02T13:40:09Z</time>
      </trkpt>
      <trkpt lat="49.9248" lon="2.22435">
        <ele>16.2</ele>
        <time>2022-02-02T13:40:10Z</time>
      </trkpt>
      <trkpt lat="49.9248" lon="2.22437">
        <ele>16.2</ele>
        <time>2022-02-02T13:40:12Z</time>
      </trkpt>
      <trkpt lat="49.92479" lon="2.22439">
        <ele>16.2</ele>
        <time>2022-02-02T13:40:13Z</time>
      </trkpt>
      <trkpt lat="49.92479" lon="2.22442">
        <ele>16.2</ele>
        <time>2022-02-02T13:40:14Z</time>
      </trkpt>
      <trkpt lat="49.92479" lon="2.22444">
        <ele>16.2</ele>
        <time>2022-02-02T13:40:15Z</time>
      </trkpt>
      <trkpt lat="49.92479" lon="2.22446">
        <ele>16.2</ele>
        <time>2022-02-02T13:40:16Z</time>
      </trkpt>
      <trkpt lat="49.92478" lon="2.22448">
        <ele>16.2</ele>
        <time>2022-02-02T13:40:17Z</time>
      </trkpt>
      <trkpt lat="49.92478" lon="2.2245">
        <ele>16.2</ele>
        <time>2022-02-02T13:40:19Z</time>
      </trkpt>
      <trkpt lat="49.92477" lon="2.2245">
        <ele>16.2</ele>
        <time>2022-02-02T13:40:20Z</time>
      </trkpt>
      <trkpt lat="49.92475" lon="2.22448">
        <ele>16.2</ele>
        <time>2022-02-02T13:40:21Z</time>
      </trkpt>
      <trkpt lat="49.92474" lon="2.22447">
        <ele>16.1</ele>
        <time>2022-02-02T13:40:22Z</time>
      </trkpt>
      <trkpt lat="49.92474" lon="2.22446">
        <ele>16.1</ele>
        <time>2022-02-02T13:40:23Z</time>
      </trkpt>
      <trkpt lat="49.92473" lon="2.22444">
        <ele>16.1</ele>
        <time>2022-02-02T13:40:24Z</time>
      </trkpt>
      <trkpt lat="49.92472" lon="2.22442">
        <ele>16.1</ele>
        <time>2022-02-02T13:40:25Z</time>
      </trkpt>
      <trkpt lat="49.9247" lon="2.22441">
        <ele>16.1</ele>
        <time>2022-02-02T13:40:26Z</time>
      </trkpt>
      <trkpt lat="49.9247" lon="2.22439">
        <ele>16</ele>
        <time>2022-02-02T13:40:28Z</time>
      </trkpt>
      <trkpt lat="49.92468" lon="2.22437">
        <ele>16</ele>
        <time>2022-02-02T13:40:29Z</time>
      </trkpt>
      <trkpt lat="49.92467" lon="2.22436">
        <ele>16</ele>
        <time>2022-02-02T13:40:30Z</time>
      </trkpt>
      <trkpt lat="49.92466" lon="2.22434">
        <ele>16</ele>
        <time>2022-02-02T13:40:31Z</time>
      </trkpt>
      <trkpt lat="49.92465" lon="2.22433">
        <ele>16</ele>
        <time>2022-02-02T13:40:32Z</time>
      </trkpt>
      <trkpt lat="49.92464" lon="2.22433">
        <ele>15.9</ele>
        <time>2022-02-02T13:40:33Z</time>
      </trkpt>
      <trkpt lat="49.92463" lon="2.22433">
        <ele>15.9</ele>
        <time>2022-02-02T13:40:34Z</time>
      </trkpt>
      <trkpt lat="49.92462" lon="2.22433">
        <ele>15.9</ele>
        <time>2022-02-02T13:40:36Z</time>
      </trkpt>
      <trkpt lat="49.92461" lon="2.22433">
        <ele>15.9</ele>
        <time>2022-02-02T13:40:37Z</time>
      </trkpt>
      <trkpt lat="49.9246" lon="2.22433">
        <ele>15.9</ele>
        <time>2022-02-02T13:40:38Z</time>
      </trkpt>
      <trkpt lat="49.92458" lon="2.22432">
        <ele>15.9</ele>
        <time>2022-02-02T13:40:40Z</time>
      </trkpt>
      <trkpt lat="49.92457" lon="2.22431">
        <ele>15.8</ele>
        <time>2022-02-02T13:40:41Z</time>
      </trkpt>
      <trkpt lat="49.92456" lon="2.2243">
        <ele>15.8</ele>
        <time>2022-02-02T13:40:42Z</time>
      </trkpt>
      <trkpt lat="49.92456" lon="2.2243">
        <ele>15.8</ele>
        <time>2022-02-02T13:40:43Z</time>
      </trkpt>
      <trkpt lat="49.92455" lon="2.22429">
        <ele>15.8</ele>
        <time>2022-02-02T13:40:44Z</time>
      </trkpt>
      <trkpt lat="49.92455" lon="2.22429">
        <ele>15.8</ele>
        <time>2022-02-02T13:40:45Z</time>
      </trkpt>
      <trkpt lat="49.92456" lon="2.22429">
        <ele>15.8</ele>
        <time>2022-02-02T13:40:46Z</time>
      </trkpt>
      <trkpt lat="49.92456" lon="2.22429">
        <ele>15.8</ele>
        <time>2022-02-02T13:40:47Z</time>
      </trkpt>
      <trkpt lat="49.92456" lon="2.22429">
        <ele>15.8</ele>
        <time>2022-02-02T13:40:48Z</time>
      </trkpt>
      <trkpt lat="49.92456" lon="2.22429">
        <ele>15.8</ele>
        <time>2022-02-02T13:40:49Z</time>
      </trkpt>
      <trkpt lat="49.92456" lon="2.22429">
        <ele>15.8</ele>
        <time>2022-02-02T13:40:50Z</time>
      </trkpt>
      <trkpt lat="49.92456" lon="2.22429">
        <ele>15.8</ele>
        <time>2022-02-02T13:40:51Z</time>
      </trkpt>
      <trkpt lat="49.92456" lon="2.22429">
        <ele>15.8</ele>
        <time>2022-02-02T13:40:52Z</time>
      </trkpt>
      <trkpt lat="49.92456" lon="2.22429">
        <ele>15.8</ele>
        <time>2022-02-02T13:40:53Z</time>
      </trkpt>
      <trkpt lat="49.92456" lon="2.22429">
        <ele>15.8</ele>
        <time>2022-02-02T13:40:54Z</time>
      </trkpt>
      <trkpt lat="49.92456" lon="2.22429">
        <ele>15.8</ele>
        <time>2022-02-02T13:40:55Z</time>
      </trkpt>
      <trkpt lat="49.92456" lon="2.22429">
        <ele>15.8</ele>
        <time>2022-02-02T13:40:56Z</time>
      </trkpt>
      <trkpt lat="49.92456" lon="2.22429">
        <ele>15.8</ele>
        <time>2022-02-02T13:40:57Z</time>
      </trkpt>
      <trkpt lat="49.92456" lon="2.22429">
        <ele>15.8</ele>
        <time>2022-02-02T13:40:58Z</time>
      </trkpt>
      <trkpt lat="49.92457" lon="2.2243">
        <ele>15.8</ele>
        <time>2022-02-02T13:40:59Z</time>
      </trkpt>
      <trkpt lat="49.92457" lon="2.2243">
        <ele>15.8</ele>
        <time>2022-02-02T13:41:00Z</time>
      </trkpt>
      <trkpt lat="49.92457" lon="2.2243">
        <ele>15.8</ele>
        <time>2022-02-02T13:41:01Z</time>
      </trkpt>
      <trkpt lat="49.92457" lon="2.2243">
        <ele>15.8</ele>
        <time>2022-02-02T13:41:02Z</time>
      </trkpt>
      <trkpt lat="49.92457" lon="2.2243">
        <ele>15.8</ele>
        <time>2022-02-02T13:41:03Z</time>
      </trkpt>
      <trkpt lat="49.92457" lon="2.2243">
        <ele>15.8</ele>
        <time>2022-02-02T13:41:04Z</time>
      </trkpt>
      <trkpt lat="49.92459" lon="2.2243">
        <ele>15.8</ele>
        <time>2022-02-02T13:41:05Z</time>
      </trkpt>
      <trkpt lat="49.9246" lon="2.2243">
        <ele>15.7</ele>
        <time>2022-02-02T13:41:06Z</time>
      </trkpt>
      <trkpt lat="49.92459" lon="2.22429">
        <ele>15.7</ele>
        <time>2022-02-02T13:41:07Z</time>
      </trkpt>
      <trkpt lat="49.92458" lon="2.22428">
        <ele>15.7</ele>
        <time>2022-02-02T13:41:08Z</time>
      </trkpt>
      <trkpt lat="49.92459" lon="2.22427">
        <ele>15.7</ele>
        <time>2022-02-02T13:41:09Z</time>
      </trkpt>
      <trkpt lat="49.92459" lon="2.22427">
        <ele>15.7</ele>
        <time>2022-02-02T13:41:10Z</time>
      </trkpt>
      <trkpt lat="49.9246" lon="2.22426">
        <ele>15.7</ele>
        <time>2022-02-02T13:41:11Z</time>
      </trkpt>
      <trkpt lat="49.92461" lon="2.22425">
        <ele>15.7</ele>
        <time>2022-02-02T13:41:12Z</time>
      </trkpt>
      <trkpt lat="49.92461" lon="2.22425">
        <ele>15.7</ele>
        <time>2022-02-02T13:41:13Z</time>
      </trkpt>
      <trkpt lat="49.92461" lon="2.22425">
        <ele>15.7</ele>
        <time>2022-02-02T13:41:15Z</time>
      </trkpt>
      <trkpt lat="49.92461" lon="2.22425">
        <ele>15.7</ele>
        <time>2022-02-02T13:41:16Z</time>
      </trkpt>
      <trkpt lat="49.9246" lon="2.22425">
        <ele>15.7</ele>
        <time>2022-02-02T13:41:17Z</time>
      </trkpt>
      <trkpt lat="49.9246" lon="2.22424">
        <ele>15.7</ele>
        <time>2022-02-02T13:41:19Z</time>
      </trkpt>
      <trkpt lat="49.9246" lon="2.22424">
        <ele>15.7</ele>
        <time>2022-02-02T13:41:20Z</time>
      </trkpt>
      <trkpt lat="49.9246" lon="2.22424">
        <ele>15.7</ele>
        <time>2022-02-02T13:41:21Z</time>
      </trkpt>
      <trkpt lat="49.9246" lon="2.22424">
        <ele>15.7</ele>
        <time>2022-02-02T13:41:22Z</time>
      </trkpt>
      <trkpt lat="49.9246" lon="2.22424">
        <ele>15.6</ele>
        <time>2022-02-02T13:41:23Z</time>
      </trkpt>
      <trkpt lat="49.9246" lon="2.22424">
        <ele>15.6</ele>
        <time>2022-02-02T13:41:24Z</time>
      </trkpt>
      <trkpt lat="49.9246" lon="2.22423">
        <ele>15.6</ele>
        <time>2022-02-02T13:41:25Z</time>
      </trkpt>
      <trkpt lat="49.9246" lon="2.22423">
        <ele>15.6</ele>
        <time>2022-02-02T13:41:26Z</time>
      </trkpt>
      <trkpt lat="49.9246" lon="2.22423">
        <ele>15.6</ele>
        <time>2022-02-02T13:41:27Z</time>
      </trkpt>
      <trkpt lat="49.9246" lon="2.22423">
        <ele>15.6</ele>
        <time>2022-02-02T13:41:28Z</time>
      </trkpt>
      <trkpt lat="49.9246" lon="2.22423">
        <ele>15.6</ele>
        <time>2022-02-02T13:41:29Z</time>
      </trkpt>
      <trkpt lat="49.9246" lon="2.22423">
        <ele>15.6</ele>
        <time>2022-02-02T13:41:30Z</time>
      </trkpt>
      <trkpt lat="49.9246" lon="2.22423">
        <ele>15.6</ele>
        <time>2022-02-02T13:41:31Z</time>
      </trkpt>
      <trkpt lat="49.9246" lon="2.22422">
        <ele>15.6</ele>
        <time>2022-02-02T13:41:32Z</time>
      </trkpt>
      <trkpt lat="49.9246" lon="2.22422">
        <ele>15.6</ele>
        <time>2022-02-02T13:41:33Z</time>
      </trkpt>
      <trkpt lat="49.9246" lon="2.22422">
        <ele>15.6</ele>
        <time>2022-02-02T13:41:34Z</time>
      </trkpt>
      <trkpt lat="49.9246" lon="2.22422">
        <ele>15.6</ele>
        <time>2022-02-02T13:41:35Z</time>
      </trkpt>
      <trkpt lat="49.9246" lon="2.22422">
        <ele>15.6</ele>
        <time>2022-02-02T13:41:36Z</time>
      </trkpt>
      <trkpt lat="49.9246" lon="2.22422">
        <ele>15.6</ele>
        <time>2022-02-02T13:41:37Z</time>
      </trkpt>
      <trkpt lat="49.9246" lon="2.22422">
        <ele>15.6</ele>
        <time>2022-02-02T13:41:38Z</time>
      </trkpt>
      <trkpt lat="49.9246" lon="2.22421">
        <ele>15.6</ele>
        <time>2022-02-02T13:41:39Z</time>
      </trkpt>
      <trkpt lat="49.9246" lon="2.22421">
        <ele>15.6</ele>
        <time>2022-02-02T13:41:40Z</time>
      </trkpt>
      <trkpt lat="49.9246" lon="2.22421">
        <ele>15.6</ele>
        <time>2022-02-02T13:41:41Z</time>
      </trkpt>
      <trkpt lat="49.9246" lon="2.22421">
        <ele>15.6</ele>
        <time>2022-02-02T13:41:42Z</time>
      </trkpt>
      <trkpt lat="49.92459" lon="2.22421">
        <ele>15.6</ele>
        <time>2022-02-02T13:41:43Z</time>
      </trkpt>
      <trkpt lat="49.92459" lon="2.22421">
        <ele>15.6</ele>
        <time>2022-02-02T13:41:44Z</time>
      </trkpt>
      <trkpt lat="49.92459" lon="2.2242">
        <ele>15.6</ele>
        <time>2022-02-02T13:41:45Z</time>
      </trkpt>
      <trkpt lat="49.92459" lon="2.2242">
        <ele>15.6</ele>
        <time>2022-02-02T13:41:46Z</time>
      </trkpt>
      <trkpt lat="49.92459" lon="2.2242">
        <ele>15.6</ele>
        <time>2022-02-02T13:41:47Z</time>
      </trkpt>
      <trkpt lat="49.92459" lon="2.2242">
        <ele>15.6</ele>
        <time>2022-02-02T13:41:48Z</time>
      </trkpt>
      <trkpt lat="49.92459" lon="2.2242">
        <ele>15.6</ele>
        <time>2022-02-02T13:41:49Z</time>
      </trkpt>
      <trkpt lat="49.92459" lon="2.2242">
        <ele>15.6</ele>
        <time>2022-02-02T13:41:50Z</time>
      </trkpt>
      <trkpt lat="49.92459" lon="2.2242">
        <ele>15.6</ele>
        <time>2022-02-02T13:41:51Z</time>
      </trkpt>
      <trkpt lat="49.92459" lon="2.22419">
        <ele>15.6</ele>
        <time>2022-02-02T13:41:52Z</time>
      </trkpt>
      <trkpt lat="49.92459" lon="2.22419">
        <ele>15.6</ele>
        <time>2022-02-02T13:41:53Z</time>
      </trkpt>
      <trkpt lat="49.92459" lon="2.22419">
        <ele>15.6</ele>
        <time>2022-02-02T13:41:54Z</time>
      </trkpt>
      <trkpt lat="49.92459" lon="2.22419">
        <ele>15.6</ele>
        <time>2022-02-02T13:41:55Z</time>
      </trkpt>
      <trkpt lat="49.92459" lon="2.22419">
        <ele>15.6</ele>
        <time>2022-02-02T13:41:56Z</time>
      </trkpt>
      <trkpt lat="49.92459" lon="2.22419">
        <ele>15.6</ele>
        <time>2022-02-02T13:41:57Z</time>
      </trkpt>
      <trkpt lat="49.92459" lon="2.22418">
        <ele>15.6</ele>
        <time>2022-02-02T13:41:58Z</time>
      </trkpt>
      <trkpt lat="49.92459" lon="2.22418">
        <ele>15.6</ele>
        <time>2022-02-02T13:41:59Z</time>
      </trkpt>
      <trkpt lat="49.92459" lon="2.22418">
        <ele>15.6</ele>
        <time>2022-02-02T13:42:00Z</time>
      </trkpt>
      <trkpt lat="49.92459" lon="2.22418">
        <ele>15.6</ele>
        <time>2022-02-02T13:42:01Z</time>
      </trkpt>
      <trkpt lat="49.92459" lon="2.22418">
        <ele>15.6</ele>
        <time>2022-02-02T13:42:02Z</time>
      </trkpt>
      <trkpt lat="49.92459" lon="2.22418">
        <ele>15.6</ele>
        <time>2022-02-02T13:42:03Z</time>
      </trkpt>
      <trkpt lat="49.92457" lon="2.22414">
        <ele>15.6</ele>
        <time>2022-02-02T13:42:04Z</time>
      </trkpt>
      <trkpt lat="49.92456" lon="2.22413">
        <ele>15.6</ele>
        <time>2022-02-02T13:42:05Z</time>
      </trkpt>
      <trkpt lat="49.92455" lon="2.22411">
        <ele>15.5</ele>
        <time>2022-02-02T13:42:06Z</time>
      </trkpt>
      <trkpt lat="49.92453" lon="2.22408">
        <ele>15.5</ele>
        <time>2022-02-02T13:42:08Z</time>
      </trkpt>
      <trkpt lat="49.92451" lon="2.22405">
        <ele>15.5</ele>
        <time>2022-02-02T13:42:09Z</time>
      </trkpt>
      <trkpt lat="49.9245" lon="2.22404">
        <ele>15.5</ele>
        <time>2022-02-02T13:42:10Z</time>
      </trkpt>
      <trkpt lat="49.92448" lon="2.22402">
        <ele>15.5</ele>
        <time>2022-02-02T13:42:11Z</time>
      </trkpt>
      <trkpt lat="49.92447" lon="2.22401">
        <ele>15.5</ele>
        <time>2022-02-02T13:42:12Z</time>
      </trkpt>
      <trkpt lat="49.92445" lon="2.224">
        <ele>15.4</ele>
        <time>2022-02-02T13:42:13Z</time>
      </trkpt>
      <trkpt lat="49.92444" lon="2.22398">
        <ele>15.4</ele>
        <time>2022-02-02T13:42:14Z</time>
      </trkpt>
      <trkpt lat="49.92443" lon="2.22396">
        <ele>15.4</ele>
        <time>2022-02-02T13:42:15Z</time>
      </trkpt>
      <trkpt lat="49.92442" lon="2.22395">
        <ele>15.4</ele>
        <time>2022-02-02T13:42:17Z</time>
      </trkpt>
      <trkpt lat="49.92441" lon="2.22393">
        <ele>15.4</ele>
        <time>2022-02-02T13:42:18Z</time>
      </trkpt>
      <trkpt lat="49.9244" lon="2.22392">
        <ele>15.4</ele>
        <time>2022-02-02T13:42:19Z</time>
      </trkpt>
      <trkpt lat="49.92438" lon="2.2239">
        <ele>15.4</ele>
        <time>2022-02-02T13:42:20Z</time>
      </trkpt>
      <trkpt lat="49.92437" lon="2.22388">
        <ele>15.4</ele>
        <time>2022-02-02T13:42:22Z</time>
      </trkpt>
      <trkpt lat="49.92435" lon="2.22387">
        <ele>15.4</ele>
        <time>2022-02-02T13:42:23Z</time>
      </trkpt>
      <trkpt lat="49.92434" lon="2.22386">
        <ele>15.4</ele>
        <time>2022-02-02T13:42:24Z</time>
      </trkpt>
      <trkpt lat="49.92434" lon="2.22386">
        <ele>15.4</ele>
        <time>2022-02-02T13:42:25Z</time>
      </trkpt>
      <trkpt lat="49.92432" lon="2.22385">
        <ele>15.3</ele>
        <time>2022-02-02T13:42:26Z</time>
      </trkpt>
      <trkpt lat="49.92431" lon="2.22384">
        <ele>15.3</ele>
        <time>2022-02-02T13:42:27Z</time>
      </trkpt>
      <trkpt lat="49.9243" lon="2.22384">
        <ele>15.3</ele>
        <time>2022-02-02T13:42:28Z</time>
      </trkpt>
      <trkpt lat="49.92428" lon="2.22383">
        <ele>15.3</ele>
        <time>2022-02-02T13:42:29Z</time>
      </trkpt>
      <trkpt lat="49.92427" lon="2.22382">
        <ele>15.3</ele>
        <time>2022-02-02T13:42:30Z</time>
      </trkpt>
      <trkpt lat="49.92426" lon="2.22381">
        <ele>15.3</ele>
        <time>2022-02-02T13:42:32Z</time>
      </trkpt>
      <trkpt lat="49.92425" lon="2.2238">
        <ele>15.3</ele>
        <time>2022-02-02T13:42:33Z</time>
      </trkpt>
      <trkpt lat="49.92424" lon="2.22379">
        <ele>15.3</ele>
        <time>2022-02-02T13:42:34Z</time>
      </trkpt>
      <trkpt lat="49.92423" lon="2.22379">
        <ele>15.3</ele>
        <time>2022-02-02T13:42:35Z</time>
      </trkpt>
      <trkpt lat="49.92422" lon="2.22378">
        <ele>15.3</ele>
        <time>2022-02-02T13:42:36Z</time>
      </trkpt>
      <trkpt lat="49.92421" lon="2.22377">
        <ele>15.3</ele>
        <time>2022-02-02T13:42:37Z</time>
      </trkpt>
      <trkpt lat="49.92419" lon="2.22375">
        <ele>15.3</ele>
        <time>2022-02-02T13:42:38Z</time>
      </trkpt>
      <trkpt lat="49.92418" lon="2.22375">
        <ele>15.3</ele>
        <time>2022-02-02T13:42:39Z</time>
      </trkpt>
      <trkpt lat="49.92418" lon="2.22374">
        <ele>15.3</ele>
        <time>2022-02-02T13:42:40Z</time>
      </trkpt>
      <trkpt lat="49.92417" lon="2.22373">
        <ele>15.3</ele>
        <time>2022-02-02T13:42:42Z</time>
      </trkpt>
      <trkpt lat="49.92416" lon="2.22373">
        <ele>15.2</ele>
        <time>2022-02-02T13:42:43Z</time>
      </trkpt>
      <trkpt lat="49.92414" lon="2.22372">
        <ele>15.2</ele>
        <time>2022-02-02T13:42:44Z</time>
      </trkpt>
      <trkpt lat="49.92412" lon="2.22371">
        <ele>15.2</ele>
        <time>2022-02-02T13:42:45Z</time>
      </trkpt>
      <trkpt lat="49.92411" lon="2.22371">
        <ele>15.2</ele>
        <time>2022-02-02T13:42:46Z</time>
      </trkpt>
      <trkpt lat="49.9241" lon="2.2237">
        <ele>15.2</ele>
        <time>2022-02-02T13:42:47Z</time>
      </trkpt>
      <trkpt lat="49.92409" lon="2.2237">
        <ele>15.2</ele>
        <time>2022-02-02T13:42:48Z</time>
      </trkpt>
      <trkpt lat="49.92407" lon="2.22369">
        <ele>15.2</ele>
        <time>2022-02-02T13:42:49Z</time>
      </trkpt>
      <trkpt lat="49.92406" lon="2.22368">
        <ele>15.2</ele>
        <time>2022-02-02T13:42:50Z</time>
      </trkpt>
      <trkpt lat="49.92405" lon="2.22368">
        <ele>15.2</ele>
        <time>2022-02-02T13:42:51Z</time>
      </trkpt>
      <trkpt lat="49.92403" lon="2.22367">
        <ele>15.2</ele>
        <time>2022-02-02T13:42:53Z</time>
      </trkpt>
      <trkpt lat="49.92402" lon="2.22367">
        <ele>15.2</ele>
        <time>2022-02-02T13:42:54Z</time>
      </trkpt>
      <trkpt lat="49.924" lon="2.22366">
        <ele>15.2</ele>
        <time>2022-02-02T13:42:55Z</time>
      </trkpt>
      <trkpt lat="49.92399" lon="2.22366">
        <ele>15.2</ele>
        <time>2022-02-02T13:42:56Z</time>
      </trkpt>
      <trkpt lat="49.92397" lon="2.22365">
        <ele>15.1</ele>
        <time>2022-02-02T13:42:57Z</time>
      </trkpt>
      <trkpt lat="49.92396" lon="2.22365">
        <ele>15.1</ele>
        <time>2022-02-02T13:42:58Z</time>
      </trkpt>
      <trkpt lat="49.92395" lon="2.22364">
        <ele>15.1</ele>
        <time>2022-02-02T13:42:59Z</time>
      </trkpt>
      <trkpt lat="49.92392" lon="2.22363">
        <ele>15.1</ele>
        <time>2022-02-02T13:43:00Z</time>
      </trkpt>
      <trkpt lat="49.92391" lon="2.22362">
        <ele>15.1</ele>
        <time>2022-02-02T13:43:01Z</time>
      </trkpt>
      <trkpt lat="49.92389" lon="2.22361">
        <ele>15.1</ele>
        <time>2022-02-02T13:43:03Z</time>
      </trkpt>
      <trkpt lat="49.92389" lon="2.2236">
        <ele>15.1</ele>
        <time>2022-02-02T13:43:04Z</time>
      </trkpt>
      <trkpt lat="49.92388" lon="2.2236">
        <ele>15.1</ele>
        <time>2022-02-02T13:43:05Z</time>
      </trkpt>
      <trkpt lat="49.92387" lon="2.22359">
        <ele>15.1</ele>
        <time>2022-02-02T13:43:06Z</time>
      </trkpt>
      <trkpt lat="49.92386" lon="2.22358">
        <ele>15.1</ele>
        <time>2022-02-02T13:43:07Z</time>
      </trkpt>
      <trkpt lat="49.92385" lon="2.22358">
        <ele>15.1</ele>
        <time>2022-02-02T13:43:08Z</time>
      </trkpt>
      <trkpt lat="49.92384" lon="2.22357">
        <ele>15.1</ele>
        <time>2022-02-02T13:43:09Z</time>
      </trkpt>
      <trkpt lat="49.92382" lon="2.22356">
        <ele>15.1</ele>
        <time>2022-02-02T13:43:10Z</time>
      </trkpt>
      <trkpt lat="49.92381" lon="2.22355">
        <ele>15.1</ele>
        <time>2022-02-02T13:43:11Z</time>
      </trkpt>
      <trkpt lat="49.9238" lon="2.22354">
        <ele>15.1</ele>
        <time>2022-02-02T13:43:12Z</time>
      </trkpt>
      <trkpt lat="49.92379" lon="2.22353">
        <ele>15.1</ele>
        <time>2022-02-02T13:43:14Z</time>
      </trkpt>
      <trkpt lat="49.92377" lon="2.22351">
        <ele>15.1</ele>
        <time>2022-02-02T13:43:15Z</time>
      </trkpt>
      <trkpt lat="49.92377" lon="2.2235">
        <ele>15</ele>
        <time>2022-02-02T13:43:16Z</time>
      </trkpt>
      <trkpt lat="49.92376" lon="2.22349">
        <ele>15</ele>
        <time>2022-02-02T13:43:17Z</time>
      </trkpt>
      <trkpt lat="49.92375" lon="2.22348">
        <ele>15</ele>
        <time>2022-02-02T13:43:18Z</time>
      </trkpt>
      <trkpt lat="49.92374" lon="2.22347">
        <ele>15</ele>
        <time>2022-02-02T13:43:19Z</time>
      </trkpt>
      <trkpt lat="49.92373" lon="2.22346">
        <ele>15</ele>
        <time>2022-02-02T13:43:20Z</time>
      </trkpt>
      <trkpt lat="49.92372" lon="2.22345">
        <ele>15</ele>
        <time>2022-02-02T13:43:21Z</time>
      </trkpt>
      <trkpt lat="49.92371" lon="2.22344">
        <ele>15</ele>
        <time>2022-02-02T13:43:22Z</time>
      </trkpt>
      <trkpt lat="49.9237" lon="2.22343">
        <ele>15</ele>
        <time>2022-02-02T13:43:24Z</time>
      </trkpt>
      <trkpt lat="49.92369" lon="2.22342">
        <ele>15</ele>
        <time>2022-02-02T13:43:25Z</time>
      </trkpt>
      <trkpt lat="49.92369" lon="2.22341">
        <ele>14.9</ele>
        <time>2022-02-02T13:43:26Z</time>
      </trkpt>
      <trkpt lat="49.92368" lon="2.22341">
        <ele>14.9</ele>
        <time>2022-02-02T13:43:27Z</time>
      </trkpt>
      <trkpt lat="49.92367" lon="2.2234">
        <ele>14.9</ele>
        <time>2022-02-02T13:43:28Z</time>
      </trkpt>
      <trkpt lat="49.92366" lon="2.22339">
        <ele>14.9</ele>
        <time>2022-02-02T13:43:29Z</time>
      </trkpt>
      <trkpt lat="49.92365" lon="2.22339">
        <ele>14.9</ele>
        <time>2022-02-02T13:43:30Z</time>
      </trkpt>
      <trkpt lat="49.92365" lon="2.22338">
        <ele>14.9</ele>
        <time>2022-02-02T13:43:31Z</time>
      </trkpt>
      <trkpt lat="49.92364" lon="2.22337">
        <ele>14.9</ele>
        <time>2022-02-02T13:43:32Z</time>
      </trkpt>
      <trkpt lat="49.92363" lon="2.22335">
        <ele>14.9</ele>
        <time>2022-02-02T13:43:33Z</time>
      </trkpt>
      <trkpt lat="49.92362" lon="2.22335">
        <ele>14.9</ele>
        <time>2022-02-02T13:43:34Z</time>
      </trkpt>
      <trkpt lat="49.9236" lon="2.22334">
        <ele>14.8</ele>
        <time>2022-02-02T13:43:36Z</time>
      </trkpt>
      <trkpt lat="49.9236" lon="2.22333">
        <ele>14.8</ele>
        <time>2022-02-02T13:43:37Z</time>
      </trkpt>
      <trkpt lat="49.92358" lon="2.22332">
        <ele>14.8</ele>
        <time>2022-02-02T13:43:38Z</time>
      </trkpt>
      <trkpt lat="49.92357" lon="2.22331">
        <ele>14.8</ele>
        <time>2022-02-02T13:43:39Z</time>
      </trkpt>
      <trkpt lat="49.92356" lon="2.22331">
        <ele>14.8</ele>
        <time>2022-02-02T13:43:40Z</time>
      </trkpt>
      <trkpt lat="49.92354" lon="2.22329">
        <ele>14.8</ele>
        <time>2022-02-02T13:43:41Z</time>
      </trkpt>
      <trkpt lat="49.92354" lon="2.22329">
        <ele>14.8</ele>
        <time>2022-02-02T13:43:42Z</time>
      </trkpt>
      <trkpt lat="49.92353" lon="2.22328">
        <ele>14.8</ele>
        <time>2022-02-02T13:43:43Z</time>
      </trkpt>
      <trkpt lat="49.92351" lon="2.22327">
        <ele>14.7</ele>
        <time>2022-02-02T13:43:44Z</time>
      </trkpt>
      <trkpt lat="49.9235" lon="2.22326">
        <ele>14.7</ele>
        <time>2022-02-02T13:43:45Z</time>
      </trkpt>
      <trkpt lat="49.92348" lon="2.22325">
        <ele>14.7</ele>
        <time>2022-02-02T13:43:47Z</time>
      </trkpt>
      <trkpt lat="49.92347" lon="2.22324">
        <ele>14.7</ele>
        <time>2022-02-02T13:43:48Z</time>
      </trkpt>
      <trkpt lat="49.92346" lon="2.22323">
        <ele>14.7</ele>
        <time>2022-02-02T13:43:49Z</time>
      </trkpt>
      <trkpt lat="49.92345" lon="2.22322">
        <ele>14.7</ele>
        <time>2022-02-02T13:43:50Z</time>
      </trkpt>
      <trkpt lat="49.92343" lon="2.2232">
        <ele>14.6</ele>
        <time>2022-02-02T13:43:51Z</time>
      </trkpt>
      <trkpt lat="49.92342" lon="2.22319">
        <ele>14.6</ele>
        <time>2022-02-02T13:43:52Z</time>
      </trkpt>
      <trkpt lat="49.92341" lon="2.22319">
        <ele>14.6</ele>
        <time>2022-02-02T13:43:53Z</time>
      </trkpt>
      <trkpt lat="49.9234" lon="2.22317">
        <ele>14.6</ele>
        <time>2022-02-02T13:43:54Z</time>
      </trkpt>
      <trkpt lat="49.92339" lon="2.22316">
        <ele>14.6</ele>
        <time>2022-02-02T13:43:55Z</time>
      </trkpt>
      <trkpt lat="49.92338" lon="2.22315">
        <ele>14.6</ele>
        <time>2022-02-02T13:43:56Z</time>
      </trkpt>
      <trkpt lat="49.92336" lon="2.22314">
        <ele>14.6</ele>
        <time>2022-02-02T13:43:57Z</time>
      </trkpt>
      <trkpt lat="49.92335" lon="2.22313">
        <ele>14.5</ele>
        <time>2022-02-02T13:43:59Z</time>
      </trkpt>
      <trkpt lat="49.92334" lon="2.22312">
        <ele>14.5</ele>
        <time>2022-02-02T13:44:00Z</time>
      </trkpt>
      <trkpt lat="49.92333" lon="2.2231">
        <ele>14.5</ele>
        <time>2022-02-02T13:44:01Z</time>
      </trkpt>
      <trkpt lat="49.92331" lon="2.22309">
        <ele>14.5</ele>
        <time>2022-02-02T13:44:02Z</time>
      </trkpt>
      <trkpt lat="49.9233" lon="2.22308">
        <ele>14.4</ele>
        <time>2022-02-02T13:44:03Z</time>
      </trkpt>
      <trkpt lat="49.92329" lon="2.22307">
        <ele>14.4</ele>
        <time>2022-02-02T13:44:04Z</time>
      </trkpt>
      <trkpt lat="49.92328" lon="2.22306">
        <ele>14.4</ele>
        <time>2022-02-02T13:44:05Z</time>
      </trkpt>
      <trkpt lat="49.92327" lon="2.22305">
        <ele>14.4</ele>
        <time>2022-02-02T13:44:06Z</time>
      </trkpt>
      <trkpt lat="49.92325" lon="2.22303">
        <ele>14.3</ele>
        <time>2022-02-02T13:44:07Z</time>
      </trkpt>
      <trkpt lat="49.92324" lon="2.22302">
        <ele>14.3</ele>
        <time>2022-02-02T13:44:09Z</time>
      </trkpt>
      <trkpt lat="49.92324" lon="2.22302">
        <ele>14.3</ele>
        <time>2022-02-02T13:44:10Z</time>
      </trkpt>
      <trkpt lat="49.92322" lon="2.223">
        <ele>14.2</ele>
        <time>2022-02-02T13:44:11Z</time>
      </trkpt>
      <trkpt lat="49.92321" lon="2.22299">
        <ele>14.2</ele>
        <time>2022-02-02T13:44:12Z</time>
      </trkpt>
      <trkpt lat="49.92321" lon="2.22299">
        <ele>14.2</ele>
        <time>2022-02-02T13:44:13Z</time>
      </trkpt>
      <trkpt lat="49.9232" lon="2.22298">
        <ele>14.2</ele>
        <time>2022-02-02T13:44:14Z</time>
      </trkpt>
      <trkpt lat="49.92319" lon="2.22297">
        <ele>14.1</ele>
        <time>2022-02-02T13:44:15Z</time>
      </trkpt>
      <trkpt lat="49.92317" lon="2.22296">
        <ele>14.1</ele>
        <time>2022-02-02T13:44:16Z</time>
      </trkpt>
      <trkpt lat="49.92317" lon="2.22295">
        <ele>14.1</ele>
        <time>2022-02-02T13:44:17Z</time>
      </trkpt>
      <trkpt lat="49.92316" lon="2.22294">
        <ele>14</ele>
        <time>2022-02-02T13:44:18Z</time>
      </trkpt>
      <trkpt lat="49.92315" lon="2.22293">
        <ele>14</ele>
        <time>2022-02-02T13:44:20Z</time>
      </trkpt>
      <trkpt lat="49.92314" lon="2.22292">
        <ele>13.9</ele>
        <time>2022-02-02T13:44:21Z</time>
      </trkpt>
      <trkpt lat="49.92313" lon="2.22291">
        <ele>13.9</ele>
        <time>2022-02-02T13:44:22Z</time>
      </trkpt>
      <trkpt lat="49.92312" lon="2.2229">
        <ele>13.9</ele>
        <time>2022-02-02T13:44:23Z</time>
      </trkpt>
      <trkpt lat="49.92311" lon="2.22289">
        <ele>13.8</ele>
        <time>2022-02-02T13:44:24Z</time>
      </trkpt>
      <trkpt lat="49.9231" lon="2.22288">
        <ele>13.8</ele>
        <time>2022-02-02T13:44:25Z</time>
      </trkpt>
      <trkpt lat="49.92309" lon="2.22288">
        <ele>13.8</ele>
        <time>2022-02-02T13:44:26Z</time>
      </trkpt>
      <trkpt lat="49.92308" lon="2.22287">
        <ele>13.7</ele>
        <time>2022-02-02T13:44:27Z</time>
      </trkpt>
      <trkpt lat="49.92306" lon="2.22286">
        <ele>13.7</ele>
        <time>2022-02-02T13:44:28Z</time>
      </trkpt>
      <trkpt lat="49.92305" lon="2.22286">
        <ele>13.6</ele>
        <time>2022-02-02T13:44:29Z</time>
      </trkpt>
      <trkpt lat="49.92303" lon="2.22286">
        <ele>13.6</ele>
        <time>2022-02-02T13:44:30Z</time>
      </trkpt>
      <trkpt lat="49.92302" lon="2.22287">
        <ele>13.5</ele>
        <time>2022-02-02T13:44:32Z</time>
      </trkpt>
      <trkpt lat="49.923" lon="2.22288">
        <ele>13.5</ele>
        <time>2022-02-02T13:44:33Z</time>
      </trkpt>
      <trkpt lat="49.92299" lon="2.22289">
        <ele>13.3</ele>
        <time>2022-02-02T13:44:34Z</time>
      </trkpt>
      <trkpt lat="49.92298" lon="2.22291">
        <ele>13.3</ele>
        <time>2022-02-02T13:44:35Z</time>
      </trkpt>
      <trkpt lat="49.92297" lon="2.22293">
        <ele>13.3</ele>
        <time>2022-02-02T13:44:36Z</time>
      </trkpt>
      <trkpt lat="49.92296" lon="2.22295">
        <ele>13.2</ele>
        <time>2022-02-02T13:44:37Z</time>
      </trkpt>
      <trkpt lat="49.92295" lon="2.22297">
        <ele>13.1</ele>
        <time>2022-02-02T13:44:38Z</time>
      </trkpt>
      <trkpt lat="49.92294" lon="2.22299">
        <ele>13.1</ele>
        <time>2022-02-02T13:44:39Z</time>
      </trkpt>
      <trkpt lat="49.92294" lon="2.22301">
        <ele>13.1</ele>
        <time>2022-02-02T13:44:41Z</time>
      </trkpt>
      <trkpt lat="49.92293" lon="2.22303">
        <ele>13</ele>
        <time>2022-02-02T13:44:42Z</time>
      </trkpt>
      <trkpt lat="49.92292" lon="2.22304">
        <ele>13</ele>
        <time>2022-02-02T13:44:43Z</time>
      </trkpt>
      <trkpt lat="49.92291" lon="2.22305">
        <ele>13</ele>
        <time>2022-02-02T13:44:44Z</time>
      </trkpt>
      <trkpt lat="49.9229" lon="2.22306">
        <ele>13</ele>
        <time>2022-02-02T13:44:45Z</time>
      </trkpt>
      <trkpt lat="49.92289" lon="2.22307">
        <ele>13</ele>
        <time>2022-02-02T13:44:46Z</time>
      </trkpt>
      <trkpt lat="49.92288" lon="2.22308">
        <ele>13</ele>
        <time>2022-02-02T13:44:47Z</time>
      </trkpt>
      <trkpt lat="49.92287" lon="2.2231">
        <ele>13</ele>
        <time>2022-02-02T13:44:48Z</time>
      </trkpt>
      <trkpt lat="49.92286" lon="2.2231">
        <ele>13</ele>
        <time>2022-02-02T13:44:49Z</time>
      </trkpt>
      <trkpt lat="49.92285" lon="2.22311">
        <ele>13</ele>
        <time>2022-02-02T13:44:50Z</time>
      </trkpt>
      <trkpt lat="49.92284" lon="2.22312">
        <ele>13</ele>
        <time>2022-02-02T13:44:51Z</time>
      </trkpt>
      <trkpt lat="49.92283" lon="2.22313">
        <ele>13</ele>
        <time>2022-02-02T13:44:52Z</time>
      </trkpt>
      <trkpt lat="49.92282" lon="2.22314">
        <ele>13</ele>
        <time>2022-02-02T13:44:53Z</time>
      </trkpt>
      <trkpt lat="49.92282" lon="2.22315">
        <ele>13</ele>
        <time>2022-02-02T13:44:54Z</time>
      </trkpt>
      <trkpt lat="49.92281" lon="2.22316">
        <ele>13</ele>
        <time>2022-02-02T13:44:55Z</time>
      </trkpt>
      <trkpt lat="49.9228" lon="2.22317">
        <ele>13</ele>
        <time>2022-02-02T13:44:56Z</time>
      </trkpt>
      <trkpt lat="49.92279" lon="2.22319">
        <ele>13</ele>
        <time>2022-02-02T13:44:58Z</time>
      </trkpt>
      <trkpt lat="49.92278" lon="2.2232">
        <ele>13</ele>
        <time>2022-02-02T13:44:59Z</time>
      </trkpt>
      <trkpt lat="49.92277" lon="2.22321">
        <ele>13</ele>
        <time>2022-02-02T13:45:00Z</time>
      </trkpt>
      <trkpt lat="49.92276" lon="2.22322">
        <ele>13</ele>
        <time>2022-02-02T13:45:01Z</time>
      </trkpt>
      <trkpt lat="49.92275" lon="2.22323">
        <ele>13</ele>
        <time>2022-02-02T13:45:03Z</time>
      </trkpt>
      <trkpt lat="49.92274" lon="2.22324">
        <ele>13</ele>
        <time>2022-02-02T13:45:04Z</time>
      </trkpt>
      <trkpt lat="49.92273" lon="2.22325">
        <ele>13</ele>
        <time>2022-02-02T13:45:05Z</time>
      </trkpt>
      <trkpt lat="49.92273" lon="2.22326">
        <ele>13</ele>
        <time>2022-02-02T13:45:06Z</time>
      </trkpt>
      <trkpt lat="49.92272" lon="2.22327">
        <ele>13</ele>
        <time>2022-02-02T13:45:07Z</time>
      </trkpt>
      <trkpt lat="49.92272" lon="2.22328">
        <ele>13</ele>
        <time>2022-02-02T13:45:08Z</time>
      </trkpt>
      <trkpt lat="49.92271" lon="2.2233">
        <ele>13</ele>
        <time>2022-02-02T13:45:09Z</time>
      </trkpt>
      <trkpt lat="49.92271" lon="2.22331">
        <ele>13</ele>
        <time>2022-02-02T13:45:10Z</time>
      </trkpt>
      <trkpt lat="49.92271" lon="2.22332">
        <ele>13</ele>
        <time>2022-02-02T13:45:11Z</time>
      </trkpt>
      <trkpt lat="49.92271" lon="2.22334">
        <ele>13</ele>
        <time>2022-02-02T13:45:13Z</time>
      </trkpt>
      <trkpt lat="49.9227" lon="2.22335">
        <ele>13</ele>
        <time>2022-02-02T13:45:14Z</time>
      </trkpt>
      <trkpt lat="49.9227" lon="2.22337">
        <ele>13</ele>
        <time>2022-02-02T13:45:15Z</time>
      </trkpt>
      <trkpt lat="49.9227" lon="2.22338">
        <ele>13</ele>
        <time>2022-02-02T13:45:16Z</time>
      </trkpt>
      <trkpt lat="49.92269" lon="2.22339">
        <ele>13</ele>
        <time>2022-02-02T13:45:17Z</time>
      </trkpt>
      <trkpt lat="49.92269" lon="2.22341">
        <ele>13</ele>
        <time>2022-02-02T13:45:18Z</time>
      </trkpt>
      <trkpt lat="49.92268" lon="2.22343">
        <ele>13</ele>
        <time>2022-02-02T13:45:19Z</time>
      </trkpt>
      <trkpt lat="49.92267" lon="2.22345">
        <ele>13</ele>
        <time>2022-02-02T13:45:20Z</time>
      </trkpt>
      <trkpt lat="49.92266" lon="2.22346">
        <ele>13</ele>
        <time>2022-02-02T13:45:21Z</time>
      </trkpt>
      <trkpt lat="49.92265" lon="2.22348">
        <ele>13</ele>
        <time>2022-02-02T13:45:22Z</time>
      </trkpt>
      <trkpt lat="49.92264" lon="2.2235">
        <ele>13</ele>
        <time>2022-02-02T13:45:24Z</time>
      </trkpt>
      <trkpt lat="49.92263" lon="2.22352">
        <ele>13</ele>
        <time>2022-02-02T13:45:25Z</time>
      </trkpt>
      <trkpt lat="49.92263" lon="2.22354">
        <ele>13</ele>
        <time>2022-02-02T13:45:26Z</time>
      </trkpt>
      <trkpt lat="49.92262" lon="2.22355">
        <ele>13</ele>
        <time>2022-02-02T13:45:27Z</time>
      </trkpt>
      <trkpt lat="49.92261" lon="2.22357">
        <ele>13</ele>
        <time>2022-02-02T13:45:28Z</time>
      </trkpt>
      <trkpt lat="49.9226" lon="2.2236">
        <ele>13</ele>
        <time>2022-02-02T13:45:29Z</time>
      </trkpt>
      <trkpt lat="49.92259" lon="2.22361">
        <ele>13</ele>
        <time>2022-02-02T13:45:30Z</time>
      </trkpt>
      <trkpt lat="49.92259" lon="2.22362">
        <ele>13</ele>
        <time>2022-02-02T13:45:31Z</time>
      </trkpt>
      <trkpt lat="49.92258" lon="2.22365">
        <ele>13</ele>
        <time>2022-02-02T13:45:32Z</time>
      </trkpt>
      <trkpt lat="49.92257" lon="2.22367">
        <ele>13</ele>
        <time>2022-02-02T13:45:33Z</time>
      </trkpt>
      <trkpt lat="49.92257" lon="2.2237">
        <ele>13</ele>
        <time>2022-02-02T13:45:35Z</time>
      </trkpt>
      <trkpt lat="49.92257" lon="2.22372">
        <ele>13</ele>
        <time>2022-02-02T13:45:36Z</time>
      </trkpt>
      <trkpt lat="49.92256" lon="2.22374">
        <ele>13</ele>
        <time>2022-02-02T13:45:37Z</time>
      </trkpt>
      <trkpt lat="49.92256" lon="2.22376">
        <ele>13</ele>
        <time>2022-02-02T13:45:38Z</time>
      </trkpt>
      <trkpt lat="49.92255" lon="2.22378">
        <ele>13</ele>
        <time>2022-02-02T13:45:39Z</time>
      </trkpt>
      <trkpt lat="49.92255" lon="2.2238">
        <ele>13</ele>
        <time>2022-02-02T13:45:40Z</time>
      </trkpt>
      <trkpt lat="49.92254" lon="2.22383">
        <ele>13</ele>
        <time>2022-02-02T13:45:41Z</time>
      </trkpt>
      <trkpt lat="49.92253" lon="2.22385">
        <ele>13.1</ele>
        <time>2022-02-02T13:45:42Z</time>
      </trkpt>
      <trkpt lat="49.92252" lon="2.22387">
        <ele>13.1</ele>
        <time>2022-02-02T13:45:44Z</time>
      </trkpt>
      <trkpt lat="49.92252" lon="2.22388">
        <ele>13.1</ele>
        <time>2022-02-02T13:45:45Z</time>
      </trkpt>
      <trkpt lat="49.92251" lon="2.22392">
        <ele>13.1</ele>
        <time>2022-02-02T13:45:46Z</time>
      </trkpt>
      <trkpt lat="49.92251" lon="2.22393">
        <ele>13.1</ele>
        <time>2022-02-02T13:45:47Z</time>
      </trkpt>
      <trkpt lat="49.9225" lon="2.22394">
        <ele>13.1</ele>
        <time>2022-02-02T13:45:48Z</time>
      </trkpt>
      <trkpt lat="49.9225" lon="2.22396">
        <ele>13.1</ele>
        <time>2022-02-02T13:45:49Z</time>
      </trkpt>
      <trkpt lat="49.92249" lon="2.22398">
        <ele>13.1</ele>
        <time>2022-02-02T13:45:50Z</time>
      </trkpt>
      <trkpt lat="49.92249" lon="2.224">
        <ele>13.1</ele>
        <time>2022-02-02T13:45:52Z</time>
      </trkpt>
      <trkpt lat="49.92248" lon="2.22403">
        <ele>13.1</ele>
        <time>2022-02-02T13:45:53Z</time>
      </trkpt>
      <trkpt lat="49.92248" lon="2.22406">
        <ele>13.1</ele>
        <time>2022-02-02T13:45:54Z</time>
      </trkpt>
      <trkpt lat="49.92247" lon="2.22407">
        <ele>13.1</ele>
        <time>2022-02-02T13:45:55Z</time>
      </trkpt>
      <trkpt lat="49.92247" lon="2.22408">
        <ele>13.1</ele>
        <time>2022-02-02T13:45:56Z</time>
      </trkpt>
      <trkpt lat="49.92246" lon="2.22411">
        <ele>13.1</ele>
        <time>2022-02-02T13:45:57Z</time>
      </trkpt>
      <trkpt lat="49.92246" lon="2.22413">
        <ele>13.1</ele>
        <time>2022-02-02T13:45:58Z</time>
      </trkpt>
      <trkpt lat="49.92246" lon="2.22414">
        <ele>13.1</ele>
        <time>2022-02-02T13:45:59Z</time>
      </trkpt>
      <trkpt lat="49.92245" lon="2.22416">
        <ele>13.1</ele>
        <time>2022-02-02T13:46:01Z</time>
      </trkpt>
      <trkpt lat="49.92245" lon="2.22418">
        <ele>13.1</ele>
        <time>2022-02-02T13:46:02Z</time>
      </trkpt>
      <trkpt lat="49.92244" lon="2.2242">
        <ele>13.1</ele>
        <time>2022-02-02T13:46:03Z</time>
      </trkpt>
      <trkpt lat="49.92244" lon="2.22423">
        <ele>13.1</ele>
        <time>2022-02-02T13:46:04Z</time>
      </trkpt>
      <trkpt lat="49.92243" lon="2.22425">
        <ele>13.1</ele>
        <time>2022-02-02T13:46:05Z</time>
      </trkpt>
      <trkpt lat="49.92243" lon="2.22427">
        <ele>13.1</ele>
        <time>2022-02-02T13:46:06Z</time>
      </trkpt>
      <trkpt lat="49.92242" lon="2.22429">
        <ele>13.1</ele>
        <time>2022-02-02T13:46:07Z</time>
      </trkpt>
      <trkpt lat="49.92242" lon="2.22431">
        <ele>13.1</ele>
        <time>2022-02-02T13:46:08Z</time>
      </trkpt>
      <trkpt lat="49.92241" lon="2.22433">
        <ele>13.1</ele>
        <time>2022-02-02T13:46:10Z</time>
      </trkpt>
      <trkpt lat="49.92241" lon="2.22434">
        <ele>13.1</ele>
        <time>2022-02-02T13:46:11Z</time>
      </trkpt>
      <trkpt lat="49.9224" lon="2.22437">
        <ele>13.1</ele>
        <time>2022-02-02T13:46:12Z</time>
      </trkpt>
      <trkpt lat="49.92239" lon="2.2244">
        <ele>13.1</ele>
        <time>2022-02-02T13:46:13Z</time>
      </trkpt>
      <trkpt lat="49.92239" lon="2.22442">
        <ele>13.1</ele>
        <time>2022-02-02T13:46:14Z</time>
      </trkpt>
      <trkpt lat="49.92239" lon="2.22443">
        <ele>13.1</ele>
        <time>2022-02-02T13:46:16Z</time>
      </trkpt>
      <trkpt lat="49.92239" lon="2.22445">
        <ele>13.1</ele>
        <time>2022-02-02T13:46:17Z</time>
      </trkpt>
      <trkpt lat="49.92238" lon="2.22446">
        <ele>13.1</ele>
        <time>2022-02-02T13:46:18Z</time>
      </trkpt>
      <trkpt lat="49.92238" lon="2.22448">
        <ele>13.1</ele>
        <time>2022-02-02T13:46:19Z</time>
      </trkpt>
      <trkpt lat="49.92238" lon="2.22451">
        <ele>13.1</ele>
        <time>2022-02-02T13:46:20Z</time>
      </trkpt>
      <trkpt lat="49.92237" lon="2.22453">
        <ele>13.1</ele>
        <time>2022-02-02T13:46:21Z</time>
      </trkpt>
      <trkpt lat="49.92237" lon="2.22454">
        <ele>13.1</ele>
        <time>2022-02-02T13:46:22Z</time>
      </trkpt>
      <trkpt lat="49.92237" lon="2.22456">
        <ele>13.1</ele>
        <time>2022-02-02T13:46:23Z</time>
      </trkpt>
      <trkpt lat="49.92236" lon="2.22458">
        <ele>13.1</ele>
        <time>2022-02-02T13:46:24Z</time>
      </trkpt>
      <trkpt lat="49.92235" lon="2.22461">
        <ele>13.1</ele>
        <time>2022-02-02T13:46:26Z</time>
      </trkpt>
      <trkpt lat="49.92235" lon="2.22462">
        <ele>13.1</ele>
        <time>2022-02-02T13:46:27Z</time>
      </trkpt>
      <trkpt lat="49.92235" lon="2.22463">
        <ele>13.1</ele>
        <time>2022-02-02T13:46:28Z</time>
      </trkpt>
      <trkpt lat="49.92234" lon="2.22465">
        <ele>13.1</ele>
        <time>2022-02-02T13:46:29Z</time>
      </trkpt>
      <trkpt lat="49.92234" lon="2.22466">
        <ele>13.1</ele>
        <time>2022-02-02T13:46:30Z</time>
      </trkpt>
      <trkpt lat="49.92233" lon="2.22468">
        <ele>13.1</ele>
        <time>2022-02-02T13:46:31Z</time>
      </trkpt>
      <trkpt lat="49.92233" lon="2.2247">
        <ele>13.1</ele>
        <time>2022-02-02T13:46:32Z</time>
      </trkpt>
      <trkpt lat="49.92232" lon="2.22471">
        <ele>13.1</ele>
        <time>2022-02-02T13:46:34Z</time>
      </trkpt>
      <trkpt lat="49.92232" lon="2.22472">
        <ele>13.1</ele>
        <time>2022-02-02T13:46:35Z</time>
      </trkpt>
      <trkpt lat="49.92232" lon="2.22473">
        <ele>13.1</ele>
        <time>2022-02-02T13:46:36Z</time>
      </trkpt>
      <trkpt lat="49.92232" lon="2.22474">
        <ele>13.1</ele>
        <time>2022-02-02T13:46:37Z</time>
      </trkpt>
      <trkpt lat="49.92231" lon="2.22475">
        <ele>13.1</ele>
        <time>2022-02-02T13:46:38Z</time>
      </trkpt>
      <trkpt lat="49.92231" lon="2.22477">
        <ele>13.1</ele>
        <time>2022-02-02T13:46:39Z</time>
      </trkpt>
      <trkpt lat="49.92231" lon="2.22478">
        <ele>13.1</ele>
        <time>2022-02-02T13:46:40Z</time>
      </trkpt>
      <trkpt lat="49.9223" lon="2.2248">
        <ele>13.1</ele>
        <time>2022-02-02T13:46:41Z</time>
      </trkpt>
      <trkpt lat="49.9223" lon="2.22481">
        <ele>13.1</ele>
        <time>2022-02-02T13:46:43Z</time>
      </trkpt>
      <trkpt lat="49.92229" lon="2.22483">
        <ele>13.1</ele>
        <time>2022-02-02T13:46:44Z</time>
      </trkpt>
      <trkpt lat="49.92229" lon="2.22484">
        <ele>13.1</ele>
        <time>2022-02-02T13:46:45Z</time>
      </trkpt>
      <trkpt lat="49.92228" lon="2.22486">
        <ele>13.1</ele>
        <time>2022-02-02T13:46:46Z</time>
      </trkpt>
      <trkpt lat="49.92228" lon="2.22488">
        <ele>13.1</ele>
        <time>2022-02-02T13:46:47Z</time>
      </trkpt>
      <trkpt lat="49.92227" lon="2.2249">
        <ele>13.1</ele>
        <time>2022-02-02T13:46:49Z</time>
      </trkpt>
      <trkpt lat="49.92227" lon="2.22491">
        <ele>13.1</ele>
        <time>2022-02-02T13:46:50Z</time>
      </trkpt>
      <trkpt lat="49.92226" lon="2.22492">
        <ele>13.1</ele>
        <time>2022-02-02T13:46:51Z</time>
      </trkpt>
      <trkpt lat="49.92226" lon="2.22494">
        <ele>13.1</ele>
        <time>2022-02-02T13:46:52Z</time>
      </trkpt>
      <trkpt lat="49.92225" lon="2.22495">
        <ele>13.1</ele>
        <time>2022-02-02T13:46:53Z</time>
      </trkpt>
      <trkpt lat="49.92225" lon="2.22498">
        <ele>13.1</ele>
        <time>2022-02-02T13:46:54Z</time>
      </trkpt>
      <trkpt lat="49.92224" lon="2.22499">
        <ele>13.1</ele>
        <time>2022-02-02T13:46:55Z</time>
      </trkpt>
      <trkpt lat="49.92224" lon="2.225">
        <ele>13.1</ele>
        <time>2022-02-02T13:46:56Z</time>
      </trkpt>
      <trkpt lat="49.92223" lon="2.22502">
        <ele>13.2</ele>
        <time>2022-02-02T13:46:57Z</time>
      </trkpt>
      <trkpt lat="49.92223" lon="2.22504">
        <ele>13.2</ele>
        <time>2022-02-02T13:46:59Z</time>
      </trkpt>
      <trkpt lat="49.92222" lon="2.22506">
        <ele>13.2</ele>
        <time>2022-02-02T13:47:00Z</time>
      </trkpt>
      <trkpt lat="49.92222" lon="2.22508">
        <ele>13.2</ele>
        <time>2022-02-02T13:47:01Z</time>
      </trkpt>
      <trkpt lat="49.92222" lon="2.22511">
        <ele>13.2</ele>
        <time>2022-02-02T13:47:02Z</time>
      </trkpt>
      <trkpt lat="49.92221" lon="2.22513">
        <ele>13.2</ele>
        <time>2022-02-02T13:47:03Z</time>
      </trkpt>
      <trkpt lat="49.92221" lon="2.22514">
        <ele>13.2</ele>
        <time>2022-02-02T13:47:04Z</time>
      </trkpt>
      <trkpt lat="49.9222" lon="2.22516">
        <ele>13.2</ele>
        <time>2022-02-02T13:47:05Z</time>
      </trkpt>
      <trkpt lat="49.9222" lon="2.22518">
        <ele>13.2</ele>
        <time>2022-02-02T13:47:06Z</time>
      </trkpt>
      <trkpt lat="49.92219" lon="2.22521">
        <ele>13.2</ele>
        <time>2022-02-02T13:47:07Z</time>
      </trkpt>
      <trkpt lat="49.92218" lon="2.22523">
        <ele>13.2</ele>
        <time>2022-02-02T13:47:08Z</time>
      </trkpt>
      <trkpt lat="49.92218" lon="2.22525">
        <ele>13.2</ele>
        <time>2022-02-02T13:47:09Z</time>
      </trkpt>
      <trkpt lat="49.92217" lon="2.22527">
        <ele>13.2</ele>
        <time>2022-02-02T13:47:10Z</time>
      </trkpt>
      <trkpt lat="49.92217" lon="2.22529">
        <ele>13.2</ele>
        <time>2022-02-02T13:47:12Z</time>
      </trkpt>
      <trkpt lat="49.92216" lon="2.22532">
        <ele>13.2</ele>
        <time>2022-02-02T13:47:13Z</time>
      </trkpt>
      <trkpt lat="49.92216" lon="2.22534">
        <ele>13.2</ele>
        <time>2022-02-02T13:47:14Z</time>
      </trkpt>
      <trkpt lat="49.92215" lon="2.22536">
        <ele>13.2</ele>
        <time>2022-02-02T13:47:15Z</time>
      </trkpt>
      <trkpt lat="49.92215" lon="2.22537">
        <ele>13.2</ele>
        <time>2022-02-02T13:47:16Z</time>
      </trkpt>
      <trkpt lat="49.92215" lon="2.22539">
        <ele>13.2</ele>
        <time>2022-02-02T13:47:17Z</time>
      </trkpt>
      <trkpt lat="49.92214" lon="2.2254">
        <ele>13.2</ele>
        <time>2022-02-02T13:47:18Z</time>
      </trkpt>
      <trkpt lat="49.92214" lon="2.22542">
        <ele>13.2</ele>
        <time>2022-02-02T13:47:19Z</time>
      </trkpt>
      <trkpt lat="49.92213" lon="2.22545">
        <ele>13.2</ele>
        <time>2022-02-02T13:47:20Z</time>
      </trkpt>
      <trkpt lat="49.92213" lon="2.22547">
        <ele>13.2</ele>
        <time>2022-02-02T13:47:21Z</time>
      </trkpt>
      <trkpt lat="49.92212" lon="2.22549">
        <ele>13.2</ele>
        <time>2022-02-02T13:47:22Z</time>
      </trkpt>
      <trkpt lat="49.92212" lon="2.22551">
        <ele>13.2</ele>
        <time>2022-02-02T13:47:24Z</time>
      </trkpt>
      <trkpt lat="49.92211" lon="2.22553">
        <ele>13.2</ele>
        <time>2022-02-02T13:47:25Z</time>
      </trkpt>
      <trkpt lat="49.92211" lon="2.22557">
        <ele>13.2</ele>
        <time>2022-02-02T13:47:26Z</time>
      </trkpt>
      <trkpt lat="49.92211" lon="2.22558">
        <ele>13.2</ele>
        <time>2022-02-02T13:47:27Z</time>
      </trkpt>
      <trkpt lat="49.92211" lon="2.22559">
        <ele>13.2</ele>
        <time>2022-02-02T13:47:28Z</time>
      </trkpt>
      <trkpt lat="49.92211" lon="2.22561">
        <ele>13.2</ele>
        <time>2022-02-02T13:47:29Z</time>
      </trkpt>
      <trkpt lat="49.92211" lon="2.22564">
        <ele>13.2</ele>
        <time>2022-02-02T13:47:30Z</time>
      </trkpt>
      <trkpt lat="49.9221" lon="2.22566">
        <ele>13.2</ele>
        <time>2022-02-02T13:47:31Z</time>
      </trkpt>
      <trkpt lat="49.9221" lon="2.22568">
        <ele>13.2</ele>
        <time>2022-02-02T13:47:32Z</time>
      </trkpt>
      <trkpt lat="49.9221" lon="2.2257">
        <ele>13.2</ele>
        <time>2022-02-02T13:47:33Z</time>
      </trkpt>
      <trkpt lat="49.92209" lon="2.22572">
        <ele>13.2</ele>
        <time>2022-02-02T13:47:34Z</time>
      </trkpt>
      <trkpt lat="49.92209" lon="2.22575">
        <ele>13.2</ele>
        <time>2022-02-02T13:47:36Z</time>
      </trkpt>
      <trkpt lat="49.92209" lon="2.22577">
        <ele>13.2</ele>
        <time>2022-02-02T13:47:37Z</time>
      </trkpt>
      <trkpt lat="49.92208" lon="2.2258">
        <ele>13.2</ele>
        <time>2022-02-02T13:47:38Z</time>
      </trkpt>
      <trkpt lat="49.92208" lon="2.22582">
        <ele>13.2</ele>
        <time>2022-02-02T13:47:39Z</time>
      </trkpt>
      <trkpt lat="49.92207" lon="2.22584">
        <ele>13.2</ele>
        <time>2022-02-02T13:47:40Z</time>
      </trkpt>
      <trkpt lat="49.92207" lon="2.22586">
        <ele>13.2</ele>
        <time>2022-02-02T13:47:41Z</time>
      </trkpt>
      <trkpt lat="49.92206" lon="2.22588">
        <ele>13.2</ele>
        <time>2022-02-02T13:47:43Z</time>
      </trkpt>
      <trkpt lat="49.92205" lon="2.2259">
        <ele>13.3</ele>
        <time>2022-02-02T13:47:44Z</time>
      </trkpt>
      <trkpt lat="49.92205" lon="2.22592">
        <ele>13.3</ele>
        <time>2022-02-02T13:47:45Z</time>
      </trkpt>
      <trkpt lat="49.92204" lon="2.22594">
        <ele>13.3</ele>
        <time>2022-02-02T13:47:46Z</time>
      </trkpt>
      <trkpt lat="49.92203" lon="2.22597">
        <ele>13.3</ele>
        <time>2022-02-02T13:47:47Z</time>
      </trkpt>
      <trkpt lat="49.92203" lon="2.22599">
        <ele>13.4</ele>
        <time>2022-02-02T13:47:48Z</time>
      </trkpt>
      <trkpt lat="49.92203" lon="2.226">
        <ele>13.4</ele>
        <time>2022-02-02T13:47:49Z</time>
      </trkpt>
      <trkpt lat="49.92202" lon="2.22602">
        <ele>13.6</ele>
        <time>2022-02-02T13:47:51Z</time>
      </trkpt>
      <trkpt lat="49.92201" lon="2.22604">
        <ele>13.6</ele>
        <time>2022-02-02T13:47:52Z</time>
      </trkpt>
      <trkpt lat="49.92201" lon="2.22606">
        <ele>13.6</ele>
        <time>2022-02-02T13:47:53Z</time>
      </trkpt>
      <trkpt lat="49.922" lon="2.22608">
        <ele>13.7</ele>
        <time>2022-02-02T13:47:54Z</time>
      </trkpt>
      <trkpt lat="49.92199" lon="2.2261">
        <ele>13.8</ele>
        <time>2022-02-02T13:47:55Z</time>
      </trkpt>
      <trkpt lat="49.92199" lon="2.22612">
        <ele>13.9</ele>
        <time>2022-02-02T13:47:56Z</time>
      </trkpt>
      <trkpt lat="49.92198" lon="2.22614">
        <ele>13.9</ele>
        <time>2022-02-02T13:47:57Z</time>
      </trkpt>
      <trkpt lat="49.92198" lon="2.22616">
        <ele>14.1</ele>
        <time>2022-02-02T13:47:58Z</time>
      </trkpt>
      <trkpt lat="49.92197" lon="2.22618">
        <ele>14.1</ele>
        <time>2022-02-02T13:48:00Z</time>
      </trkpt>
      <trkpt lat="49.92197" lon="2.22619">
        <ele>14.4</ele>
        <time>2022-02-02T13:48:01Z</time>
      </trkpt>
      <trkpt lat="49.92197" lon="2.22621">
        <ele>14.4</ele>
        <time>2022-02-02T13:48:02Z</time>
      </trkpt>
      <trkpt lat="49.92197" lon="2.22621">
        <ele>14.4</ele>
        <time>2022-02-02T13:48:03Z</time>
      </trkpt>
      <trkpt lat="49.92196" lon="2.22622">
        <ele>14.4</ele>
        <time>2022-02-02T13:48:04Z</time>
      </trkpt>
      <trkpt lat="49.92196" lon="2.22623">
        <ele>14.4</ele>
        <time>2022-02-02T13:48:05Z</time>
      </trkpt>
      <trkpt lat="49.92196" lon="2.22625">
        <ele>14.5</ele>
        <time>2022-02-02T13:48:06Z</time>
      </trkpt>
      <trkpt lat="49.92196" lon="2.22627">
        <ele>14.5</ele>
        <time>2022-02-02T13:48:07Z</time>
      </trkpt>
      <trkpt lat="49.92196" lon="2.22629">
        <ele>14.6</ele>
        <time>2022-02-02T13:48:08Z</time>
      </trkpt>
      <trkpt lat="49.92195" lon="2.22632">
        <ele>14.6</ele>
        <time>2022-02-02T13:48:09Z</time>
      </trkpt>
      <trkpt lat="49.92194" lon="2.22635">
        <ele>14.7</ele>
        <time>2022-02-02T13:48:10Z</time>
      </trkpt>
      <trkpt lat="49.92194" lon="2.22636">
        <ele>14.9</ele>
        <time>2022-02-02T13:48:12Z</time>
      </trkpt>
      <trkpt lat="49.92194" lon="2.22637">
        <ele>14.9</ele>
        <time>2022-02-02T13:48:13Z</time>
      </trkpt>
      <trkpt lat="49.92192" lon="2.2264">
        <ele>14.9</ele>
        <time>2022-02-02T13:48:14Z</time>
      </trkpt>
      <trkpt lat="49.92192" lon="2.22641">
        <ele>14.9</ele>
        <time>2022-02-02T13:48:15Z</time>
      </trkpt>
      <trkpt lat="49.92191" lon="2.22642">
        <ele>15.1</ele>
        <time>2022-02-02T13:48:16Z</time>
      </trkpt>
      <trkpt lat="49.9219" lon="2.22644">
        <ele>15.2</ele>
        <time>2022-02-02T13:48:17Z</time>
      </trkpt>
      <trkpt lat="49.92189" lon="2.22646">
        <ele>15.2</ele>
        <time>2022-02-02T13:48:18Z</time>
      </trkpt>
      <trkpt lat="49.92188" lon="2.22648">
        <ele>15.4</ele>
        <time>2022-02-02T13:48:19Z</time>
      </trkpt>
      <trkpt lat="49.92188" lon="2.2265">
        <ele>15.4</ele>
        <time>2022-02-02T13:48:20Z</time>
      </trkpt>
      <trkpt lat="49.92186" lon="2.22652">
        <ele>15.4</ele>
        <time>2022-02-02T13:48:21Z</time>
      </trkpt>
      <trkpt lat="49.92185" lon="2.22654">
        <ele>15.6</ele>
        <time>2022-02-02T13:48:22Z</time>
      </trkpt>
      <trkpt lat="49.92185" lon="2.22655">
        <ele>15.6</ele>
        <time>2022-02-02T13:48:23Z</time>
      </trkpt>
      <trkpt lat="49.92184" lon="2.22657">
        <ele>15.6</ele>
        <time>2022-02-02T13:48:25Z</time>
      </trkpt>
      <trkpt lat="49.92183" lon="2.22659">
        <ele>15.8</ele>
        <time>2022-02-02T13:48:26Z</time>
      </trkpt>
      <trkpt lat="49.92182" lon="2.2266">
        <ele>15.8</ele>
        <time>2022-02-02T13:48:27Z</time>
      </trkpt>
      <trkpt lat="49.9218" lon="2.22663">
        <ele>15.8</ele>
        <time>2022-02-02T13:48:28Z</time>
      </trkpt>
      <trkpt lat="49.9218" lon="2.22664">
        <ele>16</ele>
        <time>2022-02-02T13:48:29Z</time>
      </trkpt>
      <trkpt lat="49.92179" lon="2.22664">
        <ele>16</ele>
        <time>2022-02-02T13:48:30Z</time>
      </trkpt>
      <trkpt lat="49.92178" lon="2.22667">
        <ele>16</ele>
        <time>2022-02-02T13:48:31Z</time>
      </trkpt>
      <trkpt lat="49.92177" lon="2.22668">
        <ele>16.2</ele>
        <time>2022-02-02T13:48:32Z</time>
      </trkpt>
      <trkpt lat="49.92176" lon="2.22669">
        <ele>16.2</ele>
        <time>2022-02-02T13:48:33Z</time>
      </trkpt>
      <trkpt lat="49.92175" lon="2.2267">
        <ele>16.2</ele>
        <time>2022-02-02T13:48:34Z</time>
      </trkpt>
      <trkpt lat="49.92174" lon="2.22672">
        <ele>16.3</ele>
        <time>2022-02-02T13:48:35Z</time>
      </trkpt>
      <trkpt lat="49.92173" lon="2.22674">
        <ele>16.3</ele>
        <time>2022-02-02T13:48:37Z</time>
      </trkpt>
      <trkpt lat="49.92172" lon="2.22675">
        <ele>16.4</ele>
        <time>2022-02-02T13:48:38Z</time>
      </trkpt>
      <trkpt lat="49.92172" lon="2.22676">
        <ele>16.5</ele>
        <time>2022-02-02T13:48:39Z</time>
      </trkpt>
      <trkpt lat="49.92171" lon="2.22677">
        <ele>16.5</ele>
        <time>2022-02-02T13:48:40Z</time>
      </trkpt>
      <trkpt lat="49.9217" lon="2.22678">
        <ele>16.5</ele>
        <time>2022-02-02T13:48:41Z</time>
      </trkpt>
      <trkpt lat="49.92169" lon="2.2268">
        <ele>16.5</ele>
        <time>2022-02-02T13:48:42Z</time>
      </trkpt>
      <trkpt lat="49.92169" lon="2.22681">
        <ele>16.6</ele>
        <time>2022-02-02T13:48:44Z</time>
      </trkpt>
      <trkpt lat="49.92168" lon="2.22682">
        <ele>16.6</ele>
        <time>2022-02-02T13:48:45Z</time>
      </trkpt>
      <trkpt lat="49.92168" lon="2.22684">
        <ele>16.6</ele>
        <time>2022-02-02T13:48:46Z</time>
      </trkpt>
      <trkpt lat="49.92168" lon="2.22685">
        <ele>16.6</ele>
        <time>2022-02-02T13:48:47Z</time>
      </trkpt>
      <trkpt lat="49.92167" lon="2.22686">
        <ele>16.6</ele>
        <time>2022-02-02T13:48:48Z</time>
      </trkpt>
      <trkpt lat="49.92167" lon="2.22688">
        <ele>16.6</ele>
        <time>2022-02-02T13:48:49Z</time>
      </trkpt>
      <trkpt lat="49.92166" lon="2.2269">
        <ele>16.7</ele>
        <time>2022-02-02T13:48:50Z</time>
      </trkpt>
      <trkpt lat="49.92165" lon="2.2269">
        <ele>16.7</ele>
        <time>2022-02-02T13:48:51Z</time>
      </trkpt>
      <trkpt lat="49.92165" lon="2.22691">
        <ele>16.7</ele>
        <time>2022-02-02T13:48:53Z</time>
      </trkpt>
      <trkpt lat="49.92164" lon="2.22692">
        <ele>16.7</ele>
        <time>2022-02-02T13:48:54Z</time>
      </trkpt>
      <trkpt lat="49.92164" lon="2.22694">
        <ele>16.7</ele>
        <time>2022-02-02T13:48:55Z</time>
      </trkpt>
      <trkpt lat="49.92164" lon="2.22695">
        <ele>16.8</ele>
        <time>2022-02-02T13:48:56Z</time>
      </trkpt>
      <trkpt lat="49.92163" lon="2.22697">
        <ele>16.8</ele>
        <time>2022-02-02T13:48:57Z</time>
      </trkpt>
      <trkpt lat="49.92162" lon="2.22698">
        <ele>16.8</ele>
        <time>2022-02-02T13:48:58Z</time>
      </trkpt>
      <trkpt lat="49.92161" lon="2.227">
        <ele>16.8</ele>
        <time>2022-02-02T13:48:59Z</time>
      </trkpt>
      <trkpt lat="49.92161" lon="2.22701">
        <ele>16.9</ele>
        <time>2022-02-02T13:49:00Z</time>
      </trkpt>
      <trkpt lat="49.9216" lon="2.22702">
        <ele>16.9</ele>
        <time>2022-02-02T13:49:02Z</time>
      </trkpt>
      <trkpt lat="49.92159" lon="2.22703">
        <ele>16.9</ele>
        <time>2022-02-02T13:49:03Z</time>
      </trkpt>
      <trkpt lat="49.92158" lon="2.22705">
        <ele>16.9</ele>
        <time>2022-02-02T13:49:04Z</time>
      </trkpt>
      <trkpt lat="49.92158" lon="2.22706">
        <ele>17</ele>
        <time>2022-02-02T13:49:05Z</time>
      </trkpt>
      <trkpt lat="49.92157" lon="2.22707">
        <ele>17</ele>
        <time>2022-02-02T13:49:06Z</time>
      </trkpt>
      <trkpt lat="49.92156" lon="2.22708">
        <ele>17</ele>
        <time>2022-02-02T13:49:07Z</time>
      </trkpt>
      <trkpt lat="49.92156" lon="2.2271">
        <ele>17</ele>
        <time>2022-02-02T13:49:08Z</time>
      </trkpt>
      <trkpt lat="49.92155" lon="2.22711">
        <ele>17</ele>
        <time>2022-02-02T13:49:09Z</time>
      </trkpt>
      <trkpt lat="49.92155" lon="2.22712">
        <ele>17.1</ele>
        <time>2022-02-02T13:49:11Z</time>
      </trkpt>
      <trkpt lat="49.92154" lon="2.22714">
        <ele>17</ele>
        <time>2022-02-02T13:49:12Z</time>
      </trkpt>
      <trkpt lat="49.92153" lon="2.22715">
        <ele>17.1</ele>
        <time>2022-02-02T13:49:13Z</time>
      </trkpt>
      <trkpt lat="49.92153" lon="2.22716">
        <ele>17.1</ele>
        <time>2022-02-02T13:49:14Z</time>
      </trkpt>
      <trkpt lat="49.92152" lon="2.22719">
        <ele>17.1</ele>
        <time>2022-02-02T13:49:16Z</time>
      </trkpt>
      <trkpt lat="49.92151" lon="2.2272">
        <ele>17.1</ele>
        <time>2022-02-02T13:49:17Z</time>
      </trkpt>
      <trkpt lat="49.9215" lon="2.22722">
        <ele>17.1</ele>
        <time>2022-02-02T13:49:18Z</time>
      </trkpt>
      <trkpt lat="49.9215" lon="2.22723">
        <ele>17.1</ele>
        <time>2022-02-02T13:49:19Z</time>
      </trkpt>
      <trkpt lat="49.92149" lon="2.22725">
        <ele>17.1</ele>
        <time>2022-02-02T13:49:20Z</time>
      </trkpt>
      <trkpt lat="49.92148" lon="2.22726">
        <ele>17.1</ele>
        <time>2022-02-02T13:49:21Z</time>
      </trkpt>
      <trkpt lat="49.92147" lon="2.22729">
        <ele>17.1</ele>
        <time>2022-02-02T13:49:22Z</time>
      </trkpt>
      <trkpt lat="49.92147" lon="2.22731">
        <ele>17.1</ele>
        <time>2022-02-02T13:49:23Z</time>
      </trkpt>
      <trkpt lat="49.92146" lon="2.22734">
        <ele>17.1</ele>
        <time>2022-02-02T13:49:24Z</time>
      </trkpt>
      <trkpt lat="49.92145" lon="2.22736">
        <ele>17.1</ele>
        <time>2022-02-02T13:49:25Z</time>
      </trkpt>
      <trkpt lat="49.92144" lon="2.22738">
        <ele>17.1</ele>
        <time>2022-02-02T13:49:27Z</time>
      </trkpt>
      <trkpt lat="49.92143" lon="2.22739">
        <ele>17.1</ele>
        <time>2022-02-02T13:49:28Z</time>
      </trkpt>
      <trkpt lat="49.92143" lon="2.22742">
        <ele>17.1</ele>
        <time>2022-02-02T13:49:29Z</time>
      </trkpt>
      <trkpt lat="49.92142" lon="2.22744">
        <ele>17.1</ele>
        <time>2022-02-02T13:49:30Z</time>
      </trkpt>
      <trkpt lat="49.92142" lon="2.22746">
        <ele>17.1</ele>
        <time>2022-02-02T13:49:31Z</time>
      </trkpt>
      <trkpt lat="49.92141" lon="2.22748">
        <ele>17.1</ele>
        <time>2022-02-02T13:49:32Z</time>
      </trkpt>
      <trkpt lat="49.92141" lon="2.2275">
        <ele>17.1</ele>
        <time>2022-02-02T13:49:33Z</time>
      </trkpt>
      <trkpt lat="49.9214" lon="2.22752">
        <ele>17</ele>
        <time>2022-02-02T13:49:34Z</time>
      </trkpt>
      <trkpt lat="49.9214" lon="2.22754">
        <ele>17</ele>
        <time>2022-02-02T13:49:35Z</time>
      </trkpt>
      <trkpt lat="49.92139" lon="2.22758">
        <ele>17</ele>
        <time>2022-02-02T13:49:37Z</time>
      </trkpt>
      <trkpt lat="49.92138" lon="2.22759">
        <ele>17</ele>
        <time>2022-02-02T13:49:38Z</time>
      </trkpt>
      <trkpt lat="49.92138" lon="2.2276">
        <ele>17</ele>
        <time>2022-02-02T13:49:39Z</time>
      </trkpt>
      <trkpt lat="49.92137" lon="2.22764">
        <ele>17</ele>
        <time>2022-02-02T13:49:40Z</time>
      </trkpt>
      <trkpt lat="49.92137" lon="2.22765">
        <ele>17</ele>
        <time>2022-02-02T13:49:41Z</time>
      </trkpt>
      <trkpt lat="49.92136" lon="2.22767">
        <ele>17</ele>
        <time>2022-02-02T13:49:42Z</time>
      </trkpt>
      <trkpt lat="49.92136" lon="2.22769">
        <ele>16.9</ele>
        <time>2022-02-02T13:49:43Z</time>
      </trkpt>
      <trkpt lat="49.92135" lon="2.22771">
        <ele>16.9</ele>
        <time>2022-02-02T13:49:44Z</time>
      </trkpt>
      <trkpt lat="49.92134" lon="2.22773">
        <ele>16.9</ele>
        <time>2022-02-02T13:49:46Z</time>
      </trkpt>
      <trkpt lat="49.92133" lon="2.22775">
        <ele>16.8</ele>
        <time>2022-02-02T13:49:47Z</time>
      </trkpt>
      <trkpt lat="49.92131" lon="2.22778">
        <ele>16.9</ele>
        <time>2022-02-02T13:49:48Z</time>
      </trkpt>
      <trkpt lat="49.92131" lon="2.22779">
        <ele>16.8</ele>
        <time>2022-02-02T13:49:49Z</time>
      </trkpt>
      <trkpt lat="49.9213" lon="2.2278">
        <ele>16.8</ele>
        <time>2022-02-02T13:49:50Z</time>
      </trkpt>
      <trkpt lat="49.9213" lon="2.22782">
        <ele>16.8</ele>
        <time>2022-02-02T13:49:51Z</time>
      </trkpt>
      <trkpt lat="49.92129" lon="2.22783">
        <ele>16.8</ele>
        <time>2022-02-02T13:49:52Z</time>
      </trkpt>
      <trkpt lat="49.92128" lon="2.22785">
        <ele>16.8</ele>
        <time>2022-02-02T13:49:53Z</time>
      </trkpt>
      <trkpt lat="49.92127" lon="2.22786">
        <ele>16.7</ele>
        <time>2022-02-02T13:49:54Z</time>
      </trkpt>
      <trkpt lat="49.92126" lon="2.22787">
        <ele>16.7</ele>
        <time>2022-02-02T13:49:56Z</time>
      </trkpt>
      <trkpt lat="49.92125" lon="2.2279">
        <ele>16.7</ele>
        <time>2022-02-02T13:49:57Z</time>
      </trkpt>
      <trkpt lat="49.92125" lon="2.2279">
        <ele>16.6</ele>
        <time>2022-02-02T13:49:58Z</time>
      </trkpt>
      <trkpt lat="49.92125" lon="2.22791">
        <ele>16.6</ele>
        <time>2022-02-02T13:49:59Z</time>
      </trkpt>
      <trkpt lat="49.92124" lon="2.22792">
        <ele>16.6</ele>
        <time>2022-02-02T13:50:00Z</time>
      </trkpt>
      <trkpt lat="49.92123" lon="2.22793">
        <ele>16.6</ele>
        <time>2022-02-02T13:50:02Z</time>
      </trkpt>
      <trkpt lat="49.92123" lon="2.22793">
        <ele>16.6</ele>
        <time>2022-02-02T13:50:03Z</time>
      </trkpt>
      <trkpt lat="49.92123" lon="2.22793">
        <ele>16.6</ele>
        <time>2022-02-02T13:50:04Z</time>
      </trkpt>
      <trkpt lat="49.92123" lon="2.22792">
        <ele>16.6</ele>
        <time>2022-02-02T13:50:05Z</time>
      </trkpt>
      <trkpt lat="49.92123" lon="2.22791">
        <ele>16.6</ele>
        <time>2022-02-02T13:50:06Z</time>
      </trkpt>
      <trkpt lat="49.92123" lon="2.22791">
        <ele>16.6</ele>
        <time>2022-02-02T13:50:07Z</time>
      </trkpt>
      <trkpt lat="49.92123" lon="2.22791">
        <ele>16.6</ele>
        <time>2022-02-02T13:50:09Z</time>
      </trkpt>
      <trkpt lat="49.92123" lon="2.22791">
        <ele>16.6</ele>
        <time>2022-02-02T13:50:10Z</time>
      </trkpt>
      <trkpt lat="49.92122" lon="2.22792">
        <ele>16.5</ele>
        <time>2022-02-02T13:50:11Z</time>
      </trkpt>
      <trkpt lat="49.92122" lon="2.22792">
        <ele>16.5</ele>
        <time>2022-02-02T13:50:12Z</time>
      </trkpt>
      <trkpt lat="49.92121" lon="2.22793">
        <ele>16.5</ele>
        <time>2022-02-02T13:50:13Z</time>
      </trkpt>
      <trkpt lat="49.92121" lon="2.22794">
        <ele>16.5</ele>
        <time>2022-02-02T13:50:14Z</time>
      </trkpt>
      <trkpt lat="49.9212" lon="2.22794">
        <ele>16.5</ele>
        <time>2022-02-02T13:50:15Z</time>
      </trkpt>
      <trkpt lat="49.9212" lon="2.22795">
        <ele>16.5</ele>
        <time>2022-02-02T13:50:17Z</time>
      </trkpt>
      <trkpt lat="49.92119" lon="2.22797">
        <ele>16.4</ele>
        <time>2022-02-02T13:50:18Z</time>
      </trkpt>
      <trkpt lat="49.92119" lon="2.22798">
        <ele>16.4</ele>
        <time>2022-02-02T13:50:19Z</time>
      </trkpt>
      <trkpt lat="49.92118" lon="2.228">
        <ele>16.4</ele>
        <time>2022-02-02T13:50:20Z</time>
      </trkpt>
      <trkpt lat="49.92118" lon="2.22802">
        <ele>16.4</ele>
        <time>2022-02-02T13:50:21Z</time>
      </trkpt>
      <trkpt lat="49.92117" lon="2.22803">
        <ele>16.4</ele>
        <time>2022-02-02T13:50:22Z</time>
      </trkpt>
      <trkpt lat="49.92116" lon="2.22805">
        <ele>16.2</ele>
        <time>2022-02-02T13:50:23Z</time>
      </trkpt>
      <trkpt lat="49.92115" lon="2.22807">
        <ele>16.2</ele>
        <time>2022-02-02T13:50:24Z</time>
      </trkpt>
      <trkpt lat="49.92115" lon="2.22808">
        <ele>16.2</ele>
        <time>2022-02-02T13:50:25Z</time>
      </trkpt>
      <trkpt lat="49.92114" lon="2.2281">
        <ele>16.2</ele>
        <time>2022-02-02T13:50:27Z</time>
      </trkpt>
      <trkpt lat="49.92113" lon="2.22812">
        <ele>16.1</ele>
        <time>2022-02-02T13:50:28Z</time>
      </trkpt>
      <trkpt lat="49.92113" lon="2.22814">
        <ele>16.1</ele>
        <time>2022-02-02T13:50:29Z</time>
      </trkpt>
      <trkpt lat="49.92113" lon="2.22817">
        <ele>16.1</ele>
        <time>2022-02-02T13:50:30Z</time>
      </trkpt>
      <trkpt lat="49.92112" lon="2.22819">
        <ele>16.1</ele>
        <time>2022-02-02T13:50:31Z</time>
      </trkpt>
      <trkpt lat="49.92111" lon="2.22823">
        <ele>15.9</ele>
        <time>2022-02-02T13:50:32Z</time>
      </trkpt>
      <trkpt lat="49.9211" lon="2.22824">
        <ele>16</ele>
        <time>2022-02-02T13:50:33Z</time>
      </trkpt>
      <trkpt lat="49.92108" lon="2.22827">
        <ele>15.8</ele>
        <time>2022-02-02T13:50:35Z</time>
      </trkpt>
      <trkpt lat="49.92108" lon="2.22828">
        <ele>15.8</ele>
        <time>2022-02-02T13:50:36Z</time>
      </trkpt>
      <trkpt lat="49.92107" lon="2.2283">
        <ele>15.8</ele>
        <time>2022-02-02T13:50:37Z</time>
      </trkpt>
      <trkpt lat="49.92106" lon="2.22832">
        <ele>15.8</ele>
        <time>2022-02-02T13:50:38Z</time>
      </trkpt>
      <trkpt lat="49.92105" lon="2.22834">
        <ele>15.7</ele>
        <time>2022-02-02T13:50:39Z</time>
      </trkpt>
      <trkpt lat="49.92104" lon="2.22836">
        <ele>15.7</ele>
        <time>2022-02-02T13:50:40Z</time>
      </trkpt>
      <trkpt lat="49.92103" lon="2.2284">
        <ele>15.6</ele>
        <time>2022-02-02T13:50:41Z</time>
      </trkpt>
      <trkpt lat="49.92102" lon="2.22842">
        <ele>15.6</ele>
        <time>2022-02-02T13:50:42Z</time>
      </trkpt>
      <trkpt lat="49.92101" lon="2.22846">
        <ele>15.6</ele>
        <time>2022-02-02T13:50:44Z</time>
      </trkpt>
      <trkpt lat="49.92101" lon="2.22847">
        <ele>15.6</ele>
        <time>2022-02-02T13:50:45Z</time>
      </trkpt>
      <trkpt lat="49.921" lon="2.22849">
        <ele>15.5</ele>
        <time>2022-02-02T13:50:46Z</time>
      </trkpt>
      <trkpt lat="49.92099" lon="2.22852">
        <ele>15.5</ele>
        <time>2022-02-02T13:50:47Z</time>
      </trkpt>
      <trkpt lat="49.92099" lon="2.22854">
        <ele>15.5</ele>
        <time>2022-02-02T13:50:48Z</time>
      </trkpt>
      <trkpt lat="49.92098" lon="2.22856">
        <ele>15.5</ele>
        <time>2022-02-02T13:50:49Z</time>
      </trkpt>
      <trkpt lat="49.92097" lon="2.22859">
        <ele>15.4</ele>
        <time>2022-02-02T13:50:50Z</time>
      </trkpt>
      <trkpt lat="49.92097" lon="2.22861">
        <ele>15.4</ele>
        <time>2022-02-02T13:50:52Z</time>
      </trkpt>
      <trkpt lat="49.92096" lon="2.22863">
        <ele>15.4</ele>
        <time>2022-02-02T13:50:53Z</time>
      </trkpt>
      <trkpt lat="49.92095" lon="2.22864">
        <ele>15.4</ele>
        <time>2022-02-02T13:50:54Z</time>
      </trkpt>
      <trkpt lat="49.92094" lon="2.22866">
        <ele>15.4</ele>
        <time>2022-02-02T13:50:55Z</time>
      </trkpt>
      <trkpt lat="49.92093" lon="2.22868">
        <ele>15.4</ele>
        <time>2022-02-02T13:50:56Z</time>
      </trkpt>
      <trkpt lat="49.92092" lon="2.22871">
        <ele>15.4</ele>
        <time>2022-02-02T13:50:57Z</time>
      </trkpt>
      <trkpt lat="49.92092" lon="2.22873">
        <ele>15.4</ele>
        <time>2022-02-02T13:50:59Z</time>
      </trkpt>
      <trkpt lat="49.92092" lon="2.22874">
        <ele>15.4</ele>
        <time>2022-02-02T13:51:00Z</time>
      </trkpt>
      <trkpt lat="49.92092" lon="2.22876">
        <ele>15.4</ele>
        <time>2022-02-02T13:51:01Z</time>
      </trkpt>
      <trkpt lat="49.92092" lon="2.22878">
        <ele>15.5</ele>
        <time>2022-02-02T13:51:02Z</time>
      </trkpt>
      <trkpt lat="49.92092" lon="2.2288">
        <ele>15.5</ele>
        <time>2022-02-02T13:51:04Z</time>
      </trkpt>
      <trkpt lat="49.92092" lon="2.22881">
        <ele>15.5</ele>
        <time>2022-02-02T13:51:05Z</time>
      </trkpt>
      <trkpt lat="49.92092" lon="2.22883">
        <ele>15.5</ele>
        <time>2022-02-02T13:51:06Z</time>
      </trkpt>
      <trkpt lat="49.92093" lon="2.22884">
        <ele>15.5</ele>
        <time>2022-02-02T13:51:07Z</time>
      </trkpt>
      <trkpt lat="49.92093" lon="2.22885">
        <ele>15.5</ele>
        <time>2022-02-02T13:51:08Z</time>
      </trkpt>
      <trkpt lat="49.92093" lon="2.22886">
        <ele>15.5</ele>
        <time>2022-02-02T13:51:09Z</time>
      </trkpt>
      <trkpt lat="49.92093" lon="2.22887">
        <ele>15.5</ele>
        <time>2022-02-02T13:51:10Z</time>
      </trkpt>
      <trkpt lat="49.92094" lon="2.22888">
        <ele>15.5</ele>
        <time>2022-02-02T13:51:11Z</time>
      </trkpt>
      <trkpt lat="49.92094" lon="2.22888">
        <ele>15.5</ele>
        <time>2022-02-02T13:51:12Z</time>
      </trkpt>
      <trkpt lat="49.92094" lon="2.22889">
        <ele>15.5</ele>
        <time>2022-02-02T13:51:13Z</time>
      </trkpt>
      <trkpt lat="49.92094" lon="2.2289">
        <ele>15.6</ele>
        <time>2022-02-02T13:51:14Z</time>
      </trkpt>
      <trkpt lat="49.92095" lon="2.2289">
        <ele>15.6</ele>
        <time>2022-02-02T13:51:15Z</time>
      </trkpt>
      <trkpt lat="49.92095" lon="2.22891">
        <ele>15.6</ele>
        <time>2022-02-02T13:51:16Z</time>
      </trkpt>
      <trkpt lat="49.92095" lon="2.22892">
        <ele>15.6</ele>
        <time>2022-02-02T13:51:17Z</time>
      </trkpt>
      <trkpt lat="49.92096" lon="2.22892">
        <ele>15.6</ele>
        <time>2022-02-02T13:51:18Z</time>
      </trkpt>
      <trkpt lat="49.92096" lon="2.22893">
        <ele>15.6</ele>
        <time>2022-02-02T13:51:19Z</time>
      </trkpt>
      <trkpt lat="49.92096" lon="2.22894">
        <ele>15.6</ele>
        <time>2022-02-02T13:51:20Z</time>
      </trkpt>
      <trkpt lat="49.92096" lon="2.22894">
        <ele>15.7</ele>
        <time>2022-02-02T13:51:21Z</time>
      </trkpt>
      <trkpt lat="49.92096" lon="2.22895">
        <ele>15.7</ele>
        <time>2022-02-02T13:51:22Z</time>
      </trkpt>
      <trkpt lat="49.92096" lon="2.22896">
        <ele>15.7</ele>
        <time>2022-02-02T13:51:23Z</time>
      </trkpt>
      <trkpt lat="49.92097" lon="2.22896">
        <ele>15.7</ele>
        <time>2022-02-02T13:51:24Z</time>
      </trkpt>
      <trkpt lat="49.92097" lon="2.22898">
        <ele>15.7</ele>
        <time>2022-02-02T13:51:26Z</time>
      </trkpt>
      <trkpt lat="49.92098" lon="2.22898">
        <ele>15.7</ele>
        <time>2022-02-02T13:51:27Z</time>
      </trkpt>
      <trkpt lat="49.92098" lon="2.22897">
        <ele>15.7</ele>
        <time>2022-02-02T13:51:28Z</time>
      </trkpt>
      <trkpt lat="49.92098" lon="2.22897">
        <ele>15.7</ele>
        <time>2022-02-02T13:51:29Z</time>
      </trkpt>
      <trkpt lat="49.92098" lon="2.22896">
        <ele>15.7</ele>
        <time>2022-02-02T13:51:30Z</time>
      </trkpt>
      <trkpt lat="49.92098" lon="2.22896">
        <ele>15.7</ele>
        <time>2022-02-02T13:51:31Z</time>
      </trkpt>
      <trkpt lat="49.92097" lon="2.22895">
        <ele>15.7</ele>
        <time>2022-02-02T13:51:33Z</time>
      </trkpt>
      <trkpt lat="49.92097" lon="2.22894">
        <ele>15.7</ele>
        <time>2022-02-02T13:51:34Z</time>
      </trkpt>
      <trkpt lat="49.92097" lon="2.22894">
        <ele>15.7</ele>
        <time>2022-02-02T13:51:35Z</time>
      </trkpt>
      <trkpt lat="49.92097" lon="2.22894">
        <ele>15.7</ele>
        <time>2022-02-02T13:51:36Z</time>
      </trkpt>
      <trkpt lat="49.92097" lon="2.22894">
        <ele>15.7</ele>
        <time>2022-02-02T13:51:37Z</time>
      </trkpt>
      <trkpt lat="49.92097" lon="2.22893">
        <ele>15.7</ele>
        <time>2022-02-02T13:51:38Z</time>
      </trkpt>
      <trkpt lat="49.92097" lon="2.22893">
        <ele>15.7</ele>
        <time>2022-02-02T13:51:39Z</time>
      </trkpt>
      <trkpt lat="49.92097" lon="2.22893">
        <ele>15.7</ele>
        <time>2022-02-02T13:51:40Z</time>
      </trkpt>
      <trkpt lat="49.92096" lon="2.22893">
        <ele>15.7</ele>
        <time>2022-02-02T13:51:41Z</time>
      </trkpt>
      <trkpt lat="49.92096" lon="2.22892">
        <ele>15.7</ele>
        <time>2022-02-02T13:51:42Z</time>
      </trkpt>
      <trkpt lat="49.92096" lon="2.22892">
        <ele>15.7</ele>
        <time>2022-02-02T13:51:43Z</time>
      </trkpt>
      <trkpt lat="49.92096" lon="2.22892">
        <ele>15.7</ele>
        <time>2022-02-02T13:51:44Z</time>
      </trkpt>
      <trkpt lat="49.92096" lon="2.22892">
        <ele>15.7</ele>
        <time>2022-02-02T13:51:45Z</time>
      </trkpt>
      <trkpt lat="49.92097" lon="2.22892">
        <ele>15.7</ele>
        <time>2022-02-02T13:51:46Z</time>
      </trkpt>
      <trkpt lat="49.92097" lon="2.22892">
        <ele>15.7</ele>
        <time>2022-02-02T13:51:47Z</time>
      </trkpt>
      <trkpt lat="49.92097" lon="2.22892">
        <ele>15.7</ele>
        <time>2022-02-02T13:51:48Z</time>
      </trkpt>
      <trkpt lat="49.92097" lon="2.22892">
        <ele>15.7</ele>
        <time>2022-02-02T13:51:49Z</time>
      </trkpt>
      <trkpt lat="49.92097" lon="2.22892">
        <ele>15.7</ele>
        <time>2022-02-02T13:51:50Z</time>
      </trkpt>
      <trkpt lat="49.92097" lon="2.22892">
        <ele>15.7</ele>
        <time>2022-02-02T13:51:51Z</time>
      </trkpt>
      <trkpt lat="49.92097" lon="2.22892">
        <ele>15.7</ele>
        <time>2022-02-02T13:51:52Z</time>
      </trkpt>
      <trkpt lat="49.92097" lon="2.22892">
        <ele>15.7</ele>
        <time>2022-02-02T13:51:53Z</time>
      </trkpt>
      <trkpt lat="49.92097" lon="2.22892">
        <ele>15.7</ele>
        <time>2022-02-02T13:51:54Z</time>
      </trkpt>
      <trkpt lat="49.92097" lon="2.22892">
        <ele>15.7</ele>
        <time>2022-02-02T13:51:55Z</time>
      </trkpt>
      <trkpt lat="49.92097" lon="2.22892">
        <ele>15.7</ele>
        <time>2022-02-02T13:51:56Z</time>
      </trkpt>
      <trkpt lat="49.92097" lon="2.22892">
        <ele>15.7</ele>
        <time>2022-02-02T13:51:57Z</time>
      </trkpt>
      <trkpt lat="49.92097" lon="2.22892">
        <ele>15.7</ele>
        <time>2022-02-02T13:51:58Z</time>
      </trkpt>
      <trkpt lat="49.92097" lon="2.22892">
        <ele>15.7</ele>
        <time>2022-02-02T13:51:59Z</time>
      </trkpt>
      <trkpt lat="49.92097" lon="2.22892">
        <ele>15.7</ele>
        <time>2022-02-02T13:52:00Z</time>
      </trkpt>
      <trkpt lat="49.92097" lon="2.22892">
        <ele>15.7</ele>
        <time>2022-02-02T13:52:01Z</time>
      </trkpt>
      <trkpt lat="49.92097" lon="2.22892">
        <ele>15.7</ele>
        <time>2022-02-02T13:52:02Z</time>
      </trkpt>
      <trkpt lat="49.92097" lon="2.22892">
        <ele>15.7</ele>
        <time>2022-02-02T13:52:03Z</time>
      </trkpt>
      <trkpt lat="49.92097" lon="2.22892">
        <ele>15.7</ele>
        <time>2022-02-02T13:52:04Z</time>
      </trkpt>
      <trkpt lat="49.92097" lon="2.22892">
        <ele>15.7</ele>
        <time>2022-02-02T13:52:05Z</time>
      </trkpt>
      <trkpt lat="49.92097" lon="2.22892">
        <ele>15.7</ele>
        <time>2022-02-02T13:52:06Z</time>
      </trkpt>
      <trkpt lat="49.92097" lon="2.22892">
        <ele>15.7</ele>
        <time>2022-02-02T13:52:07Z</time>
      </trkpt>
      <trkpt lat="49.92097" lon="2.22892">
        <ele>15.7</ele>
        <time>2022-02-02T13:52:08Z</time>
      </trkpt>
      <trkpt lat="49.92097" lon="2.22892">
        <ele>15.7</ele>
        <time>2022-02-02T13:52:09Z</time>
      </trkpt>
      <trkpt lat="49.92097" lon="2.22892">
        <ele>15.7</ele>
        <time>2022-02-02T13:52:10Z</time>
      </trkpt>
      <trkpt lat="49.92097" lon="2.22892">
        <ele>15.7</ele>
        <time>2022-02-02T13:52:11Z</time>
      </trkpt>
      <trkpt lat="49.92097" lon="2.22892">
        <ele>15.7</ele>
        <time>2022-02-02T13:52:12Z</time>
      </trkpt>
      <trkpt lat="49.92097" lon="2.22892">
        <ele>15.7</ele>
        <time>2022-02-02T13:52:13Z</time>
      </trkpt>
      <trkpt lat="49.92097" lon="2.22892">
        <ele>15.7</ele>
        <time>2022-02-02T13:52:14Z</time>
      </trkpt>
      <trkpt lat="49.92097" lon="2.22892">
        <ele>15.7</ele>
        <time>2022-02-02T13:52:15Z</time>
      </trkpt>
      <trkpt lat="49.92097" lon="2.22892">
        <ele>15.7</ele>
        <time>2022-02-02T13:52:16Z</time>
      </trkpt>
      <trkpt lat="49.92097" lon="2.22892">
        <ele>15.7</ele>
        <time>2022-02-02T13:52:17Z</time>
      </trkpt>
      <trkpt lat="49.92097" lon="2.22892">
        <ele>15.7</ele>
        <time>2022-02-02T13:52:18Z</time>
      </trkpt>
      <trkpt lat="49.92097" lon="2.22892">
        <ele>15.7</ele>
        <time>2022-02-02T13:52:19Z</time>
      </trkpt>
      <trkpt lat="49.92097" lon="2.22892">
        <ele>15.7</ele>
        <time>2022-02-02T13:52:20Z</time>
      </trkpt>
      <trkpt lat="49.92097" lon="2.22892">
        <ele>15.7</ele>
        <time>2022-02-02T13:52:21Z</time>
      </trkpt>
      <trkpt lat="49.92097" lon="2.22892">
        <ele>15.7</ele>
        <time>2022-02-02T13:52:22Z</time>
      </trkpt>
      <trkpt lat="49.92097" lon="2.22892">
        <ele>15.7</ele>
        <time>2022-02-02T13:52:23Z</time>
      </trkpt>
      <trkpt lat="49.92097" lon="2.22892">
        <ele>15.7</ele>
        <time>2022-02-02T13:52:24Z</time>
      </trkpt>
      <trkpt lat="49.92097" lon="2.22892">
        <ele>15.7</ele>
        <time>2022-02-02T13:52:25Z</time>
      </trkpt>
      <trkpt lat="49.92097" lon="2.22892">
        <ele>15.7</ele>
        <time>2022-02-02T13:52:26Z</time>
      </trkpt>
      <trkpt lat="49.92097" lon="2.22892">
        <ele>15.7</ele>
        <time>2022-02-02T13:52:27Z</time>
      </trkpt>
      <trkpt lat="49.92097" lon="2.22892">
        <ele>15.7</ele>
        <time>2022-02-02T13:52:28Z</time>
      </trkpt>
      <trkpt lat="49.92097" lon="2.22892">
        <ele>15.7</ele>
        <time>2022-02-02T13:52:29Z</time>
      </trkpt>
      <trkpt lat="49.92097" lon="2.22892">
        <ele>15.7</ele>
        <time>2022-02-02T13:52:30Z</time>
      </trkpt>
      <trkpt lat="49.92097" lon="2.22892">
        <ele>15.7</ele>
        <time>2022-02-02T13:52:31Z</time>
      </trkpt>
      <trkpt lat="49.92097" lon="2.22892">
        <ele>15.7</ele>
        <time>2022-02-02T13:52:32Z</time>
      </trkpt>
      <trkpt lat="49.92097" lon="2.22892">
        <ele>15.7</ele>
        <time>2022-02-02T13:52:33Z</time>
      </trkpt>
      <trkpt lat="49.92097" lon="2.22892">
        <ele>15.7</ele>
        <time>2022-02-02T13:52:34Z</time>
      </trkpt>
      <trkpt lat="49.92097" lon="2.22892">
        <ele>15.7</ele>
        <time>2022-02-02T13:52:35Z</time>
      </trkpt>
      <trkpt lat="49.92097" lon="2.22892">
        <ele>15.7</ele>
        <time>2022-02-02T13:52:36Z</time>
      </trkpt>
      <trkpt lat="49.92097" lon="2.22892">
        <ele>15.7</ele>
        <time>2022-02-02T13:52:37Z</time>
      </trkpt>
      <trkpt lat="49.92097" lon="2.22892">
        <ele>15.7</ele>
        <time>2022-02-02T13:52:38Z</time>
      </trkpt>
      <trkpt lat="49.92097" lon="2.22892">
        <ele>15.7</ele>
        <time>2022-02-02T13:52:39Z</time>
      </trkpt>
      <trkpt lat="49.92097" lon="2.22892">
        <ele>15.7</ele>
        <time>2022-02-02T13:52:40Z</time>
      </trkpt>
      <trkpt lat="49.92097" lon="2.22892">
        <ele>15.8</ele>
        <time>2022-02-02T13:52:41Z</time>
      </trkpt>
      <trkpt lat="49.92097" lon="2.22892">
        <ele>15.8</ele>
        <time>2022-02-02T13:52:42Z</time>
      </trkpt>
      <trkpt lat="49.92097" lon="2.22892">
        <ele>15.8</ele>
        <time>2022-02-02T13:52:43Z</time>
      </trkpt>
      <trkpt lat="49.92097" lon="2.22892">
        <ele>15.8</ele>
        <time>2022-02-02T13:52:44Z</time>
      </trkpt>
      <trkpt lat="49.92097" lon="2.22892">
        <ele>15.8</ele>
        <time>2022-02-02T13:52:45Z</time>
      </trkpt>
      <trkpt lat="49.92097" lon="2.22892">
        <ele>15.8</ele>
        <time>2022-02-02T13:52:46Z</time>
      </trkpt>
      <trkpt lat="49.92097" lon="2.22892">
        <ele>15.8</ele>
        <time>2022-02-02T13:52:47Z</time>
      </trkpt>
      <trkpt lat="49.92097" lon="2.22892">
        <ele>15.8</ele>
        <time>2022-02-02T13:52:48Z</time>
      </trkpt>
      <trkpt lat="49.92097" lon="2.22892">
        <ele>15.8</ele>
        <time>2022-02-02T13:52:49Z</time>
      </trkpt>
      <trkpt lat="49.92097" lon="2.22892">
        <ele>15.8</ele>
        <time>2022-02-02T13:52:50Z</time>
      </trkpt>
      <trkpt lat="49.92097" lon="2.22892">
        <ele>15.8</ele>
        <time>2022-02-02T13:52:51Z</time>
      </trkpt>
      <trkpt lat="49.92097" lon="2.22892">
        <ele>15.8</ele>
        <time>2022-02-02T13:52:52Z</time>
      </trkpt>
      <trkpt lat="49.92097" lon="2.22892">
        <ele>15.8</ele>
        <time>2022-02-02T13:52:53Z</time>
      </trkpt>
      <trkpt lat="49.92097" lon="2.22892">
        <ele>15.8</ele>
        <time>2022-02-02T13:52:54Z</time>
      </trkpt>
      <trkpt lat="49.92097" lon="2.22892">
        <ele>15.8</ele>
        <time>2022-02-02T13:52:55Z</time>
      </trkpt>
      <trkpt lat="49.92097" lon="2.22892">
        <ele>15.8</ele>
        <time>2022-02-02T13:52:56Z</time>
      </trkpt>
      <trkpt lat="49.92097" lon="2.22892">
        <ele>15.8</ele>
        <time>2022-02-02T13:52:57Z</time>
      </trkpt>
      <trkpt lat="49.92097" lon="2.22892">
        <ele>15.8</ele>
        <time>2022-02-02T13:52:58Z</time>
      </trkpt>
      <trkpt lat="49.92097" lon="2.22892">
        <ele>15.8</ele>
        <time>2022-02-02T13:52:59Z</time>
      </trkpt>
      <trkpt lat="49.92097" lon="2.22892">
        <ele>15.8</ele>
        <time>2022-02-02T13:53:00Z</time>
      </trkpt>
      <trkpt lat="49.92097" lon="2.22892">
        <ele>15.8</ele>
        <time>2022-02-02T13:53:01Z</time>
      </trkpt>
      <trkpt lat="49.92097" lon="2.22892">
        <ele>15.8</ele>
        <time>2022-02-02T13:53:02Z</time>
      </trkpt>
      <trkpt lat="49.92097" lon="2.22892">
        <ele>15.8</ele>
        <time>2022-02-02T13:53:03Z</time>
      </trkpt>
      <trkpt lat="49.92097" lon="2.22892">
        <ele>15.8</ele>
        <time>2022-02-02T13:53:04Z</time>
      </trkpt>
      <trkpt lat="49.92097" lon="2.22892">
        <ele>15.8</ele>
        <time>2022-02-02T13:53:05Z</time>
      </trkpt>
      <trkpt lat="49.92097" lon="2.22892">
        <ele>15.8</ele>
        <time>2022-02-02T13:53:06Z</time>
      </trkpt>
      <trkpt lat="49.92097" lon="2.22892">
        <ele>15.8</ele>
        <time>2022-02-02T13:53:07Z</time>
      </trkpt>
      <trkpt lat="49.92097" lon="2.22892">
        <ele>15.8</ele>
        <time>2022-02-02T13:53:08Z</time>
      </trkpt>
      <trkpt lat="49.92097" lon="2.22892">
        <ele>15.8</ele>
        <time>2022-02-02T13:53:09Z</time>
      </trkpt>
      <trkpt lat="49.92097" lon="2.22892">
        <ele>15.8</ele>
        <time>2022-02-02T13:53:10Z</time>
      </trkpt>
      <trkpt lat="49.92097" lon="2.22892">
        <ele>15.8</ele>
        <time>2022-02-02T13:53:11Z</time>
      </trkpt>
      <trkpt lat="49.92097" lon="2.22892">
        <ele>15.8</ele>
        <time>2022-02-02T13:53:12Z</time>
      </trkpt>
      <trkpt lat="49.92097" lon="2.22892">
        <ele>15.8</ele>
        <time>2022-02-02T13:53:13Z</time>
      </trkpt>
      <trkpt lat="49.92097" lon="2.22892">
        <ele>15.8</ele>
        <time>2022-02-02T13:53:14Z</time>
      </trkpt>
      <trkpt lat="49.92097" lon="2.22892">
        <ele>15.8</ele>
        <time>2022-02-02T13:53:15Z</time>
      </trkpt>
      <trkpt lat="49.92097" lon="2.22892">
        <ele>15.8</ele>
        <time>2022-02-02T13:53:16Z</time>
      </trkpt>
      <trkpt lat="49.92097" lon="2.22892">
        <ele>15.8</ele>
        <time>2022-02-02T13:53:17Z</time>
      </trkpt>
      <trkpt lat="49.92097" lon="2.22892">
        <ele>15.8</ele>
        <time>2022-02-02T13:53:18Z</time>
      </trkpt>
      <trkpt lat="49.92097" lon="2.22892">
        <ele>15.8</ele>
        <time>2022-02-02T13:53:19Z</time>
      </trkpt>
      <trkpt lat="49.92097" lon="2.22892">
        <ele>15.8</ele>
        <time>2022-02-02T13:53:20Z</time>
      </trkpt>
      <trkpt lat="49.92097" lon="2.22892">
        <ele>15.8</ele>
        <time>2022-02-02T13:53:21Z</time>
      </trkpt>
      <trkpt lat="49.92097" lon="2.22892">
        <ele>15.8</ele>
        <time>2022-02-02T13:53:22Z</time>
      </trkpt>
      <trkpt lat="49.92098" lon="2.22891">
        <ele>15.9</ele>
        <time>2022-02-02T13:53:23Z</time>
      </trkpt>
      <trkpt lat="49.92098" lon="2.2289">
        <ele>15.9</ele>
        <time>2022-02-02T13:53:24Z</time>
      </trkpt>
      <trkpt lat="49.92098" lon="2.22889">
        <ele>15.8</ele>
        <time>2022-02-02T13:53:25Z</time>
      </trkpt>
      <trkpt lat="49.92098" lon="2.22889">
        <ele>15.8</ele>
        <time>2022-02-02T13:53:26Z</time>
      </trkpt>
      <trkpt lat="49.92098" lon="2.22889">
        <ele>15.8</ele>
        <time>2022-02-02T13:53:27Z</time>
      </trkpt>
      <trkpt lat="49.92098" lon="2.22889">
        <ele>15.8</ele>
        <time>2022-02-02T13:53:28Z</time>
      </trkpt>
      <trkpt lat="49.92098" lon="2.22889">
        <ele>15.8</ele>
        <time>2022-02-02T13:53:29Z</time>
      </trkpt>
      <trkpt lat="49.92098" lon="2.22889">
        <ele>15.8</ele>
        <time>2022-02-02T13:53:30Z</time>
      </trkpt>
      <trkpt lat="49.92098" lon="2.22889">
        <ele>15.8</ele>
        <time>2022-02-02T13:53:31Z</time>
      </trkpt>
      <trkpt lat="49.92098" lon="2.22889">
        <ele>15.8</ele>
        <time>2022-02-02T13:53:32Z</time>
      </trkpt>
      <trkpt lat="49.92098" lon="2.22889">
        <ele>15.8</ele>
        <time>2022-02-02T13:53:33Z</time>
      </trkpt>
      <trkpt lat="49.92098" lon="2.22889">
        <ele>15.9</ele>
        <time>2022-02-02T13:53:34Z</time>
      </trkpt>
      <trkpt lat="49.92098" lon="2.22889">
        <ele>15.9</ele>
        <time>2022-02-02T13:53:35Z</time>
      </trkpt>
      <trkpt lat="49.92098" lon="2.22889">
        <ele>15.9</ele>
        <time>2022-02-02T13:53:36Z</time>
      </trkpt>
      <trkpt lat="49.92098" lon="2.22889">
        <ele>15.9</ele>
        <time>2022-02-02T13:53:37Z</time>
      </trkpt>
      <trkpt lat="49.92098" lon="2.22889">
        <ele>15.9</ele>
        <time>2022-02-02T13:53:39Z</time>
      </trkpt>
      <trkpt lat="49.92098" lon="2.22889">
        <ele>15.9</ele>
        <time>2022-02-02T13:53:41Z</time>
      </trkpt>
      <trkpt lat="49.92098" lon="2.22889">
        <ele>15.9</ele>
        <time>2022-02-02T13:53:42Z</time>
      </trkpt>
      <trkpt lat="49.92098" lon="2.22889">
        <ele>15.9</ele>
        <time>2022-02-02T13:53:43Z</time>
      </trkpt>
      <trkpt lat="49.92098" lon="2.22889">
        <ele>15.9</ele>
        <time>2022-02-02T13:53:44Z</time>
      </trkpt>
      <trkpt lat="49.92098" lon="2.22889">
        <ele>15.9</ele>
        <time>2022-02-02T13:53:46Z</time>
      </trkpt>
      <trkpt lat="49.92098" lon="2.22889">
        <ele>15.9</ele>
        <time>2022-02-02T13:53:47Z</time>
      </trkpt>
      <trkpt lat="49.92098" lon="2.22889">
        <ele>15.9</ele>
        <time>2022-02-02T13:53:48Z</time>
      </trkpt>
      <trkpt lat="49.92098" lon="2.22889">
        <ele>15.9</ele>
        <time>2022-02-02T13:53:49Z</time>
      </trkpt>
      <trkpt lat="49.92098" lon="2.22889">
        <ele>15.9</ele>
        <time>2022-02-02T13:53:50Z</time>
      </trkpt>
      <trkpt lat="49.92098" lon="2.22889">
        <ele>15.9</ele>
        <time>2022-02-02T13:53:51Z</time>
      </trkpt>
      <trkpt lat="49.92098" lon="2.22889">
        <ele>15.9</ele>
        <time>2022-02-02T13:53:52Z</time>
      </trkpt>
      <trkpt lat="49.92098" lon="2.22889">
        <ele>15.9</ele>
        <time>2022-02-02T13:53:53Z</time>
      </trkpt>
      <trkpt lat="49.92098" lon="2.22889">
        <ele>15.9</ele>
        <time>2022-02-02T13:53:54Z</time>
      </trkpt>
      <trkpt lat="49.92098" lon="2.22889">
        <ele>15.9</ele>
        <time>2022-02-02T13:53:55Z</time>
      </trkpt>
      <trkpt lat="49.92098" lon="2.22889">
        <ele>15.9</ele>
        <time>2022-02-02T13:53:56Z</time>
      </trkpt>
      <trkpt lat="49.92098" lon="2.22889">
        <ele>15.9</ele>
        <time>2022-02-02T13:53:57Z</time>
      </trkpt>
      <trkpt lat="49.92098" lon="2.22889">
        <ele>15.9</ele>
        <time>2022-02-02T13:53:58Z</time>
      </trkpt>
      <trkpt lat="49.92098" lon="2.22889">
        <ele>15.9</ele>
        <time>2022-02-02T13:53:59Z</time>
      </trkpt>
      <trkpt lat="49.92098" lon="2.22889">
        <ele>15.9</ele>
        <time>2022-02-02T13:54:00Z</time>
      </trkpt>
      <trkpt lat="49.92098" lon="2.22889">
        <ele>15.9</ele>
        <time>2022-02-02T13:54:01Z</time>
      </trkpt>
      <trkpt lat="49.92098" lon="2.22889">
        <ele>15.9</ele>
        <time>2022-02-02T13:54:02Z</time>
      </trkpt>
      <trkpt lat="49.92098" lon="2.22889">
        <ele>15.9</ele>
        <time>2022-02-02T13:54:03Z</time>
      </trkpt>
      <trkpt lat="49.92098" lon="2.22889">
        <ele>15.9</ele>
        <time>2022-02-02T13:54:04Z</time>
      </trkpt>
      <trkpt lat="49.92098" lon="2.22889">
        <ele>15.9</ele>
        <time>2022-02-02T13:54:05Z</time>
      </trkpt>
      <trkpt lat="49.92098" lon="2.22889">
        <ele>15.9</ele>
        <time>2022-02-02T13:54:06Z</time>
      </trkpt>
      <trkpt lat="49.92098" lon="2.22889">
        <ele>15.9</ele>
        <time>2022-02-02T13:54:07Z</time>
      </trkpt>
      <trkpt lat="49.92098" lon="2.22889">
        <ele>15.9</ele>
        <time>2022-02-02T13:54:08Z</time>
      </trkpt>
      <trkpt lat="49.92098" lon="2.22889">
        <ele>15.9</ele>
        <time>2022-02-02T13:54:09Z</time>
      </trkpt>
      <trkpt lat="49.92098" lon="2.22889">
        <ele>15.9</ele>
        <time>2022-02-02T13:54:10Z</time>
      </trkpt>
      <trkpt lat="49.92098" lon="2.22889">
        <ele>15.9</ele>
        <time>2022-02-02T13:54:11Z</time>
      </trkpt>
      <trkpt lat="49.92098" lon="2.22889">
        <ele>15.9</ele>
        <time>2022-02-02T13:54:12Z</time>
      </trkpt>
      <trkpt lat="49.92098" lon="2.22889">
        <ele>15.9</ele>
        <time>2022-02-02T13:54:13Z</time>
      </trkpt>
      <trkpt lat="49.92098" lon="2.22889">
        <ele>15.9</ele>
        <time>2022-02-02T13:54:14Z</time>
      </trkpt>
      <trkpt lat="49.92098" lon="2.22889">
        <ele>15.9</ele>
        <time>2022-02-02T13:54:15Z</time>
      </trkpt>
      <trkpt lat="49.92098" lon="2.22889">
        <ele>15.9</ele>
        <time>2022-02-02T13:54:16Z</time>
      </trkpt>
      <trkpt lat="49.92098" lon="2.22889">
        <ele>15.9</ele>
        <time>2022-02-02T13:54:17Z</time>
      </trkpt>
      <trkpt lat="49.92098" lon="2.22889">
        <ele>15.9</ele>
        <time>2022-02-02T13:54:18Z</time>
      </trkpt>
      <trkpt lat="49.92098" lon="2.22889">
        <ele>15.9</ele>
        <time>2022-02-02T13:54:19Z</time>
      </trkpt>
      <trkpt lat="49.92098" lon="2.22889">
        <ele>15.9</ele>
        <time>2022-02-02T13:54:20Z</time>
      </trkpt>
      <trkpt lat="49.92098" lon="2.22889">
        <ele>15.9</ele>
        <time>2022-02-02T13:54:21Z</time>
      </trkpt>
      <trkpt lat="49.92098" lon="2.22889">
        <ele>15.9</ele>
        <time>2022-02-02T13:54:22Z</time>
      </trkpt>
      <trkpt lat="49.92098" lon="2.22889">
        <ele>15.9</ele>
        <time>2022-02-02T13:54:23Z</time>
      </trkpt>
      <trkpt lat="49.92098" lon="2.22889">
        <ele>15.9</ele>
        <time>2022-02-02T13:54:24Z</time>
      </trkpt>
      <trkpt lat="49.92098" lon="2.22889">
        <ele>15.9</ele>
        <time>2022-02-02T13:54:25Z</time>
      </trkpt>
      <trkpt lat="49.92098" lon="2.22889">
        <ele>15.9</ele>
        <time>2022-02-02T13:54:26Z</time>
      </trkpt>
      <trkpt lat="49.92098" lon="2.22889">
        <ele>15.9</ele>
        <time>2022-02-02T13:54:27Z</time>
      </trkpt>
      <trkpt lat="49.92098" lon="2.22889">
        <ele>15.9</ele>
        <time>2022-02-02T13:54:28Z</time>
      </trkpt>
      <trkpt lat="49.92098" lon="2.22889">
        <ele>15.9</ele>
        <time>2022-02-02T13:54:29Z</time>
      </trkpt>
      <trkpt lat="49.92099" lon="2.22888">
        <ele>15.9</ele>
        <time>2022-02-02T13:54:30Z</time>
      </trkpt>
      <trkpt lat="49.921" lon="2.22887">
        <ele>15.9</ele>
        <time>2022-02-02T13:54:31Z</time>
      </trkpt>
      <trkpt lat="49.921" lon="2.22887">
        <ele>16</ele>
        <time>2022-02-02T13:54:32Z</time>
      </trkpt>
      <trkpt lat="49.92101" lon="2.22887">
        <ele>16</ele>
        <time>2022-02-02T13:54:33Z</time>
      </trkpt>
      <trkpt lat="49.921" lon="2.22887">
        <ele>16</ele>
        <time>2022-02-02T13:54:34Z</time>
      </trkpt>
      <trkpt lat="49.921" lon="2.22888">
        <ele>16</ele>
        <time>2022-02-02T13:54:35Z</time>
      </trkpt>
      <trkpt lat="49.921" lon="2.22888">
        <ele>15.9</ele>
        <time>2022-02-02T13:54:36Z</time>
      </trkpt>
      <trkpt lat="49.921" lon="2.22888">
        <ele>15.9</ele>
        <time>2022-02-02T13:54:37Z</time>
      </trkpt>
      <trkpt lat="49.921" lon="2.22889">
        <ele>15.9</ele>
        <time>2022-02-02T13:54:38Z</time>
      </trkpt>
      <trkpt lat="49.921" lon="2.22889">
        <ele>15.9</ele>
        <time>2022-02-02T13:54:39Z</time>
      </trkpt>
      <trkpt lat="49.92099" lon="2.2289">
        <ele>16</ele>
        <time>2022-02-02T13:54:40Z</time>
      </trkpt>
      <trkpt lat="49.92099" lon="2.2289">
        <ele>16</ele>
        <time>2022-02-02T13:54:41Z</time>
      </trkpt>
      <trkpt lat="49.92099" lon="2.2289">
        <ele>16</ele>
        <time>2022-02-02T13:54:42Z</time>
      </trkpt>
      <trkpt lat="49.92099" lon="2.22891">
        <ele>16</ele>
        <time>2022-02-02T13:54:44Z</time>
      </trkpt>
      <trkpt lat="49.92099" lon="2.22891">
        <ele>16</ele>
        <time>2022-02-02T13:54:45Z</time>
      </trkpt>
      <trkpt lat="49.92099" lon="2.22892">
        <ele>16</ele>
        <time>2022-02-02T13:54:46Z</time>
      </trkpt>
      <trkpt lat="49.92098" lon="2.22894">
        <ele>16</ele>
        <time>2022-02-02T13:54:47Z</time>
      </trkpt>
      <trkpt lat="49.92097" lon="2.22896">
        <ele>16</ele>
        <time>2022-02-02T13:54:48Z</time>
      </trkpt>
      <trkpt lat="49.92097" lon="2.22898">
        <ele>16</ele>
        <time>2022-02-02T13:54:50Z</time>
      </trkpt>
      <trkpt lat="49.92097" lon="2.229">
        <ele>16</ele>
        <time>2022-02-02T13:54:51Z</time>
      </trkpt>
      <trkpt lat="49.92097" lon="2.22901">
        <ele>16</ele>
        <time>2022-02-02T13:54:52Z</time>
      </trkpt>
      <trkpt lat="49.92097" lon="2.22903">
        <ele>16</ele>
        <time>2022-02-02T13:54:53Z</time>
      </trkpt>
      <trkpt lat="49.92097" lon="2.22904">
        <ele>16</ele>
        <time>2022-02-02T13:54:54Z</time>
      </trkpt>
      <trkpt lat="49.92096" lon="2.22905">
        <ele>16</ele>
        <time>2022-02-02T13:54:55Z</time>
      </trkpt>
      <trkpt lat="49.92096" lon="2.22907">
        <ele>16.1</ele>
        <time>2022-02-02T13:54:56Z</time>
      </trkpt>
      <trkpt lat="49.92095" lon="2.22908">
        <ele>16.1</ele>
        <time>2022-02-02T13:54:57Z</time>
      </trkpt>
      <trkpt lat="49.92094" lon="2.22909">
        <ele>16</ele>
        <time>2022-02-02T13:54:58Z</time>
      </trkpt>
      <trkpt lat="49.92093" lon="2.2291">
        <ele>16</ele>
        <time>2022-02-02T13:54:59Z</time>
      </trkpt>
      <trkpt lat="49.92092" lon="2.22911">
        <ele>16</ele>
        <time>2022-02-02T13:55:00Z</time>
      </trkpt>
      <trkpt lat="49.92091" lon="2.22911">
        <ele>16</ele>
        <time>2022-02-02T13:55:01Z</time>
      </trkpt>
      <trkpt lat="49.9209" lon="2.22911">
        <ele>16</ele>
        <time>2022-02-02T13:55:02Z</time>
      </trkpt>
      <trkpt lat="49.92088" lon="2.22911">
        <ele>16</ele>
        <time>2022-02-02T13:55:03Z</time>
      </trkpt>
      <trkpt lat="49.92087" lon="2.2291">
        <ele>16</ele>
        <time>2022-02-02T13:55:04Z</time>
      </trkpt>
      <trkpt lat="49.92086" lon="2.2291">
        <ele>16</ele>
        <time>2022-02-02T13:55:05Z</time>
      </trkpt>
      <trkpt lat="49.92084" lon="2.2291">
        <ele>16</ele>
        <time>2022-02-02T13:55:07Z</time>
      </trkpt>
      <trkpt lat="49.92083" lon="2.2291">
        <ele>16</ele>
        <time>2022-02-02T13:55:08Z</time>
      </trkpt>
      <trkpt lat="49.92082" lon="2.22909">
        <ele>16</ele>
        <time>2022-02-02T13:55:09Z</time>
      </trkpt>
      <trkpt lat="49.92081" lon="2.22909">
        <ele>16</ele>
        <time>2022-02-02T13:55:10Z</time>
      </trkpt>
      <trkpt lat="49.92079" lon="2.22909">
        <ele>16</ele>
        <time>2022-02-02T13:55:11Z</time>
      </trkpt>
      <trkpt lat="49.92078" lon="2.22909">
        <ele>16</ele>
        <time>2022-02-02T13:55:12Z</time>
      </trkpt>
      <trkpt lat="49.92076" lon="2.22909">
        <ele>15.9</ele>
        <time>2022-02-02T13:55:13Z</time>
      </trkpt>
      <trkpt lat="49.92075" lon="2.22908">
        <ele>15.9</ele>
        <time>2022-02-02T13:55:14Z</time>
      </trkpt>
      <trkpt lat="49.92074" lon="2.22908">
        <ele>15.9</ele>
        <time>2022-02-02T13:55:15Z</time>
      </trkpt>
      <trkpt lat="49.92074" lon="2.22908">
        <ele>15.9</ele>
        <time>2022-02-02T13:55:16Z</time>
      </trkpt>
      <trkpt lat="49.92073" lon="2.22908">
        <ele>15.9</ele>
        <time>2022-02-02T13:55:17Z</time>
      </trkpt>
      <trkpt lat="49.92071" lon="2.22907">
        <ele>15.9</ele>
        <time>2022-02-02T13:55:18Z</time>
      </trkpt>
      <trkpt lat="49.92069" lon="2.22907">
        <ele>15.9</ele>
        <time>2022-02-02T13:55:19Z</time>
      </trkpt>
      <trkpt lat="49.92068" lon="2.22906">
        <ele>15.9</ele>
        <time>2022-02-02T13:55:20Z</time>
      </trkpt>
      <trkpt lat="49.92067" lon="2.22906">
        <ele>15.9</ele>
        <time>2022-02-02T13:55:21Z</time>
      </trkpt>
      <trkpt lat="49.92064" lon="2.22905">
        <ele>15.9</ele>
        <time>2022-02-02T13:55:23Z</time>
      </trkpt>
      <trkpt lat="49.92064" lon="2.22904">
        <ele>15.9</ele>
        <time>2022-02-02T13:55:24Z</time>
      </trkpt>
      <trkpt lat="49.92061" lon="2.22904">
        <ele>15.9</ele>
        <time>2022-02-02T13:55:25Z</time>
      </trkpt>
      <trkpt lat="49.9206" lon="2.22903">
        <ele>15.9</ele>
        <time>2022-02-02T13:55:26Z</time>
      </trkpt>
      <trkpt lat="49.92058" lon="2.22903">
        <ele>15.9</ele>
        <time>2022-02-02T13:55:27Z</time>
      </trkpt>
      <trkpt lat="49.92057" lon="2.22903">
        <ele>15.9</ele>
        <time>2022-02-02T13:55:28Z</time>
      </trkpt>
      <trkpt lat="49.92055" lon="2.22903">
        <ele>15.9</ele>
        <time>2022-02-02T13:55:29Z</time>
      </trkpt>
      <trkpt lat="49.92053" lon="2.22903">
        <ele>15.9</ele>
        <time>2022-02-02T13:55:31Z</time>
      </trkpt>
      <trkpt lat="49.92051" lon="2.22902">
        <ele>15.9</ele>
        <time>2022-02-02T13:55:32Z</time>
      </trkpt>
      <trkpt lat="49.9205" lon="2.22902">
        <ele>15.9</ele>
        <time>2022-02-02T13:55:33Z</time>
      </trkpt>
      <trkpt lat="49.92048" lon="2.22901">
        <ele>16</ele>
        <time>2022-02-02T13:55:34Z</time>
      </trkpt>
      <trkpt lat="49.92046" lon="2.22901">
        <ele>16</ele>
        <time>2022-02-02T13:55:36Z</time>
      </trkpt>
      <trkpt lat="49.92045" lon="2.229">
        <ele>16</ele>
        <time>2022-02-02T13:55:37Z</time>
      </trkpt>
      <trkpt lat="49.92043" lon="2.229">
        <ele>16</ele>
        <time>2022-02-02T13:55:38Z</time>
      </trkpt>
      <trkpt lat="49.92042" lon="2.229">
        <ele>16</ele>
        <time>2022-02-02T13:55:39Z</time>
      </trkpt>
      <trkpt lat="49.92041" lon="2.229">
        <ele>16</ele>
        <time>2022-02-02T13:55:40Z</time>
      </trkpt>
      <trkpt lat="49.9204" lon="2.229">
        <ele>16</ele>
        <time>2022-02-02T13:55:41Z</time>
      </trkpt>
      <trkpt lat="49.92038" lon="2.229">
        <ele>16</ele>
        <time>2022-02-02T13:55:42Z</time>
      </trkpt>
      <trkpt lat="49.92037" lon="2.229">
        <ele>16</ele>
        <time>2022-02-02T13:55:43Z</time>
      </trkpt>
      <trkpt lat="49.92035" lon="2.22899">
        <ele>16</ele>
        <time>2022-02-02T13:55:44Z</time>
      </trkpt>
      <trkpt lat="49.92034" lon="2.22898">
        <ele>16</ele>
        <time>2022-02-02T13:55:46Z</time>
      </trkpt>
      <trkpt lat="49.92034" lon="2.22898">
        <ele>16</ele>
        <time>2022-02-02T13:55:47Z</time>
      </trkpt>
      <trkpt lat="49.92033" lon="2.22897">
        <ele>16.1</ele>
        <time>2022-02-02T13:55:48Z</time>
      </trkpt>
      <trkpt lat="49.92032" lon="2.22897">
        <ele>16.1</ele>
        <time>2022-02-02T13:55:49Z</time>
      </trkpt>
      <trkpt lat="49.92031" lon="2.22896">
        <ele>16.1</ele>
        <time>2022-02-02T13:55:50Z</time>
      </trkpt>
      <trkpt lat="49.92029" lon="2.22896">
        <ele>16.1</ele>
        <time>2022-02-02T13:55:51Z</time>
      </trkpt>
      <trkpt lat="49.92028" lon="2.22896">
        <ele>16.1</ele>
        <time>2022-02-02T13:55:52Z</time>
      </trkpt>
      <trkpt lat="49.92027" lon="2.22896">
        <ele>16.1</ele>
        <time>2022-02-02T13:55:53Z</time>
      </trkpt>
      <trkpt lat="49.92026" lon="2.22896">
        <ele>16.1</ele>
        <time>2022-02-02T13:55:54Z</time>
      </trkpt>
      <trkpt lat="49.92024" lon="2.22896">
        <ele>16.1</ele>
        <time>2022-02-02T13:55:55Z</time>
      </trkpt>
      <trkpt lat="49.92023" lon="2.22895">
        <ele>16.1</ele>
        <time>2022-02-02T13:55:57Z</time>
      </trkpt>
      <trkpt lat="49.92022" lon="2.22895">
        <ele>16.1</ele>
        <time>2022-02-02T13:55:58Z</time>
      </trkpt>
      <trkpt lat="49.9202" lon="2.22895">
        <ele>16.1</ele>
        <time>2022-02-02T13:55:59Z</time>
      </trkpt>
      <trkpt lat="49.92019" lon="2.22895">
        <ele>16.1</ele>
        <time>2022-02-02T13:56:00Z</time>
      </trkpt>
      <trkpt lat="49.92017" lon="2.22895">
        <ele>16.1</ele>
        <time>2022-02-02T13:56:01Z</time>
      </trkpt>
      <trkpt lat="49.92016" lon="2.22895">
        <ele>16.1</ele>
        <time>2022-02-02T13:56:02Z</time>
      </trkpt>
      <trkpt lat="49.92014" lon="2.22895">
        <ele>16.1</ele>
        <time>2022-02-02T13:56:03Z</time>
      </trkpt>
      <trkpt lat="49.92013" lon="2.22894">
        <ele>16.1</ele>
        <time>2022-02-02T13:56:04Z</time>
      </trkpt>
      <trkpt lat="49.92011" lon="2.22894">
        <ele>16.1</ele>
        <time>2022-02-02T13:56:05Z</time>
      </trkpt>
      <trkpt lat="49.9201" lon="2.22894">
        <ele>16.1</ele>
        <time>2022-02-02T13:56:06Z</time>
      </trkpt>
      <trkpt lat="49.92008" lon="2.22894">
        <ele>16.1</ele>
        <time>2022-02-02T13:56:08Z</time>
      </trkpt>
      <trkpt lat="49.92007" lon="2.22894">
        <ele>16.1</ele>
        <time>2022-02-02T13:56:09Z</time>
      </trkpt>
      <trkpt lat="49.92004" lon="2.22893">
        <ele>16.1</ele>
        <time>2022-02-02T13:56:11Z</time>
      </trkpt>
      <trkpt lat="49.92003" lon="2.22893">
        <ele>16.1</ele>
        <time>2022-02-02T13:56:12Z</time>
      </trkpt>
      <trkpt lat="49.92001" lon="2.22892">
        <ele>16.1</ele>
        <time>2022-02-02T13:56:13Z</time>
      </trkpt>
      <trkpt lat="49.92" lon="2.22892">
        <ele>16.1</ele>
        <time>2022-02-02T13:56:14Z</time>
      </trkpt>
      <trkpt lat="49.91998" lon="2.22892">
        <ele>16.1</ele>
        <time>2022-02-02T13:56:15Z</time>
      </trkpt>
      <trkpt lat="49.91997" lon="2.22891">
        <ele>16.1</ele>
        <time>2022-02-02T13:56:16Z</time>
      </trkpt>
      <trkpt lat="49.91995" lon="2.22891">
        <ele>16.2</ele>
        <time>2022-02-02T13:56:17Z</time>
      </trkpt>
      <trkpt lat="49.91994" lon="2.2289">
        <ele>16.2</ele>
        <time>2022-02-02T13:56:18Z</time>
      </trkpt>
      <trkpt lat="49.91993" lon="2.2289">
        <ele>16.2</ele>
        <time>2022-02-02T13:56:19Z</time>
      </trkpt>
      <trkpt lat="49.91992" lon="2.22889">
        <ele>16.2</ele>
        <time>2022-02-02T13:56:20Z</time>
      </trkpt>
      <trkpt lat="49.9199" lon="2.22888">
        <ele>16.2</ele>
        <time>2022-02-02T13:56:21Z</time>
      </trkpt>
      <trkpt lat="49.91989" lon="2.22888">
        <ele>16.2</ele>
        <time>2022-02-02T13:56:22Z</time>
      </trkpt>
      <trkpt lat="49.91987" lon="2.22887">
        <ele>16.2</ele>
        <time>2022-02-02T13:56:23Z</time>
      </trkpt>
      <trkpt lat="49.91986" lon="2.22886">
        <ele>16.2</ele>
        <time>2022-02-02T13:56:24Z</time>
      </trkpt>
      <trkpt lat="49.91985" lon="2.22885">
        <ele>16.2</ele>
        <time>2022-02-02T13:56:25Z</time>
      </trkpt>
      <trkpt lat="49.91984" lon="2.22885">
        <ele>16.2</ele>
        <time>2022-02-02T13:56:27Z</time>
      </trkpt>
      <trkpt lat="49.91982" lon="2.22884">
        <ele>16.2</ele>
        <time>2022-02-02T13:56:28Z</time>
      </trkpt>
      <trkpt lat="49.91981" lon="2.22883">
        <ele>16.2</ele>
        <time>2022-02-02T13:56:29Z</time>
      </trkpt>
      <trkpt lat="49.9198" lon="2.22883">
        <ele>16.3</ele>
        <time>2022-02-02T13:56:30Z</time>
      </trkpt>
      <trkpt lat="49.91979" lon="2.22882">
        <ele>16.3</ele>
        <time>2022-02-02T13:56:31Z</time>
      </trkpt>
      <trkpt lat="49.91978" lon="2.22882">
        <ele>16.3</ele>
        <time>2022-02-02T13:56:32Z</time>
      </trkpt>
      <trkpt lat="49.91977" lon="2.22881">
        <ele>16.3</ele>
        <time>2022-02-02T13:56:33Z</time>
      </trkpt>
      <trkpt lat="49.91975" lon="2.22881">
        <ele>16.3</ele>
        <time>2022-02-02T13:56:34Z</time>
      </trkpt>
      <trkpt lat="49.91974" lon="2.22881">
        <ele>16.3</ele>
        <time>2022-02-02T13:56:35Z</time>
      </trkpt>
      <trkpt lat="49.91973" lon="2.22881">
        <ele>16.3</ele>
        <time>2022-02-02T13:56:36Z</time>
      </trkpt>
      <trkpt lat="49.91972" lon="2.2288">
        <ele>16.3</ele>
        <time>2022-02-02T13:56:37Z</time>
      </trkpt>
      <trkpt lat="49.9197" lon="2.2288">
        <ele>16.3</ele>
        <time>2022-02-02T13:56:38Z</time>
      </trkpt>
      <trkpt lat="49.91968" lon="2.2288">
        <ele>16.4</ele>
        <time>2022-02-02T13:56:39Z</time>
      </trkpt>
      <trkpt lat="49.91968" lon="2.2288">
        <ele>16.4</ele>
        <time>2022-02-02T13:56:41Z</time>
      </trkpt>
      <trkpt lat="49.91967" lon="2.22879">
        <ele>16.4</ele>
        <time>2022-02-02T13:56:42Z</time>
      </trkpt>
      <trkpt lat="49.91966" lon="2.22879">
        <ele>16.4</ele>
        <time>2022-02-02T13:56:43Z</time>
      </trkpt>
      <trkpt lat="49.91964" lon="2.22879">
        <ele>16.4</ele>
        <time>2022-02-02T13:56:44Z</time>
      </trkpt>
      <trkpt lat="49.91963" lon="2.22879">
        <ele>16.4</ele>
        <time>2022-02-02T13:56:45Z</time>
      </trkpt>
      <trkpt lat="49.91962" lon="2.22879">
        <ele>16.4</ele>
        <time>2022-02-02T13:56:46Z</time>
      </trkpt>
      <trkpt lat="49.91961" lon="2.22879">
        <ele>16.4</ele>
        <time>2022-02-02T13:56:47Z</time>
      </trkpt>
      <trkpt lat="49.9196" lon="2.22879">
        <ele>16.4</ele>
        <time>2022-02-02T13:56:48Z</time>
      </trkpt>
      <trkpt lat="49.91959" lon="2.22879">
        <ele>16.4</ele>
        <time>2022-02-02T13:56:49Z</time>
      </trkpt>
      <trkpt lat="49.91957" lon="2.22878">
        <ele>16.4</ele>
        <time>2022-02-02T13:56:50Z</time>
      </trkpt>
      <trkpt lat="49.91956" lon="2.22878">
        <ele>16.4</ele>
        <time>2022-02-02T13:56:51Z</time>
      </trkpt>
      <trkpt lat="49.91955" lon="2.22877">
        <ele>16.4</ele>
        <time>2022-02-02T13:56:52Z</time>
      </trkpt>
      <trkpt lat="49.91953" lon="2.22877">
        <ele>16.4</ele>
        <time>2022-02-02T13:56:54Z</time>
      </trkpt>
      <trkpt lat="49.91952" lon="2.22877">
        <ele>16.4</ele>
        <time>2022-02-02T13:56:55Z</time>
      </trkpt>
      <trkpt lat="49.91951" lon="2.22877">
        <ele>16.5</ele>
        <time>2022-02-02T13:56:56Z</time>
      </trkpt>
      <trkpt lat="49.9195" lon="2.22877">
        <ele>16.5</ele>
        <time>2022-02-02T13:56:57Z</time>
      </trkpt>
      <trkpt lat="49.9195" lon="2.22877">
        <ele>16.5</ele>
        <time>2022-02-02T13:56:58Z</time>
      </trkpt>
      <trkpt lat="49.91949" lon="2.22877">
        <ele>16.5</ele>
        <time>2022-02-02T13:56:59Z</time>
      </trkpt>
      <trkpt lat="49.91948" lon="2.22876">
        <ele>16.5</ele>
        <time>2022-02-02T13:57:00Z</time>
      </trkpt>
      <trkpt lat="49.91947" lon="2.22876">
        <ele>16.5</ele>
        <time>2022-02-02T13:57:01Z</time>
      </trkpt>
      <trkpt lat="49.91946" lon="2.22875">
        <ele>16.5</ele>
        <time>2022-02-02T13:57:02Z</time>
      </trkpt>
      <trkpt lat="49.91944" lon="2.22874">
        <ele>16.5</ele>
        <time>2022-02-02T13:57:03Z</time>
      </trkpt>
      <trkpt lat="49.91943" lon="2.22873">
        <ele>16.5</ele>
        <time>2022-02-02T13:57:04Z</time>
      </trkpt>
      <trkpt lat="49.91942" lon="2.22872">
        <ele>16.5</ele>
        <time>2022-02-02T13:57:05Z</time>
      </trkpt>
      <trkpt lat="49.91941" lon="2.22872">
        <ele>16.5</ele>
        <time>2022-02-02T13:57:07Z</time>
      </trkpt>
      <trkpt lat="49.91939" lon="2.22871">
        <ele>16.5</ele>
        <time>2022-02-02T13:57:08Z</time>
      </trkpt>
      <trkpt lat="49.91938" lon="2.22871">
        <ele>16.5</ele>
        <time>2022-02-02T13:57:09Z</time>
      </trkpt>
      <trkpt lat="49.91938" lon="2.2287">
        <ele>16.5</ele>
        <time>2022-02-02T13:57:10Z</time>
      </trkpt>
      <trkpt lat="49.91937" lon="2.2287">
        <ele>16.6</ele>
        <time>2022-02-02T13:57:11Z</time>
      </trkpt>
      <trkpt lat="49.91936" lon="2.2287">
        <ele>16.6</ele>
        <time>2022-02-02T13:57:12Z</time>
      </trkpt>
      <trkpt lat="49.91933" lon="2.22869">
        <ele>16.6</ele>
        <time>2022-02-02T13:57:13Z</time>
      </trkpt>
      <trkpt lat="49.91932" lon="2.22869">
        <ele>16.6</ele>
        <time>2022-02-02T13:57:14Z</time>
      </trkpt>
      <trkpt lat="49.91932" lon="2.22869">
        <ele>16.6</ele>
        <time>2022-02-02T13:57:15Z</time>
      </trkpt>
      <trkpt lat="49.9193" lon="2.22869">
        <ele>16.6</ele>
        <time>2022-02-02T13:57:17Z</time>
      </trkpt>
      <trkpt lat="49.91929" lon="2.22869">
        <ele>16.6</ele>
        <time>2022-02-02T13:57:18Z</time>
      </trkpt>
      <trkpt lat="49.91928" lon="2.22869">
        <ele>16.6</ele>
        <time>2022-02-02T13:57:19Z</time>
      </trkpt>
      <trkpt lat="49.91926" lon="2.22868">
        <ele>16.7</ele>
        <time>2022-02-02T13:57:20Z</time>
      </trkpt>
      <trkpt lat="49.91925" lon="2.22868">
        <ele>16.7</ele>
        <time>2022-02-02T13:57:21Z</time>
      </trkpt>
      <trkpt lat="49.91924" lon="2.22868">
        <ele>16.7</ele>
        <time>2022-02-02T13:57:22Z</time>
      </trkpt>
      <trkpt lat="49.91922" lon="2.22868">
        <ele>16.7</ele>
        <time>2022-02-02T13:57:23Z</time>
      </trkpt>
      <trkpt lat="49.91921" lon="2.22867">
        <ele>16.7</ele>
        <time>2022-02-02T13:57:24Z</time>
      </trkpt>
      <trkpt lat="49.9192" lon="2.22867">
        <ele>16.7</ele>
        <time>2022-02-02T13:57:25Z</time>
      </trkpt>
      <trkpt lat="49.91918" lon="2.22866">
        <ele>16.7</ele>
        <time>2022-02-02T13:57:26Z</time>
      </trkpt>
      <trkpt lat="49.91917" lon="2.22866">
        <ele>16.7</ele>
        <time>2022-02-02T13:57:28Z</time>
      </trkpt>
      <trkpt lat="49.91916" lon="2.22866">
        <ele>16.8</ele>
        <time>2022-02-02T13:57:29Z</time>
      </trkpt>
      <trkpt lat="49.91915" lon="2.22865">
        <ele>16.8</ele>
        <time>2022-02-02T13:57:30Z</time>
      </trkpt>
      <trkpt lat="49.91914" lon="2.22865">
        <ele>16.8</ele>
        <time>2022-02-02T13:57:31Z</time>
      </trkpt>
      <trkpt lat="49.91912" lon="2.22865">
        <ele>16.8</ele>
        <time>2022-02-02T13:57:32Z</time>
      </trkpt>
      <trkpt lat="49.91911" lon="2.22864">
        <ele>16.9</ele>
        <time>2022-02-02T13:57:33Z</time>
      </trkpt>
      <trkpt lat="49.91909" lon="2.22863">
        <ele>16.9</ele>
        <time>2022-02-02T13:57:34Z</time>
      </trkpt>
      <trkpt lat="49.91908" lon="2.22863">
        <ele>16.9</ele>
        <time>2022-02-02T13:57:36Z</time>
      </trkpt>
      <trkpt lat="49.91906" lon="2.22863">
        <ele>16.9</ele>
        <time>2022-02-02T13:57:37Z</time>
      </trkpt>
      <trkpt lat="49.91905" lon="2.22862">
        <ele>17</ele>
        <time>2022-02-02T13:57:38Z</time>
      </trkpt>
      <trkpt lat="49.91904" lon="2.22862">
        <ele>17</ele>
        <time>2022-02-02T13:57:39Z</time>
      </trkpt>
      <trkpt lat="49.91903" lon="2.22861">
        <ele>17</ele>
        <time>2022-02-02T13:57:40Z</time>
      </trkpt>
      <trkpt lat="49.91902" lon="2.22861">
        <ele>17</ele>
        <time>2022-02-02T13:57:41Z</time>
      </trkpt>
      <trkpt lat="49.91901" lon="2.22861">
        <ele>17</ele>
        <time>2022-02-02T13:57:42Z</time>
      </trkpt>
      <trkpt lat="49.919" lon="2.2286">
        <ele>17.1</ele>
        <time>2022-02-02T13:57:43Z</time>
      </trkpt>
      <trkpt lat="49.91898" lon="2.22859">
        <ele>17.1</ele>
        <time>2022-02-02T13:57:44Z</time>
      </trkpt>
      <trkpt lat="49.91897" lon="2.22858">
        <ele>17.1</ele>
        <time>2022-02-02T13:57:46Z</time>
      </trkpt>
      <trkpt lat="49.91896" lon="2.22858">
        <ele>17.1</ele>
        <time>2022-02-02T13:57:47Z</time>
      </trkpt>
      <trkpt lat="49.91895" lon="2.22857">
        <ele>17.2</ele>
        <time>2022-02-02T13:57:48Z</time>
      </trkpt>
      <trkpt lat="49.91894" lon="2.22857">
        <ele>17.2</ele>
        <time>2022-02-02T13:57:49Z</time>
      </trkpt>
      <trkpt lat="49.91892" lon="2.22856">
        <ele>17.2</ele>
        <time>2022-02-02T13:57:51Z</time>
      </trkpt>
      <trkpt lat="49.9189" lon="2.22855">
        <ele>17.3</ele>
        <time>2022-02-02T13:57:52Z</time>
      </trkpt>
      <trkpt lat="49.91889" lon="2.22855">
        <ele>17.3</ele>
        <time>2022-02-02T13:57:53Z</time>
      </trkpt>
      <trkpt lat="49.91888" lon="2.22855">
        <ele>17.4</ele>
        <time>2022-02-02T13:57:54Z</time>
      </trkpt>
      <trkpt lat="49.91886" lon="2.22855">
        <ele>17.4</ele>
        <time>2022-02-02T13:57:55Z</time>
      </trkpt>
      <trkpt lat="49.91885" lon="2.22855">
        <ele>17.4</ele>
        <time>2022-02-02T13:57:56Z</time>
      </trkpt>
      <trkpt lat="49.91884" lon="2.22855">
        <ele>17.5</ele>
        <time>2022-02-02T13:57:57Z</time>
      </trkpt>
      <trkpt lat="49.91882" lon="2.22855">
        <ele>17.5</ele>
        <time>2022-02-02T13:57:58Z</time>
      </trkpt>
      <trkpt lat="49.91881" lon="2.22855">
        <ele>17.6</ele>
        <time>2022-02-02T13:57:59Z</time>
      </trkpt>
      <trkpt lat="49.9188" lon="2.22855">
        <ele>17.6</ele>
        <time>2022-02-02T13:58:00Z</time>
      </trkpt>
      <trkpt lat="49.91878" lon="2.22855">
        <ele>17.7</ele>
        <time>2022-02-02T13:58:02Z</time>
      </trkpt>
      <trkpt lat="49.91878" lon="2.22854">
        <ele>17.7</ele>
        <time>2022-02-02T13:58:03Z</time>
      </trkpt>
      <trkpt lat="49.91877" lon="2.22854">
        <ele>17.7</ele>
        <time>2022-02-02T13:58:04Z</time>
      </trkpt>
      <trkpt lat="49.91875" lon="2.22854">
        <ele>17.8</ele>
        <time>2022-02-02T13:58:05Z</time>
      </trkpt>
      <trkpt lat="49.91874" lon="2.22853">
        <ele>17.9</ele>
        <time>2022-02-02T13:58:06Z</time>
      </trkpt>
      <trkpt lat="49.91873" lon="2.22853">
        <ele>17.9</ele>
        <time>2022-02-02T13:58:07Z</time>
      </trkpt>
      <trkpt lat="49.91871" lon="2.22853">
        <ele>18</ele>
        <time>2022-02-02T13:58:08Z</time>
      </trkpt>
      <trkpt lat="49.9187" lon="2.22853">
        <ele>18</ele>
        <time>2022-02-02T13:58:10Z</time>
      </trkpt>
      <trkpt lat="49.91868" lon="2.22853">
        <ele>18.1</ele>
        <time>2022-02-02T13:58:11Z</time>
      </trkpt>
      <trkpt lat="49.91867" lon="2.22854">
        <ele>18.1</ele>
        <time>2022-02-02T13:58:12Z</time>
      </trkpt>
      <trkpt lat="49.91866" lon="2.22854">
        <ele>18.2</ele>
        <time>2022-02-02T13:58:13Z</time>
      </trkpt>
      <trkpt lat="49.91865" lon="2.22855">
        <ele>18.3</ele>
        <time>2022-02-02T13:58:14Z</time>
      </trkpt>
      <trkpt lat="49.91864" lon="2.22857">
        <ele>18.3</ele>
        <time>2022-02-02T13:58:15Z</time>
      </trkpt>
      <trkpt lat="49.91863" lon="2.22858">
        <ele>18.4</ele>
        <time>2022-02-02T13:58:16Z</time>
      </trkpt>
      <trkpt lat="49.91862" lon="2.2286">
        <ele>18.4</ele>
        <time>2022-02-02T13:58:17Z</time>
      </trkpt>
      <trkpt lat="49.91862" lon="2.22862">
        <ele>18.5</ele>
        <time>2022-02-02T13:58:18Z</time>
      </trkpt>
      <trkpt lat="49.91861" lon="2.22864">
        <ele>18.5</ele>
        <time>2022-02-02T13:58:20Z</time>
      </trkpt>
      <trkpt lat="49.91861" lon="2.22867">
        <ele>18.5</ele>
        <time>2022-02-02T13:58:21Z</time>
      </trkpt>
      <trkpt lat="49.91861" lon="2.2287">
        <ele>18.5</ele>
        <time>2022-02-02T13:58:22Z</time>
      </trkpt>
      <trkpt lat="49.91861" lon="2.22872">
        <ele>18.5</ele>
        <time>2022-02-02T13:58:23Z</time>
      </trkpt>
      <trkpt lat="49.91861" lon="2.22874">
        <ele>18.5</ele>
        <time>2022-02-02T13:58:24Z</time>
      </trkpt>
      <trkpt lat="49.91861" lon="2.22877">
        <ele>18.5</ele>
        <time>2022-02-02T13:58:25Z</time>
      </trkpt>
      <trkpt lat="49.91861" lon="2.22879">
        <ele>18.6</ele>
        <time>2022-02-02T13:58:26Z</time>
      </trkpt>
      <trkpt lat="49.91861" lon="2.22881">
        <ele>18.6</ele>
        <time>2022-02-02T13:58:27Z</time>
      </trkpt>
      <trkpt lat="49.91861" lon="2.22883">
        <ele>18.6</ele>
        <time>2022-02-02T13:58:28Z</time>
      </trkpt>
      <trkpt lat="49.91861" lon="2.22886">
        <ele>18.6</ele>
        <time>2022-02-02T13:58:29Z</time>
      </trkpt>
      <trkpt lat="49.91861" lon="2.22888">
        <ele>18.6</ele>
        <time>2022-02-02T13:58:30Z</time>
      </trkpt>
      <trkpt lat="49.91861" lon="2.2289">
        <ele>18.7</ele>
        <time>2022-02-02T13:58:31Z</time>
      </trkpt>
      <trkpt lat="49.91861" lon="2.22893">
        <ele>18.7</ele>
        <time>2022-02-02T13:58:32Z</time>
      </trkpt>
      <trkpt lat="49.91861" lon="2.22896">
        <ele>18.7</ele>
        <time>2022-02-02T13:58:33Z</time>
      </trkpt>
      <trkpt lat="49.91861" lon="2.22899">
        <ele>18.7</ele>
        <time>2022-02-02T13:58:34Z</time>
      </trkpt>
      <trkpt lat="49.91861" lon="2.22901">
        <ele>18.8</ele>
        <time>2022-02-02T13:58:35Z</time>
      </trkpt>
      <trkpt lat="49.91861" lon="2.22904">
        <ele>18.8</ele>
        <time>2022-02-02T13:58:37Z</time>
      </trkpt>
      <trkpt lat="49.91861" lon="2.22906">
        <ele>18.8</ele>
        <time>2022-02-02T13:58:38Z</time>
      </trkpt>
      <trkpt lat="49.9186" lon="2.22909">
        <ele>18.8</ele>
        <time>2022-02-02T13:58:39Z</time>
      </trkpt>
      <trkpt lat="49.9186" lon="2.22911">
        <ele>18.9</ele>
        <time>2022-02-02T13:58:40Z</time>
      </trkpt>
      <trkpt lat="49.9186" lon="2.22913">
        <ele>18.9</ele>
        <time>2022-02-02T13:58:41Z</time>
      </trkpt>
      <trkpt lat="49.9186" lon="2.22915">
        <ele>18.9</ele>
        <time>2022-02-02T13:58:42Z</time>
      </trkpt>
      <trkpt lat="49.9186" lon="2.22918">
        <ele>18.9</ele>
        <time>2022-02-02T13:58:43Z</time>
      </trkpt>
      <trkpt lat="49.9186" lon="2.2292">
        <ele>19</ele>
        <time>2022-02-02T13:58:44Z</time>
      </trkpt>
      <trkpt lat="49.9186" lon="2.22922">
        <ele>19</ele>
        <time>2022-02-02T13:58:45Z</time>
      </trkpt>
      <trkpt lat="49.91859" lon="2.22925">
        <ele>19</ele>
        <time>2022-02-02T13:58:47Z</time>
      </trkpt>
      <trkpt lat="49.91859" lon="2.22927">
        <ele>19</ele>
        <time>2022-02-02T13:58:48Z</time>
      </trkpt>
      <trkpt lat="49.91859" lon="2.22929">
        <ele>19.1</ele>
        <time>2022-02-02T13:58:49Z</time>
      </trkpt>
      <trkpt lat="49.91858" lon="2.22931">
        <ele>19.1</ele>
        <time>2022-02-02T13:58:50Z</time>
      </trkpt>
      <trkpt lat="49.91858" lon="2.22934">
        <ele>19.1</ele>
        <time>2022-02-02T13:58:51Z</time>
      </trkpt>
      <trkpt lat="49.91858" lon="2.22936">
        <ele>19.1</ele>
        <time>2022-02-02T13:58:52Z</time>
      </trkpt>
      <trkpt lat="49.91858" lon="2.22938">
        <ele>19.2</ele>
        <time>2022-02-02T13:58:53Z</time>
      </trkpt>
      <trkpt lat="49.91858" lon="2.2294">
        <ele>19.2</ele>
        <time>2022-02-02T13:58:55Z</time>
      </trkpt>
      <trkpt lat="49.91857" lon="2.22942">
        <ele>19.2</ele>
        <time>2022-02-02T13:58:56Z</time>
      </trkpt>
      <trkpt lat="49.91857" lon="2.22943">
        <ele>19.2</ele>
        <time>2022-02-02T13:58:57Z</time>
      </trkpt>
      <trkpt lat="49.91856" lon="2.22944">
        <ele>19.2</ele>
        <time>2022-02-02T13:58:58Z</time>
      </trkpt>
      <trkpt lat="49.91854" lon="2.22945">
        <ele>19.3</ele>
        <time>2022-02-02T13:58:59Z</time>
      </trkpt>
      <trkpt lat="49.91853" lon="2.22945">
        <ele>19.3</ele>
        <time>2022-02-02T13:59:01Z</time>
      </trkpt>
      <trkpt lat="49.91852" lon="2.22944">
        <ele>19.3</ele>
        <time>2022-02-02T13:59:02Z</time>
      </trkpt>
      <trkpt lat="49.9185" lon="2.22943">
        <ele>19.3</ele>
        <time>2022-02-02T13:59:03Z</time>
      </trkpt>
      <trkpt lat="49.91849" lon="2.22942">
        <ele>19.3</ele>
        <time>2022-02-02T13:59:04Z</time>
      </trkpt>
      <trkpt lat="49.91849" lon="2.22941">
        <ele>19.3</ele>
        <time>2022-02-02T13:59:05Z</time>
      </trkpt>
      <trkpt lat="49.91847" lon="2.2294">
        <ele>19.3</ele>
        <time>2022-02-02T13:59:06Z</time>
      </trkpt>
      <trkpt lat="49.91846" lon="2.22939">
        <ele>19.3</ele>
        <time>2022-02-02T13:59:07Z</time>
      </trkpt>
      <trkpt lat="49.91845" lon="2.22937">
        <ele>19.3</ele>
        <time>2022-02-02T13:59:08Z</time>
      </trkpt>
      <trkpt lat="49.91844" lon="2.22936">
        <ele>19.3</ele>
        <time>2022-02-02T13:59:09Z</time>
      </trkpt>
      <trkpt lat="49.91843" lon="2.22935">
        <ele>19.3</ele>
        <time>2022-02-02T13:59:10Z</time>
      </trkpt>
      <trkpt lat="49.91843" lon="2.22934">
        <ele>19.3</ele>
        <time>2022-02-02T13:59:12Z</time>
      </trkpt>
      <trkpt lat="49.91842" lon="2.22933">
        <ele>19.3</ele>
        <time>2022-02-02T13:59:13Z</time>
      </trkpt>
      <trkpt lat="49.91841" lon="2.22931">
        <ele>19.3</ele>
        <time>2022-02-02T13:59:14Z</time>
      </trkpt>
      <trkpt lat="49.9184" lon="2.22931">
        <ele>19.3</ele>
        <time>2022-02-02T13:59:15Z</time>
      </trkpt>
      <trkpt lat="49.9184" lon="2.2293">
        <ele>19.3</ele>
        <time>2022-02-02T13:59:16Z</time>
      </trkpt>
      <trkpt lat="49.91839" lon="2.22929">
        <ele>19.3</ele>
        <time>2022-02-02T13:59:17Z</time>
      </trkpt>
      <trkpt lat="49.91838" lon="2.22929">
        <ele>19.3</ele>
        <time>2022-02-02T13:59:18Z</time>
      </trkpt>
      <trkpt lat="49.91837" lon="2.22928">
        <ele>19.3</ele>
        <time>2022-02-02T13:59:19Z</time>
      </trkpt>
      <trkpt lat="49.91836" lon="2.22927">
        <ele>19.2</ele>
        <time>2022-02-02T13:59:20Z</time>
      </trkpt>
      <trkpt lat="49.91834" lon="2.22926">
        <ele>19.2</ele>
        <time>2022-02-02T13:59:21Z</time>
      </trkpt>
      <trkpt lat="49.91833" lon="2.22926">
        <ele>19.2</ele>
        <time>2022-02-02T13:59:22Z</time>
      </trkpt>
      <trkpt lat="49.91831" lon="2.22926">
        <ele>19.2</ele>
        <time>2022-02-02T13:59:24Z</time>
      </trkpt>
      <trkpt lat="49.9183" lon="2.22925">
        <ele>19.2</ele>
        <time>2022-02-02T13:59:25Z</time>
      </trkpt>
      <trkpt lat="49.91829" lon="2.22924">
        <ele>19.1</ele>
        <time>2022-02-02T13:59:26Z</time>
      </trkpt>
      <trkpt lat="49.91828" lon="2.22924">
        <ele>19.1</ele>
        <time>2022-02-02T13:59:27Z</time>
      </trkpt>
      <trkpt lat="49.91827" lon="2.22923">
        <ele>19.1</ele>
        <time>2022-02-02T13:59:28Z</time>
      </trkpt>
      <trkpt lat="49.91826" lon="2.22923">
        <ele>19.1</ele>
        <time>2022-02-02T13:59:29Z</time>
      </trkpt>
      <trkpt lat="49.91824" lon="2.22923">
        <ele>19.1</ele>
        <time>2022-02-02T13:59:30Z</time>
      </trkpt>
      <trkpt lat="49.91821" lon="2.22922">
        <ele>18.9</ele>
        <time>2022-02-02T13:59:31Z</time>
      </trkpt>
      <trkpt lat="49.91821" lon="2.22922">
        <ele>18.9</ele>
        <time>2022-02-02T13:59:32Z</time>
      </trkpt>
      <trkpt lat="49.91819" lon="2.22922">
        <ele>18.8</ele>
        <time>2022-02-02T13:59:34Z</time>
      </trkpt>
      <trkpt lat="49.91817" lon="2.22922">
        <ele>18.8</ele>
        <time>2022-02-02T13:59:35Z</time>
      </trkpt>
      <trkpt lat="49.91815" lon="2.22921">
        <ele>18.7</ele>
        <time>2022-02-02T13:59:36Z</time>
      </trkpt>
      <trkpt lat="49.91813" lon="2.22921">
        <ele>18.6</ele>
        <time>2022-02-02T13:59:38Z</time>
      </trkpt>
      <trkpt lat="49.91812" lon="2.22921">
        <ele>18.5</ele>
        <time>2022-02-02T13:59:39Z</time>
      </trkpt>
      <trkpt lat="49.9181" lon="2.22921">
        <ele>18.4</ele>
        <time>2022-02-02T13:59:40Z</time>
      </trkpt>
      <trkpt lat="49.91807" lon="2.22921">
        <ele>18.3</ele>
        <time>2022-02-02T13:59:41Z</time>
      </trkpt>
      <trkpt lat="49.91806" lon="2.22921">
        <ele>18.3</ele>
        <time>2022-02-02T13:59:42Z</time>
      </trkpt>
      <trkpt lat="49.91804" lon="2.22921">
        <ele>18.2</ele>
        <time>2022-02-02T13:59:44Z</time>
      </trkpt>
      <trkpt lat="49.91803" lon="2.2292">
        <ele>18.2</ele>
        <time>2022-02-02T13:59:45Z</time>
      </trkpt>
      <trkpt lat="49.91801" lon="2.2292">
        <ele>18.1</ele>
        <time>2022-02-02T13:59:46Z</time>
      </trkpt>
      <trkpt lat="49.918" lon="2.2292">
        <ele>18.1</ele>
        <time>2022-02-02T13:59:47Z</time>
      </trkpt>
      <trkpt lat="49.91799" lon="2.22921">
        <ele>18</ele>
        <time>2022-02-02T13:59:48Z</time>
      </trkpt>
      <trkpt lat="49.91797" lon="2.22921">
        <ele>18</ele>
        <time>2022-02-02T13:59:49Z</time>
      </trkpt>
      <trkpt lat="49.91796" lon="2.22922">
        <ele>18</ele>
        <time>2022-02-02T13:59:50Z</time>
      </trkpt>
      <trkpt lat="49.91795" lon="2.22922">
        <ele>17.9</ele>
        <time>2022-02-02T13:59:51Z</time>
      </trkpt>
      <trkpt lat="49.91794" lon="2.22922">
        <ele>17.9</ele>
        <time>2022-02-02T13:59:52Z</time>
      </trkpt>
      <trkpt lat="49.91792" lon="2.22924">
        <ele>17.8</ele>
        <time>2022-02-02T13:59:53Z</time>
      </trkpt>
      <trkpt lat="49.91791" lon="2.22925">
        <ele>17.8</ele>
        <time>2022-02-02T13:59:54Z</time>
      </trkpt>
      <trkpt lat="49.9179" lon="2.22926">
        <ele>17.8</ele>
        <time>2022-02-02T13:59:56Z</time>
      </trkpt>
      <trkpt lat="49.91788" lon="2.22927">
        <ele>17.7</ele>
        <time>2022-02-02T13:59:57Z</time>
      </trkpt>
      <trkpt lat="49.91787" lon="2.22928">
        <ele>17.7</ele>
        <time>2022-02-02T13:59:58Z</time>
      </trkpt>
      <trkpt lat="49.91784" lon="2.2293">
        <ele>17.7</ele>
        <time>2022-02-02T13:59:59Z</time>
      </trkpt>
      <trkpt lat="49.91783" lon="2.22931">
        <ele>17.6</ele>
        <time>2022-02-02T14:00:01Z</time>
      </trkpt>
      <trkpt lat="49.91782" lon="2.22931">
        <ele>17.6</ele>
        <time>2022-02-02T14:00:02Z</time>
      </trkpt>
      <trkpt lat="49.91782" lon="2.22932">
        <ele>17.6</ele>
        <time>2022-02-02T14:00:03Z</time>
      </trkpt>
      <trkpt lat="49.91781" lon="2.22933">
        <ele>17.6</ele>
        <time>2022-02-02T14:00:04Z</time>
      </trkpt>
      <trkpt lat="49.9178" lon="2.22935">
        <ele>17.6</ele>
        <time>2022-02-02T14:00:05Z</time>
      </trkpt>
      <trkpt lat="49.9178" lon="2.22936">
        <ele>17.6</ele>
        <time>2022-02-02T14:00:06Z</time>
      </trkpt>
      <trkpt lat="49.91779" lon="2.22937">
        <ele>17.6</ele>
        <time>2022-02-02T14:00:07Z</time>
      </trkpt>
      <trkpt lat="49.91779" lon="2.22938">
        <ele>17.5</ele>
        <time>2022-02-02T14:00:08Z</time>
      </trkpt>
      <trkpt lat="49.91778" lon="2.22939">
        <ele>17.5</ele>
        <time>2022-02-02T14:00:09Z</time>
      </trkpt>
      <trkpt lat="49.91777" lon="2.2294">
        <ele>17.5</ele>
        <time>2022-02-02T14:00:10Z</time>
      </trkpt>
      <trkpt lat="49.91775" lon="2.22941">
        <ele>17.5</ele>
        <time>2022-02-02T14:00:11Z</time>
      </trkpt>
      <trkpt lat="49.91774" lon="2.22942">
        <ele>17.5</ele>
        <time>2022-02-02T14:00:12Z</time>
      </trkpt>
      <trkpt lat="49.91773" lon="2.22942">
        <ele>17.5</ele>
        <time>2022-02-02T14:00:13Z</time>
      </trkpt>
      <trkpt lat="49.91772" lon="2.22943">
        <ele>17.5</ele>
        <time>2022-02-02T14:00:14Z</time>
      </trkpt>
      <trkpt lat="49.91771" lon="2.22944">
        <ele>17.5</ele>
        <time>2022-02-02T14:00:16Z</time>
      </trkpt>
      <trkpt lat="49.91769" lon="2.22944">
        <ele>17.5</ele>
        <time>2022-02-02T14:00:17Z</time>
      </trkpt>
      <trkpt lat="49.91768" lon="2.22945">
        <ele>17.5</ele>
        <time>2022-02-02T14:00:18Z</time>
      </trkpt>
      <trkpt lat="49.91766" lon="2.22947">
        <ele>17.5</ele>
        <time>2022-02-02T14:00:19Z</time>
      </trkpt>
      <trkpt lat="49.91765" lon="2.22948">
        <ele>17.5</ele>
        <time>2022-02-02T14:00:20Z</time>
      </trkpt>
      <trkpt lat="49.91765" lon="2.22948">
        <ele>17.5</ele>
        <time>2022-02-02T14:00:21Z</time>
      </trkpt>
      <trkpt lat="49.91764" lon="2.22949">
        <ele>17.5</ele>
        <time>2022-02-02T14:00:22Z</time>
      </trkpt>
      <trkpt lat="49.91762" lon="2.22951">
        <ele>17.5</ele>
        <time>2022-02-02T14:00:23Z</time>
      </trkpt>
      <trkpt lat="49.91761" lon="2.22953">
        <ele>17.5</ele>
        <time>2022-02-02T14:00:24Z</time>
      </trkpt>
      <trkpt lat="49.9176" lon="2.22954">
        <ele>17.5</ele>
        <time>2022-02-02T14:00:25Z</time>
      </trkpt>
      <trkpt lat="49.91758" lon="2.22956">
        <ele>17.5</ele>
        <time>2022-02-02T14:00:27Z</time>
      </trkpt>
      <trkpt lat="49.91757" lon="2.22957">
        <ele>17.5</ele>
        <time>2022-02-02T14:00:28Z</time>
      </trkpt>
      <trkpt lat="49.91756" lon="2.22959">
        <ele>17.5</ele>
        <time>2022-02-02T14:00:29Z</time>
      </trkpt>
      <trkpt lat="49.91755" lon="2.2296">
        <ele>17.5</ele>
        <time>2022-02-02T14:00:30Z</time>
      </trkpt>
      <trkpt lat="49.91753" lon="2.22962">
        <ele>17.5</ele>
        <time>2022-02-02T14:00:31Z</time>
      </trkpt>
      <trkpt lat="49.91752" lon="2.22963">
        <ele>17.6</ele>
        <time>2022-02-02T14:00:32Z</time>
      </trkpt>
      <trkpt lat="49.91751" lon="2.22965">
        <ele>17.6</ele>
        <time>2022-02-02T14:00:33Z</time>
      </trkpt>
      <trkpt lat="49.91749" lon="2.22966">
        <ele>17.6</ele>
        <time>2022-02-02T14:00:34Z</time>
      </trkpt>
      <trkpt lat="49.91748" lon="2.22967">
        <ele>17.6</ele>
        <time>2022-02-02T14:00:35Z</time>
      </trkpt>
      <trkpt lat="49.91747" lon="2.22968">
        <ele>17.7</ele>
        <time>2022-02-02T14:00:36Z</time>
      </trkpt>
      <trkpt lat="49.91746" lon="2.22969">
        <ele>17.7</ele>
        <time>2022-02-02T14:00:37Z</time>
      </trkpt>
      <trkpt lat="49.91745" lon="2.2297">
        <ele>17.7</ele>
        <time>2022-02-02T14:00:38Z</time>
      </trkpt>
      <trkpt lat="49.91744" lon="2.22971">
        <ele>17.8</ele>
        <time>2022-02-02T14:00:40Z</time>
      </trkpt>
      <trkpt lat="49.91742" lon="2.22973">
        <ele>17.8</ele>
        <time>2022-02-02T14:00:41Z</time>
      </trkpt>
      <trkpt lat="49.91741" lon="2.22974">
        <ele>17.8</ele>
        <time>2022-02-02T14:00:42Z</time>
      </trkpt>
      <trkpt lat="49.9174" lon="2.22974">
        <ele>17.8</ele>
        <time>2022-02-02T14:00:43Z</time>
      </trkpt>
      <trkpt lat="49.91739" lon="2.22976">
        <ele>17.9</ele>
        <time>2022-02-02T14:00:44Z</time>
      </trkpt>
      <trkpt lat="49.91738" lon="2.22978">
        <ele>17.9</ele>
        <time>2022-02-02T14:00:45Z</time>
      </trkpt>
      <trkpt lat="49.91737" lon="2.22979">
        <ele>18</ele>
        <time>2022-02-02T14:00:47Z</time>
      </trkpt>
      <trkpt lat="49.91737" lon="2.22981">
        <ele>18</ele>
        <time>2022-02-02T14:00:48Z</time>
      </trkpt>
      <trkpt lat="49.91736" lon="2.22982">
        <ele>18</ele>
        <time>2022-02-02T14:00:49Z</time>
      </trkpt>
      <trkpt lat="49.91735" lon="2.22983">
        <ele>18.1</ele>
        <time>2022-02-02T14:00:50Z</time>
      </trkpt>
      <trkpt lat="49.91735" lon="2.22984">
        <ele>18.1</ele>
        <time>2022-02-02T14:00:51Z</time>
      </trkpt>
      <trkpt lat="49.91734" lon="2.22984">
        <ele>18.1</ele>
        <time>2022-02-02T14:00:52Z</time>
      </trkpt>
      <trkpt lat="49.91733" lon="2.22985">
        <ele>18.2</ele>
        <time>2022-02-02T14:00:53Z</time>
      </trkpt>
      <trkpt lat="49.91731" lon="2.22986">
        <ele>18.2</ele>
        <time>2022-02-02T14:00:54Z</time>
      </trkpt>
      <trkpt lat="49.9173" lon="2.22988">
        <ele>18.3</ele>
        <time>2022-02-02T14:00:55Z</time>
      </trkpt>
      <trkpt lat="49.91729" lon="2.22989">
        <ele>18.3</ele>
        <time>2022-02-02T14:00:56Z</time>
      </trkpt>
      <trkpt lat="49.91727" lon="2.2299">
        <ele>18.4</ele>
        <time>2022-02-02T14:00:58Z</time>
      </trkpt>
      <trkpt lat="49.91726" lon="2.2299">
        <ele>18.4</ele>
        <time>2022-02-02T14:00:59Z</time>
      </trkpt>
      <trkpt lat="49.91725" lon="2.2299">
        <ele>18.4</ele>
        <time>2022-02-02T14:01:00Z</time>
      </trkpt>
      <trkpt lat="49.91724" lon="2.22991">
        <ele>18.5</ele>
        <time>2022-02-02T14:01:01Z</time>
      </trkpt>
      <trkpt lat="49.91723" lon="2.22992">
        <ele>18.5</ele>
        <time>2022-02-02T14:01:02Z</time>
      </trkpt>
      <trkpt lat="49.91722" lon="2.22992">
        <ele>18.5</ele>
        <time>2022-02-02T14:01:03Z</time>
      </trkpt>
      <trkpt lat="49.91721" lon="2.22993">
        <ele>18.6</ele>
        <time>2022-02-02T14:01:04Z</time>
      </trkpt>
      <trkpt lat="49.9172" lon="2.22993">
        <ele>18.6</ele>
        <time>2022-02-02T14:01:05Z</time>
      </trkpt>
      <trkpt lat="49.91718" lon="2.22994">
        <ele>18.7</ele>
        <time>2022-02-02T14:01:07Z</time>
      </trkpt>
      <trkpt lat="49.91717" lon="2.22994">
        <ele>18.7</ele>
        <time>2022-02-02T14:01:08Z</time>
      </trkpt>
      <trkpt lat="49.91716" lon="2.22994">
        <ele>18.7</ele>
        <time>2022-02-02T14:01:09Z</time>
      </trkpt>
      <trkpt lat="49.91714" lon="2.22993">
        <ele>18.8</ele>
        <time>2022-02-02T14:01:10Z</time>
      </trkpt>
      <trkpt lat="49.91713" lon="2.22993">
        <ele>18.8</ele>
        <time>2022-02-02T14:01:11Z</time>
      </trkpt>
      <trkpt lat="49.91711" lon="2.22992">
        <ele>18.9</ele>
        <time>2022-02-02T14:01:12Z</time>
      </trkpt>
      <trkpt lat="49.9171" lon="2.22992">
        <ele>18.9</ele>
        <time>2022-02-02T14:01:13Z</time>
      </trkpt>
      <trkpt lat="49.91708" lon="2.2299">
        <ele>19</ele>
        <time>2022-02-02T14:01:14Z</time>
      </trkpt>
      <trkpt lat="49.91707" lon="2.2299">
        <ele>19</ele>
        <time>2022-02-02T14:01:16Z</time>
      </trkpt>
      <trkpt lat="49.91707" lon="2.22989">
        <ele>19</ele>
        <time>2022-02-02T14:01:17Z</time>
      </trkpt>
      <trkpt lat="49.91705" lon="2.22988">
        <ele>19.1</ele>
        <time>2022-02-02T14:01:18Z</time>
      </trkpt>
      <trkpt lat="49.91704" lon="2.22988">
        <ele>19.1</ele>
        <time>2022-02-02T14:01:19Z</time>
      </trkpt>
      <trkpt lat="49.91703" lon="2.22988">
        <ele>19.1</ele>
        <time>2022-02-02T14:01:20Z</time>
      </trkpt>
      <trkpt lat="49.91702" lon="2.22988">
        <ele>19.1</ele>
        <time>2022-02-02T14:01:21Z</time>
      </trkpt>
      <trkpt lat="49.91701" lon="2.22988">
        <ele>19.2</ele>
        <time>2022-02-02T14:01:22Z</time>
      </trkpt>
      <trkpt lat="49.91699" lon="2.22988">
        <ele>19.2</ele>
        <time>2022-02-02T14:01:23Z</time>
      </trkpt>
      <trkpt lat="49.91698" lon="2.2299">
        <ele>19.3</ele>
        <time>2022-02-02T14:01:24Z</time>
      </trkpt>
      <trkpt lat="49.91697" lon="2.22991">
        <ele>19.3</ele>
        <time>2022-02-02T14:01:26Z</time>
      </trkpt>
      <trkpt lat="49.91696" lon="2.22992">
        <ele>19.3</ele>
        <time>2022-02-02T14:01:27Z</time>
      </trkpt>
      <trkpt lat="49.91695" lon="2.22993">
        <ele>19.4</ele>
        <time>2022-02-02T14:01:28Z</time>
      </trkpt>
      <trkpt lat="49.91694" lon="2.22995">
        <ele>19.4</ele>
        <time>2022-02-02T14:01:29Z</time>
      </trkpt>
      <trkpt lat="49.91693" lon="2.22997">
        <ele>19.4</ele>
        <time>2022-02-02T14:01:30Z</time>
      </trkpt>
      <trkpt lat="49.91691" lon="2.22998">
        <ele>19.5</ele>
        <time>2022-02-02T14:01:31Z</time>
      </trkpt>
      <trkpt lat="49.9169" lon="2.22999">
        <ele>19.5</ele>
        <time>2022-02-02T14:01:32Z</time>
      </trkpt>
      <trkpt lat="49.91688" lon="2.23">
        <ele>19.6</ele>
        <time>2022-02-02T14:01:33Z</time>
      </trkpt>
      <trkpt lat="49.91687" lon="2.23001">
        <ele>19.6</ele>
        <time>2022-02-02T14:01:34Z</time>
      </trkpt>
      <trkpt lat="49.91686" lon="2.23001">
        <ele>19.7</ele>
        <time>2022-02-02T14:01:35Z</time>
      </trkpt>
      <trkpt lat="49.91683" lon="2.23002">
        <ele>19.7</ele>
        <time>2022-02-02T14:01:37Z</time>
      </trkpt>
      <trkpt lat="49.91683" lon="2.23002">
        <ele>19.7</ele>
        <time>2022-02-02T14:01:38Z</time>
      </trkpt>
      <trkpt lat="49.91682" lon="2.23002">
        <ele>19.8</ele>
        <time>2022-02-02T14:01:39Z</time>
      </trkpt>
      <trkpt lat="49.91681" lon="2.23001">
        <ele>19.8</ele>
        <time>2022-02-02T14:01:40Z</time>
      </trkpt>
      <trkpt lat="49.9168" lon="2.23001">
        <ele>19.8</ele>
        <time>2022-02-02T14:01:41Z</time>
      </trkpt>
      <trkpt lat="49.91678" lon="2.23">
        <ele>19.9</ele>
        <time>2022-02-02T14:01:42Z</time>
      </trkpt>
      <trkpt lat="49.91676" lon="2.22999">
        <ele>19.9</ele>
        <time>2022-02-02T14:01:43Z</time>
      </trkpt>
      <trkpt lat="49.91676" lon="2.22998">
        <ele>20</ele>
        <time>2022-02-02T14:01:44Z</time>
      </trkpt>
      <trkpt lat="49.91675" lon="2.22998">
        <ele>20</ele>
        <time>2022-02-02T14:01:45Z</time>
      </trkpt>
      <trkpt lat="49.91674" lon="2.22997">
        <ele>20</ele>
        <time>2022-02-02T14:01:47Z</time>
      </trkpt>
      <trkpt lat="49.91673" lon="2.22996">
        <ele>20.1</ele>
        <time>2022-02-02T14:01:48Z</time>
      </trkpt>
      <trkpt lat="49.91673" lon="2.22995">
        <ele>20.1</ele>
        <time>2022-02-02T14:01:49Z</time>
      </trkpt>
      <trkpt lat="49.91672" lon="2.22995">
        <ele>20.1</ele>
        <time>2022-02-02T14:01:50Z</time>
      </trkpt>
      <trkpt lat="49.91672" lon="2.22994">
        <ele>20.1</ele>
        <time>2022-02-02T14:01:51Z</time>
      </trkpt>
      <trkpt lat="49.91671" lon="2.22994">
        <ele>20.2</ele>
        <time>2022-02-02T14:01:52Z</time>
      </trkpt>
      <trkpt lat="49.9167" lon="2.22993">
        <ele>20.2</ele>
        <time>2022-02-02T14:01:53Z</time>
      </trkpt>
      <trkpt lat="49.91668" lon="2.22993">
        <ele>20.3</ele>
        <time>2022-02-02T14:01:55Z</time>
      </trkpt>
      <trkpt lat="49.91667" lon="2.22993">
        <ele>20.3</ele>
        <time>2022-02-02T14:01:56Z</time>
      </trkpt>
      <trkpt lat="49.91666" lon="2.22993">
        <ele>20.4</ele>
        <time>2022-02-02T14:01:57Z</time>
      </trkpt>
      <trkpt lat="49.91665" lon="2.22992">
        <ele>20.4</ele>
        <time>2022-02-02T14:01:58Z</time>
      </trkpt>
      <trkpt lat="49.91663" lon="2.22991">
        <ele>20.5</ele>
        <time>2022-02-02T14:01:59Z</time>
      </trkpt>
      <trkpt lat="49.91661" lon="2.2299">
        <ele>20.6</ele>
        <time>2022-02-02T14:02:00Z</time>
      </trkpt>
      <trkpt lat="49.9166" lon="2.2299">
        <ele>20.6</ele>
        <time>2022-02-02T14:02:01Z</time>
      </trkpt>
      <trkpt lat="49.9166" lon="2.22989">
        <ele>20.6</ele>
        <time>2022-02-02T14:02:02Z</time>
      </trkpt>
      <trkpt lat="49.91658" lon="2.22988">
        <ele>20.7</ele>
        <time>2022-02-02T14:02:03Z</time>
      </trkpt>
      <trkpt lat="49.91657" lon="2.22987">
        <ele>20.8</ele>
        <time>2022-02-02T14:02:05Z</time>
      </trkpt>
      <trkpt lat="49.91656" lon="2.22987">
        <ele>20.8</ele>
        <time>2022-02-02T14:02:06Z</time>
      </trkpt>
      <trkpt lat="49.91655" lon="2.22985">
        <ele>20.8</ele>
        <time>2022-02-02T14:02:07Z</time>
      </trkpt>
      <trkpt lat="49.91654" lon="2.22983">
        <ele>20.9</ele>
        <time>2022-02-02T14:02:08Z</time>
      </trkpt>
      <trkpt lat="49.91653" lon="2.22982">
        <ele>21</ele>
        <time>2022-02-02T14:02:09Z</time>
      </trkpt>
      <trkpt lat="49.91652" lon="2.2298">
        <ele>21</ele>
        <time>2022-02-02T14:02:10Z</time>
      </trkpt>
      <trkpt lat="49.91651" lon="2.22979">
        <ele>21.1</ele>
        <time>2022-02-02T14:02:11Z</time>
      </trkpt>
      <trkpt lat="49.9165" lon="2.22979">
        <ele>21.2</ele>
        <time>2022-02-02T14:02:12Z</time>
      </trkpt>
      <trkpt lat="49.91649" lon="2.22978">
        <ele>21.2</ele>
        <time>2022-02-02T14:02:13Z</time>
      </trkpt>
      <trkpt lat="49.91648" lon="2.22977">
        <ele>21.2</ele>
        <time>2022-02-02T14:02:15Z</time>
      </trkpt>
      <trkpt lat="49.91647" lon="2.22976">
        <ele>21.3</ele>
        <time>2022-02-02T14:02:16Z</time>
      </trkpt>
      <trkpt lat="49.91646" lon="2.22975">
        <ele>21.3</ele>
        <time>2022-02-02T14:02:17Z</time>
      </trkpt>
      <trkpt lat="49.91645" lon="2.22975">
        <ele>21.4</ele>
        <time>2022-02-02T14:02:18Z</time>
      </trkpt>
      <trkpt lat="49.91644" lon="2.22974">
        <ele>21.4</ele>
        <time>2022-02-02T14:02:19Z</time>
      </trkpt>
      <trkpt lat="49.91642" lon="2.22972">
        <ele>21.5</ele>
        <time>2022-02-02T14:02:20Z</time>
      </trkpt>
      <trkpt lat="49.91641" lon="2.22972">
        <ele>21.6</ele>
        <time>2022-02-02T14:02:21Z</time>
      </trkpt>
      <trkpt lat="49.91641" lon="2.22971">
        <ele>21.6</ele>
        <time>2022-02-02T14:02:22Z</time>
      </trkpt>
      <trkpt lat="49.91639" lon="2.22969">
        <ele>21.7</ele>
        <time>2022-02-02T14:02:23Z</time>
      </trkpt>
      <trkpt lat="49.91639" lon="2.22968">
        <ele>21.7</ele>
        <time>2022-02-02T14:02:25Z</time>
      </trkpt>
      <trkpt lat="49.91639" lon="2.22967">
        <ele>21.7</ele>
        <time>2022-02-02T14:02:26Z</time>
      </trkpt>
      <trkpt lat="49.91638" lon="2.22967">
        <ele>21.8</ele>
        <time>2022-02-02T14:02:27Z</time>
      </trkpt>
      <trkpt lat="49.91637" lon="2.22965">
        <ele>21.9</ele>
        <time>2022-02-02T14:02:28Z</time>
      </trkpt>
      <trkpt lat="49.91636" lon="2.22964">
        <ele>21.9</ele>
        <time>2022-02-02T14:02:29Z</time>
      </trkpt>
      <trkpt lat="49.91635" lon="2.22963">
        <ele>21.9</ele>
        <time>2022-02-02T14:02:30Z</time>
      </trkpt>
      <trkpt lat="49.91634" lon="2.22962">
        <ele>22</ele>
        <time>2022-02-02T14:02:31Z</time>
      </trkpt>
      <trkpt lat="49.91633" lon="2.22961">
        <ele>22</ele>
        <time>2022-02-02T14:02:32Z</time>
      </trkpt>
      <trkpt lat="49.91632" lon="2.2296">
        <ele>22.1</ele>
        <time>2022-02-02T14:02:33Z</time>
      </trkpt>
      <trkpt lat="49.9163" lon="2.22959">
        <ele>22.2</ele>
        <time>2022-02-02T14:02:35Z</time>
      </trkpt>
      <trkpt lat="49.91629" lon="2.22959">
        <ele>22.2</ele>
        <time>2022-02-02T14:02:36Z</time>
      </trkpt>
      <trkpt lat="49.91628" lon="2.22958">
        <ele>22.3</ele>
        <time>2022-02-02T14:02:37Z</time>
      </trkpt>
      <trkpt lat="49.91627" lon="2.22958">
        <ele>22.3</ele>
        <time>2022-02-02T14:02:38Z</time>
      </trkpt>
      <trkpt lat="49.91626" lon="2.22958">
        <ele>22.4</ele>
        <time>2022-02-02T14:02:39Z</time>
      </trkpt>
      <trkpt lat="49.91625" lon="2.22957">
        <ele>22.4</ele>
        <time>2022-02-02T14:02:40Z</time>
      </trkpt>
      <trkpt lat="49.91624" lon="2.22957">
        <ele>22.5</ele>
        <time>2022-02-02T14:02:41Z</time>
      </trkpt>
      <trkpt lat="49.91622" lon="2.22956">
        <ele>22.5</ele>
        <time>2022-02-02T14:02:43Z</time>
      </trkpt>
      <trkpt lat="49.91621" lon="2.22955">
        <ele>22.6</ele>
        <time>2022-02-02T14:02:44Z</time>
      </trkpt>
      <trkpt lat="49.9162" lon="2.22955">
        <ele>22.6</ele>
        <time>2022-02-02T14:02:45Z</time>
      </trkpt>
      <trkpt lat="49.91619" lon="2.22955">
        <ele>22.7</ele>
        <time>2022-02-02T14:02:46Z</time>
      </trkpt>
      <trkpt lat="49.91618" lon="2.22954">
        <ele>22.7</ele>
        <time>2022-02-02T14:02:47Z</time>
      </trkpt>
      <trkpt lat="49.91617" lon="2.22953">
        <ele>22.8</ele>
        <time>2022-02-02T14:02:48Z</time>
      </trkpt>
      <trkpt lat="49.91615" lon="2.22953">
        <ele>22.9</ele>
        <time>2022-02-02T14:02:49Z</time>
      </trkpt>
      <trkpt lat="49.91612" lon="2.22952">
        <ele>23</ele>
        <time>2022-02-02T14:02:51Z</time>
      </trkpt>
      <trkpt lat="49.91611" lon="2.22951">
        <ele>23.1</ele>
        <time>2022-02-02T14:02:52Z</time>
      </trkpt>
      <trkpt lat="49.9161" lon="2.22951">
        <ele>23.1</ele>
        <time>2022-02-02T14:02:53Z</time>
      </trkpt>
      <trkpt lat="49.91609" lon="2.22951">
        <ele>23.2</ele>
        <time>2022-02-02T14:02:54Z</time>
      </trkpt>
      <trkpt lat="49.91608" lon="2.2295">
        <ele>23.2</ele>
        <time>2022-02-02T14:02:55Z</time>
      </trkpt>
      <trkpt lat="49.91607" lon="2.22949">
        <ele>23.3</ele>
        <time>2022-02-02T14:02:56Z</time>
      </trkpt>
      <trkpt lat="49.91606" lon="2.22949">
        <ele>23.4</ele>
        <time>2022-02-02T14:02:57Z</time>
      </trkpt>
      <trkpt lat="49.91605" lon="2.22948">
        <ele>23.4</ele>
        <time>2022-02-02T14:02:59Z</time>
      </trkpt>
      <trkpt lat="49.91604" lon="2.22947">
        <ele>23.5</ele>
        <time>2022-02-02T14:03:00Z</time>
      </trkpt>
      <trkpt lat="49.91603" lon="2.22947">
        <ele>23.5</ele>
        <time>2022-02-02T14:03:01Z</time>
      </trkpt>
      <trkpt lat="49.91602" lon="2.22947">
        <ele>23.6</ele>
        <time>2022-02-02T14:03:02Z</time>
      </trkpt>
      <trkpt lat="49.91601" lon="2.22946">
        <ele>23.7</ele>
        <time>2022-02-02T14:03:03Z</time>
      </trkpt>
      <trkpt lat="49.916" lon="2.22946">
        <ele>23.7</ele>
        <time>2022-02-02T14:03:04Z</time>
      </trkpt>
      <trkpt lat="49.91599" lon="2.22945">
        <ele>23.8</ele>
        <time>2022-02-02T14:03:05Z</time>
      </trkpt>
      <trkpt lat="49.91597" lon="2.22945">
        <ele>23.8</ele>
        <time>2022-02-02T14:03:06Z</time>
      </trkpt>
      <trkpt lat="49.91596" lon="2.22944">
        <ele>23.9</ele>
        <time>2022-02-02T14:03:07Z</time>
      </trkpt>
      <trkpt lat="49.91595" lon="2.22943">
        <ele>24</ele>
        <time>2022-02-02T14:03:08Z</time>
      </trkpt>
      <trkpt lat="49.91594" lon="2.22942">
        <ele>24.1</ele>
        <time>2022-02-02T14:03:09Z</time>
      </trkpt>
      <trkpt lat="49.91592" lon="2.22941">
        <ele>24.2</ele>
        <time>2022-02-02T14:03:11Z</time>
      </trkpt>
      <trkpt lat="49.91591" lon="2.2294">
        <ele>24.2</ele>
        <time>2022-02-02T14:03:12Z</time>
      </trkpt>
      <trkpt lat="49.9159" lon="2.22939">
        <ele>24.3</ele>
        <time>2022-02-02T14:03:13Z</time>
      </trkpt>
      <trkpt lat="49.91589" lon="2.22938">
        <ele>24.4</ele>
        <time>2022-02-02T14:03:14Z</time>
      </trkpt>
      <trkpt lat="49.91588" lon="2.22938">
        <ele>24.4</ele>
        <time>2022-02-02T14:03:15Z</time>
      </trkpt>
      <trkpt lat="49.91586" lon="2.22937">
        <ele>24.5</ele>
        <time>2022-02-02T14:03:16Z</time>
      </trkpt>
      <trkpt lat="49.91585" lon="2.22936">
        <ele>24.6</ele>
        <time>2022-02-02T14:03:17Z</time>
      </trkpt>
      <trkpt lat="49.91584" lon="2.22936">
        <ele>24.6</ele>
        <time>2022-02-02T14:03:18Z</time>
      </trkpt>
      <trkpt lat="49.91582" lon="2.22935">
        <ele>24.8</ele>
        <time>2022-02-02T14:03:20Z</time>
      </trkpt>
      <trkpt lat="49.91582" lon="2.22934">
        <ele>24.8</ele>
        <time>2022-02-02T14:03:21Z</time>
      </trkpt>
      <trkpt lat="49.91581" lon="2.22934">
        <ele>24.8</ele>
        <time>2022-02-02T14:03:22Z</time>
      </trkpt>
      <trkpt lat="49.9158" lon="2.22933">
        <ele>24.9</ele>
        <time>2022-02-02T14:03:23Z</time>
      </trkpt>
      <trkpt lat="49.91579" lon="2.22932">
        <ele>25</ele>
        <time>2022-02-02T14:03:24Z</time>
      </trkpt>
      <trkpt lat="49.91578" lon="2.22931">
        <ele>25</ele>
        <time>2022-02-02T14:03:25Z</time>
      </trkpt>
      <trkpt lat="49.91576" lon="2.2293">
        <ele>25.2</ele>
        <time>2022-02-02T14:03:27Z</time>
      </trkpt>
      <trkpt lat="49.91575" lon="2.2293">
        <ele>25.2</ele>
        <time>2022-02-02T14:03:28Z</time>
      </trkpt>
      <trkpt lat="49.91574" lon="2.22929">
        <ele>25.3</ele>
        <time>2022-02-02T14:03:29Z</time>
      </trkpt>
      <trkpt lat="49.91573" lon="2.22929">
        <ele>25.3</ele>
        <time>2022-02-02T14:03:30Z</time>
      </trkpt>
      <trkpt lat="49.91572" lon="2.22929">
        <ele>25.4</ele>
        <time>2022-02-02T14:03:31Z</time>
      </trkpt>
      <trkpt lat="49.91571" lon="2.22928">
        <ele>25.4</ele>
        <time>2022-02-02T14:03:32Z</time>
      </trkpt>
      <trkpt lat="49.9157" lon="2.22928">
        <ele>25.5</ele>
        <time>2022-02-02T14:03:34Z</time>
      </trkpt>
      <trkpt lat="49.91569" lon="2.22927">
        <ele>25.6</ele>
        <time>2022-02-02T14:03:35Z</time>
      </trkpt>
      <trkpt lat="49.91568" lon="2.22926">
        <ele>25.7</ele>
        <time>2022-02-02T14:03:36Z</time>
      </trkpt>
      <trkpt lat="49.91567" lon="2.22926">
        <ele>25.7</ele>
        <time>2022-02-02T14:03:37Z</time>
      </trkpt>
      <trkpt lat="49.91566" lon="2.22925">
        <ele>25.8</ele>
        <time>2022-02-02T14:03:38Z</time>
      </trkpt>
      <trkpt lat="49.91565" lon="2.22924">
        <ele>25.9</ele>
        <time>2022-02-02T14:03:39Z</time>
      </trkpt>
      <trkpt lat="49.91564" lon="2.22924">
        <ele>25.9</ele>
        <time>2022-02-02T14:03:40Z</time>
      </trkpt>
      <trkpt lat="49.91563" lon="2.22924">
        <ele>26</ele>
        <time>2022-02-02T14:03:41Z</time>
      </trkpt>
      <trkpt lat="49.91562" lon="2.22923">
        <ele>26.1</ele>
        <time>2022-02-02T14:03:42Z</time>
      </trkpt>
      <trkpt lat="49.91561" lon="2.22923">
        <ele>26.1</ele>
        <time>2022-02-02T14:03:44Z</time>
      </trkpt>
      <trkpt lat="49.9156" lon="2.22922">
        <ele>26.2</ele>
        <time>2022-02-02T14:03:45Z</time>
      </trkpt>
      <trkpt lat="49.9156" lon="2.2292">
        <ele>26.3</ele>
        <time>2022-02-02T14:03:47Z</time>
      </trkpt>
      <trkpt lat="49.91561" lon="2.22916">
        <ele>26.5</ele>
        <time>2022-02-02T14:03:48Z</time>
      </trkpt>
      <trkpt lat="49.91561" lon="2.22915">
        <ele>26.6</ele>
        <time>2022-02-02T14:03:50Z</time>
      </trkpt>
      <trkpt lat="49.91561" lon="2.22914">
        <ele>26.6</ele>
        <time>2022-02-02T14:03:51Z</time>
      </trkpt>
      <trkpt lat="49.91562" lon="2.22913">
        <ele>26.7</ele>
        <time>2022-02-02T14:03:53Z</time>
      </trkpt>
      <trkpt lat="49.91563" lon="2.22912">
        <ele>26.8</ele>
        <time>2022-02-02T14:03:54Z</time>
      </trkpt>
      <trkpt lat="49.91563" lon="2.2291">
        <ele>26.9</ele>
        <time>2022-02-02T14:03:55Z</time>
      </trkpt>
      <trkpt lat="49.91563" lon="2.22909">
        <ele>27</ele>
        <time>2022-02-02T14:03:57Z</time>
      </trkpt>
      <trkpt lat="49.91563" lon="2.22909">
        <ele>27</ele>
        <time>2022-02-02T14:03:58Z</time>
      </trkpt>
      <trkpt lat="49.91564" lon="2.22909">
        <ele>27</ele>
        <time>2022-02-02T14:04:00Z</time>
      </trkpt>
      <trkpt lat="49.91564" lon="2.22909">
        <ele>27</ele>
        <time>2022-02-02T14:04:01Z</time>
      </trkpt>
      <trkpt lat="49.91564" lon="2.2291">
        <ele>27</ele>
        <time>2022-02-02T14:04:02Z</time>
      </trkpt>
      <trkpt lat="49.91564" lon="2.2291">
        <ele>27</ele>
        <time>2022-02-02T14:04:03Z</time>
      </trkpt>
      <trkpt lat="49.91564" lon="2.2291">
        <ele>27</ele>
        <time>2022-02-02T14:04:04Z</time>
      </trkpt>
      <trkpt lat="49.91564" lon="2.2291">
        <ele>27</ele>
        <time>2022-02-02T14:04:05Z</time>
      </trkpt>
      <trkpt lat="49.91564" lon="2.2291">
        <ele>27</ele>
        <time>2022-02-02T14:04:06Z</time>
      </trkpt>
      <trkpt lat="49.91564" lon="2.2291">
        <ele>27</ele>
        <time>2022-02-02T14:04:07Z</time>
      </trkpt>
      <trkpt lat="49.91564" lon="2.2291">
        <ele>27</ele>
        <time>2022-02-02T14:04:08Z</time>
      </trkpt>
      <trkpt lat="49.91564" lon="2.2291">
        <ele>27</ele>
        <time>2022-02-02T14:04:09Z</time>
      </trkpt>
      <trkpt lat="49.91564" lon="2.2291">
        <ele>27</ele>
        <time>2022-02-02T14:04:10Z</time>
      </trkpt>
      <trkpt lat="49.91564" lon="2.2291">
        <ele>27.1</ele>
        <time>2022-02-02T14:04:11Z</time>
      </trkpt>
      <trkpt lat="49.91564" lon="2.2291">
        <ele>27.1</ele>
        <time>2022-02-02T14:04:12Z</time>
      </trkpt>
      <trkpt lat="49.91564" lon="2.2291">
        <ele>27.1</ele>
        <time>2022-02-02T14:04:13Z</time>
      </trkpt>
      <trkpt lat="49.91565" lon="2.2291">
        <ele>27.1</ele>
        <time>2022-02-02T14:04:14Z</time>
      </trkpt>
      <trkpt lat="49.91565" lon="2.22911">
        <ele>27.1</ele>
        <time>2022-02-02T14:04:15Z</time>
      </trkpt>
      <trkpt lat="49.91565" lon="2.22911">
        <ele>27.1</ele>
        <time>2022-02-02T14:04:16Z</time>
      </trkpt>
      <trkpt lat="49.91565" lon="2.22911">
        <ele>27.1</ele>
        <time>2022-02-02T14:04:17Z</time>
      </trkpt>
      <trkpt lat="49.91565" lon="2.22911">
        <ele>27.1</ele>
        <time>2022-02-02T14:04:18Z</time>
      </trkpt>
      <trkpt lat="49.91565" lon="2.22911">
        <ele>27.1</ele>
        <time>2022-02-02T14:04:19Z</time>
      </trkpt>
      <trkpt lat="49.91565" lon="2.22911">
        <ele>27.1</ele>
        <time>2022-02-02T14:04:20Z</time>
      </trkpt>
      <trkpt lat="49.91565" lon="2.22911">
        <ele>27.1</ele>
        <time>2022-02-02T14:04:21Z</time>
      </trkpt>
      <trkpt lat="49.91565" lon="2.22911">
        <ele>27.1</ele>
        <time>2022-02-02T14:04:22Z</time>
      </trkpt>
      <trkpt lat="49.91565" lon="2.22911">
        <ele>27.1</ele>
        <time>2022-02-02T14:04:23Z</time>
      </trkpt>
      <trkpt lat="49.91565" lon="2.22911">
        <ele>27.2</ele>
        <time>2022-02-02T14:04:24Z</time>
      </trkpt>
      <trkpt lat="49.91565" lon="2.22911">
        <ele>27.2</ele>
        <time>2022-02-02T14:04:25Z</time>
      </trkpt>
      <trkpt lat="49.91565" lon="2.22911">
        <ele>27.2</ele>
        <time>2022-02-02T14:04:26Z</time>
      </trkpt>
      <trkpt lat="49.91565" lon="2.22911">
        <ele>27.2</ele>
        <time>2022-02-02T14:04:27Z</time>
      </trkpt>
      <trkpt lat="49.91565" lon="2.22912">
        <ele>27.2</ele>
        <time>2022-02-02T14:04:28Z</time>
      </trkpt>
      <trkpt lat="49.91566" lon="2.22912">
        <ele>27.2</ele>
        <time>2022-02-02T14:04:29Z</time>
      </trkpt>
      <trkpt lat="49.91566" lon="2.22912">
        <ele>27.2</ele>
        <time>2022-02-02T14:04:30Z</time>
      </trkpt>
      <trkpt lat="49.91566" lon="2.22912">
        <ele>27.2</ele>
        <time>2022-02-02T14:04:31Z</time>
      </trkpt>
      <trkpt lat="49.91566" lon="2.22912">
        <ele>27.2</ele>
        <time>2022-02-02T14:04:32Z</time>
      </trkpt>
      <trkpt lat="49.91566" lon="2.22912">
        <ele>27.2</ele>
        <time>2022-02-02T14:04:33Z</time>
      </trkpt>
      <trkpt lat="49.91566" lon="2.22912">
        <ele>27.2</ele>
        <time>2022-02-02T14:04:34Z</time>
      </trkpt>
      <trkpt lat="49.91566" lon="2.22912">
        <ele>27.2</ele>
        <time>2022-02-02T14:04:35Z</time>
      </trkpt>
      <trkpt lat="49.91566" lon="2.22912">
        <ele>27.2</ele>
        <time>2022-02-02T14:04:36Z</time>
      </trkpt>
      <trkpt lat="49.91566" lon="2.22912">
        <ele>27.3</ele>
        <time>2022-02-02T14:04:37Z</time>
      </trkpt>
      <trkpt lat="49.91566" lon="2.22912">
        <ele>27.3</ele>
        <time>2022-02-02T14:04:38Z</time>
      </trkpt>
      <trkpt lat="49.91566" lon="2.22912">
        <ele>27.3</ele>
        <time>2022-02-02T14:04:39Z</time>
      </trkpt>
      <trkpt lat="49.91566" lon="2.22912">
        <ele>27.3</ele>
        <time>2022-02-02T14:04:40Z</time>
      </trkpt>
      <trkpt lat="49.91566" lon="2.22913">
        <ele>27.3</ele>
        <time>2022-02-02T14:04:41Z</time>
      </trkpt>
      <trkpt lat="49.91566" lon="2.22913">
        <ele>27.3</ele>
        <time>2022-02-02T14:04:42Z</time>
      </trkpt>
      <trkpt lat="49.91566" lon="2.22913">
        <ele>27.3</ele>
        <time>2022-02-02T14:04:43Z</time>
      </trkpt>
      <trkpt lat="49.91567" lon="2.22913">
        <ele>27.3</ele>
        <time>2022-02-02T14:04:44Z</time>
      </trkpt>
      <trkpt lat="49.91567" lon="2.22912">
        <ele>27.4</ele>
        <time>2022-02-02T14:04:45Z</time>
      </trkpt>
      <trkpt lat="49.91566" lon="2.22911">
        <ele>27.4</ele>
        <time>2022-02-02T14:04:46Z</time>
      </trkpt>
      <trkpt lat="49.91565" lon="2.22911">
        <ele>27.5</ele>
        <time>2022-02-02T14:04:47Z</time>
      </trkpt>
      <trkpt lat="49.91565" lon="2.22911">
        <ele>27.6</ele>
        <time>2022-02-02T14:04:48Z</time>
      </trkpt>
      <trkpt lat="49.91564" lon="2.22912">
        <ele>27.6</ele>
        <time>2022-02-02T14:04:49Z</time>
      </trkpt>
      <trkpt lat="49.91564" lon="2.22913">
        <ele>27.7</ele>
        <time>2022-02-02T14:04:51Z</time>
      </trkpt>
      <trkpt lat="49.91564" lon="2.22914">
        <ele>27.7</ele>
        <time>2022-02-02T14:04:52Z</time>
      </trkpt>
      <trkpt lat="49.91563" lon="2.22916">
        <ele>27.8</ele>
        <time>2022-02-02T14:04:53Z</time>
      </trkpt>
      <trkpt lat="49.91563" lon="2.22917">
        <ele>27.9</ele>
        <time>2022-02-02T14:04:54Z</time>
      </trkpt>
      <trkpt lat="49.91562" lon="2.22919">
        <ele>28</ele>
        <time>2022-02-02T14:04:55Z</time>
      </trkpt>
      <trkpt lat="49.91562" lon="2.22923">
        <ele>28.2</ele>
        <time>2022-02-02T14:04:57Z</time>
      </trkpt>
      <trkpt lat="49.91562" lon="2.22924">
        <ele>28.5</ele>
        <time>2022-02-02T14:04:58Z</time>
      </trkpt>
      <trkpt lat="49.91561" lon="2.22925">
        <ele>28.5</ele>
        <time>2022-02-02T14:04:59Z</time>
      </trkpt>
      <trkpt lat="49.91561" lon="2.22926">
        <ele>28.5</ele>
        <time>2022-02-02T14:05:00Z</time>
      </trkpt>
      <trkpt lat="49.9156" lon="2.22928">
        <ele>28.5</ele>
        <time>2022-02-02T14:05:01Z</time>
      </trkpt>
      <trkpt lat="49.9156" lon="2.2293">
        <ele>28.5</ele>
        <time>2022-02-02T14:05:02Z</time>
      </trkpt>
      <trkpt lat="49.9156" lon="2.22931">
        <ele>28.5</ele>
        <time>2022-02-02T14:05:04Z</time>
      </trkpt>
      <trkpt lat="49.91559" lon="2.22933">
        <ele>28.5</ele>
        <time>2022-02-02T14:05:05Z</time>
      </trkpt>
      <trkpt lat="49.91559" lon="2.22934">
        <ele>28.5</ele>
        <time>2022-02-02T14:05:06Z</time>
      </trkpt>
      <trkpt lat="49.91558" lon="2.22936">
        <ele>28.5</ele>
        <time>2022-02-02T14:05:07Z</time>
      </trkpt>
      <trkpt lat="49.91557" lon="2.22937">
        <ele>28.5</ele>
        <time>2022-02-02T14:05:08Z</time>
      </trkpt>
      <trkpt lat="49.91557" lon="2.22938">
        <ele>28.5</ele>
        <time>2022-02-02T14:05:09Z</time>
      </trkpt>
      <trkpt lat="49.91556" lon="2.2294">
        <ele>28.5</ele>
        <time>2022-02-02T14:05:10Z</time>
      </trkpt>
      <trkpt lat="49.91555" lon="2.22942">
        <ele>28.5</ele>
        <time>2022-02-02T14:05:12Z</time>
      </trkpt>
      <trkpt lat="49.91555" lon="2.22943">
        <ele>28.5</ele>
        <time>2022-02-02T14:05:13Z</time>
      </trkpt>
      <trkpt lat="49.91554" lon="2.22944">
        <ele>28.5</ele>
        <time>2022-02-02T14:05:14Z</time>
      </trkpt>
      <trkpt lat="49.91554" lon="2.22945">
        <ele>28.5</ele>
        <time>2022-02-02T14:05:15Z</time>
      </trkpt>
      <trkpt lat="49.91553" lon="2.22946">
        <ele>28.5</ele>
        <time>2022-02-02T14:05:17Z</time>
      </trkpt>
      <trkpt lat="49.91553" lon="2.22947">
        <ele>28.5</ele>
        <time>2022-02-02T14:05:18Z</time>
      </trkpt>
      <trkpt lat="49.91553" lon="2.22947">
        <ele>28.5</ele>
        <time>2022-02-02T14:05:19Z</time>
      </trkpt>
      <trkpt lat="49.91552" lon="2.22948">
        <ele>28.5</ele>
        <time>2022-02-02T14:05:20Z</time>
      </trkpt>
      <trkpt lat="49.91552" lon="2.22947">
        <ele>28.5</ele>
        <time>2022-02-02T14:05:21Z</time>
      </trkpt>
      <trkpt lat="49.91552" lon="2.22948">
        <ele>28.5</ele>
        <time>2022-02-02T14:05:22Z</time>
      </trkpt>
      <trkpt lat="49.91552" lon="2.22947">
        <ele>28.5</ele>
        <time>2022-02-02T14:05:23Z</time>
      </trkpt>
      <trkpt lat="49.91552" lon="2.22947">
        <ele>28.5</ele>
        <time>2022-02-02T14:05:24Z</time>
      </trkpt>
      <trkpt lat="49.91551" lon="2.22947">
        <ele>28.5</ele>
        <time>2022-02-02T14:05:25Z</time>
      </trkpt>
      <trkpt lat="49.91551" lon="2.22947">
        <ele>28.5</ele>
        <time>2022-02-02T14:05:26Z</time>
      </trkpt>
      <trkpt lat="49.91551" lon="2.22947">
        <ele>28.5</ele>
        <time>2022-02-02T14:05:27Z</time>
      </trkpt>
      <trkpt lat="49.91551" lon="2.22947">
        <ele>28.4</ele>
        <time>2022-02-02T14:05:28Z</time>
      </trkpt>
      <trkpt lat="49.91551" lon="2.22947">
        <ele>28.4</ele>
        <time>2022-02-02T14:05:29Z</time>
      </trkpt>
      <trkpt lat="49.91551" lon="2.22947">
        <ele>28.4</ele>
        <time>2022-02-02T14:05:30Z</time>
      </trkpt>
      <trkpt lat="49.91551" lon="2.22947">
        <ele>28.4</ele>
        <time>2022-02-02T14:05:31Z</time>
      </trkpt>
      <trkpt lat="49.91551" lon="2.22947">
        <ele>28.4</ele>
        <time>2022-02-02T14:05:32Z</time>
      </trkpt>
      <trkpt lat="49.91551" lon="2.22947">
        <ele>28.4</ele>
        <time>2022-02-02T14:05:33Z</time>
      </trkpt>
      <trkpt lat="49.91551" lon="2.22947">
        <ele>28.4</ele>
        <time>2022-02-02T14:05:34Z</time>
      </trkpt>
      <trkpt lat="49.91552" lon="2.22947">
        <ele>28.4</ele>
        <time>2022-02-02T14:05:35Z</time>
      </trkpt>
      <trkpt lat="49.91552" lon="2.22946">
        <ele>28.4</ele>
        <time>2022-02-02T14:05:36Z</time>
      </trkpt>
      <trkpt lat="49.91552" lon="2.22946">
        <ele>28.4</ele>
        <time>2022-02-02T14:05:37Z</time>
      </trkpt>
      <trkpt lat="49.91552" lon="2.22946">
        <ele>28.4</ele>
        <time>2022-02-02T14:05:38Z</time>
      </trkpt>
      <trkpt lat="49.91552" lon="2.22946">
        <ele>28.4</ele>
        <time>2022-02-02T14:05:39Z</time>
      </trkpt>
      <trkpt lat="49.91553" lon="2.22946">
        <ele>28.4</ele>
        <time>2022-02-02T14:05:40Z</time>
      </trkpt>
      <trkpt lat="49.91553" lon="2.22946">
        <ele>28.4</ele>
        <time>2022-02-02T14:05:41Z</time>
      </trkpt>
      <trkpt lat="49.91553" lon="2.22946">
        <ele>28.4</ele>
        <time>2022-02-02T14:05:42Z</time>
      </trkpt>
      <trkpt lat="49.91553" lon="2.22946">
        <ele>28.4</ele>
        <time>2022-02-02T14:05:43Z</time>
      </trkpt>
      <trkpt lat="49.91553" lon="2.22946">
        <ele>28.4</ele>
        <time>2022-02-02T14:05:44Z</time>
      </trkpt>
      <trkpt lat="49.91553" lon="2.22946">
        <ele>28.4</ele>
        <time>2022-02-02T14:05:45Z</time>
      </trkpt>
      <trkpt lat="49.91553" lon="2.22946">
        <ele>28.4</ele>
        <time>2022-02-02T14:05:46Z</time>
      </trkpt>
      <trkpt lat="49.91553" lon="2.22945">
        <ele>28.4</ele>
        <time>2022-02-02T14:05:47Z</time>
      </trkpt>
      <trkpt lat="49.91554" lon="2.22945">
        <ele>28.4</ele>
        <time>2022-02-02T14:05:48Z</time>
      </trkpt>
      <trkpt lat="49.91554" lon="2.22945">
        <ele>28.4</ele>
        <time>2022-02-02T14:05:49Z</time>
      </trkpt>
      <trkpt lat="49.91554" lon="2.22944">
        <ele>28.4</ele>
        <time>2022-02-02T14:05:50Z</time>
      </trkpt>
      <trkpt lat="49.91554" lon="2.22944">
        <ele>28.4</ele>
        <time>2022-02-02T14:05:51Z</time>
      </trkpt>
      <trkpt lat="49.91554" lon="2.22944">
        <ele>28.4</ele>
        <time>2022-02-02T14:05:52Z</time>
      </trkpt>
      <trkpt lat="49.91555" lon="2.22943">
        <ele>28.4</ele>
        <time>2022-02-02T14:05:53Z</time>
      </trkpt>
      <trkpt lat="49.91555" lon="2.22944">
        <ele>28.4</ele>
        <time>2022-02-02T14:05:54Z</time>
      </trkpt>
      <trkpt lat="49.91555" lon="2.22944">
        <ele>28.4</ele>
        <time>2022-02-02T14:05:55Z</time>
      </trkpt>
      <trkpt lat="49.91555" lon="2.22944">
        <ele>28.4</ele>
        <time>2022-02-02T14:05:56Z</time>
      </trkpt>
      <trkpt lat="49.91555" lon="2.22944">
        <ele>28.4</ele>
        <time>2022-02-02T14:05:57Z</time>
      </trkpt>
      <trkpt lat="49.91555" lon="2.22944">
        <ele>28.4</ele>
        <time>2022-02-02T14:05:58Z</time>
      </trkpt>
      <trkpt lat="49.91555" lon="2.22944">
        <ele>28.4</ele>
        <time>2022-02-02T14:05:59Z</time>
      </trkpt>
      <trkpt lat="49.91555" lon="2.22944">
        <ele>28.4</ele>
        <time>2022-02-02T14:06:00Z</time>
      </trkpt>
      <trkpt lat="49.91555" lon="2.22944">
        <ele>28.4</ele>
        <time>2022-02-02T14:06:01Z</time>
      </trkpt>
      <trkpt lat="49.91554" lon="2.22945">
        <ele>28.4</ele>
        <time>2022-02-02T14:06:02Z</time>
      </trkpt>
      <trkpt lat="49.91554" lon="2.22946">
        <ele>28.4</ele>
        <time>2022-02-02T14:06:03Z</time>
      </trkpt>
      <trkpt lat="49.91553" lon="2.22948">
        <ele>28.4</ele>
        <time>2022-02-02T14:06:04Z</time>
      </trkpt>
      <trkpt lat="49.91553" lon="2.22949">
        <ele>28.4</ele>
        <time>2022-02-02T14:06:05Z</time>
      </trkpt>
      <trkpt lat="49.91553" lon="2.22951">
        <ele>28.4</ele>
        <time>2022-02-02T14:06:06Z</time>
      </trkpt>
      <trkpt lat="49.91552" lon="2.22952">
        <ele>28.4</ele>
        <time>2022-02-02T14:06:07Z</time>
      </trkpt>
      <trkpt lat="49.91552" lon="2.22954">
        <ele>28.4</ele>
        <time>2022-02-02T14:06:09Z</time>
      </trkpt>
      <trkpt lat="49.91551" lon="2.22955">
        <ele>28.4</ele>
        <time>2022-02-02T14:06:10Z</time>
      </trkpt>
      <trkpt lat="49.91551" lon="2.22956">
        <ele>28.4</ele>
        <time>2022-02-02T14:06:11Z</time>
      </trkpt>
      <trkpt lat="49.9155" lon="2.22958">
        <ele>28.4</ele>
        <time>2022-02-02T14:06:12Z</time>
      </trkpt>
      <trkpt lat="49.91549" lon="2.2296">
        <ele>28.3</ele>
        <time>2022-02-02T14:06:13Z</time>
      </trkpt>
      <trkpt lat="49.91547" lon="2.22965">
        <ele>28.3</ele>
        <time>2022-02-02T14:06:14Z</time>
      </trkpt>
      <trkpt lat="49.91547" lon="2.22966">
        <ele>28.3</ele>
        <time>2022-02-02T14:06:15Z</time>
      </trkpt>
      <trkpt lat="49.91546" lon="2.22971">
        <ele>28.3</ele>
        <time>2022-02-02T14:06:17Z</time>
      </trkpt>
      <trkpt lat="49.91546" lon="2.22972">
        <ele>28.3</ele>
        <time>2022-02-02T14:06:18Z</time>
      </trkpt>
      <trkpt lat="49.91545" lon="2.22974">
        <ele>28.3</ele>
        <time>2022-02-02T14:06:19Z</time>
      </trkpt>
      <trkpt lat="49.91544" lon="2.22977">
        <ele>28.3</ele>
        <time>2022-02-02T14:06:20Z</time>
      </trkpt>
      <trkpt lat="49.91543" lon="2.22979">
        <ele>28.2</ele>
        <time>2022-02-02T14:06:21Z</time>
      </trkpt>
      <trkpt lat="49.91541" lon="2.22982">
        <ele>28.2</ele>
        <time>2022-02-02T14:06:23Z</time>
      </trkpt>
      <trkpt lat="49.9154" lon="2.22985">
        <ele>28.2</ele>
        <time>2022-02-02T14:06:24Z</time>
      </trkpt>
      <trkpt lat="49.9154" lon="2.22987">
        <ele>28.2</ele>
        <time>2022-02-02T14:06:25Z</time>
      </trkpt>
      <trkpt lat="49.91539" lon="2.22989">
        <ele>28.2</ele>
        <time>2022-02-02T14:06:26Z</time>
      </trkpt>
      <trkpt lat="49.91538" lon="2.2299">
        <ele>28.2</ele>
        <time>2022-02-02T14:06:27Z</time>
      </trkpt>
      <trkpt lat="49.91538" lon="2.22992">
        <ele>28.2</ele>
        <time>2022-02-02T14:06:28Z</time>
      </trkpt>
      <trkpt lat="49.91537" lon="2.22994">
        <ele>28.1</ele>
        <time>2022-02-02T14:06:29Z</time>
      </trkpt>
      <trkpt lat="49.91536" lon="2.22996">
        <ele>28.1</ele>
        <time>2022-02-02T14:06:30Z</time>
      </trkpt>
      <trkpt lat="49.91535" lon="2.22998">
        <ele>28.1</ele>
        <time>2022-02-02T14:06:31Z</time>
      </trkpt>
      <trkpt lat="49.91534" lon="2.23001">
        <ele>28.1</ele>
        <time>2022-02-02T14:06:33Z</time>
      </trkpt>
      <trkpt lat="49.91533" lon="2.23002">
        <ele>28.1</ele>
        <time>2022-02-02T14:06:34Z</time>
      </trkpt>
      <trkpt lat="49.91533" lon="2.23004">
        <ele>28.1</ele>
        <time>2022-02-02T14:06:35Z</time>
      </trkpt>
      <trkpt lat="49.91532" lon="2.23005">
        <ele>28.1</ele>
        <time>2022-02-02T14:06:36Z</time>
      </trkpt>
      <trkpt lat="49.91532" lon="2.23006">
        <ele>28.1</ele>
        <time>2022-02-02T14:06:37Z</time>
      </trkpt>
      <trkpt lat="49.91531" lon="2.23008">
        <ele>28.1</ele>
        <time>2022-02-02T14:06:38Z</time>
      </trkpt>
      <trkpt lat="49.9153" lon="2.2301">
        <ele>28</ele>
        <time>2022-02-02T14:06:39Z</time>
      </trkpt>
      <trkpt lat="49.91529" lon="2.23012">
        <ele>28</ele>
        <time>2022-02-02T14:06:41Z</time>
      </trkpt>
      <trkpt lat="49.91528" lon="2.23014">
        <ele>28</ele>
        <time>2022-02-02T14:06:42Z</time>
      </trkpt>
      <trkpt lat="49.91527" lon="2.23015">
        <ele>28</ele>
        <time>2022-02-02T14:06:43Z</time>
      </trkpt>
      <trkpt lat="49.91526" lon="2.23015">
        <ele>28</ele>
        <time>2022-02-02T14:06:44Z</time>
      </trkpt>
      <trkpt lat="49.91526" lon="2.23016">
        <ele>28</ele>
        <time>2022-02-02T14:06:45Z</time>
      </trkpt>
      <trkpt lat="49.91525" lon="2.23017">
        <ele>28</ele>
        <time>2022-02-02T14:06:46Z</time>
      </trkpt>
      <trkpt lat="49.91524" lon="2.23019">
        <ele>28</ele>
        <time>2022-02-02T14:06:48Z</time>
      </trkpt>
      <trkpt lat="49.91523" lon="2.2302">
        <ele>28</ele>
        <time>2022-02-02T14:06:49Z</time>
      </trkpt>
      <trkpt lat="49.91522" lon="2.23024">
        <ele>28</ele>
        <time>2022-02-02T14:06:50Z</time>
      </trkpt>
      <trkpt lat="49.91522" lon="2.23025">
        <ele>27.9</ele>
        <time>2022-02-02T14:06:51Z</time>
      </trkpt>
      <trkpt lat="49.91521" lon="2.23026">
        <ele>27.9</ele>
        <time>2022-02-02T14:06:52Z</time>
      </trkpt>
      <trkpt lat="49.91521" lon="2.23028">
        <ele>27.9</ele>
        <time>2022-02-02T14:06:53Z</time>
      </trkpt>
      <trkpt lat="49.91521" lon="2.23029">
        <ele>27.9</ele>
        <time>2022-02-02T14:06:55Z</time>
      </trkpt>
      <trkpt lat="49.9152" lon="2.23031">
        <ele>27.9</ele>
        <time>2022-02-02T14:06:56Z</time>
      </trkpt>
      <trkpt lat="49.9152" lon="2.23032">
        <ele>27.9</ele>
        <time>2022-02-02T14:06:57Z</time>
      </trkpt>
      <trkpt lat="49.91519" lon="2.23034">
        <ele>27.9</ele>
        <time>2022-02-02T14:06:58Z</time>
      </trkpt>
      <trkpt lat="49.91519" lon="2.23035">
        <ele>27.9</ele>
        <time>2022-02-02T14:06:59Z</time>
      </trkpt>
      <trkpt lat="49.91518" lon="2.23037">
        <ele>27.9</ele>
        <time>2022-02-02T14:07:00Z</time>
      </trkpt>
      <trkpt lat="49.91517" lon="2.23038">
        <ele>27.9</ele>
        <time>2022-02-02T14:07:01Z</time>
      </trkpt>
      <trkpt lat="49.91516" lon="2.23039">
        <ele>27.9</ele>
        <time>2022-02-02T14:07:02Z</time>
      </trkpt>
      <trkpt lat="49.91515" lon="2.23042">
        <ele>27.9</ele>
        <time>2022-02-02T14:07:04Z</time>
      </trkpt>
      <trkpt lat="49.91515" lon="2.23043">
        <ele>27.9</ele>
        <time>2022-02-02T14:07:05Z</time>
      </trkpt>
      <trkpt lat="49.91514" lon="2.23044">
        <ele>27.8</ele>
        <time>2022-02-02T14:07:06Z</time>
      </trkpt>
      <trkpt lat="49.91513" lon="2.23047">
        <ele>27.8</ele>
        <time>2022-02-02T14:07:07Z</time>
      </trkpt>
      <trkpt lat="49.91513" lon="2.23048">
        <ele>27.8</ele>
        <time>2022-02-02T14:07:08Z</time>
      </trkpt>
      <trkpt lat="49.91512" lon="2.2305">
        <ele>27.8</ele>
        <time>2022-02-02T14:07:09Z</time>
      </trkpt>
      <trkpt lat="49.91511" lon="2.23052">
        <ele>27.8</ele>
        <time>2022-02-02T14:07:11Z</time>
      </trkpt>
      <trkpt lat="49.9151" lon="2.23053">
        <ele>27.8</ele>
        <time>2022-02-02T14:07:12Z</time>
      </trkpt>
      <trkpt lat="49.9151" lon="2.23054">
        <ele>27.8</ele>
        <time>2022-02-02T14:07:13Z</time>
      </trkpt>
      <trkpt lat="49.91509" lon="2.23057">
        <ele>27.8</ele>
        <time>2022-02-02T14:07:14Z</time>
      </trkpt>
      <trkpt lat="49.91508" lon="2.23058">
        <ele>27.7</ele>
        <time>2022-02-02T14:07:15Z</time>
      </trkpt>
      <trkpt lat="49.91508" lon="2.23059">
        <ele>27.7</ele>
        <time>2022-02-02T14:07:16Z</time>
      </trkpt>
      <trkpt lat="49.91507" lon="2.23062">
        <ele>27.7</ele>
        <time>2022-02-02T14:07:17Z</time>
      </trkpt>
      <trkpt lat="49.91506" lon="2.23063">
        <ele>27.7</ele>
        <time>2022-02-02T14:07:18Z</time>
      </trkpt>
      <trkpt lat="49.91506" lon="2.23064">
        <ele>27.7</ele>
        <time>2022-02-02T14:07:19Z</time>
      </trkpt>
      <trkpt lat="49.91505" lon="2.23066">
        <ele>27.7</ele>
        <time>2022-02-02T14:07:21Z</time>
      </trkpt>
      <trkpt lat="49.91504" lon="2.23067">
        <ele>27.7</ele>
        <time>2022-02-02T14:07:22Z</time>
      </trkpt>
      <trkpt lat="49.91503" lon="2.2307">
        <ele>27.6</ele>
        <time>2022-02-02T14:07:23Z</time>
      </trkpt>
      <trkpt lat="49.91502" lon="2.23071">
        <ele>27.6</ele>
        <time>2022-02-02T14:07:24Z</time>
      </trkpt>
      <trkpt lat="49.91501" lon="2.23072">
        <ele>27.6</ele>
        <time>2022-02-02T14:07:25Z</time>
      </trkpt>
      <trkpt lat="49.91501" lon="2.23075">
        <ele>27.6</ele>
        <time>2022-02-02T14:07:26Z</time>
      </trkpt>
      <trkpt lat="49.915" lon="2.23077">
        <ele>27.6</ele>
        <time>2022-02-02T14:07:28Z</time>
      </trkpt>
      <trkpt lat="49.91499" lon="2.23079">
        <ele>27.6</ele>
        <time>2022-02-02T14:07:29Z</time>
      </trkpt>
      <trkpt lat="49.91498" lon="2.23081">
        <ele>27.5</ele>
        <time>2022-02-02T14:07:30Z</time>
      </trkpt>
      <trkpt lat="49.91497" lon="2.23084">
        <ele>27.5</ele>
        <time>2022-02-02T14:07:31Z</time>
      </trkpt>
      <trkpt lat="49.91497" lon="2.23085">
        <ele>27.5</ele>
        <time>2022-02-02T14:07:32Z</time>
      </trkpt>
      <trkpt lat="49.91497" lon="2.23086">
        <ele>27.5</ele>
        <time>2022-02-02T14:07:33Z</time>
      </trkpt>
      <trkpt lat="49.91496" lon="2.23088">
        <ele>27.5</ele>
        <time>2022-02-02T14:07:34Z</time>
      </trkpt>
      <trkpt lat="49.91496" lon="2.2309">
        <ele>27.5</ele>
        <time>2022-02-02T14:07:35Z</time>
      </trkpt>
      <trkpt lat="49.91495" lon="2.23093">
        <ele>27.4</ele>
        <time>2022-02-02T14:07:36Z</time>
      </trkpt>
      <trkpt lat="49.91495" lon="2.23095">
        <ele>27.4</ele>
        <time>2022-02-02T14:07:37Z</time>
      </trkpt>
      <trkpt lat="49.91494" lon="2.23098">
        <ele>27.4</ele>
        <time>2022-02-02T14:07:38Z</time>
      </trkpt>
      <trkpt lat="49.91494" lon="2.231">
        <ele>27.4</ele>
        <time>2022-02-02T14:07:39Z</time>
      </trkpt>
      <trkpt lat="49.91493" lon="2.23102">
        <ele>27.4</ele>
        <time>2022-02-02T14:07:40Z</time>
      </trkpt>
      <trkpt lat="49.91493" lon="2.23104">
        <ele>27.4</ele>
        <time>2022-02-02T14:07:41Z</time>
      </trkpt>
      <trkpt lat="49.91493" lon="2.23106">
        <ele>27.4</ele>
        <time>2022-02-02T14:07:42Z</time>
      </trkpt>
      <trkpt lat="49.91492" lon="2.23109">
        <ele>27.3</ele>
        <time>2022-02-02T14:07:43Z</time>
      </trkpt>
      <trkpt lat="49.91492" lon="2.23111">
        <ele>27.3</ele>
        <time>2022-02-02T14:07:44Z</time>
      </trkpt>
      <trkpt lat="49.91491" lon="2.23114">
        <ele>27.3</ele>
        <time>2022-02-02T14:07:45Z</time>
      </trkpt>
      <trkpt lat="49.91491" lon="2.23116">
        <ele>27.3</ele>
        <time>2022-02-02T14:07:47Z</time>
      </trkpt>
      <trkpt lat="49.9149" lon="2.23119">
        <ele>27.3</ele>
        <time>2022-02-02T14:07:48Z</time>
      </trkpt>
      <trkpt lat="49.9149" lon="2.2312">
        <ele>27.3</ele>
        <time>2022-02-02T14:07:49Z</time>
      </trkpt>
      <trkpt lat="49.91489" lon="2.23123">
        <ele>27.3</ele>
        <time>2022-02-02T14:07:50Z</time>
      </trkpt>
      <trkpt lat="49.91488" lon="2.23126">
        <ele>27.2</ele>
        <time>2022-02-02T14:07:51Z</time>
      </trkpt>
      <trkpt lat="49.91488" lon="2.23127">
        <ele>27.2</ele>
        <time>2022-02-02T14:07:52Z</time>
      </trkpt>
      <trkpt lat="49.91488" lon="2.23128">
        <ele>27.2</ele>
        <time>2022-02-02T14:07:53Z</time>
      </trkpt>
      <trkpt lat="49.91487" lon="2.2313">
        <ele>27.2</ele>
        <time>2022-02-02T14:07:54Z</time>
      </trkpt>
      <trkpt lat="49.91486" lon="2.23132">
        <ele>27.2</ele>
        <time>2022-02-02T14:07:55Z</time>
      </trkpt>
      <trkpt lat="49.91485" lon="2.23136">
        <ele>27.2</ele>
        <time>2022-02-02T14:07:56Z</time>
      </trkpt>
      <trkpt lat="49.91485" lon="2.23137">
        <ele>27.2</ele>
        <time>2022-02-02T14:07:58Z</time>
      </trkpt>
      <trkpt lat="49.91484" lon="2.23139">
        <ele>27.2</ele>
        <time>2022-02-02T14:07:59Z</time>
      </trkpt>
      <trkpt lat="49.91484" lon="2.2314">
        <ele>27.2</ele>
        <time>2022-02-02T14:08:00Z</time>
      </trkpt>
      <trkpt lat="49.91483" lon="2.23141">
        <ele>27.2</ele>
        <time>2022-02-02T14:08:01Z</time>
      </trkpt>
      <trkpt lat="49.91482" lon="2.23144">
        <ele>27.2</ele>
        <time>2022-02-02T14:08:02Z</time>
      </trkpt>
      <trkpt lat="49.91482" lon="2.23146">
        <ele>27.2</ele>
        <time>2022-02-02T14:08:03Z</time>
      </trkpt>
      <trkpt lat="49.91482" lon="2.23147">
        <ele>27.2</ele>
        <time>2022-02-02T14:08:04Z</time>
      </trkpt>
      <trkpt lat="49.91481" lon="2.23148">
        <ele>27.2</ele>
        <time>2022-02-02T14:08:05Z</time>
      </trkpt>
      <trkpt lat="49.9148" lon="2.2315">
        <ele>27.2</ele>
        <time>2022-02-02T14:08:06Z</time>
      </trkpt>
      <trkpt lat="49.9148" lon="2.23151">
        <ele>27.2</ele>
        <time>2022-02-02T14:08:07Z</time>
      </trkpt>
      <trkpt lat="49.91479" lon="2.23153">
        <ele>27.2</ele>
        <time>2022-02-02T14:08:08Z</time>
      </trkpt>
      <trkpt lat="49.91479" lon="2.23155">
        <ele>27.2</ele>
        <time>2022-02-02T14:08:10Z</time>
      </trkpt>
      <trkpt lat="49.91478" lon="2.23156">
        <ele>27.2</ele>
        <time>2022-02-02T14:08:11Z</time>
      </trkpt>
      <trkpt lat="49.91478" lon="2.23158">
        <ele>27.2</ele>
        <time>2022-02-02T14:08:12Z</time>
      </trkpt>
      <trkpt lat="49.91478" lon="2.2316">
        <ele>27.2</ele>
        <time>2022-02-02T14:08:13Z</time>
      </trkpt>
      <trkpt lat="49.91478" lon="2.23161">
        <ele>27.2</ele>
        <time>2022-02-02T14:08:14Z</time>
      </trkpt>
      <trkpt lat="49.91477" lon="2.23163">
        <ele>27.2</ele>
        <time>2022-02-02T14:08:15Z</time>
      </trkpt>
      <trkpt lat="49.91477" lon="2.23165">
        <ele>27.2</ele>
        <time>2022-02-02T14:08:16Z</time>
      </trkpt>
      <trkpt lat="49.91475" lon="2.23169">
        <ele>27.2</ele>
        <time>2022-02-02T14:08:17Z</time>
      </trkpt>
      <trkpt lat="49.91475" lon="2.2317">
        <ele>27.2</ele>
        <time>2022-02-02T14:08:19Z</time>
      </trkpt>
      <trkpt lat="49.91474" lon="2.23172">
        <ele>27.2</ele>
        <time>2022-02-02T14:08:20Z</time>
      </trkpt>
      <trkpt lat="49.91474" lon="2.23173">
        <ele>27.2</ele>
        <time>2022-02-02T14:08:21Z</time>
      </trkpt>
      <trkpt lat="49.91473" lon="2.23175">
        <ele>27.2</ele>
        <time>2022-02-02T14:08:22Z</time>
      </trkpt>
      <trkpt lat="49.91473" lon="2.23177">
        <ele>27.2</ele>
        <time>2022-02-02T14:08:23Z</time>
      </trkpt>
      <trkpt lat="49.91472" lon="2.23179">
        <ele>27.2</ele>
        <time>2022-02-02T14:08:24Z</time>
      </trkpt>
      <trkpt lat="49.91472" lon="2.23181">
        <ele>27.2</ele>
        <time>2022-02-02T14:08:25Z</time>
      </trkpt>
      <trkpt lat="49.91471" lon="2.23183">
        <ele>27.2</ele>
        <time>2022-02-02T14:08:26Z</time>
      </trkpt>
      <trkpt lat="49.91471" lon="2.23185">
        <ele>27.2</ele>
        <time>2022-02-02T14:08:28Z</time>
      </trkpt>
      <trkpt lat="49.9147" lon="2.23188">
        <ele>27.2</ele>
        <time>2022-02-02T14:08:29Z</time>
      </trkpt>
      <trkpt lat="49.91469" lon="2.23189">
        <ele>27.2</ele>
        <time>2022-02-02T14:08:30Z</time>
      </trkpt>
      <trkpt lat="49.91469" lon="2.2319">
        <ele>27.2</ele>
        <time>2022-02-02T14:08:31Z</time>
      </trkpt>
      <trkpt lat="49.91468" lon="2.23193">
        <ele>27.2</ele>
        <time>2022-02-02T14:08:32Z</time>
      </trkpt>
      <trkpt lat="49.91467" lon="2.23194">
        <ele>27.2</ele>
        <time>2022-02-02T14:08:33Z</time>
      </trkpt>
      <trkpt lat="49.91467" lon="2.23195">
        <ele>27.2</ele>
        <time>2022-02-02T14:08:34Z</time>
      </trkpt>
      <trkpt lat="49.91466" lon="2.23198">
        <ele>27.2</ele>
        <time>2022-02-02T14:08:35Z</time>
      </trkpt>
      <trkpt lat="49.91466" lon="2.232">
        <ele>27.2</ele>
        <time>2022-02-02T14:08:36Z</time>
      </trkpt>
      <trkpt lat="49.91465" lon="2.23201">
        <ele>27.2</ele>
        <time>2022-02-02T14:08:37Z</time>
      </trkpt>
      <trkpt lat="49.91464" lon="2.23203">
        <ele>27.2</ele>
        <time>2022-02-02T14:08:38Z</time>
      </trkpt>
      <trkpt lat="49.91464" lon="2.23205">
        <ele>27.2</ele>
        <time>2022-02-02T14:08:39Z</time>
      </trkpt>
      <trkpt lat="49.91463" lon="2.23208">
        <ele>27.2</ele>
        <time>2022-02-02T14:08:40Z</time>
      </trkpt>
      <trkpt lat="49.91462" lon="2.23209">
        <ele>27.2</ele>
        <time>2022-02-02T14:08:42Z</time>
      </trkpt>
      <trkpt lat="49.91462" lon="2.2321">
        <ele>27.2</ele>
        <time>2022-02-02T14:08:43Z</time>
      </trkpt>
      <trkpt lat="49.91461" lon="2.23212">
        <ele>27.2</ele>
        <time>2022-02-02T14:08:44Z</time>
      </trkpt>
      <trkpt lat="49.91461" lon="2.23214">
        <ele>27.2</ele>
        <time>2022-02-02T14:08:45Z</time>
      </trkpt>
      <trkpt lat="49.9146" lon="2.23215">
        <ele>27.2</ele>
        <time>2022-02-02T14:08:46Z</time>
      </trkpt>
      <trkpt lat="49.9146" lon="2.23218">
        <ele>27.2</ele>
        <time>2022-02-02T14:08:47Z</time>
      </trkpt>
      <trkpt lat="49.91459" lon="2.23219">
        <ele>27.2</ele>
        <time>2022-02-02T14:08:48Z</time>
      </trkpt>
      <trkpt lat="49.91459" lon="2.23221">
        <ele>27.2</ele>
        <time>2022-02-02T14:08:49Z</time>
      </trkpt>
      <trkpt lat="49.91458" lon="2.23223">
        <ele>27.2</ele>
        <time>2022-02-02T14:08:50Z</time>
      </trkpt>
      <trkpt lat="49.91458" lon="2.23224">
        <ele>27.2</ele>
        <time>2022-02-02T14:08:51Z</time>
      </trkpt>
      <trkpt lat="49.91457" lon="2.23226">
        <ele>27.2</ele>
        <time>2022-02-02T14:08:53Z</time>
      </trkpt>
      <trkpt lat="49.91457" lon="2.23228">
        <ele>27.2</ele>
        <time>2022-02-02T14:08:54Z</time>
      </trkpt>
      <trkpt lat="49.91457" lon="2.2323">
        <ele>27.3</ele>
        <time>2022-02-02T14:08:55Z</time>
      </trkpt>
      <trkpt lat="49.91457" lon="2.23232">
        <ele>27.3</ele>
        <time>2022-02-02T14:08:56Z</time>
      </trkpt>
      <trkpt lat="49.91456" lon="2.23234">
        <ele>27.3</ele>
        <time>2022-02-02T14:08:57Z</time>
      </trkpt>
      <trkpt lat="49.91456" lon="2.23236">
        <ele>27.3</ele>
        <time>2022-02-02T14:08:58Z</time>
      </trkpt>
      <trkpt lat="49.91456" lon="2.23238">
        <ele>27.3</ele>
        <time>2022-02-02T14:08:59Z</time>
      </trkpt>
      <trkpt lat="49.91455" lon="2.2324">
        <ele>27.3</ele>
        <time>2022-02-02T14:09:00Z</time>
      </trkpt>
      <trkpt lat="49.91455" lon="2.23242">
        <ele>27.3</ele>
        <time>2022-02-02T14:09:01Z</time>
      </trkpt>
      <trkpt lat="49.91454" lon="2.23244">
        <ele>27.3</ele>
        <time>2022-02-02T14:09:02Z</time>
      </trkpt>
      <trkpt lat="49.91454" lon="2.23246">
        <ele>27.3</ele>
        <time>2022-02-02T14:09:03Z</time>
      </trkpt>
      <trkpt lat="49.91453" lon="2.23248">
        <ele>27.3</ele>
        <time>2022-02-02T14:09:04Z</time>
      </trkpt>
      <trkpt lat="49.91453" lon="2.2325">
        <ele>27.3</ele>
        <time>2022-02-02T14:09:06Z</time>
      </trkpt>
      <trkpt lat="49.91452" lon="2.23251">
        <ele>27.3</ele>
        <time>2022-02-02T14:09:07Z</time>
      </trkpt>
      <trkpt lat="49.91451" lon="2.23253">
        <ele>27.3</ele>
        <time>2022-02-02T14:09:08Z</time>
      </trkpt>
      <trkpt lat="49.91451" lon="2.23254">
        <ele>27.3</ele>
        <time>2022-02-02T14:09:09Z</time>
      </trkpt>
      <trkpt lat="49.9145" lon="2.23255">
        <ele>27.3</ele>
        <time>2022-02-02T14:09:10Z</time>
      </trkpt>
      <trkpt lat="49.91449" lon="2.23256">
        <ele>27.3</ele>
        <time>2022-02-02T14:09:11Z</time>
      </trkpt>
      <trkpt lat="49.91448" lon="2.23256">
        <ele>27.3</ele>
        <time>2022-02-02T14:09:12Z</time>
      </trkpt>
      <trkpt lat="49.91446" lon="2.23256">
        <ele>27.3</ele>
        <time>2022-02-02T14:09:13Z</time>
      </trkpt>
      <trkpt lat="49.91445" lon="2.23255">
        <ele>27.3</ele>
        <time>2022-02-02T14:09:14Z</time>
      </trkpt>
      <trkpt lat="49.91444" lon="2.23255">
        <ele>27.3</ele>
        <time>2022-02-02T14:09:15Z</time>
      </trkpt>
      <trkpt lat="49.91443" lon="2.23253">
        <ele>27.3</ele>
        <time>2022-02-02T14:09:16Z</time>
      </trkpt>
      <trkpt lat="49.91442" lon="2.23252">
        <ele>27.3</ele>
        <time>2022-02-02T14:09:17Z</time>
      </trkpt>
      <trkpt lat="49.91441" lon="2.2325">
        <ele>27.3</ele>
        <time>2022-02-02T14:09:19Z</time>
      </trkpt>
      <trkpt lat="49.9144" lon="2.23248">
        <ele>27.3</ele>
        <time>2022-02-02T14:09:20Z</time>
      </trkpt>
      <trkpt lat="49.91439" lon="2.23246">
        <ele>27.3</ele>
        <time>2022-02-02T14:09:21Z</time>
      </trkpt>
      <trkpt lat="49.91438" lon="2.23245">
        <ele>27.3</ele>
        <time>2022-02-02T14:09:22Z</time>
      </trkpt>
      <trkpt lat="49.91437" lon="2.23243">
        <ele>27.3</ele>
        <time>2022-02-02T14:09:23Z</time>
      </trkpt>
      <trkpt lat="49.91436" lon="2.23242">
        <ele>27.3</ele>
        <time>2022-02-02T14:09:24Z</time>
      </trkpt>
      <trkpt lat="49.91436" lon="2.2324">
        <ele>27.3</ele>
        <time>2022-02-02T14:09:25Z</time>
      </trkpt>
      <trkpt lat="49.91434" lon="2.23239">
        <ele>27.2</ele>
        <time>2022-02-02T14:09:26Z</time>
      </trkpt>
      <trkpt lat="49.91433" lon="2.23238">
        <ele>27.2</ele>
        <time>2022-02-02T14:09:28Z</time>
      </trkpt>
      <trkpt lat="49.91432" lon="2.23237">
        <ele>27.2</ele>
        <time>2022-02-02T14:09:29Z</time>
      </trkpt>
      <trkpt lat="49.91431" lon="2.23237">
        <ele>27.2</ele>
        <time>2022-02-02T14:09:30Z</time>
      </trkpt>
      <trkpt lat="49.9143" lon="2.23236">
        <ele>27.2</ele>
        <time>2022-02-02T14:09:31Z</time>
      </trkpt>
      <trkpt lat="49.91429" lon="2.23235">
        <ele>27.2</ele>
        <time>2022-02-02T14:09:32Z</time>
      </trkpt>
      <trkpt lat="49.91427" lon="2.23235">
        <ele>27.2</ele>
        <time>2022-02-02T14:09:33Z</time>
      </trkpt>
      <trkpt lat="49.91426" lon="2.23234">
        <ele>27.2</ele>
        <time>2022-02-02T14:09:34Z</time>
      </trkpt>
      <trkpt lat="49.91424" lon="2.23234">
        <ele>27.2</ele>
        <time>2022-02-02T14:09:36Z</time>
      </trkpt>
      <trkpt lat="49.91424" lon="2.23233">
        <ele>27.2</ele>
        <time>2022-02-02T14:09:37Z</time>
      </trkpt>
      <trkpt lat="49.91423" lon="2.23233">
        <ele>27.2</ele>
        <time>2022-02-02T14:09:38Z</time>
      </trkpt>
      <trkpt lat="49.91421" lon="2.23232">
        <ele>27.2</ele>
        <time>2022-02-02T14:09:39Z</time>
      </trkpt>
      <trkpt lat="49.9142" lon="2.23232">
        <ele>27.2</ele>
        <time>2022-02-02T14:09:41Z</time>
      </trkpt>
      <trkpt lat="49.91419" lon="2.23232">
        <ele>27.2</ele>
        <time>2022-02-02T14:09:42Z</time>
      </trkpt>
      <trkpt lat="49.91418" lon="2.23231">
        <ele>27.2</ele>
        <time>2022-02-02T14:09:43Z</time>
      </trkpt>
      <trkpt lat="49.91417" lon="2.2323">
        <ele>27.2</ele>
        <time>2022-02-02T14:09:44Z</time>
      </trkpt>
      <trkpt lat="49.91416" lon="2.2323">
        <ele>27.2</ele>
        <time>2022-02-02T14:09:45Z</time>
      </trkpt>
      <trkpt lat="49.91415" lon="2.23229">
        <ele>27.2</ele>
        <time>2022-02-02T14:09:46Z</time>
      </trkpt>
      <trkpt lat="49.91414" lon="2.23228">
        <ele>27.2</ele>
        <time>2022-02-02T14:09:47Z</time>
      </trkpt>
      <trkpt lat="49.91412" lon="2.23227">
        <ele>27.2</ele>
        <time>2022-02-02T14:09:48Z</time>
      </trkpt>
      <trkpt lat="49.91411" lon="2.23227">
        <ele>27.2</ele>
        <time>2022-02-02T14:09:49Z</time>
      </trkpt>
      <trkpt lat="49.9141" lon="2.23226">
        <ele>27.2</ele>
        <time>2022-02-02T14:09:50Z</time>
      </trkpt>
      <trkpt lat="49.91409" lon="2.23226">
        <ele>27.2</ele>
        <time>2022-02-02T14:09:52Z</time>
      </trkpt>
      <trkpt lat="49.91408" lon="2.23225">
        <ele>27.2</ele>
        <time>2022-02-02T14:09:53Z</time>
      </trkpt>
      <trkpt lat="49.91407" lon="2.23224">
        <ele>27.2</ele>
        <time>2022-02-02T14:09:54Z</time>
      </trkpt>
      <trkpt lat="49.91407" lon="2.23223">
        <ele>27.3</ele>
        <time>2022-02-02T14:09:55Z</time>
      </trkpt>
      <trkpt lat="49.91408" lon="2.23222">
        <ele>27.3</ele>
        <time>2022-02-02T14:09:56Z</time>
      </trkpt>
      <trkpt lat="49.91408" lon="2.23221">
        <ele>27.3</ele>
        <time>2022-02-02T14:09:57Z</time>
      </trkpt>
      <trkpt lat="49.91407" lon="2.2322">
        <ele>27.3</ele>
        <time>2022-02-02T14:09:58Z</time>
      </trkpt>
      <trkpt lat="49.91406" lon="2.23219">
        <ele>27.4</ele>
        <time>2022-02-02T14:09:59Z</time>
      </trkpt>
      <trkpt lat="49.91405" lon="2.23218">
        <ele>27.4</ele>
        <time>2022-02-02T14:10:00Z</time>
      </trkpt>
      <trkpt lat="49.91404" lon="2.23217">
        <ele>27.4</ele>
        <time>2022-02-02T14:10:02Z</time>
      </trkpt>
      <trkpt lat="49.91403" lon="2.23215">
        <ele>27.4</ele>
        <time>2022-02-02T14:10:03Z</time>
      </trkpt>
      <trkpt lat="49.91403" lon="2.23214">
        <ele>27.4</ele>
        <time>2022-02-02T14:10:04Z</time>
      </trkpt>
      <trkpt lat="49.91402" lon="2.23213">
        <ele>27.5</ele>
        <time>2022-02-02T14:10:05Z</time>
      </trkpt>
      <trkpt lat="49.91402" lon="2.23212">
        <ele>27.5</ele>
        <time>2022-02-02T14:10:06Z</time>
      </trkpt>
      <trkpt lat="49.91402" lon="2.23209">
        <ele>27.5</ele>
        <time>2022-02-02T14:10:07Z</time>
      </trkpt>
      <trkpt lat="49.91403" lon="2.23207">
        <ele>27.6</ele>
        <time>2022-02-02T14:10:08Z</time>
      </trkpt>
      <trkpt lat="49.91403" lon="2.23206">
        <ele>27.6</ele>
        <time>2022-02-02T14:10:10Z</time>
      </trkpt>
      <trkpt lat="49.91403" lon="2.23204">
        <ele>27.6</ele>
        <time>2022-02-02T14:10:11Z</time>
      </trkpt>
      <trkpt lat="49.91404" lon="2.23203">
        <ele>27.6</ele>
        <time>2022-02-02T14:10:12Z</time>
      </trkpt>
      <trkpt lat="49.91404" lon="2.23201">
        <ele>27.6</ele>
        <time>2022-02-02T14:10:13Z</time>
      </trkpt>
      <trkpt lat="49.91404" lon="2.23199">
        <ele>27.7</ele>
        <time>2022-02-02T14:10:14Z</time>
      </trkpt>
      <trkpt lat="49.91405" lon="2.23197">
        <ele>27.7</ele>
        <time>2022-02-02T14:10:15Z</time>
      </trkpt>
      <trkpt lat="49.91405" lon="2.23196">
        <ele>27.7</ele>
        <time>2022-02-02T14:10:16Z</time>
      </trkpt>
      <trkpt lat="49.91405" lon="2.23194">
        <ele>27.7</ele>
        <time>2022-02-02T14:10:18Z</time>
      </trkpt>
      <trkpt lat="49.91405" lon="2.23193">
        <ele>27.8</ele>
        <time>2022-02-02T14:10:19Z</time>
      </trkpt>
      <trkpt lat="49.91405" lon="2.23192">
        <ele>27.8</ele>
        <time>2022-02-02T14:10:20Z</time>
      </trkpt>
      <trkpt lat="49.91405" lon="2.23191">
        <ele>27.8</ele>
        <time>2022-02-02T14:10:21Z</time>
      </trkpt>
      <trkpt lat="49.91405" lon="2.23192">
        <ele>27.8</ele>
        <time>2022-02-02T14:10:22Z</time>
      </trkpt>
      <trkpt lat="49.91404" lon="2.23192">
        <ele>27.8</ele>
        <time>2022-02-02T14:10:23Z</time>
      </trkpt>
      <trkpt lat="49.91404" lon="2.23192">
        <ele>27.8</ele>
        <time>2022-02-02T14:10:24Z</time>
      </trkpt>
      <trkpt lat="49.91404" lon="2.23191">
        <ele>27.8</ele>
        <time>2022-02-02T14:10:26Z</time>
      </trkpt>
      <trkpt lat="49.91404" lon="2.2319">
        <ele>27.8</ele>
        <time>2022-02-02T14:10:27Z</time>
      </trkpt>
      <trkpt lat="49.91405" lon="2.23189">
        <ele>27.9</ele>
        <time>2022-02-02T14:10:28Z</time>
      </trkpt>
      <trkpt lat="49.91405" lon="2.23187">
        <ele>27.9</ele>
        <time>2022-02-02T14:10:29Z</time>
      </trkpt>
      <trkpt lat="49.91405" lon="2.23185">
        <ele>27.9</ele>
        <time>2022-02-02T14:10:30Z</time>
      </trkpt>
      <trkpt lat="49.91405" lon="2.23184">
        <ele>27.9</ele>
        <time>2022-02-02T14:10:31Z</time>
      </trkpt>
      <trkpt lat="49.91405" lon="2.23184">
        <ele>27.9</ele>
        <time>2022-02-02T14:10:32Z</time>
      </trkpt>
      <trkpt lat="49.91405" lon="2.23182">
        <ele>28</ele>
        <time>2022-02-02T14:10:34Z</time>
      </trkpt>
      <trkpt lat="49.91406" lon="2.23181">
        <ele>28</ele>
        <time>2022-02-02T14:10:35Z</time>
      </trkpt>
      <trkpt lat="49.91406" lon="2.2318">
        <ele>28</ele>
        <time>2022-02-02T14:10:36Z</time>
      </trkpt>
      <trkpt lat="49.91406" lon="2.23179">
        <ele>28</ele>
        <time>2022-02-02T14:10:37Z</time>
      </trkpt>
      <trkpt lat="49.91406" lon="2.23177">
        <ele>28.4</ele>
        <time>2022-02-02T14:10:38Z</time>
      </trkpt>
      <trkpt lat="49.91406" lon="2.23176">
        <ele>28.4</ele>
        <time>2022-02-02T14:10:39Z</time>
      </trkpt>
      <trkpt lat="49.91407" lon="2.23174">
        <ele>28.5</ele>
        <time>2022-02-02T14:10:40Z</time>
      </trkpt>
      <trkpt lat="49.91407" lon="2.23173">
        <ele>28.5</ele>
        <time>2022-02-02T14:10:41Z</time>
      </trkpt>
      <trkpt lat="49.91407" lon="2.23171">
        <ele>28.6</ele>
        <time>2022-02-02T14:10:43Z</time>
      </trkpt>
      <trkpt lat="49.91407" lon="2.23169">
        <ele>28.6</ele>
        <time>2022-02-02T14:10:44Z</time>
      </trkpt>
      <trkpt lat="49.91408" lon="2.23167">
        <ele>28.6</ele>
        <time>2022-02-02T14:10:45Z</time>
      </trkpt>
      <trkpt lat="49.91408" lon="2.23164">
        <ele>28.7</ele>
        <time>2022-02-02T14:10:46Z</time>
      </trkpt>
      <trkpt lat="49.91408" lon="2.23163">
        <ele>28.8</ele>
        <time>2022-02-02T14:10:47Z</time>
      </trkpt>
      <trkpt lat="49.91408" lon="2.23161">
        <ele>28.9</ele>
        <time>2022-02-02T14:10:48Z</time>
      </trkpt>
      <trkpt lat="49.91409" lon="2.23159">
        <ele>28.9</ele>
        <time>2022-02-02T14:10:49Z</time>
      </trkpt>
      <trkpt lat="49.91409" lon="2.23157">
        <ele>28.9</ele>
        <time>2022-02-02T14:10:50Z</time>
      </trkpt>
      <trkpt lat="49.91409" lon="2.23154">
        <ele>29</ele>
        <time>2022-02-02T14:10:52Z</time>
      </trkpt>
      <trkpt lat="49.91409" lon="2.23153">
        <ele>29</ele>
        <time>2022-02-02T14:10:53Z</time>
      </trkpt>
      <trkpt lat="49.9141" lon="2.23151">
        <ele>29</ele>
        <time>2022-02-02T14:10:54Z</time>
      </trkpt>
      <trkpt lat="49.9141" lon="2.23148">
        <ele>29.1</ele>
        <time>2022-02-02T14:10:55Z</time>
      </trkpt>
      <trkpt lat="49.9141" lon="2.23147">
        <ele>29.1</ele>
        <time>2022-02-02T14:10:56Z</time>
      </trkpt>
      <trkpt lat="49.9141" lon="2.23145">
        <ele>29.2</ele>
        <time>2022-02-02T14:10:57Z</time>
      </trkpt>
      <trkpt lat="49.9141" lon="2.23143">
        <ele>29.2</ele>
        <time>2022-02-02T14:10:58Z</time>
      </trkpt>
      <trkpt lat="49.9141" lon="2.23141">
        <ele>29.2</ele>
        <time>2022-02-02T14:10:59Z</time>
      </trkpt>
      <trkpt lat="49.9141" lon="2.23137">
        <ele>29.3</ele>
        <time>2022-02-02T14:11:00Z</time>
      </trkpt>
      <trkpt lat="49.9141" lon="2.23135">
        <ele>29.3</ele>
        <time>2022-02-02T14:11:02Z</time>
      </trkpt>
      <trkpt lat="49.9141" lon="2.23133">
        <ele>29.4</ele>
        <time>2022-02-02T14:11:03Z</time>
      </trkpt>
      <trkpt lat="49.9141" lon="2.23132">
        <ele>29.4</ele>
        <time>2022-02-02T14:11:04Z</time>
      </trkpt>
      <trkpt lat="49.9141" lon="2.2313">
        <ele>29.4</ele>
        <time>2022-02-02T14:11:05Z</time>
      </trkpt>
      <trkpt lat="49.9141" lon="2.23127">
        <ele>29.5</ele>
        <time>2022-02-02T14:11:06Z</time>
      </trkpt>
      <trkpt lat="49.9141" lon="2.23125">
        <ele>29.5</ele>
        <time>2022-02-02T14:11:07Z</time>
      </trkpt>
      <trkpt lat="49.91411" lon="2.23124">
        <ele>29.6</ele>
        <time>2022-02-02T14:11:08Z</time>
      </trkpt>
      <trkpt lat="49.91411" lon="2.23121">
        <ele>29.6</ele>
        <time>2022-02-02T14:11:09Z</time>
      </trkpt>
      <trkpt lat="49.91411" lon="2.23119">
        <ele>29.7</ele>
        <time>2022-02-02T14:11:11Z</time>
      </trkpt>
      <trkpt lat="49.91411" lon="2.23118">
        <ele>29.7</ele>
        <time>2022-02-02T14:11:12Z</time>
      </trkpt>
      <trkpt lat="49.9141" lon="2.23116">
        <ele>29.7</ele>
        <time>2022-02-02T14:11:13Z</time>
      </trkpt>
      <trkpt lat="49.9141" lon="2.23115">
        <ele>29.8</ele>
        <time>2022-02-02T14:11:14Z</time>
      </trkpt>
      <trkpt lat="49.9141" lon="2.23113">
        <ele>29.8</ele>
        <time>2022-02-02T14:11:15Z</time>
      </trkpt>
      <trkpt lat="49.9141" lon="2.23111">
        <ele>29.8</ele>
        <time>2022-02-02T14:11:16Z</time>
      </trkpt>
      <trkpt lat="49.9141" lon="2.23108">
        <ele>29.9</ele>
        <time>2022-02-02T14:11:17Z</time>
      </trkpt>
      <trkpt lat="49.9141" lon="2.23106">
        <ele>29.9</ele>
        <time>2022-02-02T14:11:18Z</time>
      </trkpt>
      <trkpt lat="49.9141" lon="2.23104">
        <ele>30</ele>
        <time>2022-02-02T14:11:19Z</time>
      </trkpt>
      <trkpt lat="49.9141" lon="2.23101">
        <ele>30</ele>
        <time>2022-02-02T14:11:21Z</time>
      </trkpt>
      <trkpt lat="49.9141" lon="2.23099">
        <ele>30.1</ele>
        <time>2022-02-02T14:11:22Z</time>
      </trkpt>
      <trkpt lat="49.9141" lon="2.23097">
        <ele>30.1</ele>
        <time>2022-02-02T14:11:23Z</time>
      </trkpt>
      <trkpt lat="49.9141" lon="2.23095">
        <ele>30.2</ele>
        <time>2022-02-02T14:11:24Z</time>
      </trkpt>
      <trkpt lat="49.9141" lon="2.23091">
        <ele>30.3</ele>
        <time>2022-02-02T14:11:25Z</time>
      </trkpt>
      <trkpt lat="49.9141" lon="2.2309">
        <ele>30.3</ele>
        <time>2022-02-02T14:11:26Z</time>
      </trkpt>
      <trkpt lat="49.9141" lon="2.23088">
        <ele>30.3</ele>
        <time>2022-02-02T14:11:27Z</time>
      </trkpt>
      <trkpt lat="49.91409" lon="2.23083">
        <ele>30.4</ele>
        <time>2022-02-02T14:11:29Z</time>
      </trkpt>
      <trkpt lat="49.91409" lon="2.23081">
        <ele>30.5</ele>
        <time>2022-02-02T14:11:30Z</time>
      </trkpt>
      <trkpt lat="49.91409" lon="2.23079">
        <ele>30.5</ele>
        <time>2022-02-02T14:11:32Z</time>
      </trkpt>
      <trkpt lat="49.91409" lon="2.23078">
        <ele>30.5</ele>
        <time>2022-02-02T14:11:33Z</time>
      </trkpt>
      <trkpt lat="49.91408" lon="2.23076">
        <ele>30.6</ele>
        <time>2022-02-02T14:11:34Z</time>
      </trkpt>
      <trkpt lat="49.91408" lon="2.23074">
        <ele>30.6</ele>
        <time>2022-02-02T14:11:35Z</time>
      </trkpt>
      <trkpt lat="49.91407" lon="2.23071">
        <ele>30.7</ele>
        <time>2022-02-02T14:11:36Z</time>
      </trkpt>
      <trkpt lat="49.91407" lon="2.2307">
        <ele>30.7</ele>
        <time>2022-02-02T14:11:37Z</time>
      </trkpt>
      <trkpt lat="49.91407" lon="2.23068">
        <ele>30.8</ele>
        <time>2022-02-02T14:11:38Z</time>
      </trkpt>
      <trkpt lat="49.91407" lon="2.23066">
        <ele>30.8</ele>
        <time>2022-02-02T14:11:39Z</time>
      </trkpt>
      <trkpt lat="49.91407" lon="2.23064">
        <ele>30.9</ele>
        <time>2022-02-02T14:11:40Z</time>
      </trkpt>
      <trkpt lat="49.91407" lon="2.23062">
        <ele>30.9</ele>
        <time>2022-02-02T14:11:42Z</time>
      </trkpt>
      <trkpt lat="49.91407" lon="2.23059">
        <ele>30.9</ele>
        <time>2022-02-02T14:11:43Z</time>
      </trkpt>
      <trkpt lat="49.91407" lon="2.23057">
        <ele>31</ele>
        <time>2022-02-02T14:11:44Z</time>
      </trkpt>
      <trkpt lat="49.91407" lon="2.23056">
        <ele>31</ele>
        <time>2022-02-02T14:11:45Z</time>
      </trkpt>
      <trkpt lat="49.91407" lon="2.23054">
        <ele>31.1</ele>
        <time>2022-02-02T14:11:46Z</time>
      </trkpt>
      <trkpt lat="49.91407" lon="2.23051">
        <ele>31.1</ele>
        <time>2022-02-02T14:11:47Z</time>
      </trkpt>
      <trkpt lat="49.91406" lon="2.2305">
        <ele>31.2</ele>
        <time>2022-02-02T14:11:48Z</time>
      </trkpt>
      <trkpt lat="49.91406" lon="2.23049">
        <ele>31.2</ele>
        <time>2022-02-02T14:11:49Z</time>
      </trkpt>
      <trkpt lat="49.91406" lon="2.23046">
        <ele>31.2</ele>
        <time>2022-02-02T14:11:50Z</time>
      </trkpt>
      <trkpt lat="49.91406" lon="2.23044">
        <ele>31.3</ele>
        <time>2022-02-02T14:11:51Z</time>
      </trkpt>
      <trkpt lat="49.91406" lon="2.23041">
        <ele>31.3</ele>
        <time>2022-02-02T14:11:52Z</time>
      </trkpt>
      <trkpt lat="49.91406" lon="2.23039">
        <ele>31.4</ele>
        <time>2022-02-02T14:11:53Z</time>
      </trkpt>
      <trkpt lat="49.91406" lon="2.23037">
        <ele>31.4</ele>
        <time>2022-02-02T14:11:54Z</time>
      </trkpt>
      <trkpt lat="49.91406" lon="2.23035">
        <ele>31.4</ele>
        <time>2022-02-02T14:11:55Z</time>
      </trkpt>
      <trkpt lat="49.91405" lon="2.23032">
        <ele>31.4</ele>
        <time>2022-02-02T14:11:57Z</time>
      </trkpt>
      <trkpt lat="49.91405" lon="2.2303">
        <ele>31.5</ele>
        <time>2022-02-02T14:11:58Z</time>
      </trkpt>
      <trkpt lat="49.91405" lon="2.23028">
        <ele>31.5</ele>
        <time>2022-02-02T14:11:59Z</time>
      </trkpt>
      <trkpt lat="49.91405" lon="2.23026">
        <ele>31.5</ele>
        <time>2022-02-02T14:12:00Z</time>
      </trkpt>
      <trkpt lat="49.91404" lon="2.23024">
        <ele>31.5</ele>
        <time>2022-02-02T14:12:01Z</time>
      </trkpt>
      <trkpt lat="49.91404" lon="2.23021">
        <ele>31.5</ele>
        <time>2022-02-02T14:12:02Z</time>
      </trkpt>
      <trkpt lat="49.91405" lon="2.23019">
        <ele>31.6</ele>
        <time>2022-02-02T14:12:03Z</time>
      </trkpt>
      <trkpt lat="49.91405" lon="2.23015">
        <ele>31.6</ele>
        <time>2022-02-02T14:12:05Z</time>
      </trkpt>
      <trkpt lat="49.91405" lon="2.23012">
        <ele>31.6</ele>
        <time>2022-02-02T14:12:06Z</time>
      </trkpt>
      <trkpt lat="49.91405" lon="2.23011">
        <ele>31.6</ele>
        <time>2022-02-02T14:12:07Z</time>
      </trkpt>
      <trkpt lat="49.91405" lon="2.2301">
        <ele>31.6</ele>
        <time>2022-02-02T14:12:08Z</time>
      </trkpt>
      <trkpt lat="49.91405" lon="2.23007">
        <ele>31.7</ele>
        <time>2022-02-02T14:12:09Z</time>
      </trkpt>
      <trkpt lat="49.91406" lon="2.23005">
        <ele>31.7</ele>
        <time>2022-02-02T14:12:10Z</time>
      </trkpt>
      <trkpt lat="49.91406" lon="2.23002">
        <ele>31.7</ele>
        <time>2022-02-02T14:12:11Z</time>
      </trkpt>
      <trkpt lat="49.91406" lon="2.23">
        <ele>31.8</ele>
        <time>2022-02-02T14:12:12Z</time>
      </trkpt>
      <trkpt lat="49.91406" lon="2.22998">
        <ele>31.8</ele>
        <time>2022-02-02T14:12:14Z</time>
      </trkpt>
      <trkpt lat="49.91406" lon="2.22996">
        <ele>31.9</ele>
        <time>2022-02-02T14:12:15Z</time>
      </trkpt>
      <trkpt lat="49.91406" lon="2.22994">
        <ele>31.9</ele>
        <time>2022-02-02T14:12:16Z</time>
      </trkpt>
      <trkpt lat="49.91405" lon="2.22992">
        <ele>31.9</ele>
        <time>2022-02-02T14:12:17Z</time>
      </trkpt>
      <trkpt lat="49.91405" lon="2.2299">
        <ele>32</ele>
        <time>2022-02-02T14:12:18Z</time>
      </trkpt>
      <trkpt lat="49.91405" lon="2.22987">
        <ele>32</ele>
        <time>2022-02-02T14:12:19Z</time>
      </trkpt>
      <trkpt lat="49.91405" lon="2.22985">
        <ele>32.1</ele>
        <time>2022-02-02T14:12:20Z</time>
      </trkpt>
      <trkpt lat="49.91405" lon="2.22984">
        <ele>32.1</ele>
        <time>2022-02-02T14:12:21Z</time>
      </trkpt>
      <trkpt lat="49.91404" lon="2.22981">
        <ele>32.1</ele>
        <time>2022-02-02T14:12:22Z</time>
      </trkpt>
      <trkpt lat="49.91404" lon="2.22979">
        <ele>32.2</ele>
        <time>2022-02-02T14:12:23Z</time>
      </trkpt>
      <trkpt lat="49.91404" lon="2.22976">
        <ele>32.2</ele>
        <time>2022-02-02T14:12:24Z</time>
      </trkpt>
      <trkpt lat="49.91404" lon="2.22974">
        <ele>32.3</ele>
        <time>2022-02-02T14:12:25Z</time>
      </trkpt>
      <trkpt lat="49.91404" lon="2.22973">
        <ele>32.3</ele>
        <time>2022-02-02T14:12:26Z</time>
      </trkpt>
      <trkpt lat="49.91404" lon="2.22971">
        <ele>32.3</ele>
        <time>2022-02-02T14:12:28Z</time>
      </trkpt>
      <trkpt lat="49.91404" lon="2.22969">
        <ele>32.4</ele>
        <time>2022-02-02T14:12:29Z</time>
      </trkpt>
      <trkpt lat="49.91405" lon="2.22965">
        <ele>32.5</ele>
        <time>2022-02-02T14:12:30Z</time>
      </trkpt>
      <trkpt lat="49.91405" lon="2.22964">
        <ele>32.5</ele>
        <time>2022-02-02T14:12:31Z</time>
      </trkpt>
      <trkpt lat="49.91405" lon="2.22963">
        <ele>32.5</ele>
        <time>2022-02-02T14:12:32Z</time>
      </trkpt>
      <trkpt lat="49.91405" lon="2.22961">
        <ele>32.6</ele>
        <time>2022-02-02T14:12:33Z</time>
      </trkpt>
      <trkpt lat="49.91405" lon="2.2296">
        <ele>32.6</ele>
        <time>2022-02-02T14:12:34Z</time>
      </trkpt>
      <trkpt lat="49.91405" lon="2.22958">
        <ele>32.6</ele>
        <time>2022-02-02T14:12:35Z</time>
      </trkpt>
      <trkpt lat="49.91405" lon="2.22956">
        <ele>32.7</ele>
        <time>2022-02-02T14:12:36Z</time>
      </trkpt>
      <trkpt lat="49.91406" lon="2.22953">
        <ele>32.8</ele>
        <time>2022-02-02T14:12:37Z</time>
      </trkpt>
      <trkpt lat="49.91406" lon="2.22951">
        <ele>32.8</ele>
        <time>2022-02-02T14:12:38Z</time>
      </trkpt>
      <trkpt lat="49.91406" lon="2.22949">
        <ele>32.9</ele>
        <time>2022-02-02T14:12:39Z</time>
      </trkpt>
      <trkpt lat="49.91406" lon="2.22945">
        <ele>32.9</ele>
        <time>2022-02-02T14:12:40Z</time>
      </trkpt>
      <trkpt lat="49.91406" lon="2.22944">
        <ele>33</ele>
        <time>2022-02-02T14:12:42Z</time>
      </trkpt>
      <trkpt lat="49.91406" lon="2.22943">
        <ele>33</ele>
        <time>2022-02-02T14:12:43Z</time>
      </trkpt>
      <trkpt lat="49.91406" lon="2.22941">
        <ele>33</ele>
        <time>2022-02-02T14:12:44Z</time>
      </trkpt>
      <trkpt lat="49.91406" lon="2.22939">
        <ele>33.1</ele>
        <time>2022-02-02T14:12:45Z</time>
      </trkpt>
      <trkpt lat="49.91406" lon="2.22937">
        <ele>33.1</ele>
        <time>2022-02-02T14:12:46Z</time>
      </trkpt>
      <trkpt lat="49.91406" lon="2.22934">
        <ele>33.2</ele>
        <time>2022-02-02T14:12:47Z</time>
      </trkpt>
      <trkpt lat="49.91406" lon="2.22933">
        <ele>33.3</ele>
        <time>2022-02-02T14:12:48Z</time>
      </trkpt>
      <trkpt lat="49.91407" lon="2.22931">
        <ele>33.3</ele>
        <time>2022-02-02T14:12:49Z</time>
      </trkpt>
      <trkpt lat="49.91407" lon="2.22928">
        <ele>33.4</ele>
        <time>2022-02-02T14:12:50Z</time>
      </trkpt>
      <trkpt lat="49.91407" lon="2.22926">
        <ele>33.5</ele>
        <time>2022-02-02T14:12:52Z</time>
      </trkpt>
      <trkpt lat="49.91407" lon="2.22925">
        <ele>33.5</ele>
        <time>2022-02-02T14:12:53Z</time>
      </trkpt>
      <trkpt lat="49.91407" lon="2.22923">
        <ele>33.5</ele>
        <time>2022-02-02T14:12:54Z</time>
      </trkpt>
      <trkpt lat="49.91407" lon="2.22922">
        <ele>33.6</ele>
        <time>2022-02-02T14:12:55Z</time>
      </trkpt>
      <trkpt lat="49.91407" lon="2.2292">
        <ele>33.6</ele>
        <time>2022-02-02T14:12:56Z</time>
      </trkpt>
      <trkpt lat="49.91407" lon="2.22918">
        <ele>33.7</ele>
        <time>2022-02-02T14:12:57Z</time>
      </trkpt>
      <trkpt lat="49.91407" lon="2.22917">
        <ele>33.7</ele>
        <time>2022-02-02T14:12:58Z</time>
      </trkpt>
      <trkpt lat="49.91407" lon="2.22915">
        <ele>33.8</ele>
        <time>2022-02-02T14:12:59Z</time>
      </trkpt>
      <trkpt lat="49.91408" lon="2.22912">
        <ele>33.9</ele>
        <time>2022-02-02T14:13:00Z</time>
      </trkpt>
      <trkpt lat="49.91408" lon="2.2291">
        <ele>33.9</ele>
        <time>2022-02-02T14:13:02Z</time>
      </trkpt>
      <trkpt lat="49.91408" lon="2.22909">
        <ele>34</ele>
        <time>2022-02-02T14:13:03Z</time>
      </trkpt>
      <trkpt lat="49.91408" lon="2.22905">
        <ele>34.1</ele>
        <time>2022-02-02T14:13:04Z</time>
      </trkpt>
      <trkpt lat="49.91408" lon="2.22904">
        <ele>34.1</ele>
        <time>2022-02-02T14:13:05Z</time>
      </trkpt>
      <trkpt lat="49.91408" lon="2.22903">
        <ele>34.1</ele>
        <time>2022-02-02T14:13:06Z</time>
      </trkpt>
      <trkpt lat="49.91409" lon="2.229">
        <ele>34.2</ele>
        <time>2022-02-02T14:13:07Z</time>
      </trkpt>
      <trkpt lat="49.91409" lon="2.22899">
        <ele>34.3</ele>
        <time>2022-02-02T14:13:08Z</time>
      </trkpt>
      <trkpt lat="49.91409" lon="2.22897">
        <ele>34.3</ele>
        <time>2022-02-02T14:13:09Z</time>
      </trkpt>
      <trkpt lat="49.91409" lon="2.22895">
        <ele>34.4</ele>
        <time>2022-02-02T14:13:10Z</time>
      </trkpt>
      <trkpt lat="49.91409" lon="2.22893">
        <ele>34.4</ele>
        <time>2022-02-02T14:13:11Z</time>
      </trkpt>
      <trkpt lat="49.91409" lon="2.22891">
        <ele>34.5</ele>
        <time>2022-02-02T14:13:13Z</time>
      </trkpt>
      <trkpt lat="49.91409" lon="2.22889">
        <ele>34.6</ele>
        <time>2022-02-02T14:13:14Z</time>
      </trkpt>
      <trkpt lat="49.91409" lon="2.22887">
        <ele>34.7</ele>
        <time>2022-02-02T14:13:15Z</time>
      </trkpt>
      <trkpt lat="49.91409" lon="2.22885">
        <ele>34.7</ele>
        <time>2022-02-02T14:13:16Z</time>
      </trkpt>
      <trkpt lat="49.91409" lon="2.22884">
        <ele>34.8</ele>
        <time>2022-02-02T14:13:17Z</time>
      </trkpt>
      <trkpt lat="49.91409" lon="2.22882">
        <ele>34.8</ele>
        <time>2022-02-02T14:13:18Z</time>
      </trkpt>
      <trkpt lat="49.9141" lon="2.2288">
        <ele>34.9</ele>
        <time>2022-02-02T14:13:19Z</time>
      </trkpt>
      <trkpt lat="49.9141" lon="2.22878">
        <ele>34.9</ele>
        <time>2022-02-02T14:13:21Z</time>
      </trkpt>
      <trkpt lat="49.9141" lon="2.22876">
        <ele>35</ele>
        <time>2022-02-02T14:13:22Z</time>
      </trkpt>
      <trkpt lat="49.9141" lon="2.22875">
        <ele>35.1</ele>
        <time>2022-02-02T14:13:23Z</time>
      </trkpt>
      <trkpt lat="49.9141" lon="2.22874">
        <ele>35.1</ele>
        <time>2022-02-02T14:13:24Z</time>
      </trkpt>
      <trkpt lat="49.9141" lon="2.22872">
        <ele>35.2</ele>
        <time>2022-02-02T14:13:25Z</time>
      </trkpt>
      <trkpt lat="49.91411" lon="2.22868">
        <ele>35.3</ele>
        <time>2022-02-02T14:13:26Z</time>
      </trkpt>
      <trkpt lat="49.91411" lon="2.22867">
        <ele>35.4</ele>
        <time>2022-02-02T14:13:27Z</time>
      </trkpt>
      <trkpt lat="49.91411" lon="2.22865">
        <ele>35.4</ele>
        <time>2022-02-02T14:13:29Z</time>
      </trkpt>
      <trkpt lat="49.91411" lon="2.22864">
        <ele>35.5</ele>
        <time>2022-02-02T14:13:30Z</time>
      </trkpt>
      <trkpt lat="49.91411" lon="2.22862">
        <ele>35.5</ele>
        <time>2022-02-02T14:13:31Z</time>
      </trkpt>
      <trkpt lat="49.91411" lon="2.22861">
        <ele>35.6</ele>
        <time>2022-02-02T14:13:32Z</time>
      </trkpt>
      <trkpt lat="49.91411" lon="2.22859">
        <ele>35.6</ele>
        <time>2022-02-02T14:13:33Z</time>
      </trkpt>
      <trkpt lat="49.91411" lon="2.22857">
        <ele>35.7</ele>
        <time>2022-02-02T14:13:34Z</time>
      </trkpt>
      <trkpt lat="49.91411" lon="2.22855">
        <ele>35.8</ele>
        <time>2022-02-02T14:13:36Z</time>
      </trkpt>
      <trkpt lat="49.91411" lon="2.22851">
        <ele>35.9</ele>
        <time>2022-02-02T14:13:37Z</time>
      </trkpt>
      <trkpt lat="49.91411" lon="2.2285">
        <ele>35.9</ele>
        <time>2022-02-02T14:13:38Z</time>
      </trkpt>
      <trkpt lat="49.91411" lon="2.22849">
        <ele>36</ele>
        <time>2022-02-02T14:13:39Z</time>
      </trkpt>
      <trkpt lat="49.91411" lon="2.22847">
        <ele>36.1</ele>
        <time>2022-02-02T14:13:40Z</time>
      </trkpt>
      <trkpt lat="49.91411" lon="2.22846">
        <ele>36.1</ele>
        <time>2022-02-02T14:13:41Z</time>
      </trkpt>
      <trkpt lat="49.91411" lon="2.22843">
        <ele>36.2</ele>
        <time>2022-02-02T14:13:42Z</time>
      </trkpt>
      <trkpt lat="49.91411" lon="2.22841">
        <ele>36.3</ele>
        <time>2022-02-02T14:13:44Z</time>
      </trkpt>
      <trkpt lat="49.91411" lon="2.22839">
        <ele>36.3</ele>
        <time>2022-02-02T14:13:45Z</time>
      </trkpt>
      <trkpt lat="49.91411" lon="2.22838">
        <ele>36.4</ele>
        <time>2022-02-02T14:13:46Z</time>
      </trkpt>
      <trkpt lat="49.9141" lon="2.22836">
        <ele>36.5</ele>
        <time>2022-02-02T14:13:47Z</time>
      </trkpt>
      <trkpt lat="49.91411" lon="2.22834">
        <ele>36.6</ele>
        <time>2022-02-02T14:13:48Z</time>
      </trkpt>
      <trkpt lat="49.91411" lon="2.22832">
        <ele>36.6</ele>
        <time>2022-02-02T14:13:50Z</time>
      </trkpt>
      <trkpt lat="49.91411" lon="2.22829">
        <ele>36.8</ele>
        <time>2022-02-02T14:13:51Z</time>
      </trkpt>
      <trkpt lat="49.91411" lon="2.22827">
        <ele>36.8</ele>
        <time>2022-02-02T14:13:52Z</time>
      </trkpt>
      <trkpt lat="49.91412" lon="2.22826">
        <ele>36.9</ele>
        <time>2022-02-02T14:13:53Z</time>
      </trkpt>
      <trkpt lat="49.91412" lon="2.22824">
        <ele>36.9</ele>
        <time>2022-02-02T14:13:54Z</time>
      </trkpt>
      <trkpt lat="49.91412" lon="2.22822">
        <ele>37</ele>
        <time>2022-02-02T14:13:55Z</time>
      </trkpt>
      <trkpt lat="49.91412" lon="2.2282">
        <ele>37.1</ele>
        <time>2022-02-02T14:13:57Z</time>
      </trkpt>
      <trkpt lat="49.91412" lon="2.22819">
        <ele>37.1</ele>
        <time>2022-02-02T14:13:58Z</time>
      </trkpt>
      <trkpt lat="49.91412" lon="2.22817">
        <ele>37.2</ele>
        <time>2022-02-02T14:13:59Z</time>
      </trkpt>
      <trkpt lat="49.91412" lon="2.22816">
        <ele>37.2</ele>
        <time>2022-02-02T14:14:00Z</time>
      </trkpt>
      <trkpt lat="49.91413" lon="2.22814">
        <ele>37.3</ele>
        <time>2022-02-02T14:14:01Z</time>
      </trkpt>
      <trkpt lat="49.91413" lon="2.22812">
        <ele>37.4</ele>
        <time>2022-02-02T14:14:02Z</time>
      </trkpt>
      <trkpt lat="49.91413" lon="2.2281">
        <ele>37.5</ele>
        <time>2022-02-02T14:14:03Z</time>
      </trkpt>
      <trkpt lat="49.91413" lon="2.22808">
        <ele>37.5</ele>
        <time>2022-02-02T14:14:05Z</time>
      </trkpt>
      <trkpt lat="49.91414" lon="2.22807">
        <ele>37.6</ele>
        <time>2022-02-02T14:14:06Z</time>
      </trkpt>
      <trkpt lat="49.91414" lon="2.22804">
        <ele>37.7</ele>
        <time>2022-02-02T14:14:07Z</time>
      </trkpt>
      <trkpt lat="49.91414" lon="2.22803">
        <ele>37.7</ele>
        <time>2022-02-02T14:14:08Z</time>
      </trkpt>
      <trkpt lat="49.91414" lon="2.22802">
        <ele>37.8</ele>
        <time>2022-02-02T14:14:09Z</time>
      </trkpt>
      <trkpt lat="49.91415" lon="2.22798">
        <ele>37.9</ele>
        <time>2022-02-02T14:14:10Z</time>
      </trkpt>
      <trkpt lat="49.91415" lon="2.22797">
        <ele>38</ele>
        <time>2022-02-02T14:14:12Z</time>
      </trkpt>
      <trkpt lat="49.91415" lon="2.22796">
        <ele>38</ele>
        <time>2022-02-02T14:14:13Z</time>
      </trkpt>
      <trkpt lat="49.91415" lon="2.22793">
        <ele>38.1</ele>
        <time>2022-02-02T14:14:14Z</time>
      </trkpt>
      <trkpt lat="49.91415" lon="2.22792">
        <ele>38.2</ele>
        <time>2022-02-02T14:14:15Z</time>
      </trkpt>
      <trkpt lat="49.91414" lon="2.2279">
        <ele>38.2</ele>
        <time>2022-02-02T14:14:16Z</time>
      </trkpt>
      <trkpt lat="49.91414" lon="2.22787">
        <ele>38.3</ele>
        <time>2022-02-02T14:14:18Z</time>
      </trkpt>
      <trkpt lat="49.91414" lon="2.22786">
        <ele>38.4</ele>
        <time>2022-02-02T14:14:19Z</time>
      </trkpt>
      <trkpt lat="49.91413" lon="2.22785">
        <ele>38.4</ele>
        <time>2022-02-02T14:14:20Z</time>
      </trkpt>
      <trkpt lat="49.91413" lon="2.22783">
        <ele>38.5</ele>
        <time>2022-02-02T14:14:21Z</time>
      </trkpt>
      <trkpt lat="49.91412" lon="2.22781">
        <ele>38.6</ele>
        <time>2022-02-02T14:14:22Z</time>
      </trkpt>
      <trkpt lat="49.91412" lon="2.22778">
        <ele>38.7</ele>
        <time>2022-02-02T14:14:24Z</time>
      </trkpt>
      <trkpt lat="49.91411" lon="2.22776">
        <ele>38.8</ele>
        <time>2022-02-02T14:14:25Z</time>
      </trkpt>
      <trkpt lat="49.91411" lon="2.22774">
        <ele>38.8</ele>
        <time>2022-02-02T14:14:26Z</time>
      </trkpt>
      <trkpt lat="49.9141" lon="2.22773">
        <ele>38.9</ele>
        <time>2022-02-02T14:14:27Z</time>
      </trkpt>
      <trkpt lat="49.9141" lon="2.22771">
        <ele>38.9</ele>
        <time>2022-02-02T14:14:29Z</time>
      </trkpt>
      <trkpt lat="49.9141" lon="2.22769">
        <ele>39</ele>
        <time>2022-02-02T14:14:30Z</time>
      </trkpt>
      <trkpt lat="49.9141" lon="2.22765">
        <ele>39.1</ele>
        <time>2022-02-02T14:14:32Z</time>
      </trkpt>
      <trkpt lat="49.9141" lon="2.22764">
        <ele>39.1</ele>
        <time>2022-02-02T14:14:33Z</time>
      </trkpt>
      <trkpt lat="49.9141" lon="2.22762">
        <ele>39.2</ele>
        <time>2022-02-02T14:14:34Z</time>
      </trkpt>
      <trkpt lat="49.9141" lon="2.22761">
        <ele>39.2</ele>
        <time>2022-02-02T14:14:35Z</time>
      </trkpt>
      <trkpt lat="49.9141" lon="2.22759">
        <ele>39.2</ele>
        <time>2022-02-02T14:14:36Z</time>
      </trkpt>
      <trkpt lat="49.9141" lon="2.22758">
        <ele>39.3</ele>
        <time>2022-02-02T14:14:37Z</time>
      </trkpt>
      <trkpt lat="49.9141" lon="2.22756">
        <ele>39.3</ele>
        <time>2022-02-02T14:14:38Z</time>
      </trkpt>
      <trkpt lat="49.9141" lon="2.22755">
        <ele>39.4</ele>
        <time>2022-02-02T14:14:39Z</time>
      </trkpt>
      <trkpt lat="49.9141" lon="2.22753">
        <ele>39.4</ele>
        <time>2022-02-02T14:14:40Z</time>
      </trkpt>
      <trkpt lat="49.91409" lon="2.2275">
        <ele>39.5</ele>
        <time>2022-02-02T14:14:41Z</time>
      </trkpt>
      <trkpt lat="49.91409" lon="2.22749">
        <ele>39.5</ele>
        <time>2022-02-02T14:14:42Z</time>
      </trkpt>
      <trkpt lat="49.91409" lon="2.22747">
        <ele>39.6</ele>
        <time>2022-02-02T14:14:43Z</time>
      </trkpt>
      <trkpt lat="49.91409" lon="2.22744">
        <ele>39.7</ele>
        <time>2022-02-02T14:14:44Z</time>
      </trkpt>
      <trkpt lat="49.91409" lon="2.22743">
        <ele>39.7</ele>
        <time>2022-02-02T14:14:45Z</time>
      </trkpt>
      <trkpt lat="49.91409" lon="2.22741">
        <ele>39.7</ele>
        <time>2022-02-02T14:14:46Z</time>
      </trkpt>
      <trkpt lat="49.91409" lon="2.22738">
        <ele>39.8</ele>
        <time>2022-02-02T14:14:47Z</time>
      </trkpt>
      <trkpt lat="49.91409" lon="2.22736">
        <ele>39.9</ele>
        <time>2022-02-02T14:14:49Z</time>
      </trkpt>
      <trkpt lat="49.91409" lon="2.22735">
        <ele>39.9</ele>
        <time>2022-02-02T14:14:50Z</time>
      </trkpt>
      <trkpt lat="49.9141" lon="2.22732">
        <ele>40</ele>
        <time>2022-02-02T14:14:51Z</time>
      </trkpt>
      <trkpt lat="49.9141" lon="2.2273">
        <ele>40</ele>
        <time>2022-02-02T14:14:52Z</time>
      </trkpt>
      <trkpt lat="49.9141" lon="2.22729">
        <ele>40.1</ele>
        <time>2022-02-02T14:14:53Z</time>
      </trkpt>
      <trkpt lat="49.9141" lon="2.22726">
        <ele>40.2</ele>
        <time>2022-02-02T14:14:54Z</time>
      </trkpt>
      <trkpt lat="49.9141" lon="2.22725">
        <ele>40.2</ele>
        <time>2022-02-02T14:14:56Z</time>
      </trkpt>
      <trkpt lat="49.9141" lon="2.22723">
        <ele>40.2</ele>
        <time>2022-02-02T14:14:57Z</time>
      </trkpt>
      <trkpt lat="49.9141" lon="2.2272">
        <ele>40.3</ele>
        <time>2022-02-02T14:14:58Z</time>
      </trkpt>
      <trkpt lat="49.9141" lon="2.22719">
        <ele>40.4</ele>
        <time>2022-02-02T14:14:59Z</time>
      </trkpt>
      <trkpt lat="49.9141" lon="2.22718">
        <ele>40.4</ele>
        <time>2022-02-02T14:15:00Z</time>
      </trkpt>
      <trkpt lat="49.9141" lon="2.22716">
        <ele>40.5</ele>
        <time>2022-02-02T14:15:01Z</time>
      </trkpt>
      <trkpt lat="49.9141" lon="2.22714">
        <ele>40.5</ele>
        <time>2022-02-02T14:15:03Z</time>
      </trkpt>
      <trkpt lat="49.9141" lon="2.22713">
        <ele>40.5</ele>
        <time>2022-02-02T14:15:04Z</time>
      </trkpt>
      <trkpt lat="49.9141" lon="2.2271">
        <ele>40.6</ele>
        <time>2022-02-02T14:15:05Z</time>
      </trkpt>
      <trkpt lat="49.9141" lon="2.22708">
        <ele>40.7</ele>
        <time>2022-02-02T14:15:06Z</time>
      </trkpt>
      <trkpt lat="49.91411" lon="2.22707">
        <ele>40.7</ele>
        <time>2022-02-02T14:15:07Z</time>
      </trkpt>
      <trkpt lat="49.91411" lon="2.22704">
        <ele>40.8</ele>
        <time>2022-02-02T14:15:08Z</time>
      </trkpt>
      <trkpt lat="49.91411" lon="2.22702">
        <ele>40.8</ele>
        <time>2022-02-02T14:15:09Z</time>
      </trkpt>
      <trkpt lat="49.91411" lon="2.22701">
        <ele>40.9</ele>
        <time>2022-02-02T14:15:11Z</time>
      </trkpt>
      <trkpt lat="49.91411" lon="2.22699">
        <ele>40.9</ele>
        <time>2022-02-02T14:15:12Z</time>
      </trkpt>
      <trkpt lat="49.91412" lon="2.22698">
        <ele>41</ele>
        <time>2022-02-02T14:15:13Z</time>
      </trkpt>
      <trkpt lat="49.91412" lon="2.22696">
        <ele>41</ele>
        <time>2022-02-02T14:15:14Z</time>
      </trkpt>
      <trkpt lat="49.91412" lon="2.22694">
        <ele>41.1</ele>
        <time>2022-02-02T14:15:15Z</time>
      </trkpt>
      <trkpt lat="49.91413" lon="2.22692">
        <ele>41.1</ele>
        <time>2022-02-02T14:15:16Z</time>
      </trkpt>
      <trkpt lat="49.91413" lon="2.2269">
        <ele>41.2</ele>
        <time>2022-02-02T14:15:17Z</time>
      </trkpt>
      <trkpt lat="49.91413" lon="2.22688">
        <ele>41.2</ele>
        <time>2022-02-02T14:15:18Z</time>
      </trkpt>
      <trkpt lat="49.91413" lon="2.22686">
        <ele>41.3</ele>
        <time>2022-02-02T14:15:20Z</time>
      </trkpt>
      <trkpt lat="49.91413" lon="2.22682">
        <ele>41.3</ele>
        <time>2022-02-02T14:15:21Z</time>
      </trkpt>
      <trkpt lat="49.91413" lon="2.22681">
        <ele>41.4</ele>
        <time>2022-02-02T14:15:22Z</time>
      </trkpt>
      <trkpt lat="49.91413" lon="2.2268">
        <ele>41.4</ele>
        <time>2022-02-02T14:15:23Z</time>
      </trkpt>
      <trkpt lat="49.91413" lon="2.22676">
        <ele>41.5</ele>
        <time>2022-02-02T14:15:24Z</time>
      </trkpt>
      <trkpt lat="49.91413" lon="2.22675">
        <ele>41.5</ele>
        <time>2022-02-02T14:15:25Z</time>
      </trkpt>
      <trkpt lat="49.91413" lon="2.22673">
        <ele>41.5</ele>
        <time>2022-02-02T14:15:26Z</time>
      </trkpt>
      <trkpt lat="49.91413" lon="2.2267">
        <ele>41.6</ele>
        <time>2022-02-02T14:15:27Z</time>
      </trkpt>
      <trkpt lat="49.91413" lon="2.22669">
        <ele>41.6</ele>
        <time>2022-02-02T14:15:29Z</time>
      </trkpt>
      <trkpt lat="49.91413" lon="2.22667">
        <ele>41.6</ele>
        <time>2022-02-02T14:15:30Z</time>
      </trkpt>
      <trkpt lat="49.91413" lon="2.22665">
        <ele>41.7</ele>
        <time>2022-02-02T14:15:31Z</time>
      </trkpt>
      <trkpt lat="49.91413" lon="2.22664">
        <ele>41.7</ele>
        <time>2022-02-02T14:15:32Z</time>
      </trkpt>
      <trkpt lat="49.91413" lon="2.22662">
        <ele>41.7</ele>
        <time>2022-02-02T14:15:33Z</time>
      </trkpt>
      <trkpt lat="49.91412" lon="2.2266">
        <ele>41.8</ele>
        <time>2022-02-02T14:15:35Z</time>
      </trkpt>
      <trkpt lat="49.91412" lon="2.22658">
        <ele>41.8</ele>
        <time>2022-02-02T14:15:36Z</time>
      </trkpt>
      <trkpt lat="49.91412" lon="2.22657">
        <ele>41.8</ele>
        <time>2022-02-02T14:15:37Z</time>
      </trkpt>
      <trkpt lat="49.91412" lon="2.22656">
        <ele>41.8</ele>
        <time>2022-02-02T14:15:38Z</time>
      </trkpt>
      <trkpt lat="49.91412" lon="2.22654">
        <ele>41.9</ele>
        <time>2022-02-02T14:15:39Z</time>
      </trkpt>
      <trkpt lat="49.91412" lon="2.22653">
        <ele>41.9</ele>
        <time>2022-02-02T14:15:41Z</time>
      </trkpt>
      <trkpt lat="49.91412" lon="2.22652">
        <ele>42.4</ele>
        <time>2022-02-02T14:15:42Z</time>
      </trkpt>
      <trkpt lat="49.91412" lon="2.22651">
        <ele>42.4</ele>
        <time>2022-02-02T14:15:43Z</time>
      </trkpt>
      <trkpt lat="49.91412" lon="2.22651">
        <ele>42.4</ele>
        <time>2022-02-02T14:15:44Z</time>
      </trkpt>
      <trkpt lat="49.91412" lon="2.2265">
        <ele>42.4</ele>
        <time>2022-02-02T14:15:45Z</time>
      </trkpt>
      <trkpt lat="49.91413" lon="2.2265">
        <ele>42.4</ele>
        <time>2022-02-02T14:15:46Z</time>
      </trkpt>
      <trkpt lat="49.91413" lon="2.2265">
        <ele>42.4</ele>
        <time>2022-02-02T14:15:48Z</time>
      </trkpt>
      <trkpt lat="49.91413" lon="2.22649">
        <ele>42.4</ele>
        <time>2022-02-02T14:15:49Z</time>
      </trkpt>
      <trkpt lat="49.91413" lon="2.22647">
        <ele>42.5</ele>
        <time>2022-02-02T14:15:50Z</time>
      </trkpt>
      <trkpt lat="49.91414" lon="2.22646">
        <ele>42.5</ele>
        <time>2022-02-02T14:15:52Z</time>
      </trkpt>
      <trkpt lat="49.91414" lon="2.22645">
        <ele>42.5</ele>
        <time>2022-02-02T14:15:53Z</time>
      </trkpt>
      <trkpt lat="49.91414" lon="2.22644">
        <ele>42.5</ele>
        <time>2022-02-02T14:15:54Z</time>
      </trkpt>
      <trkpt lat="49.91415" lon="2.22642">
        <ele>42.6</ele>
        <time>2022-02-02T14:15:55Z</time>
      </trkpt>
      <trkpt lat="49.91415" lon="2.22641">
        <ele>42.6</ele>
        <time>2022-02-02T14:15:56Z</time>
      </trkpt>
      <trkpt lat="49.91416" lon="2.22639">
        <ele>42.6</ele>
        <time>2022-02-02T14:15:57Z</time>
      </trkpt>
      <trkpt lat="49.91416" lon="2.22637">
        <ele>42.7</ele>
        <time>2022-02-02T14:15:59Z</time>
      </trkpt>
      <trkpt lat="49.91416" lon="2.22636">
        <ele>42.7</ele>
        <time>2022-02-02T14:16:00Z</time>
      </trkpt>
      <trkpt lat="49.91417" lon="2.22634">
        <ele>42.8</ele>
        <time>2022-02-02T14:16:01Z</time>
      </trkpt>
      <trkpt lat="49.91417" lon="2.22632">
        <ele>42.8</ele>
        <time>2022-02-02T14:16:02Z</time>
      </trkpt>
      <trkpt lat="49.91418" lon="2.2263">
        <ele>42.8</ele>
        <time>2022-02-02T14:16:03Z</time>
      </trkpt>
      <trkpt lat="49.91418" lon="2.22628">
        <ele>42.9</ele>
        <time>2022-02-02T14:16:04Z</time>
      </trkpt>
      <trkpt lat="49.91418" lon="2.22625">
        <ele>43</ele>
        <time>2022-02-02T14:16:06Z</time>
      </trkpt>
      <trkpt lat="49.91418" lon="2.22623">
        <ele>43</ele>
        <time>2022-02-02T14:16:07Z</time>
      </trkpt>
      <trkpt lat="49.91418" lon="2.22622">
        <ele>43</ele>
        <time>2022-02-02T14:16:08Z</time>
      </trkpt>
      <trkpt lat="49.91418" lon="2.2262">
        <ele>43.1</ele>
        <time>2022-02-02T14:16:09Z</time>
      </trkpt>
      <trkpt lat="49.91418" lon="2.22617">
        <ele>43.1</ele>
        <time>2022-02-02T14:16:10Z</time>
      </trkpt>
      <trkpt lat="49.91418" lon="2.22615">
        <ele>43.2</ele>
        <time>2022-02-02T14:16:12Z</time>
      </trkpt>
      <trkpt lat="49.91417" lon="2.22613">
        <ele>43.2</ele>
        <time>2022-02-02T14:16:13Z</time>
      </trkpt>
      <trkpt lat="49.91417" lon="2.2261">
        <ele>43.3</ele>
        <time>2022-02-02T14:16:14Z</time>
      </trkpt>
      <trkpt lat="49.91417" lon="2.22608">
        <ele>43.4</ele>
        <time>2022-02-02T14:16:15Z</time>
      </trkpt>
      <trkpt lat="49.91417" lon="2.22607">
        <ele>43.4</ele>
        <time>2022-02-02T14:16:16Z</time>
      </trkpt>
      <trkpt lat="49.91417" lon="2.22605">
        <ele>43.5</ele>
        <time>2022-02-02T14:16:17Z</time>
      </trkpt>
      <trkpt lat="49.91416" lon="2.22603">
        <ele>43.5</ele>
        <time>2022-02-02T14:16:18Z</time>
      </trkpt>
      <trkpt lat="49.91416" lon="2.22601">
        <ele>43.6</ele>
        <time>2022-02-02T14:16:20Z</time>
      </trkpt>
      <trkpt lat="49.91415" lon="2.22598">
        <ele>43.7</ele>
        <time>2022-02-02T14:16:21Z</time>
      </trkpt>
      <trkpt lat="49.91414" lon="2.22596">
        <ele>43.8</ele>
        <time>2022-02-02T14:16:22Z</time>
      </trkpt>
      <trkpt lat="49.91414" lon="2.22595">
        <ele>43.8</ele>
        <time>2022-02-02T14:16:23Z</time>
      </trkpt>
      <trkpt lat="49.91413" lon="2.22592">
        <ele>43.9</ele>
        <time>2022-02-02T14:16:24Z</time>
      </trkpt>
      <trkpt lat="49.91413" lon="2.22591">
        <ele>44</ele>
        <time>2022-02-02T14:16:25Z</time>
      </trkpt>
      <trkpt lat="49.91413" lon="2.22589">
        <ele>44.1</ele>
        <time>2022-02-02T14:16:27Z</time>
      </trkpt>
      <trkpt lat="49.91413" lon="2.22586">
        <ele>44.1</ele>
        <time>2022-02-02T14:16:28Z</time>
      </trkpt>
      <trkpt lat="49.91412" lon="2.22585">
        <ele>44.2</ele>
        <time>2022-02-02T14:16:29Z</time>
      </trkpt>
      <trkpt lat="49.91412" lon="2.22583">
        <ele>44.3</ele>
        <time>2022-02-02T14:16:30Z</time>
      </trkpt>
      <trkpt lat="49.91412" lon="2.22582">
        <ele>44.3</ele>
        <time>2022-02-02T14:16:31Z</time>
      </trkpt>
      <trkpt lat="49.91411" lon="2.2258">
        <ele>44.4</ele>
        <time>2022-02-02T14:16:32Z</time>
      </trkpt>
      <trkpt lat="49.91411" lon="2.22579">
        <ele>44.5</ele>
        <time>2022-02-02T14:16:34Z</time>
      </trkpt>
      <trkpt lat="49.9141" lon="2.22577">
        <ele>44.5</ele>
        <time>2022-02-02T14:16:35Z</time>
      </trkpt>
      <trkpt lat="49.9141" lon="2.22575">
        <ele>44.6</ele>
        <time>2022-02-02T14:16:36Z</time>
      </trkpt>
      <trkpt lat="49.9141" lon="2.22574">
        <ele>44.7</ele>
        <time>2022-02-02T14:16:37Z</time>
      </trkpt>
      <trkpt lat="49.9141" lon="2.22572">
        <ele>44.7</ele>
        <time>2022-02-02T14:16:38Z</time>
      </trkpt>
      <trkpt lat="49.9141" lon="2.2257">
        <ele>44.8</ele>
        <time>2022-02-02T14:16:39Z</time>
      </trkpt>
      <trkpt lat="49.9141" lon="2.22569">
        <ele>44.9</ele>
        <time>2022-02-02T14:16:41Z</time>
      </trkpt>
      <trkpt lat="49.91409" lon="2.22567">
        <ele>44.9</ele>
        <time>2022-02-02T14:16:42Z</time>
      </trkpt>
      <trkpt lat="49.91409" lon="2.22565">
        <ele>45</ele>
        <time>2022-02-02T14:16:43Z</time>
      </trkpt>
      <trkpt lat="49.91409" lon="2.22563">
        <ele>45.1</ele>
        <time>2022-02-02T14:16:44Z</time>
      </trkpt>
      <trkpt lat="49.91409" lon="2.22562">
        <ele>45.1</ele>
        <time>2022-02-02T14:16:45Z</time>
      </trkpt>
      <trkpt lat="49.91409" lon="2.2256">
        <ele>45.2</ele>
        <time>2022-02-02T14:16:47Z</time>
      </trkpt>
      <trkpt lat="49.91409" lon="2.22558">
        <ele>45.3</ele>
        <time>2022-02-02T14:16:48Z</time>
      </trkpt>
      <trkpt lat="49.91408" lon="2.22557">
        <ele>45.3</ele>
        <time>2022-02-02T14:16:49Z</time>
      </trkpt>
      <trkpt lat="49.91408" lon="2.22555">
        <ele>45.4</ele>
        <time>2022-02-02T14:16:50Z</time>
      </trkpt>
      <trkpt lat="49.91408" lon="2.22553">
        <ele>45.5</ele>
        <time>2022-02-02T14:16:51Z</time>
      </trkpt>
      <trkpt lat="49.91407" lon="2.22551">
        <ele>45.6</ele>
        <time>2022-02-02T14:16:52Z</time>
      </trkpt>
      <trkpt lat="49.91407" lon="2.22549">
        <ele>45.6</ele>
        <time>2022-02-02T14:16:54Z</time>
      </trkpt>
      <trkpt lat="49.91407" lon="2.22547">
        <ele>45.7</ele>
        <time>2022-02-02T14:16:55Z</time>
      </trkpt>
      <trkpt lat="49.91406" lon="2.22544">
        <ele>45.8</ele>
        <time>2022-02-02T14:16:56Z</time>
      </trkpt>
      <trkpt lat="49.91406" lon="2.22543">
        <ele>45.9</ele>
        <time>2022-02-02T14:16:57Z</time>
      </trkpt>
      <trkpt lat="49.91406" lon="2.22541">
        <ele>46</ele>
        <time>2022-02-02T14:16:58Z</time>
      </trkpt>
      <trkpt lat="49.91406" lon="2.22538">
        <ele>46.1</ele>
        <time>2022-02-02T14:16:59Z</time>
      </trkpt>
      <trkpt lat="49.91405" lon="2.22537">
        <ele>46.2</ele>
        <time>2022-02-02T14:17:01Z</time>
      </trkpt>
      <trkpt lat="49.91405" lon="2.22536">
        <ele>46.2</ele>
        <time>2022-02-02T14:17:02Z</time>
      </trkpt>
      <trkpt lat="49.91405" lon="2.22533">
        <ele>46.3</ele>
        <time>2022-02-02T14:17:03Z</time>
      </trkpt>
      <trkpt lat="49.91405" lon="2.22531">
        <ele>46.4</ele>
        <time>2022-02-02T14:17:04Z</time>
      </trkpt>
      <trkpt lat="49.91405" lon="2.22529">
        <ele>46.5</ele>
        <time>2022-02-02T14:17:05Z</time>
      </trkpt>
      <trkpt lat="49.91404" lon="2.22527">
        <ele>46.6</ele>
        <time>2022-02-02T14:17:07Z</time>
      </trkpt>
      <trkpt lat="49.91404" lon="2.22526">
        <ele>46.6</ele>
        <time>2022-02-02T14:17:08Z</time>
      </trkpt>
      <trkpt lat="49.91404" lon="2.22523">
        <ele>46.8</ele>
        <time>2022-02-02T14:17:09Z</time>
      </trkpt>
      <trkpt lat="49.91404" lon="2.22521">
        <ele>46.8</ele>
        <time>2022-02-02T14:17:10Z</time>
      </trkpt>
      <trkpt lat="49.91403" lon="2.2252">
        <ele>46.9</ele>
        <time>2022-02-02T14:17:11Z</time>
      </trkpt>
      <trkpt lat="49.91403" lon="2.22518">
        <ele>47</ele>
        <time>2022-02-02T14:17:12Z</time>
      </trkpt>
      <trkpt lat="49.91403" lon="2.22517">
        <ele>47</ele>
        <time>2022-02-02T14:17:14Z</time>
      </trkpt>
      <trkpt lat="49.91403" lon="2.22515">
        <ele>47.1</ele>
        <time>2022-02-02T14:17:15Z</time>
      </trkpt>
      <trkpt lat="49.91402" lon="2.22512">
        <ele>47.2</ele>
        <time>2022-02-02T14:17:16Z</time>
      </trkpt>
      <trkpt lat="49.91402" lon="2.22511">
        <ele>47.3</ele>
        <time>2022-02-02T14:17:17Z</time>
      </trkpt>
      <trkpt lat="49.91402" lon="2.22509">
        <ele>47.3</ele>
        <time>2022-02-02T14:17:18Z</time>
      </trkpt>
      <trkpt lat="49.91402" lon="2.22506">
        <ele>47.5</ele>
        <time>2022-02-02T14:17:19Z</time>
      </trkpt>
      <trkpt lat="49.91402" lon="2.22505">
        <ele>47.5</ele>
        <time>2022-02-02T14:17:21Z</time>
      </trkpt>
      <trkpt lat="49.91402" lon="2.22503">
        <ele>47.6</ele>
        <time>2022-02-02T14:17:22Z</time>
      </trkpt>
      <trkpt lat="49.91402" lon="2.225">
        <ele>47.7</ele>
        <time>2022-02-02T14:17:23Z</time>
      </trkpt>
      <trkpt lat="49.91402" lon="2.22499">
        <ele>47.7</ele>
        <time>2022-02-02T14:17:24Z</time>
      </trkpt>
      <trkpt lat="49.91402" lon="2.22497">
        <ele>47.8</ele>
        <time>2022-02-02T14:17:25Z</time>
      </trkpt>
      <trkpt lat="49.91402" lon="2.22495">
        <ele>47.9</ele>
        <time>2022-02-02T14:17:26Z</time>
      </trkpt>
      <trkpt lat="49.91402" lon="2.22494">
        <ele>47.9</ele>
        <time>2022-02-02T14:17:27Z</time>
      </trkpt>
      <trkpt lat="49.91402" lon="2.22492">
        <ele>48</ele>
        <time>2022-02-02T14:17:29Z</time>
      </trkpt>
      <trkpt lat="49.91402" lon="2.2249">
        <ele>48.1</ele>
        <time>2022-02-02T14:17:30Z</time>
      </trkpt>
      <trkpt lat="49.91401" lon="2.22487">
        <ele>48.1</ele>
        <time>2022-02-02T14:17:31Z</time>
      </trkpt>
      <trkpt lat="49.91401" lon="2.22485">
        <ele>48.2</ele>
        <time>2022-02-02T14:17:32Z</time>
      </trkpt>
      <trkpt lat="49.91401" lon="2.22483">
        <ele>48.3</ele>
        <time>2022-02-02T14:17:33Z</time>
      </trkpt>
      <trkpt lat="49.914" lon="2.22481">
        <ele>48.4</ele>
        <time>2022-02-02T14:17:34Z</time>
      </trkpt>
      <trkpt lat="49.914" lon="2.22479">
        <ele>48.4</ele>
        <time>2022-02-02T14:17:36Z</time>
      </trkpt>
      <trkpt lat="49.91399" lon="2.22477">
        <ele>48.5</ele>
        <time>2022-02-02T14:17:37Z</time>
      </trkpt>
      <trkpt lat="49.91399" lon="2.22475">
        <ele>48.6</ele>
        <time>2022-02-02T14:17:38Z</time>
      </trkpt>
      <trkpt lat="49.91398" lon="2.22473">
        <ele>48.6</ele>
        <time>2022-02-02T14:17:39Z</time>
      </trkpt>
      <trkpt lat="49.91397" lon="2.22471">
        <ele>48.7</ele>
        <time>2022-02-02T14:17:40Z</time>
      </trkpt>
      <trkpt lat="49.91397" lon="2.22469">
        <ele>48.8</ele>
        <time>2022-02-02T14:17:41Z</time>
      </trkpt>
      <trkpt lat="49.91396" lon="2.22467">
        <ele>48.8</ele>
        <time>2022-02-02T14:17:42Z</time>
      </trkpt>
      <trkpt lat="49.91396" lon="2.22465">
        <ele>48.9</ele>
        <time>2022-02-02T14:17:44Z</time>
      </trkpt>
      <trkpt lat="49.91396" lon="2.22462">
        <ele>49</ele>
        <time>2022-02-02T14:17:45Z</time>
      </trkpt>
      <trkpt lat="49.91396" lon="2.2246">
        <ele>49</ele>
        <time>2022-02-02T14:17:46Z</time>
      </trkpt>
      <trkpt lat="49.91395" lon="2.22459">
        <ele>49</ele>
        <time>2022-02-02T14:17:47Z</time>
      </trkpt>
      <trkpt lat="49.91395" lon="2.22457">
        <ele>49.1</ele>
        <time>2022-02-02T14:17:48Z</time>
      </trkpt>
      <trkpt lat="49.91395" lon="2.22455">
        <ele>49.1</ele>
        <time>2022-02-02T14:17:49Z</time>
      </trkpt>
      <trkpt lat="49.91395" lon="2.22453">
        <ele>49.2</ele>
        <time>2022-02-02T14:17:50Z</time>
      </trkpt>
      <trkpt lat="49.91395" lon="2.22451">
        <ele>49.2</ele>
        <time>2022-02-02T14:17:52Z</time>
      </trkpt>
      <trkpt lat="49.91395" lon="2.22449">
        <ele>49.3</ele>
        <time>2022-02-02T14:17:53Z</time>
      </trkpt>
      <trkpt lat="49.91395" lon="2.22447">
        <ele>49.3</ele>
        <time>2022-02-02T14:17:54Z</time>
      </trkpt>
      <trkpt lat="49.91395" lon="2.22445">
        <ele>49.4</ele>
        <time>2022-02-02T14:17:55Z</time>
      </trkpt>
      <trkpt lat="49.91395" lon="2.22444">
        <ele>49.4</ele>
        <time>2022-02-02T14:17:56Z</time>
      </trkpt>
      <trkpt lat="49.91395" lon="2.22442">
        <ele>49.5</ele>
        <time>2022-02-02T14:17:57Z</time>
      </trkpt>
      <trkpt lat="49.91395" lon="2.2244">
        <ele>49.5</ele>
        <time>2022-02-02T14:17:58Z</time>
      </trkpt>
      <trkpt lat="49.91395" lon="2.22439">
        <ele>49.6</ele>
        <time>2022-02-02T14:17:59Z</time>
      </trkpt>
      <trkpt lat="49.91395" lon="2.22437">
        <ele>49.6</ele>
        <time>2022-02-02T14:18:00Z</time>
      </trkpt>
      <trkpt lat="49.91395" lon="2.22436">
        <ele>49.6</ele>
        <time>2022-02-02T14:18:01Z</time>
      </trkpt>
      <trkpt lat="49.91395" lon="2.22435">
        <ele>49.7</ele>
        <time>2022-02-02T14:18:03Z</time>
      </trkpt>
      <trkpt lat="49.91395" lon="2.22433">
        <ele>49.7</ele>
        <time>2022-02-02T14:18:04Z</time>
      </trkpt>
      <trkpt lat="49.91395" lon="2.22432">
        <ele>49.7</ele>
        <time>2022-02-02T14:18:05Z</time>
      </trkpt>
      <trkpt lat="49.91395" lon="2.2243">
        <ele>49.7</ele>
        <time>2022-02-02T14:18:06Z</time>
      </trkpt>
      <trkpt lat="49.91395" lon="2.22428">
        <ele>49.7</ele>
        <time>2022-02-02T14:18:07Z</time>
      </trkpt>
      <trkpt lat="49.91395" lon="2.22426">
        <ele>49.8</ele>
        <time>2022-02-02T14:18:08Z</time>
      </trkpt>
      <trkpt lat="49.91395" lon="2.22424">
        <ele>49.8</ele>
        <time>2022-02-02T14:18:09Z</time>
      </trkpt>
      <trkpt lat="49.91395" lon="2.22422">
        <ele>49.8</ele>
        <time>2022-02-02T14:18:10Z</time>
      </trkpt>
      <trkpt lat="49.91395" lon="2.22421">
        <ele>49.8</ele>
        <time>2022-02-02T14:18:11Z</time>
      </trkpt>
      <trkpt lat="49.91395" lon="2.22419">
        <ele>49.8</ele>
        <time>2022-02-02T14:18:12Z</time>
      </trkpt>
      <trkpt lat="49.91395" lon="2.22417">
        <ele>49.8</ele>
        <time>2022-02-02T14:18:14Z</time>
      </trkpt>
      <trkpt lat="49.91394" lon="2.22416">
        <ele>49.8</ele>
        <time>2022-02-02T14:18:15Z</time>
      </trkpt>
      <trkpt lat="49.91394" lon="2.22414">
        <ele>49.8</ele>
        <time>2022-02-02T14:18:16Z</time>
      </trkpt>
      <trkpt lat="49.91394" lon="2.22412">
        <ele>49.9</ele>
        <time>2022-02-02T14:18:17Z</time>
      </trkpt>
      <trkpt lat="49.91394" lon="2.2241">
        <ele>49.9</ele>
        <time>2022-02-02T14:18:18Z</time>
      </trkpt>
      <trkpt lat="49.91394" lon="2.22408">
        <ele>49.9</ele>
        <time>2022-02-02T14:18:19Z</time>
      </trkpt>
      <trkpt lat="49.91394" lon="2.22404">
        <ele>50</ele>
        <time>2022-02-02T14:18:20Z</time>
      </trkpt>
      <trkpt lat="49.91394" lon="2.22403">
        <ele>50</ele>
        <time>2022-02-02T14:18:21Z</time>
      </trkpt>
      <trkpt lat="49.91394" lon="2.22401">
        <ele>50</ele>
        <time>2022-02-02T14:18:23Z</time>
      </trkpt>
      <trkpt lat="49.91394" lon="2.224">
        <ele>50.1</ele>
        <time>2022-02-02T14:18:24Z</time>
      </trkpt>
      <trkpt lat="49.91394" lon="2.22398">
        <ele>50.1</ele>
        <time>2022-02-02T14:18:25Z</time>
      </trkpt>
      <trkpt lat="49.91394" lon="2.22397">
        <ele>50.1</ele>
        <time>2022-02-02T14:18:26Z</time>
      </trkpt>
      <trkpt lat="49.91394" lon="2.22394">
        <ele>50.2</ele>
        <time>2022-02-02T14:18:27Z</time>
      </trkpt>
      <trkpt lat="49.91394" lon="2.22392">
        <ele>50.2</ele>
        <time>2022-02-02T14:18:28Z</time>
      </trkpt>
      <trkpt lat="49.91394" lon="2.22391">
        <ele>50.3</ele>
        <time>2022-02-02T14:18:29Z</time>
      </trkpt>
      <trkpt lat="49.91394" lon="2.2239">
        <ele>50.3</ele>
        <time>2022-02-02T14:18:30Z</time>
      </trkpt>
      <trkpt lat="49.91395" lon="2.22388">
        <ele>50.3</ele>
        <time>2022-02-02T14:18:32Z</time>
      </trkpt>
      <trkpt lat="49.91395" lon="2.22386">
        <ele>50.4</ele>
        <time>2022-02-02T14:18:33Z</time>
      </trkpt>
      <trkpt lat="49.91395" lon="2.22382">
        <ele>50.4</ele>
        <time>2022-02-02T14:18:34Z</time>
      </trkpt>
      <trkpt lat="49.91395" lon="2.22381">
        <ele>50.5</ele>
        <time>2022-02-02T14:18:35Z</time>
      </trkpt>
      <trkpt lat="49.91395" lon="2.2238">
        <ele>50.5</ele>
        <time>2022-02-02T14:18:36Z</time>
      </trkpt>
      <trkpt lat="49.91395" lon="2.22378">
        <ele>50.5</ele>
        <time>2022-02-02T14:18:37Z</time>
      </trkpt>
      <trkpt lat="49.91396" lon="2.22375">
        <ele>50.6</ele>
        <time>2022-02-02T14:18:38Z</time>
      </trkpt>
      <trkpt lat="49.91396" lon="2.22372">
        <ele>50.6</ele>
        <time>2022-02-02T14:18:39Z</time>
      </trkpt>
      <trkpt lat="49.91396" lon="2.22371">
        <ele>50.7</ele>
        <time>2022-02-02T14:18:40Z</time>
      </trkpt>
      <trkpt lat="49.91396" lon="2.2237">
        <ele>50.7</ele>
        <time>2022-02-02T14:18:41Z</time>
      </trkpt>
      <trkpt lat="49.91397" lon="2.22368">
        <ele>50.7</ele>
        <time>2022-02-02T14:18:42Z</time>
      </trkpt>
      <trkpt lat="49.91397" lon="2.22367">
        <ele>50.8</ele>
        <time>2022-02-02T14:18:44Z</time>
      </trkpt>
      <trkpt lat="49.91397" lon="2.22365">
        <ele>50.8</ele>
        <time>2022-02-02T14:18:45Z</time>
      </trkpt>
      <trkpt lat="49.91397" lon="2.22362">
        <ele>50.9</ele>
        <time>2022-02-02T14:18:46Z</time>
      </trkpt>
      <trkpt lat="49.91397" lon="2.22361">
        <ele>50.9</ele>
        <time>2022-02-02T14:18:47Z</time>
      </trkpt>
      <trkpt lat="49.91398" lon="2.22359">
        <ele>50.9</ele>
        <time>2022-02-02T14:18:48Z</time>
      </trkpt>
      <trkpt lat="49.91398" lon="2.22357">
        <ele>51</ele>
        <time>2022-02-02T14:18:49Z</time>
      </trkpt>
      <trkpt lat="49.91398" lon="2.22355">
        <ele>51</ele>
        <time>2022-02-02T14:18:50Z</time>
      </trkpt>
      <trkpt lat="49.91399" lon="2.22352">
        <ele>51.1</ele>
        <time>2022-02-02T14:18:51Z</time>
      </trkpt>
      <trkpt lat="49.91399" lon="2.2235">
        <ele>51.1</ele>
        <time>2022-02-02T14:18:52Z</time>
      </trkpt>
      <trkpt lat="49.91399" lon="2.22349">
        <ele>51.2</ele>
        <time>2022-02-02T14:18:53Z</time>
      </trkpt>
      <trkpt lat="49.914" lon="2.22346">
        <ele>51.2</ele>
        <time>2022-02-02T14:18:55Z</time>
      </trkpt>
      <trkpt lat="49.914" lon="2.22345">
        <ele>51.3</ele>
        <time>2022-02-02T14:18:56Z</time>
      </trkpt>
      <trkpt lat="49.914" lon="2.22343">
        <ele>51.3</ele>
        <time>2022-02-02T14:18:57Z</time>
      </trkpt>
      <trkpt lat="49.914" lon="2.22342">
        <ele>51.3</ele>
        <time>2022-02-02T14:18:58Z</time>
      </trkpt>
      <trkpt lat="49.91401" lon="2.2234">
        <ele>51.3</ele>
        <time>2022-02-02T14:18:59Z</time>
      </trkpt>
      <trkpt lat="49.91401" lon="2.22338">
        <ele>51.4</ele>
        <time>2022-02-02T14:19:00Z</time>
      </trkpt>
      <trkpt lat="49.91401" lon="2.22335">
        <ele>51.4</ele>
        <time>2022-02-02T14:19:01Z</time>
      </trkpt>
      <trkpt lat="49.91401" lon="2.22334">
        <ele>51.4</ele>
        <time>2022-02-02T14:19:02Z</time>
      </trkpt>
      <trkpt lat="49.91401" lon="2.22332">
        <ele>51.5</ele>
        <time>2022-02-02T14:19:03Z</time>
      </trkpt>
      <trkpt lat="49.91402" lon="2.22329">
        <ele>51.5</ele>
        <time>2022-02-02T14:19:04Z</time>
      </trkpt>
      <trkpt lat="49.91402" lon="2.22328">
        <ele>51.5</ele>
        <time>2022-02-02T14:19:06Z</time>
      </trkpt>
      <trkpt lat="49.91402" lon="2.22327">
        <ele>51.5</ele>
        <time>2022-02-02T14:19:07Z</time>
      </trkpt>
      <trkpt lat="49.91402" lon="2.22325">
        <ele>51.6</ele>
        <time>2022-02-02T14:19:08Z</time>
      </trkpt>
      <trkpt lat="49.91403" lon="2.22323">
        <ele>51.6</ele>
        <time>2022-02-02T14:19:09Z</time>
      </trkpt>
      <trkpt lat="49.91403" lon="2.22321">
        <ele>51.6</ele>
        <time>2022-02-02T14:19:10Z</time>
      </trkpt>
      <trkpt lat="49.91404" lon="2.22318">
        <ele>51.7</ele>
        <time>2022-02-02T14:19:11Z</time>
      </trkpt>
      <trkpt lat="49.91404" lon="2.22317">
        <ele>51.7</ele>
        <time>2022-02-02T14:19:12Z</time>
      </trkpt>
      <trkpt lat="49.91405" lon="2.22316">
        <ele>51.7</ele>
        <time>2022-02-02T14:19:13Z</time>
      </trkpt>
      <trkpt lat="49.91405" lon="2.22314">
        <ele>51.7</ele>
        <time>2022-02-02T14:19:14Z</time>
      </trkpt>
      <trkpt lat="49.91406" lon="2.22312">
        <ele>51.8</ele>
        <time>2022-02-02T14:19:15Z</time>
      </trkpt>
      <trkpt lat="49.91407" lon="2.2231">
        <ele>51.8</ele>
        <time>2022-02-02T14:19:17Z</time>
      </trkpt>
      <trkpt lat="49.91407" lon="2.22308">
        <ele>51.9</ele>
        <time>2022-02-02T14:19:18Z</time>
      </trkpt>
      <trkpt lat="49.91408" lon="2.22306">
        <ele>51.9</ele>
        <time>2022-02-02T14:19:19Z</time>
      </trkpt>
      <trkpt lat="49.91408" lon="2.22304">
        <ele>52</ele>
        <time>2022-02-02T14:19:20Z</time>
      </trkpt>
      <trkpt lat="49.91409" lon="2.22301">
        <ele>52.1</ele>
        <time>2022-02-02T14:19:21Z</time>
      </trkpt>
      <trkpt lat="49.9141" lon="2.22299">
        <ele>52.2</ele>
        <time>2022-02-02T14:19:22Z</time>
      </trkpt>
      <trkpt lat="49.9141" lon="2.22297">
        <ele>52.2</ele>
        <time>2022-02-02T14:19:23Z</time>
      </trkpt>
      <trkpt lat="49.91411" lon="2.22295">
        <ele>52.3</ele>
        <time>2022-02-02T14:19:24Z</time>
      </trkpt>
      <trkpt lat="49.91411" lon="2.22293">
        <ele>52.4</ele>
        <time>2022-02-02T14:19:26Z</time>
      </trkpt>
      <trkpt lat="49.91411" lon="2.22291">
        <ele>52.4</ele>
        <time>2022-02-02T14:19:27Z</time>
      </trkpt>
      <trkpt lat="49.91412" lon="2.22288">
        <ele>52.5</ele>
        <time>2022-02-02T14:19:28Z</time>
      </trkpt>
      <trkpt lat="49.91412" lon="2.22287">
        <ele>52.6</ele>
        <time>2022-02-02T14:19:29Z</time>
      </trkpt>
      <trkpt lat="49.91412" lon="2.22285">
        <ele>52.6</ele>
        <time>2022-02-02T14:19:30Z</time>
      </trkpt>
      <trkpt lat="49.91413" lon="2.22283">
        <ele>52.7</ele>
        <time>2022-02-02T14:19:31Z</time>
      </trkpt>
      <trkpt lat="49.91413" lon="2.22281">
        <ele>52.7</ele>
        <time>2022-02-02T14:19:32Z</time>
      </trkpt>
      <trkpt lat="49.91414" lon="2.22278">
        <ele>52.8</ele>
        <time>2022-02-02T14:19:34Z</time>
      </trkpt>
      <trkpt lat="49.91414" lon="2.22277">
        <ele>52.9</ele>
        <time>2022-02-02T14:19:35Z</time>
      </trkpt>
      <trkpt lat="49.91414" lon="2.22276">
        <ele>52.9</ele>
        <time>2022-02-02T14:19:36Z</time>
      </trkpt>
      <trkpt lat="49.91414" lon="2.22272">
        <ele>53</ele>
        <time>2022-02-02T14:19:37Z</time>
      </trkpt>
      <trkpt lat="49.91414" lon="2.22271">
        <ele>53</ele>
        <time>2022-02-02T14:19:38Z</time>
      </trkpt>
      <trkpt lat="49.91414" lon="2.2227">
        <ele>53</ele>
        <time>2022-02-02T14:19:39Z</time>
      </trkpt>
      <trkpt lat="49.91414" lon="2.22268">
        <ele>53.1</ele>
        <time>2022-02-02T14:19:40Z</time>
      </trkpt>
      <trkpt lat="49.91414" lon="2.22266">
        <ele>53.1</ele>
        <time>2022-02-02T14:19:41Z</time>
      </trkpt>
      <trkpt lat="49.91414" lon="2.22265">
        <ele>53.1</ele>
        <time>2022-02-02T14:19:42Z</time>
      </trkpt>
      <trkpt lat="49.91414" lon="2.22263">
        <ele>53.2</ele>
        <time>2022-02-02T14:19:43Z</time>
      </trkpt>
      <trkpt lat="49.91413" lon="2.22262">
        <ele>53.2</ele>
        <time>2022-02-02T14:19:44Z</time>
      </trkpt>
      <trkpt lat="49.91413" lon="2.2226">
        <ele>53.2</ele>
        <time>2022-02-02T14:19:45Z</time>
      </trkpt>
      <trkpt lat="49.91413" lon="2.22259">
        <ele>53.2</ele>
        <time>2022-02-02T14:19:46Z</time>
      </trkpt>
      <trkpt lat="49.91414" lon="2.22257">
        <ele>53.3</ele>
        <time>2022-02-02T14:19:47Z</time>
      </trkpt>
      <trkpt lat="49.91414" lon="2.22255">
        <ele>53.3</ele>
        <time>2022-02-02T14:19:49Z</time>
      </trkpt>
      <trkpt lat="49.91415" lon="2.22252">
        <ele>53.4</ele>
        <time>2022-02-02T14:19:50Z</time>
      </trkpt>
      <trkpt lat="49.91415" lon="2.2225">
        <ele>53.4</ele>
        <time>2022-02-02T14:19:51Z</time>
      </trkpt>
      <trkpt lat="49.91416" lon="2.22249">
        <ele>53.4</ele>
        <time>2022-02-02T14:19:52Z</time>
      </trkpt>
      <trkpt lat="49.91416" lon="2.22247">
        <ele>53.4</ele>
        <time>2022-02-02T14:19:53Z</time>
      </trkpt>
      <trkpt lat="49.91416" lon="2.22246">
        <ele>53.5</ele>
        <time>2022-02-02T14:19:54Z</time>
      </trkpt>
      <trkpt lat="49.91417" lon="2.22244">
        <ele>53.5</ele>
        <time>2022-02-02T14:19:55Z</time>
      </trkpt>
      <trkpt lat="49.91417" lon="2.22241">
        <ele>53.6</ele>
        <time>2022-02-02T14:19:57Z</time>
      </trkpt>
      <trkpt lat="49.91418" lon="2.22239">
        <ele>53.6</ele>
        <time>2022-02-02T14:19:58Z</time>
      </trkpt>
      <trkpt lat="49.91418" lon="2.22238">
        <ele>53.6</ele>
        <time>2022-02-02T14:19:59Z</time>
      </trkpt>
      <trkpt lat="49.91418" lon="2.22236">
        <ele>53.6</ele>
        <time>2022-02-02T14:20:00Z</time>
      </trkpt>
      <trkpt lat="49.91419" lon="2.22234">
        <ele>53.7</ele>
        <time>2022-02-02T14:20:01Z</time>
      </trkpt>
      <trkpt lat="49.91419" lon="2.22231">
        <ele>53.7</ele>
        <time>2022-02-02T14:20:03Z</time>
      </trkpt>
      <trkpt lat="49.9142" lon="2.22228">
        <ele>53.8</ele>
        <time>2022-02-02T14:20:04Z</time>
      </trkpt>
      <trkpt lat="49.9142" lon="2.22227">
        <ele>53.8</ele>
        <time>2022-02-02T14:20:05Z</time>
      </trkpt>
      <trkpt lat="49.9142" lon="2.22226">
        <ele>53.8</ele>
        <time>2022-02-02T14:20:06Z</time>
      </trkpt>
      <trkpt lat="49.91421" lon="2.22223">
        <ele>53.8</ele>
        <time>2022-02-02T14:20:07Z</time>
      </trkpt>
      <trkpt lat="49.91421" lon="2.22221">
        <ele>53.9</ele>
        <time>2022-02-02T14:20:08Z</time>
      </trkpt>
      <trkpt lat="49.91422" lon="2.22219">
        <ele>53.9</ele>
        <time>2022-02-02T14:20:09Z</time>
      </trkpt>
      <trkpt lat="49.91423" lon="2.22217">
        <ele>54</ele>
        <time>2022-02-02T14:20:10Z</time>
      </trkpt>
      <trkpt lat="49.91423" lon="2.22215">
        <ele>54</ele>
        <time>2022-02-02T14:20:11Z</time>
      </trkpt>
      <trkpt lat="49.91424" lon="2.22213">
        <ele>54</ele>
        <time>2022-02-02T14:20:13Z</time>
      </trkpt>
      <trkpt lat="49.91424" lon="2.22212">
        <ele>54</ele>
        <time>2022-02-02T14:20:14Z</time>
      </trkpt>
      <trkpt lat="49.91425" lon="2.2221">
        <ele>54.1</ele>
        <time>2022-02-02T14:20:15Z</time>
      </trkpt>
      <trkpt lat="49.91425" lon="2.22208">
        <ele>54.1</ele>
        <time>2022-02-02T14:20:16Z</time>
      </trkpt>
      <trkpt lat="49.91426" lon="2.22204">
        <ele>54.2</ele>
        <time>2022-02-02T14:20:17Z</time>
      </trkpt>
      <trkpt lat="49.91426" lon="2.22203">
        <ele>54.2</ele>
        <time>2022-02-02T14:20:19Z</time>
      </trkpt>
      <trkpt lat="49.91426" lon="2.22201">
        <ele>54.2</ele>
        <time>2022-02-02T14:20:20Z</time>
      </trkpt>
      <trkpt lat="49.91427" lon="2.22199">
        <ele>54.2</ele>
        <time>2022-02-02T14:20:21Z</time>
      </trkpt>
      <trkpt lat="49.91427" lon="2.22197">
        <ele>54.3</ele>
        <time>2022-02-02T14:20:22Z</time>
      </trkpt>
      <trkpt lat="49.91428" lon="2.22195">
        <ele>54.3</ele>
        <time>2022-02-02T14:20:23Z</time>
      </trkpt>
      <trkpt lat="49.91428" lon="2.22193">
        <ele>54.3</ele>
        <time>2022-02-02T14:20:24Z</time>
      </trkpt>
      <trkpt lat="49.91428" lon="2.2219">
        <ele>54.4</ele>
        <time>2022-02-02T14:20:26Z</time>
      </trkpt>
      <trkpt lat="49.91429" lon="2.22188">
        <ele>54.4</ele>
        <time>2022-02-02T14:20:27Z</time>
      </trkpt>
      <trkpt lat="49.91429" lon="2.22187">
        <ele>54.4</ele>
        <time>2022-02-02T14:20:28Z</time>
      </trkpt>
      <trkpt lat="49.91429" lon="2.22184">
        <ele>54.4</ele>
        <time>2022-02-02T14:20:29Z</time>
      </trkpt>
      <trkpt lat="49.91429" lon="2.22183">
        <ele>54.5</ele>
        <time>2022-02-02T14:20:30Z</time>
      </trkpt>
      <trkpt lat="49.91429" lon="2.22181">
        <ele>54.5</ele>
        <time>2022-02-02T14:20:31Z</time>
      </trkpt>
      <trkpt lat="49.9143" lon="2.2218">
        <ele>54.5</ele>
        <time>2022-02-02T14:20:32Z</time>
      </trkpt>
      <trkpt lat="49.9143" lon="2.22178">
        <ele>54.5</ele>
        <time>2022-02-02T14:20:33Z</time>
      </trkpt>
      <trkpt lat="49.9143" lon="2.22177">
        <ele>54.6</ele>
        <time>2022-02-02T14:20:34Z</time>
      </trkpt>
      <trkpt lat="49.91431" lon="2.22175">
        <ele>54.6</ele>
        <time>2022-02-02T14:20:36Z</time>
      </trkpt>
      <trkpt lat="49.91431" lon="2.22174">
        <ele>54.6</ele>
        <time>2022-02-02T14:20:37Z</time>
      </trkpt>
      <trkpt lat="49.91431" lon="2.22173">
        <ele>54.6</ele>
        <time>2022-02-02T14:20:38Z</time>
      </trkpt>
      <trkpt lat="49.91431" lon="2.22173">
        <ele>54.6</ele>
        <time>2022-02-02T14:20:39Z</time>
      </trkpt>
      <trkpt lat="49.91432" lon="2.22172">
        <ele>54.6</ele>
        <time>2022-02-02T14:20:40Z</time>
      </trkpt>
      <trkpt lat="49.91432" lon="2.2217">
        <ele>54.7</ele>
        <time>2022-02-02T14:20:41Z</time>
      </trkpt>
      <trkpt lat="49.91432" lon="2.22168">
        <ele>54.7</ele>
        <time>2022-02-02T14:20:42Z</time>
      </trkpt>
      <trkpt lat="49.91432" lon="2.22167">
        <ele>54.7</ele>
        <time>2022-02-02T14:20:43Z</time>
      </trkpt>
      <trkpt lat="49.91433" lon="2.22164">
        <ele>54.8</ele>
        <time>2022-02-02T14:20:44Z</time>
      </trkpt>
      <trkpt lat="49.91434" lon="2.22163">
        <ele>54.8</ele>
        <time>2022-02-02T14:20:46Z</time>
      </trkpt>
      <trkpt lat="49.91434" lon="2.22162">
        <ele>54.8</ele>
        <time>2022-02-02T14:20:47Z</time>
      </trkpt>
      <trkpt lat="49.91435" lon="2.22159">
        <ele>54.9</ele>
        <time>2022-02-02T14:20:48Z</time>
      </trkpt>
      <trkpt lat="49.91436" lon="2.22158">
        <ele>54.9</ele>
        <time>2022-02-02T14:20:49Z</time>
      </trkpt>
      <trkpt lat="49.91436" lon="2.22156">
        <ele>54.9</ele>
        <time>2022-02-02T14:20:50Z</time>
      </trkpt>
      <trkpt lat="49.91436" lon="2.22154">
        <ele>54.9</ele>
        <time>2022-02-02T14:20:51Z</time>
      </trkpt>
      <trkpt lat="49.91437" lon="2.22152">
        <ele>55</ele>
        <time>2022-02-02T14:20:52Z</time>
      </trkpt>
      <trkpt lat="49.91438" lon="2.22149">
        <ele>55</ele>
        <time>2022-02-02T14:20:53Z</time>
      </trkpt>
      <trkpt lat="49.91438" lon="2.22147">
        <ele>55</ele>
        <time>2022-02-02T14:20:54Z</time>
      </trkpt>
      <trkpt lat="49.91438" lon="2.22146">
        <ele>55</ele>
        <time>2022-02-02T14:20:55Z</time>
      </trkpt>
      <trkpt lat="49.91439" lon="2.22143">
        <ele>55.1</ele>
        <time>2022-02-02T14:20:56Z</time>
      </trkpt>
      <trkpt lat="49.91439" lon="2.22142">
        <ele>55.1</ele>
        <time>2022-02-02T14:20:58Z</time>
      </trkpt>
      <trkpt lat="49.91439" lon="2.2214">
        <ele>55.1</ele>
        <time>2022-02-02T14:20:59Z</time>
      </trkpt>
      <trkpt lat="49.91439" lon="2.22138">
        <ele>55.1</ele>
        <time>2022-02-02T14:21:00Z</time>
      </trkpt>
      <trkpt lat="49.9144" lon="2.22136">
        <ele>55.1</ele>
        <time>2022-02-02T14:21:01Z</time>
      </trkpt>
      <trkpt lat="49.9144" lon="2.22134">
        <ele>55.2</ele>
        <time>2022-02-02T14:21:02Z</time>
      </trkpt>
      <trkpt lat="49.9144" lon="2.22132">
        <ele>55.2</ele>
        <time>2022-02-02T14:21:03Z</time>
      </trkpt>
      <trkpt lat="49.9144" lon="2.2213">
        <ele>55.2</ele>
        <time>2022-02-02T14:21:05Z</time>
      </trkpt>
      <trkpt lat="49.9144" lon="2.22128">
        <ele>55.2</ele>
        <time>2022-02-02T14:21:06Z</time>
      </trkpt>
      <trkpt lat="49.9144" lon="2.22126">
        <ele>55.3</ele>
        <time>2022-02-02T14:21:07Z</time>
      </trkpt>
      <trkpt lat="49.9144" lon="2.22125">
        <ele>55.3</ele>
        <time>2022-02-02T14:21:08Z</time>
      </trkpt>
      <trkpt lat="49.91441" lon="2.22123">
        <ele>55.3</ele>
        <time>2022-02-02T14:21:09Z</time>
      </trkpt>
      <trkpt lat="49.91441" lon="2.22121">
        <ele>55.3</ele>
        <time>2022-02-02T14:21:10Z</time>
      </trkpt>
      <trkpt lat="49.91441" lon="2.22119">
        <ele>55.3</ele>
        <time>2022-02-02T14:21:11Z</time>
      </trkpt>
      <trkpt lat="49.91442" lon="2.22117">
        <ele>55.4</ele>
        <time>2022-02-02T14:21:13Z</time>
      </trkpt>
      <trkpt lat="49.91442" lon="2.22115">
        <ele>55.4</ele>
        <time>2022-02-02T14:21:14Z</time>
      </trkpt>
      <trkpt lat="49.91442" lon="2.22113">
        <ele>55.4</ele>
        <time>2022-02-02T14:21:15Z</time>
      </trkpt>
      <trkpt lat="49.91443" lon="2.22112">
        <ele>55.4</ele>
        <time>2022-02-02T14:21:16Z</time>
      </trkpt>
      <trkpt lat="49.91443" lon="2.2211">
        <ele>55.5</ele>
        <time>2022-02-02T14:21:17Z</time>
      </trkpt>
      <trkpt lat="49.91443" lon="2.22108">
        <ele>55.5</ele>
        <time>2022-02-02T14:21:18Z</time>
      </trkpt>
      <trkpt lat="49.91444" lon="2.22105">
        <ele>55.5</ele>
        <time>2022-02-02T14:21:20Z</time>
      </trkpt>
      <trkpt lat="49.91445" lon="2.22102">
        <ele>55.6</ele>
        <time>2022-02-02T14:21:21Z</time>
      </trkpt>
      <trkpt lat="49.91445" lon="2.22101">
        <ele>55.6</ele>
        <time>2022-02-02T14:21:22Z</time>
      </trkpt>
      <trkpt lat="49.91445" lon="2.22099">
        <ele>55.6</ele>
        <time>2022-02-02T14:21:23Z</time>
      </trkpt>
      <trkpt lat="49.91445" lon="2.22097">
        <ele>55.6</ele>
        <time>2022-02-02T14:21:24Z</time>
      </trkpt>
      <trkpt lat="49.91446" lon="2.22095">
        <ele>55.7</ele>
        <time>2022-02-02T14:21:25Z</time>
      </trkpt>
      <trkpt lat="49.91446" lon="2.22093">
        <ele>55.7</ele>
        <time>2022-02-02T14:21:26Z</time>
      </trkpt>
      <trkpt lat="49.91446" lon="2.22091">
        <ele>55.7</ele>
        <time>2022-02-02T14:21:27Z</time>
      </trkpt>
      <trkpt lat="49.91447" lon="2.22089">
        <ele>55.7</ele>
        <time>2022-02-02T14:21:29Z</time>
      </trkpt>
      <trkpt lat="49.91447" lon="2.22086">
        <ele>55.8</ele>
        <time>2022-02-02T14:21:30Z</time>
      </trkpt>
      <trkpt lat="49.91447" lon="2.22085">
        <ele>55.8</ele>
        <time>2022-02-02T14:21:31Z</time>
      </trkpt>
      <trkpt lat="49.91447" lon="2.22083">
        <ele>55.8</ele>
        <time>2022-02-02T14:21:32Z</time>
      </trkpt>
      <trkpt lat="49.91447" lon="2.2208">
        <ele>55.9</ele>
        <time>2022-02-02T14:21:33Z</time>
      </trkpt>
      <trkpt lat="49.91447" lon="2.22079">
        <ele>55.9</ele>
        <time>2022-02-02T14:21:34Z</time>
      </trkpt>
      <trkpt lat="49.91447" lon="2.22077">
        <ele>55.9</ele>
        <time>2022-02-02T14:21:35Z</time>
      </trkpt>
      <trkpt lat="49.91447" lon="2.22075">
        <ele>56</ele>
        <time>2022-02-02T14:21:37Z</time>
      </trkpt>
      <trkpt lat="49.91447" lon="2.22073">
        <ele>56</ele>
        <time>2022-02-02T14:21:38Z</time>
      </trkpt>
      <trkpt lat="49.91446" lon="2.22069">
        <ele>56</ele>
        <time>2022-02-02T14:21:39Z</time>
      </trkpt>
      <trkpt lat="49.91446" lon="2.22068">
        <ele>56</ele>
        <time>2022-02-02T14:21:40Z</time>
      </trkpt>
      <trkpt lat="49.91446" lon="2.22067">
        <ele>56.1</ele>
        <time>2022-02-02T14:21:41Z</time>
      </trkpt>
      <trkpt lat="49.91446" lon="2.22064">
        <ele>56.1</ele>
        <time>2022-02-02T14:21:42Z</time>
      </trkpt>
      <trkpt lat="49.91446" lon="2.22062">
        <ele>56.1</ele>
        <time>2022-02-02T14:21:43Z</time>
      </trkpt>
      <trkpt lat="49.91446" lon="2.2206">
        <ele>56.2</ele>
        <time>2022-02-02T14:21:44Z</time>
      </trkpt>
      <trkpt lat="49.91446" lon="2.22058">
        <ele>56.2</ele>
        <time>2022-02-02T14:21:45Z</time>
      </trkpt>
      <trkpt lat="49.91446" lon="2.22056">
        <ele>56.2</ele>
        <time>2022-02-02T14:21:47Z</time>
      </trkpt>
      <trkpt lat="49.91446" lon="2.22054">
        <ele>56.2</ele>
        <time>2022-02-02T14:21:48Z</time>
      </trkpt>
      <trkpt lat="49.91446" lon="2.22053">
        <ele>56.2</ele>
        <time>2022-02-02T14:21:49Z</time>
      </trkpt>
      <trkpt lat="49.91446" lon="2.22051">
        <ele>56.3</ele>
        <time>2022-02-02T14:21:50Z</time>
      </trkpt>
      <trkpt lat="49.91446" lon="2.22047">
        <ele>56.3</ele>
        <time>2022-02-02T14:21:51Z</time>
      </trkpt>
      <trkpt lat="49.91446" lon="2.22046">
        <ele>56.3</ele>
        <time>2022-02-02T14:21:52Z</time>
      </trkpt>
      <trkpt lat="49.91446" lon="2.22045">
        <ele>56.3</ele>
        <time>2022-02-02T14:21:53Z</time>
      </trkpt>
      <trkpt lat="49.91447" lon="2.22042">
        <ele>56.4</ele>
        <time>2022-02-02T14:21:55Z</time>
      </trkpt>
      <trkpt lat="49.91447" lon="2.2204">
        <ele>56.4</ele>
        <time>2022-02-02T14:21:56Z</time>
      </trkpt>
      <trkpt lat="49.91447" lon="2.22039">
        <ele>56.4</ele>
        <time>2022-02-02T14:21:57Z</time>
      </trkpt>
      <trkpt lat="49.91447" lon="2.22036">
        <ele>56.4</ele>
        <time>2022-02-02T14:21:58Z</time>
      </trkpt>
      <trkpt lat="49.91447" lon="2.22035">
        <ele>56.5</ele>
        <time>2022-02-02T14:21:59Z</time>
      </trkpt>
      <trkpt lat="49.91447" lon="2.22033">
        <ele>56.5</ele>
        <time>2022-02-02T14:22:00Z</time>
      </trkpt>
      <trkpt lat="49.91448" lon="2.22031">
        <ele>56.5</ele>
        <time>2022-02-02T14:22:01Z</time>
      </trkpt>
      <trkpt lat="49.91448" lon="2.22029">
        <ele>56.5</ele>
        <time>2022-02-02T14:22:02Z</time>
      </trkpt>
      <trkpt lat="49.91448" lon="2.22027">
        <ele>56.6</ele>
        <time>2022-02-02T14:22:04Z</time>
      </trkpt>
      <trkpt lat="49.91449" lon="2.22025">
        <ele>56.6</ele>
        <time>2022-02-02T14:22:05Z</time>
      </trkpt>
      <trkpt lat="49.91448" lon="2.22022">
        <ele>56.6</ele>
        <time>2022-02-02T14:22:07Z</time>
      </trkpt>
      <trkpt lat="49.91448" lon="2.22021">
        <ele>56.6</ele>
        <time>2022-02-02T14:22:08Z</time>
      </trkpt>
      <trkpt lat="49.91449" lon="2.2202">
        <ele>56.7</ele>
        <time>2022-02-02T14:22:09Z</time>
      </trkpt>
      <trkpt lat="49.91449" lon="2.22021">
        <ele>56.7</ele>
        <time>2022-02-02T14:22:10Z</time>
      </trkpt>
      <trkpt lat="49.91449" lon="2.22022">
        <ele>56.7</ele>
        <time>2022-02-02T14:22:11Z</time>
      </trkpt>
      <trkpt lat="49.9145" lon="2.22023">
        <ele>56.7</ele>
        <time>2022-02-02T14:22:12Z</time>
      </trkpt>
      <trkpt lat="49.9145" lon="2.22024">
        <ele>56.7</ele>
        <time>2022-02-02T14:22:13Z</time>
      </trkpt>
      <trkpt lat="49.9145" lon="2.22025">
        <ele>56.8</ele>
        <time>2022-02-02T14:22:14Z</time>
      </trkpt>
      <trkpt lat="49.9145" lon="2.22026">
        <ele>56.8</ele>
        <time>2022-02-02T14:22:15Z</time>
      </trkpt>
      <trkpt lat="49.9145" lon="2.22026">
        <ele>56.8</ele>
        <time>2022-02-02T14:22:16Z</time>
      </trkpt>
      <trkpt lat="49.9145" lon="2.22026">
        <ele>56.8</ele>
        <time>2022-02-02T14:22:17Z</time>
      </trkpt>
      <trkpt lat="49.9145" lon="2.22026">
        <ele>56.8</ele>
        <time>2022-02-02T14:22:18Z</time>
      </trkpt>
      <trkpt lat="49.9145" lon="2.22027">
        <ele>56.8</ele>
        <time>2022-02-02T14:22:19Z</time>
      </trkpt>
      <trkpt lat="49.9145" lon="2.22027">
        <ele>56.8</ele>
        <time>2022-02-02T14:22:20Z</time>
      </trkpt>
      <trkpt lat="49.9145" lon="2.22027">
        <ele>56.8</ele>
        <time>2022-02-02T14:22:21Z</time>
      </trkpt>
      <trkpt lat="49.9145" lon="2.22027">
        <ele>56.8</ele>
        <time>2022-02-02T14:22:22Z</time>
      </trkpt>
      <trkpt lat="49.9145" lon="2.22027">
        <ele>56.8</ele>
        <time>2022-02-02T14:22:23Z</time>
      </trkpt>
      <trkpt lat="49.9145" lon="2.22027">
        <ele>56.8</ele>
        <time>2022-02-02T14:22:24Z</time>
      </trkpt>
      <trkpt lat="49.9145" lon="2.22027">
        <ele>56.8</ele>
        <time>2022-02-02T14:22:25Z</time>
      </trkpt>
      <trkpt lat="49.9145" lon="2.22028">
        <ele>56.8</ele>
        <time>2022-02-02T14:22:26Z</time>
      </trkpt>
      <trkpt lat="49.9145" lon="2.22028">
        <ele>56.8</ele>
        <time>2022-02-02T14:22:27Z</time>
      </trkpt>
      <trkpt lat="49.9145" lon="2.22028">
        <ele>56.8</ele>
        <time>2022-02-02T14:22:28Z</time>
      </trkpt>
      <trkpt lat="49.9145" lon="2.22028">
        <ele>56.8</ele>
        <time>2022-02-02T14:22:29Z</time>
      </trkpt>
      <trkpt lat="49.91449" lon="2.22027">
        <ele>56.8</ele>
        <time>2022-02-02T14:22:30Z</time>
      </trkpt>
      <trkpt lat="49.91449" lon="2.22027">
        <ele>56.8</ele>
        <time>2022-02-02T14:22:31Z</time>
      </trkpt>
      <trkpt lat="49.91449" lon="2.22026">
        <ele>56.9</ele>
        <time>2022-02-02T14:22:32Z</time>
      </trkpt>
      <trkpt lat="49.91449" lon="2.22025">
        <ele>56.9</ele>
        <time>2022-02-02T14:22:33Z</time>
      </trkpt>
      <trkpt lat="49.91449" lon="2.22024">
        <ele>56.9</ele>
        <time>2022-02-02T14:22:34Z</time>
      </trkpt>
      <trkpt lat="49.91449" lon="2.22023">
        <ele>56.9</ele>
        <time>2022-02-02T14:22:35Z</time>
      </trkpt>
      <trkpt lat="49.91449" lon="2.22022">
        <ele>56.9</ele>
        <time>2022-02-02T14:22:36Z</time>
      </trkpt>
      <trkpt lat="49.91449" lon="2.22022">
        <ele>56.9</ele>
        <time>2022-02-02T14:22:37Z</time>
      </trkpt>
      <trkpt lat="49.9145" lon="2.22022">
        <ele>57</ele>
        <time>2022-02-02T14:22:38Z</time>
      </trkpt>
      <trkpt lat="49.9145" lon="2.22022">
        <ele>57</ele>
        <time>2022-02-02T14:22:39Z</time>
      </trkpt>
      <trkpt lat="49.9145" lon="2.22022">
        <ele>57</ele>
        <time>2022-02-02T14:22:40Z</time>
      </trkpt>
      <trkpt lat="49.9145" lon="2.22023">
        <ele>57</ele>
        <time>2022-02-02T14:22:41Z</time>
      </trkpt>
      <trkpt lat="49.9145" lon="2.22023">
        <ele>57</ele>
        <time>2022-02-02T14:22:42Z</time>
      </trkpt>
      <trkpt lat="49.9145" lon="2.22023">
        <ele>57</ele>
        <time>2022-02-02T14:22:43Z</time>
      </trkpt>
      <trkpt lat="49.9145" lon="2.22024">
        <ele>57</ele>
        <time>2022-02-02T14:22:44Z</time>
      </trkpt>
      <trkpt lat="49.9145" lon="2.22024">
        <ele>57</ele>
        <time>2022-02-02T14:22:45Z</time>
      </trkpt>
      <trkpt lat="49.9145" lon="2.22024">
        <ele>57</ele>
        <time>2022-02-02T14:22:46Z</time>
      </trkpt>
      <trkpt lat="49.9145" lon="2.22024">
        <ele>57</ele>
        <time>2022-02-02T14:22:47Z</time>
      </trkpt>
      <trkpt lat="49.9145" lon="2.22024">
        <ele>57</ele>
        <time>2022-02-02T14:22:48Z</time>
      </trkpt>
      <trkpt lat="49.9145" lon="2.22024">
        <ele>57</ele>
        <time>2022-02-02T14:22:49Z</time>
      </trkpt>
      <trkpt lat="49.9145" lon="2.22024">
        <ele>57</ele>
        <time>2022-02-02T14:22:50Z</time>
      </trkpt>
      <trkpt lat="49.9145" lon="2.22024">
        <ele>57</ele>
        <time>2022-02-02T14:22:51Z</time>
      </trkpt>
      <trkpt lat="49.9145" lon="2.22024">
        <ele>57</ele>
        <time>2022-02-02T14:22:52Z</time>
      </trkpt>
      <trkpt lat="49.9145" lon="2.22024">
        <ele>57</ele>
        <time>2022-02-02T14:22:53Z</time>
      </trkpt>
      <trkpt lat="49.9145" lon="2.22024">
        <ele>57</ele>
        <time>2022-02-02T14:22:54Z</time>
      </trkpt>
      <trkpt lat="49.9145" lon="2.22024">
        <ele>57</ele>
        <time>2022-02-02T14:22:55Z</time>
      </trkpt>
      <trkpt lat="49.9145" lon="2.22024">
        <ele>57</ele>
        <time>2022-02-02T14:22:56Z</time>
      </trkpt>
      <trkpt lat="49.9145" lon="2.22024">
        <ele>57</ele>
        <time>2022-02-02T14:22:57Z</time>
      </trkpt>
      <trkpt lat="49.9145" lon="2.22024">
        <ele>57</ele>
        <time>2022-02-02T14:22:58Z</time>
      </trkpt>
      <trkpt lat="49.9145" lon="2.22024">
        <ele>57</ele>
        <time>2022-02-02T14:22:59Z</time>
      </trkpt>
      <trkpt lat="49.9145" lon="2.22024">
        <ele>57</ele>
        <time>2022-02-02T14:23:00Z</time>
      </trkpt>
      <trkpt lat="49.9145" lon="2.22024">
        <ele>57</ele>
        <time>2022-02-02T14:23:01Z</time>
      </trkpt>
      <trkpt lat="49.9145" lon="2.22024">
        <ele>57</ele>
        <time>2022-02-02T14:23:02Z</time>
      </trkpt>
      <trkpt lat="49.9145" lon="2.22024">
        <ele>57</ele>
        <time>2022-02-02T14:23:03Z</time>
      </trkpt>
      <trkpt lat="49.9145" lon="2.22024">
        <ele>57</ele>
        <time>2022-02-02T14:23:04Z</time>
      </trkpt>
      <trkpt lat="49.9145" lon="2.22024">
        <ele>57</ele>
        <time>2022-02-02T14:23:05Z</time>
      </trkpt>
      <trkpt lat="49.9145" lon="2.22024">
        <ele>57</ele>
        <time>2022-02-02T14:23:06Z</time>
      </trkpt>
      <trkpt lat="49.9145" lon="2.22024">
        <ele>57</ele>
        <time>2022-02-02T14:23:07Z</time>
      </trkpt>
      <trkpt lat="49.9145" lon="2.22024">
        <ele>57</ele>
        <time>2022-02-02T14:23:08Z</time>
      </trkpt>
      <trkpt lat="49.9145" lon="2.22024">
        <ele>57</ele>
        <time>2022-02-02T14:23:09Z</time>
      </trkpt>
      <trkpt lat="49.9145" lon="2.22024">
        <ele>57</ele>
        <time>2022-02-02T14:23:10Z</time>
      </trkpt>
      <trkpt lat="49.9145" lon="2.22024">
        <ele>57</ele>
        <time>2022-02-02T14:23:11Z</time>
      </trkpt>
      <trkpt lat="49.9145" lon="2.22024">
        <ele>57</ele>
        <time>2022-02-02T14:23:12Z</time>
      </trkpt>
      <trkpt lat="49.9145" lon="2.22024">
        <ele>57</ele>
        <time>2022-02-02T14:23:13Z</time>
      </trkpt>
      <trkpt lat="49.9145" lon="2.22024">
        <ele>57</ele>
        <time>2022-02-02T14:23:14Z</time>
      </trkpt>
      <trkpt lat="49.9145" lon="2.22024">
        <ele>57</ele>
        <time>2022-02-02T14:23:15Z</time>
      </trkpt>
      <trkpt lat="49.9145" lon="2.22024">
        <ele>57</ele>
        <time>2022-02-02T14:23:16Z</time>
      </trkpt>
      <trkpt lat="49.9145" lon="2.22024">
        <ele>57</ele>
        <time>2022-02-02T14:23:17Z</time>
      </trkpt>
      <trkpt lat="49.9145" lon="2.22024">
        <ele>57</ele>
        <time>2022-02-02T14:23:18Z</time>
      </trkpt>
      <trkpt lat="49.9145" lon="2.22024">
        <ele>57</ele>
        <time>2022-02-02T14:23:19Z</time>
      </trkpt>
      <trkpt lat="49.9145" lon="2.22024">
        <ele>57</ele>
        <time>2022-02-02T14:23:20Z</time>
      </trkpt>
      <trkpt lat="49.9145" lon="2.22024">
        <ele>57</ele>
        <time>2022-02-02T14:23:21Z</time>
      </trkpt>
      <trkpt lat="49.9145" lon="2.22024">
        <ele>57</ele>
        <time>2022-02-02T14:23:22Z</time>
      </trkpt>
      <trkpt lat="49.9145" lon="2.22024">
        <ele>57</ele>
        <time>2022-02-02T14:23:23Z</time>
      </trkpt>
      <trkpt lat="49.9145" lon="2.22024">
        <ele>57</ele>
        <time>2022-02-02T14:23:24Z</time>
      </trkpt>
      <trkpt lat="49.9145" lon="2.22024">
        <ele>57</ele>
        <time>2022-02-02T14:23:25Z</time>
      </trkpt>
      <trkpt lat="49.9145" lon="2.22024">
        <ele>57</ele>
        <time>2022-02-02T14:23:26Z</time>
      </trkpt>
      <trkpt lat="49.9145" lon="2.22024">
        <ele>57</ele>
        <time>2022-02-02T14:23:27Z</time>
      </trkpt>
      <trkpt lat="49.9145" lon="2.22024">
        <ele>57</ele>
        <time>2022-02-02T14:23:28Z</time>
      </trkpt>
      <trkpt lat="49.9145" lon="2.22024">
        <ele>57</ele>
        <time>2022-02-02T14:23:29Z</time>
      </trkpt>
      <trkpt lat="49.9145" lon="2.22024">
        <ele>57</ele>
        <time>2022-02-02T14:23:30Z</time>
      </trkpt>
      <trkpt lat="49.9145" lon="2.22024">
        <ele>57</ele>
        <time>2022-02-02T14:23:31Z</time>
      </trkpt>
      <trkpt lat="49.9145" lon="2.22024">
        <ele>57</ele>
        <time>2022-02-02T14:23:32Z</time>
      </trkpt>
      <trkpt lat="49.9145" lon="2.22024">
        <ele>57</ele>
        <time>2022-02-02T14:23:33Z</time>
      </trkpt>
      <trkpt lat="49.9145" lon="2.22024">
        <ele>57</ele>
        <time>2022-02-02T14:23:34Z</time>
      </trkpt>
      <trkpt lat="49.9145" lon="2.22024">
        <ele>57</ele>
        <time>2022-02-02T14:23:35Z</time>
      </trkpt>
      <trkpt lat="49.9145" lon="2.22024">
        <ele>57</ele>
        <time>2022-02-02T14:23:36Z</time>
      </trkpt>
      <trkpt lat="49.9145" lon="2.22024">
        <ele>57</ele>
        <time>2022-02-02T14:23:37Z</time>
      </trkpt>
      <trkpt lat="49.9145" lon="2.22024">
        <ele>57</ele>
        <time>2022-02-02T14:23:38Z</time>
      </trkpt>
      <trkpt lat="49.9145" lon="2.22024">
        <ele>57</ele>
        <time>2022-02-02T14:23:39Z</time>
      </trkpt>
      <trkpt lat="49.9145" lon="2.22024">
        <ele>57</ele>
        <time>2022-02-02T14:23:40Z</time>
      </trkpt>
      <trkpt lat="49.9145" lon="2.22024">
        <ele>57</ele>
        <time>2022-02-02T14:23:41Z</time>
      </trkpt>
      <trkpt lat="49.9145" lon="2.22024">
        <ele>57</ele>
        <time>2022-02-02T14:23:42Z</time>
      </trkpt>
      <trkpt lat="49.9145" lon="2.22024">
        <ele>57</ele>
        <time>2022-02-02T14:23:43Z</time>
      </trkpt>
      <trkpt lat="49.9145" lon="2.22024">
        <ele>57</ele>
        <time>2022-02-02T14:23:44Z</time>
      </trkpt>
      <trkpt lat="49.9145" lon="2.22024">
        <ele>57</ele>
        <time>2022-02-02T14:23:45Z</time>
      </trkpt>
      <trkpt lat="49.9145" lon="2.22024">
        <ele>57</ele>
        <time>2022-02-02T14:23:46Z</time>
      </trkpt>
      <trkpt lat="49.9145" lon="2.22024">
        <ele>57</ele>
        <time>2022-02-02T14:23:47Z</time>
      </trkpt>
      <trkpt lat="49.9145" lon="2.22024">
        <ele>57</ele>
        <time>2022-02-02T14:23:48Z</time>
      </trkpt>
      <trkpt lat="49.9145" lon="2.22024">
        <ele>57</ele>
        <time>2022-02-02T14:23:49Z</time>
      </trkpt>
      <trkpt lat="49.9145" lon="2.22024">
        <ele>57</ele>
        <time>2022-02-02T14:23:50Z</time>
      </trkpt>
      <trkpt lat="49.9145" lon="2.22024">
        <ele>57</ele>
        <time>2022-02-02T14:23:51Z</time>
      </trkpt>
      <trkpt lat="49.9145" lon="2.22024">
        <ele>57</ele>
        <time>2022-02-02T14:23:52Z</time>
      </trkpt>
      <trkpt lat="49.9145" lon="2.22024">
        <ele>57</ele>
        <time>2022-02-02T14:23:53Z</time>
      </trkpt>
      <trkpt lat="49.9145" lon="2.22024">
        <ele>57</ele>
        <time>2022-02-02T14:23:54Z</time>
      </trkpt>
      <trkpt lat="49.9145" lon="2.22024">
        <ele>57</ele>
        <time>2022-02-02T14:23:55Z</time>
      </trkpt>
      <trkpt lat="49.9145" lon="2.22024">
        <ele>57</ele>
        <time>2022-02-02T14:23:56Z</time>
      </trkpt>
      <trkpt lat="49.9145" lon="2.22024">
        <ele>57</ele>
        <time>2022-02-02T14:23:57Z</time>
      </trkpt>
      <trkpt lat="49.9145" lon="2.22024">
        <ele>57</ele>
        <time>2022-02-02T14:23:58Z</time>
      </trkpt>
      <trkpt lat="49.9145" lon="2.22024">
        <ele>57</ele>
        <time>2022-02-02T14:23:59Z</time>
      </trkpt>
      <trkpt lat="49.9145" lon="2.22024">
        <ele>57</ele>
        <time>2022-02-02T14:24:00Z</time>
      </trkpt>
      <trkpt lat="49.9145" lon="2.22024">
        <ele>57</ele>
        <time>2022-02-02T14:24:01Z</time>
      </trkpt>
      <trkpt lat="49.9145" lon="2.22024">
        <ele>57</ele>
        <time>2022-02-02T14:24:02Z</time>
      </trkpt>
      <trkpt lat="49.9145" lon="2.22024">
        <ele>57</ele>
        <time>2022-02-02T14:24:03Z</time>
      </trkpt>
      <trkpt lat="49.9145" lon="2.22024">
        <ele>57</ele>
        <time>2022-02-02T14:24:04Z</time>
      </trkpt>
      <trkpt lat="49.9145" lon="2.22024">
        <ele>57</ele>
        <time>2022-02-02T14:24:05Z</time>
      </trkpt>
      <trkpt lat="49.9145" lon="2.22024">
        <ele>57</ele>
        <time>2022-02-02T14:24:06Z</time>
      </trkpt>
      <trkpt lat="49.9145" lon="2.22024">
        <ele>57</ele>
        <time>2022-02-02T14:24:07Z</time>
      </trkpt>
      <trkpt lat="49.9145" lon="2.22024">
        <ele>57</ele>
        <time>2022-02-02T14:24:08Z</time>
      </trkpt>
      <trkpt lat="49.9145" lon="2.22024">
        <ele>57</ele>
        <time>2022-02-02T14:24:09Z</time>
      </trkpt>
      <trkpt lat="49.9145" lon="2.22024">
        <ele>57</ele>
        <time>2022-02-02T14:24:10Z</time>
      </trkpt>
      <trkpt lat="49.9145" lon="2.22024">
        <ele>57</ele>
        <time>2022-02-02T14:24:11Z</time>
      </trkpt>
      <trkpt lat="49.9145" lon="2.22024">
        <ele>57</ele>
        <time>2022-02-02T14:24:12Z</time>
      </trkpt>
      <trkpt lat="49.9145" lon="2.22024">
        <ele>57</ele>
        <time>2022-02-02T14:24:13Z</time>
      </trkpt>
      <trkpt lat="49.9145" lon="2.22024">
        <ele>57</ele>
        <time>2022-02-02T14:24:14Z</time>
      </trkpt>
      <trkpt lat="49.9145" lon="2.22024">
        <ele>57</ele>
        <time>2022-02-02T14:24:15Z</time>
      </trkpt>
      <trkpt lat="49.9145" lon="2.22024">
        <ele>57</ele>
        <time>2022-02-02T14:24:16Z</time>
      </trkpt>
      <trkpt lat="49.9145" lon="2.22024">
        <ele>57</ele>
        <time>2022-02-02T14:24:17Z</time>
      </trkpt>
      <trkpt lat="49.9145" lon="2.22024">
        <ele>57</ele>
        <time>2022-02-02T14:24:18Z</time>
      </trkpt>
      <trkpt lat="49.9145" lon="2.22024">
        <ele>57</ele>
        <time>2022-02-02T14:24:19Z</time>
      </trkpt>
      <trkpt lat="49.9145" lon="2.22024">
        <ele>57</ele>
        <time>2022-02-02T14:24:20Z</time>
      </trkpt>
      <trkpt lat="49.9145" lon="2.22024">
        <ele>57</ele>
        <time>2022-02-02T14:24:21Z</time>
      </trkpt>
      <trkpt lat="49.9145" lon="2.22024">
        <ele>57</ele>
        <time>2022-02-02T14:24:22Z</time>
      </trkpt>
      <trkpt lat="49.9145" lon="2.22024">
        <ele>57</ele>
        <time>2022-02-02T14:24:23Z</time>
      </trkpt>
      <trkpt lat="49.9145" lon="2.22024">
        <ele>57</ele>
        <time>2022-02-02T14:24:24Z</time>
      </trkpt>
      <trkpt lat="49.9145" lon="2.22024">
        <ele>57</ele>
        <time>2022-02-02T14:24:25Z</time>
      </trkpt>
      <trkpt lat="49.9145" lon="2.22024">
        <ele>57</ele>
        <time>2022-02-02T14:24:26Z</time>
      </trkpt>
      <trkpt lat="49.9145" lon="2.22024">
        <ele>57</ele>
        <time>2022-02-02T14:24:27Z</time>
      </trkpt>
      <trkpt lat="49.9145" lon="2.22024">
        <ele>57</ele>
        <time>2022-02-02T14:24:28Z</time>
      </trkpt>
      <trkpt lat="49.9145" lon="2.22024">
        <ele>57</ele>
        <time>2022-02-02T14:24:29Z</time>
      </trkpt>
      <trkpt lat="49.9145" lon="2.22024">
        <ele>57</ele>
        <time>2022-02-02T14:24:30Z</time>
      </trkpt>
      <trkpt lat="49.9145" lon="2.22024">
        <ele>57</ele>
        <time>2022-02-02T14:24:31Z</time>
      </trkpt>
      <trkpt lat="49.9145" lon="2.22024">
        <ele>57</ele>
        <time>2022-02-02T14:24:32Z</time>
      </trkpt>
      <trkpt lat="49.9145" lon="2.22024">
        <ele>57</ele>
        <time>2022-02-02T14:24:33Z</time>
      </trkpt>
      <trkpt lat="49.9145" lon="2.22024">
        <ele>57</ele>
        <time>2022-02-02T14:24:34Z</time>
      </trkpt>
      <trkpt lat="49.9145" lon="2.22024">
        <ele>57</ele>
        <time>2022-02-02T14:24:35Z</time>
      </trkpt>
      <trkpt lat="49.9145" lon="2.22024">
        <ele>57</ele>
        <time>2022-02-02T14:24:36Z</time>
      </trkpt>
      <trkpt lat="49.9145" lon="2.22024">
        <ele>57</ele>
        <time>2022-02-02T14:24:37Z</time>
      </trkpt>
      <trkpt lat="49.9145" lon="2.22024">
        <ele>57</ele>
        <time>2022-02-02T14:24:38Z</time>
      </trkpt>
      <trkpt lat="49.9145" lon="2.22024">
        <ele>57</ele>
        <time>2022-02-02T14:24:39Z</time>
      </trkpt>
      <trkpt lat="49.9145" lon="2.22024">
        <ele>57</ele>
        <time>2022-02-02T14:24:40Z</time>
      </trkpt>
      <trkpt lat="49.9145" lon="2.22024">
        <ele>57</ele>
        <time>2022-02-02T14:24:41Z</time>
      </trkpt>
      <trkpt lat="49.9145" lon="2.22024">
        <ele>57</ele>
        <time>2022-02-02T14:24:42Z</time>
      </trkpt>
      <trkpt lat="49.9145" lon="2.22024">
        <ele>57</ele>
        <time>2022-02-02T14:24:43Z</time>
      </trkpt>
      <trkpt lat="49.9145" lon="2.22024">
        <ele>57</ele>
        <time>2022-02-02T14:24:44Z</time>
      </trkpt>
      <trkpt lat="49.9145" lon="2.22024">
        <ele>57</ele>
        <time>2022-02-02T14:24:45Z</time>
      </trkpt>
      <trkpt lat="49.9145" lon="2.22024">
        <ele>57</ele>
        <time>2022-02-02T14:24:46Z</time>
      </trkpt>
      <trkpt lat="49.9145" lon="2.22024">
        <ele>57</ele>
        <time>2022-02-02T14:24:47Z</time>
      </trkpt>
      <trkpt lat="49.9145" lon="2.22024">
        <ele>57</ele>
        <time>2022-02-02T14:24:48Z</time>
      </trkpt>
      <trkpt lat="49.9145" lon="2.22024">
        <ele>57</ele>
        <time>2022-02-02T14:24:49Z</time>
      </trkpt>
      <trkpt lat="49.9145" lon="2.22024">
        <ele>57</ele>
        <time>2022-02-02T14:24:50Z</time>
      </trkpt>
      <trkpt lat="49.9145" lon="2.22024">
        <ele>57</ele>
        <time>2022-02-02T14:24:51Z</time>
      </trkpt>
      <trkpt lat="49.9145" lon="2.22024">
        <ele>57</ele>
        <time>2022-02-02T14:24:52Z</time>
      </trkpt>
      <trkpt lat="49.9145" lon="2.22024">
        <ele>57</ele>
        <time>2022-02-02T14:24:53Z</time>
      </trkpt>
      <trkpt lat="49.9145" lon="2.22024">
        <ele>57</ele>
        <time>2022-02-02T14:24:54Z</time>
      </trkpt>
      <trkpt lat="49.9145" lon="2.22024">
        <ele>57</ele>
        <time>2022-02-02T14:24:55Z</time>
      </trkpt>
      <trkpt lat="49.9145" lon="2.22024">
        <ele>57</ele>
        <time>2022-02-02T14:24:56Z</time>
      </trkpt>
      <trkpt lat="49.9145" lon="2.22024">
        <ele>57</ele>
        <time>2022-02-02T14:24:57Z</time>
      </trkpt>
      <trkpt lat="49.9145" lon="2.22024">
        <ele>57</ele>
        <time>2022-02-02T14:24:58Z</time>
      </trkpt>
      <trkpt lat="49.9145" lon="2.22024">
        <ele>57</ele>
        <time>2022-02-02T14:24:59Z</time>
      </trkpt>
      <trkpt lat="49.9145" lon="2.22024">
        <ele>57</ele>
        <time>2022-02-02T14:25:00Z</time>
      </trkpt>
      <trkpt lat="49.9145" lon="2.22024">
        <ele>57</ele>
        <time>2022-02-02T14:25:01Z</time>
      </trkpt>
      <trkpt lat="49.9145" lon="2.22024">
        <ele>57</ele>
        <time>2022-02-02T14:25:02Z</time>
      </trkpt>
      <trkpt lat="49.9145" lon="2.22024">
        <ele>57</ele>
        <time>2022-02-02T14:25:03Z</time>
      </trkpt>
      <trkpt lat="49.9145" lon="2.22024">
        <ele>57</ele>
        <time>2022-02-02T14:25:04Z</time>
      </trkpt>
      <trkpt lat="49.9145" lon="2.22024">
        <ele>57</ele>
        <time>2022-02-02T14:25:05Z</time>
      </trkpt>
      <trkpt lat="49.9145" lon="2.22024">
        <ele>57</ele>
        <time>2022-02-02T14:25:06Z</time>
      </trkpt>
      <trkpt lat="49.9145" lon="2.22024">
        <ele>57</ele>
        <time>2022-02-02T14:25:07Z</time>
      </trkpt>
      <trkpt lat="49.9145" lon="2.22024">
        <ele>57</ele>
        <time>2022-02-02T14:25:08Z</time>
      </trkpt>
      <trkpt lat="49.9145" lon="2.22024">
        <ele>57</ele>
        <time>2022-02-02T14:25:09Z</time>
      </trkpt>
      <trkpt lat="49.9145" lon="2.22024">
        <ele>57</ele>
        <time>2022-02-02T14:25:10Z</time>
      </trkpt>
      <trkpt lat="49.9145" lon="2.22024">
        <ele>57</ele>
        <time>2022-02-02T14:25:11Z</time>
      </trkpt>
      <trkpt lat="49.9145" lon="2.22024">
        <ele>57</ele>
        <time>2022-02-02T14:25:12Z</time>
      </trkpt>
      <trkpt lat="49.9145" lon="2.22024">
        <ele>57</ele>
        <time>2022-02-02T14:25:13Z</time>
      </trkpt>
      <trkpt lat="49.9145" lon="2.22024">
        <ele>57</ele>
        <time>2022-02-02T14:25:14Z</time>
      </trkpt>
      <trkpt lat="49.9145" lon="2.22024">
        <ele>57</ele>
        <time>2022-02-02T14:25:15Z</time>
      </trkpt>
      <trkpt lat="49.9145" lon="2.22024">
        <ele>57</ele>
        <time>2022-02-02T14:25:16Z</time>
      </trkpt>
      <trkpt lat="49.9145" lon="2.22024">
        <ele>57</ele>
        <time>2022-02-02T14:25:17Z</time>
      </trkpt>
      <trkpt lat="49.9145" lon="2.22024">
        <ele>57</ele>
        <time>2022-02-02T14:25:18Z</time>
      </trkpt>
      <trkpt lat="49.9145" lon="2.22024">
        <ele>57</ele>
        <time>2022-02-02T14:25:19Z</time>
      </trkpt>
      <trkpt lat="49.9145" lon="2.22024">
        <ele>57</ele>
        <time>2022-02-02T14:25:20Z</time>
      </trkpt>
      <trkpt lat="49.9145" lon="2.22024">
        <ele>57</ele>
        <time>2022-02-02T14:25:21Z</time>
      </trkpt>
      <trkpt lat="49.9145" lon="2.22024">
        <ele>57</ele>
        <time>2022-02-02T14:25:22Z</time>
      </trkpt>
      <trkpt lat="49.9145" lon="2.22024">
        <ele>57</ele>
        <time>2022-02-02T14:25:23Z</time>
      </trkpt>
      <trkpt lat="49.9145" lon="2.22024">
        <ele>57</ele>
        <time>2022-02-02T14:25:24Z</time>
      </trkpt>
      <trkpt lat="49.9145" lon="2.22024">
        <ele>57</ele>
        <time>2022-02-02T14:25:25Z</time>
      </trkpt>
      <trkpt lat="49.9145" lon="2.22024">
        <ele>57</ele>
        <time>2022-02-02T14:25:26Z</time>
      </trkpt>
      <trkpt lat="49.9145" lon="2.22024">
        <ele>57</ele>
        <time>2022-02-02T14:25:27Z</time>
      </trkpt>
      <trkpt lat="49.9145" lon="2.22024">
        <ele>57</ele>
        <time>2022-02-02T14:25:28Z</time>
      </trkpt>
      <trkpt lat="49.9145" lon="2.22024">
        <ele>57</ele>
        <time>2022-02-02T14:25:29Z</time>
      </trkpt>
      <trkpt lat="49.9145" lon="2.22024">
        <ele>57</ele>
        <time>2022-02-02T14:25:30Z</time>
      </trkpt>
      <trkpt lat="49.9145" lon="2.22024">
        <ele>57</ele>
        <time>2022-02-02T14:25:31Z</time>
      </trkpt>
      <trkpt lat="49.9145" lon="2.22024">
        <ele>57</ele>
        <time>2022-02-02T14:25:32Z</time>
      </trkpt>
      <trkpt lat="49.9145" lon="2.22024">
        <ele>57</ele>
        <time>2022-02-02T14:25:33Z</time>
      </trkpt>
      <trkpt lat="49.9145" lon="2.22024">
        <ele>57</ele>
        <time>2022-02-02T14:25:34Z</time>
      </trkpt>
      <trkpt lat="49.9145" lon="2.22024">
        <ele>57</ele>
        <time>2022-02-02T14:25:35Z</time>
      </trkpt>
      <trkpt lat="49.9145" lon="2.22024">
        <ele>57</ele>
        <time>2022-02-02T14:25:36Z</time>
      </trkpt>
      <trkpt lat="49.9145" lon="2.22024">
        <ele>57</ele>
        <time>2022-02-02T14:25:37Z</time>
      </trkpt>
      <trkpt lat="49.9145" lon="2.22024">
        <ele>57</ele>
        <time>2022-02-02T14:25:38Z</time>
      </trkpt>
      <trkpt lat="49.9145" lon="2.22024">
        <ele>57</ele>
        <time>2022-02-02T14:25:39Z</time>
      </trkpt>
      <trkpt lat="49.9145" lon="2.22024">
        <ele>57</ele>
        <time>2022-02-02T14:25:40Z</time>
      </trkpt>
      <trkpt lat="49.9145" lon="2.22024">
        <ele>57</ele>
        <time>2022-02-02T14:25:41Z</time>
      </trkpt>
      <trkpt lat="49.9145" lon="2.22024">
        <ele>57</ele>
        <time>2022-02-02T14:25:42Z</time>
      </trkpt>
      <trkpt lat="49.9145" lon="2.22024">
        <ele>57</ele>
        <time>2022-02-02T14:25:43Z</time>
      </trkpt>
      <trkpt lat="49.9145" lon="2.22024">
        <ele>57</ele>
        <time>2022-02-02T14:25:44Z</time>
      </trkpt>
      <trkpt lat="49.9145" lon="2.22024">
        <ele>57</ele>
        <time>2022-02-02T14:25:45Z</time>
      </trkpt>
      <trkpt lat="49.9145" lon="2.22024">
        <ele>57</ele>
        <time>2022-02-02T14:25:46Z</time>
      </trkpt>
      <trkpt lat="49.9145" lon="2.22024">
        <ele>57</ele>
        <time>2022-02-02T14:25:47Z</time>
      </trkpt>
      <trkpt lat="49.9145" lon="2.22024">
        <ele>57</ele>
        <time>2022-02-02T14:25:48Z</time>
      </trkpt>
      <trkpt lat="49.9145" lon="2.22024">
        <ele>57</ele>
        <time>2022-02-02T14:25:49Z</time>
      </trkpt>
      <trkpt lat="49.9145" lon="2.22024">
        <ele>57</ele>
        <time>2022-02-02T14:25:50Z</time>
      </trkpt>
      <trkpt lat="49.9145" lon="2.22024">
        <ele>57</ele>
        <time>2022-02-02T14:25:51Z</time>
      </trkpt>
      <trkpt lat="49.9145" lon="2.22024">
        <ele>57</ele>
        <time>2022-02-02T14:25:52Z</time>
      </trkpt>
      <trkpt lat="49.9145" lon="2.22024">
        <ele>57</ele>
        <time>2022-02-02T14:25:53Z</time>
      </trkpt>
      <trkpt lat="49.9145" lon="2.22024">
        <ele>57</ele>
        <time>2022-02-02T14:25:54Z</time>
      </trkpt>
      <trkpt lat="49.9145" lon="2.22024">
        <ele>57</ele>
        <time>2022-02-02T14:25:55Z</time>
      </trkpt>
      <trkpt lat="49.9145" lon="2.22024">
        <ele>57</ele>
        <time>2022-02-02T14:25:56Z</time>
      </trkpt>
      <trkpt lat="49.9145" lon="2.22024">
        <ele>57</ele>
        <time>2022-02-02T14:25:57Z</time>
      </trkpt>
      <trkpt lat="49.9145" lon="2.22024">
        <ele>57</ele>
        <time>2022-02-02T14:25:58Z</time>
      </trkpt>
      <trkpt lat="49.9145" lon="2.22024">
        <ele>57</ele>
        <time>2022-02-02T14:25:59Z</time>
      </trkpt>
      <trkpt lat="49.9145" lon="2.22024">
        <ele>57</ele>
        <time>2022-02-02T14:26:00Z</time>
      </trkpt>
      <trkpt lat="49.9145" lon="2.22024">
        <ele>57</ele>
        <time>2022-02-02T14:26:01Z</time>
      </trkpt>
      <trkpt lat="49.9145" lon="2.22024">
        <ele>57</ele>
        <time>2022-02-02T14:26:02Z</time>
      </trkpt>
      <trkpt lat="49.9145" lon="2.22024">
        <ele>57</ele>
        <time>2022-02-02T14:26:03Z</time>
      </trkpt>
      <trkpt lat="49.9145" lon="2.22024">
        <ele>57</ele>
        <time>2022-02-02T14:26:04Z</time>
      </trkpt>
      <trkpt lat="49.9145" lon="2.22024">
        <ele>57</ele>
        <time>2022-02-02T14:26:05Z</time>
      </trkpt>
      <trkpt lat="49.9145" lon="2.22024">
        <ele>57</ele>
        <time>2022-02-02T14:26:06Z</time>
      </trkpt>
      <trkpt lat="49.9145" lon="2.22024">
        <ele>57</ele>
        <time>2022-02-02T14:26:07Z</time>
      </trkpt>
      <trkpt lat="49.9145" lon="2.22024">
        <ele>57</ele>
        <time>2022-02-02T14:26:08Z</time>
      </trkpt>
      <trkpt lat="49.9145" lon="2.22024">
        <ele>57</ele>
        <time>2022-02-02T14:26:09Z</time>
      </trkpt>
      <trkpt lat="49.9145" lon="2.22024">
        <ele>57</ele>
        <time>2022-02-02T14:26:10Z</time>
      </trkpt>
      <trkpt lat="49.9145" lon="2.22024">
        <ele>57</ele>
        <time>2022-02-02T14:26:11Z</time>
      </trkpt>
      <trkpt lat="49.9145" lon="2.22024">
        <ele>57</ele>
        <time>2022-02-02T14:26:12Z</time>
      </trkpt>
      <trkpt lat="49.9145" lon="2.22024">
        <ele>57</ele>
        <time>2022-02-02T14:26:13Z</time>
      </trkpt>
      <trkpt lat="49.9145" lon="2.22024">
        <ele>57</ele>
        <time>2022-02-02T14:26:14Z</time>
      </trkpt>
      <trkpt lat="49.9145" lon="2.22024">
        <ele>57</ele>
        <time>2022-02-02T14:26:15Z</time>
      </trkpt>
      <trkpt lat="49.9145" lon="2.22024">
        <ele>57</ele>
        <time>2022-02-02T14:26:16Z</time>
      </trkpt>
      <trkpt lat="49.9145" lon="2.22024">
        <ele>57</ele>
        <time>2022-02-02T14:26:17Z</time>
      </trkpt>
      <trkpt lat="49.9145" lon="2.22024">
        <ele>57</ele>
        <time>2022-02-02T14:26:18Z</time>
      </trkpt>
      <trkpt lat="49.9145" lon="2.22024">
        <ele>57</ele>
        <time>2022-02-02T14:26:19Z</time>
      </trkpt>
      <trkpt lat="49.9145" lon="2.22024">
        <ele>57</ele>
        <time>2022-02-02T14:26:20Z</time>
      </trkpt>
      <trkpt lat="49.9145" lon="2.22024">
        <ele>57</ele>
        <time>2022-02-02T14:26:21Z</time>
      </trkpt>
      <trkpt lat="49.9145" lon="2.22024">
        <ele>57</ele>
        <time>2022-02-02T14:26:22Z</time>
      </trkpt>
      <trkpt lat="49.9145" lon="2.22024">
        <ele>57</ele>
        <time>2022-02-02T14:26:23Z</time>
      </trkpt>
      <trkpt lat="49.9145" lon="2.22024">
        <ele>57</ele>
        <time>2022-02-02T14:26:24Z</time>
      </trkpt>
      <trkpt lat="49.9145" lon="2.22024">
        <ele>57</ele>
        <time>2022-02-02T14:26:25Z</time>
      </trkpt>
      <trkpt lat="49.9145" lon="2.22024">
        <ele>57</ele>
        <time>2022-02-02T14:26:26Z</time>
      </trkpt>
      <trkpt lat="49.9145" lon="2.22024">
        <ele>57</ele>
        <time>2022-02-02T14:26:27Z</time>
      </trkpt>
      <trkpt lat="49.9145" lon="2.22024">
        <ele>57</ele>
        <time>2022-02-02T14:26:28Z</time>
      </trkpt>
      <trkpt lat="49.9145" lon="2.22024">
        <ele>57</ele>
        <time>2022-02-02T14:26:29Z</time>
      </trkpt>
      <trkpt lat="49.9145" lon="2.22024">
        <ele>57</ele>
        <time>2022-02-02T14:26:30Z</time>
      </trkpt>
      <trkpt lat="49.9145" lon="2.22024">
        <ele>57</ele>
        <time>2022-02-02T14:26:31Z</time>
      </trkpt>
      <trkpt lat="49.9145" lon="2.22024">
        <ele>57</ele>
        <time>2022-02-02T14:26:32Z</time>
      </trkpt>
      <trkpt lat="49.9145" lon="2.22024">
        <ele>57</ele>
        <time>2022-02-02T14:26:33Z</time>
      </trkpt>
      <trkpt lat="49.9145" lon="2.22024">
        <ele>57</ele>
        <time>2022-02-02T14:26:34Z</time>
      </trkpt>
      <trkpt lat="49.9145" lon="2.22024">
        <ele>57</ele>
        <time>2022-02-02T14:26:35Z</time>
      </trkpt>
      <trkpt lat="49.9145" lon="2.22024">
        <ele>57</ele>
        <time>2022-02-02T14:26:36Z</time>
      </trkpt>
      <trkpt lat="49.9145" lon="2.22024">
        <ele>57</ele>
        <time>2022-02-02T14:26:37Z</time>
      </trkpt>
      <trkpt lat="49.9145" lon="2.22024">
        <ele>57</ele>
        <time>2022-02-02T14:26:38Z</time>
      </trkpt>
      <trkpt lat="49.9145" lon="2.22024">
        <ele>57</ele>
        <time>2022-02-02T14:26:39Z</time>
      </trkpt>
      <trkpt lat="49.9145" lon="2.22024">
        <ele>57</ele>
        <time>2022-02-02T14:26:40Z</time>
      </trkpt>
      <trkpt lat="49.9145" lon="2.22024">
        <ele>57</ele>
        <time>2022-02-02T14:26:41Z</time>
      </trkpt>
      <trkpt lat="49.9145" lon="2.22024">
        <ele>57</ele>
        <time>2022-02-02T14:26:42Z</time>
      </trkpt>
      <trkpt lat="49.91449" lon="2.22023">
        <ele>57.1</ele>
        <time>2022-02-02T14:26:43Z</time>
      </trkpt>
      <trkpt lat="49.91449" lon="2.22022">
        <ele>57.1</ele>
        <time>2022-02-02T14:26:44Z</time>
      </trkpt>
      <trkpt lat="49.91449" lon="2.22021">
        <ele>57.1</ele>
        <time>2022-02-02T14:26:45Z</time>
      </trkpt>
      <trkpt lat="49.91449" lon="2.22021">
        <ele>57.1</ele>
        <time>2022-02-02T14:26:46Z</time>
      </trkpt>
      <trkpt lat="49.91449" lon="2.2202">
        <ele>57.1</ele>
        <time>2022-02-02T14:26:47Z</time>
      </trkpt>
      <trkpt lat="49.91449" lon="2.2202">
        <ele>57.1</ele>
        <time>2022-02-02T14:26:48Z</time>
      </trkpt>
      <trkpt lat="49.9145" lon="2.22018">
        <ele>57.2</ele>
        <time>2022-02-02T14:26:49Z</time>
      </trkpt>
      <trkpt lat="49.9145" lon="2.22017">
        <ele>57.2</ele>
        <time>2022-02-02T14:26:50Z</time>
      </trkpt>
      <trkpt lat="49.9145" lon="2.22015">
        <ele>57.2</ele>
        <time>2022-02-02T14:26:51Z</time>
      </trkpt>
      <trkpt lat="49.9145" lon="2.22014">
        <ele>57.3</ele>
        <time>2022-02-02T14:26:52Z</time>
      </trkpt>
      <trkpt lat="49.9145" lon="2.22012">
        <ele>57.3</ele>
        <time>2022-02-02T14:26:53Z</time>
      </trkpt>
      <trkpt lat="49.9145" lon="2.22011">
        <ele>57.3</ele>
        <time>2022-02-02T14:26:54Z</time>
      </trkpt>
      <trkpt lat="49.91451" lon="2.2201">
        <ele>57.4</ele>
        <time>2022-02-02T14:26:55Z</time>
      </trkpt>
      <trkpt lat="49.91451" lon="2.22008">
        <ele>57.4</ele>
        <time>2022-02-02T14:26:56Z</time>
      </trkpt>
      <trkpt lat="49.91451" lon="2.22007">
        <ele>57.4</ele>
        <time>2022-02-02T14:26:57Z</time>
      </trkpt>
      <trkpt lat="49.91451" lon="2.22006">
        <ele>57.5</ele>
        <time>2022-02-02T14:26:58Z</time>
      </trkpt>
      <trkpt lat="49.91451" lon="2.22004">
        <ele>57.5</ele>
        <time>2022-02-02T14:26:59Z</time>
      </trkpt>
      <trkpt lat="49.91451" lon="2.22003">
        <ele>57.6</ele>
        <time>2022-02-02T14:27:00Z</time>
      </trkpt>
      <trkpt lat="49.91452" lon="2.22001">
        <ele>57.6</ele>
        <time>2022-02-02T14:27:01Z</time>
      </trkpt>
      <trkpt lat="49.91452" lon="2.21999">
        <ele>57.7</ele>
        <time>2022-02-02T14:27:02Z</time>
      </trkpt>
      <trkpt lat="49.91452" lon="2.21996">
        <ele>57.8</ele>
        <time>2022-02-02T14:27:03Z</time>
      </trkpt>
      <trkpt lat="49.91452" lon="2.21994">
        <ele>57.8</ele>
        <time>2022-02-02T14:27:04Z</time>
      </trkpt>
      <trkpt lat="49.91452" lon="2.21993">
        <ele>57.8</ele>
        <time>2022-02-02T14:27:05Z</time>
      </trkpt>
      <trkpt lat="49.91453" lon="2.2199">
        <ele>57.9</ele>
        <time>2022-02-02T14:27:06Z</time>
      </trkpt>
      <trkpt lat="49.91453" lon="2.21989">
        <ele>58</ele>
        <time>2022-02-02T14:27:08Z</time>
      </trkpt>
      <trkpt lat="49.91454" lon="2.21987">
        <ele>57.9</ele>
        <time>2022-02-02T14:27:09Z</time>
      </trkpt>
      <trkpt lat="49.91454" lon="2.21984">
        <ele>58</ele>
        <time>2022-02-02T14:27:10Z</time>
      </trkpt>
      <trkpt lat="49.91454" lon="2.21983">
        <ele>58.1</ele>
        <time>2022-02-02T14:27:12Z</time>
      </trkpt>
      <trkpt lat="49.91455" lon="2.21982">
        <ele>58.1</ele>
        <time>2022-02-02T14:27:13Z</time>
      </trkpt>
      <trkpt lat="49.91455" lon="2.21979">
        <ele>58.2</ele>
        <time>2022-02-02T14:27:14Z</time>
      </trkpt>
      <trkpt lat="49.91455" lon="2.21977">
        <ele>58.3</ele>
        <time>2022-02-02T14:27:15Z</time>
      </trkpt>
      <trkpt lat="49.91456" lon="2.21976">
        <ele>58.3</ele>
        <time>2022-02-02T14:27:17Z</time>
      </trkpt>
      <trkpt lat="49.91456" lon="2.21974">
        <ele>58.3</ele>
        <time>2022-02-02T14:27:18Z</time>
      </trkpt>
      <trkpt lat="49.91456" lon="2.21973">
        <ele>58.4</ele>
        <time>2022-02-02T14:27:19Z</time>
      </trkpt>
      <trkpt lat="49.91456" lon="2.21971">
        <ele>58.4</ele>
        <time>2022-02-02T14:27:20Z</time>
      </trkpt>
      <trkpt lat="49.91456" lon="2.2197">
        <ele>58.5</ele>
        <time>2022-02-02T14:27:21Z</time>
      </trkpt>
      <trkpt lat="49.91457" lon="2.21968">
        <ele>58.6</ele>
        <time>2022-02-02T14:27:23Z</time>
      </trkpt>
      <trkpt lat="49.91457" lon="2.21966">
        <ele>58.6</ele>
        <time>2022-02-02T14:27:24Z</time>
      </trkpt>
      <trkpt lat="49.91457" lon="2.21965">
        <ele>58.7</ele>
        <time>2022-02-02T14:27:25Z</time>
      </trkpt>
      <trkpt lat="49.91457" lon="2.21963">
        <ele>58.7</ele>
        <time>2022-02-02T14:27:26Z</time>
      </trkpt>
      <trkpt lat="49.91458" lon="2.21961">
        <ele>58.8</ele>
        <time>2022-02-02T14:27:27Z</time>
      </trkpt>
      <trkpt lat="49.91458" lon="2.21958">
        <ele>58.9</ele>
        <time>2022-02-02T14:27:28Z</time>
      </trkpt>
      <trkpt lat="49.91459" lon="2.21956">
        <ele>58.9</ele>
        <time>2022-02-02T14:27:29Z</time>
      </trkpt>
      <trkpt lat="49.91459" lon="2.21955">
        <ele>59</ele>
        <time>2022-02-02T14:27:31Z</time>
      </trkpt>
      <trkpt lat="49.91459" lon="2.21953">
        <ele>59</ele>
        <time>2022-02-02T14:27:32Z</time>
      </trkpt>
      <trkpt lat="49.91459" lon="2.21952">
        <ele>59.1</ele>
        <time>2022-02-02T14:27:33Z</time>
      </trkpt>
      <trkpt lat="49.91459" lon="2.2195">
        <ele>59.1</ele>
        <time>2022-02-02T14:27:34Z</time>
      </trkpt>
      <trkpt lat="49.9146" lon="2.21947">
        <ele>59.2</ele>
        <time>2022-02-02T14:27:35Z</time>
      </trkpt>
      <trkpt lat="49.9146" lon="2.21946">
        <ele>59.3</ele>
        <time>2022-02-02T14:27:37Z</time>
      </trkpt>
      <trkpt lat="49.9146" lon="2.21944">
        <ele>59.3</ele>
        <time>2022-02-02T14:27:38Z</time>
      </trkpt>
      <trkpt lat="49.91461" lon="2.21941">
        <ele>59.4</ele>
        <time>2022-02-02T14:27:39Z</time>
      </trkpt>
      <trkpt lat="49.91461" lon="2.2194">
        <ele>59.4</ele>
        <time>2022-02-02T14:27:40Z</time>
      </trkpt>
      <trkpt lat="49.91461" lon="2.21939">
        <ele>59.5</ele>
        <time>2022-02-02T14:27:41Z</time>
      </trkpt>
      <trkpt lat="49.91462" lon="2.21936">
        <ele>59.6</ele>
        <time>2022-02-02T14:27:43Z</time>
      </trkpt>
      <trkpt lat="49.91462" lon="2.21934">
        <ele>59.6</ele>
        <time>2022-02-02T14:27:44Z</time>
      </trkpt>
      <trkpt lat="49.91462" lon="2.21932">
        <ele>59.7</ele>
        <time>2022-02-02T14:27:45Z</time>
      </trkpt>
      <trkpt lat="49.91463" lon="2.21929">
        <ele>59.7</ele>
        <time>2022-02-02T14:27:46Z</time>
      </trkpt>
      <trkpt lat="49.91463" lon="2.21927">
        <ele>59.8</ele>
        <time>2022-02-02T14:27:47Z</time>
      </trkpt>
      <trkpt lat="49.91463" lon="2.21925">
        <ele>59.8</ele>
        <time>2022-02-02T14:27:48Z</time>
      </trkpt>
      <trkpt lat="49.91463" lon="2.21922">
        <ele>59.9</ele>
        <time>2022-02-02T14:27:50Z</time>
      </trkpt>
      <trkpt lat="49.91464" lon="2.2192">
        <ele>59.9</ele>
        <time>2022-02-02T14:27:51Z</time>
      </trkpt>
      <trkpt lat="49.91464" lon="2.21919">
        <ele>59.9</ele>
        <time>2022-02-02T14:27:52Z</time>
      </trkpt>
      <trkpt lat="49.91464" lon="2.21915">
        <ele>60</ele>
        <time>2022-02-02T14:27:53Z</time>
      </trkpt>
      <trkpt lat="49.91464" lon="2.21914">
        <ele>60.1</ele>
        <time>2022-02-02T14:27:54Z</time>
      </trkpt>
      <trkpt lat="49.91464" lon="2.21913">
        <ele>60.1</ele>
        <time>2022-02-02T14:27:55Z</time>
      </trkpt>
      <trkpt lat="49.91464" lon="2.21911">
        <ele>60.1</ele>
        <time>2022-02-02T14:27:57Z</time>
      </trkpt>
      <trkpt lat="49.91464" lon="2.2191">
        <ele>60.2</ele>
        <time>2022-02-02T14:27:58Z</time>
      </trkpt>
      <trkpt lat="49.91465" lon="2.21908">
        <ele>60.2</ele>
        <time>2022-02-02T14:27:59Z</time>
      </trkpt>
      <trkpt lat="49.91465" lon="2.21906">
        <ele>60.3</ele>
        <time>2022-02-02T14:28:00Z</time>
      </trkpt>
      <trkpt lat="49.91465" lon="2.21904">
        <ele>60.3</ele>
        <time>2022-02-02T14:28:01Z</time>
      </trkpt>
      <trkpt lat="49.91466" lon="2.219">
        <ele>60.4</ele>
        <time>2022-02-02T14:28:02Z</time>
      </trkpt>
      <trkpt lat="49.91466" lon="2.21899">
        <ele>60.4</ele>
        <time>2022-02-02T14:28:04Z</time>
      </trkpt>
      <trkpt lat="49.91466" lon="2.21898">
        <ele>60.5</ele>
        <time>2022-02-02T14:28:05Z</time>
      </trkpt>
      <trkpt lat="49.91467" lon="2.21896">
        <ele>60.5</ele>
        <time>2022-02-02T14:28:06Z</time>
      </trkpt>
      <trkpt lat="49.91467" lon="2.21894">
        <ele>60.6</ele>
        <time>2022-02-02T14:28:07Z</time>
      </trkpt>
      <trkpt lat="49.91467" lon="2.21892">
        <ele>60.6</ele>
        <time>2022-02-02T14:28:08Z</time>
      </trkpt>
      <trkpt lat="49.91468" lon="2.2189">
        <ele>60.7</ele>
        <time>2022-02-02T14:28:09Z</time>
      </trkpt>
      <trkpt lat="49.91468" lon="2.21888">
        <ele>60.7</ele>
        <time>2022-02-02T14:28:10Z</time>
      </trkpt>
      <trkpt lat="49.91468" lon="2.21886">
        <ele>60.7</ele>
        <time>2022-02-02T14:28:11Z</time>
      </trkpt>
      <trkpt lat="49.91468" lon="2.21884">
        <ele>60.8</ele>
        <time>2022-02-02T14:28:13Z</time>
      </trkpt>
      <trkpt lat="49.91469" lon="2.21881">
        <ele>60.9</ele>
        <time>2022-02-02T14:28:14Z</time>
      </trkpt>
      <trkpt lat="49.9147" lon="2.2188">
        <ele>60.9</ele>
        <time>2022-02-02T14:28:15Z</time>
      </trkpt>
      <trkpt lat="49.9147" lon="2.21879">
        <ele>61</ele>
        <time>2022-02-02T14:28:16Z</time>
      </trkpt>
      <trkpt lat="49.91471" lon="2.21877">
        <ele>61</ele>
        <time>2022-02-02T14:28:17Z</time>
      </trkpt>
      <trkpt lat="49.91471" lon="2.21875">
        <ele>61.1</ele>
        <time>2022-02-02T14:28:18Z</time>
      </trkpt>
      <trkpt lat="49.91472" lon="2.21874">
        <ele>61.1</ele>
        <time>2022-02-02T14:28:19Z</time>
      </trkpt>
      <trkpt lat="49.91472" lon="2.21871">
        <ele>61.2</ele>
        <time>2022-02-02T14:28:21Z</time>
      </trkpt>
      <trkpt lat="49.91473" lon="2.2187">
        <ele>61.3</ele>
        <time>2022-02-02T14:28:22Z</time>
      </trkpt>
      <trkpt lat="49.91473" lon="2.21868">
        <ele>61.3</ele>
        <time>2022-02-02T14:28:23Z</time>
      </trkpt>
      <trkpt lat="49.91473" lon="2.21867">
        <ele>61.4</ele>
        <time>2022-02-02T14:28:24Z</time>
      </trkpt>
      <trkpt lat="49.91473" lon="2.21866">
        <ele>61.4</ele>
        <time>2022-02-02T14:28:25Z</time>
      </trkpt>
      <trkpt lat="49.91473" lon="2.21864">
        <ele>61.5</ele>
        <time>2022-02-02T14:28:26Z</time>
      </trkpt>
      <trkpt lat="49.91474" lon="2.21861">
        <ele>61.7</ele>
        <time>2022-02-02T14:28:27Z</time>
      </trkpt>
      <trkpt lat="49.91474" lon="2.2186">
        <ele>61.7</ele>
        <time>2022-02-02T14:28:28Z</time>
      </trkpt>
      <trkpt lat="49.91474" lon="2.21858">
        <ele>61.8</ele>
        <time>2022-02-02T14:28:29Z</time>
      </trkpt>
      <trkpt lat="49.91474" lon="2.21856">
        <ele>61.9</ele>
        <time>2022-02-02T14:28:30Z</time>
      </trkpt>
      <trkpt lat="49.91474" lon="2.21854">
        <ele>62</ele>
        <time>2022-02-02T14:28:31Z</time>
      </trkpt>
      <trkpt lat="49.91475" lon="2.21851">
        <ele>62.2</ele>
        <time>2022-02-02T14:28:32Z</time>
      </trkpt>
      <trkpt lat="49.91475" lon="2.2185">
        <ele>62.3</ele>
        <time>2022-02-02T14:28:33Z</time>
      </trkpt>
      <trkpt lat="49.91475" lon="2.21849">
        <ele>62.3</ele>
        <time>2022-02-02T14:28:34Z</time>
      </trkpt>
      <trkpt lat="49.91475" lon="2.21846">
        <ele>62.5</ele>
        <time>2022-02-02T14:28:36Z</time>
      </trkpt>
      <trkpt lat="49.91476" lon="2.21844">
        <ele>62.5</ele>
        <time>2022-02-02T14:28:37Z</time>
      </trkpt>
      <trkpt lat="49.91476" lon="2.21843">
        <ele>62.6</ele>
        <time>2022-02-02T14:28:38Z</time>
      </trkpt>
      <trkpt lat="49.91476" lon="2.21841">
        <ele>62.7</ele>
        <time>2022-02-02T14:28:39Z</time>
      </trkpt>
      <trkpt lat="49.91477" lon="2.21839">
        <ele>62.8</ele>
        <time>2022-02-02T14:28:40Z</time>
      </trkpt>
      <trkpt lat="49.91477" lon="2.21837">
        <ele>62.9</ele>
        <time>2022-02-02T14:28:41Z</time>
      </trkpt>
      <trkpt lat="49.91478" lon="2.21835">
        <ele>63</ele>
        <time>2022-02-02T14:28:42Z</time>
      </trkpt>
      <trkpt lat="49.91478" lon="2.21832">
        <ele>63.1</ele>
        <time>2022-02-02T14:28:44Z</time>
      </trkpt>
      <trkpt lat="49.91479" lon="2.21831">
        <ele>63.1</ele>
        <time>2022-02-02T14:28:45Z</time>
      </trkpt>
      <trkpt lat="49.91479" lon="2.21829">
        <ele>63.2</ele>
        <time>2022-02-02T14:28:46Z</time>
      </trkpt>
      <trkpt lat="49.9148" lon="2.21826">
        <ele>63.3</ele>
        <time>2022-02-02T14:28:47Z</time>
      </trkpt>
      <trkpt lat="49.9148" lon="2.21825">
        <ele>63.3</ele>
        <time>2022-02-02T14:28:48Z</time>
      </trkpt>
      <trkpt lat="49.91481" lon="2.21824">
        <ele>63.3</ele>
        <time>2022-02-02T14:28:49Z</time>
      </trkpt>
      <trkpt lat="49.91481" lon="2.21822">
        <ele>63.4</ele>
        <time>2022-02-02T14:28:50Z</time>
      </trkpt>
      <trkpt lat="49.91482" lon="2.2182">
        <ele>63.4</ele>
        <time>2022-02-02T14:28:51Z</time>
      </trkpt>
      <trkpt lat="49.91482" lon="2.21819">
        <ele>63.5</ele>
        <time>2022-02-02T14:28:53Z</time>
      </trkpt>
      <trkpt lat="49.91483" lon="2.21817">
        <ele>63.5</ele>
        <time>2022-02-02T14:28:54Z</time>
      </trkpt>
      <trkpt lat="49.91483" lon="2.21814">
        <ele>63.5</ele>
        <time>2022-02-02T14:28:55Z</time>
      </trkpt>
      <trkpt lat="49.91484" lon="2.21811">
        <ele>63.6</ele>
        <time>2022-02-02T14:28:56Z</time>
      </trkpt>
      <trkpt lat="49.91484" lon="2.21809">
        <ele>63.6</ele>
        <time>2022-02-02T14:28:58Z</time>
      </trkpt>
      <trkpt lat="49.91484" lon="2.21808">
        <ele>63.7</ele>
        <time>2022-02-02T14:28:59Z</time>
      </trkpt>
      <trkpt lat="49.91485" lon="2.21806">
        <ele>63.7</ele>
        <time>2022-02-02T14:29:00Z</time>
      </trkpt>
      <trkpt lat="49.91485" lon="2.21804">
        <ele>63.7</ele>
        <time>2022-02-02T14:29:01Z</time>
      </trkpt>
      <trkpt lat="49.91485" lon="2.21801">
        <ele>63.8</ele>
        <time>2022-02-02T14:29:02Z</time>
      </trkpt>
      <trkpt lat="49.91486" lon="2.218">
        <ele>63.8</ele>
        <time>2022-02-02T14:29:03Z</time>
      </trkpt>
      <trkpt lat="49.91486" lon="2.21799">
        <ele>63.8</ele>
        <time>2022-02-02T14:29:04Z</time>
      </trkpt>
      <trkpt lat="49.91486" lon="2.21797">
        <ele>63.8</ele>
        <time>2022-02-02T14:29:05Z</time>
      </trkpt>
      <trkpt lat="49.91486" lon="2.21795">
        <ele>63.9</ele>
        <time>2022-02-02T14:29:06Z</time>
      </trkpt>
      <trkpt lat="49.91486" lon="2.21791">
        <ele>64</ele>
        <time>2022-02-02T14:29:07Z</time>
      </trkpt>
      <trkpt lat="49.91486" lon="2.2179">
        <ele>64</ele>
        <time>2022-02-02T14:29:09Z</time>
      </trkpt>
      <trkpt lat="49.91487" lon="2.21788">
        <ele>64</ele>
        <time>2022-02-02T14:29:10Z</time>
      </trkpt>
      <trkpt lat="49.91487" lon="2.21785">
        <ele>64.1</ele>
        <time>2022-02-02T14:29:11Z</time>
      </trkpt>
      <trkpt lat="49.91487" lon="2.21784">
        <ele>64.1</ele>
        <time>2022-02-02T14:29:12Z</time>
      </trkpt>
      <trkpt lat="49.91487" lon="2.21783">
        <ele>64.1</ele>
        <time>2022-02-02T14:29:13Z</time>
      </trkpt>
      <trkpt lat="49.91487" lon="2.21781">
        <ele>64.2</ele>
        <time>2022-02-02T14:29:14Z</time>
      </trkpt>
      <trkpt lat="49.91487" lon="2.21778">
        <ele>64.2</ele>
        <time>2022-02-02T14:29:15Z</time>
      </trkpt>
      <trkpt lat="49.91487" lon="2.21776">
        <ele>64.2</ele>
        <time>2022-02-02T14:29:16Z</time>
      </trkpt>
      <trkpt lat="49.91488" lon="2.21774">
        <ele>64.3</ele>
        <time>2022-02-02T14:29:17Z</time>
      </trkpt>
      <trkpt lat="49.91488" lon="2.21772">
        <ele>64.3</ele>
        <time>2022-02-02T14:29:19Z</time>
      </trkpt>
      <trkpt lat="49.91488" lon="2.21769">
        <ele>64.4</ele>
        <time>2022-02-02T14:29:20Z</time>
      </trkpt>
      <trkpt lat="49.91488" lon="2.21767">
        <ele>64.4</ele>
        <time>2022-02-02T14:29:21Z</time>
      </trkpt>
      <trkpt lat="49.91488" lon="2.21766">
        <ele>64.4</ele>
        <time>2022-02-02T14:29:22Z</time>
      </trkpt>
      <trkpt lat="49.91488" lon="2.21764">
        <ele>64.4</ele>
        <time>2022-02-02T14:29:23Z</time>
      </trkpt>
      <trkpt lat="49.91489" lon="2.21762">
        <ele>64.5</ele>
        <time>2022-02-02T14:29:24Z</time>
      </trkpt>
      <trkpt lat="49.91489" lon="2.2176">
        <ele>64.5</ele>
        <time>2022-02-02T14:29:25Z</time>
      </trkpt>
      <trkpt lat="49.9149" lon="2.21758">
        <ele>64.5</ele>
        <time>2022-02-02T14:29:26Z</time>
      </trkpt>
      <trkpt lat="49.9149" lon="2.21756">
        <ele>64.6</ele>
        <time>2022-02-02T14:29:27Z</time>
      </trkpt>
      <trkpt lat="49.9149" lon="2.21753">
        <ele>64.6</ele>
        <time>2022-02-02T14:29:28Z</time>
      </trkpt>
      <trkpt lat="49.9149" lon="2.21751">
        <ele>64.6</ele>
        <time>2022-02-02T14:29:29Z</time>
      </trkpt>
      <trkpt lat="49.91491" lon="2.21748">
        <ele>64.7</ele>
        <time>2022-02-02T14:29:31Z</time>
      </trkpt>
      <trkpt lat="49.91491" lon="2.21747">
        <ele>64.7</ele>
        <time>2022-02-02T14:29:32Z</time>
      </trkpt>
      <trkpt lat="49.91491" lon="2.21745">
        <ele>64.7</ele>
        <time>2022-02-02T14:29:33Z</time>
      </trkpt>
      <trkpt lat="49.91491" lon="2.21744">
        <ele>64.7</ele>
        <time>2022-02-02T14:29:34Z</time>
      </trkpt>
      <trkpt lat="49.91491" lon="2.21742">
        <ele>64.7</ele>
        <time>2022-02-02T14:29:35Z</time>
      </trkpt>
      <trkpt lat="49.91491" lon="2.2174">
        <ele>64.8</ele>
        <time>2022-02-02T14:29:36Z</time>
      </trkpt>
      <trkpt lat="49.91491" lon="2.21738">
        <ele>64.8</ele>
        <time>2022-02-02T14:29:37Z</time>
      </trkpt>
      <trkpt lat="49.91491" lon="2.21736">
        <ele>64.8</ele>
        <time>2022-02-02T14:29:38Z</time>
      </trkpt>
      <trkpt lat="49.91491" lon="2.21734">
        <ele>64.8</ele>
        <time>2022-02-02T14:29:40Z</time>
      </trkpt>
      <trkpt lat="49.91491" lon="2.21731">
        <ele>64.9</ele>
        <time>2022-02-02T14:29:41Z</time>
      </trkpt>
      <trkpt lat="49.91492" lon="2.2173">
        <ele>64.9</ele>
        <time>2022-02-02T14:29:42Z</time>
      </trkpt>
      <trkpt lat="49.91492" lon="2.21728">
        <ele>64.9</ele>
        <time>2022-02-02T14:29:43Z</time>
      </trkpt>
      <trkpt lat="49.91492" lon="2.21727">
        <ele>64.9</ele>
        <time>2022-02-02T14:29:44Z</time>
      </trkpt>
      <trkpt lat="49.91492" lon="2.21725">
        <ele>65</ele>
        <time>2022-02-02T14:29:45Z</time>
      </trkpt>
      <trkpt lat="49.91493" lon="2.21723">
        <ele>65</ele>
        <time>2022-02-02T14:29:46Z</time>
      </trkpt>
      <trkpt lat="49.91493" lon="2.21721">
        <ele>65</ele>
        <time>2022-02-02T14:29:47Z</time>
      </trkpt>
      <trkpt lat="49.91493" lon="2.21719">
        <ele>65</ele>
        <time>2022-02-02T14:29:48Z</time>
      </trkpt>
      <trkpt lat="49.91493" lon="2.21717">
        <ele>65</ele>
        <time>2022-02-02T14:29:50Z</time>
      </trkpt>
      <trkpt lat="49.91494" lon="2.21715">
        <ele>65.1</ele>
        <time>2022-02-02T14:29:51Z</time>
      </trkpt>
      <trkpt lat="49.91494" lon="2.21714">
        <ele>65.1</ele>
        <time>2022-02-02T14:29:52Z</time>
      </trkpt>
      <trkpt lat="49.91494" lon="2.21712">
        <ele>65.1</ele>
        <time>2022-02-02T14:29:53Z</time>
      </trkpt>
      <trkpt lat="49.91494" lon="2.21711">
        <ele>65.1</ele>
        <time>2022-02-02T14:29:54Z</time>
      </trkpt>
      <trkpt lat="49.91494" lon="2.21709">
        <ele>65.1</ele>
        <time>2022-02-02T14:29:55Z</time>
      </trkpt>
      <trkpt lat="49.91495" lon="2.21707">
        <ele>65.1</ele>
        <time>2022-02-02T14:29:56Z</time>
      </trkpt>
      <trkpt lat="49.91495" lon="2.21704">
        <ele>65.1</ele>
        <time>2022-02-02T14:29:57Z</time>
      </trkpt>
      <trkpt lat="49.91495" lon="2.21702">
        <ele>65.2</ele>
        <time>2022-02-02T14:29:58Z</time>
      </trkpt>
      <trkpt lat="49.91496" lon="2.217">
        <ele>65.2</ele>
        <time>2022-02-02T14:29:59Z</time>
      </trkpt>
      <trkpt lat="49.91496" lon="2.21698">
        <ele>65.2</ele>
        <time>2022-02-02T14:30:01Z</time>
      </trkpt>
      <trkpt lat="49.91496" lon="2.21696">
        <ele>65.2</ele>
        <time>2022-02-02T14:30:02Z</time>
      </trkpt>
      <trkpt lat="49.91496" lon="2.21693">
        <ele>65.2</ele>
        <time>2022-02-02T14:30:03Z</time>
      </trkpt>
      <trkpt lat="49.91496" lon="2.21692">
        <ele>65.2</ele>
        <time>2022-02-02T14:30:04Z</time>
      </trkpt>
      <trkpt lat="49.91497" lon="2.2169">
        <ele>65.3</ele>
        <time>2022-02-02T14:30:05Z</time>
      </trkpt>
      <trkpt lat="49.91497" lon="2.21688">
        <ele>65.3</ele>
        <time>2022-02-02T14:30:06Z</time>
      </trkpt>
      <trkpt lat="49.91497" lon="2.21686">
        <ele>65.3</ele>
        <time>2022-02-02T14:30:07Z</time>
      </trkpt>
      <trkpt lat="49.91498" lon="2.21684">
        <ele>65.3</ele>
        <time>2022-02-02T14:30:08Z</time>
      </trkpt>
      <trkpt lat="49.91498" lon="2.21682">
        <ele>65.3</ele>
        <time>2022-02-02T14:30:10Z</time>
      </trkpt>
      <trkpt lat="49.91499" lon="2.21681">
        <ele>65.3</ele>
        <time>2022-02-02T14:30:11Z</time>
      </trkpt>
      <trkpt lat="49.91499" lon="2.21679">
        <ele>65.3</ele>
        <time>2022-02-02T14:30:12Z</time>
      </trkpt>
      <trkpt lat="49.91499" lon="2.21678">
        <ele>65.4</ele>
        <time>2022-02-02T14:30:13Z</time>
      </trkpt>
      <trkpt lat="49.91499" lon="2.21676">
        <ele>65.4</ele>
        <time>2022-02-02T14:30:14Z</time>
      </trkpt>
      <trkpt lat="49.915" lon="2.21673">
        <ele>65.4</ele>
        <time>2022-02-02T14:30:15Z</time>
      </trkpt>
      <trkpt lat="49.915" lon="2.21671">
        <ele>65.4</ele>
        <time>2022-02-02T14:30:16Z</time>
      </trkpt>
      <trkpt lat="49.91501" lon="2.21668">
        <ele>65.4</ele>
        <time>2022-02-02T14:30:17Z</time>
      </trkpt>
      <trkpt lat="49.91501" lon="2.21665">
        <ele>65.5</ele>
        <time>2022-02-02T14:30:18Z</time>
      </trkpt>
      <trkpt lat="49.91502" lon="2.21663">
        <ele>65.5</ele>
        <time>2022-02-02T14:30:20Z</time>
      </trkpt>
      <trkpt lat="49.91502" lon="2.21662">
        <ele>65.5</ele>
        <time>2022-02-02T14:30:21Z</time>
      </trkpt>
      <trkpt lat="49.91502" lon="2.2166">
        <ele>65.5</ele>
        <time>2022-02-02T14:30:22Z</time>
      </trkpt>
      <trkpt lat="49.91502" lon="2.21658">
        <ele>65.5</ele>
        <time>2022-02-02T14:30:23Z</time>
      </trkpt>
      <trkpt lat="49.91503" lon="2.21656">
        <ele>65.5</ele>
        <time>2022-02-02T14:30:24Z</time>
      </trkpt>
      <trkpt lat="49.91503" lon="2.21654">
        <ele>65.6</ele>
        <time>2022-02-02T14:30:25Z</time>
      </trkpt>
      <trkpt lat="49.91504" lon="2.21652">
        <ele>65.6</ele>
        <time>2022-02-02T14:30:26Z</time>
      </trkpt>
      <trkpt lat="49.91504" lon="2.2165">
        <ele>65.6</ele>
        <time>2022-02-02T14:30:27Z</time>
      </trkpt>
      <trkpt lat="49.91504" lon="2.21649">
        <ele>65.6</ele>
        <time>2022-02-02T14:30:29Z</time>
      </trkpt>
      <trkpt lat="49.91504" lon="2.21647">
        <ele>65.6</ele>
        <time>2022-02-02T14:30:30Z</time>
      </trkpt>
      <trkpt lat="49.91504" lon="2.21645">
        <ele>65.6</ele>
        <time>2022-02-02T14:30:31Z</time>
      </trkpt>
      <trkpt lat="49.91504" lon="2.21643">
        <ele>65.7</ele>
        <time>2022-02-02T14:30:32Z</time>
      </trkpt>
      <trkpt lat="49.91504" lon="2.21642">
        <ele>65.7</ele>
        <time>2022-02-02T14:30:33Z</time>
      </trkpt>
      <trkpt lat="49.91504" lon="2.2164">
        <ele>65.7</ele>
        <time>2022-02-02T14:30:34Z</time>
      </trkpt>
      <trkpt lat="49.91505" lon="2.21637">
        <ele>65.7</ele>
        <time>2022-02-02T14:30:35Z</time>
      </trkpt>
      <trkpt lat="49.91505" lon="2.21635">
        <ele>65.7</ele>
        <time>2022-02-02T14:30:36Z</time>
      </trkpt>
      <trkpt lat="49.91505" lon="2.21634">
        <ele>65.7</ele>
        <time>2022-02-02T14:30:37Z</time>
      </trkpt>
      <trkpt lat="49.91505" lon="2.21631">
        <ele>65.8</ele>
        <time>2022-02-02T14:30:38Z</time>
      </trkpt>
      <trkpt lat="49.91505" lon="2.21629">
        <ele>65.8</ele>
        <time>2022-02-02T14:30:40Z</time>
      </trkpt>
      <trkpt lat="49.91505" lon="2.21628">
        <ele>65.8</ele>
        <time>2022-02-02T14:30:41Z</time>
      </trkpt>
      <trkpt lat="49.91505" lon="2.21626">
        <ele>65.8</ele>
        <time>2022-02-02T14:30:42Z</time>
      </trkpt>
      <trkpt lat="49.91505" lon="2.21624">
        <ele>65.8</ele>
        <time>2022-02-02T14:30:43Z</time>
      </trkpt>
      <trkpt lat="49.91505" lon="2.21623">
        <ele>65.8</ele>
        <time>2022-02-02T14:30:44Z</time>
      </trkpt>
      <trkpt lat="49.91506" lon="2.2162">
        <ele>65.8</ele>
        <time>2022-02-02T14:30:45Z</time>
      </trkpt>
      <trkpt lat="49.91506" lon="2.21619">
        <ele>65.8</ele>
        <time>2022-02-02T14:30:46Z</time>
      </trkpt>
      <trkpt lat="49.91506" lon="2.21617">
        <ele>65.8</ele>
        <time>2022-02-02T14:30:47Z</time>
      </trkpt>
      <trkpt lat="49.91506" lon="2.21615">
        <ele>65.8</ele>
        <time>2022-02-02T14:30:48Z</time>
      </trkpt>
      <trkpt lat="49.91506" lon="2.21613">
        <ele>65.8</ele>
        <time>2022-02-02T14:30:49Z</time>
      </trkpt>
      <trkpt lat="49.91507" lon="2.21611">
        <ele>65.9</ele>
        <time>2022-02-02T14:30:51Z</time>
      </trkpt>
      <trkpt lat="49.91507" lon="2.21609">
        <ele>65.9</ele>
        <time>2022-02-02T14:30:52Z</time>
      </trkpt>
      <trkpt lat="49.91507" lon="2.21608">
        <ele>65.9</ele>
        <time>2022-02-02T14:30:53Z</time>
      </trkpt>
      <trkpt lat="49.91507" lon="2.21606">
        <ele>65.9</ele>
        <time>2022-02-02T14:30:54Z</time>
      </trkpt>
      <trkpt lat="49.91507" lon="2.21605">
        <ele>65.9</ele>
        <time>2022-02-02T14:30:55Z</time>
      </trkpt>
      <trkpt lat="49.91507" lon="2.21603">
        <ele>65.9</ele>
        <time>2022-02-02T14:30:56Z</time>
      </trkpt>
      <trkpt lat="49.91507" lon="2.21601">
        <ele>65.9</ele>
        <time>2022-02-02T14:30:57Z</time>
      </trkpt>
      <trkpt lat="49.91507" lon="2.21598">
        <ele>65.9</ele>
        <time>2022-02-02T14:30:59Z</time>
      </trkpt>
      <trkpt lat="49.91508" lon="2.21597">
        <ele>65.9</ele>
        <time>2022-02-02T14:31:00Z</time>
      </trkpt>
      <trkpt lat="49.91508" lon="2.21595">
        <ele>65.9</ele>
        <time>2022-02-02T14:31:01Z</time>
      </trkpt>
      <trkpt lat="49.91508" lon="2.21594">
        <ele>65.9</ele>
        <time>2022-02-02T14:31:02Z</time>
      </trkpt>
      <trkpt lat="49.91508" lon="2.21592">
        <ele>65.9</ele>
        <time>2022-02-02T14:31:03Z</time>
      </trkpt>
      <trkpt lat="49.91509" lon="2.21591">
        <ele>65.9</ele>
        <time>2022-02-02T14:31:04Z</time>
      </trkpt>
      <trkpt lat="49.91509" lon="2.21587">
        <ele>66</ele>
        <time>2022-02-02T14:31:05Z</time>
      </trkpt>
      <trkpt lat="49.9151" lon="2.21586">
        <ele>66</ele>
        <time>2022-02-02T14:31:07Z</time>
      </trkpt>
      <trkpt lat="49.9151" lon="2.21584">
        <ele>66</ele>
        <time>2022-02-02T14:31:08Z</time>
      </trkpt>
      <trkpt lat="49.9151" lon="2.21582">
        <ele>66</ele>
        <time>2022-02-02T14:31:09Z</time>
      </trkpt>
      <trkpt lat="49.91511" lon="2.21581">
        <ele>66</ele>
        <time>2022-02-02T14:31:10Z</time>
      </trkpt>
      <trkpt lat="49.91511" lon="2.21577">
        <ele>66</ele>
        <time>2022-02-02T14:31:11Z</time>
      </trkpt>
      <trkpt lat="49.91511" lon="2.21576">
        <ele>66</ele>
        <time>2022-02-02T14:31:12Z</time>
      </trkpt>
      <trkpt lat="49.91511" lon="2.21575">
        <ele>66</ele>
        <time>2022-02-02T14:31:13Z</time>
      </trkpt>
      <trkpt lat="49.91512" lon="2.21572">
        <ele>66</ele>
        <time>2022-02-02T14:31:15Z</time>
      </trkpt>
      <trkpt lat="49.91512" lon="2.2157">
        <ele>66</ele>
        <time>2022-02-02T14:31:16Z</time>
      </trkpt>
      <trkpt lat="49.91512" lon="2.21569">
        <ele>66</ele>
        <time>2022-02-02T14:31:17Z</time>
      </trkpt>
      <trkpt lat="49.91513" lon="2.21566">
        <ele>66</ele>
        <time>2022-02-02T14:31:18Z</time>
      </trkpt>
      <trkpt lat="49.91513" lon="2.21564">
        <ele>66</ele>
        <time>2022-02-02T14:31:19Z</time>
      </trkpt>
      <trkpt lat="49.91513" lon="2.21563">
        <ele>66</ele>
        <time>2022-02-02T14:31:20Z</time>
      </trkpt>
      <trkpt lat="49.91513" lon="2.2156">
        <ele>66</ele>
        <time>2022-02-02T14:31:21Z</time>
      </trkpt>
      <trkpt lat="49.91513" lon="2.21559">
        <ele>66</ele>
        <time>2022-02-02T14:31:22Z</time>
      </trkpt>
      <trkpt lat="49.91514" lon="2.21557">
        <ele>66</ele>
        <time>2022-02-02T14:31:23Z</time>
      </trkpt>
      <trkpt lat="49.91514" lon="2.21554">
        <ele>66</ele>
        <time>2022-02-02T14:31:24Z</time>
      </trkpt>
      <trkpt lat="49.91515" lon="2.21553">
        <ele>66</ele>
        <time>2022-02-02T14:31:26Z</time>
      </trkpt>
      <trkpt lat="49.91515" lon="2.21552">
        <ele>66</ele>
        <time>2022-02-02T14:31:27Z</time>
      </trkpt>
      <trkpt lat="49.91516" lon="2.21548">
        <ele>66</ele>
        <time>2022-02-02T14:31:28Z</time>
      </trkpt>
      <trkpt lat="49.91516" lon="2.21546">
        <ele>66</ele>
        <time>2022-02-02T14:31:30Z</time>
      </trkpt>
      <trkpt lat="49.91516" lon="2.21545">
        <ele>66</ele>
        <time>2022-02-02T14:31:31Z</time>
      </trkpt>
      <trkpt lat="49.91517" lon="2.21543">
        <ele>66</ele>
        <time>2022-02-02T14:31:32Z</time>
      </trkpt>
      <trkpt lat="49.91517" lon="2.21542">
        <ele>66</ele>
        <time>2022-02-02T14:31:33Z</time>
      </trkpt>
      <trkpt lat="49.91517" lon="2.21539">
        <ele>66</ele>
        <time>2022-02-02T14:31:34Z</time>
      </trkpt>
      <trkpt lat="49.91518" lon="2.21538">
        <ele>66</ele>
        <time>2022-02-02T14:31:35Z</time>
      </trkpt>
      <trkpt lat="49.91518" lon="2.21536">
        <ele>66</ele>
        <time>2022-02-02T14:31:36Z</time>
      </trkpt>
      <trkpt lat="49.91518" lon="2.21534">
        <ele>66</ele>
        <time>2022-02-02T14:31:37Z</time>
      </trkpt>
      <trkpt lat="49.91519" lon="2.21533">
        <ele>66</ele>
        <time>2022-02-02T14:31:39Z</time>
      </trkpt>
      <trkpt lat="49.9152" lon="2.21531">
        <ele>66</ele>
        <time>2022-02-02T14:31:40Z</time>
      </trkpt>
      <trkpt lat="49.9152" lon="2.2153">
        <ele>66</ele>
        <time>2022-02-02T14:31:41Z</time>
      </trkpt>
      <trkpt lat="49.9152" lon="2.21528">
        <ele>66</ele>
        <time>2022-02-02T14:31:42Z</time>
      </trkpt>
      <trkpt lat="49.91521" lon="2.21527">
        <ele>66</ele>
        <time>2022-02-02T14:31:43Z</time>
      </trkpt>
      <trkpt lat="49.91521" lon="2.21525">
        <ele>66</ele>
        <time>2022-02-02T14:31:44Z</time>
      </trkpt>
      <trkpt lat="49.91522" lon="2.21523">
        <ele>66</ele>
        <time>2022-02-02T14:31:45Z</time>
      </trkpt>
      <trkpt lat="49.91523" lon="2.21521">
        <ele>65.9</ele>
        <time>2022-02-02T14:31:46Z</time>
      </trkpt>
      <trkpt lat="49.91523" lon="2.21519">
        <ele>65.9</ele>
        <time>2022-02-02T14:31:47Z</time>
      </trkpt>
      <trkpt lat="49.91524" lon="2.21517">
        <ele>65.9</ele>
        <time>2022-02-02T14:31:49Z</time>
      </trkpt>
      <trkpt lat="49.91525" lon="2.21516">
        <ele>65.9</ele>
        <time>2022-02-02T14:31:50Z</time>
      </trkpt>
      <trkpt lat="49.91525" lon="2.21514">
        <ele>65.9</ele>
        <time>2022-02-02T14:31:51Z</time>
      </trkpt>
      <trkpt lat="49.91526" lon="2.21513">
        <ele>65.9</ele>
        <time>2022-02-02T14:31:52Z</time>
      </trkpt>
      <trkpt lat="49.91527" lon="2.2151">
        <ele>65.9</ele>
        <time>2022-02-02T14:31:53Z</time>
      </trkpt>
      <trkpt lat="49.91527" lon="2.21509">
        <ele>65.9</ele>
        <time>2022-02-02T14:31:54Z</time>
      </trkpt>
      <trkpt lat="49.91528" lon="2.21508">
        <ele>65.9</ele>
        <time>2022-02-02T14:31:55Z</time>
      </trkpt>
      <trkpt lat="49.91528" lon="2.21506">
        <ele>65.9</ele>
        <time>2022-02-02T14:31:56Z</time>
      </trkpt>
      <trkpt lat="49.91529" lon="2.21504">
        <ele>65.9</ele>
        <time>2022-02-02T14:31:57Z</time>
      </trkpt>
      <trkpt lat="49.91529" lon="2.21503">
        <ele>65.9</ele>
        <time>2022-02-02T14:31:58Z</time>
      </trkpt>
      <trkpt lat="49.9153" lon="2.21501">
        <ele>65.9</ele>
        <time>2022-02-02T14:31:59Z</time>
      </trkpt>
      <trkpt lat="49.91531" lon="2.21499">
        <ele>65.9</ele>
        <time>2022-02-02T14:32:01Z</time>
      </trkpt>
      <trkpt lat="49.91531" lon="2.21497">
        <ele>65.9</ele>
        <time>2022-02-02T14:32:02Z</time>
      </trkpt>
      <trkpt lat="49.91532" lon="2.21496">
        <ele>65.9</ele>
        <time>2022-02-02T14:32:03Z</time>
      </trkpt>
      <trkpt lat="49.91532" lon="2.21494">
        <ele>65.8</ele>
        <time>2022-02-02T14:32:04Z</time>
      </trkpt>
      <trkpt lat="49.91533" lon="2.21492">
        <ele>65.8</ele>
        <time>2022-02-02T14:32:05Z</time>
      </trkpt>
      <trkpt lat="49.91533" lon="2.2149">
        <ele>65.8</ele>
        <time>2022-02-02T14:32:06Z</time>
      </trkpt>
      <trkpt lat="49.91534" lon="2.21489">
        <ele>65.8</ele>
        <time>2022-02-02T14:32:07Z</time>
      </trkpt>
      <trkpt lat="49.91534" lon="2.21488">
        <ele>65.8</ele>
        <time>2022-02-02T14:32:08Z</time>
      </trkpt>
      <trkpt lat="49.91535" lon="2.21486">
        <ele>65.8</ele>
        <time>2022-02-02T14:32:09Z</time>
      </trkpt>
      <trkpt lat="49.91535" lon="2.21484">
        <ele>65.8</ele>
        <time>2022-02-02T14:32:11Z</time>
      </trkpt>
      <trkpt lat="49.91536" lon="2.21482">
        <ele>65.8</ele>
        <time>2022-02-02T14:32:12Z</time>
      </trkpt>
      <trkpt lat="49.91537" lon="2.2148">
        <ele>65.8</ele>
        <time>2022-02-02T14:32:13Z</time>
      </trkpt>
      <trkpt lat="49.91537" lon="2.21478">
        <ele>65.8</ele>
        <time>2022-02-02T14:32:14Z</time>
      </trkpt>
      <trkpt lat="49.91538" lon="2.21476">
        <ele>65.8</ele>
        <time>2022-02-02T14:32:15Z</time>
      </trkpt>
      <trkpt lat="49.91538" lon="2.21475">
        <ele>65.8</ele>
        <time>2022-02-02T14:32:16Z</time>
      </trkpt>
      <trkpt lat="49.91539" lon="2.21472">
        <ele>65.8</ele>
        <time>2022-02-02T14:32:17Z</time>
      </trkpt>
      <trkpt lat="49.9154" lon="2.21471">
        <ele>65.8</ele>
        <time>2022-02-02T14:32:18Z</time>
      </trkpt>
      <trkpt lat="49.9154" lon="2.2147">
        <ele>65.8</ele>
        <time>2022-02-02T14:32:19Z</time>
      </trkpt>
      <trkpt lat="49.91541" lon="2.21468">
        <ele>65.8</ele>
        <time>2022-02-02T14:32:20Z</time>
      </trkpt>
      <trkpt lat="49.91542" lon="2.21466">
        <ele>65.8</ele>
        <time>2022-02-02T14:32:21Z</time>
      </trkpt>
      <trkpt lat="49.91543" lon="2.21463">
        <ele>65.8</ele>
        <time>2022-02-02T14:32:22Z</time>
      </trkpt>
      <trkpt lat="49.91543" lon="2.21461">
        <ele>65.8</ele>
        <time>2022-02-02T14:32:23Z</time>
      </trkpt>
      <trkpt lat="49.91543" lon="2.2146">
        <ele>65.8</ele>
        <time>2022-02-02T14:32:24Z</time>
      </trkpt>
      <trkpt lat="49.91544" lon="2.21457">
        <ele>65.8</ele>
        <time>2022-02-02T14:32:26Z</time>
      </trkpt>
      <trkpt lat="49.91545" lon="2.21456">
        <ele>65.8</ele>
        <time>2022-02-02T14:32:27Z</time>
      </trkpt>
      <trkpt lat="49.91545" lon="2.21455">
        <ele>65.8</ele>
        <time>2022-02-02T14:32:28Z</time>
      </trkpt>
      <trkpt lat="49.91545" lon="2.21454">
        <ele>65.7</ele>
        <time>2022-02-02T14:32:29Z</time>
      </trkpt>
      <trkpt lat="49.91546" lon="2.21451">
        <ele>65.7</ele>
        <time>2022-02-02T14:32:30Z</time>
      </trkpt>
      <trkpt lat="49.91547" lon="2.21448">
        <ele>65.7</ele>
        <time>2022-02-02T14:32:32Z</time>
      </trkpt>
      <trkpt lat="49.91548" lon="2.21447">
        <ele>65.7</ele>
        <time>2022-02-02T14:32:33Z</time>
      </trkpt>
      <trkpt lat="49.91548" lon="2.21445">
        <ele>65.7</ele>
        <time>2022-02-02T14:32:34Z</time>
      </trkpt>
      <trkpt lat="49.91549" lon="2.21443">
        <ele>65.7</ele>
        <time>2022-02-02T14:32:35Z</time>
      </trkpt>
      <trkpt lat="49.9155" lon="2.21441">
        <ele>65.7</ele>
        <time>2022-02-02T14:32:36Z</time>
      </trkpt>
      <trkpt lat="49.9155" lon="2.21438">
        <ele>65.6</ele>
        <time>2022-02-02T14:32:37Z</time>
      </trkpt>
      <trkpt lat="49.91551" lon="2.21436">
        <ele>65.6</ele>
        <time>2022-02-02T14:32:39Z</time>
      </trkpt>
      <trkpt lat="49.91551" lon="2.21435">
        <ele>65.6</ele>
        <time>2022-02-02T14:32:40Z</time>
      </trkpt>
      <trkpt lat="49.91551" lon="2.21433">
        <ele>65.6</ele>
        <time>2022-02-02T14:32:41Z</time>
      </trkpt>
      <trkpt lat="49.91552" lon="2.21432">
        <ele>65.6</ele>
        <time>2022-02-02T14:32:42Z</time>
      </trkpt>
      <trkpt lat="49.91552" lon="2.2143">
        <ele>65.6</ele>
        <time>2022-02-02T14:32:43Z</time>
      </trkpt>
      <trkpt lat="49.91552" lon="2.21428">
        <ele>65.6</ele>
        <time>2022-02-02T14:32:44Z</time>
      </trkpt>
      <trkpt lat="49.91553" lon="2.21426">
        <ele>65.6</ele>
        <time>2022-02-02T14:32:45Z</time>
      </trkpt>
      <trkpt lat="49.91554" lon="2.21424">
        <ele>65.5</ele>
        <time>2022-02-02T14:32:46Z</time>
      </trkpt>
      <trkpt lat="49.91554" lon="2.21422">
        <ele>65.5</ele>
        <time>2022-02-02T14:32:47Z</time>
      </trkpt>
      <trkpt lat="49.91554" lon="2.21421">
        <ele>65.5</ele>
        <time>2022-02-02T14:32:48Z</time>
      </trkpt>
      <trkpt lat="49.91555" lon="2.2142">
        <ele>65.5</ele>
        <time>2022-02-02T14:32:50Z</time>
      </trkpt>
      <trkpt lat="49.91556" lon="2.21418">
        <ele>65.5</ele>
        <time>2022-02-02T14:32:51Z</time>
      </trkpt>
      <trkpt lat="49.91556" lon="2.21416">
        <ele>65.5</ele>
        <time>2022-02-02T14:32:52Z</time>
      </trkpt>
      <trkpt lat="49.91556" lon="2.21415">
        <ele>65.5</ele>
        <time>2022-02-02T14:32:53Z</time>
      </trkpt>
      <trkpt lat="49.91557" lon="2.21413">
        <ele>65.4</ele>
        <time>2022-02-02T14:32:55Z</time>
      </trkpt>
      <trkpt lat="49.91558" lon="2.21411">
        <ele>65.4</ele>
        <time>2022-02-02T14:32:56Z</time>
      </trkpt>
      <trkpt lat="49.91558" lon="2.2141">
        <ele>65.4</ele>
        <time>2022-02-02T14:32:57Z</time>
      </trkpt>
      <trkpt lat="49.91558" lon="2.21408">
        <ele>65.4</ele>
        <time>2022-02-02T14:32:58Z</time>
      </trkpt>
      <trkpt lat="49.91558" lon="2.21405">
        <ele>65.4</ele>
        <time>2022-02-02T14:33:00Z</time>
      </trkpt>
      <trkpt lat="49.91559" lon="2.21402">
        <ele>65.3</ele>
        <time>2022-02-02T14:33:01Z</time>
      </trkpt>
      <trkpt lat="49.91559" lon="2.21401">
        <ele>65.3</ele>
        <time>2022-02-02T14:33:02Z</time>
      </trkpt>
      <trkpt lat="49.91559" lon="2.21399">
        <ele>65.3</ele>
        <time>2022-02-02T14:33:03Z</time>
      </trkpt>
      <trkpt lat="49.91559" lon="2.21396">
        <ele>65.3</ele>
        <time>2022-02-02T14:33:04Z</time>
      </trkpt>
      <trkpt lat="49.9156" lon="2.21395">
        <ele>65.2</ele>
        <time>2022-02-02T14:33:06Z</time>
      </trkpt>
      <trkpt lat="49.9156" lon="2.21394">
        <ele>65.2</ele>
        <time>2022-02-02T14:33:07Z</time>
      </trkpt>
      <trkpt lat="49.91561" lon="2.21391">
        <ele>65.1</ele>
        <time>2022-02-02T14:33:08Z</time>
      </trkpt>
      <trkpt lat="49.91561" lon="2.2139">
        <ele>65.1</ele>
        <time>2022-02-02T14:33:09Z</time>
      </trkpt>
      <trkpt lat="49.91561" lon="2.21388">
        <ele>65.1</ele>
        <time>2022-02-02T14:33:10Z</time>
      </trkpt>
      <trkpt lat="49.91562" lon="2.21385">
        <ele>65</ele>
        <time>2022-02-02T14:33:11Z</time>
      </trkpt>
      <trkpt lat="49.91563" lon="2.21384">
        <ele>65</ele>
        <time>2022-02-02T14:33:12Z</time>
      </trkpt>
      <trkpt lat="49.91563" lon="2.21383">
        <ele>65</ele>
        <time>2022-02-02T14:33:13Z</time>
      </trkpt>
      <trkpt lat="49.91563" lon="2.21379">
        <ele>64.9</ele>
        <time>2022-02-02T14:33:15Z</time>
      </trkpt>
      <trkpt lat="49.91563" lon="2.21378">
        <ele>64.9</ele>
        <time>2022-02-02T14:33:16Z</time>
      </trkpt>
      <trkpt lat="49.91564" lon="2.21377">
        <ele>64.8</ele>
        <time>2022-02-02T14:33:17Z</time>
      </trkpt>
      <trkpt lat="49.91564" lon="2.21374">
        <ele>64.8</ele>
        <time>2022-02-02T14:33:18Z</time>
      </trkpt>
      <trkpt lat="49.91564" lon="2.21372">
        <ele>64.8</ele>
        <time>2022-02-02T14:33:19Z</time>
      </trkpt>
      <trkpt lat="49.91564" lon="2.2137">
        <ele>64.7</ele>
        <time>2022-02-02T14:33:20Z</time>
      </trkpt>
      <trkpt lat="49.91565" lon="2.21367">
        <ele>64.7</ele>
        <time>2022-02-02T14:33:22Z</time>
      </trkpt>
      <trkpt lat="49.91565" lon="2.21365">
        <ele>64.7</ele>
        <time>2022-02-02T14:33:23Z</time>
      </trkpt>
      <trkpt lat="49.91565" lon="2.21363">
        <ele>64.7</ele>
        <time>2022-02-02T14:33:24Z</time>
      </trkpt>
      <trkpt lat="49.91566" lon="2.2136">
        <ele>64.6</ele>
        <time>2022-02-02T14:33:25Z</time>
      </trkpt>
      <trkpt lat="49.91566" lon="2.21358">
        <ele>64.6</ele>
        <time>2022-02-02T14:33:26Z</time>
      </trkpt>
      <trkpt lat="49.91566" lon="2.21357">
        <ele>64.6</ele>
        <time>2022-02-02T14:33:27Z</time>
      </trkpt>
      <trkpt lat="49.91567" lon="2.21353">
        <ele>64.5</ele>
        <time>2022-02-02T14:33:28Z</time>
      </trkpt>
      <trkpt lat="49.91568" lon="2.21352">
        <ele>64.5</ele>
        <time>2022-02-02T14:33:30Z</time>
      </trkpt>
      <trkpt lat="49.91568" lon="2.2135">
        <ele>64.5</ele>
        <time>2022-02-02T14:33:31Z</time>
      </trkpt>
      <trkpt lat="49.91569" lon="2.21349">
        <ele>64.5</ele>
        <time>2022-02-02T14:33:32Z</time>
      </trkpt>
      <trkpt lat="49.91569" lon="2.21347">
        <ele>64.4</ele>
        <time>2022-02-02T14:33:33Z</time>
      </trkpt>
      <trkpt lat="49.9157" lon="2.21344">
        <ele>64.4</ele>
        <time>2022-02-02T14:33:34Z</time>
      </trkpt>
      <trkpt lat="49.91571" lon="2.21343">
        <ele>64.4</ele>
        <time>2022-02-02T14:33:35Z</time>
      </trkpt>
      <trkpt lat="49.91571" lon="2.21342">
        <ele>64.3</ele>
        <time>2022-02-02T14:33:36Z</time>
      </trkpt>
      <trkpt lat="49.91572" lon="2.2134">
        <ele>64.3</ele>
        <time>2022-02-02T14:33:38Z</time>
      </trkpt>
      <trkpt lat="49.91573" lon="2.21337">
        <ele>64.2</ele>
        <time>2022-02-02T14:33:39Z</time>
      </trkpt>
      <trkpt lat="49.91573" lon="2.21335">
        <ele>64.2</ele>
        <time>2022-02-02T14:33:40Z</time>
      </trkpt>
      <trkpt lat="49.91574" lon="2.21334">
        <ele>64.1</ele>
        <time>2022-02-02T14:33:41Z</time>
      </trkpt>
      <trkpt lat="49.91575" lon="2.2133">
        <ele>64.1</ele>
        <time>2022-02-02T14:33:42Z</time>
      </trkpt>
      <trkpt lat="49.91575" lon="2.21329">
        <ele>64.1</ele>
        <time>2022-02-02T14:33:44Z</time>
      </trkpt>
      <trkpt lat="49.91575" lon="2.21328">
        <ele>64</ele>
        <time>2022-02-02T14:33:45Z</time>
      </trkpt>
      <trkpt lat="49.91575" lon="2.21326">
        <ele>64</ele>
        <time>2022-02-02T14:33:46Z</time>
      </trkpt>
      <trkpt lat="49.91575" lon="2.21324">
        <ele>64</ele>
        <time>2022-02-02T14:33:47Z</time>
      </trkpt>
      <trkpt lat="49.91575" lon="2.21323">
        <ele>63.9</ele>
        <time>2022-02-02T14:33:48Z</time>
      </trkpt>
      <trkpt lat="49.91576" lon="2.2132">
        <ele>63.9</ele>
        <time>2022-02-02T14:33:49Z</time>
      </trkpt>
      <trkpt lat="49.91576" lon="2.21319">
        <ele>63.8</ele>
        <time>2022-02-02T14:33:50Z</time>
      </trkpt>
      <trkpt lat="49.91576" lon="2.21317">
        <ele>63.8</ele>
        <time>2022-02-02T14:33:51Z</time>
      </trkpt>
      <trkpt lat="49.91576" lon="2.21315">
        <ele>63.8</ele>
        <time>2022-02-02T14:33:52Z</time>
      </trkpt>
      <trkpt lat="49.91576" lon="2.21314">
        <ele>63.7</ele>
        <time>2022-02-02T14:33:53Z</time>
      </trkpt>
      <trkpt lat="49.91576" lon="2.21312">
        <ele>63.7</ele>
        <time>2022-02-02T14:33:55Z</time>
      </trkpt>
      <trkpt lat="49.91576" lon="2.21309">
        <ele>63.7</ele>
        <time>2022-02-02T14:33:56Z</time>
      </trkpt>
      <trkpt lat="49.91576" lon="2.21307">
        <ele>63.6</ele>
        <time>2022-02-02T14:33:57Z</time>
      </trkpt>
      <trkpt lat="49.91575" lon="2.21304">
        <ele>63.6</ele>
        <time>2022-02-02T14:33:58Z</time>
      </trkpt>
      <trkpt lat="49.91575" lon="2.21303">
        <ele>63.5</ele>
        <time>2022-02-02T14:33:59Z</time>
      </trkpt>
      <trkpt lat="49.91575" lon="2.21302">
        <ele>63.5</ele>
        <time>2022-02-02T14:34:00Z</time>
      </trkpt>
      <trkpt lat="49.91575" lon="2.213">
        <ele>63.5</ele>
        <time>2022-02-02T14:34:01Z</time>
      </trkpt>
      <trkpt lat="49.91575" lon="2.21297">
        <ele>63.4</ele>
        <time>2022-02-02T14:34:02Z</time>
      </trkpt>
      <trkpt lat="49.91574" lon="2.21295">
        <ele>63.4</ele>
        <time>2022-02-02T14:34:03Z</time>
      </trkpt>
      <trkpt lat="49.91574" lon="2.21293">
        <ele>63.3</ele>
        <time>2022-02-02T14:34:04Z</time>
      </trkpt>
      <trkpt lat="49.91574" lon="2.21291">
        <ele>63.3</ele>
        <time>2022-02-02T14:34:06Z</time>
      </trkpt>
      <trkpt lat="49.91574" lon="2.21289">
        <ele>63.2</ele>
        <time>2022-02-02T14:34:07Z</time>
      </trkpt>
      <trkpt lat="49.91574" lon="2.21287">
        <ele>63.2</ele>
        <time>2022-02-02T14:34:08Z</time>
      </trkpt>
      <trkpt lat="49.91574" lon="2.21285">
        <ele>63.1</ele>
        <time>2022-02-02T14:34:09Z</time>
      </trkpt>
      <trkpt lat="49.91573" lon="2.21283">
        <ele>63.1</ele>
        <time>2022-02-02T14:34:10Z</time>
      </trkpt>
      <trkpt lat="49.91573" lon="2.2128">
        <ele>63</ele>
        <time>2022-02-02T14:34:11Z</time>
      </trkpt>
      <trkpt lat="49.91573" lon="2.21279">
        <ele>63</ele>
        <time>2022-02-02T14:34:12Z</time>
      </trkpt>
      <trkpt lat="49.91573" lon="2.21277">
        <ele>62.9</ele>
        <time>2022-02-02T14:34:13Z</time>
      </trkpt>
      <trkpt lat="49.91573" lon="2.21275">
        <ele>62.9</ele>
        <time>2022-02-02T14:34:14Z</time>
      </trkpt>
      <trkpt lat="49.91573" lon="2.21273">
        <ele>62.8</ele>
        <time>2022-02-02T14:34:15Z</time>
      </trkpt>
      <trkpt lat="49.91573" lon="2.21271">
        <ele>62.8</ele>
        <time>2022-02-02T14:34:16Z</time>
      </trkpt>
      <trkpt lat="49.91573" lon="2.21268">
        <ele>62.7</ele>
        <time>2022-02-02T14:34:18Z</time>
      </trkpt>
      <trkpt lat="49.91573" lon="2.21267">
        <ele>62.7</ele>
        <time>2022-02-02T14:34:19Z</time>
      </trkpt>
      <trkpt lat="49.91573" lon="2.21265">
        <ele>62.6</ele>
        <time>2022-02-02T14:34:20Z</time>
      </trkpt>
      <trkpt lat="49.91573" lon="2.21263">
        <ele>62.5</ele>
        <time>2022-02-02T14:34:21Z</time>
      </trkpt>
      <trkpt lat="49.91573" lon="2.21261">
        <ele>62.5</ele>
        <time>2022-02-02T14:34:22Z</time>
      </trkpt>
      <trkpt lat="49.91573" lon="2.21259">
        <ele>62.4</ele>
        <time>2022-02-02T14:34:23Z</time>
      </trkpt>
      <trkpt lat="49.91573" lon="2.21256">
        <ele>62.3</ele>
        <time>2022-02-02T14:34:24Z</time>
      </trkpt>
      <trkpt lat="49.91573" lon="2.21254">
        <ele>62.2</ele>
        <time>2022-02-02T14:34:25Z</time>
      </trkpt>
      <trkpt lat="49.91573" lon="2.21252">
        <ele>62.2</ele>
        <time>2022-02-02T14:34:26Z</time>
      </trkpt>
      <trkpt lat="49.91572" lon="2.2125">
        <ele>62.1</ele>
        <time>2022-02-02T14:34:27Z</time>
      </trkpt>
      <trkpt lat="49.91572" lon="2.21246">
        <ele>61.9</ele>
        <time>2022-02-02T14:34:28Z</time>
      </trkpt>
      <trkpt lat="49.91572" lon="2.21245">
        <ele>61.9</ele>
        <time>2022-02-02T14:34:30Z</time>
      </trkpt>
      <trkpt lat="49.91571" lon="2.21243">
        <ele>61.8</ele>
        <time>2022-02-02T14:34:31Z</time>
      </trkpt>
      <trkpt lat="49.91571" lon="2.21241">
        <ele>61.7</ele>
        <time>2022-02-02T14:34:32Z</time>
      </trkpt>
      <trkpt lat="49.91571" lon="2.2124">
        <ele>61.7</ele>
        <time>2022-02-02T14:34:33Z</time>
      </trkpt>
      <trkpt lat="49.91571" lon="2.21238">
        <ele>61.6</ele>
        <time>2022-02-02T14:34:34Z</time>
      </trkpt>
      <trkpt lat="49.9157" lon="2.21237">
        <ele>61.6</ele>
        <time>2022-02-02T14:34:35Z</time>
      </trkpt>
      <trkpt lat="49.9157" lon="2.21235">
        <ele>61.5</ele>
        <time>2022-02-02T14:34:36Z</time>
      </trkpt>
      <trkpt lat="49.9157" lon="2.21233">
        <ele>61.4</ele>
        <time>2022-02-02T14:34:37Z</time>
      </trkpt>
      <trkpt lat="49.91569" lon="2.21232">
        <ele>61.4</ele>
        <time>2022-02-02T14:34:38Z</time>
      </trkpt>
      <trkpt lat="49.91569" lon="2.2123">
        <ele>61.3</ele>
        <time>2022-02-02T14:34:39Z</time>
      </trkpt>
      <trkpt lat="49.91568" lon="2.21228">
        <ele>61.2</ele>
        <time>2022-02-02T14:34:40Z</time>
      </trkpt>
      <trkpt lat="49.91568" lon="2.21227">
        <ele>61.2</ele>
        <time>2022-02-02T14:34:42Z</time>
      </trkpt>
      <trkpt lat="49.91567" lon="2.21225">
        <ele>61.1</ele>
        <time>2022-02-02T14:34:43Z</time>
      </trkpt>
      <trkpt lat="49.91567" lon="2.21224">
        <ele>61</ele>
        <time>2022-02-02T14:34:44Z</time>
      </trkpt>
      <trkpt lat="49.91566" lon="2.21223">
        <ele>61</ele>
        <time>2022-02-02T14:34:45Z</time>
      </trkpt>
      <trkpt lat="49.91565" lon="2.21221">
        <ele>60.9</ele>
        <time>2022-02-02T14:34:46Z</time>
      </trkpt>
      <trkpt lat="49.91564" lon="2.21219">
        <ele>60.8</ele>
        <time>2022-02-02T14:34:47Z</time>
      </trkpt>
      <trkpt lat="49.91563" lon="2.21218">
        <ele>60.8</ele>
        <time>2022-02-02T14:34:48Z</time>
      </trkpt>
      <trkpt lat="49.91563" lon="2.21218">
        <ele>60.7</ele>
        <time>2022-02-02T14:34:49Z</time>
      </trkpt>
      <trkpt lat="49.91561" lon="2.21215">
        <ele>60.6</ele>
        <time>2022-02-02T14:34:50Z</time>
      </trkpt>
      <trkpt lat="49.9156" lon="2.21215">
        <ele>60.6</ele>
        <time>2022-02-02T14:34:51Z</time>
      </trkpt>
      <trkpt lat="49.9156" lon="2.21214">
        <ele>60.6</ele>
        <time>2022-02-02T14:34:52Z</time>
      </trkpt>
      <trkpt lat="49.91559" lon="2.21212">
        <ele>60.5</ele>
        <time>2022-02-02T14:34:53Z</time>
      </trkpt>
      <trkpt lat="49.91558" lon="2.21211">
        <ele>60.4</ele>
        <time>2022-02-02T14:34:55Z</time>
      </trkpt>
      <trkpt lat="49.91557" lon="2.2121">
        <ele>60.4</ele>
        <time>2022-02-02T14:34:56Z</time>
      </trkpt>
      <trkpt lat="49.91556" lon="2.21208">
        <ele>60.3</ele>
        <time>2022-02-02T14:34:57Z</time>
      </trkpt>
      <trkpt lat="49.91555" lon="2.21207">
        <ele>60.3</ele>
        <time>2022-02-02T14:34:58Z</time>
      </trkpt>
      <trkpt lat="49.91553" lon="2.21205">
        <ele>60.3</ele>
        <time>2022-02-02T14:34:59Z</time>
      </trkpt>
      <trkpt lat="49.91553" lon="2.21204">
        <ele>60.2</ele>
        <time>2022-02-02T14:35:00Z</time>
      </trkpt>
      <trkpt lat="49.91552" lon="2.21203">
        <ele>60.2</ele>
        <time>2022-02-02T14:35:01Z</time>
      </trkpt>
      <trkpt lat="49.91551" lon="2.21202">
        <ele>60.2</ele>
        <time>2022-02-02T14:35:02Z</time>
      </trkpt>
      <trkpt lat="49.91549" lon="2.212">
        <ele>60.2</ele>
        <time>2022-02-02T14:35:03Z</time>
      </trkpt>
      <trkpt lat="49.91548" lon="2.21199">
        <ele>60.2</ele>
        <time>2022-02-02T14:35:04Z</time>
      </trkpt>
      <trkpt lat="49.91546" lon="2.21197">
        <ele>60.2</ele>
        <time>2022-02-02T14:35:06Z</time>
      </trkpt>
      <trkpt lat="49.91545" lon="2.21195">
        <ele>60.2</ele>
        <time>2022-02-02T14:35:07Z</time>
      </trkpt>
      <trkpt lat="49.91544" lon="2.21194">
        <ele>60.2</ele>
        <time>2022-02-02T14:35:08Z</time>
      </trkpt>
      <trkpt lat="49.91541" lon="2.21193">
        <ele>60.2</ele>
        <time>2022-02-02T14:35:10Z</time>
      </trkpt>
      <trkpt lat="49.9154" lon="2.21193">
        <ele>60.2</ele>
        <time>2022-02-02T14:35:11Z</time>
      </trkpt>
      <trkpt lat="49.91539" lon="2.21193">
        <ele>60.2</ele>
        <time>2022-02-02T14:35:12Z</time>
      </trkpt>
      <trkpt lat="49.91537" lon="2.21192">
        <ele>60.3</ele>
        <time>2022-02-02T14:35:13Z</time>
      </trkpt>
      <trkpt lat="49.91535" lon="2.2119">
        <ele>60.4</ele>
        <time>2022-02-02T14:35:15Z</time>
      </trkpt>
      <trkpt lat="49.91534" lon="2.2119">
        <ele>60.4</ele>
        <time>2022-02-02T14:35:16Z</time>
      </trkpt>
      <trkpt lat="49.91533" lon="2.21189">
        <ele>60.4</ele>
        <time>2022-02-02T14:35:18Z</time>
      </trkpt>
      <trkpt lat="49.91532" lon="2.21189">
        <ele>60.4</ele>
        <time>2022-02-02T14:35:19Z</time>
      </trkpt>
      <trkpt lat="49.91531" lon="2.21188">
        <ele>60.5</ele>
        <time>2022-02-02T14:35:20Z</time>
      </trkpt>
      <trkpt lat="49.9153" lon="2.21187">
        <ele>60.5</ele>
        <time>2022-02-02T14:35:21Z</time>
      </trkpt>
      <trkpt lat="49.91529" lon="2.21187">
        <ele>60.5</ele>
        <time>2022-02-02T14:35:22Z</time>
      </trkpt>
      <trkpt lat="49.91529" lon="2.21187">
        <ele>60.6</ele>
        <time>2022-02-02T14:35:23Z</time>
      </trkpt>
      <trkpt lat="49.91528" lon="2.21187">
        <ele>60.6</ele>
        <time>2022-02-02T14:35:24Z</time>
      </trkpt>
      <trkpt lat="49.91527" lon="2.21186">
        <ele>60.6</ele>
        <time>2022-02-02T14:35:26Z</time>
      </trkpt>
      <trkpt lat="49.91526" lon="2.21185">
        <ele>60.7</ele>
        <time>2022-02-02T14:35:27Z</time>
      </trkpt>
      <trkpt lat="49.91525" lon="2.21185">
        <ele>60.7</ele>
        <time>2022-02-02T14:35:28Z</time>
      </trkpt>
      <trkpt lat="49.91524" lon="2.21185">
        <ele>60.7</ele>
        <time>2022-02-02T14:35:29Z</time>
      </trkpt>
      <trkpt lat="49.91523" lon="2.21184">
        <ele>60.8</ele>
        <time>2022-02-02T14:35:30Z</time>
      </trkpt>
      <trkpt lat="49.91522" lon="2.21183">
        <ele>60.8</ele>
        <time>2022-02-02T14:35:31Z</time>
      </trkpt>
      <trkpt lat="49.91521" lon="2.21183">
        <ele>60.9</ele>
        <time>2022-02-02T14:35:32Z</time>
      </trkpt>
      <trkpt lat="49.9152" lon="2.21182">
        <ele>61</ele>
        <time>2022-02-02T14:35:34Z</time>
      </trkpt>
      <trkpt lat="49.91519" lon="2.21181">
        <ele>61</ele>
        <time>2022-02-02T14:35:35Z</time>
      </trkpt>
      <trkpt lat="49.91518" lon="2.2118">
        <ele>61.1</ele>
        <time>2022-02-02T14:35:36Z</time>
      </trkpt>
      <trkpt lat="49.91517" lon="2.2118">
        <ele>61.1</ele>
        <time>2022-02-02T14:35:37Z</time>
      </trkpt>
      <trkpt lat="49.91516" lon="2.21181">
        <ele>61.2</ele>
        <time>2022-02-02T14:35:38Z</time>
      </trkpt>
      <trkpt lat="49.91514" lon="2.2118">
        <ele>61.3</ele>
        <time>2022-02-02T14:35:39Z</time>
      </trkpt>
      <trkpt lat="49.91513" lon="2.2118">
        <ele>61.3</ele>
        <time>2022-02-02T14:35:41Z</time>
      </trkpt>
      <trkpt lat="49.91513" lon="2.21179">
        <ele>61.4</ele>
        <time>2022-02-02T14:35:42Z</time>
      </trkpt>
      <trkpt lat="49.91512" lon="2.21178">
        <ele>61.4</ele>
        <time>2022-02-02T14:35:43Z</time>
      </trkpt>
      <trkpt lat="49.91511" lon="2.21175">
        <ele>61.5</ele>
        <time>2022-02-02T14:35:44Z</time>
      </trkpt>
      <trkpt lat="49.9151" lon="2.21174">
        <ele>61.6</ele>
        <time>2022-02-02T14:35:45Z</time>
      </trkpt>
      <trkpt lat="49.91509" lon="2.21173">
        <ele>61.7</ele>
        <time>2022-02-02T14:35:46Z</time>
      </trkpt>
      <trkpt lat="49.91507" lon="2.21173">
        <ele>61.7</ele>
        <time>2022-02-02T14:35:48Z</time>
      </trkpt>
      <trkpt lat="49.91506" lon="2.21172">
        <ele>61.8</ele>
        <time>2022-02-02T14:35:49Z</time>
      </trkpt>
      <trkpt lat="49.91505" lon="2.21172">
        <ele>61.9</ele>
        <time>2022-02-02T14:35:50Z</time>
      </trkpt>
      <trkpt lat="49.91505" lon="2.21172">
        <ele>61.9</ele>
        <time>2022-02-02T14:35:51Z</time>
      </trkpt>
      <trkpt lat="49.91503" lon="2.2117">
        <ele>62</ele>
        <time>2022-02-02T14:35:52Z</time>
      </trkpt>
      <trkpt lat="49.91502" lon="2.2117">
        <ele>62.1</ele>
        <time>2022-02-02T14:35:54Z</time>
      </trkpt>
      <trkpt lat="49.91501" lon="2.21169">
        <ele>62.1</ele>
        <time>2022-02-02T14:35:55Z</time>
      </trkpt>
      <trkpt lat="49.91499" lon="2.21168">
        <ele>62.2</ele>
        <time>2022-02-02T14:35:56Z</time>
      </trkpt>
      <trkpt lat="49.91499" lon="2.21168">
        <ele>62.2</ele>
        <time>2022-02-02T14:35:58Z</time>
      </trkpt>
      <trkpt lat="49.91498" lon="2.21167">
        <ele>62.3</ele>
        <time>2022-02-02T14:35:59Z</time>
      </trkpt>
      <trkpt lat="49.91496" lon="2.21166">
        <ele>62.4</ele>
        <time>2022-02-02T14:36:00Z</time>
      </trkpt>
      <trkpt lat="49.91495" lon="2.21165">
        <ele>62.4</ele>
        <time>2022-02-02T14:36:01Z</time>
      </trkpt>
      <trkpt lat="49.91494" lon="2.21165">
        <ele>62.5</ele>
        <time>2022-02-02T14:36:02Z</time>
      </trkpt>
      <trkpt lat="49.91493" lon="2.21164">
        <ele>62.6</ele>
        <time>2022-02-02T14:36:04Z</time>
      </trkpt>
      <trkpt lat="49.91492" lon="2.21163">
        <ele>62.7</ele>
        <time>2022-02-02T14:36:05Z</time>
      </trkpt>
      <trkpt lat="49.9149" lon="2.21162">
        <ele>62.7</ele>
        <time>2022-02-02T14:36:06Z</time>
      </trkpt>
      <trkpt lat="49.91489" lon="2.21161">
        <ele>62.8</ele>
        <time>2022-02-02T14:36:07Z</time>
      </trkpt>
      <trkpt lat="49.91487" lon="2.21159">
        <ele>62.9</ele>
        <time>2022-02-02T14:36:08Z</time>
      </trkpt>
      <trkpt lat="49.91487" lon="2.21159">
        <ele>63</ele>
        <time>2022-02-02T14:36:09Z</time>
      </trkpt>
      <trkpt lat="49.91486" lon="2.21159">
        <ele>63</ele>
        <time>2022-02-02T14:36:10Z</time>
      </trkpt>
      <trkpt lat="49.91484" lon="2.21157">
        <ele>63.2</ele>
        <time>2022-02-02T14:36:11Z</time>
      </trkpt>
      <trkpt lat="49.91483" lon="2.21157">
        <ele>63.2</ele>
        <time>2022-02-02T14:36:12Z</time>
      </trkpt>
      <trkpt lat="49.91482" lon="2.21156">
        <ele>63.2</ele>
        <time>2022-02-02T14:36:13Z</time>
      </trkpt>
      <trkpt lat="49.91481" lon="2.21155">
        <ele>63.3</ele>
        <time>2022-02-02T14:36:14Z</time>
      </trkpt>
      <trkpt lat="49.9148" lon="2.21155">
        <ele>63.4</ele>
        <time>2022-02-02T14:36:15Z</time>
      </trkpt>
      <trkpt lat="49.91479" lon="2.21154">
        <ele>63.4</ele>
        <time>2022-02-02T14:36:16Z</time>
      </trkpt>
      <trkpt lat="49.91478" lon="2.21154">
        <ele>63.5</ele>
        <time>2022-02-02T14:36:17Z</time>
      </trkpt>
      <trkpt lat="49.91476" lon="2.21153">
        <ele>63.6</ele>
        <time>2022-02-02T14:36:18Z</time>
      </trkpt>
      <trkpt lat="49.91474" lon="2.21151">
        <ele>63.7</ele>
        <time>2022-02-02T14:36:20Z</time>
      </trkpt>
      <trkpt lat="49.91474" lon="2.21151">
        <ele>63.8</ele>
        <time>2022-02-02T14:36:21Z</time>
      </trkpt>
      <trkpt lat="49.91473" lon="2.2115">
        <ele>63.8</ele>
        <time>2022-02-02T14:36:22Z</time>
      </trkpt>
      <trkpt lat="49.91472" lon="2.21149">
        <ele>63.9</ele>
        <time>2022-02-02T14:36:23Z</time>
      </trkpt>
      <trkpt lat="49.91471" lon="2.21148">
        <ele>63.9</ele>
        <time>2022-02-02T14:36:25Z</time>
      </trkpt>
      <trkpt lat="49.9147" lon="2.21148">
        <ele>64</ele>
        <time>2022-02-02T14:36:26Z</time>
      </trkpt>
      <trkpt lat="49.91469" lon="2.21147">
        <ele>64.1</ele>
        <time>2022-02-02T14:36:27Z</time>
      </trkpt>
      <trkpt lat="49.91468" lon="2.21146">
        <ele>64.1</ele>
        <time>2022-02-02T14:36:29Z</time>
      </trkpt>
      <trkpt lat="49.91467" lon="2.21145">
        <ele>64.2</ele>
        <time>2022-02-02T14:36:30Z</time>
      </trkpt>
      <trkpt lat="49.91467" lon="2.21144">
        <ele>64.2</ele>
        <time>2022-02-02T14:36:31Z</time>
      </trkpt>
      <trkpt lat="49.91466" lon="2.21143">
        <ele>64.3</ele>
        <time>2022-02-02T14:36:32Z</time>
      </trkpt>
      <trkpt lat="49.91466" lon="2.21143">
        <ele>64.3</ele>
        <time>2022-02-02T14:36:33Z</time>
      </trkpt>
      <trkpt lat="49.91465" lon="2.21141">
        <ele>64.3</ele>
        <time>2022-02-02T14:36:34Z</time>
      </trkpt>
      <trkpt lat="49.91465" lon="2.2114">
        <ele>64.4</ele>
        <time>2022-02-02T14:36:36Z</time>
      </trkpt>
      <trkpt lat="49.91465" lon="2.21139">
        <ele>64.3</ele>
        <time>2022-02-02T14:36:37Z</time>
      </trkpt>
      <trkpt lat="49.91465" lon="2.21138">
        <ele>64.2</ele>
        <time>2022-02-02T14:36:38Z</time>
      </trkpt>
      <trkpt lat="49.91465" lon="2.21137">
        <ele>64.2</ele>
        <time>2022-02-02T14:36:39Z</time>
      </trkpt>
      <trkpt lat="49.91465" lon="2.21136">
        <ele>64.2</ele>
        <time>2022-02-02T14:36:40Z</time>
      </trkpt>
      <trkpt lat="49.91465" lon="2.21135">
        <ele>64.2</ele>
        <time>2022-02-02T14:36:41Z</time>
      </trkpt>
      <trkpt lat="49.91465" lon="2.21135">
        <ele>64.2</ele>
        <time>2022-02-02T14:36:42Z</time>
      </trkpt>
      <trkpt lat="49.91466" lon="2.21134">
        <ele>64.2</ele>
        <time>2022-02-02T14:36:43Z</time>
      </trkpt>
      <trkpt lat="49.91466" lon="2.21134">
        <ele>64.2</ele>
        <time>2022-02-02T14:36:44Z</time>
      </trkpt>
      <trkpt lat="49.91466" lon="2.21134">
        <ele>64.2</ele>
        <time>2022-02-02T14:36:45Z</time>
      </trkpt>
      <trkpt lat="49.91466" lon="2.21134">
        <ele>64.2</ele>
        <time>2022-02-02T14:36:46Z</time>
      </trkpt>
      <trkpt lat="49.91466" lon="2.21134">
        <ele>64.2</ele>
        <time>2022-02-02T14:36:47Z</time>
      </trkpt>
      <trkpt lat="49.91466" lon="2.21134">
        <ele>64.2</ele>
        <time>2022-02-02T14:36:48Z</time>
      </trkpt>
      <trkpt lat="49.91466" lon="2.21133">
        <ele>64.2</ele>
        <time>2022-02-02T14:36:49Z</time>
      </trkpt>
      <trkpt lat="49.91466" lon="2.21133">
        <ele>64.2</ele>
        <time>2022-02-02T14:36:50Z</time>
      </trkpt>
      <trkpt lat="49.91466" lon="2.21133">
        <ele>64.2</ele>
        <time>2022-02-02T14:36:51Z</time>
      </trkpt>
      <trkpt lat="49.91466" lon="2.21133">
        <ele>64.2</ele>
        <time>2022-02-02T14:36:52Z</time>
      </trkpt>
      <trkpt lat="49.91466" lon="2.21133">
        <ele>64.2</ele>
        <time>2022-02-02T14:36:53Z</time>
      </trkpt>
      <trkpt lat="49.91466" lon="2.21133">
        <ele>64.2</ele>
        <time>2022-02-02T14:36:54Z</time>
      </trkpt>
      <trkpt lat="49.91466" lon="2.21134">
        <ele>64.2</ele>
        <time>2022-02-02T14:36:55Z</time>
      </trkpt>
      <trkpt lat="49.91466" lon="2.21134">
        <ele>64.2</ele>
        <time>2022-02-02T14:36:56Z</time>
      </trkpt>
      <trkpt lat="49.91466" lon="2.21134">
        <ele>64.2</ele>
        <time>2022-02-02T14:36:57Z</time>
      </trkpt>
      <trkpt lat="49.91466" lon="2.21134">
        <ele>64.2</ele>
        <time>2022-02-02T14:36:58Z</time>
      </trkpt>
      <trkpt lat="49.91466" lon="2.21135">
        <ele>64.2</ele>
        <time>2022-02-02T14:36:59Z</time>
      </trkpt>
      <trkpt lat="49.91466" lon="2.21134">
        <ele>64.2</ele>
        <time>2022-02-02T14:37:00Z</time>
      </trkpt>
      <trkpt lat="49.91466" lon="2.21135">
        <ele>64.2</ele>
        <time>2022-02-02T14:37:01Z</time>
      </trkpt>
      <trkpt lat="49.91466" lon="2.21135">
        <ele>64.1</ele>
        <time>2022-02-02T14:37:02Z</time>
      </trkpt>
      <trkpt lat="49.91466" lon="2.21136">
        <ele>64.1</ele>
        <time>2022-02-02T14:37:03Z</time>
      </trkpt>
      <trkpt lat="49.91466" lon="2.21136">
        <ele>64.1</ele>
        <time>2022-02-02T14:37:05Z</time>
      </trkpt>
      <trkpt lat="49.91467" lon="2.21135">
        <ele>64.1</ele>
        <time>2022-02-02T14:37:06Z</time>
      </trkpt>
      <trkpt lat="49.91467" lon="2.21134">
        <ele>64.1</ele>
        <time>2022-02-02T14:37:07Z</time>
      </trkpt>
      <trkpt lat="49.91467" lon="2.21135">
        <ele>64.1</ele>
        <time>2022-02-02T14:37:08Z</time>
      </trkpt>
      <trkpt lat="49.91467" lon="2.21135">
        <ele>64.1</ele>
        <time>2022-02-02T14:37:09Z</time>
      </trkpt>
      <trkpt lat="49.91467" lon="2.21135">
        <ele>64.1</ele>
        <time>2022-02-02T14:37:10Z</time>
      </trkpt>
      <trkpt lat="49.91467" lon="2.21136">
        <ele>64.1</ele>
        <time>2022-02-02T14:37:11Z</time>
      </trkpt>
      <trkpt lat="49.91467" lon="2.21136">
        <ele>64.1</ele>
        <time>2022-02-02T14:37:12Z</time>
      </trkpt>
      <trkpt lat="49.91467" lon="2.21136">
        <ele>64.1</ele>
        <time>2022-02-02T14:37:13Z</time>
      </trkpt>
      <trkpt lat="49.91467" lon="2.21137">
        <ele>64.1</ele>
        <time>2022-02-02T14:37:14Z</time>
      </trkpt>
      <trkpt lat="49.91467" lon="2.21137">
        <ele>64.1</ele>
        <time>2022-02-02T14:37:15Z</time>
      </trkpt>
      <trkpt lat="49.91467" lon="2.21137">
        <ele>64.1</ele>
        <time>2022-02-02T14:37:16Z</time>
      </trkpt>
      <trkpt lat="49.91467" lon="2.21137">
        <ele>64.1</ele>
        <time>2022-02-02T14:37:17Z</time>
      </trkpt>
      <trkpt lat="49.91467" lon="2.21137">
        <ele>64.1</ele>
        <time>2022-02-02T14:37:18Z</time>
      </trkpt>
      <trkpt lat="49.91467" lon="2.21137">
        <ele>64.1</ele>
        <time>2022-02-02T14:37:19Z</time>
      </trkpt>
      <trkpt lat="49.91467" lon="2.21137">
        <ele>64.1</ele>
        <time>2022-02-02T14:37:20Z</time>
      </trkpt>
      <trkpt lat="49.91467" lon="2.21138">
        <ele>64.1</ele>
        <time>2022-02-02T14:37:21Z</time>
      </trkpt>
      <trkpt lat="49.91466" lon="2.21138">
        <ele>64.1</ele>
        <time>2022-02-02T14:37:22Z</time>
      </trkpt>
      <trkpt lat="49.91466" lon="2.21138">
        <ele>64.1</ele>
        <time>2022-02-02T14:37:23Z</time>
      </trkpt>
      <trkpt lat="49.91466" lon="2.21138">
        <ele>64.1</ele>
        <time>2022-02-02T14:37:24Z</time>
      </trkpt>
      <trkpt lat="49.91466" lon="2.21138">
        <ele>64.1</ele>
        <time>2022-02-02T14:37:25Z</time>
      </trkpt>
      <trkpt lat="49.91466" lon="2.21138">
        <ele>64.1</ele>
        <time>2022-02-02T14:37:26Z</time>
      </trkpt>
      <trkpt lat="49.91466" lon="2.21138">
        <ele>64.1</ele>
        <time>2022-02-02T14:37:27Z</time>
      </trkpt>
      <trkpt lat="49.91466" lon="2.21138">
        <ele>64.1</ele>
        <time>2022-02-02T14:37:28Z</time>
      </trkpt>
      <trkpt lat="49.91466" lon="2.21138">
        <ele>64.1</ele>
        <time>2022-02-02T14:37:29Z</time>
      </trkpt>
      <trkpt lat="49.91466" lon="2.21138">
        <ele>64.1</ele>
        <time>2022-02-02T14:37:30Z</time>
      </trkpt>
      <trkpt lat="49.91466" lon="2.21138">
        <ele>64.1</ele>
        <time>2022-02-02T14:37:31Z</time>
      </trkpt>
      <trkpt lat="49.91466" lon="2.21138">
        <ele>64.1</ele>
        <time>2022-02-02T14:37:32Z</time>
      </trkpt>
      <trkpt lat="49.91466" lon="2.21138">
        <ele>64.1</ele>
        <time>2022-02-02T14:37:33Z</time>
      </trkpt>
      <trkpt lat="49.91466" lon="2.21138">
        <ele>64.1</ele>
        <time>2022-02-02T14:37:34Z</time>
      </trkpt>
      <trkpt lat="49.91466" lon="2.21138">
        <ele>64.1</ele>
        <time>2022-02-02T14:37:35Z</time>
      </trkpt>
      <trkpt lat="49.91466" lon="2.21138">
        <ele>64.1</ele>
        <time>2022-02-02T14:37:36Z</time>
      </trkpt>
      <trkpt lat="49.91466" lon="2.21138">
        <ele>64.1</ele>
        <time>2022-02-02T14:37:37Z</time>
      </trkpt>
      <trkpt lat="49.91466" lon="2.21138">
        <ele>64.1</ele>
        <time>2022-02-02T14:37:38Z</time>
      </trkpt>
      <trkpt lat="49.91466" lon="2.21138">
        <ele>64.1</ele>
        <time>2022-02-02T14:37:39Z</time>
      </trkpt>
      <trkpt lat="49.91466" lon="2.21138">
        <ele>64.1</ele>
        <time>2022-02-02T14:37:40Z</time>
      </trkpt>
      <trkpt lat="49.91466" lon="2.21138">
        <ele>64.1</ele>
        <time>2022-02-02T14:37:41Z</time>
      </trkpt>
      <trkpt lat="49.91466" lon="2.21138">
        <ele>64.1</ele>
        <time>2022-02-02T14:37:42Z</time>
      </trkpt>
      <trkpt lat="49.91466" lon="2.21138">
        <ele>64.1</ele>
        <time>2022-02-02T14:37:43Z</time>
      </trkpt>
      <trkpt lat="49.91466" lon="2.21138">
        <ele>64.1</ele>
        <time>2022-02-02T14:37:44Z</time>
      </trkpt>
      <trkpt lat="49.91466" lon="2.21138">
        <ele>64.1</ele>
        <time>2022-02-02T14:37:45Z</time>
      </trkpt>
      <trkpt lat="49.91466" lon="2.21138">
        <ele>64.1</ele>
        <time>2022-02-02T14:37:46Z</time>
      </trkpt>
      <trkpt lat="49.91466" lon="2.21138">
        <ele>64.1</ele>
        <time>2022-02-02T14:37:47Z</time>
      </trkpt>
      <trkpt lat="49.91466" lon="2.21138">
        <ele>64.1</ele>
        <time>2022-02-02T14:37:48Z</time>
      </trkpt>
      <trkpt lat="49.91466" lon="2.21138">
        <ele>64.1</ele>
        <time>2022-02-02T14:37:49Z</time>
      </trkpt>
      <trkpt lat="49.91466" lon="2.21138">
        <ele>64.1</ele>
        <time>2022-02-02T14:37:50Z</time>
      </trkpt>
      <trkpt lat="49.91466" lon="2.21138">
        <ele>64.1</ele>
        <time>2022-02-02T14:37:51Z</time>
      </trkpt>
      <trkpt lat="49.91466" lon="2.21138">
        <ele>64.1</ele>
        <time>2022-02-02T14:37:52Z</time>
      </trkpt>
      <trkpt lat="49.91466" lon="2.21138">
        <ele>64.1</ele>
        <time>2022-02-02T14:37:53Z</time>
      </trkpt>
      <trkpt lat="49.91466" lon="2.21138">
        <ele>64.1</ele>
        <time>2022-02-02T14:37:54Z</time>
      </trkpt>
      <trkpt lat="49.91466" lon="2.21138">
        <ele>64.1</ele>
        <time>2022-02-02T14:37:55Z</time>
      </trkpt>
      <trkpt lat="49.91466" lon="2.21138">
        <ele>64.1</ele>
        <time>2022-02-02T14:37:56Z</time>
      </trkpt>
      <trkpt lat="49.91466" lon="2.21138">
        <ele>64.1</ele>
        <time>2022-02-02T14:37:57Z</time>
      </trkpt>
      <trkpt lat="49.91466" lon="2.21138">
        <ele>64.1</ele>
        <time>2022-02-02T14:37:58Z</time>
      </trkpt>
      <trkpt lat="49.91466" lon="2.21138">
        <ele>64.1</ele>
        <time>2022-02-02T14:37:59Z</time>
      </trkpt>
      <trkpt lat="49.91466" lon="2.21138">
        <ele>64.1</ele>
        <time>2022-02-02T14:38:00Z</time>
      </trkpt>
      <trkpt lat="49.91466" lon="2.21138">
        <ele>64.1</ele>
        <time>2022-02-02T14:38:01Z</time>
      </trkpt>
      <trkpt lat="49.91466" lon="2.21138">
        <ele>64.1</ele>
        <time>2022-02-02T14:38:02Z</time>
      </trkpt>
      <trkpt lat="49.91466" lon="2.21138">
        <ele>64.1</ele>
        <time>2022-02-02T14:38:03Z</time>
      </trkpt>
      <trkpt lat="49.91466" lon="2.21138">
        <ele>64.1</ele>
        <time>2022-02-02T14:38:04Z</time>
      </trkpt>
      <trkpt lat="49.91466" lon="2.21138">
        <ele>64.1</ele>
        <time>2022-02-02T14:38:05Z</time>
      </trkpt>
      <trkpt lat="49.91466" lon="2.21138">
        <ele>64.1</ele>
        <time>2022-02-02T14:38:06Z</time>
      </trkpt>
      <trkpt lat="49.91466" lon="2.21138">
        <ele>64.1</ele>
        <time>2022-02-02T14:38:07Z</time>
      </trkpt>
      <trkpt lat="49.91466" lon="2.21138">
        <ele>64.1</ele>
        <time>2022-02-02T14:38:08Z</time>
      </trkpt>
      <trkpt lat="49.91466" lon="2.21138">
        <ele>64.1</ele>
        <time>2022-02-02T14:38:09Z</time>
      </trkpt>
      <trkpt lat="49.91466" lon="2.21138">
        <ele>64.1</ele>
        <time>2022-02-02T14:38:10Z</time>
      </trkpt>
      <trkpt lat="49.91466" lon="2.21138">
        <ele>64.1</ele>
        <time>2022-02-02T14:38:11Z</time>
      </trkpt>
      <trkpt lat="49.91466" lon="2.21138">
        <ele>64.1</ele>
        <time>2022-02-02T14:38:12Z</time>
      </trkpt>
      <trkpt lat="49.91466" lon="2.21138">
        <ele>64.1</ele>
        <time>2022-02-02T14:38:13Z</time>
      </trkpt>
      <trkpt lat="49.91466" lon="2.21138">
        <ele>64.1</ele>
        <time>2022-02-02T14:38:14Z</time>
      </trkpt>
      <trkpt lat="49.91466" lon="2.21138">
        <ele>64.1</ele>
        <time>2022-02-02T14:38:15Z</time>
      </trkpt>
      <trkpt lat="49.91466" lon="2.21138">
        <ele>64.1</ele>
        <time>2022-02-02T14:38:16Z</time>
      </trkpt>
      <trkpt lat="49.91466" lon="2.21138">
        <ele>64.1</ele>
        <time>2022-02-02T14:38:17Z</time>
      </trkpt>
      <trkpt lat="49.91466" lon="2.21138">
        <ele>64.1</ele>
        <time>2022-02-02T14:38:18Z</time>
      </trkpt>
      <trkpt lat="49.91466" lon="2.21138">
        <ele>64.1</ele>
        <time>2022-02-02T14:38:19Z</time>
      </trkpt>
      <trkpt lat="49.91466" lon="2.21138">
        <ele>64.1</ele>
        <time>2022-02-02T14:38:20Z</time>
      </trkpt>
      <trkpt lat="49.91466" lon="2.21138">
        <ele>64.1</ele>
        <time>2022-02-02T14:38:21Z</time>
      </trkpt>
      <trkpt lat="49.91466" lon="2.21138">
        <ele>64.1</ele>
        <time>2022-02-02T14:38:22Z</time>
      </trkpt>
      <trkpt lat="49.91466" lon="2.21138">
        <ele>64.1</ele>
        <time>2022-02-02T14:38:23Z</time>
      </trkpt>
      <trkpt lat="49.91466" lon="2.21138">
        <ele>64.1</ele>
        <time>2022-02-02T14:38:24Z</time>
      </trkpt>
      <trkpt lat="49.91466" lon="2.21138">
        <ele>64.1</ele>
        <time>2022-02-02T14:38:25Z</time>
      </trkpt>
      <trkpt lat="49.91466" lon="2.21138">
        <ele>64.1</ele>
        <time>2022-02-02T14:38:26Z</time>
      </trkpt>
      <trkpt lat="49.91466" lon="2.21138">
        <ele>64.1</ele>
        <time>2022-02-02T14:38:27Z</time>
      </trkpt>
      <trkpt lat="49.91466" lon="2.21138">
        <ele>64.1</ele>
        <time>2022-02-02T14:38:28Z</time>
      </trkpt>
      <trkpt lat="49.91466" lon="2.21138">
        <ele>64.1</ele>
        <time>2022-02-02T14:38:29Z</time>
      </trkpt>
      <trkpt lat="49.91466" lon="2.21138">
        <ele>64.1</ele>
        <time>2022-02-02T14:38:30Z</time>
      </trkpt>
      <trkpt lat="49.91466" lon="2.21138">
        <ele>64.1</ele>
        <time>2022-02-02T14:38:31Z</time>
      </trkpt>
      <trkpt lat="49.91466" lon="2.21138">
        <ele>64.1</ele>
        <time>2022-02-02T14:38:32Z</time>
      </trkpt>
      <trkpt lat="49.91466" lon="2.21138">
        <ele>64.1</ele>
        <time>2022-02-02T14:38:33Z</time>
      </trkpt>
      <trkpt lat="49.91466" lon="2.21138">
        <ele>64.1</ele>
        <time>2022-02-02T14:38:34Z</time>
      </trkpt>
      <trkpt lat="49.91466" lon="2.21138">
        <ele>64.1</ele>
        <time>2022-02-02T14:38:35Z</time>
      </trkpt>
      <trkpt lat="49.91466" lon="2.21138">
        <ele>64.1</ele>
        <time>2022-02-02T14:38:36Z</time>
      </trkpt>
      <trkpt lat="49.91466" lon="2.21138">
        <ele>64.1</ele>
        <time>2022-02-02T14:38:37Z</time>
      </trkpt>
      <trkpt lat="49.91466" lon="2.21138">
        <ele>64.1</ele>
        <time>2022-02-02T14:38:38Z</time>
      </trkpt>
      <trkpt lat="49.91466" lon="2.21138">
        <ele>64.1</ele>
        <time>2022-02-02T14:38:39Z</time>
      </trkpt>
      <trkpt lat="49.91466" lon="2.21138">
        <ele>64.1</ele>
        <time>2022-02-02T14:38:40Z</time>
      </trkpt>
      <trkpt lat="49.91466" lon="2.21138">
        <ele>64.1</ele>
        <time>2022-02-02T14:38:41Z</time>
      </trkpt>
      <trkpt lat="49.91466" lon="2.21138">
        <ele>64.1</ele>
        <time>2022-02-02T14:38:42Z</time>
      </trkpt>
      <trkpt lat="49.91466" lon="2.21138">
        <ele>64.1</ele>
        <time>2022-02-02T14:38:43Z</time>
      </trkpt>
      <trkpt lat="49.91466" lon="2.21138">
        <ele>64.1</ele>
        <time>2022-02-02T14:38:44Z</time>
      </trkpt>
      <trkpt lat="49.91466" lon="2.21138">
        <ele>64.1</ele>
        <time>2022-02-02T14:38:45Z</time>
      </trkpt>
      <trkpt lat="49.91466" lon="2.21138">
        <ele>64.1</ele>
        <time>2022-02-02T14:38:46Z</time>
      </trkpt>
      <trkpt lat="49.91466" lon="2.21138">
        <ele>64.1</ele>
        <time>2022-02-02T14:38:47Z</time>
      </trkpt>
      <trkpt lat="49.91466" lon="2.21138">
        <ele>64.1</ele>
        <time>2022-02-02T14:38:48Z</time>
      </trkpt>
      <trkpt lat="49.91466" lon="2.21138">
        <ele>64.1</ele>
        <time>2022-02-02T14:38:49Z</time>
      </trkpt>
      <trkpt lat="49.91466" lon="2.21138">
        <ele>64.1</ele>
        <time>2022-02-02T14:38:50Z</time>
      </trkpt>
      <trkpt lat="49.91466" lon="2.21138">
        <ele>64.1</ele>
        <time>2022-02-02T14:38:51Z</time>
      </trkpt>
      <trkpt lat="49.91466" lon="2.21138">
        <ele>64.1</ele>
        <time>2022-02-02T14:38:52Z</time>
      </trkpt>
      <trkpt lat="49.91466" lon="2.21138">
        <ele>64.1</ele>
        <time>2022-02-02T14:38:53Z</time>
      </trkpt>
      <trkpt lat="49.91466" lon="2.21138">
        <ele>64.1</ele>
        <time>2022-02-02T14:38:54Z</time>
      </trkpt>
      <trkpt lat="49.91466" lon="2.21138">
        <ele>64.1</ele>
        <time>2022-02-02T14:38:55Z</time>
      </trkpt>
      <trkpt lat="49.91466" lon="2.21138">
        <ele>64.1</ele>
        <time>2022-02-02T14:38:56Z</time>
      </trkpt>
      <trkpt lat="49.91466" lon="2.21138">
        <ele>64.1</ele>
        <time>2022-02-02T14:38:57Z</time>
      </trkpt>
      <trkpt lat="49.91466" lon="2.21138">
        <ele>64.1</ele>
        <time>2022-02-02T14:38:58Z</time>
      </trkpt>
      <trkpt lat="49.91466" lon="2.21138">
        <ele>64.1</ele>
        <time>2022-02-02T14:38:59Z</time>
      </trkpt>
      <trkpt lat="49.91466" lon="2.21138">
        <ele>64.1</ele>
        <time>2022-02-02T14:39:00Z</time>
      </trkpt>
      <trkpt lat="49.91466" lon="2.21138">
        <ele>64.1</ele>
        <time>2022-02-02T14:39:01Z</time>
      </trkpt>
      <trkpt lat="49.91466" lon="2.21138">
        <ele>64.1</ele>
        <time>2022-02-02T14:39:02Z</time>
      </trkpt>
      <trkpt lat="49.91466" lon="2.21138">
        <ele>64.1</ele>
        <time>2022-02-02T14:39:03Z</time>
      </trkpt>
      <trkpt lat="49.91466" lon="2.21138">
        <ele>64.1</ele>
        <time>2022-02-02T14:39:04Z</time>
      </trkpt>
      <trkpt lat="49.91466" lon="2.21138">
        <ele>64.1</ele>
        <time>2022-02-02T14:39:05Z</time>
      </trkpt>
      <trkpt lat="49.91466" lon="2.21138">
        <ele>64.1</ele>
        <time>2022-02-02T14:39:06Z</time>
      </trkpt>
      <trkpt lat="49.91466" lon="2.21138">
        <ele>64.1</ele>
        <time>2022-02-02T14:39:07Z</time>
      </trkpt>
      <trkpt lat="49.91466" lon="2.21138">
        <ele>64.1</ele>
        <time>2022-02-02T14:39:08Z</time>
      </trkpt>
      <trkpt lat="49.91466" lon="2.21138">
        <ele>64.1</ele>
        <time>2022-02-02T14:39:09Z</time>
      </trkpt>
      <trkpt lat="49.91466" lon="2.21138">
        <ele>64.1</ele>
        <time>2022-02-02T14:39:10Z</time>
      </trkpt>
      <trkpt lat="49.91466" lon="2.21138">
        <ele>64.1</ele>
        <time>2022-02-02T14:39:11Z</time>
      </trkpt>
      <trkpt lat="49.91466" lon="2.21138">
        <ele>64.1</ele>
        <time>2022-02-02T14:39:12Z</time>
      </trkpt>
      <trkpt lat="49.91466" lon="2.21138">
        <ele>64.1</ele>
        <time>2022-02-02T14:39:13Z</time>
      </trkpt>
      <trkpt lat="49.91467" lon="2.21138">
        <ele>64.1</ele>
        <time>2022-02-02T14:39:14Z</time>
      </trkpt>
      <trkpt lat="49.91469" lon="2.21137">
        <ele>64.1</ele>
        <time>2022-02-02T14:39:15Z</time>
      </trkpt>
      <trkpt lat="49.91469" lon="2.21136">
        <ele>64</ele>
        <time>2022-02-02T14:39:16Z</time>
      </trkpt>
      <trkpt lat="49.9147" lon="2.21136">
        <ele>64</ele>
        <time>2022-02-02T14:39:17Z</time>
      </trkpt>
      <trkpt lat="49.9147" lon="2.21135">
        <ele>64</ele>
        <time>2022-02-02T14:39:18Z</time>
      </trkpt>
      <trkpt lat="49.9147" lon="2.21133">
        <ele>64</ele>
        <time>2022-02-02T14:39:19Z</time>
      </trkpt>
      <trkpt lat="49.9147" lon="2.21132">
        <ele>64</ele>
        <time>2022-02-02T14:39:20Z</time>
      </trkpt>
      <trkpt lat="49.9147" lon="2.21133">
        <ele>64</ele>
        <time>2022-02-02T14:39:21Z</time>
      </trkpt>
      <trkpt lat="49.9147" lon="2.21131">
        <ele>64</ele>
        <time>2022-02-02T14:39:22Z</time>
      </trkpt>
      <trkpt lat="49.91471" lon="2.2113">
        <ele>64</ele>
        <time>2022-02-02T14:39:23Z</time>
      </trkpt>
      <trkpt lat="49.91473" lon="2.21128">
        <ele>64</ele>
        <time>2022-02-02T14:39:24Z</time>
      </trkpt>
      <trkpt lat="49.91473" lon="2.21127">
        <ele>64</ele>
        <time>2022-02-02T14:39:26Z</time>
      </trkpt>
      <trkpt lat="49.91474" lon="2.21126">
        <ele>64</ele>
        <time>2022-02-02T14:39:27Z</time>
      </trkpt>
      <trkpt lat="49.91476" lon="2.21123">
        <ele>64</ele>
        <time>2022-02-02T14:39:28Z</time>
      </trkpt>
      <trkpt lat="49.91476" lon="2.21122">
        <ele>64</ele>
        <time>2022-02-02T14:39:29Z</time>
      </trkpt>
      <trkpt lat="49.91477" lon="2.21121">
        <ele>64</ele>
        <time>2022-02-02T14:39:30Z</time>
      </trkpt>
      <trkpt lat="49.91478" lon="2.21119">
        <ele>64</ele>
        <time>2022-02-02T14:39:31Z</time>
      </trkpt>
      <trkpt lat="49.91479" lon="2.21117">
        <ele>64</ele>
        <time>2022-02-02T14:39:32Z</time>
      </trkpt>
      <trkpt lat="49.91479" lon="2.21115">
        <ele>64</ele>
        <time>2022-02-02T14:39:33Z</time>
      </trkpt>
      <trkpt lat="49.9148" lon="2.21114">
        <ele>64</ele>
        <time>2022-02-02T14:39:34Z</time>
      </trkpt>
      <trkpt lat="49.91482" lon="2.21111">
        <ele>64</ele>
        <time>2022-02-02T14:39:35Z</time>
      </trkpt>
      <trkpt lat="49.91482" lon="2.2111">
        <ele>64</ele>
        <time>2022-02-02T14:39:37Z</time>
      </trkpt>
      <trkpt lat="49.91483" lon="2.21109">
        <ele>64</ele>
        <time>2022-02-02T14:39:38Z</time>
      </trkpt>
      <trkpt lat="49.91483" lon="2.21109">
        <ele>64</ele>
        <time>2022-02-02T14:39:39Z</time>
      </trkpt>
      <trkpt lat="49.91483" lon="2.21108">
        <ele>64</ele>
        <time>2022-02-02T14:39:40Z</time>
      </trkpt>
      <trkpt lat="49.91483" lon="2.21107">
        <ele>64</ele>
        <time>2022-02-02T14:39:41Z</time>
      </trkpt>
      <trkpt lat="49.91484" lon="2.21105">
        <ele>64</ele>
        <time>2022-02-02T14:39:42Z</time>
      </trkpt>
      <trkpt lat="49.91486" lon="2.21104">
        <ele>64</ele>
        <time>2022-02-02T14:39:43Z</time>
      </trkpt>
      <trkpt lat="49.91487" lon="2.21103">
        <ele>64</ele>
        <time>2022-02-02T14:39:44Z</time>
      </trkpt>
      <trkpt lat="49.91489" lon="2.21102">
        <ele>64</ele>
        <time>2022-02-02T14:39:45Z</time>
      </trkpt>
      <trkpt lat="49.9149" lon="2.21101">
        <ele>64</ele>
        <time>2022-02-02T14:39:46Z</time>
      </trkpt>
      <trkpt lat="49.91491" lon="2.211">
        <ele>64</ele>
        <time>2022-02-02T14:39:47Z</time>
      </trkpt>
      <trkpt lat="49.91492" lon="2.211">
        <ele>64</ele>
        <time>2022-02-02T14:39:49Z</time>
      </trkpt>
      <trkpt lat="49.91493" lon="2.21099">
        <ele>64.1</ele>
        <time>2022-02-02T14:39:50Z</time>
      </trkpt>
      <trkpt lat="49.91494" lon="2.21098">
        <ele>64.1</ele>
        <time>2022-02-02T14:39:51Z</time>
      </trkpt>
      <trkpt lat="49.91495" lon="2.21097">
        <ele>64.1</ele>
        <time>2022-02-02T14:39:52Z</time>
      </trkpt>
      <trkpt lat="49.91496" lon="2.21096">
        <ele>64.1</ele>
        <time>2022-02-02T14:39:53Z</time>
      </trkpt>
      <trkpt lat="49.91498" lon="2.21095">
        <ele>64.1</ele>
        <time>2022-02-02T14:39:54Z</time>
      </trkpt>
      <trkpt lat="49.91499" lon="2.21094">
        <ele>64.1</ele>
        <time>2022-02-02T14:39:55Z</time>
      </trkpt>
      <trkpt lat="49.91501" lon="2.21093">
        <ele>64.1</ele>
        <time>2022-02-02T14:39:56Z</time>
      </trkpt>
      <trkpt lat="49.91502" lon="2.21092">
        <ele>64.1</ele>
        <time>2022-02-02T14:39:57Z</time>
      </trkpt>
      <trkpt lat="49.91503" lon="2.21091">
        <ele>64.1</ele>
        <time>2022-02-02T14:39:58Z</time>
      </trkpt>
      <trkpt lat="49.91505" lon="2.2109">
        <ele>64.1</ele>
        <time>2022-02-02T14:40:00Z</time>
      </trkpt>
      <trkpt lat="49.91506" lon="2.21089">
        <ele>64.1</ele>
        <time>2022-02-02T14:40:01Z</time>
      </trkpt>
      <trkpt lat="49.91507" lon="2.21088">
        <ele>64.2</ele>
        <time>2022-02-02T14:40:02Z</time>
      </trkpt>
      <trkpt lat="49.91509" lon="2.21087">
        <ele>64.2</ele>
        <time>2022-02-02T14:40:03Z</time>
      </trkpt>
      <trkpt lat="49.9151" lon="2.21085">
        <ele>64.2</ele>
        <time>2022-02-02T14:40:04Z</time>
      </trkpt>
      <trkpt lat="49.91511" lon="2.21084">
        <ele>64.3</ele>
        <time>2022-02-02T14:40:05Z</time>
      </trkpt>
      <trkpt lat="49.91512" lon="2.21083">
        <ele>64.3</ele>
        <time>2022-02-02T14:40:06Z</time>
      </trkpt>
      <trkpt lat="49.91514" lon="2.21082">
        <ele>64.3</ele>
        <time>2022-02-02T14:40:07Z</time>
      </trkpt>
      <trkpt lat="49.91515" lon="2.2108">
        <ele>64.4</ele>
        <time>2022-02-02T14:40:08Z</time>
      </trkpt>
      <trkpt lat="49.91516" lon="2.21079">
        <ele>64.4</ele>
        <time>2022-02-02T14:40:09Z</time>
      </trkpt>
      <trkpt lat="49.91517" lon="2.21078">
        <ele>64.4</ele>
        <time>2022-02-02T14:40:10Z</time>
      </trkpt>
      <trkpt lat="49.91519" lon="2.21077">
        <ele>64.5</ele>
        <time>2022-02-02T14:40:11Z</time>
      </trkpt>
      <trkpt lat="49.9152" lon="2.21076">
        <ele>64.5</ele>
        <time>2022-02-02T14:40:13Z</time>
      </trkpt>
      <trkpt lat="49.91522" lon="2.21075">
        <ele>64.5</ele>
        <time>2022-02-02T14:40:14Z</time>
      </trkpt>
      <trkpt lat="49.91523" lon="2.21074">
        <ele>64.6</ele>
        <time>2022-02-02T14:40:15Z</time>
      </trkpt>
      <trkpt lat="49.91524" lon="2.21073">
        <ele>64.6</ele>
        <time>2022-02-02T14:40:16Z</time>
      </trkpt>
      <trkpt lat="49.91525" lon="2.21072">
        <ele>64.6</ele>
        <time>2022-02-02T14:40:17Z</time>
      </trkpt>
      <trkpt lat="49.91527" lon="2.21072">
        <ele>64.6</ele>
        <time>2022-02-02T14:40:18Z</time>
      </trkpt>
      <trkpt lat="49.91529" lon="2.21071">
        <ele>64.7</ele>
        <time>2022-02-02T14:40:19Z</time>
      </trkpt>
      <trkpt lat="49.9153" lon="2.21071">
        <ele>64.7</ele>
        <time>2022-02-02T14:40:20Z</time>
      </trkpt>
      <trkpt lat="49.9153" lon="2.2107">
        <ele>64.7</ele>
        <time>2022-02-02T14:40:21Z</time>
      </trkpt>
      <trkpt lat="49.91532" lon="2.2107">
        <ele>64.7</ele>
        <time>2022-02-02T14:40:22Z</time>
      </trkpt>
      <trkpt lat="49.91533" lon="2.2107">
        <ele>64.7</ele>
        <time>2022-02-02T14:40:24Z</time>
      </trkpt>
      <trkpt lat="49.91534" lon="2.2107">
        <ele>64.7</ele>
        <time>2022-02-02T14:40:25Z</time>
      </trkpt>
      <trkpt lat="49.91536" lon="2.2107">
        <ele>64.8</ele>
        <time>2022-02-02T14:40:26Z</time>
      </trkpt>
      <trkpt lat="49.91537" lon="2.21069">
        <ele>64.8</ele>
        <time>2022-02-02T14:40:27Z</time>
      </trkpt>
      <trkpt lat="49.91538" lon="2.21069">
        <ele>64.8</ele>
        <time>2022-02-02T14:40:28Z</time>
      </trkpt>
      <trkpt lat="49.91539" lon="2.21069">
        <ele>64.8</ele>
        <time>2022-02-02T14:40:29Z</time>
      </trkpt>
      <trkpt lat="49.91541" lon="2.21068">
        <ele>64.8</ele>
        <time>2022-02-02T14:40:30Z</time>
      </trkpt>
      <trkpt lat="49.91542" lon="2.21067">
        <ele>64.9</ele>
        <time>2022-02-02T14:40:31Z</time>
      </trkpt>
      <trkpt lat="49.91543" lon="2.21067">
        <ele>64.9</ele>
        <time>2022-02-02T14:40:32Z</time>
      </trkpt>
      <trkpt lat="49.91545" lon="2.21065">
        <ele>64.9</ele>
        <time>2022-02-02T14:40:34Z</time>
      </trkpt>
      <trkpt lat="49.91546" lon="2.21064">
        <ele>64.9</ele>
        <time>2022-02-02T14:40:35Z</time>
      </trkpt>
      <trkpt lat="49.91548" lon="2.21064">
        <ele>65</ele>
        <time>2022-02-02T14:40:37Z</time>
      </trkpt>
      <trkpt lat="49.91549" lon="2.21063">
        <ele>65</ele>
        <time>2022-02-02T14:40:38Z</time>
      </trkpt>
      <trkpt lat="49.91551" lon="2.21062">
        <ele>65</ele>
        <time>2022-02-02T14:40:39Z</time>
      </trkpt>
      <trkpt lat="49.91552" lon="2.21062">
        <ele>65</ele>
        <time>2022-02-02T14:40:40Z</time>
      </trkpt>
      <trkpt lat="49.91553" lon="2.21061">
        <ele>65</ele>
        <time>2022-02-02T14:40:41Z</time>
      </trkpt>
      <trkpt lat="49.91555" lon="2.2106">
        <ele>65.1</ele>
        <time>2022-02-02T14:40:42Z</time>
      </trkpt>
      <trkpt lat="49.91556" lon="2.21059">
        <ele>65.1</ele>
        <time>2022-02-02T14:40:43Z</time>
      </trkpt>
      <trkpt lat="49.91556" lon="2.21059">
        <ele>65.1</ele>
        <time>2022-02-02T14:40:44Z</time>
      </trkpt>
      <trkpt lat="49.91558" lon="2.21057">
        <ele>65.1</ele>
        <time>2022-02-02T14:40:45Z</time>
      </trkpt>
      <trkpt lat="49.91559" lon="2.21056">
        <ele>65.1</ele>
        <time>2022-02-02T14:40:46Z</time>
      </trkpt>
      <trkpt lat="49.9156" lon="2.21056">
        <ele>65.2</ele>
        <time>2022-02-02T14:40:48Z</time>
      </trkpt>
      <trkpt lat="49.91561" lon="2.21055">
        <ele>65.2</ele>
        <time>2022-02-02T14:40:49Z</time>
      </trkpt>
      <trkpt lat="49.91561" lon="2.21055">
        <ele>65.2</ele>
        <time>2022-02-02T14:40:50Z</time>
      </trkpt>
      <trkpt lat="49.91562" lon="2.21054">
        <ele>65.2</ele>
        <time>2022-02-02T14:40:51Z</time>
      </trkpt>
      <trkpt lat="49.91563" lon="2.21053">
        <ele>65.2</ele>
        <time>2022-02-02T14:40:52Z</time>
      </trkpt>
      <trkpt lat="49.91565" lon="2.21052">
        <ele>65.3</ele>
        <time>2022-02-02T14:40:53Z</time>
      </trkpt>
      <trkpt lat="49.91565" lon="2.21051">
        <ele>65.3</ele>
        <time>2022-02-02T14:40:54Z</time>
      </trkpt>
      <trkpt lat="49.91566" lon="2.2105">
        <ele>65.3</ele>
        <time>2022-02-02T14:40:55Z</time>
      </trkpt>
      <trkpt lat="49.91567" lon="2.21049">
        <ele>65.3</ele>
        <time>2022-02-02T14:40:56Z</time>
      </trkpt>
      <trkpt lat="49.91569" lon="2.21048">
        <ele>65.3</ele>
        <time>2022-02-02T14:40:57Z</time>
      </trkpt>
      <trkpt lat="49.9157" lon="2.21046">
        <ele>65.4</ele>
        <time>2022-02-02T14:40:58Z</time>
      </trkpt>
      <trkpt lat="49.91571" lon="2.21045">
        <ele>65.4</ele>
        <time>2022-02-02T14:40:59Z</time>
      </trkpt>
      <trkpt lat="49.91572" lon="2.21044">
        <ele>65.4</ele>
        <time>2022-02-02T14:41:01Z</time>
      </trkpt>
      <trkpt lat="49.91573" lon="2.21042">
        <ele>65.4</ele>
        <time>2022-02-02T14:41:02Z</time>
      </trkpt>
      <trkpt lat="49.91574" lon="2.21041">
        <ele>65.4</ele>
        <time>2022-02-02T14:41:03Z</time>
      </trkpt>
      <trkpt lat="49.91575" lon="2.21038">
        <ele>65.5</ele>
        <time>2022-02-02T14:41:04Z</time>
      </trkpt>
      <trkpt lat="49.91576" lon="2.21037">
        <ele>65.5</ele>
        <time>2022-02-02T14:41:05Z</time>
      </trkpt>
      <trkpt lat="49.91576" lon="2.21036">
        <ele>65.5</ele>
        <time>2022-02-02T14:41:06Z</time>
      </trkpt>
      <trkpt lat="49.91577" lon="2.21035">
        <ele>65.5</ele>
        <time>2022-02-02T14:41:07Z</time>
      </trkpt>
      <trkpt lat="49.91578" lon="2.21034">
        <ele>65.6</ele>
        <time>2022-02-02T14:41:08Z</time>
      </trkpt>
      <trkpt lat="49.91579" lon="2.21033">
        <ele>65.6</ele>
        <time>2022-02-02T14:41:09Z</time>
      </trkpt>
      <trkpt lat="49.9158" lon="2.21033">
        <ele>65.6</ele>
        <time>2022-02-02T14:41:10Z</time>
      </trkpt>
      <trkpt lat="49.91581" lon="2.21032">
        <ele>65.6</ele>
        <time>2022-02-02T14:41:11Z</time>
      </trkpt>
      <trkpt lat="49.91582" lon="2.21031">
        <ele>65.6</ele>
        <time>2022-02-02T14:41:13Z</time>
      </trkpt>
      <trkpt lat="49.91583" lon="2.21029">
        <ele>65.6</ele>
        <time>2022-02-02T14:41:14Z</time>
      </trkpt>
      <trkpt lat="49.91584" lon="2.21028">
        <ele>65.7</ele>
        <time>2022-02-02T14:41:15Z</time>
      </trkpt>
      <trkpt lat="49.91586" lon="2.21026">
        <ele>65.7</ele>
        <time>2022-02-02T14:41:16Z</time>
      </trkpt>
      <trkpt lat="49.91587" lon="2.21026">
        <ele>65.7</ele>
        <time>2022-02-02T14:41:17Z</time>
      </trkpt>
      <trkpt lat="49.91588" lon="2.21025">
        <ele>65.7</ele>
        <time>2022-02-02T14:41:18Z</time>
      </trkpt>
      <trkpt lat="49.91589" lon="2.21023">
        <ele>65.8</ele>
        <time>2022-02-02T14:41:19Z</time>
      </trkpt>
      <trkpt lat="49.9159" lon="2.21022">
        <ele>65.8</ele>
        <time>2022-02-02T14:41:20Z</time>
      </trkpt>
      <trkpt lat="49.91591" lon="2.21021">
        <ele>65.8</ele>
        <time>2022-02-02T14:41:21Z</time>
      </trkpt>
      <trkpt lat="49.91592" lon="2.21019">
        <ele>65.8</ele>
        <time>2022-02-02T14:41:22Z</time>
      </trkpt>
      <trkpt lat="49.91593" lon="2.21019">
        <ele>65.8</ele>
        <time>2022-02-02T14:41:23Z</time>
      </trkpt>
      <trkpt lat="49.91594" lon="2.21018">
        <ele>65.8</ele>
        <time>2022-02-02T14:41:24Z</time>
      </trkpt>
      <trkpt lat="49.91595" lon="2.21016">
        <ele>65.8</ele>
        <time>2022-02-02T14:41:26Z</time>
      </trkpt>
      <trkpt lat="49.91596" lon="2.21015">
        <ele>65.8</ele>
        <time>2022-02-02T14:41:27Z</time>
      </trkpt>
      <trkpt lat="49.91598" lon="2.21013">
        <ele>65.8</ele>
        <time>2022-02-02T14:41:28Z</time>
      </trkpt>
      <trkpt lat="49.91598" lon="2.21012">
        <ele>65.8</ele>
        <time>2022-02-02T14:41:29Z</time>
      </trkpt>
      <trkpt lat="49.91599" lon="2.21012">
        <ele>65.8</ele>
        <time>2022-02-02T14:41:30Z</time>
      </trkpt>
      <trkpt lat="49.91601" lon="2.21009">
        <ele>65.9</ele>
        <time>2022-02-02T14:41:31Z</time>
      </trkpt>
      <trkpt lat="49.91601" lon="2.21009">
        <ele>65.9</ele>
        <time>2022-02-02T14:41:32Z</time>
      </trkpt>
      <trkpt lat="49.91602" lon="2.21008">
        <ele>65.9</ele>
        <time>2022-02-02T14:41:33Z</time>
      </trkpt>
      <trkpt lat="49.91603" lon="2.21006">
        <ele>65.9</ele>
        <time>2022-02-02T14:41:34Z</time>
      </trkpt>
      <trkpt lat="49.91604" lon="2.21005">
        <ele>65.9</ele>
        <time>2022-02-02T14:41:35Z</time>
      </trkpt>
      <trkpt lat="49.91606" lon="2.21003">
        <ele>65.9</ele>
        <time>2022-02-02T14:41:36Z</time>
      </trkpt>
      <trkpt lat="49.91606" lon="2.21002">
        <ele>65.9</ele>
        <time>2022-02-02T14:41:38Z</time>
      </trkpt>
      <trkpt lat="49.91607" lon="2.21001">
        <ele>65.9</ele>
        <time>2022-02-02T14:41:39Z</time>
      </trkpt>
      <trkpt lat="49.91608" lon="2.21">
        <ele>65.9</ele>
        <time>2022-02-02T14:41:40Z</time>
      </trkpt>
      <trkpt lat="49.91609" lon="2.20999">
        <ele>65.9</ele>
        <time>2022-02-02T14:41:41Z</time>
      </trkpt>
      <trkpt lat="49.91611" lon="2.20997">
        <ele>65.9</ele>
        <time>2022-02-02T14:41:42Z</time>
      </trkpt>
      <trkpt lat="49.91612" lon="2.20996">
        <ele>65.9</ele>
        <time>2022-02-02T14:41:43Z</time>
      </trkpt>
      <trkpt lat="49.91613" lon="2.20995">
        <ele>65.9</ele>
        <time>2022-02-02T14:41:44Z</time>
      </trkpt>
      <trkpt lat="49.91614" lon="2.20994">
        <ele>65.9</ele>
        <time>2022-02-02T14:41:45Z</time>
      </trkpt>
      <trkpt lat="49.91615" lon="2.20992">
        <ele>65.9</ele>
        <time>2022-02-02T14:41:46Z</time>
      </trkpt>
      <trkpt lat="49.91617" lon="2.2099">
        <ele>65.9</ele>
        <time>2022-02-02T14:41:48Z</time>
      </trkpt>
      <trkpt lat="49.91618" lon="2.20989">
        <ele>65.9</ele>
        <time>2022-02-02T14:41:49Z</time>
      </trkpt>
      <trkpt lat="49.91619" lon="2.20988">
        <ele>65.9</ele>
        <time>2022-02-02T14:41:50Z</time>
      </trkpt>
      <trkpt lat="49.9162" lon="2.20986">
        <ele>65.9</ele>
        <time>2022-02-02T14:41:52Z</time>
      </trkpt>
      <trkpt lat="49.91621" lon="2.20984">
        <ele>65.8</ele>
        <time>2022-02-02T14:41:53Z</time>
      </trkpt>
      <trkpt lat="49.91622" lon="2.20983">
        <ele>65.8</ele>
        <time>2022-02-02T14:41:54Z</time>
      </trkpt>
      <trkpt lat="49.91624" lon="2.2098">
        <ele>65.8</ele>
        <time>2022-02-02T14:41:55Z</time>
      </trkpt>
      <trkpt lat="49.91625" lon="2.20979">
        <ele>65.8</ele>
        <time>2022-02-02T14:41:56Z</time>
      </trkpt>
      <trkpt lat="49.91626" lon="2.20979">
        <ele>65.8</ele>
        <time>2022-02-02T14:41:57Z</time>
      </trkpt>
      <trkpt lat="49.91627" lon="2.20977">
        <ele>65.8</ele>
        <time>2022-02-02T14:41:59Z</time>
      </trkpt>
      <trkpt lat="49.91628" lon="2.20976">
        <ele>65.8</ele>
        <time>2022-02-02T14:42:00Z</time>
      </trkpt>
      <trkpt lat="49.91629" lon="2.20975">
        <ele>65.8</ele>
        <time>2022-02-02T14:42:01Z</time>
      </trkpt>
      <trkpt lat="49.9163" lon="2.20973">
        <ele>65.7</ele>
        <time>2022-02-02T14:42:02Z</time>
      </trkpt>
      <trkpt lat="49.91632" lon="2.20972">
        <ele>65.7</ele>
        <time>2022-02-02T14:42:03Z</time>
      </trkpt>
      <trkpt lat="49.91633" lon="2.20971">
        <ele>65.7</ele>
        <time>2022-02-02T14:42:04Z</time>
      </trkpt>
      <trkpt lat="49.91634" lon="2.20969">
        <ele>65.7</ele>
        <time>2022-02-02T14:42:05Z</time>
      </trkpt>
      <trkpt lat="49.91635" lon="2.20968">
        <ele>65.7</ele>
        <time>2022-02-02T14:42:06Z</time>
      </trkpt>
      <trkpt lat="49.91636" lon="2.20967">
        <ele>65.7</ele>
        <time>2022-02-02T14:42:07Z</time>
      </trkpt>
      <trkpt lat="49.91637" lon="2.20966">
        <ele>65.6</ele>
        <time>2022-02-02T14:42:08Z</time>
      </trkpt>
      <trkpt lat="49.91639" lon="2.20964">
        <ele>65.6</ele>
        <time>2022-02-02T14:42:09Z</time>
      </trkpt>
      <trkpt lat="49.91639" lon="2.20963">
        <ele>65.6</ele>
        <time>2022-02-02T14:42:11Z</time>
      </trkpt>
      <trkpt lat="49.9164" lon="2.20962">
        <ele>65.6</ele>
        <time>2022-02-02T14:42:12Z</time>
      </trkpt>
      <trkpt lat="49.91642" lon="2.20961">
        <ele>65.6</ele>
        <time>2022-02-02T14:42:13Z</time>
      </trkpt>
      <trkpt lat="49.91643" lon="2.2096">
        <ele>65.5</ele>
        <time>2022-02-02T14:42:14Z</time>
      </trkpt>
      <trkpt lat="49.91644" lon="2.20959">
        <ele>65.5</ele>
        <time>2022-02-02T14:42:15Z</time>
      </trkpt>
      <trkpt lat="49.91645" lon="2.20958">
        <ele>65.5</ele>
        <time>2022-02-02T14:42:16Z</time>
      </trkpt>
      <trkpt lat="49.91646" lon="2.20956">
        <ele>65.5</ele>
        <time>2022-02-02T14:42:17Z</time>
      </trkpt>
      <trkpt lat="49.91647" lon="2.20955">
        <ele>65.5</ele>
        <time>2022-02-02T14:42:18Z</time>
      </trkpt>
      <trkpt lat="49.91648" lon="2.20954">
        <ele>65.5</ele>
        <time>2022-02-02T14:42:19Z</time>
      </trkpt>
      <trkpt lat="49.91648" lon="2.20952">
        <ele>65.4</ele>
        <time>2022-02-02T14:42:21Z</time>
      </trkpt>
      <trkpt lat="49.9165" lon="2.20949">
        <ele>65.4</ele>
        <time>2022-02-02T14:42:22Z</time>
      </trkpt>
      <trkpt lat="49.9165" lon="2.20948">
        <ele>65.4</ele>
        <time>2022-02-02T14:42:23Z</time>
      </trkpt>
      <trkpt lat="49.9165" lon="2.20947">
        <ele>65.4</ele>
        <time>2022-02-02T14:42:24Z</time>
      </trkpt>
      <trkpt lat="49.91651" lon="2.20945">
        <ele>65.4</ele>
        <time>2022-02-02T14:42:25Z</time>
      </trkpt>
      <trkpt lat="49.91652" lon="2.20944">
        <ele>65.3</ele>
        <time>2022-02-02T14:42:26Z</time>
      </trkpt>
      <trkpt lat="49.91653" lon="2.20942">
        <ele>65.3</ele>
        <time>2022-02-02T14:42:27Z</time>
      </trkpt>
      <trkpt lat="49.91654" lon="2.2094">
        <ele>65.3</ele>
        <time>2022-02-02T14:42:28Z</time>
      </trkpt>
      <trkpt lat="49.91655" lon="2.20938">
        <ele>65.3</ele>
        <time>2022-02-02T14:42:30Z</time>
      </trkpt>
      <trkpt lat="49.91656" lon="2.20936">
        <ele>65.3</ele>
        <time>2022-02-02T14:42:31Z</time>
      </trkpt>
      <trkpt lat="49.91656" lon="2.20935">
        <ele>65.2</ele>
        <time>2022-02-02T14:42:32Z</time>
      </trkpt>
      <trkpt lat="49.91657" lon="2.20933">
        <ele>65.2</ele>
        <time>2022-02-02T14:42:33Z</time>
      </trkpt>
      <trkpt lat="49.91658" lon="2.20931">
        <ele>65.2</ele>
        <time>2022-02-02T14:42:34Z</time>
      </trkpt>
      <trkpt lat="49.9166" lon="2.20929">
        <ele>65.2</ele>
        <time>2022-02-02T14:42:35Z</time>
      </trkpt>
      <trkpt lat="49.91661" lon="2.20928">
        <ele>65.2</ele>
        <time>2022-02-02T14:42:36Z</time>
      </trkpt>
      <trkpt lat="49.91662" lon="2.20926">
        <ele>65.1</ele>
        <time>2022-02-02T14:42:37Z</time>
      </trkpt>
      <trkpt lat="49.91663" lon="2.20925">
        <ele>65.1</ele>
        <time>2022-02-02T14:42:38Z</time>
      </trkpt>
      <trkpt lat="49.91664" lon="2.20923">
        <ele>65.1</ele>
        <time>2022-02-02T14:42:39Z</time>
      </trkpt>
      <trkpt lat="49.91665" lon="2.20922">
        <ele>65.1</ele>
        <time>2022-02-02T14:42:40Z</time>
      </trkpt>
      <trkpt lat="49.91666" lon="2.20921">
        <ele>65.1</ele>
        <time>2022-02-02T14:42:41Z</time>
      </trkpt>
      <trkpt lat="49.91667" lon="2.20919">
        <ele>65</ele>
        <time>2022-02-02T14:42:43Z</time>
      </trkpt>
      <trkpt lat="49.91667" lon="2.20917">
        <ele>65</ele>
        <time>2022-02-02T14:42:44Z</time>
      </trkpt>
      <trkpt lat="49.91668" lon="2.20916">
        <ele>65</ele>
        <time>2022-02-02T14:42:45Z</time>
      </trkpt>
      <trkpt lat="49.9167" lon="2.20914">
        <ele>65</ele>
        <time>2022-02-02T14:42:46Z</time>
      </trkpt>
      <trkpt lat="49.91671" lon="2.20913">
        <ele>64.9</ele>
        <time>2022-02-02T14:42:47Z</time>
      </trkpt>
      <trkpt lat="49.91672" lon="2.20911">
        <ele>64.9</ele>
        <time>2022-02-02T14:42:48Z</time>
      </trkpt>
      <trkpt lat="49.91673" lon="2.2091">
        <ele>64.9</ele>
        <time>2022-02-02T14:42:49Z</time>
      </trkpt>
      <trkpt lat="49.91674" lon="2.20908">
        <ele>64.9</ele>
        <time>2022-02-02T14:42:51Z</time>
      </trkpt>
      <trkpt lat="49.91675" lon="2.20907">
        <ele>64.8</ele>
        <time>2022-02-02T14:42:52Z</time>
      </trkpt>
      <trkpt lat="49.91677" lon="2.20905">
        <ele>64.8</ele>
        <time>2022-02-02T14:42:53Z</time>
      </trkpt>
      <trkpt lat="49.91678" lon="2.20904">
        <ele>64.8</ele>
        <time>2022-02-02T14:42:54Z</time>
      </trkpt>
      <trkpt lat="49.91679" lon="2.20903">
        <ele>64.8</ele>
        <time>2022-02-02T14:42:55Z</time>
      </trkpt>
      <trkpt lat="49.9168" lon="2.20901">
        <ele>64.7</ele>
        <time>2022-02-02T14:42:56Z</time>
      </trkpt>
      <trkpt lat="49.91681" lon="2.209">
        <ele>64.7</ele>
        <time>2022-02-02T14:42:57Z</time>
      </trkpt>
      <trkpt lat="49.91682" lon="2.20899">
        <ele>64.7</ele>
        <time>2022-02-02T14:42:58Z</time>
      </trkpt>
      <trkpt lat="49.91683" lon="2.20897">
        <ele>64.7</ele>
        <time>2022-02-02T14:43:00Z</time>
      </trkpt>
      <trkpt lat="49.91685" lon="2.20896">
        <ele>64.6</ele>
        <time>2022-02-02T14:43:01Z</time>
      </trkpt>
      <trkpt lat="49.91686" lon="2.20895">
        <ele>64.6</ele>
        <time>2022-02-02T14:43:02Z</time>
      </trkpt>
      <trkpt lat="49.91687" lon="2.20893">
        <ele>64.5</ele>
        <time>2022-02-02T14:43:03Z</time>
      </trkpt>
      <trkpt lat="49.91688" lon="2.20892">
        <ele>64.5</ele>
        <time>2022-02-02T14:43:04Z</time>
      </trkpt>
      <trkpt lat="49.91689" lon="2.20891">
        <ele>64.5</ele>
        <time>2022-02-02T14:43:05Z</time>
      </trkpt>
      <trkpt lat="49.9169" lon="2.20889">
        <ele>64.4</ele>
        <time>2022-02-02T14:43:06Z</time>
      </trkpt>
      <trkpt lat="49.91691" lon="2.20888">
        <ele>64.4</ele>
        <time>2022-02-02T14:43:08Z</time>
      </trkpt>
      <trkpt lat="49.91691" lon="2.20887">
        <ele>64.4</ele>
        <time>2022-02-02T14:43:09Z</time>
      </trkpt>
      <trkpt lat="49.91693" lon="2.20884">
        <ele>64.4</ele>
        <time>2022-02-02T14:43:10Z</time>
      </trkpt>
      <trkpt lat="49.91693" lon="2.20883">
        <ele>64.3</ele>
        <time>2022-02-02T14:43:11Z</time>
      </trkpt>
      <trkpt lat="49.91694" lon="2.20882">
        <ele>64.3</ele>
        <time>2022-02-02T14:43:12Z</time>
      </trkpt>
      <trkpt lat="49.91695" lon="2.2088">
        <ele>64.3</ele>
        <time>2022-02-02T14:43:13Z</time>
      </trkpt>
      <trkpt lat="49.91695" lon="2.20879">
        <ele>64.3</ele>
        <time>2022-02-02T14:43:14Z</time>
      </trkpt>
      <trkpt lat="49.91696" lon="2.20878">
        <ele>64.2</ele>
        <time>2022-02-02T14:43:15Z</time>
      </trkpt>
      <trkpt lat="49.91698" lon="2.20875">
        <ele>64.2</ele>
        <time>2022-02-02T14:43:16Z</time>
      </trkpt>
      <trkpt lat="49.91698" lon="2.20874">
        <ele>64.2</ele>
        <time>2022-02-02T14:43:17Z</time>
      </trkpt>
      <trkpt lat="49.91699" lon="2.20873">
        <ele>64.1</ele>
        <time>2022-02-02T14:43:18Z</time>
      </trkpt>
      <trkpt lat="49.917" lon="2.2087">
        <ele>64.1</ele>
        <time>2022-02-02T14:43:19Z</time>
      </trkpt>
      <trkpt lat="49.91701" lon="2.20869">
        <ele>64.1</ele>
        <time>2022-02-02T14:43:20Z</time>
      </trkpt>
      <trkpt lat="49.91701" lon="2.20868">
        <ele>64.1</ele>
        <time>2022-02-02T14:43:21Z</time>
      </trkpt>
      <trkpt lat="49.91702" lon="2.20866">
        <ele>64</ele>
        <time>2022-02-02T14:43:22Z</time>
      </trkpt>
      <trkpt lat="49.91703" lon="2.20864">
        <ele>64</ele>
        <time>2022-02-02T14:43:24Z</time>
      </trkpt>
      <trkpt lat="49.91703" lon="2.20862">
        <ele>64</ele>
        <time>2022-02-02T14:43:25Z</time>
      </trkpt>
      <trkpt lat="49.91704" lon="2.20861">
        <ele>63.9</ele>
        <time>2022-02-02T14:43:26Z</time>
      </trkpt>
      <trkpt lat="49.91704" lon="2.2086">
        <ele>63.9</ele>
        <time>2022-02-02T14:43:27Z</time>
      </trkpt>
      <trkpt lat="49.91705" lon="2.20858">
        <ele>63.9</ele>
        <time>2022-02-02T14:43:28Z</time>
      </trkpt>
      <trkpt lat="49.91706" lon="2.20856">
        <ele>63.9</ele>
        <time>2022-02-02T14:43:29Z</time>
      </trkpt>
      <trkpt lat="49.91706" lon="2.20855">
        <ele>63.8</ele>
        <time>2022-02-02T14:43:30Z</time>
      </trkpt>
      <trkpt lat="49.91707" lon="2.20853">
        <ele>63.8</ele>
        <time>2022-02-02T14:43:31Z</time>
      </trkpt>
      <trkpt lat="49.91708" lon="2.20852">
        <ele>63.8</ele>
        <time>2022-02-02T14:43:32Z</time>
      </trkpt>
      <trkpt lat="49.91708" lon="2.2085">
        <ele>63.7</ele>
        <time>2022-02-02T14:43:33Z</time>
      </trkpt>
      <trkpt lat="49.91709" lon="2.20849">
        <ele>63.7</ele>
        <time>2022-02-02T14:43:34Z</time>
      </trkpt>
      <trkpt lat="49.91709" lon="2.20847">
        <ele>63.7</ele>
        <time>2022-02-02T14:43:35Z</time>
      </trkpt>
      <trkpt lat="49.9171" lon="2.20846">
        <ele>63.7</ele>
        <time>2022-02-02T14:43:36Z</time>
      </trkpt>
      <trkpt lat="49.91711" lon="2.20844">
        <ele>63.6</ele>
        <time>2022-02-02T14:43:37Z</time>
      </trkpt>
      <trkpt lat="49.91711" lon="2.20843">
        <ele>63.6</ele>
        <time>2022-02-02T14:43:39Z</time>
      </trkpt>
      <trkpt lat="49.91712" lon="2.20841">
        <ele>63.6</ele>
        <time>2022-02-02T14:43:40Z</time>
      </trkpt>
      <trkpt lat="49.91712" lon="2.20838">
        <ele>63.5</ele>
        <time>2022-02-02T14:43:41Z</time>
      </trkpt>
      <trkpt lat="49.91713" lon="2.20837">
        <ele>63.5</ele>
        <time>2022-02-02T14:43:42Z</time>
      </trkpt>
      <trkpt lat="49.91713" lon="2.20836">
        <ele>63.5</ele>
        <time>2022-02-02T14:43:43Z</time>
      </trkpt>
      <trkpt lat="49.91713" lon="2.20834">
        <ele>63.5</ele>
        <time>2022-02-02T14:43:44Z</time>
      </trkpt>
      <trkpt lat="49.91714" lon="2.20832">
        <ele>63.4</ele>
        <time>2022-02-02T14:43:45Z</time>
      </trkpt>
      <trkpt lat="49.91715" lon="2.20829">
        <ele>63.4</ele>
        <time>2022-02-02T14:43:46Z</time>
      </trkpt>
      <trkpt lat="49.91716" lon="2.20827">
        <ele>63.4</ele>
        <time>2022-02-02T14:43:47Z</time>
      </trkpt>
      <trkpt lat="49.91716" lon="2.20826">
        <ele>63.3</ele>
        <time>2022-02-02T14:43:48Z</time>
      </trkpt>
      <trkpt lat="49.91717" lon="2.20823">
        <ele>63.3</ele>
        <time>2022-02-02T14:43:49Z</time>
      </trkpt>
      <trkpt lat="49.91718" lon="2.20822">
        <ele>63.3</ele>
        <time>2022-02-02T14:43:50Z</time>
      </trkpt>
      <trkpt lat="49.91718" lon="2.20821">
        <ele>63.2</ele>
        <time>2022-02-02T14:43:51Z</time>
      </trkpt>
      <trkpt lat="49.9172" lon="2.20819">
        <ele>63.2</ele>
        <time>2022-02-02T14:43:52Z</time>
      </trkpt>
      <trkpt lat="49.91721" lon="2.20818">
        <ele>63.2</ele>
        <time>2022-02-02T14:43:54Z</time>
      </trkpt>
      <trkpt lat="49.91721" lon="2.20817">
        <ele>63.1</ele>
        <time>2022-02-02T14:43:55Z</time>
      </trkpt>
      <trkpt lat="49.91723" lon="2.20815">
        <ele>63.1</ele>
        <time>2022-02-02T14:43:56Z</time>
      </trkpt>
      <trkpt lat="49.91723" lon="2.20814">
        <ele>63.1</ele>
        <time>2022-02-02T14:43:57Z</time>
      </trkpt>
      <trkpt lat="49.91724" lon="2.20813">
        <ele>63.1</ele>
        <time>2022-02-02T14:43:58Z</time>
      </trkpt>
      <trkpt lat="49.91726" lon="2.20811">
        <ele>63</ele>
        <time>2022-02-02T14:43:59Z</time>
      </trkpt>
      <trkpt lat="49.91726" lon="2.2081">
        <ele>63</ele>
        <time>2022-02-02T14:44:00Z</time>
      </trkpt>
      <trkpt lat="49.91727" lon="2.20809">
        <ele>63</ele>
        <time>2022-02-02T14:44:01Z</time>
      </trkpt>
      <trkpt lat="49.91728" lon="2.20807">
        <ele>62.9</ele>
        <time>2022-02-02T14:44:02Z</time>
      </trkpt>
      <trkpt lat="49.91729" lon="2.20805">
        <ele>62.9</ele>
        <time>2022-02-02T14:44:03Z</time>
      </trkpt>
      <trkpt lat="49.91731" lon="2.20803">
        <ele>62.8</ele>
        <time>2022-02-02T14:44:05Z</time>
      </trkpt>
      <trkpt lat="49.91732" lon="2.20802">
        <ele>62.8</ele>
        <time>2022-02-02T14:44:06Z</time>
      </trkpt>
      <trkpt lat="49.91733" lon="2.20801">
        <ele>62.8</ele>
        <time>2022-02-02T14:44:07Z</time>
      </trkpt>
      <trkpt lat="49.91734" lon="2.20799">
        <ele>62.7</ele>
        <time>2022-02-02T14:44:08Z</time>
      </trkpt>
      <trkpt lat="49.91735" lon="2.20798">
        <ele>62.7</ele>
        <time>2022-02-02T14:44:09Z</time>
      </trkpt>
      <trkpt lat="49.91736" lon="2.20796">
        <ele>62.7</ele>
        <time>2022-02-02T14:44:10Z</time>
      </trkpt>
      <trkpt lat="49.91738" lon="2.20794">
        <ele>62.6</ele>
        <time>2022-02-02T14:44:11Z</time>
      </trkpt>
      <trkpt lat="49.91739" lon="2.20793">
        <ele>62.6</ele>
        <time>2022-02-02T14:44:13Z</time>
      </trkpt>
      <trkpt lat="49.9174" lon="2.20792">
        <ele>62.6</ele>
        <time>2022-02-02T14:44:14Z</time>
      </trkpt>
      <trkpt lat="49.91741" lon="2.20791">
        <ele>62.5</ele>
        <time>2022-02-02T14:44:15Z</time>
      </trkpt>
      <trkpt lat="49.91742" lon="2.2079">
        <ele>62.5</ele>
        <time>2022-02-02T14:44:16Z</time>
      </trkpt>
      <trkpt lat="49.91743" lon="2.20788">
        <ele>62.5</ele>
        <time>2022-02-02T14:44:17Z</time>
      </trkpt>
      <trkpt lat="49.91744" lon="2.20787">
        <ele>62.4</ele>
        <time>2022-02-02T14:44:18Z</time>
      </trkpt>
      <trkpt lat="49.91746" lon="2.20785">
        <ele>62.4</ele>
        <time>2022-02-02T14:44:19Z</time>
      </trkpt>
      <trkpt lat="49.91747" lon="2.20784">
        <ele>62.4</ele>
        <time>2022-02-02T14:44:20Z</time>
      </trkpt>
      <trkpt lat="49.91748" lon="2.20782">
        <ele>62.3</ele>
        <time>2022-02-02T14:44:21Z</time>
      </trkpt>
      <trkpt lat="49.91749" lon="2.20781">
        <ele>62.3</ele>
        <time>2022-02-02T14:44:22Z</time>
      </trkpt>
      <trkpt lat="49.91751" lon="2.20779">
        <ele>62.3</ele>
        <time>2022-02-02T14:44:24Z</time>
      </trkpt>
      <trkpt lat="49.91752" lon="2.20778">
        <ele>62.2</ele>
        <time>2022-02-02T14:44:25Z</time>
      </trkpt>
      <trkpt lat="49.91753" lon="2.20776">
        <ele>62.2</ele>
        <time>2022-02-02T14:44:26Z</time>
      </trkpt>
      <trkpt lat="49.91754" lon="2.20775">
        <ele>62.2</ele>
        <time>2022-02-02T14:44:27Z</time>
      </trkpt>
      <trkpt lat="49.91756" lon="2.20772">
        <ele>62.1</ele>
        <time>2022-02-02T14:44:28Z</time>
      </trkpt>
      <trkpt lat="49.91756" lon="2.2077">
        <ele>62.1</ele>
        <time>2022-02-02T14:44:30Z</time>
      </trkpt>
      <trkpt lat="49.91757" lon="2.20769">
        <ele>62.1</ele>
        <time>2022-02-02T14:44:31Z</time>
      </trkpt>
      <trkpt lat="49.91758" lon="2.20768">
        <ele>62.1</ele>
        <time>2022-02-02T14:44:32Z</time>
      </trkpt>
      <trkpt lat="49.91759" lon="2.20766">
        <ele>62</ele>
        <time>2022-02-02T14:44:33Z</time>
      </trkpt>
      <trkpt lat="49.9176" lon="2.20765">
        <ele>62</ele>
        <time>2022-02-02T14:44:34Z</time>
      </trkpt>
      <trkpt lat="49.91761" lon="2.20763">
        <ele>62</ele>
        <time>2022-02-02T14:44:35Z</time>
      </trkpt>
      <trkpt lat="49.91762" lon="2.20762">
        <ele>61.9</ele>
        <time>2022-02-02T14:44:36Z</time>
      </trkpt>
      <trkpt lat="49.91763" lon="2.2076">
        <ele>61.9</ele>
        <time>2022-02-02T14:44:37Z</time>
      </trkpt>
      <trkpt lat="49.91764" lon="2.20759">
        <ele>61.9</ele>
        <time>2022-02-02T14:44:38Z</time>
      </trkpt>
      <trkpt lat="49.91765" lon="2.20757">
        <ele>61.9</ele>
        <time>2022-02-02T14:44:40Z</time>
      </trkpt>
      <trkpt lat="49.91765" lon="2.20756">
        <ele>61.8</ele>
        <time>2022-02-02T14:44:41Z</time>
      </trkpt>
      <trkpt lat="49.91766" lon="2.20754">
        <ele>61.8</ele>
        <time>2022-02-02T14:44:42Z</time>
      </trkpt>
      <trkpt lat="49.91767" lon="2.20753">
        <ele>61.8</ele>
        <time>2022-02-02T14:44:43Z</time>
      </trkpt>
      <trkpt lat="49.91768" lon="2.2075">
        <ele>61.7</ele>
        <time>2022-02-02T14:44:44Z</time>
      </trkpt>
      <trkpt lat="49.91769" lon="2.20748">
        <ele>61.7</ele>
        <time>2022-02-02T14:44:46Z</time>
      </trkpt>
      <trkpt lat="49.91769" lon="2.20747">
        <ele>61.7</ele>
        <time>2022-02-02T14:44:47Z</time>
      </trkpt>
      <trkpt lat="49.9177" lon="2.20746">
        <ele>61.6</ele>
        <time>2022-02-02T14:44:48Z</time>
      </trkpt>
      <trkpt lat="49.9177" lon="2.20745">
        <ele>61.6</ele>
        <time>2022-02-02T14:44:49Z</time>
      </trkpt>
      <trkpt lat="49.91771" lon="2.20743">
        <ele>61.6</ele>
        <time>2022-02-02T14:44:50Z</time>
      </trkpt>
      <trkpt lat="49.91772" lon="2.20742">
        <ele>61.5</ele>
        <time>2022-02-02T14:44:51Z</time>
      </trkpt>
      <trkpt lat="49.91772" lon="2.20741">
        <ele>61.5</ele>
        <time>2022-02-02T14:44:52Z</time>
      </trkpt>
      <trkpt lat="49.91773" lon="2.20738">
        <ele>61.5</ele>
        <time>2022-02-02T14:44:53Z</time>
      </trkpt>
      <trkpt lat="49.91774" lon="2.20737">
        <ele>61.4</ele>
        <time>2022-02-02T14:44:54Z</time>
      </trkpt>
      <trkpt lat="49.91774" lon="2.20736">
        <ele>61.4</ele>
        <time>2022-02-02T14:44:55Z</time>
      </trkpt>
      <trkpt lat="49.91775" lon="2.20734">
        <ele>61.4</ele>
        <time>2022-02-02T14:44:56Z</time>
      </trkpt>
      <trkpt lat="49.91776" lon="2.20732">
        <ele>61.3</ele>
        <time>2022-02-02T14:44:57Z</time>
      </trkpt>
      <trkpt lat="49.91778" lon="2.2073">
        <ele>61.3</ele>
        <time>2022-02-02T14:44:58Z</time>
      </trkpt>
      <trkpt lat="49.91779" lon="2.20728">
        <ele>61.3</ele>
        <time>2022-02-02T14:45:00Z</time>
      </trkpt>
      <trkpt lat="49.9178" lon="2.20726">
        <ele>61.2</ele>
        <time>2022-02-02T14:45:01Z</time>
      </trkpt>
      <trkpt lat="49.91781" lon="2.20725">
        <ele>61.2</ele>
        <time>2022-02-02T14:45:02Z</time>
      </trkpt>
      <trkpt lat="49.91782" lon="2.20723">
        <ele>61.2</ele>
        <time>2022-02-02T14:45:03Z</time>
      </trkpt>
      <trkpt lat="49.91783" lon="2.20721">
        <ele>61.2</ele>
        <time>2022-02-02T14:45:04Z</time>
      </trkpt>
      <trkpt lat="49.91784" lon="2.20719">
        <ele>61.1</ele>
        <time>2022-02-02T14:45:05Z</time>
      </trkpt>
      <trkpt lat="49.91785" lon="2.20718">
        <ele>61.1</ele>
        <time>2022-02-02T14:45:06Z</time>
      </trkpt>
      <trkpt lat="49.91786" lon="2.20716">
        <ele>61.1</ele>
        <time>2022-02-02T14:45:07Z</time>
      </trkpt>
      <trkpt lat="49.91786" lon="2.20715">
        <ele>61.1</ele>
        <time>2022-02-02T14:45:08Z</time>
      </trkpt>
      <trkpt lat="49.91787" lon="2.20714">
        <ele>61</ele>
        <time>2022-02-02T14:45:10Z</time>
      </trkpt>
      <trkpt lat="49.91788" lon="2.20712">
        <ele>61</ele>
        <time>2022-02-02T14:45:11Z</time>
      </trkpt>
      <trkpt lat="49.91788" lon="2.20711">
        <ele>61</ele>
        <time>2022-02-02T14:45:12Z</time>
      </trkpt>
      <trkpt lat="49.91789" lon="2.2071">
        <ele>61</ele>
        <time>2022-02-02T14:45:13Z</time>
      </trkpt>
      <trkpt lat="49.9179" lon="2.20708">
        <ele>61</ele>
        <time>2022-02-02T14:45:14Z</time>
      </trkpt>
      <trkpt lat="49.91791" lon="2.20707">
        <ele>60.9</ele>
        <time>2022-02-02T14:45:15Z</time>
      </trkpt>
      <trkpt lat="49.91792" lon="2.20705">
        <ele>60.9</ele>
        <time>2022-02-02T14:45:16Z</time>
      </trkpt>
      <trkpt lat="49.91793" lon="2.20704">
        <ele>60.9</ele>
        <time>2022-02-02T14:45:17Z</time>
      </trkpt>
      <trkpt lat="49.91795" lon="2.20703">
        <ele>60.9</ele>
        <time>2022-02-02T14:45:18Z</time>
      </trkpt>
      <trkpt lat="49.91796" lon="2.20702">
        <ele>60.8</ele>
        <time>2022-02-02T14:45:19Z</time>
      </trkpt>
      <trkpt lat="49.91797" lon="2.20701">
        <ele>60.8</ele>
        <time>2022-02-02T14:45:20Z</time>
      </trkpt>
      <trkpt lat="49.91799" lon="2.207">
        <ele>60.8</ele>
        <time>2022-02-02T14:45:22Z</time>
      </trkpt>
      <trkpt lat="49.918" lon="2.20699">
        <ele>60.8</ele>
        <time>2022-02-02T14:45:23Z</time>
      </trkpt>
      <trkpt lat="49.91801" lon="2.20697">
        <ele>60.7</ele>
        <time>2022-02-02T14:45:24Z</time>
      </trkpt>
      <trkpt lat="49.91802" lon="2.20696">
        <ele>60.7</ele>
        <time>2022-02-02T14:45:25Z</time>
      </trkpt>
      <trkpt lat="49.91803" lon="2.20694">
        <ele>60.7</ele>
        <time>2022-02-02T14:45:26Z</time>
      </trkpt>
      <trkpt lat="49.91803" lon="2.20693">
        <ele>60.7</ele>
        <time>2022-02-02T14:45:27Z</time>
      </trkpt>
      <trkpt lat="49.91804" lon="2.20692">
        <ele>60.7</ele>
        <time>2022-02-02T14:45:28Z</time>
      </trkpt>
      <trkpt lat="49.91805" lon="2.20691">
        <ele>60.7</ele>
        <time>2022-02-02T14:45:29Z</time>
      </trkpt>
      <trkpt lat="49.91805" lon="2.2069">
        <ele>60.6</ele>
        <time>2022-02-02T14:45:30Z</time>
      </trkpt>
      <trkpt lat="49.91806" lon="2.20688">
        <ele>60.6</ele>
        <time>2022-02-02T14:45:31Z</time>
      </trkpt>
      <trkpt lat="49.91807" lon="2.20687">
        <ele>60.6</ele>
        <time>2022-02-02T14:45:32Z</time>
      </trkpt>
      <trkpt lat="49.91808" lon="2.20684">
        <ele>60.6</ele>
        <time>2022-02-02T14:45:33Z</time>
      </trkpt>
      <trkpt lat="49.91809" lon="2.20683">
        <ele>60.6</ele>
        <time>2022-02-02T14:45:34Z</time>
      </trkpt>
      <trkpt lat="49.9181" lon="2.20681">
        <ele>60.5</ele>
        <time>2022-02-02T14:45:35Z</time>
      </trkpt>
      <trkpt lat="49.91811" lon="2.20679">
        <ele>60.5</ele>
        <time>2022-02-02T14:45:36Z</time>
      </trkpt>
      <trkpt lat="49.91812" lon="2.20678">
        <ele>60.5</ele>
        <time>2022-02-02T14:45:38Z</time>
      </trkpt>
      <trkpt lat="49.91813" lon="2.20676">
        <ele>60.5</ele>
        <time>2022-02-02T14:45:39Z</time>
      </trkpt>
      <trkpt lat="49.91813" lon="2.20674">
        <ele>60.5</ele>
        <time>2022-02-02T14:45:40Z</time>
      </trkpt>
      <trkpt lat="49.91814" lon="2.20673">
        <ele>60.4</ele>
        <time>2022-02-02T14:45:41Z</time>
      </trkpt>
      <trkpt lat="49.91814" lon="2.20672">
        <ele>60.4</ele>
        <time>2022-02-02T14:45:42Z</time>
      </trkpt>
      <trkpt lat="49.91815" lon="2.2067">
        <ele>60.4</ele>
        <time>2022-02-02T14:45:43Z</time>
      </trkpt>
      <trkpt lat="49.91816" lon="2.20668">
        <ele>60.4</ele>
        <time>2022-02-02T14:45:44Z</time>
      </trkpt>
      <trkpt lat="49.91816" lon="2.20667">
        <ele>60.4</ele>
        <time>2022-02-02T14:45:45Z</time>
      </trkpt>
      <trkpt lat="49.91817" lon="2.20665">
        <ele>60.4</ele>
        <time>2022-02-02T14:45:46Z</time>
      </trkpt>
      <trkpt lat="49.91817" lon="2.20663">
        <ele>60.3</ele>
        <time>2022-02-02T14:45:47Z</time>
      </trkpt>
      <trkpt lat="49.91818" lon="2.20661">
        <ele>60.3</ele>
        <time>2022-02-02T14:45:48Z</time>
      </trkpt>
      <trkpt lat="49.91819" lon="2.2066">
        <ele>60.3</ele>
        <time>2022-02-02T14:45:49Z</time>
      </trkpt>
      <trkpt lat="49.9182" lon="2.20658">
        <ele>60.3</ele>
        <time>2022-02-02T14:45:51Z</time>
      </trkpt>
      <trkpt lat="49.91821" lon="2.20656">
        <ele>60.3</ele>
        <time>2022-02-02T14:45:52Z</time>
      </trkpt>
      <trkpt lat="49.91822" lon="2.20654">
        <ele>60.2</ele>
        <time>2022-02-02T14:45:53Z</time>
      </trkpt>
      <trkpt lat="49.91823" lon="2.20653">
        <ele>60.2</ele>
        <time>2022-02-02T14:45:54Z</time>
      </trkpt>
      <trkpt lat="49.91823" lon="2.20652">
        <ele>60.2</ele>
        <time>2022-02-02T14:45:55Z</time>
      </trkpt>
      <trkpt lat="49.91825" lon="2.20649">
        <ele>60.2</ele>
        <time>2022-02-02T14:45:56Z</time>
      </trkpt>
      <trkpt lat="49.91826" lon="2.20648">
        <ele>60.2</ele>
        <time>2022-02-02T14:45:58Z</time>
      </trkpt>
      <trkpt lat="49.91827" lon="2.20647">
        <ele>60.2</ele>
        <time>2022-02-02T14:45:59Z</time>
      </trkpt>
      <trkpt lat="49.91828" lon="2.20646">
        <ele>60.2</ele>
        <time>2022-02-02T14:46:00Z</time>
      </trkpt>
      <trkpt lat="49.91829" lon="2.20644">
        <ele>60.2</ele>
        <time>2022-02-02T14:46:01Z</time>
      </trkpt>
      <trkpt lat="49.9183" lon="2.20642">
        <ele>60.1</ele>
        <time>2022-02-02T14:46:02Z</time>
      </trkpt>
      <trkpt lat="49.91831" lon="2.20641">
        <ele>60.1</ele>
        <time>2022-02-02T14:46:03Z</time>
      </trkpt>
      <trkpt lat="49.91832" lon="2.2064">
        <ele>60.1</ele>
        <time>2022-02-02T14:46:04Z</time>
      </trkpt>
      <trkpt lat="49.91832" lon="2.20638">
        <ele>60.1</ele>
        <time>2022-02-02T14:46:06Z</time>
      </trkpt>
      <trkpt lat="49.91833" lon="2.20637">
        <ele>60.1</ele>
        <time>2022-02-02T14:46:07Z</time>
      </trkpt>
      <trkpt lat="49.91834" lon="2.20634">
        <ele>60.1</ele>
        <time>2022-02-02T14:46:08Z</time>
      </trkpt>
      <trkpt lat="49.91835" lon="2.20633">
        <ele>60.1</ele>
        <time>2022-02-02T14:46:09Z</time>
      </trkpt>
      <trkpt lat="49.91835" lon="2.20632">
        <ele>60.1</ele>
        <time>2022-02-02T14:46:10Z</time>
      </trkpt>
      <trkpt lat="49.91836" lon="2.2063">
        <ele>60.1</ele>
        <time>2022-02-02T14:46:11Z</time>
      </trkpt>
      <trkpt lat="49.91838" lon="2.20629">
        <ele>60.1</ele>
        <time>2022-02-02T14:46:13Z</time>
      </trkpt>
      <trkpt lat="49.91838" lon="2.20629">
        <ele>60.1</ele>
        <time>2022-02-02T14:46:14Z</time>
      </trkpt>
      <trkpt lat="49.91839" lon="2.2063">
        <ele>60.1</ele>
        <time>2022-02-02T14:46:15Z</time>
      </trkpt>
      <trkpt lat="49.9184" lon="2.2063">
        <ele>60.1</ele>
        <time>2022-02-02T14:46:16Z</time>
      </trkpt>
      <trkpt lat="49.91841" lon="2.20629">
        <ele>60.1</ele>
        <time>2022-02-02T14:46:17Z</time>
      </trkpt>
      <trkpt lat="49.91842" lon="2.20626">
        <ele>60.1</ele>
        <time>2022-02-02T14:46:18Z</time>
      </trkpt>
      <trkpt lat="49.91843" lon="2.20625">
        <ele>60.1</ele>
        <time>2022-02-02T14:46:19Z</time>
      </trkpt>
      <trkpt lat="49.91843" lon="2.20624">
        <ele>60.1</ele>
        <time>2022-02-02T14:46:20Z</time>
      </trkpt>
      <trkpt lat="49.91844" lon="2.20622">
        <ele>60.1</ele>
        <time>2022-02-02T14:46:22Z</time>
      </trkpt>
      <trkpt lat="49.91844" lon="2.2062">
        <ele>60.1</ele>
        <time>2022-02-02T14:46:23Z</time>
      </trkpt>
      <trkpt lat="49.91845" lon="2.20618">
        <ele>60.1</ele>
        <time>2022-02-02T14:46:24Z</time>
      </trkpt>
      <trkpt lat="49.91846" lon="2.20616">
        <ele>60.1</ele>
        <time>2022-02-02T14:46:25Z</time>
      </trkpt>
      <trkpt lat="49.91847" lon="2.20614">
        <ele>60</ele>
        <time>2022-02-02T14:46:26Z</time>
      </trkpt>
      <trkpt lat="49.91848" lon="2.20613">
        <ele>60</ele>
        <time>2022-02-02T14:46:27Z</time>
      </trkpt>
      <trkpt lat="49.91849" lon="2.20612">
        <ele>60</ele>
        <time>2022-02-02T14:46:29Z</time>
      </trkpt>
      <trkpt lat="49.91849" lon="2.2061">
        <ele>60</ele>
        <time>2022-02-02T14:46:30Z</time>
      </trkpt>
      <trkpt lat="49.9185" lon="2.20609">
        <ele>60</ele>
        <time>2022-02-02T14:46:31Z</time>
      </trkpt>
      <trkpt lat="49.91851" lon="2.20608">
        <ele>60</ele>
        <time>2022-02-02T14:46:32Z</time>
      </trkpt>
      <trkpt lat="49.91851" lon="2.20606">
        <ele>60</ele>
        <time>2022-02-02T14:46:33Z</time>
      </trkpt>
      <trkpt lat="49.91852" lon="2.20604">
        <ele>60</ele>
        <time>2022-02-02T14:46:34Z</time>
      </trkpt>
      <trkpt lat="49.91853" lon="2.20603">
        <ele>60</ele>
        <time>2022-02-02T14:46:35Z</time>
      </trkpt>
      <trkpt lat="49.91854" lon="2.20601">
        <ele>60</ele>
        <time>2022-02-02T14:46:36Z</time>
      </trkpt>
      <trkpt lat="49.91854" lon="2.206">
        <ele>60</ele>
        <time>2022-02-02T14:46:38Z</time>
      </trkpt>
      <trkpt lat="49.91855" lon="2.20598">
        <ele>60</ele>
        <time>2022-02-02T14:46:39Z</time>
      </trkpt>
      <trkpt lat="49.91855" lon="2.20597">
        <ele>60</ele>
        <time>2022-02-02T14:46:40Z</time>
      </trkpt>
      <trkpt lat="49.91855" lon="2.20596">
        <ele>60</ele>
        <time>2022-02-02T14:46:41Z</time>
      </trkpt>
      <trkpt lat="49.91854" lon="2.20595">
        <ele>60</ele>
        <time>2022-02-02T14:46:42Z</time>
      </trkpt>
      <trkpt lat="49.91854" lon="2.20594">
        <ele>60</ele>
        <time>2022-02-02T14:46:43Z</time>
      </trkpt>
      <trkpt lat="49.91853" lon="2.20593">
        <ele>60</ele>
        <time>2022-02-02T14:46:44Z</time>
      </trkpt>
      <trkpt lat="49.91853" lon="2.20593">
        <ele>60</ele>
        <time>2022-02-02T14:46:45Z</time>
      </trkpt>
      <trkpt lat="49.91853" lon="2.20593">
        <ele>60</ele>
        <time>2022-02-02T14:46:46Z</time>
      </trkpt>
      <trkpt lat="49.91853" lon="2.20593">
        <ele>60</ele>
        <time>2022-02-02T14:46:47Z</time>
      </trkpt>
      <trkpt lat="49.91853" lon="2.20594">
        <ele>60</ele>
        <time>2022-02-02T14:46:48Z</time>
      </trkpt>
      <trkpt lat="49.91853" lon="2.20595">
        <ele>60</ele>
        <time>2022-02-02T14:46:49Z</time>
      </trkpt>
      <trkpt lat="49.91853" lon="2.20595">
        <ele>60</ele>
        <time>2022-02-02T14:46:51Z</time>
      </trkpt>
      <trkpt lat="49.91853" lon="2.20595">
        <ele>60</ele>
        <time>2022-02-02T14:46:52Z</time>
      </trkpt>
      <trkpt lat="49.91853" lon="2.20594">
        <ele>60</ele>
        <time>2022-02-02T14:46:53Z</time>
      </trkpt>
      <trkpt lat="49.91853" lon="2.20593">
        <ele>60</ele>
        <time>2022-02-02T14:46:54Z</time>
      </trkpt>
      <trkpt lat="49.91854" lon="2.20592">
        <ele>60</ele>
        <time>2022-02-02T14:46:55Z</time>
      </trkpt>
      <trkpt lat="49.91855" lon="2.20589">
        <ele>60</ele>
        <time>2022-02-02T14:46:57Z</time>
      </trkpt>
      <trkpt lat="49.91855" lon="2.20587">
        <ele>59.9</ele>
        <time>2022-02-02T14:46:58Z</time>
      </trkpt>
      <trkpt lat="49.91856" lon="2.20585">
        <ele>59.9</ele>
        <time>2022-02-02T14:46:59Z</time>
      </trkpt>
      <trkpt lat="49.91858" lon="2.20581">
        <ele>59.9</ele>
        <time>2022-02-02T14:47:00Z</time>
      </trkpt>
      <trkpt lat="49.91858" lon="2.2058">
        <ele>59.9</ele>
        <time>2022-02-02T14:47:01Z</time>
      </trkpt>
      <trkpt lat="49.9186" lon="2.20576">
        <ele>59.9</ele>
        <time>2022-02-02T14:47:02Z</time>
      </trkpt>
      <trkpt lat="49.91861" lon="2.20575">
        <ele>59.9</ele>
        <time>2022-02-02T14:47:03Z</time>
      </trkpt>
      <trkpt lat="49.91862" lon="2.20573">
        <ele>59.9</ele>
        <time>2022-02-02T14:47:04Z</time>
      </trkpt>
      <trkpt lat="49.91863" lon="2.20571">
        <ele>59.9</ele>
        <time>2022-02-02T14:47:05Z</time>
      </trkpt>
      <trkpt lat="49.91864" lon="2.2057">
        <ele>59.8</ele>
        <time>2022-02-02T14:47:06Z</time>
      </trkpt>
      <trkpt lat="49.91865" lon="2.20568">
        <ele>59.8</ele>
        <time>2022-02-02T14:47:08Z</time>
      </trkpt>
      <trkpt lat="49.91866" lon="2.20567">
        <ele>59.8</ele>
        <time>2022-02-02T14:47:09Z</time>
      </trkpt>
      <trkpt lat="49.91867" lon="2.20565">
        <ele>59.8</ele>
        <time>2022-02-02T14:47:10Z</time>
      </trkpt>
      <trkpt lat="49.91868" lon="2.20564">
        <ele>59.8</ele>
        <time>2022-02-02T14:47:11Z</time>
      </trkpt>
      <trkpt lat="49.9187" lon="2.20563">
        <ele>59.8</ele>
        <time>2022-02-02T14:47:12Z</time>
      </trkpt>
      <trkpt lat="49.91871" lon="2.20562">
        <ele>59.8</ele>
        <time>2022-02-02T14:47:13Z</time>
      </trkpt>
      <trkpt lat="49.91872" lon="2.2056">
        <ele>59.8</ele>
        <time>2022-02-02T14:47:14Z</time>
      </trkpt>
      <trkpt lat="49.91874" lon="2.20559">
        <ele>59.8</ele>
        <time>2022-02-02T14:47:15Z</time>
      </trkpt>
      <trkpt lat="49.91875" lon="2.20558">
        <ele>59.8</ele>
        <time>2022-02-02T14:47:17Z</time>
      </trkpt>
      <trkpt lat="49.91876" lon="2.20557">
        <ele>59.7</ele>
        <time>2022-02-02T14:47:18Z</time>
      </trkpt>
      <trkpt lat="49.91878" lon="2.20555">
        <ele>59.7</ele>
        <time>2022-02-02T14:47:19Z</time>
      </trkpt>
      <trkpt lat="49.91879" lon="2.20554">
        <ele>59.7</ele>
        <time>2022-02-02T14:47:20Z</time>
      </trkpt>
      <trkpt lat="49.91881" lon="2.20552">
        <ele>59.7</ele>
        <time>2022-02-02T14:47:22Z</time>
      </trkpt>
      <trkpt lat="49.91882" lon="2.20551">
        <ele>59.7</ele>
        <time>2022-02-02T14:47:23Z</time>
      </trkpt>
      <trkpt lat="49.91883" lon="2.2055">
        <ele>59.7</ele>
        <time>2022-02-02T14:47:24Z</time>
      </trkpt>
      <trkpt lat="49.91885" lon="2.20548">
        <ele>59.7</ele>
        <time>2022-02-02T14:47:25Z</time>
      </trkpt>
      <trkpt lat="49.91885" lon="2.20547">
        <ele>59.7</ele>
        <time>2022-02-02T14:47:26Z</time>
      </trkpt>
      <trkpt lat="49.91886" lon="2.20546">
        <ele>59.7</ele>
        <time>2022-02-02T14:47:27Z</time>
      </trkpt>
      <trkpt lat="49.91887" lon="2.20545">
        <ele>59.6</ele>
        <time>2022-02-02T14:47:28Z</time>
      </trkpt>
      <trkpt lat="49.91889" lon="2.20544">
        <ele>59.6</ele>
        <time>2022-02-02T14:47:29Z</time>
      </trkpt>
      <trkpt lat="49.9189" lon="2.20543">
        <ele>59.6</ele>
        <time>2022-02-02T14:47:31Z</time>
      </trkpt>
      <trkpt lat="49.91891" lon="2.20542">
        <ele>59.6</ele>
        <time>2022-02-02T14:47:32Z</time>
      </trkpt>
      <trkpt lat="49.91893" lon="2.2054">
        <ele>59.6</ele>
        <time>2022-02-02T14:47:33Z</time>
      </trkpt>
      <trkpt lat="49.91894" lon="2.20539">
        <ele>59.6</ele>
        <time>2022-02-02T14:47:34Z</time>
      </trkpt>
      <trkpt lat="49.91895" lon="2.20538">
        <ele>59.6</ele>
        <time>2022-02-02T14:47:35Z</time>
      </trkpt>
      <trkpt lat="49.91897" lon="2.20537">
        <ele>59.6</ele>
        <time>2022-02-02T14:47:36Z</time>
      </trkpt>
      <trkpt lat="49.91897" lon="2.20536">
        <ele>59.6</ele>
        <time>2022-02-02T14:47:38Z</time>
      </trkpt>
      <trkpt lat="49.91898" lon="2.20536">
        <ele>59.5</ele>
        <time>2022-02-02T14:47:39Z</time>
      </trkpt>
      <trkpt lat="49.91899" lon="2.20534">
        <ele>59.5</ele>
        <time>2022-02-02T14:47:40Z</time>
      </trkpt>
      <trkpt lat="49.919" lon="2.20533">
        <ele>59.5</ele>
        <time>2022-02-02T14:47:41Z</time>
      </trkpt>
      <trkpt lat="49.91901" lon="2.20532">
        <ele>59.5</ele>
        <time>2022-02-02T14:47:42Z</time>
      </trkpt>
      <trkpt lat="49.91902" lon="2.2053">
        <ele>59.5</ele>
        <time>2022-02-02T14:47:43Z</time>
      </trkpt>
      <trkpt lat="49.91904" lon="2.20527">
        <ele>59.5</ele>
        <time>2022-02-02T14:47:44Z</time>
      </trkpt>
      <trkpt lat="49.91904" lon="2.20526">
        <ele>59.5</ele>
        <time>2022-02-02T14:47:45Z</time>
      </trkpt>
      <trkpt lat="49.91905" lon="2.20525">
        <ele>59.5</ele>
        <time>2022-02-02T14:47:46Z</time>
      </trkpt>
      <trkpt lat="49.91906" lon="2.20522">
        <ele>59.5</ele>
        <time>2022-02-02T14:47:47Z</time>
      </trkpt>
      <trkpt lat="49.91907" lon="2.20522">
        <ele>59.4</ele>
        <time>2022-02-02T14:47:48Z</time>
      </trkpt>
      <trkpt lat="49.91907" lon="2.20521">
        <ele>59.4</ele>
        <time>2022-02-02T14:47:49Z</time>
      </trkpt>
      <trkpt lat="49.91908" lon="2.20519">
        <ele>59.4</ele>
        <time>2022-02-02T14:47:50Z</time>
      </trkpt>
      <trkpt lat="49.91908" lon="2.20517">
        <ele>59.4</ele>
        <time>2022-02-02T14:47:51Z</time>
      </trkpt>
      <trkpt lat="49.91909" lon="2.20515">
        <ele>59.4</ele>
        <time>2022-02-02T14:47:53Z</time>
      </trkpt>
      <trkpt lat="49.91909" lon="2.20513">
        <ele>59.4</ele>
        <time>2022-02-02T14:47:54Z</time>
      </trkpt>
      <trkpt lat="49.9191" lon="2.20511">
        <ele>59.4</ele>
        <time>2022-02-02T14:47:55Z</time>
      </trkpt>
      <trkpt lat="49.91911" lon="2.20508">
        <ele>59.4</ele>
        <time>2022-02-02T14:47:56Z</time>
      </trkpt>
      <trkpt lat="49.91911" lon="2.20507">
        <ele>59.3</ele>
        <time>2022-02-02T14:47:57Z</time>
      </trkpt>
      <trkpt lat="49.91911" lon="2.20505">
        <ele>59.3</ele>
        <time>2022-02-02T14:47:58Z</time>
      </trkpt>
      <trkpt lat="49.91912" lon="2.20504">
        <ele>59.3</ele>
        <time>2022-02-02T14:47:59Z</time>
      </trkpt>
      <trkpt lat="49.91912" lon="2.20502">
        <ele>59.3</ele>
        <time>2022-02-02T14:48:00Z</time>
      </trkpt>
      <trkpt lat="49.91912" lon="2.205">
        <ele>59.3</ele>
        <time>2022-02-02T14:48:01Z</time>
      </trkpt>
      <trkpt lat="49.91913" lon="2.20498">
        <ele>59.3</ele>
        <time>2022-02-02T14:48:02Z</time>
      </trkpt>
      <trkpt lat="49.91913" lon="2.20497">
        <ele>59.3</ele>
        <time>2022-02-02T14:48:03Z</time>
      </trkpt>
      <trkpt lat="49.91913" lon="2.20495">
        <ele>59.3</ele>
        <time>2022-02-02T14:48:04Z</time>
      </trkpt>
      <trkpt lat="49.91914" lon="2.20493">
        <ele>59.2</ele>
        <time>2022-02-02T14:48:05Z</time>
      </trkpt>
      <trkpt lat="49.91914" lon="2.20491">
        <ele>59.2</ele>
        <time>2022-02-02T14:48:06Z</time>
      </trkpt>
      <trkpt lat="49.91915" lon="2.20489">
        <ele>59.2</ele>
        <time>2022-02-02T14:48:08Z</time>
      </trkpt>
      <trkpt lat="49.91915" lon="2.20487">
        <ele>59.2</ele>
        <time>2022-02-02T14:48:09Z</time>
      </trkpt>
      <trkpt lat="49.91915" lon="2.20485">
        <ele>59.2</ele>
        <time>2022-02-02T14:48:10Z</time>
      </trkpt>
      <trkpt lat="49.91916" lon="2.20482">
        <ele>59.2</ele>
        <time>2022-02-02T14:48:11Z</time>
      </trkpt>
      <trkpt lat="49.91916" lon="2.2048">
        <ele>59.1</ele>
        <time>2022-02-02T14:48:12Z</time>
      </trkpt>
      <trkpt lat="49.91916" lon="2.20479">
        <ele>59.1</ele>
        <time>2022-02-02T14:48:13Z</time>
      </trkpt>
      <trkpt lat="49.91918" lon="2.20476">
        <ele>59.1</ele>
        <time>2022-02-02T14:48:14Z</time>
      </trkpt>
      <trkpt lat="49.91919" lon="2.20475">
        <ele>59.1</ele>
        <time>2022-02-02T14:48:15Z</time>
      </trkpt>
      <trkpt lat="49.91919" lon="2.20474">
        <ele>59.1</ele>
        <time>2022-02-02T14:48:16Z</time>
      </trkpt>
      <trkpt lat="49.91921" lon="2.20472">
        <ele>59</ele>
        <time>2022-02-02T14:48:17Z</time>
      </trkpt>
      <trkpt lat="49.91921" lon="2.20471">
        <ele>59</ele>
        <time>2022-02-02T14:48:18Z</time>
      </trkpt>
      <trkpt lat="49.91922" lon="2.2047">
        <ele>59</ele>
        <time>2022-02-02T14:48:19Z</time>
      </trkpt>
      <trkpt lat="49.91923" lon="2.20468">
        <ele>59</ele>
        <time>2022-02-02T14:48:20Z</time>
      </trkpt>
      <trkpt lat="49.91923" lon="2.20467">
        <ele>59</ele>
        <time>2022-02-02T14:48:21Z</time>
      </trkpt>
      <trkpt lat="49.91924" lon="2.20465">
        <ele>59</ele>
        <time>2022-02-02T14:48:23Z</time>
      </trkpt>
      <trkpt lat="49.91925" lon="2.20463">
        <ele>58.9</ele>
        <time>2022-02-02T14:48:24Z</time>
      </trkpt>
      <trkpt lat="49.91926" lon="2.20462">
        <ele>58.9</ele>
        <time>2022-02-02T14:48:25Z</time>
      </trkpt>
      <trkpt lat="49.91926" lon="2.20461">
        <ele>58.9</ele>
        <time>2022-02-02T14:48:26Z</time>
      </trkpt>
      <trkpt lat="49.91927" lon="2.20459">
        <ele>58.9</ele>
        <time>2022-02-02T14:48:27Z</time>
      </trkpt>
      <trkpt lat="49.91928" lon="2.20457">
        <ele>58.9</ele>
        <time>2022-02-02T14:48:28Z</time>
      </trkpt>
      <trkpt lat="49.91929" lon="2.20455">
        <ele>58.8</ele>
        <time>2022-02-02T14:48:29Z</time>
      </trkpt>
      <trkpt lat="49.9193" lon="2.20454">
        <ele>58.8</ele>
        <time>2022-02-02T14:48:30Z</time>
      </trkpt>
      <trkpt lat="49.9193" lon="2.20453">
        <ele>58.8</ele>
        <time>2022-02-02T14:48:31Z</time>
      </trkpt>
      <trkpt lat="49.91931" lon="2.20451">
        <ele>58.8</ele>
        <time>2022-02-02T14:48:32Z</time>
      </trkpt>
      <trkpt lat="49.91932" lon="2.2045">
        <ele>58.8</ele>
        <time>2022-02-02T14:48:33Z</time>
      </trkpt>
      <trkpt lat="49.91934" lon="2.20447">
        <ele>58.7</ele>
        <time>2022-02-02T14:48:34Z</time>
      </trkpt>
      <trkpt lat="49.91934" lon="2.20446">
        <ele>58.7</ele>
        <time>2022-02-02T14:48:35Z</time>
      </trkpt>
      <trkpt lat="49.91935" lon="2.20446">
        <ele>58.7</ele>
        <time>2022-02-02T14:48:36Z</time>
      </trkpt>
      <trkpt lat="49.91936" lon="2.20443">
        <ele>58.7</ele>
        <time>2022-02-02T14:48:37Z</time>
      </trkpt>
      <trkpt lat="49.91937" lon="2.20442">
        <ele>58.6</ele>
        <time>2022-02-02T14:48:38Z</time>
      </trkpt>
      <trkpt lat="49.91938" lon="2.2044">
        <ele>58.6</ele>
        <time>2022-02-02T14:48:40Z</time>
      </trkpt>
      <trkpt lat="49.91938" lon="2.20439">
        <ele>58.6</ele>
        <time>2022-02-02T14:48:41Z</time>
      </trkpt>
      <trkpt lat="49.91939" lon="2.20438">
        <ele>58.6</ele>
        <time>2022-02-02T14:48:42Z</time>
      </trkpt>
      <trkpt lat="49.91939" lon="2.20436">
        <ele>58.5</ele>
        <time>2022-02-02T14:48:43Z</time>
      </trkpt>
      <trkpt lat="49.9194" lon="2.20435">
        <ele>58.5</ele>
        <time>2022-02-02T14:48:44Z</time>
      </trkpt>
      <trkpt lat="49.9194" lon="2.20433">
        <ele>58.5</ele>
        <time>2022-02-02T14:48:45Z</time>
      </trkpt>
      <trkpt lat="49.91941" lon="2.20432">
        <ele>58.5</ele>
        <time>2022-02-02T14:48:46Z</time>
      </trkpt>
      <trkpt lat="49.91942" lon="2.20429">
        <ele>58.4</ele>
        <time>2022-02-02T14:48:47Z</time>
      </trkpt>
      <trkpt lat="49.91942" lon="2.20428">
        <ele>58.4</ele>
        <time>2022-02-02T14:48:48Z</time>
      </trkpt>
      <trkpt lat="49.91943" lon="2.20427">
        <ele>58.4</ele>
        <time>2022-02-02T14:48:49Z</time>
      </trkpt>
      <trkpt lat="49.91943" lon="2.20425">
        <ele>58.4</ele>
        <time>2022-02-02T14:48:50Z</time>
      </trkpt>
      <trkpt lat="49.91944" lon="2.20423">
        <ele>58.3</ele>
        <time>2022-02-02T14:48:52Z</time>
      </trkpt>
      <trkpt lat="49.91944" lon="2.20422">
        <ele>58.3</ele>
        <time>2022-02-02T14:48:53Z</time>
      </trkpt>
      <trkpt lat="49.91945" lon="2.20419">
        <ele>58.3</ele>
        <time>2022-02-02T14:48:54Z</time>
      </trkpt>
      <trkpt lat="49.91946" lon="2.20418">
        <ele>58.2</ele>
        <time>2022-02-02T14:48:55Z</time>
      </trkpt>
      <trkpt lat="49.91946" lon="2.20417">
        <ele>58.2</ele>
        <time>2022-02-02T14:48:56Z</time>
      </trkpt>
      <trkpt lat="49.91947" lon="2.20415">
        <ele>58.2</ele>
        <time>2022-02-02T14:48:57Z</time>
      </trkpt>
      <trkpt lat="49.91948" lon="2.20413">
        <ele>58.2</ele>
        <time>2022-02-02T14:48:58Z</time>
      </trkpt>
      <trkpt lat="49.91948" lon="2.20411">
        <ele>58.1</ele>
        <time>2022-02-02T14:48:59Z</time>
      </trkpt>
      <trkpt lat="49.91949" lon="2.20409">
        <ele>58.1</ele>
        <time>2022-02-02T14:49:00Z</time>
      </trkpt>
      <trkpt lat="49.91949" lon="2.20406">
        <ele>58.1</ele>
        <time>2022-02-02T14:49:01Z</time>
      </trkpt>
      <trkpt lat="49.91949" lon="2.20405">
        <ele>58.1</ele>
        <time>2022-02-02T14:49:02Z</time>
      </trkpt>
      <trkpt lat="49.91949" lon="2.20403">
        <ele>58.1</ele>
        <time>2022-02-02T14:49:03Z</time>
      </trkpt>
      <trkpt lat="49.9195" lon="2.204">
        <ele>58</ele>
        <time>2022-02-02T14:49:04Z</time>
      </trkpt>
      <trkpt lat="49.9195" lon="2.20399">
        <ele>58</ele>
        <time>2022-02-02T14:49:06Z</time>
      </trkpt>
      <trkpt lat="49.9195" lon="2.20398">
        <ele>58</ele>
        <time>2022-02-02T14:49:07Z</time>
      </trkpt>
      <trkpt lat="49.91951" lon="2.20396">
        <ele>58</ele>
        <time>2022-02-02T14:49:08Z</time>
      </trkpt>
      <trkpt lat="49.91951" lon="2.20394">
        <ele>58</ele>
        <time>2022-02-02T14:49:09Z</time>
      </trkpt>
      <trkpt lat="49.91952" lon="2.20392">
        <ele>57.9</ele>
        <time>2022-02-02T14:49:10Z</time>
      </trkpt>
      <trkpt lat="49.91953" lon="2.20389">
        <ele>57.9</ele>
        <time>2022-02-02T14:49:11Z</time>
      </trkpt>
      <trkpt lat="49.91953" lon="2.20387">
        <ele>57.9</ele>
        <time>2022-02-02T14:49:12Z</time>
      </trkpt>
      <trkpt lat="49.91954" lon="2.20385">
        <ele>57.9</ele>
        <time>2022-02-02T14:49:13Z</time>
      </trkpt>
      <trkpt lat="49.91954" lon="2.20382">
        <ele>57.9</ele>
        <time>2022-02-02T14:49:15Z</time>
      </trkpt>
      <trkpt lat="49.91955" lon="2.2038">
        <ele>57.9</ele>
        <time>2022-02-02T14:49:16Z</time>
      </trkpt>
      <trkpt lat="49.91956" lon="2.20379">
        <ele>57.9</ele>
        <time>2022-02-02T14:49:17Z</time>
      </trkpt>
      <trkpt lat="49.91956" lon="2.20376">
        <ele>57.8</ele>
        <time>2022-02-02T14:49:18Z</time>
      </trkpt>
      <trkpt lat="49.91957" lon="2.20375">
        <ele>57.8</ele>
        <time>2022-02-02T14:49:19Z</time>
      </trkpt>
      <trkpt lat="49.91957" lon="2.20373">
        <ele>57.8</ele>
        <time>2022-02-02T14:49:20Z</time>
      </trkpt>
      <trkpt lat="49.91958" lon="2.2037">
        <ele>57.8</ele>
        <time>2022-02-02T14:49:22Z</time>
      </trkpt>
      <trkpt lat="49.91959" lon="2.20368">
        <ele>57.8</ele>
        <time>2022-02-02T14:49:23Z</time>
      </trkpt>
      <trkpt lat="49.9196" lon="2.20366">
        <ele>57.8</ele>
        <time>2022-02-02T14:49:24Z</time>
      </trkpt>
      <trkpt lat="49.9196" lon="2.20364">
        <ele>57.8</ele>
        <time>2022-02-02T14:49:25Z</time>
      </trkpt>
      <trkpt lat="49.91962" lon="2.20361">
        <ele>57.8</ele>
        <time>2022-02-02T14:49:26Z</time>
      </trkpt>
      <trkpt lat="49.91962" lon="2.2036">
        <ele>57.8</ele>
        <time>2022-02-02T14:49:27Z</time>
      </trkpt>
      <trkpt lat="49.91962" lon="2.20359">
        <ele>57.8</ele>
        <time>2022-02-02T14:49:28Z</time>
      </trkpt>
      <trkpt lat="49.91963" lon="2.20356">
        <ele>57.8</ele>
        <time>2022-02-02T14:49:29Z</time>
      </trkpt>
      <trkpt lat="49.91964" lon="2.20354">
        <ele>57.8</ele>
        <time>2022-02-02T14:49:30Z</time>
      </trkpt>
      <trkpt lat="49.91964" lon="2.20353">
        <ele>57.8</ele>
        <time>2022-02-02T14:49:31Z</time>
      </trkpt>
      <trkpt lat="49.91965" lon="2.2035">
        <ele>57.7</ele>
        <time>2022-02-02T14:49:32Z</time>
      </trkpt>
      <trkpt lat="49.91965" lon="2.20349">
        <ele>57.7</ele>
        <time>2022-02-02T14:49:33Z</time>
      </trkpt>
      <trkpt lat="49.91965" lon="2.20347">
        <ele>57.7</ele>
        <time>2022-02-02T14:49:34Z</time>
      </trkpt>
      <trkpt lat="49.91966" lon="2.20346">
        <ele>57.7</ele>
        <time>2022-02-02T14:49:36Z</time>
      </trkpt>
      <trkpt lat="49.91966" lon="2.20344">
        <ele>57.7</ele>
        <time>2022-02-02T14:49:37Z</time>
      </trkpt>
      <trkpt lat="49.91966" lon="2.20342">
        <ele>57.7</ele>
        <time>2022-02-02T14:49:38Z</time>
      </trkpt>
      <trkpt lat="49.91967" lon="2.20339">
        <ele>57.7</ele>
        <time>2022-02-02T14:49:39Z</time>
      </trkpt>
      <trkpt lat="49.91967" lon="2.20338">
        <ele>57.7</ele>
        <time>2022-02-02T14:49:40Z</time>
      </trkpt>
      <trkpt lat="49.91968" lon="2.20336">
        <ele>57.7</ele>
        <time>2022-02-02T14:49:41Z</time>
      </trkpt>
      <trkpt lat="49.91968" lon="2.20334">
        <ele>57.7</ele>
        <time>2022-02-02T14:49:42Z</time>
      </trkpt>
      <trkpt lat="49.91969" lon="2.20332">
        <ele>57.7</ele>
        <time>2022-02-02T14:49:43Z</time>
      </trkpt>
      <trkpt lat="49.9197" lon="2.20329">
        <ele>57.7</ele>
        <time>2022-02-02T14:49:44Z</time>
      </trkpt>
      <trkpt lat="49.9197" lon="2.20328">
        <ele>57.7</ele>
        <time>2022-02-02T14:49:45Z</time>
      </trkpt>
      <trkpt lat="49.91971" lon="2.20327">
        <ele>57.7</ele>
        <time>2022-02-02T14:49:46Z</time>
      </trkpt>
      <trkpt lat="49.91972" lon="2.20324">
        <ele>57.7</ele>
        <time>2022-02-02T14:49:47Z</time>
      </trkpt>
      <trkpt lat="49.91972" lon="2.20323">
        <ele>57.7</ele>
        <time>2022-02-02T14:49:48Z</time>
      </trkpt>
      <trkpt lat="49.91973" lon="2.20323">
        <ele>57.7</ele>
        <time>2022-02-02T14:49:49Z</time>
      </trkpt>
      <trkpt lat="49.91974" lon="2.2032">
        <ele>57.7</ele>
        <time>2022-02-02T14:49:51Z</time>
      </trkpt>
      <trkpt lat="49.91975" lon="2.20319">
        <ele>57.7</ele>
        <time>2022-02-02T14:49:52Z</time>
      </trkpt>
      <trkpt lat="49.91976" lon="2.20318">
        <ele>57.7</ele>
        <time>2022-02-02T14:49:53Z</time>
      </trkpt>
      <trkpt lat="49.91976" lon="2.20317">
        <ele>57.6</ele>
        <time>2022-02-02T14:49:54Z</time>
      </trkpt>
      <trkpt lat="49.91977" lon="2.20316">
        <ele>57.6</ele>
        <time>2022-02-02T14:49:55Z</time>
      </trkpt>
      <trkpt lat="49.91978" lon="2.20315">
        <ele>57.6</ele>
        <time>2022-02-02T14:49:56Z</time>
      </trkpt>
      <trkpt lat="49.9198" lon="2.20312">
        <ele>57.6</ele>
        <time>2022-02-02T14:49:57Z</time>
      </trkpt>
      <trkpt lat="49.9198" lon="2.20312">
        <ele>57.6</ele>
        <time>2022-02-02T14:49:58Z</time>
      </trkpt>
      <trkpt lat="49.91981" lon="2.20311">
        <ele>57.6</ele>
        <time>2022-02-02T14:49:59Z</time>
      </trkpt>
      <trkpt lat="49.91982" lon="2.20309">
        <ele>57.6</ele>
        <time>2022-02-02T14:50:00Z</time>
      </trkpt>
      <trkpt lat="49.91983" lon="2.20307">
        <ele>57.6</ele>
        <time>2022-02-02T14:50:02Z</time>
      </trkpt>
      <trkpt lat="49.91984" lon="2.20306">
        <ele>57.6</ele>
        <time>2022-02-02T14:50:03Z</time>
      </trkpt>
      <trkpt lat="49.91984" lon="2.20305">
        <ele>57.6</ele>
        <time>2022-02-02T14:50:04Z</time>
      </trkpt>
      <trkpt lat="49.91985" lon="2.20304">
        <ele>57.6</ele>
        <time>2022-02-02T14:50:05Z</time>
      </trkpt>
      <trkpt lat="49.91986" lon="2.20302">
        <ele>57.6</ele>
        <time>2022-02-02T14:50:06Z</time>
      </trkpt>
      <trkpt lat="49.91987" lon="2.20301">
        <ele>57.6</ele>
        <time>2022-02-02T14:50:08Z</time>
      </trkpt>
      <trkpt lat="49.91988" lon="2.20299">
        <ele>57.6</ele>
        <time>2022-02-02T14:50:09Z</time>
      </trkpt>
      <trkpt lat="49.91989" lon="2.20297">
        <ele>57.5</ele>
        <time>2022-02-02T14:50:10Z</time>
      </trkpt>
      <trkpt lat="49.9199" lon="2.20295">
        <ele>57.5</ele>
        <time>2022-02-02T14:50:11Z</time>
      </trkpt>
      <trkpt lat="49.91991" lon="2.20293">
        <ele>57.5</ele>
        <time>2022-02-02T14:50:12Z</time>
      </trkpt>
      <trkpt lat="49.91992" lon="2.20291">
        <ele>57.5</ele>
        <time>2022-02-02T14:50:13Z</time>
      </trkpt>
      <trkpt lat="49.91993" lon="2.20289">
        <ele>57.5</ele>
        <time>2022-02-02T14:50:14Z</time>
      </trkpt>
      <trkpt lat="49.91993" lon="2.20288">
        <ele>57.5</ele>
        <time>2022-02-02T14:50:15Z</time>
      </trkpt>
      <trkpt lat="49.91994" lon="2.20287">
        <ele>57.5</ele>
        <time>2022-02-02T14:50:16Z</time>
      </trkpt>
      <trkpt lat="49.91995" lon="2.20285">
        <ele>57.5</ele>
        <time>2022-02-02T14:50:17Z</time>
      </trkpt>
      <trkpt lat="49.91995" lon="2.20284">
        <ele>57.5</ele>
        <time>2022-02-02T14:50:18Z</time>
      </trkpt>
      <trkpt lat="49.91996" lon="2.20283">
        <ele>57.5</ele>
        <time>2022-02-02T14:50:19Z</time>
      </trkpt>
      <trkpt lat="49.91997" lon="2.20281">
        <ele>57.5</ele>
        <time>2022-02-02T14:50:20Z</time>
      </trkpt>
      <trkpt lat="49.91997" lon="2.2028">
        <ele>57.5</ele>
        <time>2022-02-02T14:50:22Z</time>
      </trkpt>
      <trkpt lat="49.91998" lon="2.20278">
        <ele>57.5</ele>
        <time>2022-02-02T14:50:23Z</time>
      </trkpt>
      <trkpt lat="49.91999" lon="2.20276">
        <ele>57.5</ele>
        <time>2022-02-02T14:50:24Z</time>
      </trkpt>
      <trkpt lat="49.92" lon="2.20273">
        <ele>57.4</ele>
        <time>2022-02-02T14:50:25Z</time>
      </trkpt>
      <trkpt lat="49.92" lon="2.20272">
        <ele>57.4</ele>
        <time>2022-02-02T14:50:26Z</time>
      </trkpt>
      <trkpt lat="49.92001" lon="2.20271">
        <ele>57.4</ele>
        <time>2022-02-02T14:50:27Z</time>
      </trkpt>
      <trkpt lat="49.92002" lon="2.20268">
        <ele>57.4</ele>
        <time>2022-02-02T14:50:28Z</time>
      </trkpt>
      <trkpt lat="49.92003" lon="2.20267">
        <ele>57.4</ele>
        <time>2022-02-02T14:50:29Z</time>
      </trkpt>
      <trkpt lat="49.92003" lon="2.20266">
        <ele>57.4</ele>
        <time>2022-02-02T14:50:30Z</time>
      </trkpt>
      <trkpt lat="49.92004" lon="2.20265">
        <ele>57.4</ele>
        <time>2022-02-02T14:50:32Z</time>
      </trkpt>
      <trkpt lat="49.92004" lon="2.20264">
        <ele>57.4</ele>
        <time>2022-02-02T14:50:33Z</time>
      </trkpt>
      <trkpt lat="49.92005" lon="2.20262">
        <ele>57.4</ele>
        <time>2022-02-02T14:50:34Z</time>
      </trkpt>
      <trkpt lat="49.92006" lon="2.2026">
        <ele>57.4</ele>
        <time>2022-02-02T14:50:35Z</time>
      </trkpt>
      <trkpt lat="49.92007" lon="2.20258">
        <ele>57.4</ele>
        <time>2022-02-02T14:50:36Z</time>
      </trkpt>
      <trkpt lat="49.92007" lon="2.20257">
        <ele>57.3</ele>
        <time>2022-02-02T14:50:37Z</time>
      </trkpt>
      <trkpt lat="49.92008" lon="2.20255">
        <ele>57.3</ele>
        <time>2022-02-02T14:50:38Z</time>
      </trkpt>
      <trkpt lat="49.92009" lon="2.20254">
        <ele>57.3</ele>
        <time>2022-02-02T14:50:39Z</time>
      </trkpt>
      <trkpt lat="49.9201" lon="2.2025">
        <ele>57.3</ele>
        <time>2022-02-02T14:50:40Z</time>
      </trkpt>
      <trkpt lat="49.92011" lon="2.20249">
        <ele>57.3</ele>
        <time>2022-02-02T14:50:42Z</time>
      </trkpt>
      <trkpt lat="49.92011" lon="2.20247">
        <ele>57.3</ele>
        <time>2022-02-02T14:50:43Z</time>
      </trkpt>
      <trkpt lat="49.92012" lon="2.20246">
        <ele>57.3</ele>
        <time>2022-02-02T14:50:44Z</time>
      </trkpt>
      <trkpt lat="49.92013" lon="2.20244">
        <ele>57.3</ele>
        <time>2022-02-02T14:50:45Z</time>
      </trkpt>
      <trkpt lat="49.92013" lon="2.20242">
        <ele>57.2</ele>
        <time>2022-02-02T14:50:46Z</time>
      </trkpt>
      <trkpt lat="49.92014" lon="2.2024">
        <ele>57.2</ele>
        <time>2022-02-02T14:50:47Z</time>
      </trkpt>
      <trkpt lat="49.92015" lon="2.20238">
        <ele>57.2</ele>
        <time>2022-02-02T14:50:48Z</time>
      </trkpt>
      <trkpt lat="49.92016" lon="2.20236">
        <ele>57.2</ele>
        <time>2022-02-02T14:50:49Z</time>
      </trkpt>
      <trkpt lat="49.92016" lon="2.20234">
        <ele>57.2</ele>
        <time>2022-02-02T14:50:51Z</time>
      </trkpt>
      <trkpt lat="49.92017" lon="2.20231">
        <ele>57.1</ele>
        <time>2022-02-02T14:50:52Z</time>
      </trkpt>
      <trkpt lat="49.92018" lon="2.20229">
        <ele>57.1</ele>
        <time>2022-02-02T14:50:53Z</time>
      </trkpt>
      <trkpt lat="49.92018" lon="2.20227">
        <ele>57.1</ele>
        <time>2022-02-02T14:50:54Z</time>
      </trkpt>
      <trkpt lat="49.92019" lon="2.20226">
        <ele>57.1</ele>
        <time>2022-02-02T14:50:55Z</time>
      </trkpt>
      <trkpt lat="49.9202" lon="2.20223">
        <ele>57.1</ele>
        <time>2022-02-02T14:50:56Z</time>
      </trkpt>
      <trkpt lat="49.9202" lon="2.20221">
        <ele>57.1</ele>
        <time>2022-02-02T14:50:57Z</time>
      </trkpt>
      <trkpt lat="49.92021" lon="2.20219">
        <ele>57</ele>
        <time>2022-02-02T14:50:58Z</time>
      </trkpt>
      <trkpt lat="49.92022" lon="2.20218">
        <ele>57</ele>
        <time>2022-02-02T14:50:59Z</time>
      </trkpt>
      <trkpt lat="49.92023" lon="2.20216">
        <ele>57</ele>
        <time>2022-02-02T14:51:00Z</time>
      </trkpt>
      <trkpt lat="49.92024" lon="2.20214">
        <ele>57</ele>
        <time>2022-02-02T14:51:01Z</time>
      </trkpt>
      <trkpt lat="49.92025" lon="2.20213">
        <ele>57</ele>
        <time>2022-02-02T14:51:03Z</time>
      </trkpt>
      <trkpt lat="49.92026" lon="2.20211">
        <ele>57</ele>
        <time>2022-02-02T14:51:04Z</time>
      </trkpt>
      <trkpt lat="49.92026" lon="2.20209">
        <ele>56.9</ele>
        <time>2022-02-02T14:51:05Z</time>
      </trkpt>
      <trkpt lat="49.92028" lon="2.20206">
        <ele>56.9</ele>
        <time>2022-02-02T14:51:06Z</time>
      </trkpt>
      <trkpt lat="49.92028" lon="2.20205">
        <ele>56.9</ele>
        <time>2022-02-02T14:51:07Z</time>
      </trkpt>
      <trkpt lat="49.92029" lon="2.20204">
        <ele>56.9</ele>
        <time>2022-02-02T14:51:08Z</time>
      </trkpt>
      <trkpt lat="49.9203" lon="2.20202">
        <ele>56.9</ele>
        <time>2022-02-02T14:51:09Z</time>
      </trkpt>
      <trkpt lat="49.92031" lon="2.20201">
        <ele>56.9</ele>
        <time>2022-02-02T14:51:10Z</time>
      </trkpt>
      <trkpt lat="49.92031" lon="2.202">
        <ele>56.9</ele>
        <time>2022-02-02T14:51:11Z</time>
      </trkpt>
      <trkpt lat="49.92032" lon="2.20197">
        <ele>56.9</ele>
        <time>2022-02-02T14:51:13Z</time>
      </trkpt>
      <trkpt lat="49.92033" lon="2.20196">
        <ele>56.9</ele>
        <time>2022-02-02T14:51:14Z</time>
      </trkpt>
      <trkpt lat="49.92033" lon="2.20195">
        <ele>56.9</ele>
        <time>2022-02-02T14:51:15Z</time>
      </trkpt>
      <trkpt lat="49.92034" lon="2.20193">
        <ele>56.8</ele>
        <time>2022-02-02T14:51:16Z</time>
      </trkpt>
      <trkpt lat="49.92035" lon="2.20191">
        <ele>56.8</ele>
        <time>2022-02-02T14:51:17Z</time>
      </trkpt>
      <trkpt lat="49.92037" lon="2.20189">
        <ele>56.8</ele>
        <time>2022-02-02T14:51:18Z</time>
      </trkpt>
      <trkpt lat="49.92037" lon="2.20188">
        <ele>56.8</ele>
        <time>2022-02-02T14:51:19Z</time>
      </trkpt>
      <trkpt lat="49.92038" lon="2.20187">
        <ele>56.8</ele>
        <time>2022-02-02T14:51:20Z</time>
      </trkpt>
      <trkpt lat="49.92038" lon="2.20185">
        <ele>56.8</ele>
        <time>2022-02-02T14:51:21Z</time>
      </trkpt>
      <trkpt lat="49.92039" lon="2.20184">
        <ele>56.8</ele>
        <time>2022-02-02T14:51:22Z</time>
      </trkpt>
      <trkpt lat="49.9204" lon="2.20182">
        <ele>56.8</ele>
        <time>2022-02-02T14:51:24Z</time>
      </trkpt>
      <trkpt lat="49.92041" lon="2.20181">
        <ele>56.8</ele>
        <time>2022-02-02T14:51:25Z</time>
      </trkpt>
      <trkpt lat="49.92041" lon="2.2018">
        <ele>56.8</ele>
        <time>2022-02-02T14:51:26Z</time>
      </trkpt>
      <trkpt lat="49.92042" lon="2.20178">
        <ele>56.8</ele>
        <time>2022-02-02T14:51:27Z</time>
      </trkpt>
      <trkpt lat="49.92043" lon="2.20175">
        <ele>56.8</ele>
        <time>2022-02-02T14:51:28Z</time>
      </trkpt>
      <trkpt lat="49.92044" lon="2.20174">
        <ele>56.8</ele>
        <time>2022-02-02T14:51:29Z</time>
      </trkpt>
      <trkpt lat="49.92044" lon="2.20173">
        <ele>56.8</ele>
        <time>2022-02-02T14:51:30Z</time>
      </trkpt>
      <trkpt lat="49.92045" lon="2.20171">
        <ele>56.8</ele>
        <time>2022-02-02T14:51:31Z</time>
      </trkpt>
      <trkpt lat="49.92046" lon="2.2017">
        <ele>56.8</ele>
        <time>2022-02-02T14:51:32Z</time>
      </trkpt>
      <trkpt lat="49.92046" lon="2.20168">
        <ele>56.7</ele>
        <time>2022-02-02T14:51:33Z</time>
      </trkpt>
      <trkpt lat="49.92047" lon="2.20166">
        <ele>56.7</ele>
        <time>2022-02-02T14:51:34Z</time>
      </trkpt>
      <trkpt lat="49.92048" lon="2.20165">
        <ele>56.7</ele>
        <time>2022-02-02T14:51:36Z</time>
      </trkpt>
      <trkpt lat="49.92049" lon="2.20162">
        <ele>56.7</ele>
        <time>2022-02-02T14:51:37Z</time>
      </trkpt>
      <trkpt lat="49.92049" lon="2.20161">
        <ele>56.7</ele>
        <time>2022-02-02T14:51:38Z</time>
      </trkpt>
      <trkpt lat="49.9205" lon="2.2016">
        <ele>56.7</ele>
        <time>2022-02-02T14:51:39Z</time>
      </trkpt>
      <trkpt lat="49.92051" lon="2.20157">
        <ele>56.7</ele>
        <time>2022-02-02T14:51:40Z</time>
      </trkpt>
      <trkpt lat="49.92052" lon="2.20156">
        <ele>56.7</ele>
        <time>2022-02-02T14:51:41Z</time>
      </trkpt>
      <trkpt lat="49.92052" lon="2.20155">
        <ele>56.7</ele>
        <time>2022-02-02T14:51:42Z</time>
      </trkpt>
      <trkpt lat="49.92053" lon="2.20153">
        <ele>56.7</ele>
        <time>2022-02-02T14:51:43Z</time>
      </trkpt>
      <trkpt lat="49.92054" lon="2.20151">
        <ele>56.7</ele>
        <time>2022-02-02T14:51:44Z</time>
      </trkpt>
      <trkpt lat="49.92055" lon="2.20148">
        <ele>56.7</ele>
        <time>2022-02-02T14:51:45Z</time>
      </trkpt>
      <trkpt lat="49.92056" lon="2.20146">
        <ele>56.7</ele>
        <time>2022-02-02T14:51:47Z</time>
      </trkpt>
      <trkpt lat="49.92056" lon="2.20145">
        <ele>56.7</ele>
        <time>2022-02-02T14:51:48Z</time>
      </trkpt>
      <trkpt lat="49.92057" lon="2.20144">
        <ele>56.7</ele>
        <time>2022-02-02T14:51:49Z</time>
      </trkpt>
      <trkpt lat="49.92058" lon="2.20142">
        <ele>56.7</ele>
        <time>2022-02-02T14:51:50Z</time>
      </trkpt>
      <trkpt lat="49.92059" lon="2.20139">
        <ele>56.7</ele>
        <time>2022-02-02T14:51:51Z</time>
      </trkpt>
      <trkpt lat="49.92059" lon="2.20138">
        <ele>56.7</ele>
        <time>2022-02-02T14:51:52Z</time>
      </trkpt>
      <trkpt lat="49.9206" lon="2.20137">
        <ele>56.7</ele>
        <time>2022-02-02T14:51:53Z</time>
      </trkpt>
      <trkpt lat="49.9206" lon="2.20135">
        <ele>56.6</ele>
        <time>2022-02-02T14:51:54Z</time>
      </trkpt>
      <trkpt lat="49.92061" lon="2.20133">
        <ele>56.6</ele>
        <time>2022-02-02T14:51:55Z</time>
      </trkpt>
      <trkpt lat="49.92062" lon="2.2013">
        <ele>56.6</ele>
        <time>2022-02-02T14:51:56Z</time>
      </trkpt>
      <trkpt lat="49.92062" lon="2.20129">
        <ele>56.6</ele>
        <time>2022-02-02T14:51:58Z</time>
      </trkpt>
      <trkpt lat="49.92063" lon="2.20127">
        <ele>56.6</ele>
        <time>2022-02-02T14:51:59Z</time>
      </trkpt>
      <trkpt lat="49.92064" lon="2.20125">
        <ele>56.6</ele>
        <time>2022-02-02T14:52:00Z</time>
      </trkpt>
      <trkpt lat="49.92064" lon="2.20124">
        <ele>56.6</ele>
        <time>2022-02-02T14:52:01Z</time>
      </trkpt>
      <trkpt lat="49.92065" lon="2.20122">
        <ele>56.6</ele>
        <time>2022-02-02T14:52:02Z</time>
      </trkpt>
      <trkpt lat="49.92066" lon="2.2012">
        <ele>56.6</ele>
        <time>2022-02-02T14:52:03Z</time>
      </trkpt>
      <trkpt lat="49.92066" lon="2.20119">
        <ele>56.6</ele>
        <time>2022-02-02T14:52:04Z</time>
      </trkpt>
      <trkpt lat="49.92067" lon="2.20118">
        <ele>56.6</ele>
        <time>2022-02-02T14:52:05Z</time>
      </trkpt>
      <trkpt lat="49.92068" lon="2.20116">
        <ele>56.6</ele>
        <time>2022-02-02T14:52:06Z</time>
      </trkpt>
      <trkpt lat="49.92068" lon="2.20115">
        <ele>56.6</ele>
        <time>2022-02-02T14:52:08Z</time>
      </trkpt>
      <trkpt lat="49.92069" lon="2.20114">
        <ele>56.6</ele>
        <time>2022-02-02T14:52:09Z</time>
      </trkpt>
      <trkpt lat="49.92071" lon="2.20112">
        <ele>56.6</ele>
        <time>2022-02-02T14:52:10Z</time>
      </trkpt>
      <trkpt lat="49.92072" lon="2.20111">
        <ele>56.6</ele>
        <time>2022-02-02T14:52:11Z</time>
      </trkpt>
      <trkpt lat="49.92072" lon="2.2011">
        <ele>56.6</ele>
        <time>2022-02-02T14:52:12Z</time>
      </trkpt>
      <trkpt lat="49.92073" lon="2.20109">
        <ele>56.6</ele>
        <time>2022-02-02T14:52:13Z</time>
      </trkpt>
      <trkpt lat="49.92075" lon="2.20107">
        <ele>56.6</ele>
        <time>2022-02-02T14:52:14Z</time>
      </trkpt>
      <trkpt lat="49.92076" lon="2.20106">
        <ele>56.6</ele>
        <time>2022-02-02T14:52:15Z</time>
      </trkpt>
      <trkpt lat="49.92077" lon="2.20105">
        <ele>56.6</ele>
        <time>2022-02-02T14:52:16Z</time>
      </trkpt>
      <trkpt lat="49.92078" lon="2.20104">
        <ele>56.6</ele>
        <time>2022-02-02T14:52:17Z</time>
      </trkpt>
      <trkpt lat="49.92079" lon="2.20102">
        <ele>56.6</ele>
        <time>2022-02-02T14:52:19Z</time>
      </trkpt>
      <trkpt lat="49.9208" lon="2.20101">
        <ele>56.6</ele>
        <time>2022-02-02T14:52:20Z</time>
      </trkpt>
      <trkpt lat="49.92081" lon="2.20099">
        <ele>56.5</ele>
        <time>2022-02-02T14:52:21Z</time>
      </trkpt>
      <trkpt lat="49.92082" lon="2.20098">
        <ele>56.5</ele>
        <time>2022-02-02T14:52:22Z</time>
      </trkpt>
      <trkpt lat="49.92083" lon="2.20097">
        <ele>56.5</ele>
        <time>2022-02-02T14:52:23Z</time>
      </trkpt>
      <trkpt lat="49.92084" lon="2.20096">
        <ele>56.5</ele>
        <time>2022-02-02T14:52:24Z</time>
      </trkpt>
      <trkpt lat="49.92085" lon="2.20095">
        <ele>56.5</ele>
        <time>2022-02-02T14:52:25Z</time>
      </trkpt>
      <trkpt lat="49.92086" lon="2.20094">
        <ele>56.5</ele>
        <time>2022-02-02T14:52:26Z</time>
      </trkpt>
      <trkpt lat="49.92088" lon="2.20091">
        <ele>56.5</ele>
        <time>2022-02-02T14:52:27Z</time>
      </trkpt>
      <trkpt lat="49.92088" lon="2.2009">
        <ele>56.5</ele>
        <time>2022-02-02T14:52:29Z</time>
      </trkpt>
      <trkpt lat="49.92089" lon="2.2009">
        <ele>56.5</ele>
        <time>2022-02-02T14:52:30Z</time>
      </trkpt>
      <trkpt lat="49.92091" lon="2.20087">
        <ele>56.5</ele>
        <time>2022-02-02T14:52:31Z</time>
      </trkpt>
      <trkpt lat="49.92091" lon="2.20086">
        <ele>56.5</ele>
        <time>2022-02-02T14:52:32Z</time>
      </trkpt>
      <trkpt lat="49.92092" lon="2.20085">
        <ele>56.5</ele>
        <time>2022-02-02T14:52:33Z</time>
      </trkpt>
      <trkpt lat="49.92093" lon="2.20084">
        <ele>56.5</ele>
        <time>2022-02-02T14:52:34Z</time>
      </trkpt>
      <trkpt lat="49.92093" lon="2.20083">
        <ele>56.5</ele>
        <time>2022-02-02T14:52:35Z</time>
      </trkpt>
      <trkpt lat="49.92094" lon="2.20082">
        <ele>56.5</ele>
        <time>2022-02-02T14:52:36Z</time>
      </trkpt>
      <trkpt lat="49.92095" lon="2.2008">
        <ele>56.5</ele>
        <time>2022-02-02T14:52:37Z</time>
      </trkpt>
      <trkpt lat="49.92096" lon="2.20079">
        <ele>56.4</ele>
        <time>2022-02-02T14:52:39Z</time>
      </trkpt>
      <trkpt lat="49.92096" lon="2.20078">
        <ele>56.4</ele>
        <time>2022-02-02T14:52:40Z</time>
      </trkpt>
      <trkpt lat="49.92098" lon="2.20076">
        <ele>56.4</ele>
        <time>2022-02-02T14:52:41Z</time>
      </trkpt>
      <trkpt lat="49.92098" lon="2.20075">
        <ele>56.4</ele>
        <time>2022-02-02T14:52:42Z</time>
      </trkpt>
      <trkpt lat="49.92099" lon="2.20074">
        <ele>56.4</ele>
        <time>2022-02-02T14:52:43Z</time>
      </trkpt>
      <trkpt lat="49.921" lon="2.20072">
        <ele>56.4</ele>
        <time>2022-02-02T14:52:44Z</time>
      </trkpt>
      <trkpt lat="49.92101" lon="2.20071">
        <ele>56.4</ele>
        <time>2022-02-02T14:52:45Z</time>
      </trkpt>
      <trkpt lat="49.92101" lon="2.2007">
        <ele>56.4</ele>
        <time>2022-02-02T14:52:46Z</time>
      </trkpt>
      <trkpt lat="49.92102" lon="2.20069">
        <ele>56.4</ele>
        <time>2022-02-02T14:52:47Z</time>
      </trkpt>
      <trkpt lat="49.92103" lon="2.20067">
        <ele>56.4</ele>
        <time>2022-02-02T14:52:48Z</time>
      </trkpt>
      <trkpt lat="49.92104" lon="2.20066">
        <ele>56.4</ele>
        <time>2022-02-02T14:52:50Z</time>
      </trkpt>
      <trkpt lat="49.92104" lon="2.20065">
        <ele>56.4</ele>
        <time>2022-02-02T14:52:51Z</time>
      </trkpt>
      <trkpt lat="49.92105" lon="2.20063">
        <ele>56.4</ele>
        <time>2022-02-02T14:52:52Z</time>
      </trkpt>
      <trkpt lat="49.92106" lon="2.20062">
        <ele>56.4</ele>
        <time>2022-02-02T14:52:53Z</time>
      </trkpt>
      <trkpt lat="49.92107" lon="2.2006">
        <ele>56.3</ele>
        <time>2022-02-02T14:52:54Z</time>
      </trkpt>
      <trkpt lat="49.92108" lon="2.20058">
        <ele>56.3</ele>
        <time>2022-02-02T14:52:55Z</time>
      </trkpt>
      <trkpt lat="49.92109" lon="2.20056">
        <ele>56.3</ele>
        <time>2022-02-02T14:52:56Z</time>
      </trkpt>
      <trkpt lat="49.9211" lon="2.20055">
        <ele>56.3</ele>
        <time>2022-02-02T14:52:57Z</time>
      </trkpt>
      <trkpt lat="49.9211" lon="2.20054">
        <ele>56.3</ele>
        <time>2022-02-02T14:52:58Z</time>
      </trkpt>
      <trkpt lat="49.92111" lon="2.20053">
        <ele>56.3</ele>
        <time>2022-02-02T14:52:59Z</time>
      </trkpt>
      <trkpt lat="49.92112" lon="2.20051">
        <ele>56.3</ele>
        <time>2022-02-02T14:53:00Z</time>
      </trkpt>
      <trkpt lat="49.92112" lon="2.20049">
        <ele>56.3</ele>
        <time>2022-02-02T14:53:02Z</time>
      </trkpt>
      <trkpt lat="49.92113" lon="2.20047">
        <ele>56.3</ele>
        <time>2022-02-02T14:53:03Z</time>
      </trkpt>
      <trkpt lat="49.92114" lon="2.20045">
        <ele>56.3</ele>
        <time>2022-02-02T14:53:04Z</time>
      </trkpt>
      <trkpt lat="49.92114" lon="2.20044">
        <ele>56.2</ele>
        <time>2022-02-02T14:53:05Z</time>
      </trkpt>
      <trkpt lat="49.92115" lon="2.20042">
        <ele>56.2</ele>
        <time>2022-02-02T14:53:06Z</time>
      </trkpt>
      <trkpt lat="49.92116" lon="2.20041">
        <ele>56.2</ele>
        <time>2022-02-02T14:53:07Z</time>
      </trkpt>
      <trkpt lat="49.92117" lon="2.20039">
        <ele>56.2</ele>
        <time>2022-02-02T14:53:08Z</time>
      </trkpt>
      <trkpt lat="49.92118" lon="2.20037">
        <ele>56.2</ele>
        <time>2022-02-02T14:53:09Z</time>
      </trkpt>
      <trkpt lat="49.92118" lon="2.20035">
        <ele>56.2</ele>
        <time>2022-02-02T14:53:10Z</time>
      </trkpt>
      <trkpt lat="49.92119" lon="2.20034">
        <ele>56.2</ele>
        <time>2022-02-02T14:53:11Z</time>
      </trkpt>
      <trkpt lat="49.9212" lon="2.20032">
        <ele>56.2</ele>
        <time>2022-02-02T14:53:13Z</time>
      </trkpt>
      <trkpt lat="49.92121" lon="2.2003">
        <ele>56.1</ele>
        <time>2022-02-02T14:53:14Z</time>
      </trkpt>
      <trkpt lat="49.92121" lon="2.20029">
        <ele>56.1</ele>
        <time>2022-02-02T14:53:15Z</time>
      </trkpt>
      <trkpt lat="49.92122" lon="2.20028">
        <ele>56.1</ele>
        <time>2022-02-02T14:53:16Z</time>
      </trkpt>
      <trkpt lat="49.92123" lon="2.20026">
        <ele>56.1</ele>
        <time>2022-02-02T14:53:17Z</time>
      </trkpt>
      <trkpt lat="49.92123" lon="2.20025">
        <ele>56.1</ele>
        <time>2022-02-02T14:53:18Z</time>
      </trkpt>
      <trkpt lat="49.92124" lon="2.20023">
        <ele>56.1</ele>
        <time>2022-02-02T14:53:19Z</time>
      </trkpt>
      <trkpt lat="49.92125" lon="2.20021">
        <ele>56</ele>
        <time>2022-02-02T14:53:20Z</time>
      </trkpt>
      <trkpt lat="49.92125" lon="2.2002">
        <ele>56</ele>
        <time>2022-02-02T14:53:21Z</time>
      </trkpt>
      <trkpt lat="49.92126" lon="2.20018">
        <ele>56</ele>
        <time>2022-02-02T14:53:22Z</time>
      </trkpt>
      <trkpt lat="49.92127" lon="2.20016">
        <ele>56</ele>
        <time>2022-02-02T14:53:23Z</time>
      </trkpt>
      <trkpt lat="49.92128" lon="2.20015">
        <ele>56</ele>
        <time>2022-02-02T14:53:25Z</time>
      </trkpt>
      <trkpt lat="49.92129" lon="2.20012">
        <ele>55.9</ele>
        <time>2022-02-02T14:53:26Z</time>
      </trkpt>
      <trkpt lat="49.92129" lon="2.20011">
        <ele>55.9</ele>
        <time>2022-02-02T14:53:27Z</time>
      </trkpt>
      <trkpt lat="49.9213" lon="2.2001">
        <ele>55.9</ele>
        <time>2022-02-02T14:53:28Z</time>
      </trkpt>
      <trkpt lat="49.92131" lon="2.20007">
        <ele>55.9</ele>
        <time>2022-02-02T14:53:29Z</time>
      </trkpt>
      <trkpt lat="49.92132" lon="2.20006">
        <ele>55.9</ele>
        <time>2022-02-02T14:53:30Z</time>
      </trkpt>
      <trkpt lat="49.92132" lon="2.20005">
        <ele>55.9</ele>
        <time>2022-02-02T14:53:31Z</time>
      </trkpt>
      <trkpt lat="49.92133" lon="2.20004">
        <ele>55.8</ele>
        <time>2022-02-02T14:53:32Z</time>
      </trkpt>
      <trkpt lat="49.92134" lon="2.20002">
        <ele>55.8</ele>
        <time>2022-02-02T14:53:33Z</time>
      </trkpt>
      <trkpt lat="49.92135" lon="2.2">
        <ele>55.8</ele>
        <time>2022-02-02T14:53:34Z</time>
      </trkpt>
      <trkpt lat="49.92136" lon="2.19998">
        <ele>55.8</ele>
        <time>2022-02-02T14:53:35Z</time>
      </trkpt>
      <trkpt lat="49.92138" lon="2.19996">
        <ele>55.8</ele>
        <time>2022-02-02T14:53:36Z</time>
      </trkpt>
      <trkpt lat="49.92138" lon="2.19995">
        <ele>55.7</ele>
        <time>2022-02-02T14:53:38Z</time>
      </trkpt>
      <trkpt lat="49.92139" lon="2.19993">
        <ele>55.7</ele>
        <time>2022-02-02T14:53:39Z</time>
      </trkpt>
      <trkpt lat="49.9214" lon="2.19991">
        <ele>55.7</ele>
        <time>2022-02-02T14:53:40Z</time>
      </trkpt>
      <trkpt lat="49.9214" lon="2.1999">
        <ele>55.7</ele>
        <time>2022-02-02T14:53:41Z</time>
      </trkpt>
      <trkpt lat="49.92141" lon="2.19989">
        <ele>55.7</ele>
        <time>2022-02-02T14:53:42Z</time>
      </trkpt>
      <trkpt lat="49.92141" lon="2.19987">
        <ele>55.7</ele>
        <time>2022-02-02T14:53:43Z</time>
      </trkpt>
      <trkpt lat="49.92142" lon="2.19985">
        <ele>55.6</ele>
        <time>2022-02-02T14:53:44Z</time>
      </trkpt>
      <trkpt lat="49.92143" lon="2.19983">
        <ele>55.6</ele>
        <time>2022-02-02T14:53:45Z</time>
      </trkpt>
      <trkpt lat="49.92144" lon="2.19982">
        <ele>55.6</ele>
        <time>2022-02-02T14:53:46Z</time>
      </trkpt>
      <trkpt lat="49.92145" lon="2.1998">
        <ele>55.6</ele>
        <time>2022-02-02T14:53:47Z</time>
      </trkpt>
      <trkpt lat="49.92146" lon="2.19979">
        <ele>55.5</ele>
        <time>2022-02-02T14:53:49Z</time>
      </trkpt>
      <trkpt lat="49.92146" lon="2.19978">
        <ele>55.5</ele>
        <time>2022-02-02T14:53:50Z</time>
      </trkpt>
      <trkpt lat="49.92147" lon="2.19976">
        <ele>55.5</ele>
        <time>2022-02-02T14:53:51Z</time>
      </trkpt>
      <trkpt lat="49.92148" lon="2.19975">
        <ele>55.5</ele>
        <time>2022-02-02T14:53:52Z</time>
      </trkpt>
      <trkpt lat="49.92148" lon="2.19973">
        <ele>55.5</ele>
        <time>2022-02-02T14:53:53Z</time>
      </trkpt>
      <trkpt lat="49.9215" lon="2.19971">
        <ele>55.4</ele>
        <time>2022-02-02T14:53:54Z</time>
      </trkpt>
      <trkpt lat="49.92151" lon="2.1997">
        <ele>55.4</ele>
        <time>2022-02-02T14:53:55Z</time>
      </trkpt>
      <trkpt lat="49.92151" lon="2.19968">
        <ele>55.4</ele>
        <time>2022-02-02T14:53:56Z</time>
      </trkpt>
      <trkpt lat="49.92152" lon="2.19966">
        <ele>55.4</ele>
        <time>2022-02-02T14:53:57Z</time>
      </trkpt>
      <trkpt lat="49.92153" lon="2.19965">
        <ele>55.4</ele>
        <time>2022-02-02T14:53:58Z</time>
      </trkpt>
      <trkpt lat="49.92154" lon="2.19963">
        <ele>55.3</ele>
        <time>2022-02-02T14:53:59Z</time>
      </trkpt>
      <trkpt lat="49.92155" lon="2.19961">
        <ele>55.3</ele>
        <time>2022-02-02T14:54:01Z</time>
      </trkpt>
      <trkpt lat="49.92155" lon="2.1996">
        <ele>55.3</ele>
        <time>2022-02-02T14:54:02Z</time>
      </trkpt>
      <trkpt lat="49.92156" lon="2.19958">
        <ele>55.3</ele>
        <time>2022-02-02T14:54:03Z</time>
      </trkpt>
      <trkpt lat="49.92157" lon="2.19956">
        <ele>55.3</ele>
        <time>2022-02-02T14:54:04Z</time>
      </trkpt>
      <trkpt lat="49.92157" lon="2.19955">
        <ele>55.2</ele>
        <time>2022-02-02T14:54:05Z</time>
      </trkpt>
      <trkpt lat="49.92157" lon="2.19953">
        <ele>55.2</ele>
        <time>2022-02-02T14:54:06Z</time>
      </trkpt>
      <trkpt lat="49.92158" lon="2.19951">
        <ele>55.2</ele>
        <time>2022-02-02T14:54:07Z</time>
      </trkpt>
      <trkpt lat="49.92159" lon="2.1995">
        <ele>55.2</ele>
        <time>2022-02-02T14:54:08Z</time>
      </trkpt>
      <trkpt lat="49.9216" lon="2.19947">
        <ele>55.2</ele>
        <time>2022-02-02T14:54:09Z</time>
      </trkpt>
      <trkpt lat="49.9216" lon="2.19946">
        <ele>55.1</ele>
        <time>2022-02-02T14:54:11Z</time>
      </trkpt>
      <trkpt lat="49.9216" lon="2.19945">
        <ele>55.1</ele>
        <time>2022-02-02T14:54:12Z</time>
      </trkpt>
      <trkpt lat="49.92161" lon="2.19943">
        <ele>55.1</ele>
        <time>2022-02-02T14:54:13Z</time>
      </trkpt>
      <trkpt lat="49.92162" lon="2.19942">
        <ele>55.1</ele>
        <time>2022-02-02T14:54:14Z</time>
      </trkpt>
      <trkpt lat="49.92162" lon="2.1994">
        <ele>55.1</ele>
        <time>2022-02-02T14:54:15Z</time>
      </trkpt>
      <trkpt lat="49.92163" lon="2.19939">
        <ele>55.1</ele>
        <time>2022-02-02T14:54:16Z</time>
      </trkpt>
      <trkpt lat="49.92164" lon="2.19938">
        <ele>55.1</ele>
        <time>2022-02-02T14:54:17Z</time>
      </trkpt>
      <trkpt lat="49.92164" lon="2.19936">
        <ele>55.1</ele>
        <time>2022-02-02T14:54:19Z</time>
      </trkpt>
      <trkpt lat="49.92165" lon="2.19935">
        <ele>55</ele>
        <time>2022-02-02T14:54:20Z</time>
      </trkpt>
      <trkpt lat="49.92165" lon="2.19935">
        <ele>55</ele>
        <time>2022-02-02T14:54:21Z</time>
      </trkpt>
      <trkpt lat="49.92166" lon="2.19934">
        <ele>55</ele>
        <time>2022-02-02T14:54:22Z</time>
      </trkpt>
      <trkpt lat="49.92167" lon="2.19933">
        <ele>55</ele>
        <time>2022-02-02T14:54:23Z</time>
      </trkpt>
      <trkpt lat="49.92167" lon="2.19932">
        <ele>55</ele>
        <time>2022-02-02T14:54:25Z</time>
      </trkpt>
      <trkpt lat="49.92168" lon="2.19931">
        <ele>55</ele>
        <time>2022-02-02T14:54:26Z</time>
      </trkpt>
      <trkpt lat="49.92168" lon="2.19931">
        <ele>55</ele>
        <time>2022-02-02T14:54:27Z</time>
      </trkpt>
      <trkpt lat="49.92169" lon="2.19931">
        <ele>55</ele>
        <time>2022-02-02T14:54:28Z</time>
      </trkpt>
      <trkpt lat="49.92169" lon="2.19932">
        <ele>55</ele>
        <time>2022-02-02T14:54:29Z</time>
      </trkpt>
      <trkpt lat="49.92169" lon="2.19933">
        <ele>55</ele>
        <time>2022-02-02T14:54:30Z</time>
      </trkpt>
      <trkpt lat="49.92169" lon="2.19933">
        <ele>55</ele>
        <time>2022-02-02T14:54:31Z</time>
      </trkpt>
      <trkpt lat="49.92169" lon="2.19934">
        <ele>55</ele>
        <time>2022-02-02T14:54:32Z</time>
      </trkpt>
      <trkpt lat="49.92169" lon="2.19934">
        <ele>55</ele>
        <time>2022-02-02T14:54:33Z</time>
      </trkpt>
      <trkpt lat="49.92169" lon="2.19934">
        <ele>55</ele>
        <time>2022-02-02T14:54:34Z</time>
      </trkpt>
      <trkpt lat="49.92169" lon="2.19934">
        <ele>55</ele>
        <time>2022-02-02T14:54:35Z</time>
      </trkpt>
      <trkpt lat="49.92169" lon="2.19934">
        <ele>55</ele>
        <time>2022-02-02T14:54:36Z</time>
      </trkpt>
      <trkpt lat="49.92169" lon="2.19934">
        <ele>55</ele>
        <time>2022-02-02T14:54:37Z</time>
      </trkpt>
      <trkpt lat="49.92169" lon="2.19934">
        <ele>55</ele>
        <time>2022-02-02T14:54:38Z</time>
      </trkpt>
      <trkpt lat="49.92169" lon="2.19934">
        <ele>55</ele>
        <time>2022-02-02T14:54:39Z</time>
      </trkpt>
      <trkpt lat="49.92169" lon="2.19934">
        <ele>55</ele>
        <time>2022-02-02T14:54:40Z</time>
      </trkpt>
      <trkpt lat="49.92169" lon="2.19934">
        <ele>55</ele>
        <time>2022-02-02T14:54:41Z</time>
      </trkpt>
      <trkpt lat="49.92169" lon="2.19934">
        <ele>55</ele>
        <time>2022-02-02T14:54:42Z</time>
      </trkpt>
      <trkpt lat="49.92169" lon="2.19934">
        <ele>55</ele>
        <time>2022-02-02T14:54:43Z</time>
      </trkpt>
      <trkpt lat="49.92169" lon="2.19934">
        <ele>55</ele>
        <time>2022-02-02T14:54:44Z</time>
      </trkpt>
      <trkpt lat="49.92169" lon="2.19934">
        <ele>55</ele>
        <time>2022-02-02T14:54:45Z</time>
      </trkpt>
      <trkpt lat="49.92169" lon="2.19934">
        <ele>55</ele>
        <time>2022-02-02T14:54:46Z</time>
      </trkpt>
      <trkpt lat="49.92169" lon="2.19934">
        <ele>55</ele>
        <time>2022-02-02T14:54:47Z</time>
      </trkpt>
      <trkpt lat="49.92169" lon="2.19935">
        <ele>55</ele>
        <time>2022-02-02T14:54:48Z</time>
      </trkpt>
      <trkpt lat="49.92169" lon="2.19935">
        <ele>55</ele>
        <time>2022-02-02T14:54:49Z</time>
      </trkpt>
      <trkpt lat="49.92169" lon="2.19935">
        <ele>55</ele>
        <time>2022-02-02T14:54:50Z</time>
      </trkpt>
      <trkpt lat="49.92169" lon="2.19935">
        <ele>55</ele>
        <time>2022-02-02T14:54:51Z</time>
      </trkpt>
      <trkpt lat="49.92169" lon="2.19935">
        <ele>55</ele>
        <time>2022-02-02T14:54:52Z</time>
      </trkpt>
      <trkpt lat="49.92169" lon="2.19935">
        <ele>55</ele>
        <time>2022-02-02T14:54:53Z</time>
      </trkpt>
      <trkpt lat="49.92169" lon="2.19935">
        <ele>55</ele>
        <time>2022-02-02T14:54:54Z</time>
      </trkpt>
      <trkpt lat="49.92169" lon="2.19935">
        <ele>55</ele>
        <time>2022-02-02T14:54:55Z</time>
      </trkpt>
      <trkpt lat="49.92169" lon="2.19935">
        <ele>55</ele>
        <time>2022-02-02T14:54:56Z</time>
      </trkpt>
      <trkpt lat="49.92169" lon="2.19935">
        <ele>55</ele>
        <time>2022-02-02T14:54:57Z</time>
      </trkpt>
      <trkpt lat="49.92169" lon="2.19935">
        <ele>55</ele>
        <time>2022-02-02T14:54:58Z</time>
      </trkpt>
      <trkpt lat="49.92169" lon="2.19935">
        <ele>55</ele>
        <time>2022-02-02T14:54:59Z</time>
      </trkpt>
      <trkpt lat="49.92169" lon="2.19935">
        <ele>55</ele>
        <time>2022-02-02T14:55:00Z</time>
      </trkpt>
      <trkpt lat="49.92169" lon="2.19935">
        <ele>55</ele>
        <time>2022-02-02T14:55:01Z</time>
      </trkpt>
      <trkpt lat="49.92169" lon="2.19935">
        <ele>55</ele>
        <time>2022-02-02T14:55:02Z</time>
      </trkpt>
      <trkpt lat="49.92169" lon="2.19935">
        <ele>55</ele>
        <time>2022-02-02T14:55:03Z</time>
      </trkpt>
      <trkpt lat="49.92169" lon="2.19935">
        <ele>55</ele>
        <time>2022-02-02T14:55:04Z</time>
      </trkpt>
      <trkpt lat="49.92169" lon="2.19935">
        <ele>55</ele>
        <time>2022-02-02T14:55:05Z</time>
      </trkpt>
      <trkpt lat="49.92169" lon="2.19935">
        <ele>55</ele>
        <time>2022-02-02T14:55:06Z</time>
      </trkpt>
      <trkpt lat="49.92169" lon="2.19935">
        <ele>55</ele>
        <time>2022-02-02T14:55:07Z</time>
      </trkpt>
      <trkpt lat="49.92169" lon="2.19935">
        <ele>55</ele>
        <time>2022-02-02T14:55:08Z</time>
      </trkpt>
      <trkpt lat="49.92169" lon="2.19935">
        <ele>55</ele>
        <time>2022-02-02T14:55:09Z</time>
      </trkpt>
      <trkpt lat="49.92169" lon="2.19935">
        <ele>55</ele>
        <time>2022-02-02T14:55:10Z</time>
      </trkpt>
      <trkpt lat="49.92169" lon="2.19935">
        <ele>55</ele>
        <time>2022-02-02T14:55:11Z</time>
      </trkpt>
      <trkpt lat="49.92169" lon="2.19935">
        <ele>55</ele>
        <time>2022-02-02T14:55:12Z</time>
      </trkpt>
      <trkpt lat="49.92169" lon="2.19935">
        <ele>55</ele>
        <time>2022-02-02T14:55:13Z</time>
      </trkpt>
      <trkpt lat="49.92169" lon="2.19935">
        <ele>55</ele>
        <time>2022-02-02T14:55:14Z</time>
      </trkpt>
      <trkpt lat="49.92169" lon="2.19935">
        <ele>55</ele>
        <time>2022-02-02T14:55:15Z</time>
      </trkpt>
      <trkpt lat="49.92169" lon="2.19935">
        <ele>55</ele>
        <time>2022-02-02T14:55:16Z</time>
      </trkpt>
      <trkpt lat="49.92169" lon="2.19935">
        <ele>55</ele>
        <time>2022-02-02T14:55:17Z</time>
      </trkpt>
      <trkpt lat="49.92169" lon="2.19935">
        <ele>55</ele>
        <time>2022-02-02T14:55:18Z</time>
      </trkpt>
      <trkpt lat="49.92169" lon="2.19935">
        <ele>55</ele>
        <time>2022-02-02T14:55:19Z</time>
      </trkpt>
      <trkpt lat="49.92169" lon="2.19935">
        <ele>55</ele>
        <time>2022-02-02T14:55:20Z</time>
      </trkpt>
      <trkpt lat="49.92169" lon="2.19935">
        <ele>55</ele>
        <time>2022-02-02T14:55:21Z</time>
      </trkpt>
      <trkpt lat="49.92169" lon="2.19935">
        <ele>55</ele>
        <time>2022-02-02T14:55:22Z</time>
      </trkpt>
      <trkpt lat="49.92169" lon="2.19935">
        <ele>55</ele>
        <time>2022-02-02T14:55:23Z</time>
      </trkpt>
      <trkpt lat="49.92169" lon="2.19935">
        <ele>55</ele>
        <time>2022-02-02T14:55:24Z</time>
      </trkpt>
      <trkpt lat="49.92169" lon="2.19935">
        <ele>55</ele>
        <time>2022-02-02T14:55:25Z</time>
      </trkpt>
      <trkpt lat="49.92169" lon="2.19935">
        <ele>55</ele>
        <time>2022-02-02T14:55:26Z</time>
      </trkpt>
      <trkpt lat="49.92169" lon="2.19935">
        <ele>55</ele>
        <time>2022-02-02T14:55:27Z</time>
      </trkpt>
      <trkpt lat="49.92169" lon="2.19935">
        <ele>55</ele>
        <time>2022-02-02T14:55:28Z</time>
      </trkpt>
      <trkpt lat="49.92169" lon="2.19935">
        <ele>55</ele>
        <time>2022-02-02T14:55:29Z</time>
      </trkpt>
      <trkpt lat="49.92169" lon="2.19935">
        <ele>55</ele>
        <time>2022-02-02T14:55:30Z</time>
      </trkpt>
      <trkpt lat="49.92169" lon="2.19935">
        <ele>55</ele>
        <time>2022-02-02T14:55:31Z</time>
      </trkpt>
      <trkpt lat="49.92169" lon="2.19935">
        <ele>55</ele>
        <time>2022-02-02T14:55:32Z</time>
      </trkpt>
      <trkpt lat="49.92169" lon="2.19935">
        <ele>55</ele>
        <time>2022-02-02T14:55:33Z</time>
      </trkpt>
      <trkpt lat="49.92169" lon="2.19935">
        <ele>55</ele>
        <time>2022-02-02T14:55:34Z</time>
      </trkpt>
      <trkpt lat="49.92169" lon="2.19935">
        <ele>55</ele>
        <time>2022-02-02T14:55:35Z</time>
      </trkpt>
      <trkpt lat="49.92169" lon="2.19935">
        <ele>55</ele>
        <time>2022-02-02T14:55:36Z</time>
      </trkpt>
      <trkpt lat="49.92169" lon="2.19935">
        <ele>55</ele>
        <time>2022-02-02T14:55:37Z</time>
      </trkpt>
      <trkpt lat="49.92169" lon="2.19935">
        <ele>55</ele>
        <time>2022-02-02T14:55:38Z</time>
      </trkpt>
      <trkpt lat="49.92169" lon="2.19935">
        <ele>55</ele>
        <time>2022-02-02T14:55:39Z</time>
      </trkpt>
      <trkpt lat="49.92169" lon="2.19935">
        <ele>55</ele>
        <time>2022-02-02T14:55:40Z</time>
      </trkpt>
      <trkpt lat="49.92169" lon="2.19935">
        <ele>55</ele>
        <time>2022-02-02T14:55:41Z</time>
      </trkpt>
      <trkpt lat="49.92169" lon="2.19935">
        <ele>55</ele>
        <time>2022-02-02T14:55:42Z</time>
      </trkpt>
      <trkpt lat="49.92169" lon="2.19935">
        <ele>55</ele>
        <time>2022-02-02T14:55:43Z</time>
      </trkpt>
      <trkpt lat="49.92169" lon="2.19935">
        <ele>55</ele>
        <time>2022-02-02T14:55:44Z</time>
      </trkpt>
      <trkpt lat="49.92169" lon="2.19935">
        <ele>55</ele>
        <time>2022-02-02T14:55:45Z</time>
      </trkpt>
      <trkpt lat="49.92169" lon="2.19935">
        <ele>55</ele>
        <time>2022-02-02T14:55:46Z</time>
      </trkpt>
      <trkpt lat="49.92169" lon="2.19935">
        <ele>55</ele>
        <time>2022-02-02T14:55:47Z</time>
      </trkpt>
      <trkpt lat="49.92169" lon="2.19935">
        <ele>55</ele>
        <time>2022-02-02T14:55:48Z</time>
      </trkpt>
      <trkpt lat="49.92169" lon="2.19935">
        <ele>55</ele>
        <time>2022-02-02T14:55:49Z</time>
      </trkpt>
      <trkpt lat="49.92169" lon="2.19935">
        <ele>55</ele>
        <time>2022-02-02T14:55:50Z</time>
      </trkpt>
      <trkpt lat="49.92169" lon="2.19935">
        <ele>55</ele>
        <time>2022-02-02T14:55:51Z</time>
      </trkpt>
      <trkpt lat="49.92169" lon="2.19935">
        <ele>55</ele>
        <time>2022-02-02T14:55:52Z</time>
      </trkpt>
      <trkpt lat="49.92169" lon="2.19935">
        <ele>55</ele>
        <time>2022-02-02T14:55:53Z</time>
      </trkpt>
      <trkpt lat="49.92169" lon="2.19935">
        <ele>55</ele>
        <time>2022-02-02T14:55:54Z</time>
      </trkpt>
      <trkpt lat="49.92169" lon="2.19935">
        <ele>55</ele>
        <time>2022-02-02T14:55:55Z</time>
      </trkpt>
      <trkpt lat="49.92169" lon="2.19935">
        <ele>55</ele>
        <time>2022-02-02T14:55:56Z</time>
      </trkpt>
      <trkpt lat="49.92169" lon="2.19935">
        <ele>55</ele>
        <time>2022-02-02T14:55:57Z</time>
      </trkpt>
      <trkpt lat="49.92169" lon="2.19935">
        <ele>55</ele>
        <time>2022-02-02T14:55:58Z</time>
      </trkpt>
      <trkpt lat="49.92169" lon="2.19935">
        <ele>55</ele>
        <time>2022-02-02T14:55:59Z</time>
      </trkpt>
      <trkpt lat="49.92169" lon="2.19935">
        <ele>55</ele>
        <time>2022-02-02T14:56:00Z</time>
      </trkpt>
      <trkpt lat="49.92169" lon="2.19935">
        <ele>55</ele>
        <time>2022-02-02T14:56:01Z</time>
      </trkpt>
      <trkpt lat="49.92169" lon="2.19935">
        <ele>55</ele>
        <time>2022-02-02T14:56:02Z</time>
      </trkpt>
      <trkpt lat="49.92169" lon="2.19935">
        <ele>55</ele>
        <time>2022-02-02T14:56:03Z</time>
      </trkpt>
      <trkpt lat="49.92169" lon="2.19935">
        <ele>55</ele>
        <time>2022-02-02T14:56:04Z</time>
      </trkpt>
      <trkpt lat="49.92169" lon="2.19935">
        <ele>55</ele>
        <time>2022-02-02T14:56:05Z</time>
      </trkpt>
      <trkpt lat="49.92169" lon="2.19935">
        <ele>55</ele>
        <time>2022-02-02T14:56:06Z</time>
      </trkpt>
      <trkpt lat="49.92169" lon="2.19935">
        <ele>55</ele>
        <time>2022-02-02T14:56:07Z</time>
      </trkpt>
      <trkpt lat="49.92169" lon="2.19935">
        <ele>55</ele>
        <time>2022-02-02T14:56:08Z</time>
      </trkpt>
      <trkpt lat="49.92169" lon="2.19935">
        <ele>55</ele>
        <time>2022-02-02T14:56:09Z</time>
      </trkpt>
      <trkpt lat="49.92169" lon="2.19935">
        <ele>55</ele>
        <time>2022-02-02T14:56:10Z</time>
      </trkpt>
      <trkpt lat="49.92169" lon="2.19935">
        <ele>55</ele>
        <time>2022-02-02T14:56:11Z</time>
      </trkpt>
      <trkpt lat="49.92169" lon="2.19935">
        <ele>55</ele>
        <time>2022-02-02T14:56:12Z</time>
      </trkpt>
      <trkpt lat="49.92169" lon="2.19935">
        <ele>55</ele>
        <time>2022-02-02T14:56:13Z</time>
      </trkpt>
      <trkpt lat="49.92169" lon="2.19935">
        <ele>55</ele>
        <time>2022-02-02T14:56:14Z</time>
      </trkpt>
      <trkpt lat="49.92169" lon="2.19935">
        <ele>55</ele>
        <time>2022-02-02T14:56:15Z</time>
      </trkpt>
      <trkpt lat="49.92169" lon="2.19935">
        <ele>55</ele>
        <time>2022-02-02T14:56:16Z</time>
      </trkpt>
      <trkpt lat="49.92169" lon="2.19935">
        <ele>55</ele>
        <time>2022-02-02T14:56:17Z</time>
      </trkpt>
      <trkpt lat="49.92169" lon="2.19935">
        <ele>55</ele>
        <time>2022-02-02T14:56:18Z</time>
      </trkpt>
      <trkpt lat="49.92169" lon="2.19935">
        <ele>55</ele>
        <time>2022-02-02T14:56:19Z</time>
      </trkpt>
      <trkpt lat="49.92169" lon="2.19935">
        <ele>55</ele>
        <time>2022-02-02T14:56:20Z</time>
      </trkpt>
      <trkpt lat="49.92169" lon="2.19935">
        <ele>55</ele>
        <time>2022-02-02T14:56:21Z</time>
      </trkpt>
      <trkpt lat="49.92169" lon="2.19935">
        <ele>55</ele>
        <time>2022-02-02T14:56:22Z</time>
      </trkpt>
      <trkpt lat="49.92169" lon="2.19935">
        <ele>55</ele>
        <time>2022-02-02T14:56:23Z</time>
      </trkpt>
      <trkpt lat="49.92169" lon="2.19935">
        <ele>55</ele>
        <time>2022-02-02T14:56:24Z</time>
      </trkpt>
      <trkpt lat="49.92169" lon="2.19935">
        <ele>55</ele>
        <time>2022-02-02T14:56:25Z</time>
      </trkpt>
      <trkpt lat="49.92169" lon="2.19935">
        <ele>55</ele>
        <time>2022-02-02T14:56:26Z</time>
      </trkpt>
      <trkpt lat="49.92169" lon="2.19935">
        <ele>55</ele>
        <time>2022-02-02T14:56:27Z</time>
      </trkpt>
      <trkpt lat="49.92169" lon="2.19935">
        <ele>55</ele>
        <time>2022-02-02T14:56:28Z</time>
      </trkpt>
      <trkpt lat="49.92169" lon="2.19935">
        <ele>55</ele>
        <time>2022-02-02T14:56:29Z</time>
      </trkpt>
      <trkpt lat="49.92169" lon="2.19935">
        <ele>55</ele>
        <time>2022-02-02T14:56:30Z</time>
      </trkpt>
      <trkpt lat="49.92169" lon="2.19935">
        <ele>55</ele>
        <time>2022-02-02T14:56:31Z</time>
      </trkpt>
      <trkpt lat="49.92169" lon="2.19935">
        <ele>55</ele>
        <time>2022-02-02T14:56:32Z</time>
      </trkpt>
      <trkpt lat="49.92169" lon="2.19935">
        <ele>55</ele>
        <time>2022-02-02T14:56:33Z</time>
      </trkpt>
      <trkpt lat="49.92169" lon="2.19935">
        <ele>55</ele>
        <time>2022-02-02T14:56:34Z</time>
      </trkpt>
      <trkpt lat="49.92169" lon="2.19935">
        <ele>55</ele>
        <time>2022-02-02T14:56:35Z</time>
      </trkpt>
      <trkpt lat="49.92169" lon="2.19935">
        <ele>55</ele>
        <time>2022-02-02T14:56:36Z</time>
      </trkpt>
      <trkpt lat="49.92169" lon="2.19935">
        <ele>55</ele>
        <time>2022-02-02T14:56:37Z</time>
      </trkpt>
      <trkpt lat="49.92169" lon="2.19935">
        <ele>55</ele>
        <time>2022-02-02T14:56:38Z</time>
      </trkpt>
      <trkpt lat="49.92169" lon="2.19935">
        <ele>55</ele>
        <time>2022-02-02T14:56:39Z</time>
      </trkpt>
      <trkpt lat="49.92169" lon="2.19935">
        <ele>55</ele>
        <time>2022-02-02T14:56:40Z</time>
      </trkpt>
      <trkpt lat="49.92169" lon="2.19935">
        <ele>55</ele>
        <time>2022-02-02T14:56:41Z</time>
      </trkpt>
      <trkpt lat="49.92169" lon="2.19935">
        <ele>55</ele>
        <time>2022-02-02T14:56:42Z</time>
      </trkpt>
      <trkpt lat="49.92169" lon="2.19935">
        <ele>55</ele>
        <time>2022-02-02T14:56:43Z</time>
      </trkpt>
      <trkpt lat="49.92169" lon="2.19935">
        <ele>55</ele>
        <time>2022-02-02T14:56:44Z</time>
      </trkpt>
      <trkpt lat="49.92169" lon="2.19935">
        <ele>55</ele>
        <time>2022-02-02T14:56:45Z</time>
      </trkpt>
      <trkpt lat="49.92169" lon="2.19935">
        <ele>55</ele>
        <time>2022-02-02T14:56:46Z</time>
      </trkpt>
      <trkpt lat="49.92169" lon="2.19935">
        <ele>55</ele>
        <time>2022-02-02T14:56:47Z</time>
      </trkpt>
      <trkpt lat="49.92169" lon="2.19935">
        <ele>55</ele>
        <time>2022-02-02T14:56:48Z</time>
      </trkpt>
      <trkpt lat="49.92169" lon="2.19935">
        <ele>55</ele>
        <time>2022-02-02T14:56:49Z</time>
      </trkpt>
      <trkpt lat="49.92169" lon="2.19935">
        <ele>55</ele>
        <time>2022-02-02T14:56:50Z</time>
      </trkpt>
      <trkpt lat="49.92169" lon="2.19935">
        <ele>55</ele>
        <time>2022-02-02T14:56:51Z</time>
      </trkpt>
      <trkpt lat="49.92169" lon="2.19935">
        <ele>55</ele>
        <time>2022-02-02T14:56:52Z</time>
      </trkpt>
      <trkpt lat="49.92169" lon="2.19935">
        <ele>55</ele>
        <time>2022-02-02T14:56:53Z</time>
      </trkpt>
      <trkpt lat="49.92169" lon="2.19935">
        <ele>55</ele>
        <time>2022-02-02T14:56:54Z</time>
      </trkpt>
      <trkpt lat="49.92169" lon="2.19935">
        <ele>55</ele>
        <time>2022-02-02T14:56:55Z</time>
      </trkpt>
      <trkpt lat="49.92169" lon="2.19935">
        <ele>55</ele>
        <time>2022-02-02T14:56:56Z</time>
      </trkpt>
      <trkpt lat="49.92169" lon="2.19935">
        <ele>55</ele>
        <time>2022-02-02T14:56:57Z</time>
      </trkpt>
      <trkpt lat="49.92169" lon="2.19935">
        <ele>55</ele>
        <time>2022-02-02T14:56:58Z</time>
      </trkpt>
      <trkpt lat="49.92169" lon="2.19935">
        <ele>55</ele>
        <time>2022-02-02T14:56:59Z</time>
      </trkpt>
      <trkpt lat="49.92169" lon="2.19935">
        <ele>55</ele>
        <time>2022-02-02T14:57:00Z</time>
      </trkpt>
      <trkpt lat="49.92169" lon="2.19935">
        <ele>55</ele>
        <time>2022-02-02T14:57:01Z</time>
      </trkpt>
      <trkpt lat="49.92169" lon="2.19935">
        <ele>55</ele>
        <time>2022-02-02T14:57:02Z</time>
      </trkpt>
      <trkpt lat="49.92169" lon="2.19935">
        <ele>55</ele>
        <time>2022-02-02T14:57:03Z</time>
      </trkpt>
      <trkpt lat="49.92169" lon="2.19935">
        <ele>55</ele>
        <time>2022-02-02T14:57:04Z</time>
      </trkpt>
      <trkpt lat="49.92169" lon="2.19935">
        <ele>55</ele>
        <time>2022-02-02T14:57:05Z</time>
      </trkpt>
      <trkpt lat="49.92169" lon="2.19935">
        <ele>55</ele>
        <time>2022-02-02T14:57:06Z</time>
      </trkpt>
      <trkpt lat="49.92169" lon="2.19935">
        <ele>55</ele>
        <time>2022-02-02T14:57:07Z</time>
      </trkpt>
      <trkpt lat="49.92169" lon="2.19935">
        <ele>55</ele>
        <time>2022-02-02T14:57:08Z</time>
      </trkpt>
      <trkpt lat="49.92169" lon="2.19935">
        <ele>55</ele>
        <time>2022-02-02T14:57:09Z</time>
      </trkpt>
      <trkpt lat="49.92169" lon="2.19935">
        <ele>55</ele>
        <time>2022-02-02T14:57:10Z</time>
      </trkpt>
      <trkpt lat="49.92169" lon="2.19935">
        <ele>55</ele>
        <time>2022-02-02T14:57:11Z</time>
      </trkpt>
      <trkpt lat="49.92169" lon="2.19935">
        <ele>55</ele>
        <time>2022-02-02T14:57:12Z</time>
      </trkpt>
      <trkpt lat="49.92169" lon="2.19935">
        <ele>55</ele>
        <time>2022-02-02T14:57:13Z</time>
      </trkpt>
      <trkpt lat="49.92169" lon="2.19935">
        <ele>55</ele>
        <time>2022-02-02T14:57:14Z</time>
      </trkpt>
      <trkpt lat="49.92169" lon="2.19935">
        <ele>55</ele>
        <time>2022-02-02T14:57:15Z</time>
      </trkpt>
      <trkpt lat="49.92169" lon="2.19935">
        <ele>55</ele>
        <time>2022-02-02T14:57:16Z</time>
      </trkpt>
      <trkpt lat="49.92169" lon="2.19935">
        <ele>55</ele>
        <time>2022-02-02T14:57:17Z</time>
      </trkpt>
      <trkpt lat="49.92169" lon="2.19935">
        <ele>55</ele>
        <time>2022-02-02T14:57:18Z</time>
      </trkpt>
      <trkpt lat="49.92169" lon="2.19935">
        <ele>55</ele>
        <time>2022-02-02T14:57:19Z</time>
      </trkpt>
      <trkpt lat="49.92169" lon="2.19935">
        <ele>55</ele>
        <time>2022-02-02T14:57:20Z</time>
      </trkpt>
      <trkpt lat="49.92169" lon="2.19935">
        <ele>55</ele>
        <time>2022-02-02T14:57:21Z</time>
      </trkpt>
      <trkpt lat="49.92169" lon="2.19935">
        <ele>55</ele>
        <time>2022-02-02T14:57:22Z</time>
      </trkpt>
      <trkpt lat="49.92169" lon="2.19935">
        <ele>55</ele>
        <time>2022-02-02T14:57:23Z</time>
      </trkpt>
      <trkpt lat="49.92169" lon="2.19935">
        <ele>55</ele>
        <time>2022-02-02T14:57:24Z</time>
      </trkpt>
      <trkpt lat="49.92169" lon="2.19935">
        <ele>55</ele>
        <time>2022-02-02T14:57:25Z</time>
      </trkpt>
      <trkpt lat="49.92169" lon="2.19935">
        <ele>55</ele>
        <time>2022-02-02T14:57:26Z</time>
      </trkpt>
      <trkpt lat="49.92169" lon="2.19935">
        <ele>55</ele>
        <time>2022-02-02T14:57:27Z</time>
      </trkpt>
      <trkpt lat="49.92169" lon="2.19935">
        <ele>55</ele>
        <time>2022-02-02T14:57:28Z</time>
      </trkpt>
      <trkpt lat="49.92169" lon="2.19935">
        <ele>55</ele>
        <time>2022-02-02T14:57:29Z</time>
      </trkpt>
      <trkpt lat="49.92169" lon="2.19935">
        <ele>55</ele>
        <time>2022-02-02T14:57:30Z</time>
      </trkpt>
      <trkpt lat="49.92169" lon="2.19935">
        <ele>55</ele>
        <time>2022-02-02T14:57:31Z</time>
      </trkpt>
      <trkpt lat="49.92169" lon="2.19935">
        <ele>55</ele>
        <time>2022-02-02T14:57:32Z</time>
      </trkpt>
      <trkpt lat="49.92169" lon="2.19935">
        <ele>55</ele>
        <time>2022-02-02T14:57:33Z</time>
      </trkpt>
      <trkpt lat="49.92169" lon="2.19935">
        <ele>55</ele>
        <time>2022-02-02T14:57:34Z</time>
      </trkpt>
      <trkpt lat="49.92169" lon="2.19935">
        <ele>55</ele>
        <time>2022-02-02T14:57:35Z</time>
      </trkpt>
      <trkpt lat="49.92169" lon="2.19935">
        <ele>55</ele>
        <time>2022-02-02T14:57:36Z</time>
      </trkpt>
      <trkpt lat="49.92169" lon="2.19935">
        <ele>55</ele>
        <time>2022-02-02T14:57:37Z</time>
      </trkpt>
      <trkpt lat="49.92169" lon="2.19935">
        <ele>55</ele>
        <time>2022-02-02T14:57:38Z</time>
      </trkpt>
      <trkpt lat="49.92169" lon="2.19935">
        <ele>55</ele>
        <time>2022-02-02T14:57:39Z</time>
      </trkpt>
      <trkpt lat="49.92169" lon="2.19935">
        <ele>55</ele>
        <time>2022-02-02T14:57:40Z</time>
      </trkpt>
      <trkpt lat="49.92169" lon="2.19935">
        <ele>55</ele>
        <time>2022-02-02T14:57:41Z</time>
      </trkpt>
      <trkpt lat="49.92169" lon="2.19935">
        <ele>55</ele>
        <time>2022-02-02T14:57:42Z</time>
      </trkpt>
      <trkpt lat="49.92169" lon="2.19935">
        <ele>55</ele>
        <time>2022-02-02T14:57:43Z</time>
      </trkpt>
      <trkpt lat="49.92169" lon="2.19935">
        <ele>55</ele>
        <time>2022-02-02T14:57:44Z</time>
      </trkpt>
      <trkpt lat="49.92169" lon="2.19935">
        <ele>55</ele>
        <time>2022-02-02T14:57:45Z</time>
      </trkpt>
      <trkpt lat="49.92169" lon="2.19935">
        <ele>55</ele>
        <time>2022-02-02T14:57:46Z</time>
      </trkpt>
      <trkpt lat="49.92169" lon="2.19935">
        <ele>55</ele>
        <time>2022-02-02T14:57:47Z</time>
      </trkpt>
      <trkpt lat="49.92169" lon="2.19935">
        <ele>55</ele>
        <time>2022-02-02T14:57:48Z</time>
      </trkpt>
      <trkpt lat="49.92169" lon="2.19935">
        <ele>55</ele>
        <time>2022-02-02T14:57:49Z</time>
      </trkpt>
      <trkpt lat="49.92169" lon="2.19935">
        <ele>55</ele>
        <time>2022-02-02T14:57:50Z</time>
      </trkpt>
      <trkpt lat="49.92169" lon="2.19935">
        <ele>55</ele>
        <time>2022-02-02T14:57:51Z</time>
      </trkpt>
      <trkpt lat="49.92169" lon="2.19935">
        <ele>55</ele>
        <time>2022-02-02T14:57:52Z</time>
      </trkpt>
      <trkpt lat="49.92169" lon="2.19935">
        <ele>55</ele>
        <time>2022-02-02T14:57:53Z</time>
      </trkpt>
      <trkpt lat="49.92169" lon="2.19935">
        <ele>55</ele>
        <time>2022-02-02T14:57:54Z</time>
      </trkpt>
      <trkpt lat="49.92169" lon="2.19935">
        <ele>55</ele>
        <time>2022-02-02T14:57:55Z</time>
      </trkpt>
      <trkpt lat="49.92169" lon="2.19935">
        <ele>55</ele>
        <time>2022-02-02T14:57:56Z</time>
      </trkpt>
      <trkpt lat="49.92169" lon="2.19935">
        <ele>55</ele>
        <time>2022-02-02T14:57:57Z</time>
      </trkpt>
      <trkpt lat="49.92169" lon="2.19935">
        <ele>55</ele>
        <time>2022-02-02T14:57:58Z</time>
      </trkpt>
      <trkpt lat="49.92169" lon="2.19935">
        <ele>55</ele>
        <time>2022-02-02T14:57:59Z</time>
      </trkpt>
      <trkpt lat="49.92169" lon="2.19935">
        <ele>55</ele>
        <time>2022-02-02T14:58:00Z</time>
      </trkpt>
      <trkpt lat="49.92169" lon="2.19935">
        <ele>55</ele>
        <time>2022-02-02T14:58:01Z</time>
      </trkpt>
      <trkpt lat="49.92169" lon="2.19935">
        <ele>55</ele>
        <time>2022-02-02T14:58:02Z</time>
      </trkpt>
      <trkpt lat="49.92169" lon="2.19935">
        <ele>55</ele>
        <time>2022-02-02T14:58:03Z</time>
      </trkpt>
      <trkpt lat="49.92169" lon="2.19935">
        <ele>55</ele>
        <time>2022-02-02T14:58:04Z</time>
      </trkpt>
      <trkpt lat="49.92169" lon="2.19935">
        <ele>55</ele>
        <time>2022-02-02T14:58:05Z</time>
      </trkpt>
      <trkpt lat="49.92169" lon="2.19935">
        <ele>55</ele>
        <time>2022-02-02T14:58:06Z</time>
      </trkpt>
      <trkpt lat="49.92167" lon="2.19935">
        <ele>55</ele>
        <time>2022-02-02T14:58:07Z</time>
      </trkpt>
      <trkpt lat="49.92166" lon="2.19936">
        <ele>55</ele>
        <time>2022-02-02T14:58:08Z</time>
      </trkpt>
      <trkpt lat="49.92166" lon="2.19936">
        <ele>55</ele>
        <time>2022-02-02T14:58:09Z</time>
      </trkpt>
      <trkpt lat="49.92166" lon="2.19936">
        <ele>55</ele>
        <time>2022-02-02T14:58:10Z</time>
      </trkpt>
      <trkpt lat="49.92167" lon="2.19937">
        <ele>55</ele>
        <time>2022-02-02T14:58:11Z</time>
      </trkpt>
      <trkpt lat="49.92167" lon="2.19936">
        <ele>55</ele>
        <time>2022-02-02T14:58:12Z</time>
      </trkpt>
      <trkpt lat="49.92168" lon="2.19936">
        <ele>55</ele>
        <time>2022-02-02T14:58:13Z</time>
      </trkpt>
      <trkpt lat="49.92169" lon="2.19936">
        <ele>55</ele>
        <time>2022-02-02T14:58:14Z</time>
      </trkpt>
      <trkpt lat="49.9217" lon="2.19936">
        <ele>55</ele>
        <time>2022-02-02T14:58:15Z</time>
      </trkpt>
      <trkpt lat="49.9217" lon="2.19935">
        <ele>55</ele>
        <time>2022-02-02T14:58:17Z</time>
      </trkpt>
      <trkpt lat="49.92171" lon="2.19935">
        <ele>55</ele>
        <time>2022-02-02T14:58:18Z</time>
      </trkpt>
      <trkpt lat="49.92171" lon="2.19934">
        <ele>54.8</ele>
        <time>2022-02-02T14:58:19Z</time>
      </trkpt>
      <trkpt lat="49.92172" lon="2.19934">
        <ele>54.8</ele>
        <time>2022-02-02T14:58:20Z</time>
      </trkpt>
      <trkpt lat="49.92173" lon="2.19933">
        <ele>54.8</ele>
        <time>2022-02-02T14:58:21Z</time>
      </trkpt>
      <trkpt lat="49.92174" lon="2.19932">
        <ele>54.7</ele>
        <time>2022-02-02T14:58:22Z</time>
      </trkpt>
      <trkpt lat="49.92175" lon="2.19931">
        <ele>54.7</ele>
        <time>2022-02-02T14:58:23Z</time>
      </trkpt>
      <trkpt lat="49.92175" lon="2.1993">
        <ele>54.7</ele>
        <time>2022-02-02T14:58:24Z</time>
      </trkpt>
      <trkpt lat="49.92176" lon="2.19928">
        <ele>54.6</ele>
        <time>2022-02-02T14:58:25Z</time>
      </trkpt>
      <trkpt lat="49.92177" lon="2.19927">
        <ele>54.5</ele>
        <time>2022-02-02T14:58:26Z</time>
      </trkpt>
      <trkpt lat="49.92178" lon="2.19924">
        <ele>54.4</ele>
        <time>2022-02-02T14:58:27Z</time>
      </trkpt>
      <trkpt lat="49.92179" lon="2.19924">
        <ele>54.4</ele>
        <time>2022-02-02T14:58:28Z</time>
      </trkpt>
      <trkpt lat="49.92179" lon="2.19923">
        <ele>54.4</ele>
        <time>2022-02-02T14:58:29Z</time>
      </trkpt>
      <trkpt lat="49.92181" lon="2.19921">
        <ele>54.2</ele>
        <time>2022-02-02T14:58:30Z</time>
      </trkpt>
      <trkpt lat="49.92182" lon="2.1992">
        <ele>54.2</ele>
        <time>2022-02-02T14:58:32Z</time>
      </trkpt>
      <trkpt lat="49.92183" lon="2.1992">
        <ele>54.2</ele>
        <time>2022-02-02T14:58:33Z</time>
      </trkpt>
      <trkpt lat="49.92185" lon="2.19919">
        <ele>54</ele>
        <time>2022-02-02T14:58:34Z</time>
      </trkpt>
      <trkpt lat="49.92186" lon="2.19918">
        <ele>54</ele>
        <time>2022-02-02T14:58:35Z</time>
      </trkpt>
      <trkpt lat="49.92187" lon="2.19918">
        <ele>54</ele>
        <time>2022-02-02T14:58:36Z</time>
      </trkpt>
      <trkpt lat="49.92188" lon="2.19917">
        <ele>53.9</ele>
        <time>2022-02-02T14:58:37Z</time>
      </trkpt>
      <trkpt lat="49.92189" lon="2.19916">
        <ele>53.8</ele>
        <time>2022-02-02T14:58:38Z</time>
      </trkpt>
      <trkpt lat="49.92191" lon="2.19915">
        <ele>53.7</ele>
        <time>2022-02-02T14:58:40Z</time>
      </trkpt>
      <trkpt lat="49.92192" lon="2.19915">
        <ele>53.6</ele>
        <time>2022-02-02T14:58:41Z</time>
      </trkpt>
      <trkpt lat="49.92193" lon="2.19914">
        <ele>53.6</ele>
        <time>2022-02-02T14:58:42Z</time>
      </trkpt>
      <trkpt lat="49.92194" lon="2.19914">
        <ele>53.5</ele>
        <time>2022-02-02T14:58:43Z</time>
      </trkpt>
      <trkpt lat="49.92195" lon="2.19914">
        <ele>53.4</ele>
        <time>2022-02-02T14:58:44Z</time>
      </trkpt>
      <trkpt lat="49.92196" lon="2.19913">
        <ele>53.4</ele>
        <time>2022-02-02T14:58:45Z</time>
      </trkpt>
      <trkpt lat="49.92198" lon="2.19913">
        <ele>53.3</ele>
        <time>2022-02-02T14:58:46Z</time>
      </trkpt>
      <trkpt lat="49.92199" lon="2.19914">
        <ele>53.3</ele>
        <time>2022-02-02T14:58:48Z</time>
      </trkpt>
      <trkpt lat="49.922" lon="2.19914">
        <ele>53.3</ele>
        <time>2022-02-02T14:58:49Z</time>
      </trkpt>
      <trkpt lat="49.922" lon="2.19915">
        <ele>53.2</ele>
        <time>2022-02-02T14:58:50Z</time>
      </trkpt>
      <trkpt lat="49.92201" lon="2.19916">
        <ele>53.2</ele>
        <time>2022-02-02T14:58:51Z</time>
      </trkpt>
      <trkpt lat="49.92202" lon="2.19918">
        <ele>53.1</ele>
        <time>2022-02-02T14:58:53Z</time>
      </trkpt>
      <trkpt lat="49.92202" lon="2.19919">
        <ele>53.1</ele>
        <time>2022-02-02T14:58:54Z</time>
      </trkpt>
      <trkpt lat="49.92202" lon="2.19919">
        <ele>53.1</ele>
        <time>2022-02-02T14:58:55Z</time>
      </trkpt>
      <trkpt lat="49.92201" lon="2.1992">
        <ele>53.1</ele>
        <time>2022-02-02T14:58:56Z</time>
      </trkpt>
      <trkpt lat="49.92201" lon="2.19919">
        <ele>53.1</ele>
        <time>2022-02-02T14:58:57Z</time>
      </trkpt>
      <trkpt lat="49.92201" lon="2.19919">
        <ele>53</ele>
        <time>2022-02-02T14:58:58Z</time>
      </trkpt>
      <trkpt lat="49.92201" lon="2.19919">
        <ele>53</ele>
        <time>2022-02-02T14:58:59Z</time>
      </trkpt>
      <trkpt lat="49.92202" lon="2.19918">
        <ele>53</ele>
        <time>2022-02-02T14:59:00Z</time>
      </trkpt>
      <trkpt lat="49.92203" lon="2.19917">
        <ele>53</ele>
        <time>2022-02-02T14:59:02Z</time>
      </trkpt>
      <trkpt lat="49.92204" lon="2.19916">
        <ele>52.9</ele>
        <time>2022-02-02T14:59:03Z</time>
      </trkpt>
      <trkpt lat="49.92205" lon="2.19915">
        <ele>52.9</ele>
        <time>2022-02-02T14:59:04Z</time>
      </trkpt>
      <trkpt lat="49.92207" lon="2.19913">
        <ele>52.7</ele>
        <time>2022-02-02T14:59:05Z</time>
      </trkpt>
      <trkpt lat="49.92208" lon="2.19912">
        <ele>52.7</ele>
        <time>2022-02-02T14:59:06Z</time>
      </trkpt>
      <trkpt lat="49.9221" lon="2.19911">
        <ele>52.6</ele>
        <time>2022-02-02T14:59:07Z</time>
      </trkpt>
      <trkpt lat="49.92211" lon="2.1991">
        <ele>52.6</ele>
        <time>2022-02-02T14:59:08Z</time>
      </trkpt>
      <trkpt lat="49.92213" lon="2.19909">
        <ele>52.5</ele>
        <time>2022-02-02T14:59:10Z</time>
      </trkpt>
      <trkpt lat="49.92214" lon="2.19908">
        <ele>52.5</ele>
        <time>2022-02-02T14:59:11Z</time>
      </trkpt>
      <trkpt lat="49.92215" lon="2.19907">
        <ele>52.4</ele>
        <time>2022-02-02T14:59:12Z</time>
      </trkpt>
      <trkpt lat="49.92217" lon="2.19907">
        <ele>52.4</ele>
        <time>2022-02-02T14:59:13Z</time>
      </trkpt>
      <trkpt lat="49.92218" lon="2.19907">
        <ele>52.3</ele>
        <time>2022-02-02T14:59:14Z</time>
      </trkpt>
      <trkpt lat="49.9222" lon="2.19908">
        <ele>52.2</ele>
        <time>2022-02-02T14:59:15Z</time>
      </trkpt>
      <trkpt lat="49.92222" lon="2.19908">
        <ele>52.1</ele>
        <time>2022-02-02T14:59:16Z</time>
      </trkpt>
      <trkpt lat="49.92223" lon="2.19909">
        <ele>52.1</ele>
        <time>2022-02-02T14:59:17Z</time>
      </trkpt>
      <trkpt lat="49.92223" lon="2.19909">
        <ele>52.1</ele>
        <time>2022-02-02T14:59:18Z</time>
      </trkpt>
      <trkpt lat="49.92225" lon="2.1991">
        <ele>52</ele>
        <time>2022-02-02T14:59:20Z</time>
      </trkpt>
      <trkpt lat="49.92226" lon="2.1991">
        <ele>51.9</ele>
        <time>2022-02-02T14:59:21Z</time>
      </trkpt>
      <trkpt lat="49.92227" lon="2.1991">
        <ele>51.9</ele>
        <time>2022-02-02T14:59:22Z</time>
      </trkpt>
      <trkpt lat="49.92229" lon="2.19911">
        <ele>51.8</ele>
        <time>2022-02-02T14:59:23Z</time>
      </trkpt>
      <trkpt lat="49.9223" lon="2.19912">
        <ele>51.8</ele>
        <time>2022-02-02T14:59:24Z</time>
      </trkpt>
      <trkpt lat="49.92231" lon="2.19913">
        <ele>51.7</ele>
        <time>2022-02-02T14:59:25Z</time>
      </trkpt>
      <trkpt lat="49.92232" lon="2.19913">
        <ele>51.7</ele>
        <time>2022-02-02T14:59:26Z</time>
      </trkpt>
      <trkpt lat="49.92233" lon="2.19914">
        <ele>51.6</ele>
        <time>2022-02-02T14:59:27Z</time>
      </trkpt>
      <trkpt lat="49.92235" lon="2.19915">
        <ele>51.5</ele>
        <time>2022-02-02T14:59:29Z</time>
      </trkpt>
      <trkpt lat="49.92236" lon="2.19916">
        <ele>51.5</ele>
        <time>2022-02-02T14:59:30Z</time>
      </trkpt>
      <trkpt lat="49.92237" lon="2.19916">
        <ele>51.4</ele>
        <time>2022-02-02T14:59:31Z</time>
      </trkpt>
      <trkpt lat="49.92239" lon="2.19917">
        <ele>51.3</ele>
        <time>2022-02-02T14:59:32Z</time>
      </trkpt>
      <trkpt lat="49.9224" lon="2.19918">
        <ele>51.3</ele>
        <time>2022-02-02T14:59:33Z</time>
      </trkpt>
      <trkpt lat="49.92241" lon="2.19918">
        <ele>51.3</ele>
        <time>2022-02-02T14:59:34Z</time>
      </trkpt>
      <trkpt lat="49.92243" lon="2.19919">
        <ele>51.2</ele>
        <time>2022-02-02T14:59:35Z</time>
      </trkpt>
      <trkpt lat="49.92244" lon="2.19919">
        <ele>51.1</ele>
        <time>2022-02-02T14:59:36Z</time>
      </trkpt>
      <trkpt lat="49.92245" lon="2.19919">
        <ele>51.1</ele>
        <time>2022-02-02T14:59:37Z</time>
      </trkpt>
      <trkpt lat="49.92247" lon="2.1992">
        <ele>51</ele>
        <time>2022-02-02T14:59:39Z</time>
      </trkpt>
      <trkpt lat="49.92247" lon="2.19921">
        <ele>51</ele>
        <time>2022-02-02T14:59:40Z</time>
      </trkpt>
      <trkpt lat="49.92248" lon="2.19921">
        <ele>50.9</ele>
        <time>2022-02-02T14:59:41Z</time>
      </trkpt>
      <trkpt lat="49.92251" lon="2.19922">
        <ele>50.8</ele>
        <time>2022-02-02T14:59:42Z</time>
      </trkpt>
      <trkpt lat="49.92251" lon="2.19922">
        <ele>50.8</ele>
        <time>2022-02-02T14:59:43Z</time>
      </trkpt>
      <trkpt lat="49.92252" lon="2.19922">
        <ele>50.7</ele>
        <time>2022-02-02T14:59:44Z</time>
      </trkpt>
      <trkpt lat="49.92254" lon="2.19923">
        <ele>50.6</ele>
        <time>2022-02-02T14:59:45Z</time>
      </trkpt>
      <trkpt lat="49.92255" lon="2.19923">
        <ele>50.6</ele>
        <time>2022-02-02T14:59:46Z</time>
      </trkpt>
      <trkpt lat="49.92256" lon="2.19923">
        <ele>50.6</ele>
        <time>2022-02-02T14:59:47Z</time>
      </trkpt>
      <trkpt lat="49.92257" lon="2.19924">
        <ele>50.5</ele>
        <time>2022-02-02T14:59:48Z</time>
      </trkpt>
      <trkpt lat="49.92258" lon="2.19924">
        <ele>50.5</ele>
        <time>2022-02-02T14:59:50Z</time>
      </trkpt>
      <trkpt lat="49.92259" lon="2.19924">
        <ele>50.4</ele>
        <time>2022-02-02T14:59:51Z</time>
      </trkpt>
      <trkpt lat="49.92262" lon="2.19925">
        <ele>50.3</ele>
        <time>2022-02-02T14:59:52Z</time>
      </trkpt>
      <trkpt lat="49.92262" lon="2.19926">
        <ele>50.3</ele>
        <time>2022-02-02T14:59:53Z</time>
      </trkpt>
      <trkpt lat="49.92263" lon="2.19927">
        <ele>50.2</ele>
        <time>2022-02-02T14:59:54Z</time>
      </trkpt>
      <trkpt lat="49.92265" lon="2.19928">
        <ele>50.1</ele>
        <time>2022-02-02T14:59:55Z</time>
      </trkpt>
      <trkpt lat="49.92266" lon="2.19929">
        <ele>50.1</ele>
        <time>2022-02-02T14:59:56Z</time>
      </trkpt>
      <trkpt lat="49.92267" lon="2.19929">
        <ele>50.1</ele>
        <time>2022-02-02T14:59:57Z</time>
      </trkpt>
      <trkpt lat="49.92268" lon="2.1993">
        <ele>50</ele>
        <time>2022-02-02T14:59:58Z</time>
      </trkpt>
      <trkpt lat="49.92269" lon="2.19931">
        <ele>50</ele>
        <time>2022-02-02T14:59:59Z</time>
      </trkpt>
      <trkpt lat="49.9227" lon="2.19931">
        <ele>49.9</ele>
        <time>2022-02-02T15:00:00Z</time>
      </trkpt>
      <trkpt lat="49.92271" lon="2.19932">
        <ele>49.9</ele>
        <time>2022-02-02T15:00:01Z</time>
      </trkpt>
      <trkpt lat="49.92272" lon="2.19933">
        <ele>49.8</ele>
        <time>2022-02-02T15:00:03Z</time>
      </trkpt>
      <trkpt lat="49.92273" lon="2.19934">
        <ele>49.7</ele>
        <time>2022-02-02T15:00:04Z</time>
      </trkpt>
      <trkpt lat="49.92274" lon="2.19935">
        <ele>49.7</ele>
        <time>2022-02-02T15:00:05Z</time>
      </trkpt>
      <trkpt lat="49.92275" lon="2.19936">
        <ele>49.6</ele>
        <time>2022-02-02T15:00:06Z</time>
      </trkpt>
      <trkpt lat="49.92276" lon="2.19937">
        <ele>49.6</ele>
        <time>2022-02-02T15:00:07Z</time>
      </trkpt>
      <trkpt lat="49.92277" lon="2.19938">
        <ele>49.5</ele>
        <time>2022-02-02T15:00:08Z</time>
      </trkpt>
      <trkpt lat="49.92278" lon="2.19939">
        <ele>49.5</ele>
        <time>2022-02-02T15:00:09Z</time>
      </trkpt>
      <trkpt lat="49.9228" lon="2.1994">
        <ele>49.4</ele>
        <time>2022-02-02T15:00:10Z</time>
      </trkpt>
      <trkpt lat="49.92281" lon="2.19941">
        <ele>49.3</ele>
        <time>2022-02-02T15:00:11Z</time>
      </trkpt>
      <trkpt lat="49.92282" lon="2.19942">
        <ele>49.3</ele>
        <time>2022-02-02T15:00:12Z</time>
      </trkpt>
      <trkpt lat="49.92283" lon="2.19942">
        <ele>49.2</ele>
        <time>2022-02-02T15:00:13Z</time>
      </trkpt>
      <trkpt lat="49.92284" lon="2.19943">
        <ele>49.2</ele>
        <time>2022-02-02T15:00:14Z</time>
      </trkpt>
      <trkpt lat="49.92285" lon="2.19944">
        <ele>49.1</ele>
        <time>2022-02-02T15:00:15Z</time>
      </trkpt>
      <trkpt lat="49.92286" lon="2.19944">
        <ele>49.1</ele>
        <time>2022-02-02T15:00:17Z</time>
      </trkpt>
      <trkpt lat="49.92287" lon="2.19944">
        <ele>49</ele>
        <time>2022-02-02T15:00:18Z</time>
      </trkpt>
      <trkpt lat="49.92289" lon="2.19945">
        <ele>48.9</ele>
        <time>2022-02-02T15:00:19Z</time>
      </trkpt>
      <trkpt lat="49.9229" lon="2.19945">
        <ele>48.9</ele>
        <time>2022-02-02T15:00:20Z</time>
      </trkpt>
      <trkpt lat="49.92291" lon="2.19945">
        <ele>48.9</ele>
        <time>2022-02-02T15:00:21Z</time>
      </trkpt>
      <trkpt lat="49.92293" lon="2.19946">
        <ele>48.8</ele>
        <time>2022-02-02T15:00:22Z</time>
      </trkpt>
      <trkpt lat="49.92294" lon="2.19947">
        <ele>48.7</ele>
        <time>2022-02-02T15:00:23Z</time>
      </trkpt>
      <trkpt lat="49.92295" lon="2.19948">
        <ele>48.7</ele>
        <time>2022-02-02T15:00:24Z</time>
      </trkpt>
      <trkpt lat="49.92296" lon="2.19948">
        <ele>48.6</ele>
        <time>2022-02-02T15:00:25Z</time>
      </trkpt>
      <trkpt lat="49.92297" lon="2.1995">
        <ele>48.6</ele>
        <time>2022-02-02T15:00:27Z</time>
      </trkpt>
      <trkpt lat="49.92298" lon="2.1995">
        <ele>48.5</ele>
        <time>2022-02-02T15:00:28Z</time>
      </trkpt>
      <trkpt lat="49.923" lon="2.19952">
        <ele>48.4</ele>
        <time>2022-02-02T15:00:29Z</time>
      </trkpt>
      <trkpt lat="49.92301" lon="2.19953">
        <ele>48.4</ele>
        <time>2022-02-02T15:00:30Z</time>
      </trkpt>
      <trkpt lat="49.92302" lon="2.19953">
        <ele>48.3</ele>
        <time>2022-02-02T15:00:31Z</time>
      </trkpt>
      <trkpt lat="49.92303" lon="2.19954">
        <ele>48.3</ele>
        <time>2022-02-02T15:00:32Z</time>
      </trkpt>
      <trkpt lat="49.92304" lon="2.19955">
        <ele>48.2</ele>
        <time>2022-02-02T15:00:33Z</time>
      </trkpt>
      <trkpt lat="49.92306" lon="2.19956">
        <ele>48.1</ele>
        <time>2022-02-02T15:00:34Z</time>
      </trkpt>
      <trkpt lat="49.92307" lon="2.19956">
        <ele>48.1</ele>
        <time>2022-02-02T15:00:36Z</time>
      </trkpt>
      <trkpt lat="49.92308" lon="2.19957">
        <ele>48</ele>
        <time>2022-02-02T15:00:37Z</time>
      </trkpt>
      <trkpt lat="49.92309" lon="2.19957">
        <ele>48</ele>
        <time>2022-02-02T15:00:38Z</time>
      </trkpt>
      <trkpt lat="49.9231" lon="2.19958">
        <ele>47.9</ele>
        <time>2022-02-02T15:00:39Z</time>
      </trkpt>
      <trkpt lat="49.92311" lon="2.19958">
        <ele>47.9</ele>
        <time>2022-02-02T15:00:40Z</time>
      </trkpt>
      <trkpt lat="49.92313" lon="2.1996">
        <ele>47.8</ele>
        <time>2022-02-02T15:00:41Z</time>
      </trkpt>
      <trkpt lat="49.92314" lon="2.1996">
        <ele>47.7</ele>
        <time>2022-02-02T15:00:42Z</time>
      </trkpt>
      <trkpt lat="49.92314" lon="2.19961">
        <ele>47.7</ele>
        <time>2022-02-02T15:00:43Z</time>
      </trkpt>
      <trkpt lat="49.92317" lon="2.19963">
        <ele>47.6</ele>
        <time>2022-02-02T15:00:44Z</time>
      </trkpt>
      <trkpt lat="49.92318" lon="2.19963">
        <ele>47.5</ele>
        <time>2022-02-02T15:00:46Z</time>
      </trkpt>
      <trkpt lat="49.92319" lon="2.19964">
        <ele>47.5</ele>
        <time>2022-02-02T15:00:47Z</time>
      </trkpt>
      <trkpt lat="49.9232" lon="2.19965">
        <ele>47.4</ele>
        <time>2022-02-02T15:00:48Z</time>
      </trkpt>
      <trkpt lat="49.92321" lon="2.19965">
        <ele>47.4</ele>
        <time>2022-02-02T15:00:49Z</time>
      </trkpt>
      <trkpt lat="49.92323" lon="2.19966">
        <ele>47.3</ele>
        <time>2022-02-02T15:00:50Z</time>
      </trkpt>
      <trkpt lat="49.92324" lon="2.19966">
        <ele>47.3</ele>
        <time>2022-02-02T15:00:51Z</time>
      </trkpt>
      <trkpt lat="49.92325" lon="2.19967">
        <ele>47.2</ele>
        <time>2022-02-02T15:00:52Z</time>
      </trkpt>
      <trkpt lat="49.92327" lon="2.19968">
        <ele>47.1</ele>
        <time>2022-02-02T15:00:53Z</time>
      </trkpt>
      <trkpt lat="49.92328" lon="2.1997">
        <ele>47.1</ele>
        <time>2022-02-02T15:00:54Z</time>
      </trkpt>
      <trkpt lat="49.92329" lon="2.19971">
        <ele>47</ele>
        <time>2022-02-02T15:00:56Z</time>
      </trkpt>
      <trkpt lat="49.9233" lon="2.19971">
        <ele>47</ele>
        <time>2022-02-02T15:00:57Z</time>
      </trkpt>
      <trkpt lat="49.92331" lon="2.19973">
        <ele>46.9</ele>
        <time>2022-02-02T15:00:58Z</time>
      </trkpt>
      <trkpt lat="49.92332" lon="2.19974">
        <ele>46.9</ele>
        <time>2022-02-02T15:00:59Z</time>
      </trkpt>
      <trkpt lat="49.92333" lon="2.19975">
        <ele>46.9</ele>
        <time>2022-02-02T15:01:00Z</time>
      </trkpt>
      <trkpt lat="49.92333" lon="2.19976">
        <ele>46.8</ele>
        <time>2022-02-02T15:01:01Z</time>
      </trkpt>
      <trkpt lat="49.92334" lon="2.19977">
        <ele>46.8</ele>
        <time>2022-02-02T15:01:02Z</time>
      </trkpt>
      <trkpt lat="49.92335" lon="2.19978">
        <ele>46.7</ele>
        <time>2022-02-02T15:01:03Z</time>
      </trkpt>
      <trkpt lat="49.92337" lon="2.19979">
        <ele>46.7</ele>
        <time>2022-02-02T15:01:04Z</time>
      </trkpt>
      <trkpt lat="49.92338" lon="2.1998">
        <ele>46.6</ele>
        <time>2022-02-02T15:01:05Z</time>
      </trkpt>
      <trkpt lat="49.92339" lon="2.1998">
        <ele>46.5</ele>
        <time>2022-02-02T15:01:06Z</time>
      </trkpt>
      <trkpt lat="49.9234" lon="2.19981">
        <ele>46.5</ele>
        <time>2022-02-02T15:01:07Z</time>
      </trkpt>
      <trkpt lat="49.9234" lon="2.19981">
        <ele>46.5</ele>
        <time>2022-02-02T15:01:08Z</time>
      </trkpt>
      <trkpt lat="49.92341" lon="2.19982">
        <ele>46.4</ele>
        <time>2022-02-02T15:01:09Z</time>
      </trkpt>
      <trkpt lat="49.92343" lon="2.19983">
        <ele>46.3</ele>
        <time>2022-02-02T15:01:11Z</time>
      </trkpt>
      <trkpt lat="49.92344" lon="2.19984">
        <ele>46.3</ele>
        <time>2022-02-02T15:01:12Z</time>
      </trkpt>
      <trkpt lat="49.92345" lon="2.19984">
        <ele>46.2</ele>
        <time>2022-02-02T15:01:13Z</time>
      </trkpt>
      <trkpt lat="49.92346" lon="2.19985">
        <ele>46.2</ele>
        <time>2022-02-02T15:01:14Z</time>
      </trkpt>
      <trkpt lat="49.92347" lon="2.19986">
        <ele>46.1</ele>
        <time>2022-02-02T15:01:15Z</time>
      </trkpt>
      <trkpt lat="49.92348" lon="2.19986">
        <ele>46</ele>
        <time>2022-02-02T15:01:16Z</time>
      </trkpt>
      <trkpt lat="49.9235" lon="2.19988">
        <ele>45.9</ele>
        <time>2022-02-02T15:01:17Z</time>
      </trkpt>
      <trkpt lat="49.92351" lon="2.19988">
        <ele>45.9</ele>
        <time>2022-02-02T15:01:18Z</time>
      </trkpt>
      <trkpt lat="49.92352" lon="2.19989">
        <ele>45.8</ele>
        <time>2022-02-02T15:01:19Z</time>
      </trkpt>
      <trkpt lat="49.92354" lon="2.1999">
        <ele>45.7</ele>
        <time>2022-02-02T15:01:21Z</time>
      </trkpt>
      <trkpt lat="49.92354" lon="2.19991">
        <ele>45.6</ele>
        <time>2022-02-02T15:01:22Z</time>
      </trkpt>
      <trkpt lat="49.92355" lon="2.19991">
        <ele>45.6</ele>
        <time>2022-02-02T15:01:23Z</time>
      </trkpt>
      <trkpt lat="49.92357" lon="2.19993">
        <ele>45.5</ele>
        <time>2022-02-02T15:01:24Z</time>
      </trkpt>
      <trkpt lat="49.92358" lon="2.19994">
        <ele>45.4</ele>
        <time>2022-02-02T15:01:26Z</time>
      </trkpt>
      <trkpt lat="49.92359" lon="2.19994">
        <ele>45.3</ele>
        <time>2022-02-02T15:01:27Z</time>
      </trkpt>
      <trkpt lat="49.9236" lon="2.19995">
        <ele>45.3</ele>
        <time>2022-02-02T15:01:28Z</time>
      </trkpt>
      <trkpt lat="49.92361" lon="2.19996">
        <ele>45.2</ele>
        <time>2022-02-02T15:01:29Z</time>
      </trkpt>
      <trkpt lat="49.92363" lon="2.19997">
        <ele>45.1</ele>
        <time>2022-02-02T15:01:30Z</time>
      </trkpt>
      <trkpt lat="49.92364" lon="2.19998">
        <ele>45</ele>
        <time>2022-02-02T15:01:31Z</time>
      </trkpt>
      <trkpt lat="49.92364" lon="2.19999">
        <ele>45</ele>
        <time>2022-02-02T15:01:32Z</time>
      </trkpt>
      <trkpt lat="49.92366" lon="2.20001">
        <ele>44.9</ele>
        <time>2022-02-02T15:01:33Z</time>
      </trkpt>
      <trkpt lat="49.92367" lon="2.20002">
        <ele>44.8</ele>
        <time>2022-02-02T15:01:34Z</time>
      </trkpt>
      <trkpt lat="49.92367" lon="2.20003">
        <ele>44.8</ele>
        <time>2022-02-02T15:01:35Z</time>
      </trkpt>
      <trkpt lat="49.92368" lon="2.20004">
        <ele>44.7</ele>
        <time>2022-02-02T15:01:36Z</time>
      </trkpt>
      <trkpt lat="49.92369" lon="2.20005">
        <ele>44.6</ele>
        <time>2022-02-02T15:01:37Z</time>
      </trkpt>
      <trkpt lat="49.9237" lon="2.20006">
        <ele>44.6</ele>
        <time>2022-02-02T15:01:39Z</time>
      </trkpt>
      <trkpt lat="49.92371" lon="2.20007">
        <ele>44.5</ele>
        <time>2022-02-02T15:01:40Z</time>
      </trkpt>
      <trkpt lat="49.92372" lon="2.20008">
        <ele>44.4</ele>
        <time>2022-02-02T15:01:41Z</time>
      </trkpt>
      <trkpt lat="49.92372" lon="2.2001">
        <ele>44.4</ele>
        <time>2022-02-02T15:01:42Z</time>
      </trkpt>
      <trkpt lat="49.92373" lon="2.20011">
        <ele>44.3</ele>
        <time>2022-02-02T15:01:43Z</time>
      </trkpt>
      <trkpt lat="49.92374" lon="2.20012">
        <ele>44.2</ele>
        <time>2022-02-02T15:01:44Z</time>
      </trkpt>
      <trkpt lat="49.92374" lon="2.20014">
        <ele>44.2</ele>
        <time>2022-02-02T15:01:45Z</time>
      </trkpt>
      <trkpt lat="49.92376" lon="2.20016">
        <ele>44</ele>
        <time>2022-02-02T15:01:46Z</time>
      </trkpt>
      <trkpt lat="49.92376" lon="2.20017">
        <ele>44</ele>
        <time>2022-02-02T15:01:47Z</time>
      </trkpt>
      <trkpt lat="49.92376" lon="2.20018">
        <ele>43.9</ele>
        <time>2022-02-02T15:01:48Z</time>
      </trkpt>
      <trkpt lat="49.92377" lon="2.2002">
        <ele>43.8</ele>
        <time>2022-02-02T15:01:49Z</time>
      </trkpt>
      <trkpt lat="49.92378" lon="2.20021">
        <ele>43.8</ele>
        <time>2022-02-02T15:01:50Z</time>
      </trkpt>
      <trkpt lat="49.92379" lon="2.20022">
        <ele>43.7</ele>
        <time>2022-02-02T15:01:52Z</time>
      </trkpt>
      <trkpt lat="49.9238" lon="2.20023">
        <ele>43.6</ele>
        <time>2022-02-02T15:01:53Z</time>
      </trkpt>
      <trkpt lat="49.9238" lon="2.20025">
        <ele>43.5</ele>
        <time>2022-02-02T15:01:54Z</time>
      </trkpt>
      <trkpt lat="49.92381" lon="2.20026">
        <ele>43.5</ele>
        <time>2022-02-02T15:01:55Z</time>
      </trkpt>
      <trkpt lat="49.92382" lon="2.20028">
        <ele>43.3</ele>
        <time>2022-02-02T15:01:56Z</time>
      </trkpt>
      <trkpt lat="49.92383" lon="2.2003">
        <ele>43.2</ele>
        <time>2022-02-02T15:01:57Z</time>
      </trkpt>
      <trkpt lat="49.92383" lon="2.20031">
        <ele>43.2</ele>
        <time>2022-02-02T15:01:58Z</time>
      </trkpt>
      <trkpt lat="49.92384" lon="2.20033">
        <ele>43.1</ele>
        <time>2022-02-02T15:01:59Z</time>
      </trkpt>
      <trkpt lat="49.92385" lon="2.20034">
        <ele>43</ele>
        <time>2022-02-02T15:02:00Z</time>
      </trkpt>
      <trkpt lat="49.92386" lon="2.20036">
        <ele>42.9</ele>
        <time>2022-02-02T15:02:01Z</time>
      </trkpt>
      <trkpt lat="49.92386" lon="2.20038">
        <ele>42.8</ele>
        <time>2022-02-02T15:02:02Z</time>
      </trkpt>
      <trkpt lat="49.92387" lon="2.2004">
        <ele>42.7</ele>
        <time>2022-02-02T15:02:03Z</time>
      </trkpt>
      <trkpt lat="49.92388" lon="2.20041">
        <ele>42.6</ele>
        <time>2022-02-02T15:02:04Z</time>
      </trkpt>
      <trkpt lat="49.92388" lon="2.20043">
        <ele>42.6</ele>
        <time>2022-02-02T15:02:05Z</time>
      </trkpt>
      <trkpt lat="49.92389" lon="2.20045">
        <ele>42.4</ele>
        <time>2022-02-02T15:02:07Z</time>
      </trkpt>
      <trkpt lat="49.9239" lon="2.20046">
        <ele>42.4</ele>
        <time>2022-02-02T15:02:08Z</time>
      </trkpt>
      <trkpt lat="49.9239" lon="2.20047">
        <ele>42.3</ele>
        <time>2022-02-02T15:02:09Z</time>
      </trkpt>
      <trkpt lat="49.92391" lon="2.20049">
        <ele>42.2</ele>
        <time>2022-02-02T15:02:10Z</time>
      </trkpt>
      <trkpt lat="49.92391" lon="2.20051">
        <ele>42.1</ele>
        <time>2022-02-02T15:02:11Z</time>
      </trkpt>
      <trkpt lat="49.92392" lon="2.20054">
        <ele>42</ele>
        <time>2022-02-02T15:02:12Z</time>
      </trkpt>
      <trkpt lat="49.92392" lon="2.20056">
        <ele>41.9</ele>
        <time>2022-02-02T15:02:13Z</time>
      </trkpt>
      <trkpt lat="49.92393" lon="2.20058">
        <ele>41.8</ele>
        <time>2022-02-02T15:02:14Z</time>
      </trkpt>
      <trkpt lat="49.92393" lon="2.2006">
        <ele>41.7</ele>
        <time>2022-02-02T15:02:15Z</time>
      </trkpt>
      <trkpt lat="49.92394" lon="2.20063">
        <ele>41.5</ele>
        <time>2022-02-02T15:02:16Z</time>
      </trkpt>
      <trkpt lat="49.92394" lon="2.20064">
        <ele>41.5</ele>
        <time>2022-02-02T15:02:17Z</time>
      </trkpt>
      <trkpt lat="49.92395" lon="2.20065">
        <ele>41.4</ele>
        <time>2022-02-02T15:02:18Z</time>
      </trkpt>
      <trkpt lat="49.92395" lon="2.20068">
        <ele>41.3</ele>
        <time>2022-02-02T15:02:19Z</time>
      </trkpt>
      <trkpt lat="49.92395" lon="2.2007">
        <ele>41.2</ele>
        <time>2022-02-02T15:02:20Z</time>
      </trkpt>
      <trkpt lat="49.92396" lon="2.20071">
        <ele>41.1</ele>
        <time>2022-02-02T15:02:22Z</time>
      </trkpt>
      <trkpt lat="49.92396" lon="2.20073">
        <ele>41</ele>
        <time>2022-02-02T15:02:23Z</time>
      </trkpt>
      <trkpt lat="49.92396" lon="2.20074">
        <ele>41</ele>
        <time>2022-02-02T15:02:24Z</time>
      </trkpt>
      <trkpt lat="49.92397" lon="2.20076">
        <ele>40.9</ele>
        <time>2022-02-02T15:02:25Z</time>
      </trkpt>
      <trkpt lat="49.92397" lon="2.20079">
        <ele>40.7</ele>
        <time>2022-02-02T15:02:26Z</time>
      </trkpt>
      <trkpt lat="49.92397" lon="2.20081">
        <ele>40.7</ele>
        <time>2022-02-02T15:02:27Z</time>
      </trkpt>
      <trkpt lat="49.92397" lon="2.20082">
        <ele>40.6</ele>
        <time>2022-02-02T15:02:28Z</time>
      </trkpt>
      <trkpt lat="49.92397" lon="2.20085">
        <ele>40.4</ele>
        <time>2022-02-02T15:02:29Z</time>
      </trkpt>
      <trkpt lat="49.92397" lon="2.20087">
        <ele>40.4</ele>
        <time>2022-02-02T15:02:30Z</time>
      </trkpt>
      <trkpt lat="49.92397" lon="2.20088">
        <ele>40.3</ele>
        <time>2022-02-02T15:02:31Z</time>
      </trkpt>
      <trkpt lat="49.92397" lon="2.20091">
        <ele>40.2</ele>
        <time>2022-02-02T15:02:33Z</time>
      </trkpt>
      <trkpt lat="49.92397" lon="2.20092">
        <ele>40.1</ele>
        <time>2022-02-02T15:02:34Z</time>
      </trkpt>
      <trkpt lat="49.92397" lon="2.20094">
        <ele>40</ele>
        <time>2022-02-02T15:02:35Z</time>
      </trkpt>
      <trkpt lat="49.92397" lon="2.20095">
        <ele>40</ele>
        <time>2022-02-02T15:02:36Z</time>
      </trkpt>
      <trkpt lat="49.92398" lon="2.20097">
        <ele>39.9</ele>
        <time>2022-02-02T15:02:37Z</time>
      </trkpt>
      <trkpt lat="49.92398" lon="2.20099">
        <ele>39.8</ele>
        <time>2022-02-02T15:02:38Z</time>
      </trkpt>
      <trkpt lat="49.92399" lon="2.20101">
        <ele>39.7</ele>
        <time>2022-02-02T15:02:39Z</time>
      </trkpt>
      <trkpt lat="49.92399" lon="2.20102">
        <ele>39.6</ele>
        <time>2022-02-02T15:02:40Z</time>
      </trkpt>
      <trkpt lat="49.92399" lon="2.20104">
        <ele>39.5</ele>
        <time>2022-02-02T15:02:41Z</time>
      </trkpt>
      <trkpt lat="49.924" lon="2.20106">
        <ele>39.4</ele>
        <time>2022-02-02T15:02:43Z</time>
      </trkpt>
      <trkpt lat="49.924" lon="2.20107">
        <ele>39.4</ele>
        <time>2022-02-02T15:02:44Z</time>
      </trkpt>
      <trkpt lat="49.924" lon="2.20109">
        <ele>39.3</ele>
        <time>2022-02-02T15:02:45Z</time>
      </trkpt>
      <trkpt lat="49.92401" lon="2.20112">
        <ele>39.1</ele>
        <time>2022-02-02T15:02:46Z</time>
      </trkpt>
      <trkpt lat="49.92401" lon="2.20113">
        <ele>39</ele>
        <time>2022-02-02T15:02:47Z</time>
      </trkpt>
      <trkpt lat="49.92401" lon="2.20115">
        <ele>39</ele>
        <time>2022-02-02T15:02:48Z</time>
      </trkpt>
      <trkpt lat="49.92402" lon="2.20118">
        <ele>38.8</ele>
        <time>2022-02-02T15:02:50Z</time>
      </trkpt>
      <trkpt lat="49.92402" lon="2.2012">
        <ele>38.7</ele>
        <time>2022-02-02T15:02:52Z</time>
      </trkpt>
      <trkpt lat="49.92403" lon="2.20122">
        <ele>38.6</ele>
        <time>2022-02-02T15:02:53Z</time>
      </trkpt>
      <trkpt lat="49.92403" lon="2.20124">
        <ele>38.5</ele>
        <time>2022-02-02T15:02:54Z</time>
      </trkpt>
      <trkpt lat="49.92403" lon="2.20125">
        <ele>38.4</ele>
        <time>2022-02-02T15:02:55Z</time>
      </trkpt>
      <trkpt lat="49.92404" lon="2.20128">
        <ele>38.3</ele>
        <time>2022-02-02T15:02:56Z</time>
      </trkpt>
      <trkpt lat="49.92404" lon="2.20129">
        <ele>38.2</ele>
        <time>2022-02-02T15:02:57Z</time>
      </trkpt>
      <trkpt lat="49.92405" lon="2.2013">
        <ele>38.2</ele>
        <time>2022-02-02T15:02:58Z</time>
      </trkpt>
      <trkpt lat="49.92405" lon="2.20134">
        <ele>38</ele>
        <time>2022-02-02T15:02:59Z</time>
      </trkpt>
      <trkpt lat="49.92406" lon="2.20135">
        <ele>37.9</ele>
        <time>2022-02-02T15:03:00Z</time>
      </trkpt>
      <trkpt lat="49.92406" lon="2.20136">
        <ele>37.8</ele>
        <time>2022-02-02T15:03:01Z</time>
      </trkpt>
      <trkpt lat="49.92407" lon="2.20139">
        <ele>37.7</ele>
        <time>2022-02-02T15:03:02Z</time>
      </trkpt>
      <trkpt lat="49.92407" lon="2.20141">
        <ele>37.6</ele>
        <time>2022-02-02T15:03:04Z</time>
      </trkpt>
      <trkpt lat="49.92408" lon="2.20142">
        <ele>37.5</ele>
        <time>2022-02-02T15:03:05Z</time>
      </trkpt>
      <trkpt lat="49.92408" lon="2.20143">
        <ele>37.4</ele>
        <time>2022-02-02T15:03:06Z</time>
      </trkpt>
      <trkpt lat="49.92409" lon="2.20144">
        <ele>37.3</ele>
        <time>2022-02-02T15:03:07Z</time>
      </trkpt>
      <trkpt lat="49.92409" lon="2.20146">
        <ele>37.2</ele>
        <time>2022-02-02T15:03:08Z</time>
      </trkpt>
      <trkpt lat="49.9241" lon="2.20148">
        <ele>37.1</ele>
        <time>2022-02-02T15:03:09Z</time>
      </trkpt>
      <trkpt lat="49.9241" lon="2.2015">
        <ele>37</ele>
        <time>2022-02-02T15:03:10Z</time>
      </trkpt>
      <trkpt lat="49.92411" lon="2.20153">
        <ele>36.8</ele>
        <time>2022-02-02T15:03:11Z</time>
      </trkpt>
      <trkpt lat="49.92412" lon="2.20155">
        <ele>36.7</ele>
        <time>2022-02-02T15:03:12Z</time>
      </trkpt>
      <trkpt lat="49.92413" lon="2.20157">
        <ele>36.6</ele>
        <time>2022-02-02T15:03:13Z</time>
      </trkpt>
      <trkpt lat="49.92414" lon="2.20159">
        <ele>36.4</ele>
        <time>2022-02-02T15:03:15Z</time>
      </trkpt>
      <trkpt lat="49.92415" lon="2.20161">
        <ele>36.2</ele>
        <time>2022-02-02T15:03:16Z</time>
      </trkpt>
      <trkpt lat="49.92416" lon="2.20162">
        <ele>36.1</ele>
        <time>2022-02-02T15:03:17Z</time>
      </trkpt>
      <trkpt lat="49.92418" lon="2.20164">
        <ele>36</ele>
        <time>2022-02-02T15:03:18Z</time>
      </trkpt>
      <trkpt lat="49.92419" lon="2.20165">
        <ele>35.8</ele>
        <time>2022-02-02T15:03:19Z</time>
      </trkpt>
      <trkpt lat="49.92421" lon="2.20166">
        <ele>35.7</ele>
        <time>2022-02-02T15:03:21Z</time>
      </trkpt>
      <trkpt lat="49.92422" lon="2.20167">
        <ele>35.6</ele>
        <time>2022-02-02T15:03:22Z</time>
      </trkpt>
      <trkpt lat="49.92423" lon="2.20168">
        <ele>35.4</ele>
        <time>2022-02-02T15:03:23Z</time>
      </trkpt>
      <trkpt lat="49.92424" lon="2.20169">
        <ele>35.4</ele>
        <time>2022-02-02T15:03:24Z</time>
      </trkpt>
      <trkpt lat="49.92425" lon="2.20169">
        <ele>35.3</ele>
        <time>2022-02-02T15:03:25Z</time>
      </trkpt>
      <trkpt lat="49.92427" lon="2.2017">
        <ele>35.1</ele>
        <time>2022-02-02T15:03:26Z</time>
      </trkpt>
      <trkpt lat="49.92428" lon="2.2017">
        <ele>35</ele>
        <time>2022-02-02T15:03:27Z</time>
      </trkpt>
      <trkpt lat="49.92429" lon="2.2017">
        <ele>34.9</ele>
        <time>2022-02-02T15:03:28Z</time>
      </trkpt>
      <trkpt lat="49.9243" lon="2.20171">
        <ele>34.8</ele>
        <time>2022-02-02T15:03:29Z</time>
      </trkpt>
      <trkpt lat="49.92431" lon="2.20171">
        <ele>34.7</ele>
        <time>2022-02-02T15:03:30Z</time>
      </trkpt>
      <trkpt lat="49.92432" lon="2.20171">
        <ele>34.6</ele>
        <time>2022-02-02T15:03:31Z</time>
      </trkpt>
      <trkpt lat="49.92434" lon="2.20171">
        <ele>34.5</ele>
        <time>2022-02-02T15:03:32Z</time>
      </trkpt>
      <trkpt lat="49.92435" lon="2.20171">
        <ele>34.4</ele>
        <time>2022-02-02T15:03:33Z</time>
      </trkpt>
      <trkpt lat="49.92436" lon="2.20171">
        <ele>34.2</ele>
        <time>2022-02-02T15:03:35Z</time>
      </trkpt>
      <trkpt lat="49.92438" lon="2.20171">
        <ele>34.1</ele>
        <time>2022-02-02T15:03:36Z</time>
      </trkpt>
      <trkpt lat="49.92439" lon="2.20171">
        <ele>34</ele>
        <time>2022-02-02T15:03:37Z</time>
      </trkpt>
      <trkpt lat="49.9244" lon="2.20171">
        <ele>33.9</ele>
        <time>2022-02-02T15:03:38Z</time>
      </trkpt>
      <trkpt lat="49.92441" lon="2.20171">
        <ele>33.8</ele>
        <time>2022-02-02T15:03:39Z</time>
      </trkpt>
      <trkpt lat="49.92443" lon="2.20171">
        <ele>33.7</ele>
        <time>2022-02-02T15:03:40Z</time>
      </trkpt>
      <trkpt lat="49.92443" lon="2.20171">
        <ele>33.6</ele>
        <time>2022-02-02T15:03:41Z</time>
      </trkpt>
      <trkpt lat="49.92446" lon="2.20171">
        <ele>33.4</ele>
        <time>2022-02-02T15:03:42Z</time>
      </trkpt>
      <trkpt lat="49.92447" lon="2.20171">
        <ele>33.3</ele>
        <time>2022-02-02T15:03:43Z</time>
      </trkpt>
      <trkpt lat="49.92448" lon="2.20171">
        <ele>33.2</ele>
        <time>2022-02-02T15:03:45Z</time>
      </trkpt>
      <trkpt lat="49.92448" lon="2.20171">
        <ele>33.2</ele>
        <time>2022-02-02T15:03:46Z</time>
      </trkpt>
      <trkpt lat="49.92449" lon="2.20171">
        <ele>33.1</ele>
        <time>2022-02-02T15:03:47Z</time>
      </trkpt>
      <trkpt lat="49.9245" lon="2.20171">
        <ele>33</ele>
        <time>2022-02-02T15:03:48Z</time>
      </trkpt>
      <trkpt lat="49.92451" lon="2.20171">
        <ele>32.9</ele>
        <time>2022-02-02T15:03:49Z</time>
      </trkpt>
      <trkpt lat="49.92452" lon="2.20171">
        <ele>32.9</ele>
        <time>2022-02-02T15:03:50Z</time>
      </trkpt>
      <trkpt lat="49.92453" lon="2.20171">
        <ele>32.8</ele>
        <time>2022-02-02T15:03:51Z</time>
      </trkpt>
      <trkpt lat="49.92454" lon="2.20171">
        <ele>32.7</ele>
        <time>2022-02-02T15:03:52Z</time>
      </trkpt>
      <trkpt lat="49.92455" lon="2.20172">
        <ele>32.6</ele>
        <time>2022-02-02T15:03:53Z</time>
      </trkpt>
      <trkpt lat="49.92456" lon="2.20172">
        <ele>32.5</ele>
        <time>2022-02-02T15:03:54Z</time>
      </trkpt>
      <trkpt lat="49.92457" lon="2.20172">
        <ele>32.4</ele>
        <time>2022-02-02T15:03:55Z</time>
      </trkpt>
      <trkpt lat="49.92458" lon="2.20172">
        <ele>32.3</ele>
        <time>2022-02-02T15:03:56Z</time>
      </trkpt>
      <trkpt lat="49.9246" lon="2.20172">
        <ele>32.1</ele>
        <time>2022-02-02T15:03:57Z</time>
      </trkpt>
      <trkpt lat="49.92461" lon="2.20172">
        <ele>32</ele>
        <time>2022-02-02T15:03:58Z</time>
      </trkpt>
      <trkpt lat="49.92463" lon="2.20172">
        <ele>31.9</ele>
        <time>2022-02-02T15:03:59Z</time>
      </trkpt>
      <trkpt lat="49.92464" lon="2.20172">
        <ele>31.7</ele>
        <time>2022-02-02T15:04:01Z</time>
      </trkpt>
      <trkpt lat="49.92466" lon="2.20172">
        <ele>31.6</ele>
        <time>2022-02-02T15:04:02Z</time>
      </trkpt>
      <trkpt lat="49.92467" lon="2.20172">
        <ele>31.4</ele>
        <time>2022-02-02T15:04:03Z</time>
      </trkpt>
      <trkpt lat="49.92469" lon="2.20172">
        <ele>31.3</ele>
        <time>2022-02-02T15:04:04Z</time>
      </trkpt>
      <trkpt lat="49.9247" lon="2.20172">
        <ele>31.2</ele>
        <time>2022-02-02T15:04:05Z</time>
      </trkpt>
      <trkpt lat="49.92472" lon="2.20172">
        <ele>31</ele>
        <time>2022-02-02T15:04:06Z</time>
      </trkpt>
      <trkpt lat="49.92473" lon="2.20172">
        <ele>30.9</ele>
        <time>2022-02-02T15:04:07Z</time>
      </trkpt>
      <trkpt lat="49.92474" lon="2.20172">
        <ele>30.8</ele>
        <time>2022-02-02T15:04:08Z</time>
      </trkpt>
      <trkpt lat="49.92476" lon="2.20172">
        <ele>30.7</ele>
        <time>2022-02-02T15:04:10Z</time>
      </trkpt>
      <trkpt lat="49.92477" lon="2.20172">
        <ele>30.5</ele>
        <time>2022-02-02T15:04:11Z</time>
      </trkpt>
      <trkpt lat="49.92479" lon="2.20172">
        <ele>30.4</ele>
        <time>2022-02-02T15:04:12Z</time>
      </trkpt>
      <trkpt lat="49.92481" lon="2.20172">
        <ele>30.2</ele>
        <time>2022-02-02T15:04:13Z</time>
      </trkpt>
      <trkpt lat="49.92482" lon="2.20173">
        <ele>30.1</ele>
        <time>2022-02-02T15:04:14Z</time>
      </trkpt>
      <trkpt lat="49.92482" lon="2.20173">
        <ele>30.1</ele>
        <time>2022-02-02T15:04:15Z</time>
      </trkpt>
      <trkpt lat="49.92484" lon="2.20173">
        <ele>29.9</ele>
        <time>2022-02-02T15:04:16Z</time>
      </trkpt>
      <trkpt lat="49.92485" lon="2.20173">
        <ele>29.8</ele>
        <time>2022-02-02T15:04:17Z</time>
      </trkpt>
      <trkpt lat="49.92487" lon="2.20174">
        <ele>29.6</ele>
        <time>2022-02-02T15:04:18Z</time>
      </trkpt>
      <trkpt lat="49.92488" lon="2.20174">
        <ele>29.6</ele>
        <time>2022-02-02T15:04:19Z</time>
      </trkpt>
      <trkpt lat="49.92489" lon="2.20174">
        <ele>29.5</ele>
        <time>2022-02-02T15:04:20Z</time>
      </trkpt>
      <trkpt lat="49.92491" lon="2.20174">
        <ele>29.3</ele>
        <time>2022-02-02T15:04:21Z</time>
      </trkpt>
      <trkpt lat="49.92492" lon="2.20175">
        <ele>29.2</ele>
        <time>2022-02-02T15:04:22Z</time>
      </trkpt>
      <trkpt lat="49.92493" lon="2.20175">
        <ele>29.2</ele>
        <time>2022-02-02T15:04:23Z</time>
      </trkpt>
      <trkpt lat="49.92494" lon="2.20175">
        <ele>29</ele>
        <time>2022-02-02T15:04:24Z</time>
      </trkpt>
      <trkpt lat="49.92495" lon="2.20175">
        <ele>28.9</ele>
        <time>2022-02-02T15:04:25Z</time>
      </trkpt>
      <trkpt lat="49.92497" lon="2.20176">
        <ele>28.8</ele>
        <time>2022-02-02T15:04:27Z</time>
      </trkpt>
      <trkpt lat="49.92498" lon="2.20176">
        <ele>28.7</ele>
        <time>2022-02-02T15:04:28Z</time>
      </trkpt>
      <trkpt lat="49.92499" lon="2.20176">
        <ele>28.7</ele>
        <time>2022-02-02T15:04:29Z</time>
      </trkpt>
      <trkpt lat="49.925" lon="2.20177">
        <ele>28.6</ele>
        <time>2022-02-02T15:04:30Z</time>
      </trkpt>
      <trkpt lat="49.925" lon="2.20177">
        <ele>28.5</ele>
        <time>2022-02-02T15:04:31Z</time>
      </trkpt>
      <trkpt lat="49.92501" lon="2.20177">
        <ele>28.5</ele>
        <time>2022-02-02T15:04:32Z</time>
      </trkpt>
      <trkpt lat="49.92501" lon="2.20177">
        <ele>28.4</ele>
        <time>2022-02-02T15:04:33Z</time>
      </trkpt>
      <trkpt lat="49.92502" lon="2.20178">
        <ele>28.4</ele>
        <time>2022-02-02T15:04:34Z</time>
      </trkpt>
      <trkpt lat="49.92503" lon="2.20178">
        <ele>28.4</ele>
        <time>2022-02-02T15:04:35Z</time>
      </trkpt>
      <trkpt lat="49.92504" lon="2.20179">
        <ele>28.3</ele>
        <time>2022-02-02T15:04:36Z</time>
      </trkpt>
      <trkpt lat="49.92505" lon="2.20179">
        <ele>28.2</ele>
        <time>2022-02-02T15:04:37Z</time>
      </trkpt>
      <trkpt lat="49.92506" lon="2.20179">
        <ele>28.1</ele>
        <time>2022-02-02T15:04:38Z</time>
      </trkpt>
      <trkpt lat="49.92507" lon="2.2018">
        <ele>28</ele>
        <time>2022-02-02T15:04:39Z</time>
      </trkpt>
      <trkpt lat="49.92509" lon="2.2018">
        <ele>27.9</ele>
        <time>2022-02-02T15:04:40Z</time>
      </trkpt>
      <trkpt lat="49.92511" lon="2.2018">
        <ele>27.7</ele>
        <time>2022-02-02T15:04:41Z</time>
      </trkpt>
      <trkpt lat="49.92512" lon="2.20181">
        <ele>27.7</ele>
        <time>2022-02-02T15:04:43Z</time>
      </trkpt>
      <trkpt lat="49.92513" lon="2.20181">
        <ele>27.6</ele>
        <time>2022-02-02T15:04:44Z</time>
      </trkpt>
      <trkpt lat="49.92514" lon="2.20181">
        <ele>27.5</ele>
        <time>2022-02-02T15:04:45Z</time>
      </trkpt>
      <trkpt lat="49.92516" lon="2.2018">
        <ele>27.4</ele>
        <time>2022-02-02T15:04:46Z</time>
      </trkpt>
      <trkpt lat="49.92518" lon="2.2018">
        <ele>27.2</ele>
        <time>2022-02-02T15:04:47Z</time>
      </trkpt>
      <trkpt lat="49.92519" lon="2.20179">
        <ele>27.1</ele>
        <time>2022-02-02T15:04:48Z</time>
      </trkpt>
      <trkpt lat="49.92521" lon="2.2018">
        <ele>27</ele>
        <time>2022-02-02T15:04:50Z</time>
      </trkpt>
      <trkpt lat="49.92522" lon="2.2018">
        <ele>26.9</ele>
        <time>2022-02-02T15:04:51Z</time>
      </trkpt>
      <trkpt lat="49.92524" lon="2.2018">
        <ele>26.8</ele>
        <time>2022-02-02T15:04:52Z</time>
      </trkpt>
      <trkpt lat="49.92525" lon="2.2018">
        <ele>26.7</ele>
        <time>2022-02-02T15:04:53Z</time>
      </trkpt>
      <trkpt lat="49.92526" lon="2.2018">
        <ele>26.7</ele>
        <time>2022-02-02T15:04:54Z</time>
      </trkpt>
      <trkpt lat="49.92528" lon="2.20182">
        <ele>26.5</ele>
        <time>2022-02-02T15:04:55Z</time>
      </trkpt>
      <trkpt lat="49.92529" lon="2.20182">
        <ele>26.4</ele>
        <time>2022-02-02T15:04:57Z</time>
      </trkpt>
      <trkpt lat="49.9253" lon="2.20183">
        <ele>26.4</ele>
        <time>2022-02-02T15:04:58Z</time>
      </trkpt>
      <trkpt lat="49.92531" lon="2.20183">
        <ele>26.3</ele>
        <time>2022-02-02T15:04:59Z</time>
      </trkpt>
      <trkpt lat="49.92532" lon="2.20183">
        <ele>26.2</ele>
        <time>2022-02-02T15:05:00Z</time>
      </trkpt>
      <trkpt lat="49.92534" lon="2.20184">
        <ele>26.1</ele>
        <time>2022-02-02T15:05:01Z</time>
      </trkpt>
      <trkpt lat="49.92535" lon="2.20185">
        <ele>26.1</ele>
        <time>2022-02-02T15:05:02Z</time>
      </trkpt>
      <trkpt lat="49.92536" lon="2.20185">
        <ele>26</ele>
        <time>2022-02-02T15:05:03Z</time>
      </trkpt>
      <trkpt lat="49.92537" lon="2.20185">
        <ele>25.9</ele>
        <time>2022-02-02T15:05:04Z</time>
      </trkpt>
      <trkpt lat="49.92538" lon="2.20185">
        <ele>25.9</ele>
        <time>2022-02-02T15:05:05Z</time>
      </trkpt>
      <trkpt lat="49.9254" lon="2.20184">
        <ele>25.8</ele>
        <time>2022-02-02T15:05:06Z</time>
      </trkpt>
      <trkpt lat="49.92541" lon="2.20184">
        <ele>25.7</ele>
        <time>2022-02-02T15:05:07Z</time>
      </trkpt>
      <trkpt lat="49.92542" lon="2.20184">
        <ele>25.7</ele>
        <time>2022-02-02T15:05:08Z</time>
      </trkpt>
      <trkpt lat="49.92543" lon="2.20184">
        <ele>25.6</ele>
        <time>2022-02-02T15:05:09Z</time>
      </trkpt>
      <trkpt lat="49.92544" lon="2.20184">
        <ele>25.6</ele>
        <time>2022-02-02T15:05:11Z</time>
      </trkpt>
      <trkpt lat="49.92545" lon="2.20183">
        <ele>25.5</ele>
        <time>2022-02-02T15:05:12Z</time>
      </trkpt>
      <trkpt lat="49.92547" lon="2.20183">
        <ele>25.5</ele>
        <time>2022-02-02T15:05:13Z</time>
      </trkpt>
      <trkpt lat="49.92548" lon="2.20183">
        <ele>25.4</ele>
        <time>2022-02-02T15:05:14Z</time>
      </trkpt>
      <trkpt lat="49.92549" lon="2.20183">
        <ele>25.4</ele>
        <time>2022-02-02T15:05:15Z</time>
      </trkpt>
      <trkpt lat="49.9255" lon="2.20183">
        <ele>25.3</ele>
        <time>2022-02-02T15:05:16Z</time>
      </trkpt>
      <trkpt lat="49.92551" lon="2.20183">
        <ele>25.3</ele>
        <time>2022-02-02T15:05:17Z</time>
      </trkpt>
      <trkpt lat="49.92553" lon="2.20183">
        <ele>25.2</ele>
        <time>2022-02-02T15:05:18Z</time>
      </trkpt>
      <trkpt lat="49.92554" lon="2.20184">
        <ele>25.2</ele>
        <time>2022-02-02T15:05:20Z</time>
      </trkpt>
      <trkpt lat="49.92555" lon="2.20184">
        <ele>25.1</ele>
        <time>2022-02-02T15:05:21Z</time>
      </trkpt>
      <trkpt lat="49.92557" lon="2.20185">
        <ele>25.1</ele>
        <time>2022-02-02T15:05:22Z</time>
      </trkpt>
      <trkpt lat="49.92558" lon="2.20185">
        <ele>25</ele>
        <time>2022-02-02T15:05:23Z</time>
      </trkpt>
      <trkpt lat="49.92559" lon="2.20185">
        <ele>25</ele>
        <time>2022-02-02T15:05:24Z</time>
      </trkpt>
      <trkpt lat="49.92561" lon="2.20185">
        <ele>24.9</ele>
        <time>2022-02-02T15:05:25Z</time>
      </trkpt>
      <trkpt lat="49.92562" lon="2.20185">
        <ele>24.9</ele>
        <time>2022-02-02T15:05:26Z</time>
      </trkpt>
      <trkpt lat="49.92564" lon="2.20186">
        <ele>24.8</ele>
        <time>2022-02-02T15:05:28Z</time>
      </trkpt>
      <trkpt lat="49.92566" lon="2.20186">
        <ele>24.7</ele>
        <time>2022-02-02T15:05:29Z</time>
      </trkpt>
      <trkpt lat="49.92567" lon="2.20186">
        <ele>24.7</ele>
        <time>2022-02-02T15:05:30Z</time>
      </trkpt>
      <trkpt lat="49.92568" lon="2.20186">
        <ele>24.7</ele>
        <time>2022-02-02T15:05:31Z</time>
      </trkpt>
      <trkpt lat="49.92569" lon="2.20186">
        <ele>24.6</ele>
        <time>2022-02-02T15:05:32Z</time>
      </trkpt>
      <trkpt lat="49.92571" lon="2.20186">
        <ele>24.6</ele>
        <time>2022-02-02T15:05:33Z</time>
      </trkpt>
      <trkpt lat="49.92573" lon="2.20185">
        <ele>24.5</ele>
        <time>2022-02-02T15:05:34Z</time>
      </trkpt>
      <trkpt lat="49.92573" lon="2.20185">
        <ele>24.5</ele>
        <time>2022-02-02T15:05:35Z</time>
      </trkpt>
      <trkpt lat="49.92574" lon="2.20184">
        <ele>24.4</ele>
        <time>2022-02-02T15:05:36Z</time>
      </trkpt>
      <trkpt lat="49.92576" lon="2.20184">
        <ele>24.3</ele>
        <time>2022-02-02T15:05:38Z</time>
      </trkpt>
      <trkpt lat="49.92577" lon="2.20183">
        <ele>24.3</ele>
        <time>2022-02-02T15:05:39Z</time>
      </trkpt>
      <trkpt lat="49.92578" lon="2.20183">
        <ele>24.3</ele>
        <time>2022-02-02T15:05:40Z</time>
      </trkpt>
      <trkpt lat="49.92579" lon="2.20183">
        <ele>24.2</ele>
        <time>2022-02-02T15:05:41Z</time>
      </trkpt>
      <trkpt lat="49.9258" lon="2.20182">
        <ele>24.1</ele>
        <time>2022-02-02T15:05:42Z</time>
      </trkpt>
      <trkpt lat="49.92581" lon="2.20182">
        <ele>24.1</ele>
        <time>2022-02-02T15:05:43Z</time>
      </trkpt>
      <trkpt lat="49.92583" lon="2.20182">
        <ele>24.1</ele>
        <time>2022-02-02T15:05:44Z</time>
      </trkpt>
      <trkpt lat="49.92584" lon="2.20181">
        <ele>24.1</ele>
        <time>2022-02-02T15:05:45Z</time>
      </trkpt>
      <trkpt lat="49.92585" lon="2.20181">
        <ele>24.1</ele>
        <time>2022-02-02T15:05:46Z</time>
      </trkpt>
      <trkpt lat="49.92587" lon="2.20181">
        <ele>24.1</ele>
        <time>2022-02-02T15:05:47Z</time>
      </trkpt>
      <trkpt lat="49.92588" lon="2.2018">
        <ele>24.1</ele>
        <time>2022-02-02T15:05:49Z</time>
      </trkpt>
      <trkpt lat="49.92589" lon="2.2018">
        <ele>24.1</ele>
        <time>2022-02-02T15:05:50Z</time>
      </trkpt>
      <trkpt lat="49.9259" lon="2.20179">
        <ele>24.1</ele>
        <time>2022-02-02T15:05:51Z</time>
      </trkpt>
      <trkpt lat="49.92591" lon="2.20179">
        <ele>24.1</ele>
        <time>2022-02-02T15:05:52Z</time>
      </trkpt>
      <trkpt lat="49.92592" lon="2.20179">
        <ele>24.1</ele>
        <time>2022-02-02T15:05:53Z</time>
      </trkpt>
      <trkpt lat="49.92593" lon="2.20179">
        <ele>24.1</ele>
        <time>2022-02-02T15:05:54Z</time>
      </trkpt>
      <trkpt lat="49.92595" lon="2.2018">
        <ele>24.1</ele>
        <time>2022-02-02T15:05:55Z</time>
      </trkpt>
      <trkpt lat="49.92596" lon="2.2018">
        <ele>24</ele>
        <time>2022-02-02T15:05:56Z</time>
      </trkpt>
      <trkpt lat="49.92597" lon="2.2018">
        <ele>24</ele>
        <time>2022-02-02T15:05:58Z</time>
      </trkpt>
      <trkpt lat="49.92598" lon="2.2018">
        <ele>24</ele>
        <time>2022-02-02T15:05:59Z</time>
      </trkpt>
      <trkpt lat="49.92599" lon="2.2018">
        <ele>24</ele>
        <time>2022-02-02T15:06:00Z</time>
      </trkpt>
      <trkpt lat="49.926" lon="2.20179">
        <ele>24</ele>
        <time>2022-02-02T15:06:01Z</time>
      </trkpt>
      <trkpt lat="49.92601" lon="2.20179">
        <ele>24</ele>
        <time>2022-02-02T15:06:02Z</time>
      </trkpt>
      <trkpt lat="49.92602" lon="2.20179">
        <ele>24</ele>
        <time>2022-02-02T15:06:03Z</time>
      </trkpt>
      <trkpt lat="49.92603" lon="2.20179">
        <ele>23.9</ele>
        <time>2022-02-02T15:06:04Z</time>
      </trkpt>
      <trkpt lat="49.92604" lon="2.20178">
        <ele>23.9</ele>
        <time>2022-02-02T15:06:06Z</time>
      </trkpt>
      <trkpt lat="49.92605" lon="2.20178">
        <ele>23.9</ele>
        <time>2022-02-02T15:06:07Z</time>
      </trkpt>
      <trkpt lat="49.92607" lon="2.20178">
        <ele>23.9</ele>
        <time>2022-02-02T15:06:08Z</time>
      </trkpt>
      <trkpt lat="49.92608" lon="2.20178">
        <ele>23.9</ele>
        <time>2022-02-02T15:06:09Z</time>
      </trkpt>
      <trkpt lat="49.92608" lon="2.20179">
        <ele>23.9</ele>
        <time>2022-02-02T15:06:10Z</time>
      </trkpt>
      <trkpt lat="49.92608" lon="2.2018">
        <ele>23.8</ele>
        <time>2022-02-02T15:06:11Z</time>
      </trkpt>
      <trkpt lat="49.92608" lon="2.2018">
        <ele>23.8</ele>
        <time>2022-02-02T15:06:12Z</time>
      </trkpt>
      <trkpt lat="49.92609" lon="2.2018">
        <ele>23.8</ele>
        <time>2022-02-02T15:06:13Z</time>
      </trkpt>
      <trkpt lat="49.92611" lon="2.2018">
        <ele>23.8</ele>
        <time>2022-02-02T15:06:14Z</time>
      </trkpt>
      <trkpt lat="49.92612" lon="2.2018">
        <ele>23.8</ele>
        <time>2022-02-02T15:06:15Z</time>
      </trkpt>
      <trkpt lat="49.92613" lon="2.20179">
        <ele>23.8</ele>
        <time>2022-02-02T15:06:17Z</time>
      </trkpt>
      <trkpt lat="49.92614" lon="2.20179">
        <ele>23.8</ele>
        <time>2022-02-02T15:06:18Z</time>
      </trkpt>
      <trkpt lat="49.92617" lon="2.20179">
        <ele>23.7</ele>
        <time>2022-02-02T15:06:19Z</time>
      </trkpt>
      <trkpt lat="49.92617" lon="2.20179">
        <ele>23.7</ele>
        <time>2022-02-02T15:06:20Z</time>
      </trkpt>
      <trkpt lat="49.92618" lon="2.20179">
        <ele>23.7</ele>
        <time>2022-02-02T15:06:21Z</time>
      </trkpt>
      <trkpt lat="49.9262" lon="2.20179">
        <ele>23.7</ele>
        <time>2022-02-02T15:06:22Z</time>
      </trkpt>
      <trkpt lat="49.92621" lon="2.20179">
        <ele>23.7</ele>
        <time>2022-02-02T15:06:23Z</time>
      </trkpt>
      <trkpt lat="49.92622" lon="2.20179">
        <ele>23.7</ele>
        <time>2022-02-02T15:06:24Z</time>
      </trkpt>
      <trkpt lat="49.92624" lon="2.20178">
        <ele>23.6</ele>
        <time>2022-02-02T15:06:26Z</time>
      </trkpt>
      <trkpt lat="49.92625" lon="2.20178">
        <ele>23.6</ele>
        <time>2022-02-02T15:06:27Z</time>
      </trkpt>
      <trkpt lat="49.92626" lon="2.20178">
        <ele>23.6</ele>
        <time>2022-02-02T15:06:28Z</time>
      </trkpt>
      <trkpt lat="49.92627" lon="2.20177">
        <ele>23.6</ele>
        <time>2022-02-02T15:06:29Z</time>
      </trkpt>
      <trkpt lat="49.92628" lon="2.20175">
        <ele>23.5</ele>
        <time>2022-02-02T15:06:30Z</time>
      </trkpt>
      <trkpt lat="49.92629" lon="2.20174">
        <ele>23.5</ele>
        <time>2022-02-02T15:06:31Z</time>
      </trkpt>
      <trkpt lat="49.92631" lon="2.20174">
        <ele>23.5</ele>
        <time>2022-02-02T15:06:32Z</time>
      </trkpt>
      <trkpt lat="49.92632" lon="2.20173">
        <ele>23.4</ele>
        <time>2022-02-02T15:06:33Z</time>
      </trkpt>
      <trkpt lat="49.92633" lon="2.20172">
        <ele>23.4</ele>
        <time>2022-02-02T15:06:34Z</time>
      </trkpt>
      <trkpt lat="49.92635" lon="2.2017">
        <ele>23.4</ele>
        <time>2022-02-02T15:06:36Z</time>
      </trkpt>
      <trkpt lat="49.92636" lon="2.20169">
        <ele>23.3</ele>
        <time>2022-02-02T15:06:37Z</time>
      </trkpt>
      <trkpt lat="49.92637" lon="2.20168">
        <ele>23.3</ele>
        <time>2022-02-02T15:06:38Z</time>
      </trkpt>
      <trkpt lat="49.92638" lon="2.20167">
        <ele>23.2</ele>
        <time>2022-02-02T15:06:39Z</time>
      </trkpt>
      <trkpt lat="49.9264" lon="2.20166">
        <ele>23.2</ele>
        <time>2022-02-02T15:06:40Z</time>
      </trkpt>
      <trkpt lat="49.92642" lon="2.20165">
        <ele>23.1</ele>
        <time>2022-02-02T15:06:41Z</time>
      </trkpt>
      <trkpt lat="49.92643" lon="2.20164">
        <ele>23.1</ele>
        <time>2022-02-02T15:06:42Z</time>
      </trkpt>
      <trkpt lat="49.92644" lon="2.20162">
        <ele>23</ele>
        <time>2022-02-02T15:06:43Z</time>
      </trkpt>
      <trkpt lat="49.92646" lon="2.20161">
        <ele>23</ele>
        <time>2022-02-02T15:06:44Z</time>
      </trkpt>
      <trkpt lat="49.92647" lon="2.2016">
        <ele>22.9</ele>
        <time>2022-02-02T15:06:46Z</time>
      </trkpt>
      <trkpt lat="49.92649" lon="2.20159">
        <ele>22.9</ele>
        <time>2022-02-02T15:06:47Z</time>
      </trkpt>
      <trkpt lat="49.9265" lon="2.20158">
        <ele>22.8</ele>
        <time>2022-02-02T15:06:48Z</time>
      </trkpt>
      <trkpt lat="49.92652" lon="2.20157">
        <ele>22.8</ele>
        <time>2022-02-02T15:06:49Z</time>
      </trkpt>
      <trkpt lat="49.92653" lon="2.20155">
        <ele>22.7</ele>
        <time>2022-02-02T15:06:50Z</time>
      </trkpt>
      <trkpt lat="49.92655" lon="2.20154">
        <ele>22.7</ele>
        <time>2022-02-02T15:06:51Z</time>
      </trkpt>
      <trkpt lat="49.92656" lon="2.20153">
        <ele>22.7</ele>
        <time>2022-02-02T15:06:53Z</time>
      </trkpt>
      <trkpt lat="49.92658" lon="2.20152">
        <ele>22.8</ele>
        <time>2022-02-02T15:06:54Z</time>
      </trkpt>
      <trkpt lat="49.92659" lon="2.20151">
        <ele>22.8</ele>
        <time>2022-02-02T15:06:55Z</time>
      </trkpt>
      <trkpt lat="49.9266" lon="2.20149">
        <ele>22.8</ele>
        <time>2022-02-02T15:06:56Z</time>
      </trkpt>
      <trkpt lat="49.92662" lon="2.20148">
        <ele>22.8</ele>
        <time>2022-02-02T15:06:57Z</time>
      </trkpt>
      <trkpt lat="49.92663" lon="2.20147">
        <ele>22.8</ele>
        <time>2022-02-02T15:06:58Z</time>
      </trkpt>
      <trkpt lat="49.92664" lon="2.20145">
        <ele>22.8</ele>
        <time>2022-02-02T15:06:59Z</time>
      </trkpt>
      <trkpt lat="49.92665" lon="2.20144">
        <ele>22.8</ele>
        <time>2022-02-02T15:07:00Z</time>
      </trkpt>
      <trkpt lat="49.92667" lon="2.20143">
        <ele>22.9</ele>
        <time>2022-02-02T15:07:01Z</time>
      </trkpt>
      <trkpt lat="49.92668" lon="2.20141">
        <ele>22.9</ele>
        <time>2022-02-02T15:07:02Z</time>
      </trkpt>
      <trkpt lat="49.92669" lon="2.2014">
        <ele>22.9</ele>
        <time>2022-02-02T15:07:03Z</time>
      </trkpt>
      <trkpt lat="49.92669" lon="2.20139">
        <ele>22.9</ele>
        <time>2022-02-02T15:07:05Z</time>
      </trkpt>
      <trkpt lat="49.9267" lon="2.20138">
        <ele>22.9</ele>
        <time>2022-02-02T15:07:06Z</time>
      </trkpt>
      <trkpt lat="49.92671" lon="2.20137">
        <ele>22.9</ele>
        <time>2022-02-02T15:07:07Z</time>
      </trkpt>
      <trkpt lat="49.92672" lon="2.20137">
        <ele>22.9</ele>
        <time>2022-02-02T15:07:08Z</time>
      </trkpt>
      <trkpt lat="49.92672" lon="2.20136">
        <ele>22.9</ele>
        <time>2022-02-02T15:07:09Z</time>
      </trkpt>
      <trkpt lat="49.92674" lon="2.20135">
        <ele>23</ele>
        <time>2022-02-02T15:07:10Z</time>
      </trkpt>
      <trkpt lat="49.92675" lon="2.20134">
        <ele>23</ele>
        <time>2022-02-02T15:07:12Z</time>
      </trkpt>
      <trkpt lat="49.92675" lon="2.20133">
        <ele>23</ele>
        <time>2022-02-02T15:07:13Z</time>
      </trkpt>
      <trkpt lat="49.92677" lon="2.20131">
        <ele>23</ele>
        <time>2022-02-02T15:07:14Z</time>
      </trkpt>
      <trkpt lat="49.92678" lon="2.2013">
        <ele>23</ele>
        <time>2022-02-02T15:07:15Z</time>
      </trkpt>
      <trkpt lat="49.92678" lon="2.20129">
        <ele>23</ele>
        <time>2022-02-02T15:07:16Z</time>
      </trkpt>
      <trkpt lat="49.92679" lon="2.20128">
        <ele>23</ele>
        <time>2022-02-02T15:07:17Z</time>
      </trkpt>
      <trkpt lat="49.9268" lon="2.20126">
        <ele>23</ele>
        <time>2022-02-02T15:07:18Z</time>
      </trkpt>
      <trkpt lat="49.92682" lon="2.20123">
        <ele>23.1</ele>
        <time>2022-02-02T15:07:19Z</time>
      </trkpt>
      <trkpt lat="49.92682" lon="2.20123">
        <ele>23.1</ele>
        <time>2022-02-02T15:07:21Z</time>
      </trkpt>
      <trkpt lat="49.92683" lon="2.20122">
        <ele>23.1</ele>
        <time>2022-02-02T15:07:22Z</time>
      </trkpt>
      <trkpt lat="49.92685" lon="2.20119">
        <ele>23.1</ele>
        <time>2022-02-02T15:07:23Z</time>
      </trkpt>
      <trkpt lat="49.92685" lon="2.20119">
        <ele>23.1</ele>
        <time>2022-02-02T15:07:24Z</time>
      </trkpt>
      <trkpt lat="49.92686" lon="2.20118">
        <ele>23.1</ele>
        <time>2022-02-02T15:07:25Z</time>
      </trkpt>
      <trkpt lat="49.92687" lon="2.20115">
        <ele>23.1</ele>
        <time>2022-02-02T15:07:26Z</time>
      </trkpt>
      <trkpt lat="49.92688" lon="2.20115">
        <ele>23.1</ele>
        <time>2022-02-02T15:07:27Z</time>
      </trkpt>
      <trkpt lat="49.92689" lon="2.20114">
        <ele>23.1</ele>
        <time>2022-02-02T15:07:28Z</time>
      </trkpt>
      <trkpt lat="49.92691" lon="2.20112">
        <ele>23.2</ele>
        <time>2022-02-02T15:07:29Z</time>
      </trkpt>
      <trkpt lat="49.92691" lon="2.20111">
        <ele>23.2</ele>
        <time>2022-02-02T15:07:31Z</time>
      </trkpt>
      <trkpt lat="49.92692" lon="2.2011">
        <ele>23.2</ele>
        <time>2022-02-02T15:07:32Z</time>
      </trkpt>
      <trkpt lat="49.92694" lon="2.20108">
        <ele>23.2</ele>
        <time>2022-02-02T15:07:33Z</time>
      </trkpt>
      <trkpt lat="49.92694" lon="2.20107">
        <ele>23.2</ele>
        <time>2022-02-02T15:07:34Z</time>
      </trkpt>
      <trkpt lat="49.92695" lon="2.20107">
        <ele>23.2</ele>
        <time>2022-02-02T15:07:35Z</time>
      </trkpt>
      <trkpt lat="49.92697" lon="2.20105">
        <ele>23.2</ele>
        <time>2022-02-02T15:07:36Z</time>
      </trkpt>
      <trkpt lat="49.92698" lon="2.20104">
        <ele>23.2</ele>
        <time>2022-02-02T15:07:37Z</time>
      </trkpt>
      <trkpt lat="49.92699" lon="2.20103">
        <ele>23.2</ele>
        <time>2022-02-02T15:07:38Z</time>
      </trkpt>
      <trkpt lat="49.927" lon="2.20102">
        <ele>23.2</ele>
        <time>2022-02-02T15:07:39Z</time>
      </trkpt>
      <trkpt lat="49.92701" lon="2.20101">
        <ele>23.2</ele>
        <time>2022-02-02T15:07:40Z</time>
      </trkpt>
      <trkpt lat="49.92702" lon="2.201">
        <ele>23.2</ele>
        <time>2022-02-02T15:07:42Z</time>
      </trkpt>
      <trkpt lat="49.92703" lon="2.20099">
        <ele>23.2</ele>
        <time>2022-02-02T15:07:43Z</time>
      </trkpt>
      <trkpt lat="49.92705" lon="2.20097">
        <ele>23.2</ele>
        <time>2022-02-02T15:07:44Z</time>
      </trkpt>
      <trkpt lat="49.92706" lon="2.20096">
        <ele>23.2</ele>
        <time>2022-02-02T15:07:45Z</time>
      </trkpt>
      <trkpt lat="49.92706" lon="2.20095">
        <ele>23.2</ele>
        <time>2022-02-02T15:07:46Z</time>
      </trkpt>
      <trkpt lat="49.92708" lon="2.20094">
        <ele>23.2</ele>
        <time>2022-02-02T15:07:47Z</time>
      </trkpt>
      <trkpt lat="49.92709" lon="2.20093">
        <ele>23.2</ele>
        <time>2022-02-02T15:07:48Z</time>
      </trkpt>
      <trkpt lat="49.9271" lon="2.20091">
        <ele>23.2</ele>
        <time>2022-02-02T15:07:49Z</time>
      </trkpt>
      <trkpt lat="49.92711" lon="2.2009">
        <ele>23.2</ele>
        <time>2022-02-02T15:07:50Z</time>
      </trkpt>
      <trkpt lat="49.92713" lon="2.20089">
        <ele>23.2</ele>
        <time>2022-02-02T15:07:51Z</time>
      </trkpt>
      <trkpt lat="49.92714" lon="2.20088">
        <ele>23.2</ele>
        <time>2022-02-02T15:07:53Z</time>
      </trkpt>
      <trkpt lat="49.92715" lon="2.20087">
        <ele>23.2</ele>
        <time>2022-02-02T15:07:54Z</time>
      </trkpt>
      <trkpt lat="49.92717" lon="2.20085">
        <ele>23.3</ele>
        <time>2022-02-02T15:07:55Z</time>
      </trkpt>
      <trkpt lat="49.92718" lon="2.20085">
        <ele>23.3</ele>
        <time>2022-02-02T15:07:56Z</time>
      </trkpt>
      <trkpt lat="49.9272" lon="2.20084">
        <ele>23.3</ele>
        <time>2022-02-02T15:07:57Z</time>
      </trkpt>
      <trkpt lat="49.92722" lon="2.20083">
        <ele>23.3</ele>
        <time>2022-02-02T15:07:58Z</time>
      </trkpt>
      <trkpt lat="49.92722" lon="2.20083">
        <ele>23.3</ele>
        <time>2022-02-02T15:07:59Z</time>
      </trkpt>
      <trkpt lat="49.92723" lon="2.20082">
        <ele>23.3</ele>
        <time>2022-02-02T15:08:00Z</time>
      </trkpt>
      <trkpt lat="49.92724" lon="2.20081">
        <ele>23.3</ele>
        <time>2022-02-02T15:08:01Z</time>
      </trkpt>
      <trkpt lat="49.92725" lon="2.2008">
        <ele>23.3</ele>
        <time>2022-02-02T15:08:02Z</time>
      </trkpt>
      <trkpt lat="49.92726" lon="2.20078">
        <ele>23.3</ele>
        <time>2022-02-02T15:08:04Z</time>
      </trkpt>
      <trkpt lat="49.92728" lon="2.20076">
        <ele>23.3</ele>
        <time>2022-02-02T15:08:05Z</time>
      </trkpt>
      <trkpt lat="49.92729" lon="2.20076">
        <ele>23.3</ele>
        <time>2022-02-02T15:08:06Z</time>
      </trkpt>
      <trkpt lat="49.92729" lon="2.20075">
        <ele>23.3</ele>
        <time>2022-02-02T15:08:07Z</time>
      </trkpt>
      <trkpt lat="49.9273" lon="2.20074">
        <ele>23.3</ele>
        <time>2022-02-02T15:08:08Z</time>
      </trkpt>
      <trkpt lat="49.92731" lon="2.20072">
        <ele>23.3</ele>
        <time>2022-02-02T15:08:09Z</time>
      </trkpt>
      <trkpt lat="49.92732" lon="2.20071">
        <ele>23.3</ele>
        <time>2022-02-02T15:08:10Z</time>
      </trkpt>
      <trkpt lat="49.92732" lon="2.2007">
        <ele>23.3</ele>
        <time>2022-02-02T15:08:11Z</time>
      </trkpt>
      <trkpt lat="49.92733" lon="2.20067">
        <ele>23.3</ele>
        <time>2022-02-02T15:08:12Z</time>
      </trkpt>
      <trkpt lat="49.92734" lon="2.20065">
        <ele>23.3</ele>
        <time>2022-02-02T15:08:13Z</time>
      </trkpt>
      <trkpt lat="49.92735" lon="2.20064">
        <ele>23.3</ele>
        <time>2022-02-02T15:08:14Z</time>
      </trkpt>
      <trkpt lat="49.92735" lon="2.20063">
        <ele>23.3</ele>
        <time>2022-02-02T15:08:15Z</time>
      </trkpt>
      <trkpt lat="49.92736" lon="2.2006">
        <ele>23.3</ele>
        <time>2022-02-02T15:08:17Z</time>
      </trkpt>
      <trkpt lat="49.92736" lon="2.20059">
        <ele>23.3</ele>
        <time>2022-02-02T15:08:18Z</time>
      </trkpt>
      <trkpt lat="49.92737" lon="2.20058">
        <ele>23.3</ele>
        <time>2022-02-02T15:08:19Z</time>
      </trkpt>
      <trkpt lat="49.92737" lon="2.20055">
        <ele>23.3</ele>
        <time>2022-02-02T15:08:20Z</time>
      </trkpt>
      <trkpt lat="49.92738" lon="2.20054">
        <ele>23.3</ele>
        <time>2022-02-02T15:08:21Z</time>
      </trkpt>
      <trkpt lat="49.92738" lon="2.20053">
        <ele>23.3</ele>
        <time>2022-02-02T15:08:22Z</time>
      </trkpt>
      <trkpt lat="49.92739" lon="2.20052">
        <ele>23.3</ele>
        <time>2022-02-02T15:08:23Z</time>
      </trkpt>
      <trkpt lat="49.92739" lon="2.20051">
        <ele>23.3</ele>
        <time>2022-02-02T15:08:24Z</time>
      </trkpt>
      <trkpt lat="49.9274" lon="2.20049">
        <ele>23.3</ele>
        <time>2022-02-02T15:08:25Z</time>
      </trkpt>
      <trkpt lat="49.9274" lon="2.20047">
        <ele>23.3</ele>
        <time>2022-02-02T15:08:26Z</time>
      </trkpt>
      <trkpt lat="49.9274" lon="2.20045">
        <ele>23.3</ele>
        <time>2022-02-02T15:08:27Z</time>
      </trkpt>
      <trkpt lat="49.9274" lon="2.20044">
        <ele>23.3</ele>
        <time>2022-02-02T15:08:29Z</time>
      </trkpt>
      <trkpt lat="49.9274" lon="2.20043">
        <ele>23.3</ele>
        <time>2022-02-02T15:08:30Z</time>
      </trkpt>
      <trkpt lat="49.9274" lon="2.20042">
        <ele>23.3</ele>
        <time>2022-02-02T15:08:31Z</time>
      </trkpt>
      <trkpt lat="49.92741" lon="2.2004">
        <ele>23.3</ele>
        <time>2022-02-02T15:08:32Z</time>
      </trkpt>
      <trkpt lat="49.92741" lon="2.20039">
        <ele>23.3</ele>
        <time>2022-02-02T15:08:33Z</time>
      </trkpt>
      <trkpt lat="49.92742" lon="2.20037">
        <ele>23.3</ele>
        <time>2022-02-02T15:08:34Z</time>
      </trkpt>
      <trkpt lat="49.92742" lon="2.20036">
        <ele>23.3</ele>
        <time>2022-02-02T15:08:35Z</time>
      </trkpt>
      <trkpt lat="49.92743" lon="2.20034">
        <ele>23.3</ele>
        <time>2022-02-02T15:08:36Z</time>
      </trkpt>
      <trkpt lat="49.92744" lon="2.20033">
        <ele>23.3</ele>
        <time>2022-02-02T15:08:37Z</time>
      </trkpt>
      <trkpt lat="49.92744" lon="2.20031">
        <ele>23.3</ele>
        <time>2022-02-02T15:08:38Z</time>
      </trkpt>
      <trkpt lat="49.92745" lon="2.2003">
        <ele>23.3</ele>
        <time>2022-02-02T15:08:39Z</time>
      </trkpt>
      <trkpt lat="49.92745" lon="2.20029">
        <ele>23.3</ele>
        <time>2022-02-02T15:08:40Z</time>
      </trkpt>
      <trkpt lat="49.92746" lon="2.20027">
        <ele>23.3</ele>
        <time>2022-02-02T15:08:41Z</time>
      </trkpt>
      <trkpt lat="49.92746" lon="2.20026">
        <ele>23.3</ele>
        <time>2022-02-02T15:08:42Z</time>
      </trkpt>
      <trkpt lat="49.92747" lon="2.20025">
        <ele>23.3</ele>
        <time>2022-02-02T15:08:43Z</time>
      </trkpt>
      <trkpt lat="49.92747" lon="2.20024">
        <ele>23.3</ele>
        <time>2022-02-02T15:08:44Z</time>
      </trkpt>
      <trkpt lat="49.92748" lon="2.20023">
        <ele>23.3</ele>
        <time>2022-02-02T15:08:45Z</time>
      </trkpt>
      <trkpt lat="49.92749" lon="2.20022">
        <ele>23.3</ele>
        <time>2022-02-02T15:08:46Z</time>
      </trkpt>
      <trkpt lat="49.9275" lon="2.20021">
        <ele>23.3</ele>
        <time>2022-02-02T15:08:47Z</time>
      </trkpt>
      <trkpt lat="49.92752" lon="2.20021">
        <ele>23.3</ele>
        <time>2022-02-02T15:08:49Z</time>
      </trkpt>
      <trkpt lat="49.92753" lon="2.20022">
        <ele>23.3</ele>
        <time>2022-02-02T15:08:50Z</time>
      </trkpt>
      <trkpt lat="49.92754" lon="2.20023">
        <ele>23.3</ele>
        <time>2022-02-02T15:08:51Z</time>
      </trkpt>
      <trkpt lat="49.92756" lon="2.20024">
        <ele>23.3</ele>
        <time>2022-02-02T15:08:52Z</time>
      </trkpt>
      <trkpt lat="49.92757" lon="2.20025">
        <ele>23.3</ele>
        <time>2022-02-02T15:08:53Z</time>
      </trkpt>
      <trkpt lat="49.92758" lon="2.20025">
        <ele>23.3</ele>
        <time>2022-02-02T15:08:54Z</time>
      </trkpt>
      <trkpt lat="49.9276" lon="2.20028">
        <ele>23.3</ele>
        <time>2022-02-02T15:08:55Z</time>
      </trkpt>
      <trkpt lat="49.92761" lon="2.20029">
        <ele>23.3</ele>
        <time>2022-02-02T15:08:56Z</time>
      </trkpt>
      <trkpt lat="49.92762" lon="2.20031">
        <ele>23.3</ele>
        <time>2022-02-02T15:08:58Z</time>
      </trkpt>
      <trkpt lat="49.92763" lon="2.20032">
        <ele>23.3</ele>
        <time>2022-02-02T15:08:59Z</time>
      </trkpt>
      <trkpt lat="49.92764" lon="2.20032">
        <ele>23.3</ele>
        <time>2022-02-02T15:09:00Z</time>
      </trkpt>
      <trkpt lat="49.92765" lon="2.20032">
        <ele>23.3</ele>
        <time>2022-02-02T15:09:01Z</time>
      </trkpt>
      <trkpt lat="49.92765" lon="2.20032">
        <ele>23.3</ele>
        <time>2022-02-02T15:09:02Z</time>
      </trkpt>
      <trkpt lat="49.92766" lon="2.20031">
        <ele>23.3</ele>
        <time>2022-02-02T15:09:03Z</time>
      </trkpt>
      <trkpt lat="49.92766" lon="2.20031">
        <ele>23.3</ele>
        <time>2022-02-02T15:09:04Z</time>
      </trkpt>
      <trkpt lat="49.92766" lon="2.20032">
        <ele>23.3</ele>
        <time>2022-02-02T15:09:05Z</time>
      </trkpt>
      <trkpt lat="49.92766" lon="2.20032">
        <ele>23.3</ele>
        <time>2022-02-02T15:09:07Z</time>
      </trkpt>
      <trkpt lat="49.92766" lon="2.20033">
        <ele>23.3</ele>
        <time>2022-02-02T15:09:08Z</time>
      </trkpt>
      <trkpt lat="49.92766" lon="2.20035">
        <ele>23.3</ele>
        <time>2022-02-02T15:09:09Z</time>
      </trkpt>
      <trkpt lat="49.92767" lon="2.20035">
        <ele>23.3</ele>
        <time>2022-02-02T15:09:10Z</time>
      </trkpt>
      <trkpt lat="49.92767" lon="2.20036">
        <ele>23.3</ele>
        <time>2022-02-02T15:09:11Z</time>
      </trkpt>
      <trkpt lat="49.92767" lon="2.20038">
        <ele>23.3</ele>
        <time>2022-02-02T15:09:12Z</time>
      </trkpt>
      <trkpt lat="49.92768" lon="2.20038">
        <ele>23.3</ele>
        <time>2022-02-02T15:09:14Z</time>
      </trkpt>
      <trkpt lat="49.92769" lon="2.20038">
        <ele>23.3</ele>
        <time>2022-02-02T15:09:15Z</time>
      </trkpt>
      <trkpt lat="49.92769" lon="2.20039">
        <ele>23.3</ele>
        <time>2022-02-02T15:09:16Z</time>
      </trkpt>
      <trkpt lat="49.9277" lon="2.20039">
        <ele>23.3</ele>
        <time>2022-02-02T15:09:17Z</time>
      </trkpt>
      <trkpt lat="49.92771" lon="2.20039">
        <ele>23.3</ele>
        <time>2022-02-02T15:09:19Z</time>
      </trkpt>
      <trkpt lat="49.92772" lon="2.2004">
        <ele>23.3</ele>
        <time>2022-02-02T15:09:20Z</time>
      </trkpt>
      <trkpt lat="49.92772" lon="2.2004">
        <ele>23.3</ele>
        <time>2022-02-02T15:09:21Z</time>
      </trkpt>
      <trkpt lat="49.92772" lon="2.20041">
        <ele>23.3</ele>
        <time>2022-02-02T15:09:22Z</time>
      </trkpt>
      <trkpt lat="49.92773" lon="2.20042">
        <ele>23.3</ele>
        <time>2022-02-02T15:09:23Z</time>
      </trkpt>
      <trkpt lat="49.92773" lon="2.20043">
        <ele>23.3</ele>
        <time>2022-02-02T15:09:25Z</time>
      </trkpt>
      <trkpt lat="49.92773" lon="2.20043">
        <ele>23.3</ele>
        <time>2022-02-02T15:09:26Z</time>
      </trkpt>
      <trkpt lat="49.92774" lon="2.20043">
        <ele>23.3</ele>
        <time>2022-02-02T15:09:27Z</time>
      </trkpt>
      <trkpt lat="49.92774" lon="2.20043">
        <ele>23.3</ele>
        <time>2022-02-02T15:09:28Z</time>
      </trkpt>
      <trkpt lat="49.92775" lon="2.20043">
        <ele>23.3</ele>
        <time>2022-02-02T15:09:30Z</time>
      </trkpt>
      <trkpt lat="49.92775" lon="2.20044">
        <ele>23.3</ele>
        <time>2022-02-02T15:09:31Z</time>
      </trkpt>
      <trkpt lat="49.92775" lon="2.20044">
        <ele>23.3</ele>
        <time>2022-02-02T15:09:32Z</time>
      </trkpt>
      <trkpt lat="49.92775" lon="2.20044">
        <ele>23.3</ele>
        <time>2022-02-02T15:09:33Z</time>
      </trkpt>
      <trkpt lat="49.92775" lon="2.20045">
        <ele>23.3</ele>
        <time>2022-02-02T15:09:34Z</time>
      </trkpt>
      <trkpt lat="49.92776" lon="2.20045">
        <ele>23.3</ele>
        <time>2022-02-02T15:09:36Z</time>
      </trkpt>
      <trkpt lat="49.92776" lon="2.20046">
        <ele>23.3</ele>
        <time>2022-02-02T15:09:37Z</time>
      </trkpt>
      <trkpt lat="49.92776" lon="2.20047">
        <ele>23.3</ele>
        <time>2022-02-02T15:09:39Z</time>
      </trkpt>
      <trkpt lat="49.92776" lon="2.20047">
        <ele>23.3</ele>
        <time>2022-02-02T15:09:40Z</time>
      </trkpt>
      <trkpt lat="49.92776" lon="2.20048">
        <ele>23.3</ele>
        <time>2022-02-02T15:09:41Z</time>
      </trkpt>
      <trkpt lat="49.92776" lon="2.20048">
        <ele>23.3</ele>
        <time>2022-02-02T15:09:42Z</time>
      </trkpt>
      <trkpt lat="49.92775" lon="2.20048">
        <ele>23.3</ele>
        <time>2022-02-02T15:09:43Z</time>
      </trkpt>
      <trkpt lat="49.92775" lon="2.20048">
        <ele>23.3</ele>
        <time>2022-02-02T15:09:44Z</time>
      </trkpt>
      <trkpt lat="49.92775" lon="2.20048">
        <ele>23.3</ele>
        <time>2022-02-02T15:09:45Z</time>
      </trkpt>
      <trkpt lat="49.92775" lon="2.20047">
        <ele>23.3</ele>
        <time>2022-02-02T15:09:46Z</time>
      </trkpt>
      <trkpt lat="49.92775" lon="2.20047">
        <ele>23.3</ele>
        <time>2022-02-02T15:09:47Z</time>
      </trkpt>
    </trkseg>
  </trk>
</gpx>